<?xml version="1.0" encoding="UTF-8"?>
<gpx version="1.1" creator="https://www.youtrack.es" xsi:schemaLocation="http://www.topografix.com/GPX/1/1 http://www.topografix.com/GPX/1/1/gpx.xsd http://www.garmin.com/xmlschemas/GpxExtensions/v3 http://www.garmin.com/xmlschemas/GpxExtensionsv3.xsd http://www.garmin.com/xmlschemas/TrackPointExtension/v1 http://www.garmin.com/xmlschemas/TrackPointExtensionv1.xsd" xmlns:gpxtpx="http://www.garmin.com/xmlschemas/TrackPointExtension/v1" xmlns:gpxx="http://www.garmin.com/xmlschemas/GpxExtensions/v3" xmlns:xsi="http://www.w3.org/2001/XMLSchema-instance">
  <metadata>
    <link href="https://www.youtrack.es">
      <text>YouTrack.es</text>
    </link>
    <time>2026-05-08T10:29:45Z</time>
  </metadata>
  <trk>
    <src>https://www.youtrack.es</src>
    <link href="https://www.youtrack.es/ruta/31104-urbia">
      <text>YouTrack.es</text>
    </link>
    <trkseg>
      <trkpt lat="42.97666179947555065155029296875" lon="-2.392291724681854248046875">
        <ele>803.4000244140625</ele>
        <time>2022-04-17T10:25:33.000Z</time>
      </trkpt>
      <trkpt lat="42.9766583628952503204345703125" lon="-2.39228007383644580841064453125">
        <ele>803.4000244140625</ele>
        <time>2022-04-17T10:25:34.000Z</time>
      </trkpt>
      <trkpt lat="42.9766630567610263824462890625" lon="-2.39227001555263996124267578125">
        <ele>803.4000244140625</ele>
        <time>2022-04-17T10:25:35.000Z</time>
      </trkpt>
      <trkpt lat="42.97666498459875583648681640625" lon="-2.392261885106563568115234375">
        <ele>803.4000244140625</ele>
        <time>2022-04-17T10:25:36.000Z</time>
      </trkpt>
      <trkpt lat="42.97666263766586780548095703125" lon="-2.392251491546630859375">
        <ele>803.4000244140625</ele>
        <time>2022-04-17T10:25:37.000Z</time>
      </trkpt>
      <trkpt lat="42.97666179947555065155029296875" lon="-2.3922446183860301971435546875">
        <ele>803.4000244140625</ele>
        <time>2022-04-17T10:25:38.000Z</time>
      </trkpt>
      <trkpt lat="42.97666297294199466705322265625" lon="-2.3922332189977169036865234375">
        <ele>804.20001220703125</ele>
        <time>2022-04-17T10:25:39.000Z</time>
      </trkpt>
      <trkpt lat="42.97666154801845550537109375" lon="-2.39222207106649875640869140625">
        <ele>804.79998779296875</ele>
        <time>2022-04-17T10:25:40.000Z</time>
      </trkpt>
      <trkpt lat="42.97666230238974094390869140625" lon="-2.392212934792041778564453125">
        <ele>805.20001220703125</ele>
        <time>2022-04-17T10:25:41.000Z</time>
      </trkpt>
      <trkpt lat="42.97666247002780437469482421875" lon="-2.39220262505114078521728515625">
        <ele>805.4000244140625</ele>
        <time>2022-04-17T10:25:42.000Z</time>
      </trkpt>
      <trkpt lat="42.97665727324783802032470703125" lon="-2.3921911418437957763671875">
        <ele>805.79998779296875</ele>
        <time>2022-04-17T10:25:43.000Z</time>
      </trkpt>
      <trkpt lat="42.976657189428806304931640625" lon="-2.392182089388370513916015625">
        <ele>806</ele>
        <time>2022-04-17T10:25:44.000Z</time>
      </trkpt>
      <trkpt lat="42.97665911726653575897216796875" lon="-2.392174042761325836181640625">
        <ele>806.20001220703125</ele>
        <time>2022-04-17T10:25:45.000Z</time>
      </trkpt>
      <trkpt lat="42.97666490077972412109375" lon="-2.39216004498302936553955078125">
        <ele>806.4000244140625</ele>
        <time>2022-04-17T10:25:46.000Z</time>
      </trkpt>
      <trkpt lat="42.97667085193097591400146484375" lon="-2.3921535909175872802734375">
        <ele>806.5999755859375</ele>
        <time>2022-04-17T10:25:47.000Z</time>
      </trkpt>
      <trkpt lat="42.976675964891910552978515625" lon="-2.39215283654630184173583984375">
        <ele>806.5999755859375</ele>
        <time>2022-04-17T10:25:48.000Z</time>
      </trkpt>
      <trkpt lat="42.97668300569057464599609375" lon="-2.39215987734496593475341796875">
        <ele>806.79998779296875</ele>
        <time>2022-04-17T10:25:49.000Z</time>
      </trkpt>
      <trkpt lat="42.976682670414447784423828125" lon="-2.3921537585556507110595703125">
        <ele>807</ele>
        <time>2022-04-17T10:25:50.000Z</time>
      </trkpt>
      <trkpt lat="42.97667873091995716094970703125" lon="-2.39214512519538402557373046875">
        <ele>807.20001220703125</ele>
        <time>2022-04-17T10:25:51.000Z</time>
      </trkpt>
      <trkpt lat="42.976677305996417999267578125" lon="-2.3921430297195911407470703125">
        <ele>807.20001220703125</ele>
        <time>2022-04-17T10:25:52.000Z</time>
      </trkpt>
      <trkpt lat="42.97668023966252803802490234375" lon="-2.39213070832192897796630859375">
        <ele>806.5999755859375</ele>
        <time>2022-04-17T10:25:53.000Z</time>
      </trkpt>
      <trkpt lat="42.97668074257671833038330078125" lon="-2.39211997948586940765380859375">
        <ele>806.5999755859375</ele>
        <time>2022-04-17T10:25:54.000Z</time>
      </trkpt>
      <trkpt lat="42.97667923383414745330810546875" lon="-2.392104305326938629150390625">
        <ele>806.5999755859375</ele>
        <time>2022-04-17T10:25:55.000Z</time>
      </trkpt>
      <trkpt lat="42.976681999862194061279296875" lon="-2.392092905938625335693359375">
        <ele>806.5999755859375</ele>
        <time>2022-04-17T10:25:56.000Z</time>
      </trkpt>
      <trkpt lat="42.97668107785284519195556640625" lon="-2.3920784890651702880859375">
        <ele>807.5999755859375</ele>
        <time>2022-04-17T10:25:57.000Z</time>
      </trkpt>
      <trkpt lat="42.97667562961578369140625" lon="-2.39206315018236637115478515625">
        <ele>808.20001220703125</ele>
        <time>2022-04-17T10:25:58.000Z</time>
      </trkpt>
      <trkpt lat="42.97666247002780437469482421875" lon="-2.39205007441341876983642578125">
        <ele>808.5999755859375</ele>
        <time>2022-04-17T10:25:59.000Z</time>
      </trkpt>
      <trkpt lat="42.97664771787822246551513671875" lon="-2.3920457996428012847900390625">
        <ele>808.79998779296875</ele>
        <time>2022-04-17T10:26:00.000Z</time>
      </trkpt>
      <trkpt lat="42.976641096174716949462890625" lon="-2.39203481934964656829833984375">
        <ele>809</ele>
        <time>2022-04-17T10:26:01.000Z</time>
      </trkpt>
      <trkpt lat="42.97663849778473377227783203125" lon="-2.3920283652842044830322265625">
        <ele>809</ele>
        <time>2022-04-17T10:26:02.000Z</time>
      </trkpt>
      <trkpt lat="42.97663665376603603363037109375" lon="-2.39202819764614105224609375">
        <ele>809.20001220703125</ele>
        <time>2022-04-17T10:26:03.000Z</time>
      </trkpt>
      <trkpt lat="42.97663447447121143341064453125" lon="-2.392024509608745574951171875">
        <ele>809.4000244140625</ele>
        <time>2022-04-17T10:26:04.000Z</time>
      </trkpt>
      <trkpt lat="42.97663548029959201812744140625" lon="-2.39200673997402191162109375">
        <ele>809.4000244140625</ele>
        <time>2022-04-17T10:26:05.000Z</time>
      </trkpt>
      <trkpt lat="42.97663606703281402587890625" lon="-2.39200095646083354949951171875">
        <ele>809.4000244140625</ele>
        <time>2022-04-17T10:26:06.000Z</time>
      </trkpt>
      <trkpt lat="42.976636402308940887451171875" lon="-2.3919901438057422637939453125">
        <ele>809.5999755859375</ele>
        <time>2022-04-17T10:26:07.000Z</time>
      </trkpt>
      <trkpt lat="42.97663338482379913330078125" lon="-2.39198519848287105560302734375">
        <ele>809.5999755859375</ele>
        <time>2022-04-17T10:26:08.000Z</time>
      </trkpt>
      <trkpt lat="42.9766328819096088409423828125" lon="-2.3919871263206005096435546875">
        <ele>809.5999755859375</ele>
        <time>2022-04-17T10:26:09.000Z</time>
      </trkpt>
      <trkpt lat="42.97662609256803989410400390625" lon="-2.391974218189716339111328125">
        <ele>809.79998779296875</ele>
        <time>2022-04-17T10:26:10.000Z</time>
      </trkpt>
      <trkpt lat="42.9766245000064373016357421875" lon="-2.39196441136300563812255859375">
        <ele>809.79998779296875</ele>
        <time>2022-04-17T10:26:11.000Z</time>
      </trkpt>
      <trkpt lat="42.97662056051194667816162109375" lon="-2.39194949157536029815673828125">
        <ele>810</ele>
        <time>2022-04-17T10:26:12.000Z</time>
      </trkpt>
      <trkpt lat="42.97661863267421722412109375" lon="-2.39193306304514408111572265625">
        <ele>810.20001220703125</ele>
        <time>2022-04-17T10:26:13.000Z</time>
      </trkpt>
      <trkpt lat="42.97661301679909229278564453125" lon="-2.391923926770687103271484375">
        <ele>810.20001220703125</ele>
        <time>2022-04-17T10:26:14.000Z</time>
      </trkpt>
      <trkpt lat="42.9766080714762210845947265625" lon="-2.39191663451492786407470703125">
        <ele>810.4000244140625</ele>
        <time>2022-04-17T10:26:15.000Z</time>
      </trkpt>
      <trkpt lat="42.97660262323915958404541015625" lon="-2.39190875552594661712646484375">
        <ele>810.4000244140625</ele>
        <time>2022-04-17T10:26:16.000Z</time>
      </trkpt>
      <trkpt lat="42.976597845554351806640625" lon="-2.391900122165679931640625">
        <ele>810.5999755859375</ele>
        <time>2022-04-17T10:26:17.000Z</time>
      </trkpt>
      <trkpt lat="42.97659373842179775238037109375" lon="-2.391893751919269561767578125">
        <ele>810.5999755859375</ele>
        <time>2022-04-17T10:26:18.000Z</time>
      </trkpt>
      <trkpt lat="42.9765884578227996826171875" lon="-2.39188360981643199920654296875">
        <ele>810.5999755859375</ele>
        <time>2022-04-17T10:26:19.000Z</time>
      </trkpt>
      <trkpt lat="42.9765866138041019439697265625" lon="-2.391875647008419036865234375">
        <ele>810.5999755859375</ele>
        <time>2022-04-17T10:26:20.000Z</time>
      </trkpt>
      <trkpt lat="42.976584099233150482177734375" lon="-2.39186483435332775115966796875">
        <ele>810.5999755859375</ele>
        <time>2022-04-17T10:26:21.000Z</time>
      </trkpt>
      <trkpt lat="42.97658133320510387420654296875" lon="-2.391849495470523834228515625">
        <ele>810.79998779296875</ele>
        <time>2022-04-17T10:26:22.000Z</time>
      </trkpt>
      <trkpt lat="42.9765777289867401123046875" lon="-2.39183180965483188629150390625">
        <ele>810.79998779296875</ele>
        <time>2022-04-17T10:26:23.000Z</time>
      </trkpt>
      <trkpt lat="42.9765752144157886505126953125" lon="-2.39181772805750370025634765625">
        <ele>810.79998779296875</ele>
        <time>2022-04-17T10:26:24.000Z</time>
      </trkpt>
      <trkpt lat="42.97657311893999576568603515625" lon="-2.391801215708255767822265625">
        <ele>810.79998779296875</ele>
        <time>2022-04-17T10:26:25.000Z</time>
      </trkpt>
      <trkpt lat="42.97657228074967861175537109375" lon="-2.39179207943379878997802734375">
        <ele>810.79998779296875</ele>
        <time>2022-04-17T10:26:26.000Z</time>
      </trkpt>
      <trkpt lat="42.976571023464202880859375" lon="-2.3917829431593418121337890625">
        <ele>811</ele>
        <time>2022-04-17T10:26:27.000Z</time>
      </trkpt>
      <trkpt lat="42.97656758688390254974365234375" lon="-2.39176844246685504913330078125">
        <ele>811</ele>
        <time>2022-04-17T10:26:28.000Z</time>
      </trkpt>
      <trkpt lat="42.97656725160777568817138671875" lon="-2.39175519905984401702880859375">
        <ele>811</ele>
        <time>2022-04-17T10:26:29.000Z</time>
      </trkpt>
      <trkpt lat="42.9765621386468410491943359375" lon="-2.3917427100241184234619140625">
        <ele>811.20001220703125</ele>
        <time>2022-04-17T10:26:30.000Z</time>
      </trkpt>
      <trkpt lat="42.97655518166720867156982421875" lon="-2.39172737114131450653076171875">
        <ele>811.4000244140625</ele>
        <time>2022-04-17T10:26:31.000Z</time>
      </trkpt>
      <trkpt lat="42.97654621303081512451171875" lon="-2.39170289598405361175537109375">
        <ele>811.4000244140625</ele>
        <time>2022-04-17T10:26:32.000Z</time>
      </trkpt>
      <trkpt lat="42.976542524993419647216796875" lon="-2.39168546162545680999755859375">
        <ele>811.5999755859375</ele>
        <time>2022-04-17T10:26:33.000Z</time>
      </trkpt>
      <trkpt lat="42.97654361464083194732666015625" lon="-2.391669787466526031494140625">
        <ele>811.79998779296875</ele>
        <time>2022-04-17T10:26:34.000Z</time>
      </trkpt>
      <trkpt lat="42.97654529102146625518798828125" lon="-2.391657046973705291748046875">
        <ele>811.79998779296875</ele>
        <time>2022-04-17T10:26:35.000Z</time>
      </trkpt>
      <trkpt lat="42.9765403456985950469970703125" lon="-2.39164522849023342132568359375">
        <ele>812.20001220703125</ele>
        <time>2022-04-17T10:26:36.000Z</time>
      </trkpt>
      <trkpt lat="42.9765356518328189849853515625" lon="-2.3916280455887317657470703125">
        <ele>812.4000244140625</ele>
        <time>2022-04-17T10:26:37.000Z</time>
      </trkpt>
      <trkpt lat="42.976529784500598907470703125" lon="-2.3916064202785491943359375">
        <ele>812.4000244140625</ele>
        <time>2022-04-17T10:26:38.000Z</time>
      </trkpt>
      <trkpt lat="42.9765240848064422607421875" lon="-2.39159007556736469268798828125">
        <ele>812.5999755859375</ele>
        <time>2022-04-17T10:26:39.000Z</time>
      </trkpt>
      <trkpt lat="42.97651830129325389862060546875" lon="-2.39156828261911869049072265625">
        <ele>812.5999755859375</ele>
        <time>2022-04-17T10:26:40.000Z</time>
      </trkpt>
      <trkpt lat="42.976510338485240936279296875" lon="-2.391552440822124481201171875">
        <ele>812.5999755859375</ele>
        <time>2022-04-17T10:26:41.000Z</time>
      </trkpt>
      <trkpt lat="42.976506985723972320556640625" lon="-2.3915442265570163726806640625">
        <ele>812.5999755859375</ele>
        <time>2022-04-17T10:26:42.000Z</time>
      </trkpt>
      <trkpt lat="42.97650522552430629730224609375" lon="-2.3915412090718746185302734375">
        <ele>812.79998779296875</ele>
        <time>2022-04-17T10:26:43.000Z</time>
      </trkpt>
      <trkpt lat="42.97650790773332118988037109375" lon="-2.391532324254512786865234375">
        <ele>812.79998779296875</ele>
        <time>2022-04-17T10:26:44.000Z</time>
      </trkpt>
      <trkpt lat="42.9765105061233043670654296875" lon="-2.39152335561811923980712890625">
        <ele>812.79998779296875</ele>
        <time>2022-04-17T10:26:45.000Z</time>
      </trkpt>
      <trkpt lat="42.97651469707489013671875" lon="-2.39150910638272762298583984375">
        <ele>813</ele>
        <time>2022-04-17T10:26:46.000Z</time>
      </trkpt>
      <trkpt lat="42.97651528380811214447021484375" lon="-2.39149519242346286773681640625">
        <ele>813</ele>
        <time>2022-04-17T10:26:47.000Z</time>
      </trkpt>
      <trkpt lat="42.97651528380811214447021484375" lon="-2.39148446358740329742431640625">
        <ele>813.20001220703125</ele>
        <time>2022-04-17T10:26:48.000Z</time>
      </trkpt>
      <trkpt lat="42.97651276923716068267822265625" lon="-2.39147189073264598846435546875">
        <ele>813.20001220703125</ele>
        <time>2022-04-17T10:26:49.000Z</time>
      </trkpt>
      <trkpt lat="42.9765105061233043670654296875" lon="-2.39146417938172817230224609375">
        <ele>813.4000244140625</ele>
        <time>2022-04-17T10:26:50.000Z</time>
      </trkpt>
      <trkpt lat="42.97650690190494060516357421875" lon="-2.39145194180309772491455078125">
        <ele>813.5999755859375</ele>
        <time>2022-04-17T10:26:51.000Z</time>
      </trkpt>
      <trkpt lat="42.9765031300485134124755859375" lon="-2.3914372734725475311279296875">
        <ele>813.5999755859375</ele>
        <time>2022-04-17T10:26:52.000Z</time>
      </trkpt>
      <trkpt lat="42.97649902291595935821533203125" lon="-2.39143199287354946136474609375">
        <ele>813.79998779296875</ele>
        <time>2022-04-17T10:26:53.000Z</time>
      </trkpt>
      <trkpt lat="42.97649533487856388092041015625" lon="-2.39142604172229766845703125">
        <ele>813.79998779296875</ele>
        <time>2022-04-17T10:26:54.000Z</time>
      </trkpt>
      <trkpt lat="42.9764890484511852264404296875" lon="-2.391419000923633575439453125">
        <ele>814</ele>
        <time>2022-04-17T10:26:55.000Z</time>
      </trkpt>
      <trkpt lat="42.97648452222347259521484375" lon="-2.39141237922012805938720703125">
        <ele>814.20001220703125</ele>
        <time>2022-04-17T10:26:56.000Z</time>
      </trkpt>
      <trkpt lat="42.976482845842838287353515625" lon="-2.39140584133565425872802734375">
        <ele>814.20001220703125</ele>
        <time>2022-04-17T10:26:57.000Z</time>
      </trkpt>
      <trkpt lat="42.97647915780544281005859375" lon="-2.391392849385738372802734375">
        <ele>814.4000244140625</ele>
        <time>2022-04-17T10:26:58.000Z</time>
      </trkpt>
      <trkpt lat="42.976479828357696533203125" lon="-2.391374073922634124755859375">
        <ele>814.5999755859375</ele>
        <time>2022-04-17T10:26:59.000Z</time>
      </trkpt>
      <trkpt lat="42.97647873871028423309326171875" lon="-2.39135496318340301513671875">
        <ele>814.79998779296875</ele>
        <time>2022-04-17T10:27:00.000Z</time>
      </trkpt>
      <trkpt lat="42.9764799959957599639892578125" lon="-2.391342557966709136962890625">
        <ele>814.79998779296875</ele>
        <time>2022-04-17T10:27:01.000Z</time>
      </trkpt>
      <trkpt lat="42.9764779843389987945556640625" lon="-2.39133124239742755889892578125">
        <ele>815</ele>
        <time>2022-04-17T10:27:02.000Z</time>
      </trkpt>
      <trkpt lat="42.97647454775869846343994140625" lon="-2.3913212679326534271240234375">
        <ele>815</ele>
        <time>2022-04-17T10:27:03.000Z</time>
      </trkpt>
      <trkpt lat="42.97647203318774700164794921875" lon="-2.391313724219799041748046875">
        <ele>815.20001220703125</ele>
        <time>2022-04-17T10:27:04.000Z</time>
      </trkpt>
      <trkpt lat="42.97646834515035152435302734375" lon="-2.39129318855702877044677734375">
        <ele>815.4000244140625</ele>
        <time>2022-04-17T10:27:05.000Z</time>
      </trkpt>
      <trkpt lat="42.9764597117900848388671875" lon="-2.39127558656036853790283203125">
        <ele>815.4000244140625</ele>
        <time>2022-04-17T10:27:06.000Z</time>
      </trkpt>
      <trkpt lat="42.97645040787756443023681640625" lon="-2.39125681109726428985595703125">
        <ele>815.5999755859375</ele>
        <time>2022-04-17T10:27:07.000Z</time>
      </trkpt>
      <trkpt lat="42.9764441214501857757568359375" lon="-2.39124038256704807281494140625">
        <ele>815.79998779296875</ele>
        <time>2022-04-17T10:27:08.000Z</time>
      </trkpt>
      <trkpt lat="42.9764441214501857757568359375" lon="-2.39123158156871795654296875">
        <ele>816</ele>
        <time>2022-04-17T10:27:09.000Z</time>
      </trkpt>
      <trkpt lat="42.97644604928791522979736328125" lon="-2.39122621715068817138671875">
        <ele>816</ele>
        <time>2022-04-17T10:27:10.000Z</time>
      </trkpt>
      <trkpt lat="42.97644588164985179901123046875" lon="-2.391222529113292694091796875">
        <ele>816.20001220703125</ele>
        <time>2022-04-17T10:27:11.000Z</time>
      </trkpt>
      <trkpt lat="42.9764411039650440216064453125" lon="-2.391213811933994293212890625">
        <ele>816.4000244140625</ele>
        <time>2022-04-17T10:27:12.000Z</time>
      </trkpt>
      <trkpt lat="42.976437248289585113525390625" lon="-2.39120283164083957672119140625">
        <ele>816.4000244140625</ele>
        <time>2022-04-17T10:27:13.000Z</time>
      </trkpt>
      <trkpt lat="42.97643582336604595184326171875" lon="-2.39119545556604862213134765625">
        <ele>816.5999755859375</ele>
        <time>2022-04-17T10:27:14.000Z</time>
      </trkpt>
      <trkpt lat="42.976437918841838836669921875" lon="-2.39118807949125766754150390625">
        <ele>816.79998779296875</ele>
        <time>2022-04-17T10:27:15.000Z</time>
      </trkpt>
      <trkpt lat="42.97644588164985179901123046875" lon="-2.39117852412164211273193359375">
        <ele>817</ele>
        <time>2022-04-17T10:27:16.000Z</time>
      </trkpt>
      <trkpt lat="42.976452000439167022705078125" lon="-2.39117399789392948150634765625">
        <ele>817.20001220703125</ele>
        <time>2022-04-17T10:27:17.000Z</time>
      </trkpt>
      <trkpt lat="42.97645593993365764617919921875" lon="-2.39116930402815341949462890625">
        <ele>817.20001220703125</ele>
        <time>2022-04-17T10:27:18.000Z</time>
      </trkpt>
      <trkpt lat="42.97645610757172107696533203125" lon="-2.39116310141980648040771484375">
        <ele>817.4000244140625</ele>
        <time>2022-04-17T10:27:19.000Z</time>
      </trkpt>
      <trkpt lat="42.97645392827689647674560546875" lon="-2.3911569826304912567138671875">
        <ele>817.4000244140625</ele>
        <time>2022-04-17T10:27:20.000Z</time>
      </trkpt>
      <trkpt lat="42.9764504916965961456298828125" lon="-2.3911469243466854095458984375">
        <ele>817.5999755859375</ele>
        <time>2022-04-17T10:27:21.000Z</time>
      </trkpt>
      <trkpt lat="42.97645258717238903045654296875" lon="-2.391138039529323577880859375">
        <ele>817.5999755859375</ele>
        <time>2022-04-17T10:27:22.000Z</time>
      </trkpt>
      <trkpt lat="42.976452000439167022705078125" lon="-2.3911301605403423309326171875">
        <ele>817.79998779296875</ele>
        <time>2022-04-17T10:27:23.000Z</time>
      </trkpt>
      <trkpt lat="42.97645141370594501495361328125" lon="-2.39111934788525104522705078125">
        <ele>818</ele>
        <time>2022-04-17T10:27:24.000Z</time>
      </trkpt>
      <trkpt lat="42.97644588164985179901123046875" lon="-2.39110275171697139739990234375">
        <ele>818.20001220703125</ele>
        <time>2022-04-17T10:27:25.000Z</time>
      </trkpt>
      <trkpt lat="42.97644286416471004486083984375" lon="-2.391085736453533172607421875">
        <ele>818.20001220703125</ele>
        <time>2022-04-17T10:27:26.000Z</time>
      </trkpt>
      <trkpt lat="42.976441942155361175537109375" lon="-2.39106268621981143951416015625">
        <ele>818.4000244140625</ele>
        <time>2022-04-17T10:27:27.000Z</time>
      </trkpt>
      <trkpt lat="42.97643959522247314453125" lon="-2.3910391330718994140625">
        <ele>818.4000244140625</ele>
        <time>2022-04-17T10:27:28.000Z</time>
      </trkpt>
      <trkpt lat="42.97643682919442653656005859375" lon="-2.39102178253233432769775390625">
        <ele>818.5999755859375</ele>
        <time>2022-04-17T10:27:29.000Z</time>
      </trkpt>
      <trkpt lat="42.97643766738474369049072265625" lon="-2.391009628772735595703125">
        <ele>818.5999755859375</ele>
        <time>2022-04-17T10:27:30.000Z</time>
      </trkpt>
      <trkpt lat="42.97643959522247314453125" lon="-2.39100535400211811065673828125">
        <ele>818.79998779296875</ele>
        <time>2022-04-17T10:27:31.000Z</time>
      </trkpt>
      <trkpt lat="42.97643733210861682891845703125" lon="-2.39099512808024883270263671875">
        <ele>818.79998779296875</ele>
        <time>2022-04-17T10:27:32.000Z</time>
      </trkpt>
      <trkpt lat="42.97644160687923431396484375" lon="-2.390983812510967254638671875">
        <ele>819</ele>
        <time>2022-04-17T10:27:33.000Z</time>
      </trkpt>
      <trkpt lat="42.976443953812122344970703125" lon="-2.39097249694168567657470703125">
        <ele>819</ele>
        <time>2022-04-17T10:27:34.000Z</time>
      </trkpt>
      <trkpt lat="42.97644437290728092193603515625" lon="-2.39095908589661121368408203125">
        <ele>819.20001220703125</ele>
        <time>2022-04-17T10:27:35.000Z</time>
      </trkpt>
      <trkpt lat="42.9764397628605365753173828125" lon="-2.390943579375743865966796875">
        <ele>819.20001220703125</ele>
        <time>2022-04-17T10:27:36.000Z</time>
      </trkpt>
      <trkpt lat="42.97643280588090419769287109375" lon="-2.3909251391887664794921875">
        <ele>819.4000244140625</ele>
        <time>2022-04-17T10:27:37.000Z</time>
      </trkpt>
      <trkpt lat="42.97642526216804981231689453125" lon="-2.39090527407824993133544921875">
        <ele>819.4000244140625</ele>
        <time>2022-04-17T10:27:38.000Z</time>
      </trkpt>
      <trkpt lat="42.97642023302614688873291015625" lon="-2.3908889293670654296875">
        <ele>819.4000244140625</ele>
        <time>2022-04-17T10:27:39.000Z</time>
      </trkpt>
      <trkpt lat="42.97641755081713199615478515625" lon="-2.3908741772174835205078125">
        <ele>819.5999755859375</ele>
        <time>2022-04-17T10:27:40.000Z</time>
      </trkpt>
      <trkpt lat="42.976414449512958526611328125" lon="-2.3908639512956142425537109375">
        <ele>819.5999755859375</ele>
        <time>2022-04-17T10:27:41.000Z</time>
      </trkpt>
      <trkpt lat="42.97641201876103878021240234375" lon="-2.3908528871834278106689453125">
        <ele>819.79998779296875</ele>
        <time>2022-04-17T10:27:42.000Z</time>
      </trkpt>
      <trkpt lat="42.97640833072364330291748046875" lon="-2.39084492437541484832763671875">
        <ele>819.79998779296875</ele>
        <time>2022-04-17T10:27:43.000Z</time>
      </trkpt>
      <trkpt lat="42.976410426199436187744140625" lon="-2.3908451758325099945068359375">
        <ele>820</ele>
        <time>2022-04-17T10:27:44.000Z</time>
      </trkpt>
      <trkpt lat="42.9764087498188018798828125" lon="-2.390840314328670501708984375">
        <ele>820</ele>
        <time>2022-04-17T10:27:45.000Z</time>
      </trkpt>
      <trkpt lat="42.976403720676898956298828125" lon="-2.39082832820713520050048828125">
        <ele>820.20001220703125</ele>
        <time>2022-04-17T10:27:46.000Z</time>
      </trkpt>
      <trkpt lat="42.97640405595302581787109375" lon="-2.39081927575170993804931640625">
        <ele>820.20001220703125</ele>
        <time>2022-04-17T10:27:47.000Z</time>
      </trkpt>
      <trkpt lat="42.97640405595302581787109375" lon="-2.39080988802015781402587890625">
        <ele>820.4000244140625</ele>
        <time>2022-04-17T10:27:48.000Z</time>
      </trkpt>
      <trkpt lat="42.9764045588672161102294921875" lon="-2.39079966209828853607177734375">
        <ele>820.4000244140625</ele>
        <time>2022-04-17T10:27:49.000Z</time>
      </trkpt>
      <trkpt lat="42.97640581615269184112548828125" lon="-2.3907937109470367431640625">
        <ele>820.4000244140625</ele>
        <time>2022-04-17T10:27:50.000Z</time>
      </trkpt>
      <trkpt lat="42.97640413977205753326416015625" lon="-2.39078323356807231903076171875">
        <ele>820.5999755859375</ele>
        <time>2022-04-17T10:27:51.000Z</time>
      </trkpt>
      <trkpt lat="42.976400367915630340576171875" lon="-2.39077158272266387939453125">
        <ele>820.5999755859375</ele>
        <time>2022-04-17T10:27:52.000Z</time>
      </trkpt>
      <trkpt lat="42.9763965122401714324951171875" lon="-2.3907623626291751861572265625">
        <ele>820.79998779296875</ele>
        <time>2022-04-17T10:27:53.000Z</time>
      </trkpt>
      <trkpt lat="42.97639709897339344024658203125" lon="-2.39075540564954280853271484375">
        <ele>820.79998779296875</ele>
        <time>2022-04-17T10:27:54.000Z</time>
      </trkpt>
      <trkpt lat="42.976392991840839385986328125" lon="-2.39075004123151302337646484375">
        <ele>821</ele>
        <time>2022-04-17T10:27:55.000Z</time>
      </trkpt>
      <trkpt lat="42.97638787887990474700927734375" lon="-2.3907387256622314453125">
        <ele>821</ele>
        <time>2022-04-17T10:27:56.000Z</time>
      </trkpt>
      <trkpt lat="42.97638486139476299285888671875" lon="-2.3907331936061382293701171875">
        <ele>821.20001220703125</ele>
        <time>2022-04-17T10:27:57.000Z</time>
      </trkpt>
      <trkpt lat="42.97638268209993839263916015625" lon="-2.3907248117029666900634765625">
        <ele>821.20001220703125</ele>
        <time>2022-04-17T10:27:58.000Z</time>
      </trkpt>
      <trkpt lat="42.97637882642447948455810546875" lon="-2.390713579952716827392578125">
        <ele>821.4000244140625</ele>
        <time>2022-04-17T10:27:59.000Z</time>
      </trkpt>
      <trkpt lat="42.97637161798775196075439453125" lon="-2.39070528186857700347900390625">
        <ele>821.4000244140625</ele>
        <time>2022-04-17T10:28:00.000Z</time>
      </trkpt>
      <trkpt lat="42.97635803930461406707763671875" lon="-2.390674017369747161865234375">
        <ele>821.4000244140625</ele>
        <time>2022-04-17T10:28:01.000Z</time>
      </trkpt>
      <trkpt lat="42.97634236514568328857421875" lon="-2.390669323503971099853515625">
        <ele>821.4000244140625</ele>
        <time>2022-04-17T10:28:02.000Z</time>
      </trkpt>
      <trkpt lat="42.97633859328925609588623046875" lon="-2.390668652951717376708984375">
        <ele>821.4000244140625</ele>
        <time>2022-04-17T10:28:03.000Z</time>
      </trkpt>
      <trkpt lat="42.97634370625019073486328125" lon="-2.39066186361014842987060546875">
        <ele>821.5999755859375</ele>
        <time>2022-04-17T10:28:04.000Z</time>
      </trkpt>
      <trkpt lat="42.97634429298341274261474609375" lon="-2.39065046422183513641357421875">
        <ele>821.5999755859375</ele>
        <time>2022-04-17T10:28:05.000Z</time>
      </trkpt>
      <trkpt lat="42.97634932212531566619873046875" lon="-2.3906352929770946502685546875">
        <ele>821.79998779296875</ele>
        <time>2022-04-17T10:28:06.000Z</time>
      </trkpt>
      <trkpt lat="42.9763525910675525665283203125" lon="-2.3906248994171619415283203125">
        <ele>822</ele>
        <time>2022-04-17T10:28:07.000Z</time>
      </trkpt>
      <trkpt lat="42.97635636292397975921630859375" lon="-2.3906161822378635406494140625">
        <ele>822</ele>
        <time>2022-04-17T10:28:08.000Z</time>
      </trkpt>
      <trkpt lat="42.97635820694267749786376953125" lon="-2.3906047828495502471923828125">
        <ele>822.20001220703125</ele>
        <time>2022-04-17T10:28:09.000Z</time>
      </trkpt>
      <trkpt lat="42.97636390663683414459228515625" lon="-2.3905953951179981231689453125">
        <ele>822.5999755859375</ele>
        <time>2022-04-17T10:28:10.000Z</time>
      </trkpt>
      <trkpt lat="42.97636876814067363739013671875" lon="-2.39058240316808223724365234375">
        <ele>822.5999755859375</ele>
        <time>2022-04-17T10:28:11.000Z</time>
      </trkpt>
      <trkpt lat="42.97637195326387882232666015625" lon="-2.3905672319233417510986328125">
        <ele>822.79998779296875</ele>
        <time>2022-04-17T10:28:12.000Z</time>
      </trkpt>
      <trkpt lat="42.97637430019676685333251953125" lon="-2.3905494622886180877685546875">
        <ele>823</ele>
        <time>2022-04-17T10:28:13.000Z</time>
      </trkpt>
      <trkpt lat="42.97637530602514743804931640625" lon="-2.3905320279300212860107421875">
        <ele>823</ele>
        <time>2022-04-17T10:28:14.000Z</time>
      </trkpt>
      <trkpt lat="42.97637614421546459197998046875" lon="-2.39051719196140766143798828125">
        <ele>823.20001220703125</ele>
        <time>2022-04-17T10:28:15.000Z</time>
      </trkpt>
      <trkpt lat="42.97637329436838626861572265625" lon="-2.39050260744988918304443359375">
        <ele>823.4000244140625</ele>
        <time>2022-04-17T10:28:16.000Z</time>
      </trkpt>
      <trkpt lat="42.97637061215937137603759765625" lon="-2.3904894478619098663330078125">
        <ele>823.4000244140625</ele>
        <time>2022-04-17T10:28:17.000Z</time>
      </trkpt>
      <trkpt lat="42.9763747192919254302978515625" lon="-2.3904825747013092041015625">
        <ele>823.5999755859375</ele>
        <time>2022-04-17T10:28:18.000Z</time>
      </trkpt>
      <trkpt lat="42.9763784073293209075927734375" lon="-2.3904798924922943115234375">
        <ele>823.79998779296875</ele>
        <time>2022-04-17T10:28:19.000Z</time>
      </trkpt>
      <trkpt lat="42.976380921900272369384765625" lon="-2.39047545008361339569091796875">
        <ele>823.79998779296875</ele>
        <time>2022-04-17T10:28:20.000Z</time>
      </trkpt>
      <trkpt lat="42.9763800837099552154541015625" lon="-2.3904666490852832794189453125">
        <ele>824</ele>
        <time>2022-04-17T10:28:21.000Z</time>
      </trkpt>
      <trkpt lat="42.97637715004384517669677734375" lon="-2.39045365713536739349365234375">
        <ele>824</ele>
        <time>2022-04-17T10:28:22.000Z</time>
      </trkpt>
      <trkpt lat="42.97637061215937137603759765625" lon="-2.3904404975473880767822265625">
        <ele>824</ele>
        <time>2022-04-17T10:28:23.000Z</time>
      </trkpt>
      <trkpt lat="42.976364828646183013916015625" lon="-2.390426583588123321533203125">
        <ele>824</ele>
        <time>2022-04-17T10:28:24.000Z</time>
      </trkpt>
      <trkpt lat="42.97636256553232669830322265625" lon="-2.39041350781917572021484375">
        <ele>824</ele>
        <time>2022-04-17T10:28:25.000Z</time>
      </trkpt>
      <trkpt lat="42.97636256553232669830322265625" lon="-2.3903979174792766571044921875">
        <ele>824.20001220703125</ele>
        <time>2022-04-17T10:28:26.000Z</time>
      </trkpt>
      <trkpt lat="42.97636675648391246795654296875" lon="-2.39038559608161449432373046875">
        <ele>824.4000244140625</ele>
        <time>2022-04-17T10:28:27.000Z</time>
      </trkpt>
      <trkpt lat="42.9763730429112911224365234375" lon="-2.39037738181650638580322265625">
        <ele>824.5999755859375</ele>
        <time>2022-04-17T10:28:28.000Z</time>
      </trkpt>
      <trkpt lat="42.9763805866241455078125" lon="-2.39036967046558856964111328125">
        <ele>824.79998779296875</ele>
        <time>2022-04-17T10:28:29.000Z</time>
      </trkpt>
      <trkpt lat="42.9763837717473506927490234375" lon="-2.3903672397136688232421875">
        <ele>824.79998779296875</ele>
        <time>2022-04-17T10:28:30.000Z</time>
      </trkpt>
      <trkpt lat="42.97638737596571445465087890625" lon="-2.39035810343921184539794921875">
        <ele>825</ele>
        <time>2022-04-17T10:28:31.000Z</time>
      </trkpt>
      <trkpt lat="42.97638704068958759307861328125" lon="-2.3903449438512325286865234375">
        <ele>825</ele>
        <time>2022-04-17T10:28:32.000Z</time>
      </trkpt>
      <trkpt lat="42.9763861186802387237548828125" lon="-2.39033714868128299713134765625">
        <ele>825.20001220703125</ele>
        <time>2022-04-17T10:28:33.000Z</time>
      </trkpt>
      <trkpt lat="42.976386286318302154541015625" lon="-2.3903305269777774810791015625">
        <ele>825.20001220703125</ele>
        <time>2022-04-17T10:28:34.000Z</time>
      </trkpt>
      <trkpt lat="42.976386956870555877685546875" lon="-2.39032222889363765716552734375">
        <ele>825.4000244140625</ele>
        <time>2022-04-17T10:28:35.000Z</time>
      </trkpt>
      <trkpt lat="42.97638972289860248565673828125" lon="-2.3903144337236881256103515625">
        <ele>825.5999755859375</ele>
        <time>2022-04-17T10:28:36.000Z</time>
      </trkpt>
      <trkpt lat="42.9763921536505222320556640625" lon="-2.3903043754398822784423828125">
        <ele>825.5999755859375</ele>
        <time>2022-04-17T10:28:37.000Z</time>
      </trkpt>
      <trkpt lat="42.97639743424952030181884765625" lon="-2.3902975022792816162109375">
        <ele>825.79998779296875</ele>
        <time>2022-04-17T10:28:38.000Z</time>
      </trkpt>
      <trkpt lat="42.97640128992497920989990234375" lon="-2.39029104821383953094482421875">
        <ele>826</ele>
        <time>2022-04-17T10:28:39.000Z</time>
      </trkpt>
      <trkpt lat="42.9764012061059474945068359375" lon="-2.39027897827327251434326171875">
        <ele>826</ele>
        <time>2022-04-17T10:28:40.000Z</time>
      </trkpt>
      <trkpt lat="42.97640229575335979461669921875" lon="-2.3902607895433902740478515625">
        <ele>826.20001220703125</ele>
        <time>2022-04-17T10:28:41.000Z</time>
      </trkpt>
      <trkpt lat="42.976401709020137786865234375" lon="-2.390242852270603179931640625">
        <ele>826.20001220703125</ele>
        <time>2022-04-17T10:28:42.000Z</time>
      </trkpt>
      <trkpt lat="42.976404391229152679443359375" lon="-2.39022835157811641693115234375">
        <ele>826.4000244140625</ele>
        <time>2022-04-17T10:28:43.000Z</time>
      </trkpt>
      <trkpt lat="42.97640883363783359527587890625" lon="-2.3902141861617565155029296875">
        <ele>826.4000244140625</ele>
        <time>2022-04-17T10:28:44.000Z</time>
      </trkpt>
      <trkpt lat="42.97641268931329250335693359375" lon="-2.39019750617444515228271484375">
        <ele>826.5999755859375</ele>
        <time>2022-04-17T10:28:45.000Z</time>
      </trkpt>
      <trkpt lat="42.97642149031162261962890625" lon="-2.39018208347260951995849609375">
        <ele>826.5999755859375</ele>
        <time>2022-04-17T10:28:46.000Z</time>
      </trkpt>
      <trkpt lat="42.976429201662540435791015625" lon="-2.39016431383788585662841796875">
        <ele>826.79998779296875</ele>
        <time>2022-04-17T10:28:47.000Z</time>
      </trkpt>
      <trkpt lat="42.97643498517572879791259765625" lon="-2.3901499807834625244140625">
        <ele>827</ele>
        <time>2022-04-17T10:28:48.000Z</time>
      </trkpt>
      <trkpt lat="42.97643884085118770599365234375" lon="-2.39014017395675182342529296875">
        <ele>827</ele>
        <time>2022-04-17T10:28:49.000Z</time>
      </trkpt>
      <trkpt lat="42.97644202597439289093017578125" lon="-2.390134222805500030517578125">
        <ele>827</ele>
        <time>2022-04-17T10:28:50.000Z</time>
      </trkpt>
      <trkpt lat="42.9764484800398349761962890625" lon="-2.39012651145458221435546875">
        <ele>827</ele>
        <time>2022-04-17T10:28:51.000Z</time>
      </trkpt>
      <trkpt lat="42.97645099461078643798828125" lon="-2.39011737518012523651123046875">
        <ele>827.20001220703125</ele>
        <time>2022-04-17T10:28:52.000Z</time>
      </trkpt>
      <trkpt lat="42.9764571972191333770751953125" lon="-2.39010832272469997406005859375">
        <ele>827.4000244140625</ele>
        <time>2022-04-17T10:28:53.000Z</time>
      </trkpt>
      <trkpt lat="42.97645904123783111572265625" lon="-2.39009834825992584228515625">
        <ele>827.4000244140625</ele>
        <time>2022-04-17T10:28:54.000Z</time>
      </trkpt>
      <trkpt lat="42.9764561913907527923583984375" lon="-2.39008837379515171051025390625">
        <ele>827.5999755859375</ele>
        <time>2022-04-17T10:28:55.000Z</time>
      </trkpt>
      <trkpt lat="42.97645158134400844573974609375" lon="-2.39007915370166301727294921875">
        <ele>827.5999755859375</ele>
        <time>2022-04-17T10:28:56.000Z</time>
      </trkpt>
      <trkpt lat="42.97644973732531070709228515625" lon="-2.39007127471268177032470703125">
        <ele>827.79998779296875</ele>
        <time>2022-04-17T10:28:57.000Z</time>
      </trkpt>
      <trkpt lat="42.9764457978308200836181640625" lon="-2.39005945622920989990234375">
        <ele>828</ele>
        <time>2022-04-17T10:28:58.000Z</time>
      </trkpt>
      <trkpt lat="42.97644051723182201385498046875" lon="-2.39004881121218204498291015625">
        <ele>828</ele>
        <time>2022-04-17T10:28:59.000Z</time>
      </trkpt>
      <trkpt lat="42.9764409363269805908203125" lon="-2.39003757946193218231201171875">
        <ele>828.20001220703125</ele>
        <time>2022-04-17T10:29:00.000Z</time>
      </trkpt>
      <trkpt lat="42.97644269652664661407470703125" lon="-2.39002550952136516571044921875">
        <ele>828.20001220703125</ele>
        <time>2022-04-17T10:29:01.000Z</time>
      </trkpt>
      <trkpt lat="42.9764447920024394989013671875" lon="-2.39001461304724216461181640625">
        <ele>828.4000244140625</ele>
        <time>2022-04-17T10:29:02.000Z</time>
      </trkpt>
      <trkpt lat="42.97644303180277347564697265625" lon="-2.3899970948696136474609375">
        <ele>828.4000244140625</ele>
        <time>2022-04-17T10:29:03.000Z</time>
      </trkpt>
      <trkpt lat="42.97644621692597866058349609375" lon="-2.3899872042238712310791015625">
        <ele>828.5999755859375</ele>
        <time>2022-04-17T10:29:04.000Z</time>
      </trkpt>
      <trkpt lat="42.97644705511629581451416015625" lon="-2.3899758048355579376220703125">
        <ele>828.79998779296875</ele>
        <time>2022-04-17T10:29:05.000Z</time>
      </trkpt>
      <trkpt lat="42.97644671984016895294189453125" lon="-2.38996021449565887451171875">
        <ele>829</ele>
        <time>2022-04-17T10:29:06.000Z</time>
      </trkpt>
      <trkpt lat="42.9764471389353275299072265625" lon="-2.3899469710886478424072265625">
        <ele>829</ele>
        <time>2022-04-17T10:29:07.000Z</time>
      </trkpt>
      <trkpt lat="42.97644772566854953765869140625" lon="-2.38993942737579345703125">
        <ele>829</ele>
        <time>2022-04-17T10:29:08.000Z</time>
      </trkpt>
      <trkpt lat="42.97645107842981815338134765625" lon="-2.3899285309016704559326171875">
        <ele>829</ele>
        <time>2022-04-17T10:29:09.000Z</time>
      </trkpt>
      <trkpt lat="42.97645577229559421539306640625" lon="-2.389913611114025115966796875">
        <ele>829.20001220703125</ele>
        <time>2022-04-17T10:29:10.000Z</time>
      </trkpt>
      <trkpt lat="42.9764632321894168853759765625" lon="-2.38989810459315776824951171875">
        <ele>829.4000244140625</ele>
        <time>2022-04-17T10:29:11.000Z</time>
      </trkpt>
      <trkpt lat="42.9764649085700511932373046875" lon="-2.38988134078681468963623046875">
        <ele>829.4000244140625</ele>
        <time>2022-04-17T10:29:12.000Z</time>
      </trkpt>
      <trkpt lat="42.97646935097873210906982421875" lon="-2.38986968994140625">
        <ele>829.5999755859375</ele>
        <time>2022-04-17T10:29:13.000Z</time>
      </trkpt>
      <trkpt lat="42.9764736257493495941162109375" lon="-2.389858625829219818115234375">
        <ele>829.79998779296875</ele>
        <time>2022-04-17T10:29:14.000Z</time>
      </trkpt>
      <trkpt lat="42.9764773137867450714111328125" lon="-2.3898467235267162322998046875">
        <ele>829.79998779296875</ele>
        <time>2022-04-17T10:29:15.000Z</time>
      </trkpt>
      <trkpt lat="42.9764779843389987945556640625" lon="-2.38983415067195892333984375">
        <ele>830</ele>
        <time>2022-04-17T10:29:16.000Z</time>
      </trkpt>
      <trkpt lat="42.97647806815803050994873046875" lon="-2.38982467912137508392333984375">
        <ele>830</ele>
        <time>2022-04-17T10:29:17.000Z</time>
      </trkpt>
      <trkpt lat="42.97648142091929912567138671875" lon="-2.3898172192275524139404296875">
        <ele>830.20001220703125</ele>
        <time>2022-04-17T10:29:18.000Z</time>
      </trkpt>
      <trkpt lat="42.97648963518440723419189453125" lon="-2.38981227390468120574951171875">
        <ele>830.20001220703125</ele>
        <time>2022-04-17T10:29:19.000Z</time>
      </trkpt>
      <trkpt lat="42.97649567015469074249267578125" lon="-2.38980657421052455902099609375">
        <ele>830.20001220703125</ele>
        <time>2022-04-17T10:29:20.000Z</time>
      </trkpt>
      <trkpt lat="42.97650321386754512786865234375" lon="-2.3898048140108585357666015625">
        <ele>830.4000244140625</ele>
        <time>2022-04-17T10:29:21.000Z</time>
      </trkpt>
      <trkpt lat="42.97650623135268688201904296875" lon="-2.38980070687830448150634765625">
        <ele>830.5999755859375</ele>
        <time>2022-04-17T10:29:22.000Z</time>
      </trkpt>
      <trkpt lat="42.9764999449253082275390625" lon="-2.38979198969900608062744140625">
        <ele>830.79998779296875</ele>
        <time>2022-04-17T10:29:23.000Z</time>
      </trkpt>
      <trkpt lat="42.9765054769814014434814453125" lon="-2.389788217842578887939453125">
        <ele>830.79998779296875</ele>
        <time>2022-04-17T10:29:24.000Z</time>
      </trkpt>
      <trkpt lat="42.97650606371462345123291015625" lon="-2.38978452980518341064453125">
        <ele>831</ele>
        <time>2022-04-17T10:29:25.000Z</time>
      </trkpt>
      <trkpt lat="42.976511679589748382568359375" lon="-2.38977841101586818695068359375">
        <ele>831</ele>
        <time>2022-04-17T10:29:26.000Z</time>
      </trkpt>
      <trkpt lat="42.97650941647589206695556640625" lon="-2.3897716216742992401123046875">
        <ele>831.20001220703125</ele>
        <time>2022-04-17T10:29:27.000Z</time>
      </trkpt>
      <trkpt lat="42.9765017889440059661865234375" lon="-2.3897639103233814239501953125">
        <ele>831.4000244140625</ele>
        <time>2022-04-17T10:29:28.000Z</time>
      </trkpt>
      <trkpt lat="42.97650522552430629730224609375" lon="-2.38975879736244678497314453125">
        <ele>831.4000244140625</ele>
        <time>2022-04-17T10:29:29.000Z</time>
      </trkpt>
      <trkpt lat="42.97651209868490695953369140625" lon="-2.38975293003022670745849609375">
        <ele>831.5999755859375</ele>
        <time>2022-04-17T10:29:30.000Z</time>
      </trkpt>
      <trkpt lat="42.97651612199842929840087890625" lon="-2.38974605686962604522705078125">
        <ele>831.79998779296875</ele>
        <time>2022-04-17T10:29:31.000Z</time>
      </trkpt>
      <trkpt lat="42.97651746310293674468994140625" lon="-2.3897370882332324981689453125">
        <ele>832.20001220703125</ele>
        <time>2022-04-17T10:29:32.000Z</time>
      </trkpt>
      <trkpt lat="42.97652098350226879119873046875" lon="-2.38972744904458522796630859375">
        <ele>832.4000244140625</ele>
        <time>2022-04-17T10:29:33.000Z</time>
      </trkpt>
      <trkpt lat="42.97651981003582477569580078125" lon="-2.38971889950335025787353515625">
        <ele>832.4000244140625</ele>
        <time>2022-04-17T10:29:34.000Z</time>
      </trkpt>
      <trkpt lat="42.97651712782680988311767578125" lon="-2.3897085897624492645263671875">
        <ele>832.5999755859375</ele>
        <time>2022-04-17T10:29:35.000Z</time>
      </trkpt>
      <trkpt lat="42.976519055664539337158203125" lon="-2.38970448262989521026611328125">
        <ele>832.5999755859375</ele>
        <time>2022-04-17T10:29:36.000Z</time>
      </trkpt>
      <trkpt lat="42.97652475535869598388671875" lon="-2.38970129750669002532958984375">
        <ele>832.5999755859375</ele>
        <time>2022-04-17T10:29:37.000Z</time>
      </trkpt>
      <trkpt lat="42.9765319637954235076904296875" lon="-2.3896965198218822479248046875">
        <ele>832.5999755859375</ele>
        <time>2022-04-17T10:29:38.000Z</time>
      </trkpt>
      <trkpt lat="42.97653724439442157745361328125" lon="-2.38968939520418643951416015625">
        <ele>832.5999755859375</ele>
        <time>2022-04-17T10:29:39.000Z</time>
      </trkpt>
      <trkpt lat="42.97654193826019763946533203125" lon="-2.38968201912939548492431640625">
        <ele>832.5999755859375</ele>
        <time>2022-04-17T10:29:40.000Z</time>
      </trkpt>
      <trkpt lat="42.97654847614467144012451171875" lon="-2.38967455923557281494140625">
        <ele>832.5999755859375</ele>
        <time>2022-04-17T10:29:41.000Z</time>
      </trkpt>
      <trkpt lat="42.97655635513365268707275390625" lon="-2.38967397250235080718994140625">
        <ele>832.79998779296875</ele>
        <time>2022-04-17T10:29:42.000Z</time>
      </trkpt>
      <trkpt lat="42.976572699844837188720703125" lon="-2.38967766053974628448486328125">
        <ele>832.79998779296875</ele>
        <time>2022-04-17T10:29:43.000Z</time>
      </trkpt>
      <trkpt lat="42.9765852726995944976806640625" lon="-2.38968369551002979278564453125">
        <ele>833</ele>
        <time>2022-04-17T10:29:44.000Z</time>
      </trkpt>
      <trkpt lat="42.97659189440310001373291015625" lon="-2.3896851204335689544677734375">
        <ele>833</ele>
        <time>2022-04-17T10:29:45.000Z</time>
      </trkpt>
      <trkpt lat="42.97659893520176410675048828125" lon="-2.38968302495777606964111328125">
        <ele>833.20001220703125</ele>
        <time>2022-04-17T10:29:46.000Z</time>
      </trkpt>
      <trkpt lat="42.9766030423343181610107421875" lon="-2.38967799581587314605712890625">
        <ele>833.4000244140625</ele>
        <time>2022-04-17T10:29:47.000Z</time>
      </trkpt>
      <trkpt lat="42.976607568562030792236328125" lon="-2.38966994918882846832275390625">
        <ele>833.4000244140625</ele>
        <time>2022-04-17T10:29:48.000Z</time>
      </trkpt>
      <trkpt lat="42.97660899348556995391845703125" lon="-2.38966123200953006744384765625">
        <ele>833.5999755859375</ele>
        <time>2022-04-17T10:29:49.000Z</time>
      </trkpt>
      <trkpt lat="42.976616285741329193115234375" lon="-2.3896576277911663055419921875">
        <ele>833.5999755859375</ele>
        <time>2022-04-17T10:29:50.000Z</time>
      </trkpt>
      <trkpt lat="42.976625002920627593994140625" lon="-2.38965050317347049713134765625">
        <ele>833.79998779296875</ele>
        <time>2022-04-17T10:29:51.000Z</time>
      </trkpt>
      <trkpt lat="42.97663447447121143341064453125" lon="-2.38964312709867954254150390625">
        <ele>833.79998779296875</ele>
        <time>2022-04-17T10:29:52.000Z</time>
      </trkpt>
      <trkpt lat="42.97664419747889041900634765625" lon="-2.38963725976645946502685546875">
        <ele>834</ele>
        <time>2022-04-17T10:29:53.000Z</time>
      </trkpt>
      <trkpt lat="42.9766526632010936737060546875" lon="-2.3896338231861591339111328125">
        <ele>834</ele>
        <time>2022-04-17T10:29:54.000Z</time>
      </trkpt>
      <trkpt lat="42.9766583628952503204345703125" lon="-2.38962770439684391021728515625">
        <ele>834.20001220703125</ele>
        <time>2022-04-17T10:29:55.000Z</time>
      </trkpt>
      <trkpt lat="42.9766647331416606903076171875" lon="-2.38961781375110149383544921875">
        <ele>834.4000244140625</ele>
        <time>2022-04-17T10:29:56.000Z</time>
      </trkpt>
      <trkpt lat="42.97667101956903934478759765625" lon="-2.38960943184792995452880859375">
        <ele>834.4000244140625</ele>
        <time>2022-04-17T10:29:57.000Z</time>
      </trkpt>
      <trkpt lat="42.97667621634900569915771484375" lon="-2.389601804316043853759765625">
        <ele>834.5999755859375</ele>
        <time>2022-04-17T10:29:58.000Z</time>
      </trkpt>
      <trkpt lat="42.97667906619608402252197265625" lon="-2.38959115929901599884033203125">
        <ele>834.5999755859375</ele>
        <time>2022-04-17T10:29:59.000Z</time>
      </trkpt>
      <trkpt lat="42.976684682071208953857421875" lon="-2.3895798437297344207763671875">
        <ele>834.79998779296875</ele>
        <time>2022-04-17T10:30:00.000Z</time>
      </trkpt>
      <trkpt lat="42.97669650055468082427978515625" lon="-2.3895694501698017120361328125">
        <ele>834.79998779296875</ele>
        <time>2022-04-17T10:30:01.000Z</time>
      </trkpt>
      <trkpt lat="42.9767089895904064178466796875" lon="-2.3895600624382495880126953125">
        <ele>835</ele>
        <time>2022-04-17T10:30:02.000Z</time>
      </trkpt>
      <trkpt lat="42.97672298736870288848876953125" lon="-2.38955796696245670318603515625">
        <ele>835</ele>
        <time>2022-04-17T10:30:03.000Z</time>
      </trkpt>
      <trkpt lat="42.976730950176715850830078125" lon="-2.38955796696245670318603515625">
        <ele>835</ele>
        <time>2022-04-17T10:30:04.000Z</time>
      </trkpt>
      <trkpt lat="42.97673371620476245880126953125" lon="-2.389550842344760894775390625">
        <ele>835</ele>
        <time>2022-04-17T10:30:05.000Z</time>
      </trkpt>
      <trkpt lat="42.97673220746219158172607421875" lon="-2.3895399458706378936767578125">
        <ele>835.20001220703125</ele>
        <time>2022-04-17T10:30:06.000Z</time>
      </trkpt>
      <trkpt lat="42.97673203982412815093994140625" lon="-2.38952661864459514617919921875">
        <ele>835.20001220703125</ele>
        <time>2022-04-17T10:30:07.000Z</time>
      </trkpt>
      <trkpt lat="42.97673053108155727386474609375" lon="-2.38951287232339382171630859375">
        <ele>835.20001220703125</ele>
        <time>2022-04-17T10:30:08.000Z</time>
      </trkpt>
      <trkpt lat="42.976728938519954681396484375" lon="-2.38950449042022228240966796875">
        <ele>835.20001220703125</ele>
        <time>2022-04-17T10:30:09.000Z</time>
      </trkpt>
      <trkpt lat="42.97673757188022136688232421875" lon="-2.3894997127354145050048828125">
        <ele>835.20001220703125</ele>
        <time>2022-04-17T10:30:10.000Z</time>
      </trkpt>
      <trkpt lat="42.9767478816211223602294921875" lon="-2.3894886486232280731201171875">
        <ele>835.4000244140625</ele>
        <time>2022-04-17T10:30:11.000Z</time>
      </trkpt>
      <trkpt lat="42.97675433568656444549560546875" lon="-2.38947850652039051055908203125">
        <ele>835.5999755859375</ele>
        <time>2022-04-17T10:30:12.000Z</time>
      </trkpt>
      <trkpt lat="42.9767545871436595916748046875" lon="-2.389468364417552947998046875">
        <ele>835.5999755859375</ele>
        <time>2022-04-17T10:30:13.000Z</time>
      </trkpt>
      <trkpt lat="42.9767552576959133148193359375" lon="-2.3894601501524448394775390625">
        <ele>835.79998779296875</ele>
        <time>2022-04-17T10:30:14.000Z</time>
      </trkpt>
      <trkpt lat="42.9767569340765476226806640625" lon="-2.38945369608700275421142578125">
        <ele>836</ele>
        <time>2022-04-17T10:30:15.000Z</time>
      </trkpt>
      <trkpt lat="42.97675886191427707672119140625" lon="-2.38944816403090953826904296875">
        <ele>836</ele>
        <time>2022-04-17T10:30:16.000Z</time>
      </trkpt>
      <trkpt lat="42.976758778095245361328125" lon="-2.38944363780319690704345703125">
        <ele>836.20001220703125</ele>
        <time>2022-04-17T10:30:17.000Z</time>
      </trkpt>
      <trkpt lat="42.9767589457333087921142578125" lon="-2.3894400335848331451416015625">
        <ele>836.20001220703125</ele>
        <time>2022-04-17T10:30:18.000Z</time>
      </trkpt>
      <trkpt lat="42.97676405869424343109130859375" lon="-2.38943458534777164459228515625">
        <ele>836.20001220703125</ele>
        <time>2022-04-17T10:30:19.000Z</time>
      </trkpt>
      <trkpt lat="42.97676975838840007781982421875" lon="-2.38943575881421566009521484375">
        <ele>836.4000244140625</ele>
        <time>2022-04-17T10:30:20.000Z</time>
      </trkpt>
      <trkpt lat="42.97677730210125446319580078125" lon="-2.389437519013881683349609375">
        <ele>836.4000244140625</ele>
        <time>2022-04-17T10:30:21.000Z</time>
      </trkpt>
      <trkpt lat="42.9767842590808868408203125" lon="-2.38943986594676971435546875">
        <ele>836.5999755859375</ele>
        <time>2022-04-17T10:30:22.000Z</time>
      </trkpt>
      <trkpt lat="42.97679088078439235687255859375" lon="-2.3894420452415943145751953125">
        <ele>836.5999755859375</ele>
        <time>2022-04-17T10:30:23.000Z</time>
      </trkpt>
      <trkpt lat="42.9767958261072635650634765625" lon="-2.38944229669868946075439453125">
        <ele>836.79998779296875</ele>
        <time>2022-04-17T10:30:24.000Z</time>
      </trkpt>
      <trkpt lat="42.97679909504950046539306640625" lon="-2.38944263197481632232666015625">
        <ele>837</ele>
        <time>2022-04-17T10:30:25.000Z</time>
      </trkpt>
      <trkpt lat="42.97680295072495937347412109375" lon="-2.38944028504192829132080078125">
        <ele>837</ele>
        <time>2022-04-17T10:30:26.000Z</time>
      </trkpt>
      <trkpt lat="42.97680797986686229705810546875" lon="-2.3894326575100421905517578125">
        <ele>837.20001220703125</ele>
        <time>2022-04-17T10:30:27.000Z</time>
      </trkpt>
      <trkpt lat="42.97681041061878204345703125" lon="-2.3894232697784900665283203125">
        <ele>837.20001220703125</ele>
        <time>2022-04-17T10:30:28.000Z</time>
      </trkpt>
      <trkpt lat="42.9768142662942409515380859375" lon="-2.38941480405628681182861328125">
        <ele>837.20001220703125</ele>
        <time>2022-04-17T10:30:29.000Z</time>
      </trkpt>
      <trkpt lat="42.97681921161711215972900390625" lon="-2.38940541632473468780517578125">
        <ele>837.20001220703125</ele>
        <time>2022-04-17T10:30:30.000Z</time>
      </trkpt>
      <trkpt lat="42.97682608477771282196044921875" lon="-2.38940072245895862579345703125">
        <ele>837.4000244140625</ele>
        <time>2022-04-17T10:30:31.000Z</time>
      </trkpt>
      <trkpt lat="42.97683597542345523834228515625" lon="-2.38939954899251461029052734375">
        <ele>837.4000244140625</ele>
        <time>2022-04-17T10:30:32.000Z</time>
      </trkpt>
      <trkpt lat="42.97684259712696075439453125" lon="-2.38939552567899227142333984375">
        <ele>837.4000244140625</ele>
        <time>2022-04-17T10:30:33.000Z</time>
      </trkpt>
      <trkpt lat="42.97684527933597564697265625" lon="-2.38938529975712299346923828125">
        <ele>837.4000244140625</ele>
        <time>2022-04-17T10:30:34.000Z</time>
      </trkpt>
      <trkpt lat="42.97684519551694393157958984375" lon="-2.389377839863300323486328125">
        <ele>837.4000244140625</ele>
        <time>2022-04-17T10:30:35.000Z</time>
      </trkpt>
      <trkpt lat="42.97684184275567531585693359375" lon="-2.38936602137982845306396484375">
        <ele>837.5999755859375</ele>
        <time>2022-04-17T10:30:36.000Z</time>
      </trkpt>
      <trkpt lat="42.97683865763247013092041015625" lon="-2.38935629837214946746826171875">
        <ele>837.5999755859375</ele>
        <time>2022-04-17T10:30:37.000Z</time>
      </trkpt>
      <trkpt lat="42.97683589160442352294921875" lon="-2.38935043103992938995361328125">
        <ele>837.5999755859375</ele>
        <time>2022-04-17T10:30:38.000Z</time>
      </trkpt>
      <trkpt lat="42.97683580778539180755615234375" lon="-2.38934070803225040435791015625">
        <ele>837.5999755859375</ele>
        <time>2022-04-17T10:30:39.000Z</time>
      </trkpt>
      <trkpt lat="42.97683848999440670013427734375" lon="-2.38932930864393711090087890625">
        <ele>837.79998779296875</ele>
        <time>2022-04-17T10:30:40.000Z</time>
      </trkpt>
      <trkpt lat="42.9768380708992481231689453125" lon="-2.3893211781978607177734375">
        <ele>837.79998779296875</ele>
        <time>2022-04-17T10:30:41.000Z</time>
      </trkpt>
      <trkpt lat="42.976840250194072723388671875" lon="-2.38931120373308658599853515625">
        <ele>838</ele>
        <time>2022-04-17T10:30:42.000Z</time>
      </trkpt>
      <trkpt lat="42.9768357239663600921630859375" lon="-2.38930081017315387725830078125">
        <ele>838</ele>
        <time>2022-04-17T10:30:43.000Z</time>
      </trkpt>
      <trkpt lat="42.97682440839707851409912109375" lon="-2.3892864771187305450439453125">
        <ele>838</ele>
        <time>2022-04-17T10:30:44.000Z</time>
      </trkpt>
      <trkpt lat="42.97682072035968303680419921875" lon="-2.3892713896930217742919921875">
        <ele>838</ele>
        <time>2022-04-17T10:30:45.000Z</time>
      </trkpt>
      <trkpt lat="42.9768162779510021209716796875" lon="-2.38925403915345668792724609375">
        <ele>838.20001220703125</ele>
        <time>2022-04-17T10:30:46.000Z</time>
      </trkpt>
      <trkpt lat="42.9768110811710357666015625" lon="-2.389236353337764739990234375">
        <ele>838.20001220703125</ele>
        <time>2022-04-17T10:30:47.000Z</time>
      </trkpt>
      <trkpt lat="42.97681351192295551300048828125" lon="-2.3892314918339252471923828125">
        <ele>838.20001220703125</ele>
        <time>2022-04-17T10:30:48.000Z</time>
      </trkpt>
      <trkpt lat="42.9768075607717037200927734375" lon="-2.38922285847365856170654296875">
        <ele>838.4000244140625</ele>
        <time>2022-04-17T10:30:49.000Z</time>
      </trkpt>
      <trkpt lat="42.9768001846969127655029296875" lon="-2.3892207629978656768798828125">
        <ele>838.4000244140625</ele>
        <time>2022-04-17T10:30:50.000Z</time>
      </trkpt>
      <trkpt lat="42.97679088078439235687255859375" lon="-2.389215566217899322509765625">
        <ele>838.5999755859375</ele>
        <time>2022-04-17T10:30:51.000Z</time>
      </trkpt>
      <trkpt lat="42.97678199596703052520751953125" lon="-2.38920743577182292938232421875">
        <ele>838.5999755859375</ele>
        <time>2022-04-17T10:30:52.000Z</time>
      </trkpt>
      <trkpt lat="42.9767656512558460235595703125" lon="-2.38919469527900218963623046875">
        <ele>838.5999755859375</ele>
        <time>2022-04-17T10:30:53.000Z</time>
      </trkpt>
      <trkpt lat="42.97675819136202335357666015625" lon="-2.38917835056781768798828125">
        <ele>838.79998779296875</ele>
        <time>2022-04-17T10:30:54.000Z</time>
      </trkpt>
      <trkpt lat="42.97675483860075473785400390625" lon="-2.38916887901723384857177734375">
        <ele>838.79998779296875</ele>
        <time>2022-04-17T10:30:55.000Z</time>
      </trkpt>
      <trkpt lat="42.9767519049346446990966796875" lon="-2.3891614191234111785888671875">
        <ele>839</ele>
        <time>2022-04-17T10:30:56.000Z</time>
      </trkpt>
      <trkpt lat="42.97674712724983692169189453125" lon="-2.38915546797215938568115234375">
        <ele>839.20001220703125</ele>
        <time>2022-04-17T10:30:57.000Z</time>
      </trkpt>
      <trkpt lat="42.9767431877553462982177734375" lon="-2.3891446553170680999755859375">
        <ele>839.20001220703125</ele>
        <time>2022-04-17T10:30:58.000Z</time>
      </trkpt>
      <trkpt lat="42.976737320423126220703125" lon="-2.38913476467132568359375">
        <ele>839.4000244140625</ele>
        <time>2022-04-17T10:30:59.000Z</time>
      </trkpt>
      <trkpt lat="42.97673203982412815093994140625" lon="-2.38912311382591724395751953125">
        <ele>839.5999755859375</ele>
        <time>2022-04-17T10:31:00.000Z</time>
      </trkpt>
      <trkpt lat="42.976726926863193511962890625" lon="-2.38911875523626804351806640625">
        <ele>839.5999755859375</ele>
        <time>2022-04-17T10:31:01.000Z</time>
      </trkpt>
      <trkpt lat="42.976721227169036865234375" lon="-2.3891168273985385894775390625">
        <ele>839.5999755859375</ele>
        <time>2022-04-17T10:31:02.000Z</time>
      </trkpt>
      <trkpt lat="42.976714186370372772216796875" lon="-2.38911263644695281982421875">
        <ele>839.79998779296875</ele>
        <time>2022-04-17T10:31:03.000Z</time>
      </trkpt>
      <trkpt lat="42.9767096601426601409912109375" lon="-2.38910769112408161163330078125">
        <ele>839.79998779296875</ele>
        <time>2022-04-17T10:31:04.000Z</time>
      </trkpt>
      <trkpt lat="42.9767063073813915252685546875" lon="-2.389095537364482879638671875">
        <ele>840</ele>
        <time>2022-04-17T10:31:05.000Z</time>
      </trkpt>
      <trkpt lat="42.976698093116283416748046875" lon="-2.38909117877483367919921875">
        <ele>840</ele>
        <time>2022-04-17T10:31:06.000Z</time>
      </trkpt>
      <trkpt lat="42.9766821675002574920654296875" lon="-2.3890916816890239715576171875">
        <ele>840.20001220703125</ele>
        <time>2022-04-17T10:31:07.000Z</time>
      </trkpt>
      <trkpt lat="42.9766553454101085662841796875" lon="-2.38908941857516765594482421875">
        <ele>840.20001220703125</ele>
        <time>2022-04-17T10:31:08.000Z</time>
      </trkpt>
      <trkpt lat="42.97664838843047618865966796875" lon="-2.389077432453632354736328125">
        <ele>840.4000244140625</ele>
        <time>2022-04-17T10:31:09.000Z</time>
      </trkpt>
      <trkpt lat="42.9766426049172878265380859375" lon="-2.389067374169826507568359375">
        <ele>840.4000244140625</ele>
        <time>2022-04-17T10:31:10.000Z</time>
      </trkpt>
      <trkpt lat="42.97663464210927486419677734375" lon="-2.38905890844762325286865234375">
        <ele>840.4000244140625</ele>
        <time>2022-04-17T10:31:11.000Z</time>
      </trkpt>
      <trkpt lat="42.9766281880438327789306640625" lon="-2.38905287347733974456787109375">
        <ele>840.5999755859375</ele>
        <time>2022-04-17T10:31:12.000Z</time>
      </trkpt>
      <trkpt lat="42.9766211472451686859130859375" lon="-2.3890531249344348907470703125">
        <ele>840.5999755859375</ele>
        <time>2022-04-17T10:31:13.000Z</time>
      </trkpt>
      <trkpt lat="42.9766131006181240081787109375" lon="-2.38904784433543682098388671875">
        <ele>840.79998779296875</ele>
        <time>2022-04-17T10:31:14.000Z</time>
      </trkpt>
      <trkpt lat="42.9766006954014301300048828125" lon="-2.38903594203293323516845703125">
        <ele>841</ele>
        <time>2022-04-17T10:31:15.000Z</time>
      </trkpt>
      <trkpt lat="42.97659575007855892181396484375" lon="-2.389030158519744873046875">
        <ele>841.20001220703125</ele>
        <time>2022-04-17T10:31:16.000Z</time>
      </trkpt>
      <trkpt lat="42.97659038566052913665771484375" lon="-2.38902621902525424957275390625">
        <ele>841.20001220703125</ele>
        <time>2022-04-17T10:31:17.000Z</time>
      </trkpt>
      <trkpt lat="42.976592816412448883056640625" lon="-2.38901968114078044891357421875">
        <ele>841.4000244140625</ele>
        <time>2022-04-17T10:31:18.000Z</time>
      </trkpt>
      <trkpt lat="42.9765909723937511444091796875" lon="-2.3890172503888607025146484375">
        <ele>841.4000244140625</ele>
        <time>2022-04-17T10:31:19.000Z</time>
      </trkpt>
      <trkpt lat="42.9765832610428333282470703125" lon="-2.3890088684856891632080078125">
        <ele>841.5999755859375</ele>
        <time>2022-04-17T10:31:20.000Z</time>
      </trkpt>
      <trkpt lat="42.9765705205500125885009765625" lon="-2.38899922929704189300537109375">
        <ele>841.5999755859375</ele>
        <time>2022-04-17T10:31:21.000Z</time>
      </trkpt>
      <trkpt lat="42.97655752860009670257568359375" lon="-2.3889900930225849151611328125">
        <ele>841.79998779296875</ele>
        <time>2022-04-17T10:31:22.000Z</time>
      </trkpt>
      <trkpt lat="42.97654688358306884765625" lon="-2.38897710107266902923583984375">
        <ele>841.79998779296875</ele>
        <time>2022-04-17T10:31:23.000Z</time>
      </trkpt>
      <trkpt lat="42.97654160298407077789306640625" lon="-2.3889679647982120513916015625">
        <ele>841.79998779296875</ele>
        <time>2022-04-17T10:31:24.000Z</time>
      </trkpt>
      <trkpt lat="42.976538836956024169921875" lon="-2.3889622651040554046630859375">
        <ele>842</ele>
        <time>2022-04-17T10:31:25.000Z</time>
      </trkpt>
      <trkpt lat="42.97653741203248500823974609375" lon="-2.3889565654098987579345703125">
        <ele>842.20001220703125</ele>
        <time>2022-04-17T10:31:26.000Z</time>
      </trkpt>
      <trkpt lat="42.97653280198574066162109375" lon="-2.3889478482306003570556640625">
        <ele>842.4000244140625</ele>
        <time>2022-04-17T10:31:27.000Z</time>
      </trkpt>
      <trkpt lat="42.97652668319642543792724609375" lon="-2.388942651450634002685546875">
        <ele>842.5999755859375</ele>
        <time>2022-04-17T10:31:28.000Z</time>
      </trkpt>
      <trkpt lat="42.97652131877839565277099609375" lon="-2.38893955014646053314208984375">
        <ele>842.5999755859375</ele>
        <time>2022-04-17T10:31:29.000Z</time>
      </trkpt>
      <trkpt lat="42.97651679255068302154541015625" lon="-2.38893602974712848663330078125">
        <ele>842.5999755859375</ele>
        <time>2022-04-17T10:31:30.000Z</time>
      </trkpt>
      <trkpt lat="42.9765091650187969207763671875" lon="-2.38892915658652782440185546875">
        <ele>842.79998779296875</ele>
        <time>2022-04-17T10:31:31.000Z</time>
      </trkpt>
      <trkpt lat="42.97650069929659366607666015625" lon="-2.38891691900789737701416015625">
        <ele>843</ele>
        <time>2022-04-17T10:31:32.000Z</time>
      </trkpt>
      <trkpt lat="42.97649097628891468048095703125" lon="-2.38890803419053554534912109375">
        <ele>843.20001220703125</ele>
        <time>2022-04-17T10:31:33.000Z</time>
      </trkpt>
      <trkpt lat="42.97648360021412372589111328125" lon="-2.38890870474278926849365234375">
        <ele>843.20001220703125</ele>
        <time>2022-04-17T10:31:34.000Z</time>
      </trkpt>
      <trkpt lat="42.97647119499742984771728515625" lon="-2.38891004584729671478271484375">
        <ele>843.20001220703125</ele>
        <time>2022-04-17T10:31:35.000Z</time>
      </trkpt>
      <trkpt lat="42.976465411484241485595703125" lon="-2.38890116102993488311767578125">
        <ele>843.20001220703125</ele>
        <time>2022-04-17T10:31:36.000Z</time>
      </trkpt>
      <trkpt lat="42.97645677812397480010986328125" lon="-2.388890683650970458984375">
        <ele>843.4000244140625</ele>
        <time>2022-04-17T10:31:37.000Z</time>
      </trkpt>
      <trkpt lat="42.97644965350627899169921875" lon="-2.38888263702392578125">
        <ele>843.4000244140625</ele>
        <time>2022-04-17T10:31:38.000Z</time>
      </trkpt>
      <trkpt lat="42.97644202597439289093017578125" lon="-2.388878948986530303955078125">
        <ele>843.5999755859375</ele>
        <time>2022-04-17T10:31:39.000Z</time>
      </trkpt>
      <trkpt lat="42.97643221914768218994140625" lon="-2.38888188265264034271240234375">
        <ele>843.79998779296875</ele>
        <time>2022-04-17T10:31:40.000Z</time>
      </trkpt>
      <trkpt lat="42.97642056830227375030517578125" lon="-2.38887953571975231170654296875">
        <ele>844</ele>
        <time>2022-04-17T10:31:41.000Z</time>
      </trkpt>
      <trkpt lat="42.97641369514167308807373046875" lon="-2.38887869752943515777587890625">
        <ele>844</ele>
        <time>2022-04-17T10:31:42.000Z</time>
      </trkpt>
      <trkpt lat="42.97640740871429443359375" lon="-2.38887735642492771148681640625">
        <ele>844.20001220703125</ele>
        <time>2022-04-17T10:31:43.000Z</time>
      </trkpt>
      <trkpt lat="42.9764058999717235565185546875" lon="-2.3888707347214221954345703125">
        <ele>844.20001220703125</ele>
        <time>2022-04-17T10:31:44.000Z</time>
      </trkpt>
      <trkpt lat="42.9764020442962646484375" lon="-2.3888652026653289794921875">
        <ele>844.20001220703125</ele>
        <time>2022-04-17T10:31:45.000Z</time>
      </trkpt>
      <trkpt lat="42.97640078701078891754150390625" lon="-2.38886184990406036376953125">
        <ele>844.4000244140625</ele>
        <time>2022-04-17T10:31:46.000Z</time>
      </trkpt>
      <trkpt lat="42.9763934947550296783447265625" lon="-2.3888566531240940093994140625">
        <ele>844.5999755859375</ele>
        <time>2022-04-17T10:31:47.000Z</time>
      </trkpt>
      <trkpt lat="42.97638502903282642364501953125" lon="-2.388854809105396270751953125">
        <ele>844.79998779296875</ele>
        <time>2022-04-17T10:31:48.000Z</time>
      </trkpt>
      <trkpt lat="42.97637614421546459197998046875" lon="-2.388852126896381378173828125">
        <ele>845</ele>
        <time>2022-04-17T10:31:49.000Z</time>
      </trkpt>
      <trkpt lat="42.97637723386287689208984375" lon="-2.38884835503995418548583984375">
        <ele>845</ele>
        <time>2022-04-17T10:31:50.000Z</time>
      </trkpt>
      <trkpt lat="42.97638335265219211578369140625" lon="-2.3888506181538105010986328125">
        <ele>845.20001220703125</ele>
        <time>2022-04-17T10:31:51.000Z</time>
      </trkpt>
      <trkpt lat="42.9763831011950969696044921875" lon="-2.38885380327701568603515625">
        <ele>845.4000244140625</ele>
        <time>2022-04-17T10:31:52.000Z</time>
      </trkpt>
      <trkpt lat="42.97637832351028919219970703125" lon="-2.38885288126766681671142578125">
        <ele>845.4000244140625</ele>
        <time>2022-04-17T10:31:53.000Z</time>
      </trkpt>
      <trkpt lat="42.976363487541675567626953125" lon="-2.3888492770493030548095703125">
        <ele>845.5999755859375</ele>
        <time>2022-04-17T10:31:54.000Z</time>
      </trkpt>
      <trkpt lat="42.9763499088585376739501953125" lon="-2.38884047605097293853759765625">
        <ele>845.5999755859375</ele>
        <time>2022-04-17T10:31:55.000Z</time>
      </trkpt>
      <trkpt lat="42.97633842565119266510009765625" lon="-2.3888321779668331146240234375">
        <ele>845.79998779296875</ele>
        <time>2022-04-17T10:31:56.000Z</time>
      </trkpt>
      <trkpt lat="42.97632685862481594085693359375" lon="-2.38882605917751789093017578125">
        <ele>845.79998779296875</ele>
        <time>2022-04-17T10:31:57.000Z</time>
      </trkpt>
      <trkpt lat="42.97631688416004180908203125" lon="-2.38882253877818584442138671875">
        <ele>846.20001220703125</ele>
        <time>2022-04-17T10:31:58.000Z</time>
      </trkpt>
      <trkpt lat="42.9763059876859188079833984375" lon="-2.388817258179187774658203125">
        <ele>846.4000244140625</ele>
        <time>2022-04-17T10:31:59.000Z</time>
      </trkpt>
      <trkpt lat="42.976297438144683837890625" lon="-2.3888140730559825897216796875">
        <ele>846.4000244140625</ele>
        <time>2022-04-17T10:32:00.000Z</time>
      </trkpt>
      <trkpt lat="42.97628897242248058319091796875" lon="-2.3888140730559825897216796875">
        <ele>846.79998779296875</ele>
        <time>2022-04-17T10:32:01.000Z</time>
      </trkpt>
      <trkpt lat="42.97627824358642101287841796875" lon="-2.38881315104663372039794921875">
        <ele>846.79998779296875</ele>
        <time>2022-04-17T10:32:02.000Z</time>
      </trkpt>
      <trkpt lat="42.97627019695937633514404296875" lon="-2.38881113938987255096435546875">
        <ele>846.79998779296875</ele>
        <time>2022-04-17T10:32:03.000Z</time>
      </trkpt>
      <trkpt lat="42.97626114450395107269287109375" lon="-2.3888050206005573272705078125">
        <ele>847</ele>
        <time>2022-04-17T10:32:04.000Z</time>
      </trkpt>
      <trkpt lat="42.97625628300011157989501953125" lon="-2.3887981474399566650390625">
        <ele>847</ele>
        <time>2022-04-17T10:32:05.000Z</time>
      </trkpt>
      <trkpt lat="42.97625142149627208709716796875" lon="-2.38878934644162654876708984375">
        <ele>847</ele>
        <time>2022-04-17T10:32:06.000Z</time>
      </trkpt>
      <trkpt lat="42.9762466438114643096923828125" lon="-2.388775683939456939697265625">
        <ele>847</ele>
        <time>2022-04-17T10:32:07.000Z</time>
      </trkpt>
      <trkpt lat="42.97624119557440280914306640625" lon="-2.3887610994279384613037109375">
        <ele>847.20001220703125</ele>
        <time>2022-04-17T10:32:08.000Z</time>
      </trkpt>
      <trkpt lat="42.97623381949961185455322265625" lon="-2.38875213079154491424560546875">
        <ele>847.20001220703125</ele>
        <time>2022-04-17T10:32:09.000Z</time>
      </trkpt>
      <trkpt lat="42.97622811980545520782470703125" lon="-2.38874576054513454437255859375">
        <ele>847.20001220703125</ele>
        <time>2022-04-17T10:32:10.000Z</time>
      </trkpt>
      <trkpt lat="42.976224683225154876708984375" lon="-2.3887460120022296905517578125">
        <ele>847.20001220703125</ele>
        <time>2022-04-17T10:32:11.000Z</time>
      </trkpt>
      <trkpt lat="42.97621772624552249908447265625" lon="-2.3887393064796924591064453125">
        <ele>847.4000244140625</ele>
        <time>2022-04-17T10:32:12.000Z</time>
      </trkpt>
      <trkpt lat="42.97621420584619045257568359375" lon="-2.38872765563428401947021484375">
        <ele>847.4000244140625</ele>
        <time>2022-04-17T10:32:13.000Z</time>
      </trkpt>
      <trkpt lat="42.976213954389095306396484375" lon="-2.3887188546359539031982421875">
        <ele>847.5999755859375</ele>
        <time>2022-04-17T10:32:14.000Z</time>
      </trkpt>
      <trkpt lat="42.97620498575270175933837890625" lon="-2.388708293437957763671875">
        <ele>847.79998779296875</ele>
        <time>2022-04-17T10:32:15.000Z</time>
      </trkpt>
      <trkpt lat="42.976195514202117919921875" lon="-2.38869898952543735504150390625">
        <ele>848</ele>
        <time>2022-04-17T10:32:16.000Z</time>
      </trkpt>
      <trkpt lat="42.97618838958442211151123046875" lon="-2.38868859596550464630126953125">
        <ele>848.20001220703125</ele>
        <time>2022-04-17T10:32:17.000Z</time>
      </trkpt>
      <trkpt lat="42.97618168406188488006591796875" lon="-2.38867334090173244476318359375">
        <ele>848.4000244140625</ele>
        <time>2022-04-17T10:32:18.000Z</time>
      </trkpt>
      <trkpt lat="42.976175732910633087158203125" lon="-2.38865607418119907379150390625">
        <ele>848.5999755859375</ele>
        <time>2022-04-17T10:32:19.000Z</time>
      </trkpt>
      <trkpt lat="42.97616265714168548583984375" lon="-2.38863143138587474822998046875">
        <ele>848.5999755859375</ele>
        <time>2022-04-17T10:32:20.000Z</time>
      </trkpt>
      <trkpt lat="42.9761490784585475921630859375" lon="-2.38859807141125202178955078125">
        <ele>848.79998779296875</ele>
        <time>2022-04-17T10:32:21.000Z</time>
      </trkpt>
      <trkpt lat="42.97614731825888156890869140625" lon="-2.3885787092149257659912109375">
        <ele>848.79998779296875</ele>
        <time>2022-04-17T10:32:22.000Z</time>
      </trkpt>
      <trkpt lat="42.97613441012799739837646484375" lon="-2.3885649628937244415283203125">
        <ele>848.79998779296875</ele>
        <time>2022-04-17T10:32:23.000Z</time>
      </trkpt>
      <trkpt lat="42.97611974179744720458984375" lon="-2.38855364732444286346435546875">
        <ele>849</ele>
        <time>2022-04-17T10:32:24.000Z</time>
      </trkpt>
      <trkpt lat="42.976112700998783111572265625" lon="-2.3885488696396350860595703125">
        <ele>849</ele>
        <time>2022-04-17T10:32:25.000Z</time>
      </trkpt>
      <trkpt lat="42.9761083424091339111328125" lon="-2.3885460197925567626953125">
        <ele>849.20001220703125</ele>
        <time>2022-04-17T10:32:26.000Z</time>
      </trkpt>
      <trkpt lat="42.97610876150429248809814453125" lon="-2.3885378055274486541748046875">
        <ele>849.20001220703125</ele>
        <time>2022-04-17T10:32:27.000Z</time>
      </trkpt>
      <trkpt lat="42.9761075042188167572021484375" lon="-2.38853336311876773834228515625">
        <ele>849.20001220703125</ele>
        <time>2022-04-17T10:32:28.000Z</time>
      </trkpt>
      <trkpt lat="42.9761014692485332489013671875" lon="-2.388527579605579376220703125">
        <ele>849.20001220703125</ele>
        <time>2022-04-17T10:32:29.000Z</time>
      </trkpt>
      <trkpt lat="42.9760940931737422943115234375" lon="-2.38851576112210750579833984375">
        <ele>849.4000244140625</ele>
        <time>2022-04-17T10:32:30.000Z</time>
      </trkpt>
      <trkpt lat="42.9760897345840930938720703125" lon="-2.3884992487728595733642578125">
        <ele>849.4000244140625</ele>
        <time>2022-04-17T10:32:31.000Z</time>
      </trkpt>
      <trkpt lat="42.97608680091798305511474609375" lon="-2.38848877139389514923095703125">
        <ele>849.5999755859375</ele>
        <time>2022-04-17T10:32:32.000Z</time>
      </trkpt>
      <trkpt lat="42.97608227469027042388916015625" lon="-2.38848206587135791778564453125">
        <ele>849.5999755859375</ele>
        <time>2022-04-17T10:32:33.000Z</time>
      </trkpt>
      <trkpt lat="42.976073138415813446044921875" lon="-2.38847569562494754791259765625">
        <ele>849.79998779296875</ele>
        <time>2022-04-17T10:32:34.000Z</time>
      </trkpt>
      <trkpt lat="42.9760615713894367218017578125" lon="-2.38847024738788604736328125">
        <ele>849.79998779296875</ele>
        <time>2022-04-17T10:32:35.000Z</time>
      </trkpt>
      <trkpt lat="42.97604908235371112823486328125" lon="-2.38846446387469768524169921875">
        <ele>850</ele>
        <time>2022-04-17T10:32:36.000Z</time>
      </trkpt>
      <trkpt lat="42.97604137100279331207275390625" lon="-2.38845876418054103851318359375">
        <ele>850</ele>
        <time>2022-04-17T10:32:37.000Z</time>
      </trkpt>
      <trkpt lat="42.9760340787470340728759765625" lon="-2.3884502984583377838134765625">
        <ele>850.20001220703125</ele>
        <time>2022-04-17T10:32:38.000Z</time>
      </trkpt>
      <trkpt lat="42.9760267026722431182861328125" lon="-2.38844267092645168304443359375">
        <ele>850.20001220703125</ele>
        <time>2022-04-17T10:32:39.000Z</time>
      </trkpt>
      <trkpt lat="42.97602192498743534088134765625" lon="-2.38843512721359729766845703125">
        <ele>850.4000244140625</ele>
        <time>2022-04-17T10:32:40.000Z</time>
      </trkpt>
      <trkpt lat="42.97601622529327869415283203125" lon="-2.38843009807169437408447265625">
        <ele>850.4000244140625</ele>
        <time>2022-04-17T10:32:41.000Z</time>
      </trkpt>
      <trkpt lat="42.9760126210749149322509765625" lon="-2.38842506892979145050048828125">
        <ele>850.5999755859375</ele>
        <time>2022-04-17T10:32:42.000Z</time>
      </trkpt>
      <trkpt lat="42.9760037362575531005859375" lon="-2.38842171616852283477783203125">
        <ele>850.5999755859375</ele>
        <time>2022-04-17T10:32:43.000Z</time>
      </trkpt>
      <trkpt lat="42.97599233686923980712890625" lon="-2.388410232961177825927734375">
        <ele>850.79998779296875</ele>
        <time>2022-04-17T10:32:44.000Z</time>
      </trkpt>
      <trkpt lat="42.9759797640144824981689453125" lon="-2.38840377889573574066162109375">
        <ele>850.79998779296875</ele>
        <time>2022-04-17T10:32:45.000Z</time>
      </trkpt>
      <trkpt lat="42.97596291638910770416259765625" lon="-2.38839841447770595550537109375">
        <ele>850.79998779296875</ele>
        <time>2022-04-17T10:32:46.000Z</time>
      </trkpt>
      <trkpt lat="42.97595369629561901092529296875" lon="-2.388391792774200439453125">
        <ele>851.20001220703125</ele>
        <time>2022-04-17T10:32:47.000Z</time>
      </trkpt>
      <trkpt lat="42.9759445600211620330810546875" lon="-2.38838969729840755462646484375">
        <ele>851.4000244140625</ele>
        <time>2022-04-17T10:32:48.000Z</time>
      </trkpt>
      <trkpt lat="42.97593726776540279388427734375" lon="-2.38838844001293182373046875">
        <ele>851.4000244140625</ele>
        <time>2022-04-17T10:32:49.000Z</time>
      </trkpt>
      <trkpt lat="42.9759308136999607086181640625" lon="-2.3883825726807117462158203125">
        <ele>851.4000244140625</ele>
        <time>2022-04-17T10:32:50.000Z</time>
      </trkpt>
      <trkpt lat="42.97592184506356716156005859375" lon="-2.388378046452999114990234375">
        <ele>851.4000244140625</ele>
        <time>2022-04-17T10:32:51.000Z</time>
      </trkpt>
      <trkpt lat="42.9759125411510467529296875" lon="-2.38837209530174732208251953125">
        <ele>851.5999755859375</ele>
        <time>2022-04-17T10:32:52.000Z</time>
      </trkpt>
      <trkpt lat="42.97590508125722408294677734375" lon="-2.388362623751163482666015625">
        <ele>851.5999755859375</ele>
        <time>2022-04-17T10:32:53.000Z</time>
      </trkpt>
      <trkpt lat="42.97589921392500400543212890625" lon="-2.388353236019611358642578125">
        <ele>851.5999755859375</ele>
        <time>2022-04-17T10:32:54.000Z</time>
      </trkpt>
      <trkpt lat="42.97589519061148166656494140625" lon="-2.38834577612578868865966796875">
        <ele>851.79998779296875</ele>
        <time>2022-04-17T10:32:55.000Z</time>
      </trkpt>
      <trkpt lat="42.97589083202183246612548828125" lon="-2.3883383162319660186767578125">
        <ele>852</ele>
        <time>2022-04-17T10:32:56.000Z</time>
      </trkpt>
      <trkpt lat="42.97588370740413665771484375" lon="-2.3883269168436527252197265625">
        <ele>852.20001220703125</ele>
        <time>2022-04-17T10:32:57.000Z</time>
      </trkpt>
      <trkpt lat="42.97587473876774311065673828125" lon="-2.38831694237887859344482421875">
        <ele>852.4000244140625</ele>
        <time>2022-04-17T10:32:58.000Z</time>
      </trkpt>
      <trkpt lat="42.97586149536073207855224609375" lon="-2.38831040449440479278564453125">
        <ele>852.4000244140625</ele>
        <time>2022-04-17T10:32:59.000Z</time>
      </trkpt>
      <trkpt lat="42.97585210762917995452880859375" lon="-2.3883027769625186920166015625">
        <ele>852.5999755859375</ele>
        <time>2022-04-17T10:33:00.000Z</time>
      </trkpt>
      <trkpt lat="42.97584422864019870758056640625" lon="-2.388294227421283721923828125">
        <ele>852.5999755859375</ele>
        <time>2022-04-17T10:33:01.000Z</time>
      </trkpt>
      <trkpt lat="42.975830733776092529296875" lon="-2.388290204107761383056640625">
        <ele>852.79998779296875</ele>
        <time>2022-04-17T10:33:02.000Z</time>
      </trkpt>
      <trkpt lat="42.97581120394170284271240234375" lon="-2.388280816376209259033203125">
        <ele>852.79998779296875</ele>
        <time>2022-04-17T10:33:03.000Z</time>
      </trkpt>
      <trkpt lat="42.97580148093402385711669921875" lon="-2.38827201537787914276123046875">
        <ele>852.79998779296875</ele>
        <time>2022-04-17T10:33:04.000Z</time>
      </trkpt>
      <trkpt lat="42.975792847573757171630859375" lon="-2.38826648332178592681884765625">
        <ele>853</ele>
        <time>2022-04-17T10:33:05.000Z</time>
      </trkpt>
      <trkpt lat="42.97578656114637851715087890625" lon="-2.388260364532470703125">
        <ele>853.20001220703125</ele>
        <time>2022-04-17T10:33:06.000Z</time>
      </trkpt>
      <trkpt lat="42.97578169964253902435302734375" lon="-2.3882590234279632568359375">
        <ele>853.20001220703125</ele>
        <time>2022-04-17T10:33:07.000Z</time>
      </trkpt>
      <trkpt lat="42.97577583231031894683837890625" lon="-2.38826229237020015716552734375">
        <ele>853.4000244140625</ele>
        <time>2022-04-17T10:33:08.000Z</time>
      </trkpt>
      <trkpt lat="42.9757635109126567840576171875" lon="-2.38826581276953220367431640625">
        <ele>853.5999755859375</ele>
        <time>2022-04-17T10:33:09.000Z</time>
      </trkpt>
      <trkpt lat="42.97575370408594608306884765625" lon="-2.388262040913105010986328125">
        <ele>853.79998779296875</ele>
        <time>2022-04-17T10:33:10.000Z</time>
      </trkpt>
      <trkpt lat="42.97574557363986968994140625" lon="-2.3882511444389820098876953125">
        <ele>853.79998779296875</ele>
        <time>2022-04-17T10:33:11.000Z</time>
      </trkpt>
      <trkpt lat="42.97573744319379329681396484375" lon="-2.38822281360626220703125">
        <ele>854</ele>
        <time>2022-04-17T10:33:12.000Z</time>
      </trkpt>
      <trkpt lat="42.97573626972734928131103515625" lon="-2.38820747472345829010009765625">
        <ele>854.20001220703125</ele>
        <time>2022-04-17T10:33:13.000Z</time>
      </trkpt>
      <trkpt lat="42.9757293127477169036865234375" lon="-2.38819263875484466552734375">
        <ele>854.20001220703125</ele>
        <time>2022-04-17T10:33:14.000Z</time>
      </trkpt>
      <trkpt lat="42.9757242836058139801025390625" lon="-2.38818434067070484161376953125">
        <ele>854.4000244140625</ele>
        <time>2022-04-17T10:33:15.000Z</time>
      </trkpt>
      <trkpt lat="42.97571581788361072540283203125" lon="-2.38817763514816761016845703125">
        <ele>854.5999755859375</ele>
        <time>2022-04-17T10:33:16.000Z</time>
      </trkpt>
      <trkpt lat="42.975705005228519439697265625" lon="-2.3881743662059307098388671875">
        <ele>854.5999755859375</ele>
        <time>2022-04-17T10:33:17.000Z</time>
      </trkpt>
      <trkpt lat="42.97569670714437961578369140625" lon="-2.388168834149837493896484375">
        <ele>854.79998779296875</ele>
        <time>2022-04-17T10:33:18.000Z</time>
      </trkpt>
      <trkpt lat="42.97569151036441326141357421875" lon="-2.38816103897988796234130859375">
        <ele>855</ele>
        <time>2022-04-17T10:33:19.000Z</time>
      </trkpt>
      <trkpt lat="42.97568547539412975311279296875" lon="-2.38815081305801868438720703125">
        <ele>855</ele>
        <time>2022-04-17T10:33:20.000Z</time>
      </trkpt>
      <trkpt lat="42.9756803624331951141357421875" lon="-2.38814092241227626800537109375">
        <ele>855.20001220703125</ele>
        <time>2022-04-17T10:33:21.000Z</time>
      </trkpt>
      <trkpt lat="42.9756766743957996368408203125" lon="-2.38813186995685100555419921875">
        <ele>855.20001220703125</ele>
        <time>2022-04-17T10:33:22.000Z</time>
      </trkpt>
      <trkpt lat="42.9756729863584041595458984375" lon="-2.388123236596584320068359375">
        <ele>855.4000244140625</ele>
        <time>2022-04-17T10:33:23.000Z</time>
      </trkpt>
      <trkpt lat="42.9756676219403743743896484375" lon="-2.3881096579134464263916015625">
        <ele>855.4000244140625</ele>
        <time>2022-04-17T10:33:24.000Z</time>
      </trkpt>
      <trkpt lat="42.975663430988788604736328125" lon="-2.38809498958289623260498046875">
        <ele>855.5999755859375</ele>
        <time>2022-04-17T10:33:25.000Z</time>
      </trkpt>
      <trkpt lat="42.97566016204655170440673828125" lon="-2.38808157853782176971435546875">
        <ele>855.5999755859375</ele>
        <time>2022-04-17T10:33:26.000Z</time>
      </trkpt>
      <trkpt lat="42.97565261833369731903076171875" lon="-2.388069592416286468505859375">
        <ele>855.79998779296875</ele>
        <time>2022-04-17T10:33:27.000Z</time>
      </trkpt>
      <trkpt lat="42.975643984973430633544921875" lon="-2.3880632221698760986328125">
        <ele>855.79998779296875</ele>
        <time>2022-04-17T10:33:28.000Z</time>
      </trkpt>
      <trkpt lat="42.975633256137371063232421875" lon="-2.38805450499057769775390625">
        <ele>856</ele>
        <time>2022-04-17T10:33:29.000Z</time>
      </trkpt>
      <trkpt lat="42.9756260477006435394287109375" lon="-2.38804553635418415069580078125">
        <ele>856.20001220703125</ele>
        <time>2022-04-17T10:33:30.000Z</time>
      </trkpt>
      <trkpt lat="42.975619174540042877197265625" lon="-2.3880382440984249114990234375">
        <ele>856.20001220703125</ele>
        <time>2022-04-17T10:33:31.000Z</time>
      </trkpt>
      <trkpt lat="42.975616492331027984619140625" lon="-2.38803581334650516510009765625">
        <ele>856.4000244140625</ele>
        <time>2022-04-17T10:33:32.000Z</time>
      </trkpt>
      <trkpt lat="42.9756139777600765228271484375" lon="-2.38803497515618801116943359375">
        <ele>856.4000244140625</ele>
        <time>2022-04-17T10:33:33.000Z</time>
      </trkpt>
      <trkpt lat="42.9756079427897930145263671875" lon="-2.38802474923431873321533203125">
        <ele>856.5999755859375</ele>
        <time>2022-04-17T10:33:34.000Z</time>
      </trkpt>
      <trkpt lat="42.97560785897076129913330078125" lon="-2.3880136013031005859375">
        <ele>856.5999755859375</ele>
        <time>2022-04-17T10:33:35.000Z</time>
      </trkpt>
      <trkpt lat="42.97560601495206356048583984375" lon="-2.388005219399929046630859375">
        <ele>856.5999755859375</ele>
        <time>2022-04-17T10:33:36.000Z</time>
      </trkpt>
      <trkpt lat="42.975595034658908843994140625" lon="-2.387992478907108306884765625">
        <ele>856.5999755859375</ele>
        <time>2022-04-17T10:33:37.000Z</time>
      </trkpt>
      <trkpt lat="42.97558740712702274322509765625" lon="-2.3879773914813995361328125">
        <ele>856.5999755859375</ele>
        <time>2022-04-17T10:33:38.000Z</time>
      </trkpt>
      <trkpt lat="42.975576929748058319091796875" lon="-2.3879661597311496734619140625">
        <ele>856.79998779296875</ele>
        <time>2022-04-17T10:33:39.000Z</time>
      </trkpt>
      <trkpt lat="42.9755719006061553955078125" lon="-2.38796054385602474212646484375">
        <ele>856.79998779296875</ele>
        <time>2022-04-17T10:33:40.000Z</time>
      </trkpt>
      <trkpt lat="42.97556745819747447967529296875" lon="-2.38795702345669269561767578125">
        <ele>857</ele>
        <time>2022-04-17T10:33:41.000Z</time>
      </trkpt>
      <trkpt lat="42.9755626805126667022705078125" lon="-2.3879532516002655029296875">
        <ele>857</ele>
        <time>2022-04-17T10:33:42.000Z</time>
      </trkpt>
      <trkpt lat="42.97555379569530487060546875" lon="-2.38795098848640918731689453125">
        <ele>857</ele>
        <time>2022-04-17T10:33:43.000Z</time>
      </trkpt>
      <trkpt lat="42.9755492694675922393798828125" lon="-2.38794528879225254058837890625">
        <ele>857.20001220703125</ele>
        <time>2022-04-17T10:33:44.000Z</time>
      </trkpt>
      <trkpt lat="42.97554574906826019287109375" lon="-2.3879369907081127166748046875">
        <ele>857.20001220703125</ele>
        <time>2022-04-17T10:33:45.000Z</time>
      </trkpt>
      <trkpt lat="42.9755375348031520843505859375" lon="-2.38792718388140201568603515625">
        <ele>857.20001220703125</ele>
        <time>2022-04-17T10:33:46.000Z</time>
      </trkpt>
      <trkpt lat="42.97552973963320255279541015625" lon="-2.38791829906404018402099609375">
        <ele>857.4000244140625</ele>
        <time>2022-04-17T10:33:47.000Z</time>
      </trkpt>
      <trkpt lat="42.97552403993904590606689453125" lon="-2.3879091627895832061767578125">
        <ele>857.4000244140625</ele>
        <time>2022-04-17T10:33:48.000Z</time>
      </trkpt>
      <trkpt lat="42.975518591701984405517578125" lon="-2.3879022896289825439453125">
        <ele>857.5999755859375</ele>
        <time>2022-04-17T10:33:49.000Z</time>
      </trkpt>
      <trkpt lat="42.9755157418549060821533203125" lon="-2.38789751194417476654052734375">
        <ele>857.5999755859375</ele>
        <time>2022-04-17T10:33:50.000Z</time>
      </trkpt>
      <trkpt lat="42.975508868694305419921875" lon="-2.38789298571646213531494140625">
        <ele>857.79998779296875</ele>
        <time>2022-04-17T10:33:51.000Z</time>
      </trkpt>
      <trkpt lat="42.97550325281918048858642578125" lon="-2.38787890411913394927978515625">
        <ele>857.79998779296875</ele>
        <time>2022-04-17T10:33:52.000Z</time>
      </trkpt>
      <trkpt lat="42.975495792925357818603515625" lon="-2.3878689296543598175048828125">
        <ele>858</ele>
        <time>2022-04-17T10:33:53.000Z</time>
      </trkpt>
      <trkpt lat="42.97549202106893062591552734375" lon="-2.38786540925502777099609375">
        <ele>858</ele>
        <time>2022-04-17T10:33:54.000Z</time>
      </trkpt>
      <trkpt lat="42.97548464499413967132568359375" lon="-2.38785736262798309326171875">
        <ele>858</ele>
        <time>2022-04-17T10:33:55.000Z</time>
      </trkpt>
      <trkpt lat="42.975477688014507293701171875" lon="-2.3878468014299869537353515625">
        <ele>858.4000244140625</ele>
        <time>2022-04-17T10:33:56.000Z</time>
      </trkpt>
      <trkpt lat="42.975472323596477508544921875" lon="-2.38783230073750019073486328125">
        <ele>858.4000244140625</ele>
        <time>2022-04-17T10:33:57.000Z</time>
      </trkpt>
      <trkpt lat="42.97546855174005031585693359375" lon="-2.3878219909965991973876953125">
        <ele>858.5999755859375</ele>
        <time>2022-04-17T10:33:58.000Z</time>
      </trkpt>
      <trkpt lat="42.9754644446074962615966796875" lon="-2.3878142796456813812255859375">
        <ele>858.5999755859375</ele>
        <time>2022-04-17T10:33:59.000Z</time>
      </trkpt>
      <trkpt lat="42.9754579067230224609375" lon="-2.38780614919960498809814453125">
        <ele>858.79998779296875</ele>
        <time>2022-04-17T10:34:00.000Z</time>
      </trkpt>
      <trkpt lat="42.97545162029564380645751953125" lon="-2.387794665992259979248046875">
        <ele>859</ele>
        <time>2022-04-17T10:34:01.000Z</time>
      </trkpt>
      <trkpt lat="42.97544608823955059051513671875" lon="-2.387785613536834716796875">
        <ele>859.20001220703125</ele>
        <time>2022-04-17T10:34:02.000Z</time>
      </trkpt>
      <trkpt lat="42.97544114291667938232421875" lon="-2.387777902185916900634765625">
        <ele>859.4000244140625</ele>
        <time>2022-04-17T10:34:03.000Z</time>
      </trkpt>
      <trkpt lat="42.975434772670269012451171875" lon="-2.38776809535920619964599609375">
        <ele>859.5999755859375</ele>
        <time>2022-04-17T10:34:04.000Z</time>
      </trkpt>
      <trkpt lat="42.97542949207127094268798828125" lon="-2.38775937817990779876708984375">
        <ele>859.79998779296875</ele>
        <time>2022-04-17T10:34:05.000Z</time>
      </trkpt>
      <trkpt lat="42.9754235409200191497802734375" lon="-2.38774613477289676666259765625">
        <ele>859.79998779296875</ele>
        <time>2022-04-17T10:34:06.000Z</time>
      </trkpt>
      <trkpt lat="42.9754154942929744720458984375" lon="-2.3877386748790740966796875">
        <ele>860</ele>
        <time>2022-04-17T10:34:07.000Z</time>
      </trkpt>
      <trkpt lat="42.975408621132373809814453125" lon="-2.3877279460430145263671875">
        <ele>860.20001220703125</ele>
        <time>2022-04-17T10:34:08.000Z</time>
      </trkpt>
      <trkpt lat="42.9754051007330417633056640625" lon="-2.3877190612256526947021484375">
        <ele>860.20001220703125</ele>
        <time>2022-04-17T10:34:09.000Z</time>
      </trkpt>
      <trkpt lat="42.9754010774195194244384765625" lon="-2.38770975731313228607177734375">
        <ele>860.4000244140625</ele>
        <time>2022-04-17T10:34:10.000Z</time>
      </trkpt>
      <trkpt lat="42.97539412043988704681396484375" lon="-2.387700118124485015869140625">
        <ele>860.4000244140625</ele>
        <time>2022-04-17T10:34:11.000Z</time>
      </trkpt>
      <trkpt lat="42.97539076767861843109130859375" lon="-2.38769240677356719970703125">
        <ele>860.5999755859375</ele>
        <time>2022-04-17T10:34:12.000Z</time>
      </trkpt>
      <trkpt lat="42.97538892365992069244384765625" lon="-2.38768033683300018310546875">
        <ele>860.79998779296875</ele>
        <time>2022-04-17T10:34:13.000Z</time>
      </trkpt>
      <trkpt lat="42.9753869958221912384033203125" lon="-2.387663237750530242919921875">
        <ele>860.79998779296875</ele>
        <time>2022-04-17T10:34:14.000Z</time>
      </trkpt>
      <trkpt lat="42.97538272105157375335693359375" lon="-2.38764538429677486419677734375">
        <ele>861</ele>
        <time>2022-04-17T10:34:15.000Z</time>
      </trkpt>
      <trkpt lat="42.975379787385463714599609375" lon="-2.38762828521430492401123046875">
        <ele>861</ele>
        <time>2022-04-17T10:34:16.000Z</time>
      </trkpt>
      <trkpt lat="42.9753760993480682373046875" lon="-2.38762266933917999267578125">
        <ele>861</ele>
        <time>2022-04-17T10:34:17.000Z</time>
      </trkpt>
      <trkpt lat="42.97536863945424556732177734375" lon="-2.387624680995941162109375">
        <ele>861.20001220703125</ele>
        <time>2022-04-17T10:34:18.000Z</time>
      </trkpt>
      <trkpt lat="42.97536780126392841339111328125" lon="-2.38761738874018192291259765625">
        <ele>861.20001220703125</ele>
        <time>2022-04-17T10:34:19.000Z</time>
      </trkpt>
      <trkpt lat="42.97536863945424556732177734375" lon="-2.38760523498058319091796875">
        <ele>861.4000244140625</ele>
        <time>2022-04-17T10:34:20.000Z</time>
      </trkpt>
      <trkpt lat="42.97536578960716724395751953125" lon="-2.3875938355922698974609375">
        <ele>861.4000244140625</ele>
        <time>2022-04-17T10:34:21.000Z</time>
      </trkpt>
      <trkpt lat="42.97536478377878665924072265625" lon="-2.38758285529911518096923828125">
        <ele>861.4000244140625</ele>
        <time>2022-04-17T10:34:22.000Z</time>
      </trkpt>
      <trkpt lat="42.975371740758419036865234375" lon="-2.387565337121486663818359375">
        <ele>861.5999755859375</ele>
        <time>2022-04-17T10:34:23.000Z</time>
      </trkpt>
      <trkpt lat="42.97537249512970447540283203125" lon="-2.38754262216389179229736328125">
        <ele>861.5999755859375</ele>
        <time>2022-04-17T10:34:24.000Z</time>
      </trkpt>
      <trkpt lat="42.97536981292068958282470703125" lon="-2.3875282891094684600830078125">
        <ele>861.79998779296875</ele>
        <time>2022-04-17T10:34:25.000Z</time>
      </trkpt>
      <trkpt lat="42.97537148930132389068603515625" lon="-2.3875142075121402740478515625">
        <ele>861.79998779296875</ele>
        <time>2022-04-17T10:34:26.000Z</time>
      </trkpt>
      <trkpt lat="42.97536495141685009002685546875" lon="-2.387501634657382965087890625">
        <ele>861.79998779296875</ele>
        <time>2022-04-17T10:34:27.000Z</time>
      </trkpt>
      <trkpt lat="42.9753584973514080047607421875" lon="-2.3874947614967823028564453125">
        <ele>862</ele>
        <time>2022-04-17T10:34:28.000Z</time>
      </trkpt>
      <trkpt lat="42.97535263001918792724609375" lon="-2.38748445175588130950927734375">
        <ele>862.20001220703125</ele>
        <time>2022-04-17T10:34:29.000Z</time>
      </trkpt>
      <trkpt lat="42.97534751705825328826904296875" lon="-2.38747674040496349334716796875">
        <ele>862.4000244140625</ele>
        <time>2022-04-17T10:34:30.000Z</time>
      </trkpt>
      <trkpt lat="42.97534382902085781097412109375" lon="-2.3874722979962825775146484375">
        <ele>862.4000244140625</ele>
        <time>2022-04-17T10:34:31.000Z</time>
      </trkpt>
      <trkpt lat="42.9753403924405574798583984375" lon="-2.38747053779661655426025390625">
        <ele>862.4000244140625</ele>
        <time>2022-04-17T10:34:32.000Z</time>
      </trkpt>
      <trkpt lat="42.97533779405057430267333984375" lon="-2.38746869377791881561279296875">
        <ele>862.5999755859375</ele>
        <time>2022-04-17T10:34:33.000Z</time>
      </trkpt>
      <trkpt lat="42.97533310018479824066162109375" lon="-2.387464083731174468994140625">
        <ele>862.79998779296875</ele>
        <time>2022-04-17T10:34:34.000Z</time>
      </trkpt>
      <trkpt lat="42.97533075325191020965576171875" lon="-2.38745930604636669158935546875">
        <ele>862.79998779296875</ele>
        <time>2022-04-17T10:34:35.000Z</time>
      </trkpt>
      <trkpt lat="42.97533075325191020965576171875" lon="-2.38745477981865406036376953125">
        <ele>862.79998779296875</ele>
        <time>2022-04-17T10:34:36.000Z</time>
      </trkpt>
      <trkpt lat="42.97532874159514904022216796875" lon="-2.3874489963054656982421875">
        <ele>863</ele>
        <time>2022-04-17T10:34:37.000Z</time>
      </trkpt>
      <trkpt lat="42.9753253050148487091064453125" lon="-2.38744086585938930511474609375">
        <ele>863</ele>
        <time>2022-04-17T10:34:38.000Z</time>
      </trkpt>
      <trkpt lat="42.9753209464251995086669921875" lon="-2.38743223249912261962890625">
        <ele>863</ele>
        <time>2022-04-17T10:34:39.000Z</time>
      </trkpt>
      <trkpt lat="42.975318096578121185302734375" lon="-2.3874317295849323272705078125">
        <ele>863</ele>
        <time>2022-04-17T10:34:40.000Z</time>
      </trkpt>
      <trkpt lat="42.97531566582620143890380859375" lon="-2.3874220065772533416748046875">
        <ele>863.20001220703125</ele>
        <time>2022-04-17T10:34:41.000Z</time>
      </trkpt>
      <trkpt lat="42.975312061607837677001953125" lon="-2.38741119392216205596923828125">
        <ele>863.20001220703125</ele>
        <time>2022-04-17T10:34:42.000Z</time>
      </trkpt>
      <trkpt lat="42.9753092117607593536376953125" lon="-2.38739778287708759307861328125">
        <ele>863.20001220703125</ele>
        <time>2022-04-17T10:34:43.000Z</time>
      </trkpt>
      <trkpt lat="42.975306697189807891845703125" lon="-2.38738805986940860748291015625">
        <ele>863.4000244140625</ele>
        <time>2022-04-17T10:34:44.000Z</time>
      </trkpt>
      <trkpt lat="42.97530166804790496826171875" lon="-2.38737590610980987548828125">
        <ele>863.4000244140625</ele>
        <time>2022-04-17T10:34:45.000Z</time>
      </trkpt>
      <trkpt lat="42.97530233860015869140625" lon="-2.3873629979789257049560546875">
        <ele>863.5999755859375</ele>
        <time>2022-04-17T10:34:46.000Z</time>
      </trkpt>
      <trkpt lat="42.97530376352369785308837890625" lon="-2.38735101185739040374755859375">
        <ele>863.5999755859375</ele>
        <time>2022-04-17T10:34:47.000Z</time>
      </trkpt>
      <trkpt lat="42.9753004945814609527587890625" lon="-2.38734296523034572601318359375">
        <ele>863.79998779296875</ele>
        <time>2022-04-17T10:34:48.000Z</time>
      </trkpt>
      <trkpt lat="42.97529387287795543670654296875" lon="-2.38733592443168163299560546875">
        <ele>864</ele>
        <time>2022-04-17T10:34:49.000Z</time>
      </trkpt>
      <trkpt lat="42.97529370523989200592041015625" lon="-2.3873291350901126861572265625">
        <ele>864</ele>
        <time>2022-04-17T10:34:50.000Z</time>
      </trkpt>
      <trkpt lat="42.975293286144733428955078125" lon="-2.38731245510280132293701171875">
        <ele>864</ele>
        <time>2022-04-17T10:34:51.000Z</time>
      </trkpt>
      <trkpt lat="42.97528825700283050537109375" lon="-2.387299127876758575439453125">
        <ele>864.20001220703125</ele>
        <time>2022-04-17T10:34:52.000Z</time>
      </trkpt>
      <trkpt lat="42.97528113238513469696044921875" lon="-2.3872805200517177581787109375">
        <ele>864.20001220703125</ele>
        <time>2022-04-17T10:34:53.000Z</time>
      </trkpt>
      <trkpt lat="42.97527157701551914215087890625" lon="-2.38726451061666011810302734375">
        <ele>864.20001220703125</ele>
        <time>2022-04-17T10:34:54.000Z</time>
      </trkpt>
      <trkpt lat="42.97526554204523563385009765625" lon="-2.3872570507228374481201171875">
        <ele>864.20001220703125</ele>
        <time>2022-04-17T10:34:55.000Z</time>
      </trkpt>
      <trkpt lat="42.97525799833238124847412109375" lon="-2.3872543685138225555419921875">
        <ele>864.4000244140625</ele>
        <time>2022-04-17T10:34:56.000Z</time>
      </trkpt>
      <trkpt lat="42.975251376628875732421875" lon="-2.38725185394287109375">
        <ele>864.4000244140625</ele>
        <time>2022-04-17T10:34:57.000Z</time>
      </trkpt>
      <trkpt lat="42.97524391673505306243896484375" lon="-2.3872479982674121856689453125">
        <ele>864.4000244140625</ele>
        <time>2022-04-17T10:34:58.000Z</time>
      </trkpt>
      <trkpt lat="42.9752347804605960845947265625" lon="-2.3872379399836063385009765625">
        <ele>864.4000244140625</ele>
        <time>2022-04-17T10:34:59.000Z</time>
      </trkpt>
      <trkpt lat="42.97523436136543750762939453125" lon="-2.38723165355622768402099609375">
        <ele>864.4000244140625</ele>
        <time>2022-04-17T10:35:00.000Z</time>
      </trkpt>
      <trkpt lat="42.97523369081318378448486328125" lon="-2.3872305639088153839111328125">
        <ele>864.5999755859375</ele>
        <time>2022-04-17T10:35:01.000Z</time>
      </trkpt>
      <trkpt lat="42.97523385845124721527099609375" lon="-2.387229390442371368408203125">
        <ele>864.5999755859375</ele>
        <time>2022-04-17T10:35:02.000Z</time>
      </trkpt>
      <trkpt lat="42.97523553483188152313232421875" lon="-2.38722679205238819122314453125">
        <ele>864.5999755859375</ele>
        <time>2022-04-17T10:35:03.000Z</time>
      </trkpt>
      <trkpt lat="42.975231595337390899658203125" lon="-2.38722461275756359100341796875">
        <ele>864.5999755859375</ele>
        <time>2022-04-17T10:35:04.000Z</time>
      </trkpt>
      <trkpt lat="42.975230924785137176513671875" lon="-2.38722025416791439056396484375">
        <ele>864.79998779296875</ele>
        <time>2022-04-17T10:35:05.000Z</time>
      </trkpt>
      <trkpt lat="42.97523369081318378448486328125" lon="-2.387211620807647705078125">
        <ele>864.79998779296875</ele>
        <time>2022-04-17T10:35:06.000Z</time>
      </trkpt>
      <trkpt lat="42.97523729503154754638671875" lon="-2.387200556695461273193359375">
        <ele>864.79998779296875</ele>
        <time>2022-04-17T10:35:07.000Z</time>
      </trkpt>
      <trkpt lat="42.97523654066026210784912109375" lon="-2.3871923424303531646728515625">
        <ele>865</ele>
        <time>2022-04-17T10:35:08.000Z</time>
      </trkpt>
      <trkpt lat="42.9752339422702789306640625" lon="-2.38718572072684764862060546875">
        <ele>865</ele>
        <time>2022-04-17T10:35:09.000Z</time>
      </trkpt>
      <trkpt lat="42.97523017041385173797607421875" lon="-2.3871812783181667327880859375">
        <ele>865</ele>
        <time>2022-04-17T10:35:10.000Z</time>
      </trkpt>
      <trkpt lat="42.97522631473839282989501953125" lon="-2.3871782608330249786376953125">
        <ele>865.20001220703125</ele>
        <time>2022-04-17T10:35:11.000Z</time>
      </trkpt>
      <trkpt lat="42.97521810047328472137451171875" lon="-2.3871749080717563629150390625">
        <ele>865.20001220703125</ele>
        <time>2022-04-17T10:35:12.000Z</time>
      </trkpt>
      <trkpt lat="42.97521290369331836700439453125" lon="-2.38716669380664825439453125">
        <ele>865.4000244140625</ele>
        <time>2022-04-17T10:35:13.000Z</time>
      </trkpt>
      <trkpt lat="42.97521047294139862060546875" lon="-2.3871591500937938690185546875">
        <ele>865.4000244140625</ele>
        <time>2022-04-17T10:35:14.000Z</time>
      </trkpt>
      <trkpt lat="42.97520502470433712005615234375" lon="-2.387154959142208099365234375">
        <ele>865.4000244140625</ele>
        <time>2022-04-17T10:35:15.000Z</time>
      </trkpt>
      <trkpt lat="42.97520049847662448883056640625" lon="-2.387156300246715545654296875">
        <ele>865.5999755859375</ele>
        <time>2022-04-17T10:35:16.000Z</time>
      </trkpt>
      <trkpt lat="42.97519563697278499603271484375" lon="-2.3871539533138275146484375">
        <ele>865.79998779296875</ele>
        <time>2022-04-17T10:35:17.000Z</time>
      </trkpt>
      <trkpt lat="42.97520033083856105804443359375" lon="-2.3871500976383686065673828125">
        <ele>866</ele>
        <time>2022-04-17T10:35:18.000Z</time>
      </trkpt>
      <trkpt lat="42.97520938329398632049560546875" lon="-2.38714297302067279815673828125">
        <ele>866</ele>
        <time>2022-04-17T10:35:19.000Z</time>
      </trkpt>
      <trkpt lat="42.975220195949077606201171875" lon="-2.3871333338320255279541015625">
        <ele>866</ele>
        <time>2022-04-17T10:35:20.000Z</time>
      </trkpt>
      <trkpt lat="42.9752243869006633758544921875" lon="-2.3871343396604061126708984375">
        <ele>866</ele>
        <time>2022-04-17T10:35:21.000Z</time>
      </trkpt>
      <trkpt lat="42.9752263985574245452880859375" lon="-2.387129478156566619873046875">
        <ele>866.20001220703125</ele>
        <time>2022-04-17T10:35:22.000Z</time>
      </trkpt>
      <trkpt lat="42.97522748820483684539794921875" lon="-2.38712687976658344268798828125">
        <ele>866.4000244140625</ele>
        <time>2022-04-17T10:35:23.000Z</time>
      </trkpt>
      <trkpt lat="42.9752263985574245452880859375" lon="-2.38712151534855365753173828125">
        <ele>866.4000244140625</ele>
        <time>2022-04-17T10:35:24.000Z</time>
      </trkpt>
      <trkpt lat="42.97522866167128086090087890625" lon="-2.38711883313953876495361328125">
        <ele>866.4000244140625</ele>
        <time>2022-04-17T10:35:25.000Z</time>
      </trkpt>
      <trkpt lat="42.9752327688038349151611328125" lon="-2.38710634410381317138671875">
        <ele>866.5999755859375</ele>
        <time>2022-04-17T10:35:26.000Z</time>
      </trkpt>
      <trkpt lat="42.97523419372737407684326171875" lon="-2.38709293305873870849609375">
        <ele>866.5999755859375</ele>
        <time>2022-04-17T10:35:27.000Z</time>
      </trkpt>
      <trkpt lat="42.97523302026093006134033203125" lon="-2.387081868946552276611328125">
        <ele>866.79998779296875</ele>
        <time>2022-04-17T10:35:28.000Z</time>
      </trkpt>
      <trkpt lat="42.975234277546405792236328125" lon="-2.38707222975790500640869140625">
        <ele>866.79998779296875</ele>
        <time>2022-04-17T10:35:29.000Z</time>
      </trkpt>
      <trkpt lat="42.975234948098659515380859375" lon="-2.38705948926508426666259765625">
        <ele>866.79998779296875</ele>
        <time>2022-04-17T10:35:30.000Z</time>
      </trkpt>
      <trkpt lat="42.97523553483188152313232421875" lon="-2.387047670781612396240234375">
        <ele>866.79998779296875</ele>
        <time>2022-04-17T10:35:31.000Z</time>
      </trkpt>
      <trkpt lat="42.975240312516689300537109375" lon="-2.387039959430694580078125">
        <ele>867</ele>
        <time>2022-04-17T10:35:32.000Z</time>
      </trkpt>
      <trkpt lat="42.97524643130600452423095703125" lon="-2.3870354332029819488525390625">
        <ele>867</ele>
        <time>2022-04-17T10:35:33.000Z</time>
      </trkpt>
      <trkpt lat="42.97524265944957733154296875" lon="-2.38702931441366672515869140625">
        <ele>867.20001220703125</ele>
        <time>2022-04-17T10:35:34.000Z</time>
      </trkpt>
      <trkpt lat="42.97523821704089641571044921875" lon="-2.38702562637627124786376953125">
        <ele>867.4000244140625</ele>
        <time>2022-04-17T10:35:35.000Z</time>
      </trkpt>
      <trkpt lat="42.9752354510128498077392578125" lon="-2.387007437646389007568359375">
        <ele>867.4000244140625</ele>
        <time>2022-04-17T10:35:36.000Z</time>
      </trkpt>
      <trkpt lat="42.97523017041385173797607421875" lon="-2.38698539324104785919189453125">
        <ele>867.4000244140625</ele>
        <time>2022-04-17T10:35:37.000Z</time>
      </trkpt>
      <trkpt lat="42.975224219262599945068359375" lon="-2.3869667015969753265380859375">
        <ele>867.5999755859375</ele>
        <time>2022-04-17T10:35:38.000Z</time>
      </trkpt>
      <trkpt lat="42.97522178851068019866943359375" lon="-2.38695790059864521026611328125">
        <ele>867.5999755859375</ele>
        <time>2022-04-17T10:35:39.000Z</time>
      </trkpt>
      <trkpt lat="42.9752166755497455596923828125" lon="-2.38694951869547367095947265625">
        <ele>867.5999755859375</ele>
        <time>2022-04-17T10:35:40.000Z</time>
      </trkpt>
      <trkpt lat="42.97521390952169895172119140625" lon="-2.38694465719163417816162109375">
        <ele>867.79998779296875</ele>
        <time>2022-04-17T10:35:41.000Z</time>
      </trkpt>
      <trkpt lat="42.975214160978794097900390625" lon="-2.3869371972978115081787109375">
        <ele>867.79998779296875</ele>
        <time>2022-04-17T10:35:42.000Z</time>
      </trkpt>
      <trkpt lat="42.9752129875123500823974609375" lon="-2.38692663609981536865234375">
        <ele>868</ele>
        <time>2022-04-17T10:35:43.000Z</time>
      </trkpt>
      <trkpt lat="42.9752143286168575286865234375" lon="-2.3869150690734386444091796875">
        <ele>868</ele>
        <time>2022-04-17T10:35:44.000Z</time>
      </trkpt>
      <trkpt lat="42.97521541826426982879638671875" lon="-2.38690341822803020477294921875">
        <ele>868.20001220703125</ele>
        <time>2022-04-17T10:35:45.000Z</time>
      </trkpt>
      <trkpt lat="42.97521390952169895172119140625" lon="-2.3868915997445583343505859375">
        <ele>868.4000244140625</ele>
        <time>2022-04-17T10:35:46.000Z</time>
      </trkpt>
      <trkpt lat="42.97521072439849376678466796875" lon="-2.3868795298039913177490234375">
        <ele>868.4000244140625</ele>
        <time>2022-04-17T10:35:47.000Z</time>
      </trkpt>
      <trkpt lat="42.97520871274173259735107421875" lon="-2.3868664540350437164306640625">
        <ele>868.4000244140625</ele>
        <time>2022-04-17T10:35:48.000Z</time>
      </trkpt>
      <trkpt lat="42.975208461284637451171875" lon="-2.3868589103221893310546875">
        <ele>868.5999755859375</ele>
        <time>2022-04-17T10:35:49.000Z</time>
      </trkpt>
      <trkpt lat="42.97521055676043033599853515625" lon="-2.3868480138480663299560546875">
        <ele>868.79998779296875</ele>
        <time>2022-04-17T10:35:50.000Z</time>
      </trkpt>
      <trkpt lat="42.975218184292316436767578125" lon="-2.38683217205107212066650390625">
        <ele>868.79998779296875</ele>
        <time>2022-04-17T10:35:51.000Z</time>
      </trkpt>
      <trkpt lat="42.97521977685391902923583984375" lon="-2.3868074454367160797119140625">
        <ele>869</ele>
        <time>2022-04-17T10:35:52.000Z</time>
      </trkpt>
      <trkpt lat="42.97521877102553844451904296875" lon="-2.38679160363972187042236328125">
        <ele>869</ele>
        <time>2022-04-17T10:35:53.000Z</time>
      </trkpt>
      <trkpt lat="42.9752227105200290679931640625" lon="-2.38677416928112506866455078125">
        <ele>869</ele>
        <time>2022-04-17T10:35:54.000Z</time>
      </trkpt>
      <trkpt lat="42.97522514127194881439208984375" lon="-2.3867598362267017364501953125">
        <ele>869</ele>
        <time>2022-04-17T10:35:55.000Z</time>
      </trkpt>
      <trkpt lat="42.9752258956432342529296875" lon="-2.38674885593354701995849609375">
        <ele>869</ele>
        <time>2022-04-17T10:35:56.000Z</time>
      </trkpt>
      <trkpt lat="42.97522681765258312225341796875" lon="-2.38673661835491657257080078125">
        <ele>869.20001220703125</ele>
        <time>2022-04-17T10:35:57.000Z</time>
      </trkpt>
      <trkpt lat="42.97522564418613910675048828125" lon="-2.3867266438901424407958984375">
        <ele>869.20001220703125</ele>
        <time>2022-04-17T10:35:58.000Z</time>
      </trkpt>
      <trkpt lat="42.97522312961518764495849609375" lon="-2.386714406311511993408203125">
        <ele>869.4000244140625</ele>
        <time>2022-04-17T10:35:59.000Z</time>
      </trkpt>
      <trkpt lat="42.975218184292316436767578125" lon="-2.38670267164707183837890625">
        <ele>869.4000244140625</ele>
        <time>2022-04-17T10:36:00.000Z</time>
      </trkpt>
      <trkpt lat="42.9752129875123500823974609375" lon="-2.38668934442102909088134765625">
        <ele>869.5999755859375</ele>
        <time>2022-04-17T10:36:01.000Z</time>
      </trkpt>
      <trkpt lat="42.97521114349365234375" lon="-2.38667786121368408203125">
        <ele>869.79998779296875</ele>
        <time>2022-04-17T10:36:02.000Z</time>
      </trkpt>
      <trkpt lat="42.97520644962787628173828125" lon="-2.3866657912731170654296875">
        <ele>870</ele>
        <time>2022-04-17T10:36:03.000Z</time>
      </trkpt>
      <trkpt lat="42.975202761590480804443359375" lon="-2.3866481892764568328857421875">
        <ele>870.20001220703125</ele>
        <time>2022-04-17T10:36:04.000Z</time>
      </trkpt>
      <trkpt lat="42.97520502470433712005615234375" lon="-2.38662245683372020721435546875">
        <ele>870.20001220703125</ele>
        <time>2022-04-17T10:36:05.000Z</time>
      </trkpt>
      <trkpt lat="42.975207455456256866455078125" lon="-2.38659312017261981964111328125">
        <ele>870.4000244140625</ele>
        <time>2022-04-17T10:36:06.000Z</time>
      </trkpt>
      <trkpt lat="42.97521089203655719757080078125" lon="-2.38658130168914794921875">
        <ele>870.4000244140625</ele>
        <time>2022-04-17T10:36:07.000Z</time>
      </trkpt>
      <trkpt lat="42.97520787455141544342041015625" lon="-2.38656847737729549407958984375">
        <ele>870.5999755859375</ele>
        <time>2022-04-17T10:36:08.000Z</time>
      </trkpt>
      <trkpt lat="42.97520167194306850433349609375" lon="-2.38656445406377315521240234375">
        <ele>870.5999755859375</ele>
        <time>2022-04-17T10:36:09.000Z</time>
      </trkpt>
      <trkpt lat="42.97519974410533905029296875" lon="-2.38656261004507541656494140625">
        <ele>870.79998779296875</ele>
        <time>2022-04-17T10:36:10.000Z</time>
      </trkpt>
      <trkpt lat="42.97519479878246784210205078125" lon="-2.38656328059732913970947265625">
        <ele>870.79998779296875</ele>
        <time>2022-04-17T10:36:11.000Z</time>
      </trkpt>
      <trkpt lat="42.97519329003989696502685546875" lon="-2.3865585029125213623046875">
        <ele>871</ele>
        <time>2022-04-17T10:36:12.000Z</time>
      </trkpt>
      <trkpt lat="42.97518658451735973358154296875" lon="-2.38654919900000095367431640625">
        <ele>871.20001220703125</ele>
        <time>2022-04-17T10:36:13.000Z</time>
      </trkpt>
      <trkpt lat="42.9751811362802982330322265625" lon="-2.38654308021068572998046875">
        <ele>871.4000244140625</ele>
        <time>2022-04-17T10:36:14.000Z</time>
      </trkpt>
      <trkpt lat="42.9751751013100147247314453125" lon="-2.3865388892590999603271484375">
        <ele>871.4000244140625</ele>
        <time>2022-04-17T10:36:15.000Z</time>
      </trkpt>
      <trkpt lat="42.975167892873287200927734375" lon="-2.38653478212654590606689453125">
        <ele>871.5999755859375</ele>
        <time>2022-04-17T10:36:16.000Z</time>
      </trkpt>
      <trkpt lat="42.97516412101686000823974609375" lon="-2.38652774132788181304931640625">
        <ele>871.5999755859375</ele>
        <time>2022-04-17T10:36:17.000Z</time>
      </trkpt>
      <trkpt lat="42.97515808604657649993896484375" lon="-2.386519610881805419921875">
        <ele>871.79998779296875</ele>
        <time>2022-04-17T10:36:18.000Z</time>
      </trkpt>
      <trkpt lat="42.97515414655208587646484375" lon="-2.38651357591152191162109375">
        <ele>872</ele>
        <time>2022-04-17T10:36:19.000Z</time>
      </trkpt>
      <trkpt lat="42.975155152380466461181640625" lon="-2.38650946877896785736083984375">
        <ele>872.20001220703125</ele>
        <time>2022-04-17T10:36:20.000Z</time>
      </trkpt>
      <trkpt lat="42.97515305690467357635498046875" lon="-2.3865056969225406646728515625">
        <ele>872.20001220703125</ele>
        <time>2022-04-17T10:36:21.000Z</time>
      </trkpt>
      <trkpt lat="42.975143752992153167724609375" lon="-2.3865048587322235107421875">
        <ele>872.4000244140625</ele>
        <time>2022-04-17T10:36:22.000Z</time>
      </trkpt>
      <trkpt lat="42.97512992285192012786865234375" lon="-2.386504523456096649169921875">
        <ele>872.4000244140625</ele>
        <time>2022-04-17T10:36:23.000Z</time>
      </trkpt>
      <trkpt lat="42.97511659562587738037109375" lon="-2.38650008104741573333740234375">
        <ele>872.5999755859375</ele>
        <time>2022-04-17T10:36:24.000Z</time>
      </trkpt>
      <trkpt lat="42.9751056991517543792724609375" lon="-2.386489100754261016845703125">
        <ele>872.5999755859375</ele>
        <time>2022-04-17T10:36:25.000Z</time>
      </trkpt>
      <trkpt lat="42.97509849071502685546875" lon="-2.38648700527846813201904296875">
        <ele>872.5999755859375</ele>
        <time>2022-04-17T10:36:26.000Z</time>
      </trkpt>
      <trkpt lat="42.975093461573123931884765625" lon="-2.3864795453846454620361328125">
        <ele>872.79998779296875</ele>
        <time>2022-04-17T10:36:27.000Z</time>
      </trkpt>
      <trkpt lat="42.9750902764499187469482421875" lon="-2.3864694871008396148681640625">
        <ele>872.79998779296875</ele>
        <time>2022-04-17T10:36:28.000Z</time>
      </trkpt>
      <trkpt lat="42.975091449916362762451171875" lon="-2.3864584229886531829833984375">
        <ele>872.79998779296875</ele>
        <time>2022-04-17T10:36:29.000Z</time>
      </trkpt>
      <trkpt lat="42.97508834861218929290771484375" lon="-2.3864458501338958740234375">
        <ele>872.79998779296875</ele>
        <time>2022-04-17T10:36:30.000Z</time>
      </trkpt>
      <trkpt lat="42.97508164308965206146240234375" lon="-2.386442832648754119873046875">
        <ele>873</ele>
        <time>2022-04-17T10:36:31.000Z</time>
      </trkpt>
      <trkpt lat="42.975072674453258514404296875" lon="-2.3864383064210414886474609375">
        <ele>873</ele>
        <time>2022-04-17T10:36:32.000Z</time>
      </trkpt>
      <trkpt lat="42.97506831586360931396484375" lon="-2.386427409946918487548828125">
        <ele>873.20001220703125</ele>
        <time>2022-04-17T10:36:33.000Z</time>
      </trkpt>
      <trkpt lat="42.97507233917713165283203125" lon="-2.38641642965376377105712890625">
        <ele>873.4000244140625</ele>
        <time>2022-04-17T10:36:34.000Z</time>
      </trkpt>
      <trkpt lat="42.97507158480584621429443359375" lon="-2.38640653900802135467529296875">
        <ele>873.4000244140625</ele>
        <time>2022-04-17T10:36:35.000Z</time>
      </trkpt>
      <trkpt lat="42.9750691540539264678955078125" lon="-2.38639421761035919189453125">
        <ele>873.79998779296875</ele>
        <time>2022-04-17T10:36:36.000Z</time>
      </trkpt>
      <trkpt lat="42.97506739385426044464111328125" lon="-2.38638776354491710662841796875">
        <ele>874</ele>
        <time>2022-04-17T10:36:37.000Z</time>
      </trkpt>
      <trkpt lat="42.97505917958915233612060546875" lon="-2.38637837581336498260498046875">
        <ele>874</ele>
        <time>2022-04-17T10:36:38.000Z</time>
      </trkpt>
      <trkpt lat="42.97505230642855167388916015625" lon="-2.38636345602571964263916015625">
        <ele>874.20001220703125</ele>
        <time>2022-04-17T10:36:39.000Z</time>
      </trkpt>
      <trkpt lat="42.975042164325714111328125" lon="-2.38635155372321605682373046875">
        <ele>874.20001220703125</ele>
        <time>2022-04-17T10:36:40.000Z</time>
      </trkpt>
      <trkpt lat="42.9750332795083522796630859375" lon="-2.38634920679032802581787109375">
        <ele>874.4000244140625</ele>
        <time>2022-04-17T10:36:41.000Z</time>
      </trkpt>
      <trkpt lat="42.97502565197646617889404296875" lon="-2.386348284780979156494140625">
        <ele>874.4000244140625</ele>
        <time>2022-04-17T10:36:42.000Z</time>
      </trkpt>
      <trkpt lat="42.97502514906227588653564453125" lon="-2.38634996116161346435546875">
        <ele>874.5999755859375</ele>
        <time>2022-04-17T10:36:43.000Z</time>
      </trkpt>
      <trkpt lat="42.97502581961452960968017578125" lon="-2.38633998669683933258056640625">
        <ele>874.79998779296875</ele>
        <time>2022-04-17T10:36:44.000Z</time>
      </trkpt>
      <trkpt lat="42.97501869499683380126953125" lon="-2.38632607273757457733154296875">
        <ele>874.79998779296875</ele>
        <time>2022-04-17T10:36:45.000Z</time>
      </trkpt>
      <trkpt lat="42.9750215448439121246337890625" lon="-2.38631911575794219970703125">
        <ele>874.79998779296875</ele>
        <time>2022-04-17T10:36:46.000Z</time>
      </trkpt>
      <trkpt lat="42.9750205390155315399169921875" lon="-2.3863135837018489837646484375">
        <ele>875</ele>
        <time>2022-04-17T10:36:47.000Z</time>
      </trkpt>
      <trkpt lat="42.97501240856945514678955078125" lon="-2.3863102309405803680419921875">
        <ele>875</ele>
        <time>2022-04-17T10:36:48.000Z</time>
      </trkpt>
      <trkpt lat="42.9750064574182033538818359375" lon="-2.38631375133991241455078125">
        <ele>875.20001220703125</ele>
        <time>2022-04-17T10:36:49.000Z</time>
      </trkpt>
      <trkpt lat="42.975010313093662261962890625" lon="-2.3863159306347370147705078125">
        <ele>875.20001220703125</ele>
        <time>2022-04-17T10:36:50.000Z</time>
      </trkpt>
      <trkpt lat="42.97500503249466419219970703125" lon="-2.38631241023540496826171875">
        <ele>875.4000244140625</ele>
        <time>2022-04-17T10:36:51.000Z</time>
      </trkpt>
      <trkpt lat="42.97499681822955608367919921875" lon="-2.38630930893123149871826171875">
        <ele>875.4000244140625</ele>
        <time>2022-04-17T10:36:52.000Z</time>
      </trkpt>
      <trkpt lat="42.974990867078304290771484375" lon="-2.3863072134554386138916015625">
        <ele>875.5999755859375</ele>
        <time>2022-04-17T10:36:53.000Z</time>
      </trkpt>
      <trkpt lat="42.97498592175543308258056640625" lon="-2.3863021843135356903076171875">
        <ele>875.5999755859375</ele>
        <time>2022-04-17T10:36:54.000Z</time>
      </trkpt>
      <trkpt lat="42.9749829880893230438232421875" lon="-2.38629925064742565155029296875">
        <ele>875.79998779296875</ele>
        <time>2022-04-17T10:36:55.000Z</time>
      </trkpt>
      <trkpt lat="42.9749844968318939208984375" lon="-2.3862995021045207977294921875">
        <ele>875.79998779296875</ele>
        <time>2022-04-17T10:36:56.000Z</time>
      </trkpt>
      <trkpt lat="42.9749839939177036285400390625" lon="-2.38628558814525604248046875">
        <ele>876</ele>
        <time>2022-04-17T10:36:57.000Z</time>
      </trkpt>
      <trkpt lat="42.97498089261353015899658203125" lon="-2.38626681268215179443359375">
        <ele>876</ele>
        <time>2022-04-17T10:36:58.000Z</time>
      </trkpt>
      <trkpt lat="42.9749829880893230438232421875" lon="-2.38626169972121715545654296875">
        <ele>876.20001220703125</ele>
        <time>2022-04-17T10:36:59.000Z</time>
      </trkpt>
      <trkpt lat="42.97498474828898906707763671875" lon="-2.38625180907547473907470703125">
        <ele>876.20001220703125</ele>
        <time>2022-04-17T10:37:00.000Z</time>
      </trkpt>
      <trkpt lat="42.9749858379364013671875" lon="-2.38624728284776210784912109375">
        <ele>876.4000244140625</ele>
        <time>2022-04-17T10:37:01.000Z</time>
      </trkpt>
      <trkpt lat="42.97498273663222789764404296875" lon="-2.38624661229550838470458984375">
        <ele>876.4000244140625</ele>
        <time>2022-04-17T10:37:02.000Z</time>
      </trkpt>
      <trkpt lat="42.97497284598648548126220703125" lon="-2.3862478695809841156005859375">
        <ele>876.5999755859375</ele>
        <time>2022-04-17T10:37:03.000Z</time>
      </trkpt>
      <trkpt lat="42.974960021674633026123046875" lon="-2.3862414993345737457275390625">
        <ele>876.5999755859375</ele>
        <time>2022-04-17T10:37:04.000Z</time>
      </trkpt>
      <trkpt lat="42.97495407052338123321533203125" lon="-2.386237643659114837646484375">
        <ele>876.79998779296875</ele>
        <time>2022-04-17T10:37:05.000Z</time>
      </trkpt>
      <trkpt lat="42.9749474488198757171630859375" lon="-2.38622934557497501373291015625">
        <ele>876.79998779296875</ele>
        <time>2022-04-17T10:37:06.000Z</time>
      </trkpt>
      <trkpt lat="42.97494585625827312469482421875" lon="-2.38622867502272129058837890625">
        <ele>877</ele>
        <time>2022-04-17T10:37:07.000Z</time>
      </trkpt>
      <trkpt lat="42.97494283877313137054443359375" lon="-2.38623328506946563720703125">
        <ele>877.20001220703125</ele>
        <time>2022-04-17T10:37:08.000Z</time>
      </trkpt>
      <trkpt lat="42.97493848018348217010498046875" lon="-2.38623060286045074462890625">
        <ele>877.20001220703125</ele>
        <time>2022-04-17T10:37:09.000Z</time>
      </trkpt>
      <trkpt lat="42.974934540688991546630859375" lon="-2.3862244002521038055419921875">
        <ele>877.20001220703125</ele>
        <time>2022-04-17T10:37:10.000Z</time>
      </trkpt>
      <trkpt lat="42.97492607496678829193115234375" lon="-2.386213503777980804443359375">
        <ele>877.4000244140625</ele>
        <time>2022-04-17T10:37:11.000Z</time>
      </trkpt>
      <trkpt lat="42.97492339275777339935302734375" lon="-2.38620520569384098052978515625">
        <ele>877.4000244140625</ele>
        <time>2022-04-17T10:37:12.000Z</time>
      </trkpt>
      <trkpt lat="42.97492439858615398406982421875" lon="-2.38619933836162090301513671875">
        <ele>877.4000244140625</ele>
        <time>2022-04-17T10:37:13.000Z</time>
      </trkpt>
      <trkpt lat="42.9749212972819805145263671875" lon="-2.38618324510753154754638671875">
        <ele>877.5999755859375</ele>
        <time>2022-04-17T10:37:14.000Z</time>
      </trkpt>
      <trkpt lat="42.97491651959717273712158203125" lon="-2.386170588433742523193359375">
        <ele>877.5999755859375</ele>
        <time>2022-04-17T10:37:15.000Z</time>
      </trkpt>
      <trkpt lat="42.97491383738815784454345703125" lon="-2.3861576803028583526611328125">
        <ele>877.5999755859375</ele>
        <time>2022-04-17T10:37:16.000Z</time>
      </trkpt>
      <trkpt lat="42.9749112389981746673583984375" lon="-2.386149801313877105712890625">
        <ele>877.79998779296875</ele>
        <time>2022-04-17T10:37:17.000Z</time>
      </trkpt>
      <trkpt lat="42.97490847297012805938720703125" lon="-2.386142425239086151123046875">
        <ele>878</ele>
        <time>2022-04-17T10:37:18.000Z</time>
      </trkpt>
      <trkpt lat="42.97490528784692287445068359375" lon="-2.38613395951688289642333984375">
        <ele>878.20001220703125</ele>
        <time>2022-04-17T10:37:19.000Z</time>
      </trkpt>
      <trkpt lat="42.97490411438047885894775390625" lon="-2.3861271701753139495849609375">
        <ele>878.20001220703125</ele>
        <time>2022-04-17T10:37:20.000Z</time>
      </trkpt>
      <trkpt lat="42.974904365837574005126953125" lon="-2.38611769862473011016845703125">
        <ele>878.20001220703125</ele>
        <time>2022-04-17T10:37:21.000Z</time>
      </trkpt>
      <trkpt lat="42.9749045334756374359130859375" lon="-2.3861110769212245941162109375">
        <ele>878.4000244140625</ele>
        <time>2022-04-17T10:37:22.000Z</time>
      </trkpt>
      <trkpt lat="42.97490444965660572052001953125" lon="-2.3861030302941799163818359375">
        <ele>878.4000244140625</ele>
        <time>2022-04-17T10:37:23.000Z</time>
      </trkpt>
      <trkpt lat="42.97489992342889308929443359375" lon="-2.38609246909618377685546875">
        <ele>878.5999755859375</ele>
        <time>2022-04-17T10:37:24.000Z</time>
      </trkpt>
      <trkpt lat="42.97489891760051250457763671875" lon="-2.38608484156429767608642578125">
        <ele>878.79998779296875</ele>
        <time>2022-04-17T10:37:25.000Z</time>
      </trkpt>
      <trkpt lat="42.97489640302956104278564453125" lon="-2.38607813604176044464111328125">
        <ele>879</ele>
        <time>2022-04-17T10:37:26.000Z</time>
      </trkpt>
      <trkpt lat="42.97489129006862640380859375" lon="-2.386068999767303466796875">
        <ele>879</ele>
        <time>2022-04-17T10:37:27.000Z</time>
      </trkpt>
      <trkpt lat="42.97488248907029628753662109375" lon="-2.38605625927448272705078125">
        <ele>879.20001220703125</ele>
        <time>2022-04-17T10:37:28.000Z</time>
      </trkpt>
      <trkpt lat="42.97487494535744190216064453125" lon="-2.3860467039048671722412109375">
        <ele>879.20001220703125</ele>
        <time>2022-04-17T10:37:29.000Z</time>
      </trkpt>
      <trkpt lat="42.9748664796352386474609375" lon="-2.38603455014526844024658203125">
        <ele>879.4000244140625</ele>
        <time>2022-04-17T10:37:30.000Z</time>
      </trkpt>
      <trkpt lat="42.97486438415944576263427734375" lon="-2.3860148526728153228759765625">
        <ele>879.5999755859375</ele>
        <time>2022-04-17T10:37:31.000Z</time>
      </trkpt>
      <trkpt lat="42.97486505471169948577880859375" lon="-2.3860001005232334136962890625">
        <ele>879.5999755859375</ele>
        <time>2022-04-17T10:37:32.000Z</time>
      </trkpt>
      <trkpt lat="42.974857427179813385009765625" lon="-2.385982163250446319580078125">
        <ele>879.79998779296875</ele>
        <time>2022-04-17T10:37:33.000Z</time>
      </trkpt>
      <trkpt lat="42.974852733314037322998046875" lon="-2.3859709315001964569091796875">
        <ele>879.79998779296875</ele>
        <time>2022-04-17T10:37:34.000Z</time>
      </trkpt>
      <trkpt lat="42.97484703361988067626953125" lon="-2.38595291040837764739990234375">
        <ele>879.79998779296875</ele>
        <time>2022-04-17T10:37:35.000Z</time>
      </trkpt>
      <trkpt lat="42.97484376467764377593994140625" lon="-2.38593690097332000732421875">
        <ele>880</ele>
        <time>2022-04-17T10:37:36.000Z</time>
      </trkpt>
      <trkpt lat="42.974841333925724029541015625" lon="-2.38591401837766170501708984375">
        <ele>880</ele>
        <time>2022-04-17T10:37:37.000Z</time>
      </trkpt>
      <trkpt lat="42.9748378135263919830322265625" lon="-2.3858975060284137725830078125">
        <ele>880</ele>
        <time>2022-04-17T10:37:38.000Z</time>
      </trkpt>
      <trkpt lat="42.974833287298679351806640625" lon="-2.385888956487178802490234375">
        <ele>880.20001220703125</ele>
        <time>2022-04-17T10:37:39.000Z</time>
      </trkpt>
      <trkpt lat="42.974829934537410736083984375" lon="-2.385877557098865509033203125">
        <ele>880.4000244140625</ele>
        <time>2022-04-17T10:37:40.000Z</time>
      </trkpt>
      <trkpt lat="42.97482230700552463531494140625" lon="-2.385865487158298492431640625">
        <ele>880.5999755859375</ele>
        <time>2022-04-17T10:37:41.000Z</time>
      </trkpt>
      <trkpt lat="42.97480705194175243377685546875" lon="-2.385848052799701690673828125">
        <ele>880.5999755859375</ele>
        <time>2022-04-17T10:37:42.000Z</time>
      </trkpt>
      <trkpt lat="42.974794395267963409423828125" lon="-2.385838329792022705078125">
        <ele>880.79998779296875</ele>
        <time>2022-04-17T10:37:43.000Z</time>
      </trkpt>
      <trkpt lat="42.97479464672505855560302734375" lon="-2.38583506084978580474853515625">
        <ele>881</ele>
        <time>2022-04-17T10:37:44.000Z</time>
      </trkpt>
      <trkpt lat="42.9747948981821537017822265625" lon="-2.38582366146147251129150390625">
        <ele>881.20001220703125</ele>
        <time>2022-04-17T10:37:45.000Z</time>
      </trkpt>
      <trkpt lat="42.9747915454208850860595703125" lon="-2.38580823875963687896728515625">
        <ele>881.20001220703125</ele>
        <time>2022-04-17T10:37:46.000Z</time>
      </trkpt>
      <trkpt lat="42.9747895337641239166259765625" lon="-2.3857985995709896087646484375">
        <ele>881.4000244140625</ele>
        <time>2022-04-17T10:37:47.000Z</time>
      </trkpt>
      <trkpt lat="42.97478693537414073944091796875" lon="-2.3857912234961986541748046875">
        <ele>881.5999755859375</ele>
        <time>2022-04-17T10:37:48.000Z</time>
      </trkpt>
      <trkpt lat="42.97478106804192066192626953125" lon="-2.38578108139336109161376953125">
        <ele>881.79998779296875</ele>
        <time>2022-04-17T10:37:49.000Z</time>
      </trkpt>
      <trkpt lat="42.97477687709033489227294921875" lon="-2.38577538169920444488525390625">
        <ele>881.79998779296875</ele>
        <time>2022-04-17T10:37:50.000Z</time>
      </trkpt>
      <trkpt lat="42.974771596491336822509765625" lon="-2.3857721127569675445556640625">
        <ele>881.79998779296875</ele>
        <time>2022-04-17T10:37:51.000Z</time>
      </trkpt>
      <trkpt lat="42.97476648353040218353271484375" lon="-2.3857613839209079742431640625">
        <ele>882</ele>
        <time>2022-04-17T10:37:52.000Z</time>
      </trkpt>
      <trkpt lat="42.9747617058455944061279296875" lon="-2.38574788905680179595947265625">
        <ele>882</ele>
        <time>2022-04-17T10:37:53.000Z</time>
      </trkpt>
      <trkpt lat="42.974756173789501190185546875" lon="-2.38573280163109302520751953125">
        <ele>882</ele>
        <time>2022-04-17T10:37:54.000Z</time>
      </trkpt>
      <trkpt lat="42.97474318183958530426025390625" lon="-2.38571788184344768524169921875">
        <ele>882.20001220703125</ele>
        <time>2022-04-17T10:37:55.000Z</time>
      </trkpt>
      <trkpt lat="42.9747335426509380340576171875" lon="-2.38570866174995899200439453125">
        <ele>882.20001220703125</ele>
        <time>2022-04-17T10:37:56.000Z</time>
      </trkpt>
      <trkpt lat="42.97472901642322540283203125" lon="-2.38570296205580234527587890625">
        <ele>882.20001220703125</ele>
        <time>2022-04-17T10:37:57.000Z</time>
      </trkpt>
      <trkpt lat="42.97472893260419368743896484375" lon="-2.38569625653326511383056640625">
        <ele>882.4000244140625</ele>
        <time>2022-04-17T10:37:58.000Z</time>
      </trkpt>
      <trkpt lat="42.97473706305027008056640625" lon="-2.38569575361907482147216796875">
        <ele>882.4000244140625</ele>
        <time>2022-04-17T10:37:59.000Z</time>
      </trkpt>
      <trkpt lat="42.97473580576479434967041015625" lon="-2.38569474779069423675537109375">
        <ele>882.4000244140625</ele>
        <time>2022-04-17T10:38:00.000Z</time>
      </trkpt>
      <trkpt lat="42.97473228536546230316162109375" lon="-2.385694496333599090576171875">
        <ele>882.5999755859375</ele>
        <time>2022-04-17T10:38:01.000Z</time>
      </trkpt>
      <trkpt lat="42.97473169863224029541015625" lon="-2.385693155229091644287109375">
        <ele>882.79998779296875</ele>
        <time>2022-04-17T10:38:02.000Z</time>
      </trkpt>
      <trkpt lat="42.97472742386162281036376953125" lon="-2.38568435423076152801513671875">
        <ele>882.79998779296875</ele>
        <time>2022-04-17T10:38:03.000Z</time>
      </trkpt>
      <trkpt lat="42.9747208021581172943115234375" lon="-2.38567815162241458892822265625">
        <ele>882.79998779296875</ele>
        <time>2022-04-17T10:38:04.000Z</time>
      </trkpt>
      <trkpt lat="42.97471350990235805511474609375" lon="-2.3856735415756702423095703125">
        <ele>883</ele>
        <time>2022-04-17T10:38:05.000Z</time>
      </trkpt>
      <trkpt lat="42.97470529563724994659423828125" lon="-2.385668344795703887939453125">
        <ele>883</ele>
        <time>2022-04-17T10:38:06.000Z</time>
      </trkpt>
      <trkpt lat="42.97469993121922016143798828125" lon="-2.3856631480157375335693359375">
        <ele>883.20001220703125</ele>
        <time>2022-04-17T10:38:07.000Z</time>
      </trkpt>
      <trkpt lat="42.97469859011471271514892578125" lon="-2.3856584541499614715576171875">
        <ele>883.20001220703125</ele>
        <time>2022-04-17T10:38:08.000Z</time>
      </trkpt>
      <trkpt lat="42.97469641081988811492919921875" lon="-2.38565300591289997100830078125">
        <ele>883.4000244140625</ele>
        <time>2022-04-17T10:38:09.000Z</time>
      </trkpt>
      <trkpt lat="42.9746886156499385833740234375" lon="-2.385643534362316131591796875">
        <ele>883.4000244140625</ele>
        <time>2022-04-17T10:38:10.000Z</time>
      </trkpt>
      <trkpt lat="42.97468031756579875946044921875" lon="-2.385634146630764007568359375">
        <ele>883.5999755859375</ele>
        <time>2022-04-17T10:38:11.000Z</time>
      </trkpt>
      <trkpt lat="42.97467595897614955902099609375" lon="-2.38562450744211673736572265625">
        <ele>883.79998779296875</ele>
        <time>2022-04-17T10:38:12.000Z</time>
      </trkpt>
      <trkpt lat="42.9746688343584537506103515625" lon="-2.38560833036899566650390625">
        <ele>883.79998779296875</ele>
        <time>2022-04-17T10:38:13.000Z</time>
      </trkpt>
      <trkpt lat="42.97466238029301166534423828125" lon="-2.3855944164097309112548828125">
        <ele>883.79998779296875</ele>
        <time>2022-04-17T10:38:14.000Z</time>
      </trkpt>
      <trkpt lat="42.974667660892009735107421875" lon="-2.38558243028819561004638671875">
        <ele>884</ele>
        <time>2022-04-17T10:38:15.000Z</time>
      </trkpt>
      <trkpt lat="42.974675036966800689697265625" lon="-2.38557522185146808624267578125">
        <ele>884</ele>
        <time>2022-04-17T10:38:16.000Z</time>
      </trkpt>
      <trkpt lat="42.97467512078583240509033203125" lon="-2.38556348718702793121337890625">
        <ele>884</ele>
        <time>2022-04-17T10:38:17.000Z</time>
      </trkpt>
      <trkpt lat="42.97467344440519809722900390625" lon="-2.385557703673839569091796875">
        <ele>884.20001220703125</ele>
        <time>2022-04-17T10:38:18.000Z</time>
      </trkpt>
      <trkpt lat="42.9746684990823268890380859375" lon="-2.38555141724646091461181640625">
        <ele>884.20001220703125</ele>
        <time>2022-04-17T10:38:19.000Z</time>
      </trkpt>
      <trkpt lat="42.97466590069234371185302734375" lon="-2.38554873503744602203369140625">
        <ele>884.4000244140625</ele>
        <time>2022-04-17T10:38:20.000Z</time>
      </trkpt>
      <trkpt lat="42.97466254793107509613037109375" lon="-2.38554303534328937530517578125">
        <ele>884.4000244140625</ele>
        <time>2022-04-17T10:38:21.000Z</time>
      </trkpt>
      <trkpt lat="42.97465567477047443389892578125" lon="-2.385534234344959259033203125">
        <ele>884.5999755859375</ele>
        <time>2022-04-17T10:38:22.000Z</time>
      </trkpt>
      <trkpt lat="42.9746503941714763641357421875" lon="-2.38553063012659549713134765625">
        <ele>884.5999755859375</ele>
        <time>2022-04-17T10:38:23.000Z</time>
      </trkpt>
      <trkpt lat="42.974650226533412933349609375" lon="-2.38552208058536052703857421875">
        <ele>884.79998779296875</ele>
        <time>2022-04-17T10:38:24.000Z</time>
      </trkpt>
      <trkpt lat="42.97465081326663494110107421875" lon="-2.385512106120586395263671875">
        <ele>885</ele>
        <time>2022-04-17T10:38:25.000Z</time>
      </trkpt>
      <trkpt lat="42.97464192844927310943603515625" lon="-2.385504059493541717529296875">
        <ele>885.20001220703125</ele>
        <time>2022-04-17T10:38:26.000Z</time>
      </trkpt>
      <trkpt lat="42.97463522292673587799072265625" lon="-2.385497353971004486083984375">
        <ele>885.4000244140625</ele>
        <time>2022-04-17T10:38:27.000Z</time>
      </trkpt>
      <trkpt lat="42.97463245689868927001953125" lon="-2.3854883015155792236328125">
        <ele>885.4000244140625</ele>
        <time>2022-04-17T10:38:28.000Z</time>
      </trkpt>
      <trkpt lat="42.974629104137420654296875" lon="-2.38548134453594684600830078125">
        <ele>885.5999755859375</ele>
        <time>2022-04-17T10:38:29.000Z</time>
      </trkpt>
      <trkpt lat="42.9746255837380886077880859375" lon="-2.38547463901340961456298828125">
        <ele>885.5999755859375</ele>
        <time>2022-04-17T10:38:30.000Z</time>
      </trkpt>
      <trkpt lat="42.97462441027164459228515625" lon="-2.38546743057668209075927734375">
        <ele>885.5999755859375</ele>
        <time>2022-04-17T10:38:31.000Z</time>
      </trkpt>
      <trkpt lat="42.97462281771004199981689453125" lon="-2.38546349108219146728515625">
        <ele>885.79998779296875</ele>
        <time>2022-04-17T10:38:32.000Z</time>
      </trkpt>
      <trkpt lat="42.9746178723871707916259765625" lon="-2.38545686937868595123291015625">
        <ele>885.79998779296875</ele>
        <time>2022-04-17T10:38:33.000Z</time>
      </trkpt>
      <trkpt lat="42.97461477108299732208251953125" lon="-2.38544865511357784271240234375">
        <ele>886</ele>
        <time>2022-04-17T10:38:34.000Z</time>
      </trkpt>
      <trkpt lat="42.97461376525461673736572265625" lon="-2.3854425363242626190185546875">
        <ele>886</ele>
        <time>2022-04-17T10:38:35.000Z</time>
      </trkpt>
      <trkpt lat="42.97461225651204586029052734375" lon="-2.38543658517301082611083984375">
        <ele>886.20001220703125</ele>
        <time>2022-04-17T10:38:36.000Z</time>
      </trkpt>
      <trkpt lat="42.97461007721722126007080078125" lon="-2.38542535342276096343994140625">
        <ele>886.4000244140625</ele>
        <time>2022-04-17T10:38:37.000Z</time>
      </trkpt>
      <trkpt lat="42.974609993398189544677734375" lon="-2.3854163847863674163818359375">
        <ele>886.4000244140625</ele>
        <time>2022-04-17T10:38:38.000Z</time>
      </trkpt>
      <trkpt lat="42.97460773028433322906494140625" lon="-2.38539819605648517608642578125">
        <ele>886.5999755859375</ele>
        <time>2022-04-17T10:38:39.000Z</time>
      </trkpt>
      <trkpt lat="42.9746011085808277130126953125" lon="-2.3853892274200916290283203125">
        <ele>886.5999755859375</ele>
        <time>2022-04-17T10:38:40.000Z</time>
      </trkpt>
      <trkpt lat="42.97459498979151248931884765625" lon="-2.38537774421274662017822265625">
        <ele>886.79998779296875</ele>
        <time>2022-04-17T10:38:41.000Z</time>
      </trkpt>
      <trkpt lat="42.97459356486797332763671875" lon="-2.38536559045314788818359375">
        <ele>887</ele>
        <time>2022-04-17T10:38:42.000Z</time>
      </trkpt>
      <trkpt lat="42.9745954088866710662841796875" lon="-2.3853553645312786102294921875">
        <ele>887</ele>
        <time>2022-04-17T10:38:43.000Z</time>
      </trkpt>
      <trkpt lat="42.97459448687732219696044921875" lon="-2.38533818162977695465087890625">
        <ele>887.20001220703125</ele>
        <time>2022-04-17T10:38:44.000Z</time>
      </trkpt>
      <trkpt lat="42.97459012828767299652099609375" lon="-2.3853206634521484375">
        <ele>887.4000244140625</ele>
        <time>2022-04-17T10:38:45.000Z</time>
      </trkpt>
      <trkpt lat="42.974587865173816680908203125" lon="-2.38530515693128108978271484375">
        <ele>887.5999755859375</ele>
        <time>2022-04-17T10:38:46.000Z</time>
      </trkpt>
      <trkpt lat="42.9745860211551189422607421875" lon="-2.38530264236032962799072265625">
        <ele>887.5999755859375</ele>
        <time>2022-04-17T10:38:47.000Z</time>
      </trkpt>
      <trkpt lat="42.97458912245929241180419921875" lon="-2.38530230708420276641845703125">
        <ele>887.5999755859375</ele>
        <time>2022-04-17T10:38:48.000Z</time>
      </trkpt>
      <trkpt lat="42.9745917208492755889892578125" lon="-2.3852997086942195892333984375">
        <ele>887.79998779296875</ele>
        <time>2022-04-17T10:38:49.000Z</time>
      </trkpt>
      <trkpt lat="42.97459046356379985809326171875" lon="-2.38529358990490436553955078125">
        <ele>888</ele>
        <time>2022-04-17T10:38:50.000Z</time>
      </trkpt>
      <trkpt lat="42.97458912245929241180419921875" lon="-2.385288141667842864990234375">
        <ele>888</ele>
        <time>2022-04-17T10:38:51.000Z</time>
      </trkpt>
      <trkpt lat="42.97458727844059467315673828125" lon="-2.38528051413595676422119140625">
        <ele>888</ele>
        <time>2022-04-17T10:38:52.000Z</time>
      </trkpt>
      <trkpt lat="42.97458526678383350372314453125" lon="-2.3852702043950557708740234375">
        <ele>888.20001220703125</ele>
        <time>2022-04-17T10:38:53.000Z</time>
      </trkpt>
      <trkpt lat="42.9745821654796600341796875" lon="-2.38526442088186740875244140625">
        <ele>888.20001220703125</ele>
        <time>2022-04-17T10:38:54.000Z</time>
      </trkpt>
      <trkpt lat="42.97457881271839141845703125" lon="-2.38525771535933017730712890625">
        <ele>888.4000244140625</ele>
        <time>2022-04-17T10:38:55.000Z</time>
      </trkpt>
      <trkpt lat="42.97457881271839141845703125" lon="-2.38525352440774440765380859375">
        <ele>888.4000244140625</ele>
        <time>2022-04-17T10:38:56.000Z</time>
      </trkpt>
      <trkpt lat="42.974580824375152587890625" lon="-2.38524648360908031463623046875">
        <ele>888.4000244140625</ele>
        <time>2022-04-17T10:38:57.000Z</time>
      </trkpt>
      <trkpt lat="42.97458023764193058013916015625" lon="-2.385237179696559906005859375">
        <ele>888.4000244140625</ele>
        <time>2022-04-17T10:38:58.000Z</time>
      </trkpt>
      <trkpt lat="42.97458057291805744171142578125" lon="-2.3852249421179294586181640625">
        <ele>888.4000244140625</ele>
        <time>2022-04-17T10:38:59.000Z</time>
      </trkpt>
      <trkpt lat="42.97457839362323284149169921875" lon="-2.3852175660431385040283203125">
        <ele>888.5999755859375</ele>
        <time>2022-04-17T10:39:00.000Z</time>
      </trkpt>
      <trkpt lat="42.9745781421661376953125" lon="-2.3852172307670116424560546875">
        <ele>888.5999755859375</ele>
        <time>2022-04-17T10:39:01.000Z</time>
      </trkpt>
      <trkpt lat="42.9745789803564548492431640625" lon="-2.38521002233028411865234375">
        <ele>888.5999755859375</ele>
        <time>2022-04-17T10:39:02.000Z</time>
      </trkpt>
      <trkpt lat="42.9745813272893428802490234375" lon="-2.38520356826484203338623046875">
        <ele>888.79998779296875</ele>
        <time>2022-04-17T10:39:03.000Z</time>
      </trkpt>
      <trkpt lat="42.97458392567932605743408203125" lon="-2.3851977847516536712646484375">
        <ele>888.79998779296875</ele>
        <time>2022-04-17T10:39:04.000Z</time>
      </trkpt>
      <trkpt lat="42.97458442859351634979248046875" lon="-2.3851930908858776092529296875">
        <ele>889</ele>
        <time>2022-04-17T10:39:05.000Z</time>
      </trkpt>
      <trkpt lat="42.97458627261221408843994140625" lon="-2.385188229382038116455078125">
        <ele>889.20001220703125</ele>
        <time>2022-04-17T10:39:06.000Z</time>
      </trkpt>
      <trkpt lat="42.9745883680880069732666015625" lon="-2.38518051803112030029296875">
        <ele>889.20001220703125</ele>
        <time>2022-04-17T10:39:07.000Z</time>
      </trkpt>
      <trkpt lat="42.97459146939218044281005859375" lon="-2.3851655982434749603271484375">
        <ele>889.20001220703125</ele>
        <time>2022-04-17T10:39:08.000Z</time>
      </trkpt>
      <trkpt lat="42.97459222376346588134765625" lon="-2.38515126518905162811279296875">
        <ele>889.4000244140625</ele>
        <time>2022-04-17T10:39:09.000Z</time>
      </trkpt>
      <trkpt lat="42.97458727844059467315673828125" lon="-2.385141961276531219482421875">
        <ele>889.4000244140625</ele>
        <time>2022-04-17T10:39:10.000Z</time>
      </trkpt>
      <trkpt lat="42.97457705251872539520263671875" lon="-2.38513466902077198028564453125">
        <ele>889.4000244140625</ele>
        <time>2022-04-17T10:39:11.000Z</time>
      </trkpt>
      <trkpt lat="42.974565066397190093994140625" lon="-2.3851260356605052947998046875">
        <ele>889.5999755859375</ele>
        <time>2022-04-17T10:39:12.000Z</time>
      </trkpt>
      <trkpt lat="42.97455593012273311614990234375" lon="-2.38511790521442890167236328125">
        <ele>889.79998779296875</ele>
        <time>2022-04-17T10:39:13.000Z</time>
      </trkpt>
      <trkpt lat="42.974551655352115631103515625" lon="-2.38511036150157451629638671875">
        <ele>889.79998779296875</ele>
        <time>2022-04-17T10:39:14.000Z</time>
      </trkpt>
      <trkpt lat="42.9745491407811641693115234375" lon="-2.38510650582611560821533203125">
        <ele>890</ele>
        <time>2022-04-17T10:39:15.000Z</time>
      </trkpt>
      <trkpt lat="42.97454402782022953033447265625" lon="-2.38510533235967159271240234375">
        <ele>890</ele>
        <time>2022-04-17T10:39:16.000Z</time>
      </trkpt>
      <trkpt lat="42.97454059123992919921875" lon="-2.3851015605032444000244140625">
        <ele>890</ele>
        <time>2022-04-17T10:39:17.000Z</time>
      </trkpt>
      <trkpt lat="42.97453589737415313720703125" lon="-2.3850978724658489227294921875">
        <ele>890</ele>
        <time>2022-04-17T10:39:18.000Z</time>
      </trkpt>
      <trkpt lat="42.974532544612884521484375" lon="-2.38509644754230976104736328125">
        <ele>890</ele>
        <time>2022-04-17T10:39:19.000Z</time>
      </trkpt>
      <trkpt lat="42.97453095205128192901611328125" lon="-2.3850938491523265838623046875">
        <ele>890</ele>
        <time>2022-04-17T10:39:20.000Z</time>
      </trkpt>
      <trkpt lat="42.9745307005941867828369140625" lon="-2.3850918374955654144287109375">
        <ele>890.20001220703125</ele>
        <time>2022-04-17T10:39:21.000Z</time>
      </trkpt>
      <trkpt lat="42.97453430481255054473876953125" lon="-2.38508890382945537567138671875">
        <ele>890.20001220703125</ele>
        <time>2022-04-17T10:39:22.000Z</time>
      </trkpt>
      <trkpt lat="42.97453665174543857574462890625" lon="-2.3850854672491550445556640625">
        <ele>890.20001220703125</ele>
        <time>2022-04-17T10:39:23.000Z</time>
      </trkpt>
      <trkpt lat="42.974537573754787445068359375" lon="-2.38508068956434726715087890625">
        <ele>890.4000244140625</ele>
        <time>2022-04-17T10:39:24.000Z</time>
      </trkpt>
      <trkpt lat="42.97453723847866058349609375" lon="-2.38507750444114208221435546875">
        <ele>890.4000244140625</ele>
        <time>2022-04-17T10:39:25.000Z</time>
      </trkpt>
      <trkpt lat="42.97453589737415313720703125" lon="-2.3850747384130954742431640625">
        <ele>890.4000244140625</ele>
        <time>2022-04-17T10:39:26.000Z</time>
      </trkpt>
      <trkpt lat="42.974532879889011383056640625" lon="-2.38507197238504886627197265625">
        <ele>890.5999755859375</ele>
        <time>2022-04-17T10:39:27.000Z</time>
      </trkpt>
      <trkpt lat="42.9745307005941867828369140625" lon="-2.38506711088120937347412109375">
        <ele>890.79998779296875</ele>
        <time>2022-04-17T10:39:28.000Z</time>
      </trkpt>
      <trkpt lat="42.9745293594896793365478515625" lon="-2.385058812797069549560546875">
        <ele>890.79998779296875</ele>
        <time>2022-04-17T10:39:29.000Z</time>
      </trkpt>
      <trkpt lat="42.974529527127742767333984375" lon="-2.385052777826786041259765625">
        <ele>890.79998779296875</ele>
        <time>2022-04-17T10:39:30.000Z</time>
      </trkpt>
      <trkpt lat="42.974525503814220428466796875" lon="-2.38504162989556789398193359375">
        <ele>891.20001220703125</ele>
        <time>2022-04-17T10:39:31.000Z</time>
      </trkpt>
      <trkpt lat="42.9745236597955226898193359375" lon="-2.3850324936211109161376953125">
        <ele>891.4000244140625</ele>
        <time>2022-04-17T10:39:32.000Z</time>
      </trkpt>
      <trkpt lat="42.97452257014811038970947265625" lon="-2.38501883111894130706787109375">
        <ele>891.5999755859375</ele>
        <time>2022-04-17T10:39:33.000Z</time>
      </trkpt>
      <trkpt lat="42.97452114522457122802734375" lon="-2.38500709645450115203857421875">
        <ele>891.5999755859375</ele>
        <time>2022-04-17T10:39:34.000Z</time>
      </trkpt>
      <trkpt lat="42.974522151052951812744140625" lon="-2.3849982954561710357666015625">
        <ele>891.5999755859375</ele>
        <time>2022-04-17T10:39:35.000Z</time>
      </trkpt>
      <trkpt lat="42.974521480500698089599609375" lon="-2.384985722601413726806640625">
        <ele>891.5999755859375</ele>
        <time>2022-04-17T10:39:36.000Z</time>
      </trkpt>
      <trkpt lat="42.97451485879719257354736328125" lon="-2.3849677853286266326904296875">
        <ele>891.79998779296875</ele>
        <time>2022-04-17T10:39:37.000Z</time>
      </trkpt>
      <trkpt lat="42.9745139367878437042236328125" lon="-2.38495764322578907012939453125">
        <ele>891.79998779296875</ele>
        <time>2022-04-17T10:39:38.000Z</time>
      </trkpt>
      <trkpt lat="42.97450496815145015716552734375" lon="-2.38493978977203369140625">
        <ele>891.79998779296875</ele>
        <time>2022-04-17T10:39:39.000Z</time>
      </trkpt>
      <trkpt lat="42.97450278885662555694580078125" lon="-2.38492528907954692840576171875">
        <ele>892</ele>
        <time>2022-04-17T10:39:40.000Z</time>
      </trkpt>
      <trkpt lat="42.97449826262891292572021484375" lon="-2.38491338677704334259033203125">
        <ele>892</ele>
        <time>2022-04-17T10:39:41.000Z</time>
      </trkpt>
      <trkpt lat="42.9744948260486125946044921875" lon="-2.38490131683647632598876953125">
        <ele>892</ele>
        <time>2022-04-17T10:39:42.000Z</time>
      </trkpt>
      <trkpt lat="42.9744923114776611328125" lon="-2.3848903365433216094970703125">
        <ele>892</ele>
        <time>2022-04-17T10:39:43.000Z</time>
      </trkpt>
      <trkpt lat="42.9744874499738216400146484375" lon="-2.38487650640308856964111328125">
        <ele>892.20001220703125</ele>
        <time>2022-04-17T10:39:44.000Z</time>
      </trkpt>
      <trkpt lat="42.9744877852499485015869140625" lon="-2.38486695103347301483154296875">
        <ele>892.4000244140625</ele>
        <time>2022-04-17T10:39:45.000Z</time>
      </trkpt>
      <trkpt lat="42.97448786906898021697998046875" lon="-2.38485504873096942901611328125">
        <ele>892.4000244140625</ele>
        <time>2022-04-17T10:39:46.000Z</time>
      </trkpt>
      <trkpt lat="42.974486611783504486083984375" lon="-2.3848427273333072662353515625">
        <ele>892.4000244140625</ele>
        <time>2022-04-17T10:39:47.000Z</time>
      </trkpt>
      <trkpt lat="42.97447822988033294677734375" lon="-2.38483074121177196502685546875">
        <ele>892.4000244140625</ele>
        <time>2022-04-17T10:39:48.000Z</time>
      </trkpt>
      <trkpt lat="42.97447093762457370758056640625" lon="-2.384816743433475494384765625">
        <ele>892.5999755859375</ele>
        <time>2022-04-17T10:39:49.000Z</time>
      </trkpt>
      <trkpt lat="42.9744666628539562225341796875" lon="-2.38480257801711559295654296875">
        <ele>892.79998779296875</ele>
        <time>2022-04-17T10:39:50.000Z</time>
      </trkpt>
      <trkpt lat="42.974465154111385345458984375" lon="-2.3847927711904048919677734375">
        <ele>892.79998779296875</ele>
        <time>2022-04-17T10:39:51.000Z</time>
      </trkpt>
      <trkpt lat="42.9744649864733219146728515625" lon="-2.3847853951156139373779296875">
        <ele>893.20001220703125</ele>
        <time>2022-04-17T10:39:52.000Z</time>
      </trkpt>
      <trkpt lat="42.974464483559131622314453125" lon="-2.3847780190408229827880859375">
        <ele>893.4000244140625</ele>
        <time>2022-04-17T10:39:53.000Z</time>
      </trkpt>
      <trkpt lat="42.9744659923017024993896484375" lon="-2.3847719840705394744873046875">
        <ele>893.4000244140625</ele>
        <time>2022-04-17T10:39:54.000Z</time>
      </trkpt>
      <trkpt lat="42.97446607612073421478271484375" lon="-2.38476553000509738922119140625">
        <ele>893.5999755859375</ele>
        <time>2022-04-17T10:39:55.000Z</time>
      </trkpt>
      <trkpt lat="42.974465824663639068603515625" lon="-2.38475899212062358856201171875">
        <ele>893.5999755859375</ele>
        <time>2022-04-17T10:39:56.000Z</time>
      </trkpt>
      <trkpt lat="42.97446942888200283050537109375" lon="-2.3847495205700397491455078125">
        <ele>893.5999755859375</ele>
        <time>2022-04-17T10:39:57.000Z</time>
      </trkpt>
      <trkpt lat="42.974462807178497314453125" lon="-2.3847340978682041168212890625">
        <ele>893.79998779296875</ele>
        <time>2022-04-17T10:39:58.000Z</time>
      </trkpt>
      <trkpt lat="42.9744686745107173919677734375" lon="-2.38472378812730312347412109375">
        <ele>894</ele>
        <time>2022-04-17T10:39:59.000Z</time>
      </trkpt>
      <trkpt lat="42.9744629748165607452392578125" lon="-2.38470769487321376800537109375">
        <ele>894.20001220703125</ele>
        <time>2022-04-17T10:40:00.000Z</time>
      </trkpt>
      <trkpt lat="42.97446875832974910736083984375" lon="-2.3846895061433315277099609375">
        <ele>894.4000244140625</ele>
        <time>2022-04-17T10:40:01.000Z</time>
      </trkpt>
      <trkpt lat="42.97447278164327144622802734375" lon="-2.384672574698925018310546875">
        <ele>894.4000244140625</ele>
        <time>2022-04-17T10:40:02.000Z</time>
      </trkpt>
      <trkpt lat="42.9744703508913516998291015625" lon="-2.38466343842446804046630859375">
        <ele>894.5999755859375</ele>
        <time>2022-04-17T10:40:03.000Z</time>
      </trkpt>
      <trkpt lat="42.974462471902370452880859375" lon="-2.3846541345119476318359375">
        <ele>894.79998779296875</ele>
        <time>2022-04-17T10:40:04.000Z</time>
      </trkpt>
      <trkpt lat="42.97445300035178661346435546875" lon="-2.384639717638492584228515625">
        <ele>895</ele>
        <time>2022-04-17T10:40:05.000Z</time>
      </trkpt>
      <trkpt lat="42.97444947995245456695556640625" lon="-2.38462798297405242919921875">
        <ele>895</ele>
        <time>2022-04-17T10:40:06.000Z</time>
      </trkpt>
      <trkpt lat="42.97444067895412445068359375" lon="-2.3846180923283100128173828125">
        <ele>895</ele>
        <time>2022-04-17T10:40:07.000Z</time>
      </trkpt>
      <trkpt lat="42.97443690709769725799560546875" lon="-2.3846080340445041656494140625">
        <ele>895.20001220703125</ele>
        <time>2022-04-17T10:40:08.000Z</time>
      </trkpt>
      <trkpt lat="42.9744319617748260498046875" lon="-2.3845976404845714569091796875">
        <ele>895.4000244140625</ele>
        <time>2022-04-17T10:40:09.000Z</time>
      </trkpt>
      <trkpt lat="42.97443053685128688812255859375" lon="-2.38458749838173389434814453125">
        <ele>895.4000244140625</ele>
        <time>2022-04-17T10:40:10.000Z</time>
      </trkpt>
      <trkpt lat="42.97443154267966747283935546875" lon="-2.38457777537405490875244140625">
        <ele>895.5999755859375</ele>
        <time>2022-04-17T10:40:11.000Z</time>
      </trkpt>
      <trkpt lat="42.97442601062357425689697265625" lon="-2.384567297995090484619140625">
        <ele>895.5999755859375</ele>
        <time>2022-04-17T10:40:12.000Z</time>
      </trkpt>
      <trkpt lat="42.97442651353776454925537109375" lon="-2.38456226885318756103515625">
        <ele>895.79998779296875</ele>
        <time>2022-04-17T10:40:13.000Z</time>
      </trkpt>
      <trkpt lat="42.974428944289684295654296875" lon="-2.38455824553966522216796875">
        <ele>895.79998779296875</ele>
        <time>2022-04-17T10:40:14.000Z</time>
      </trkpt>
      <trkpt lat="42.9744358174502849578857421875" lon="-2.38455246202647686004638671875">
        <ele>895.79998779296875</ele>
        <time>2022-04-17T10:40:15.000Z</time>
      </trkpt>
      <trkpt lat="42.9744378291070461273193359375" lon="-2.38454223610460758209228515625">
        <ele>896</ele>
        <time>2022-04-17T10:40:16.000Z</time>
      </trkpt>
      <trkpt lat="42.97444227151572704315185546875" lon="-2.3845309205353260040283203125">
        <ele>896.20001220703125</ele>
        <time>2022-04-17T10:40:17.000Z</time>
      </trkpt>
      <trkpt lat="42.97444067895412445068359375" lon="-2.3845171742141246795654296875">
        <ele>896.4000244140625</ele>
        <time>2022-04-17T10:40:18.000Z</time>
      </trkpt>
      <trkpt lat="42.9744348116219043731689453125" lon="-2.38450451754033565521240234375">
        <ele>896.4000244140625</ele>
        <time>2022-04-17T10:40:19.000Z</time>
      </trkpt>
      <trkpt lat="42.97443020157516002655029296875" lon="-2.38449647091329097747802734375">
        <ele>896.5999755859375</ele>
        <time>2022-04-17T10:40:20.000Z</time>
      </trkpt>
      <trkpt lat="42.97442902810871601104736328125" lon="-2.3844883404672145843505859375">
        <ele>896.79998779296875</ele>
        <time>2022-04-17T10:40:21.000Z</time>
      </trkpt>
      <trkpt lat="42.9744274355471134185791015625" lon="-2.3844816349446773529052734375">
        <ele>897</ele>
        <time>2022-04-17T10:40:22.000Z</time>
      </trkpt>
      <trkpt lat="42.9744250886142253875732421875" lon="-2.3844744265079498291015625">
        <ele>897</ele>
        <time>2022-04-17T10:40:23.000Z</time>
      </trkpt>
      <trkpt lat="42.97442299313843250274658203125" lon="-2.38446394912898540496826171875">
        <ele>897.20001220703125</ele>
        <time>2022-04-17T10:40:24.000Z</time>
      </trkpt>
      <trkpt lat="42.9744210653007030487060546875" lon="-2.3844554834067821502685546875">
        <ele>897.20001220703125</ele>
        <time>2022-04-17T10:40:25.000Z</time>
      </trkpt>
      <trkpt lat="42.974419556558132171630859375" lon="-2.3844450898468494415283203125">
        <ele>897.20001220703125</ele>
        <time>2022-04-17T10:40:26.000Z</time>
      </trkpt>
      <trkpt lat="42.97441796399652957916259765625" lon="-2.38443762995302677154541015625">
        <ele>897.4000244140625</ele>
        <time>2022-04-17T10:40:27.000Z</time>
      </trkpt>
      <trkpt lat="42.9744153656065464019775390625" lon="-2.38442455418407917022705078125">
        <ele>897.5999755859375</ele>
        <time>2022-04-17T10:40:28.000Z</time>
      </trkpt>
      <trkpt lat="42.9744167067110538482666015625" lon="-2.38441147841513156890869140625">
        <ele>897.5999755859375</ele>
        <time>2022-04-17T10:40:29.000Z</time>
      </trkpt>
      <trkpt lat="42.974414527416229248046875" lon="-2.3844021745026111602783203125">
        <ele>897.79998779296875</ele>
        <time>2022-04-17T10:40:30.000Z</time>
      </trkpt>
      <trkpt lat="42.9744113422930240631103515625" lon="-2.3843885958194732666015625">
        <ele>898</ele>
        <time>2022-04-17T10:40:31.000Z</time>
      </trkpt>
      <trkpt lat="42.9744110070168972015380859375" lon="-2.38438180647790431976318359375">
        <ele>898</ele>
        <time>2022-04-17T10:40:32.000Z</time>
      </trkpt>
      <trkpt lat="42.9744126833975315093994140625" lon="-2.38437644205987453460693359375">
        <ele>898.20001220703125</ele>
        <time>2022-04-17T10:40:33.000Z</time>
      </trkpt>
      <trkpt lat="42.97441310249269008636474609375" lon="-2.38436906598508358001708984375">
        <ele>898.4000244140625</ele>
        <time>2022-04-17T10:40:34.000Z</time>
      </trkpt>
      <trkpt lat="42.9744089953601360321044921875" lon="-2.384357750415802001953125">
        <ele>898.4000244140625</ele>
        <time>2022-04-17T10:40:35.000Z</time>
      </trkpt>
      <trkpt lat="42.9744056425988674163818359375" lon="-2.3843471892178058624267578125">
        <ele>898.5999755859375</ele>
        <time>2022-04-17T10:40:36.000Z</time>
      </trkpt>
      <trkpt lat="42.9744053073227405548095703125" lon="-2.38433738239109516143798828125">
        <ele>898.79998779296875</ele>
        <time>2022-04-17T10:40:37.000Z</time>
      </trkpt>
      <trkpt lat="42.97440555877983570098876953125" lon="-2.38433017395436763763427734375">
        <ele>898.79998779296875</ele>
        <time>2022-04-17T10:40:38.000Z</time>
      </trkpt>
      <trkpt lat="42.9744046367704868316650390625" lon="-2.38432413898408412933349609375">
        <ele>899</ele>
        <time>2022-04-17T10:40:39.000Z</time>
      </trkpt>
      <trkpt lat="42.97440388239920139312744140625" lon="-2.38431642763316631317138671875">
        <ele>899.20001220703125</ele>
        <time>2022-04-17T10:40:40.000Z</time>
      </trkpt>
      <trkpt lat="42.97440673224627971649169921875" lon="-2.3843093030154705047607421875">
        <ele>899.20001220703125</ele>
        <time>2022-04-17T10:40:41.000Z</time>
      </trkpt>
      <trkpt lat="42.97440974973142147064208984375" lon="-2.38430100493133068084716796875">
        <ele>899.4000244140625</ele>
        <time>2022-04-17T10:40:42.000Z</time>
      </trkpt>
      <trkpt lat="42.9744093306362628936767578125" lon="-2.38429413177073001861572265625">
        <ele>899.4000244140625</ele>
        <time>2022-04-17T10:40:43.000Z</time>
      </trkpt>
      <trkpt lat="42.97441209666430950164794921875" lon="-2.3842925392091274261474609375">
        <ele>899.4000244140625</ele>
        <time>2022-04-17T10:40:44.000Z</time>
      </trkpt>
      <trkpt lat="42.97441385686397552490234375" lon="-2.38429002463817596435546875">
        <ele>899.5999755859375</ele>
        <time>2022-04-17T10:40:45.000Z</time>
      </trkpt>
      <trkpt lat="42.97441595233976840972900390625" lon="-2.38428876735270023345947265625">
        <ele>899.5999755859375</ele>
        <time>2022-04-17T10:40:46.000Z</time>
      </trkpt>
      <trkpt lat="42.97441184520721435546875" lon="-2.38428424112498760223388671875">
        <ele>899.79998779296875</ele>
        <time>2022-04-17T10:40:47.000Z</time>
      </trkpt>
      <trkpt lat="42.97440136782824993133544921875" lon="-2.384269572794437408447265625">
        <ele>900</ele>
        <time>2022-04-17T10:40:48.000Z</time>
      </trkpt>
      <trkpt lat="42.97439030371606349945068359375" lon="-2.38425674848258495330810546875">
        <ele>900.20001220703125</ele>
        <time>2022-04-17T10:40:49.000Z</time>
      </trkpt>
      <trkpt lat="42.97438225708901882171630859375" lon="-2.38424710929393768310546875">
        <ele>900.20001220703125</ele>
        <time>2022-04-17T10:40:50.000Z</time>
      </trkpt>
      <trkpt lat="42.9743788205087184906005859375" lon="-2.38424132578074932098388671875">
        <ele>900.20001220703125</ele>
        <time>2022-04-17T10:40:51.000Z</time>
      </trkpt>
      <trkpt lat="42.9743771441280841827392578125" lon="-2.3842405714094638824462890625">
        <ele>900.4000244140625</ele>
        <time>2022-04-17T10:40:52.000Z</time>
      </trkpt>
      <trkpt lat="42.97437362372875213623046875" lon="-2.3842399008572101593017578125">
        <ele>900.4000244140625</ele>
        <time>2022-04-17T10:40:53.000Z</time>
      </trkpt>
      <trkpt lat="42.97437186352908611297607421875" lon="-2.38424048759043216705322265625">
        <ele>900.4000244140625</ele>
        <time>2022-04-17T10:40:54.000Z</time>
      </trkpt>
      <trkpt lat="42.97436901368200778961181640625" lon="-2.3842412419617176055908203125">
        <ele>900.5999755859375</ele>
        <time>2022-04-17T10:40:55.000Z</time>
      </trkpt>
      <trkpt lat="42.9743697680532932281494140625" lon="-2.38423763774335384368896484375">
        <ele>900.5999755859375</ele>
        <time>2022-04-17T10:40:56.000Z</time>
      </trkpt>
      <trkpt lat="42.97437236644327640533447265625" lon="-2.384232692420482635498046875">
        <ele>900.5999755859375</ele>
        <time>2022-04-17T10:40:57.000Z</time>
      </trkpt>
      <trkpt lat="42.97437437810003757476806640625" lon="-2.38422992639243602752685546875">
        <ele>900.79998779296875</ele>
        <time>2022-04-17T10:40:58.000Z</time>
      </trkpt>
      <trkpt lat="42.9743734560906887054443359375" lon="-2.3842276632785797119140625">
        <ele>900.79998779296875</ele>
        <time>2022-04-17T10:40:59.000Z</time>
      </trkpt>
      <trkpt lat="42.97437320463359355926513671875" lon="-2.3842238076031208038330078125">
        <ele>900.79998779296875</ele>
        <time>2022-04-17T10:41:00.000Z</time>
      </trkpt>
      <trkpt lat="42.974371612071990966796875" lon="-2.38422389142215251922607421875">
        <ele>901</ele>
        <time>2022-04-17T10:41:01.000Z</time>
      </trkpt>
      <trkpt lat="42.97436851076781749725341796875" lon="-2.38422540016472339630126953125">
        <ele>901</ele>
        <time>2022-04-17T10:41:02.000Z</time>
      </trkpt>
      <trkpt lat="42.97436566092073917388916015625" lon="-2.3842278309166431427001953125">
        <ele>901.20001220703125</ele>
        <time>2022-04-17T10:41:03.000Z</time>
      </trkpt>
      <trkpt lat="42.9743617214262485504150390625" lon="-2.38423244096338748931884765625">
        <ele>901.20001220703125</ele>
        <time>2022-04-17T10:41:04.000Z</time>
      </trkpt>
      <trkpt lat="42.974369265139102935791015625" lon="-2.38423612900078296661376953125">
        <ele>901.4000244140625</ele>
        <time>2022-04-17T10:41:05.000Z</time>
      </trkpt>
      <trkpt lat="42.97438435256481170654296875" lon="-2.38423864357173442840576171875">
        <ele>901.4000244140625</ele>
        <time>2022-04-17T10:41:06.000Z</time>
      </trkpt>
      <trkpt lat="42.9743975959718227386474609375" lon="-2.38423026166856288909912109375">
        <ele>901.4000244140625</ele>
        <time>2022-04-17T10:41:07.000Z</time>
      </trkpt>
      <trkpt lat="42.97439818270504474639892578125" lon="-2.38422221504151821136474609375">
        <ele>901.4000244140625</ele>
        <time>2022-04-17T10:41:08.000Z</time>
      </trkpt>
      <trkpt lat="42.9743999429047107696533203125" lon="-2.3842144198715686798095703125">
        <ele>901.5999755859375</ele>
        <time>2022-04-17T10:41:09.000Z</time>
      </trkpt>
      <trkpt lat="42.9744064807891845703125" lon="-2.38420930691063404083251953125">
        <ele>901.5999755859375</ele>
        <time>2022-04-17T10:41:10.000Z</time>
      </trkpt>
      <trkpt lat="42.97441251575946807861328125" lon="-2.384207546710968017578125">
        <ele>901.5999755859375</ele>
        <time>2022-04-17T10:41:11.000Z</time>
      </trkpt>
      <trkpt lat="42.97441251575946807861328125" lon="-2.384207546710968017578125">
        <ele>901.5999755859375</ele>
        <time>2022-04-17T10:41:12.000Z</time>
      </trkpt>
      <trkpt lat="42.97441251575946807861328125" lon="-2.384207546710968017578125">
        <ele>901.5999755859375</ele>
        <time>2022-04-17T10:41:13.000Z</time>
      </trkpt>
      <trkpt lat="42.97441251575946807861328125" lon="-2.384207546710968017578125">
        <ele>901.5999755859375</ele>
        <time>2022-04-17T10:41:14.000Z</time>
      </trkpt>
      <trkpt lat="42.97441251575946807861328125" lon="-2.384207546710968017578125">
        <ele>901.79998779296875</ele>
        <time>2022-04-17T10:41:15.000Z</time>
      </trkpt>
      <trkpt lat="42.97441251575946807861328125" lon="-2.384207546710968017578125">
        <ele>901.79998779296875</ele>
        <time>2022-04-17T10:41:16.000Z</time>
      </trkpt>
      <trkpt lat="42.97441251575946807861328125" lon="-2.384207546710968017578125">
        <ele>901.79998779296875</ele>
        <time>2022-04-17T10:41:17.000Z</time>
      </trkpt>
      <trkpt lat="42.97441251575946807861328125" lon="-2.384207546710968017578125">
        <ele>901.5999755859375</ele>
        <time>2022-04-17T10:41:18.000Z</time>
      </trkpt>
      <trkpt lat="42.97441251575946807861328125" lon="-2.384207546710968017578125">
        <ele>901.5999755859375</ele>
        <time>2022-04-17T10:41:19.000Z</time>
      </trkpt>
      <trkpt lat="42.97441251575946807861328125" lon="-2.384207546710968017578125">
        <ele>901.4000244140625</ele>
        <time>2022-04-17T10:41:20.000Z</time>
      </trkpt>
      <trkpt lat="42.97441251575946807861328125" lon="-2.384207546710968017578125">
        <ele>901.4000244140625</ele>
        <time>2022-04-17T10:41:21.000Z</time>
      </trkpt>
      <trkpt lat="42.97441251575946807861328125" lon="-2.384207546710968017578125">
        <ele>901.20001220703125</ele>
        <time>2022-04-17T10:41:22.000Z</time>
      </trkpt>
      <trkpt lat="42.97441251575946807861328125" lon="-2.384207546710968017578125">
        <ele>901.20001220703125</ele>
        <time>2022-04-17T10:41:23.000Z</time>
      </trkpt>
      <trkpt lat="42.97441251575946807861328125" lon="-2.384207546710968017578125">
        <ele>901.20001220703125</ele>
        <time>2022-04-17T10:41:24.000Z</time>
      </trkpt>
      <trkpt lat="42.97441251575946807861328125" lon="-2.384207546710968017578125">
        <ele>901.20001220703125</ele>
        <time>2022-04-17T10:41:25.000Z</time>
      </trkpt>
      <trkpt lat="42.97441251575946807861328125" lon="-2.384207546710968017578125">
        <ele>901.20001220703125</ele>
        <time>2022-04-17T10:41:26.000Z</time>
      </trkpt>
      <trkpt lat="42.97441251575946807861328125" lon="-2.384207546710968017578125">
        <ele>901.4000244140625</ele>
        <time>2022-04-17T10:41:27.000Z</time>
      </trkpt>
      <trkpt lat="42.974411509931087493896484375" lon="-2.384207546710968017578125">
        <ele>901.4000244140625</ele>
        <time>2022-04-17T10:41:28.000Z</time>
      </trkpt>
      <trkpt lat="42.9744110070168972015380859375" lon="-2.384207211434841156005859375">
        <ele>901.5999755859375</ele>
        <time>2022-04-17T10:41:29.000Z</time>
      </trkpt>
      <trkpt lat="42.974409498274326324462890625" lon="-2.38420679233968257904052734375">
        <ele>901.79998779296875</ele>
        <time>2022-04-17T10:41:30.000Z</time>
      </trkpt>
      <trkpt lat="42.974408827722072601318359375" lon="-2.38420444540679454803466796875">
        <ele>901.79998779296875</ele>
        <time>2022-04-17T10:41:31.000Z</time>
      </trkpt>
      <trkpt lat="42.97440874390304088592529296875" lon="-2.38420126028358936309814453125">
        <ele>901.79998779296875</ele>
        <time>2022-04-17T10:41:32.000Z</time>
      </trkpt>
      <trkpt lat="42.97440924681723117828369140625" lon="-2.3842006735503673553466796875">
        <ele>902</ele>
        <time>2022-04-17T10:41:33.000Z</time>
      </trkpt>
      <trkpt lat="42.97441075555980205535888671875" lon="-2.38419690169394016265869140625">
        <ele>902</ele>
        <time>2022-04-17T10:41:34.000Z</time>
      </trkpt>
      <trkpt lat="42.97441092319786548614501953125" lon="-2.3841916210949420928955078125">
        <ele>902</ele>
        <time>2022-04-17T10:41:35.000Z</time>
      </trkpt>
      <trkpt lat="42.97441209666430950164794921875" lon="-2.38417762331664562225341796875">
        <ele>902</ele>
        <time>2022-04-17T10:41:36.000Z</time>
      </trkpt>
      <trkpt lat="42.974407486617565155029296875" lon="-2.3841490410268306732177734375">
        <ele>902</ele>
        <time>2022-04-17T10:41:37.000Z</time>
      </trkpt>
      <trkpt lat="42.9744029603898525238037109375" lon="-2.38412179984152317047119140625">
        <ele>902</ele>
        <time>2022-04-17T10:41:38.000Z</time>
      </trkpt>
      <trkpt lat="42.9743955843150615692138671875" lon="-2.38409221172332763671875">
        <ele>902.20001220703125</ele>
        <time>2022-04-17T10:41:39.000Z</time>
      </trkpt>
      <trkpt lat="42.97438879497349262237548828125" lon="-2.38406564109027385711669921875">
        <ele>902.20001220703125</ele>
        <time>2022-04-17T10:41:40.000Z</time>
      </trkpt>
      <trkpt lat="42.97438175417482852935791015625" lon="-2.38403831608593463897705078125">
        <ele>902.20001220703125</ele>
        <time>2022-04-17T10:41:41.000Z</time>
      </trkpt>
      <trkpt lat="42.97438141889870166778564453125" lon="-2.38401710987091064453125">
        <ele>902.20001220703125</ele>
        <time>2022-04-17T10:41:42.000Z</time>
      </trkpt>
      <trkpt lat="42.97438410110771656036376953125" lon="-2.38399473018944263458251953125">
        <ele>902.20001220703125</ele>
        <time>2022-04-17T10:41:43.000Z</time>
      </trkpt>
      <trkpt lat="42.974381335079669952392578125" lon="-2.3839703388512134552001953125">
        <ele>902.20001220703125</ele>
        <time>2022-04-17T10:41:44.000Z</time>
      </trkpt>
      <trkpt lat="42.97437773086130619049072265625" lon="-2.3839465342462062835693359375">
        <ele>902.20001220703125</ele>
        <time>2022-04-17T10:41:45.000Z</time>
      </trkpt>
      <trkpt lat="42.974375300109386444091796875" lon="-2.38393991254270076751708984375">
        <ele>902</ele>
        <time>2022-04-17T10:41:46.000Z</time>
      </trkpt>
      <trkpt lat="42.97437286935746669769287109375" lon="-2.38393329083919525146484375">
        <ele>902</ele>
        <time>2022-04-17T10:41:47.000Z</time>
      </trkpt>
      <trkpt lat="42.97436985187232494354248046875" lon="-2.383922226727008819580078125">
        <ele>902</ele>
        <time>2022-04-17T10:41:48.000Z</time>
      </trkpt>
      <trkpt lat="42.974364571273326873779296875" lon="-2.3839123360812664031982421875">
        <ele>902</ele>
        <time>2022-04-17T10:41:49.000Z</time>
      </trkpt>
      <trkpt lat="42.9743600450456142425537109375" lon="-2.3838989250361919403076171875">
        <ele>902</ele>
        <time>2022-04-17T10:41:50.000Z</time>
      </trkpt>
      <trkpt lat="42.974354512989521026611328125" lon="-2.383885346353054046630859375">
        <ele>902</ele>
        <time>2022-04-17T10:41:51.000Z</time>
      </trkpt>
      <trkpt lat="42.9743479751050472259521484375" lon="-2.38386833108961582183837890625">
        <ele>902.20001220703125</ele>
        <time>2022-04-17T10:41:52.000Z</time>
      </trkpt>
      <trkpt lat="42.97434470616281032562255859375" lon="-2.38385341130197048187255859375">
        <ele>902.20001220703125</ele>
        <time>2022-04-17T10:41:53.000Z</time>
      </trkpt>
      <trkpt lat="42.9743421077728271484375" lon="-2.38384201191365718841552734375">
        <ele>902.4000244140625</ele>
        <time>2022-04-17T10:41:54.000Z</time>
      </trkpt>
      <trkpt lat="42.97434017993509769439697265625" lon="-2.3838291876018047332763671875">
        <ele>902.4000244140625</ele>
        <time>2022-04-17T10:41:55.000Z</time>
      </trkpt>
      <trkpt lat="42.974340431392192840576171875" lon="-2.3838177882134914398193359375">
        <ele>902.4000244140625</ele>
        <time>2022-04-17T10:41:56.000Z</time>
      </trkpt>
      <trkpt lat="42.974339760839939117431640625" lon="-2.383809573948383331298828125">
        <ele>902.4000244140625</ele>
        <time>2022-04-17T10:41:57.000Z</time>
      </trkpt>
      <trkpt lat="42.974338419735431671142578125" lon="-2.38379876129329204559326171875">
        <ele>902.4000244140625</ele>
        <time>2022-04-17T10:41:58.000Z</time>
      </trkpt>
      <trkpt lat="42.97432928346097469329833984375" lon="-2.38378585316240787506103515625">
        <ele>902.4000244140625</ele>
        <time>2022-04-17T10:41:59.000Z</time>
      </trkpt>
      <trkpt lat="42.97432358376681804656982421875" lon="-2.38377235829830169677734375">
        <ele>902.4000244140625</ele>
        <time>2022-04-17T10:42:00.000Z</time>
      </trkpt>
      <trkpt lat="42.97432224266231060028076171875" lon="-2.38376288674771785736083984375">
        <ele>902.4000244140625</ele>
        <time>2022-04-17T10:42:01.000Z</time>
      </trkpt>
      <trkpt lat="42.97431503422558307647705078125" lon="-2.3837450332939624786376953125">
        <ele>902.4000244140625</ele>
        <time>2022-04-17T10:42:02.000Z</time>
      </trkpt>
      <trkpt lat="42.97431000508368015289306640625" lon="-2.38372852094471454620361328125">
        <ele>902.4000244140625</ele>
        <time>2022-04-17T10:42:03.000Z</time>
      </trkpt>
      <trkpt lat="42.97430254518985748291015625" lon="-2.3836991004645824432373046875">
        <ele>902.4000244140625</ele>
        <time>2022-04-17T10:42:04.000Z</time>
      </trkpt>
      <trkpt lat="42.9742986895143985748291015625" lon="-2.383675463497638702392578125">
        <ele>902.20001220703125</ele>
        <time>2022-04-17T10:42:05.000Z</time>
      </trkpt>
      <trkpt lat="42.97429290600121021270751953125" lon="-2.38366113044321537017822265625">
        <ele>902.4000244140625</ele>
        <time>2022-04-17T10:42:06.000Z</time>
      </trkpt>
      <trkpt lat="42.97429206781089305877685546875" lon="-2.38365258090198040008544921875">
        <ele>902.4000244140625</ele>
        <time>2022-04-17T10:42:07.000Z</time>
      </trkpt>
      <trkpt lat="42.97428888268768787384033203125" lon="-2.38364227116107940673828125">
        <ele>902.4000244140625</ele>
        <time>2022-04-17T10:42:08.000Z</time>
      </trkpt>
      <trkpt lat="42.9742805846035480499267578125" lon="-2.38363263197243213653564453125">
        <ele>902.4000244140625</ele>
        <time>2022-04-17T10:42:09.000Z</time>
      </trkpt>
      <trkpt lat="42.97427094541490077972412109375" lon="-2.383623160421848297119140625">
        <ele>902.4000244140625</ele>
        <time>2022-04-17T10:42:10.000Z</time>
      </trkpt>
      <trkpt lat="42.97426306642591953277587890625" lon="-2.3836109228432178497314453125">
        <ele>902.5999755859375</ele>
        <time>2022-04-17T10:42:11.000Z</time>
      </trkpt>
      <trkpt lat="42.97425560653209686279296875" lon="-2.38359524868428707122802734375">
        <ele>902.5999755859375</ele>
        <time>2022-04-17T10:42:12.000Z</time>
      </trkpt>
      <trkpt lat="42.974248230457305908203125" lon="-2.3835824243724346160888671875">
        <ele>902.5999755859375</ele>
        <time>2022-04-17T10:42:13.000Z</time>
      </trkpt>
      <trkpt lat="42.9742430336773395538330078125" lon="-2.38357261754572391510009765625">
        <ele>902.79998779296875</ele>
        <time>2022-04-17T10:42:14.000Z</time>
      </trkpt>
      <trkpt lat="42.974241860210895538330078125" lon="-2.3835626430809497833251953125">
        <ele>902.79998779296875</ele>
        <time>2022-04-17T10:42:15.000Z</time>
      </trkpt>
      <trkpt lat="42.97424362041056156158447265625" lon="-2.38355451263487339019775390625">
        <ele>903</ele>
        <time>2022-04-17T10:42:16.000Z</time>
      </trkpt>
      <trkpt lat="42.974242530763149261474609375" lon="-2.3835421912372112274169921875">
        <ele>903</ele>
        <time>2022-04-17T10:42:17.000Z</time>
      </trkpt>
      <trkpt lat="42.97423423267900943756103515625" lon="-2.3835321329534053802490234375">
        <ele>903</ele>
        <time>2022-04-17T10:42:18.000Z</time>
      </trkpt>
      <trkpt lat="42.9742235876619815826416015625" lon="-2.3835197277367115020751953125">
        <ele>903</ele>
        <time>2022-04-17T10:42:19.000Z</time>
      </trkpt>
      <trkpt lat="42.97421864233911037445068359375" lon="-2.38351008854806423187255859375">
        <ele>903</ele>
        <time>2022-04-17T10:42:20.000Z</time>
      </trkpt>
      <trkpt lat="42.9742178879678249359130859375" lon="-2.38350036554038524627685546875">
        <ele>903.20001220703125</ele>
        <time>2022-04-17T10:42:21.000Z</time>
      </trkpt>
      <trkpt lat="42.974217720329761505126953125" lon="-2.38348812796175479888916015625">
        <ele>903.20001220703125</ele>
        <time>2022-04-17T10:42:22.000Z</time>
      </trkpt>
      <trkpt lat="42.97421897761523723602294921875" lon="-2.38347723148763179779052734375">
        <ele>903.20001220703125</ele>
        <time>2022-04-17T10:42:23.000Z</time>
      </trkpt>
      <trkpt lat="42.9742185585200786590576171875" lon="-2.38346817903220653533935546875">
        <ele>903.20001220703125</ele>
        <time>2022-04-17T10:42:24.000Z</time>
      </trkpt>
      <trkpt lat="42.97421964816749095916748046875" lon="-2.3834573663771152496337890625">
        <ele>903.20001220703125</ele>
        <time>2022-04-17T10:42:25.000Z</time>
      </trkpt>
      <trkpt lat="42.97421880997717380523681640625" lon="-2.38344940356910228729248046875">
        <ele>903.4000244140625</ele>
        <time>2022-04-17T10:42:26.000Z</time>
      </trkpt>
      <trkpt lat="42.974213697016239166259765625" lon="-2.38343850709497928619384765625">
        <ele>903.4000244140625</ele>
        <time>2022-04-17T10:42:27.000Z</time>
      </trkpt>
      <trkpt lat="42.97421000897884368896484375" lon="-2.38342409022152423858642578125">
        <ele>903.4000244140625</ele>
        <time>2022-04-17T10:42:28.000Z</time>
      </trkpt>
      <trkpt lat="42.97420389018952846527099609375" lon="-2.38340598531067371368408203125">
        <ele>903.5999755859375</ele>
        <time>2022-04-17T10:42:29.000Z</time>
      </trkpt>
      <trkpt lat="42.97419802285730838775634765625" lon="-2.383382432162761688232421875">
        <ele>903.5999755859375</ele>
        <time>2022-04-17T10:42:30.000Z</time>
      </trkpt>
      <trkpt lat="42.97420020215213298797607421875" lon="-2.3833631537854671478271484375">
        <ele>903.5999755859375</ele>
        <time>2022-04-17T10:42:31.000Z</time>
      </trkpt>
      <trkpt lat="42.974205650389194488525390625" lon="-2.38334530033171176910400390625">
        <ele>903.5999755859375</ele>
        <time>2022-04-17T10:42:32.000Z</time>
      </trkpt>
      <trkpt lat="42.974192909896373748779296875" lon="-2.38332065753638744354248046875">
        <ele>903.79998779296875</ele>
        <time>2022-04-17T10:42:33.000Z</time>
      </trkpt>
      <trkpt lat="42.97418779693543910980224609375" lon="-2.38330557011067867279052734375">
        <ele>903.79998779296875</ele>
        <time>2022-04-17T10:42:34.000Z</time>
      </trkpt>
      <trkpt lat="42.97418260015547275543212890625" lon="-2.38328763283789157867431640625">
        <ele>903.79998779296875</ele>
        <time>2022-04-17T10:42:35.000Z</time>
      </trkpt>
      <trkpt lat="42.97418142668902873992919921875" lon="-2.38327304832637310028076171875">
        <ele>903.79998779296875</ele>
        <time>2022-04-17T10:42:36.000Z</time>
      </trkpt>
      <trkpt lat="42.97418176196515560150146484375" lon="-2.383255697786808013916015625">
        <ele>903.79998779296875</ele>
        <time>2022-04-17T10:42:37.000Z</time>
      </trkpt>
      <trkpt lat="42.97418394125998020172119140625" lon="-2.38324890844523906707763671875">
        <ele>903.79998779296875</ele>
        <time>2022-04-17T10:42:38.000Z</time>
      </trkpt>
      <trkpt lat="42.97417354770004749298095703125" lon="-2.38323482684791088104248046875">
        <ele>904</ele>
        <time>2022-04-17T10:42:39.000Z</time>
      </trkpt>
      <trkpt lat="42.97416114248335361480712890625" lon="-2.38322518765926361083984375">
        <ele>904</ele>
        <time>2022-04-17T10:42:40.000Z</time>
      </trkpt>
      <trkpt lat="42.97414974309504032135009765625" lon="-2.38321655429899692535400390625">
        <ele>904</ele>
        <time>2022-04-17T10:42:41.000Z</time>
      </trkpt>
      <trkpt lat="42.9741491563618183135986328125" lon="-2.3832119442522525787353515625">
        <ele>904</ele>
        <time>2022-04-17T10:42:42.000Z</time>
      </trkpt>
      <trkpt lat="42.97414924018085002899169921875" lon="-2.38320666365325450897216796875">
        <ele>904.20001220703125</ele>
        <time>2022-04-17T10:42:43.000Z</time>
      </trkpt>
      <trkpt lat="42.97414831817150115966796875" lon="-2.38319660536944866180419921875">
        <ele>904.20001220703125</ele>
        <time>2022-04-17T10:42:44.000Z</time>
      </trkpt>
      <trkpt lat="42.9741461388766765594482421875" lon="-2.383186630904674530029296875">
        <ele>904.20001220703125</ele>
        <time>2022-04-17T10:42:45.000Z</time>
      </trkpt>
      <trkpt lat="42.9741447977721691131591796875" lon="-2.3831750638782978057861328125">
        <ele>904.4000244140625</ele>
        <time>2022-04-17T10:42:46.000Z</time>
      </trkpt>
      <trkpt lat="42.97414521686732769012451171875" lon="-2.383161820471286773681640625">
        <ele>904.4000244140625</ele>
        <time>2022-04-17T10:42:47.000Z</time>
      </trkpt>
      <trkpt lat="42.9741476476192474365234375" lon="-2.3831494152545928955078125">
        <ele>904.4000244140625</ele>
        <time>2022-04-17T10:42:48.000Z</time>
      </trkpt>
      <trkpt lat="42.97414907254278659820556640625" lon="-2.38313877023756504058837890625">
        <ele>904.4000244140625</ele>
        <time>2022-04-17T10:42:49.000Z</time>
      </trkpt>
      <trkpt lat="42.97415108419954776763916015625" lon="-2.38312737084925174713134765625">
        <ele>904.4000244140625</ele>
        <time>2022-04-17T10:42:50.000Z</time>
      </trkpt>
      <trkpt lat="42.9741518385708332061767578125" lon="-2.38311647437512874603271484375">
        <ele>904.5999755859375</ele>
        <time>2022-04-17T10:42:51.000Z</time>
      </trkpt>
      <trkpt lat="42.9741508327424526214599609375" lon="-2.383106164634227752685546875">
        <ele>904.5999755859375</ele>
        <time>2022-04-17T10:42:52.000Z</time>
      </trkpt>
      <trkpt lat="42.97414831817150115966796875" lon="-2.38309250213205814361572265625">
        <ele>904.5999755859375</ele>
        <time>2022-04-17T10:42:53.000Z</time>
      </trkpt>
      <trkpt lat="42.97413934953510761260986328125" lon="-2.38307238556444644927978515625">
        <ele>904.79998779296875</ele>
        <time>2022-04-17T10:42:54.000Z</time>
      </trkpt>
      <trkpt lat="42.97413700260221958160400390625" lon="-2.38305729813873767852783203125">
        <ele>904.79998779296875</ele>
        <time>2022-04-17T10:42:55.000Z</time>
      </trkpt>
      <trkpt lat="42.974142618477344512939453125" lon="-2.38304539583623409271240234375">
        <ele>905</ele>
        <time>2022-04-17T10:42:56.000Z</time>
      </trkpt>
      <trkpt lat="42.974142618477344512939453125" lon="-2.38302460871636867523193359375">
        <ele>905</ele>
        <time>2022-04-17T10:42:57.000Z</time>
      </trkpt>
      <trkpt lat="42.974147982895374298095703125" lon="-2.38300868310034275054931640625">
        <ele>905.20001220703125</ele>
        <time>2022-04-17T10:42:58.000Z</time>
      </trkpt>
      <trkpt lat="42.97414823435246944427490234375" lon="-2.38300046883523464202880859375">
        <ele>905.20001220703125</ele>
        <time>2022-04-17T10:42:59.000Z</time>
      </trkpt>
      <trkpt lat="42.974150665104389190673828125" lon="-2.38299678079783916473388671875">
        <ele>905.4000244140625</ele>
        <time>2022-04-17T10:43:00.000Z</time>
      </trkpt>
      <trkpt lat="42.9741491563618183135986328125" lon="-2.3829896561801433563232421875">
        <ele>905.4000244140625</ele>
        <time>2022-04-17T10:43:01.000Z</time>
      </trkpt>
      <trkpt lat="42.974148653447628021240234375" lon="-2.38298169337213039398193359375">
        <ele>905.4000244140625</ele>
        <time>2022-04-17T10:43:02.000Z</time>
      </trkpt>
      <trkpt lat="42.97415234148502349853515625" lon="-2.38297079689800739288330078125">
        <ele>905.5999755859375</ele>
        <time>2022-04-17T10:43:03.000Z</time>
      </trkpt>
      <trkpt lat="42.974154017865657806396484375" lon="-2.38296241499483585357666015625">
        <ele>905.5999755859375</ele>
        <time>2022-04-17T10:43:04.000Z</time>
      </trkpt>
      <trkpt lat="42.97415192238986492156982421875" lon="-2.3829537816345691680908203125">
        <ele>905.79998779296875</ele>
        <time>2022-04-17T10:43:05.000Z</time>
      </trkpt>
      <trkpt lat="42.97414831817150115966796875" lon="-2.38294431008398532867431640625">
        <ele>905.79998779296875</ele>
        <time>2022-04-17T10:43:06.000Z</time>
      </trkpt>
      <trkpt lat="42.9741424508392810821533203125" lon="-2.3829323239624500274658203125">
        <ele>905.79998779296875</ele>
        <time>2022-04-17T10:43:07.000Z</time>
      </trkpt>
      <trkpt lat="42.9741401039063930511474609375" lon="-2.3829219304025173187255859375">
        <ele>905.79998779296875</ele>
        <time>2022-04-17T10:43:08.000Z</time>
      </trkpt>
      <trkpt lat="42.97413733787834644317626953125" lon="-2.38291061483323574066162109375">
        <ele>906</ele>
        <time>2022-04-17T10:43:09.000Z</time>
      </trkpt>
      <trkpt lat="42.97412929125130176544189453125" lon="-2.38289686851203441619873046875">
        <ele>906</ele>
        <time>2022-04-17T10:43:10.000Z</time>
      </trkpt>
      <trkpt lat="42.97412686049938201904296875" lon="-2.38288748078048229217529296875">
        <ele>906</ele>
        <time>2022-04-17T10:43:11.000Z</time>
      </trkpt>
      <trkpt lat="42.97412929125130176544189453125" lon="-2.3828800208866596221923828125">
        <ele>906</ele>
        <time>2022-04-17T10:43:12.000Z</time>
      </trkpt>
      <trkpt lat="42.974131219089031219482421875" lon="-2.38286552019417285919189453125">
        <ele>906</ele>
        <time>2022-04-17T10:43:13.000Z</time>
      </trkpt>
      <trkpt lat="42.974124848842620849609375" lon="-2.3828525282442569732666015625">
        <ele>906.20001220703125</ele>
        <time>2022-04-17T10:43:14.000Z</time>
      </trkpt>
      <trkpt lat="42.97411604784429073333740234375" lon="-2.38284389488399028778076171875">
        <ele>906.20001220703125</ele>
        <time>2022-04-17T10:43:15.000Z</time>
      </trkpt>
      <trkpt lat="42.97410883940756320953369140625" lon="-2.38283148966729640960693359375">
        <ele>906.20001220703125</ele>
        <time>2022-04-17T10:43:16.000Z</time>
      </trkpt>
      <trkpt lat="42.9741059057414531707763671875" lon="-2.38281874917447566986083984375">
        <ele>906.20001220703125</ele>
        <time>2022-04-17T10:43:17.000Z</time>
      </trkpt>
      <trkpt lat="42.97409861348569393157958984375" lon="-2.3828089423477649688720703125">
        <ele>906.4000244140625</ele>
        <time>2022-04-17T10:43:18.000Z</time>
      </trkpt>
      <trkpt lat="42.9740844480693340301513671875" lon="-2.3827992193400859832763671875">
        <ele>906.4000244140625</ele>
        <time>2022-04-17T10:43:19.000Z</time>
      </trkpt>
      <trkpt lat="42.97407983802258968353271484375" lon="-2.3827891610562801361083984375">
        <ele>906.4000244140625</ele>
        <time>2022-04-17T10:43:20.000Z</time>
      </trkpt>
      <trkpt lat="42.9740777425467967987060546875" lon="-2.382782958447933197021484375">
        <ele>906.5999755859375</ele>
        <time>2022-04-17T10:43:21.000Z</time>
      </trkpt>
      <trkpt lat="42.9740747250616550445556640625" lon="-2.38277700729668140411376953125">
        <ele>906.5999755859375</ele>
        <time>2022-04-17T10:43:22.000Z</time>
      </trkpt>
      <trkpt lat="42.9740717075765132904052734375" lon="-2.38276879303157329559326171875">
        <ele>906.79998779296875</ele>
        <time>2022-04-17T10:43:23.000Z</time>
      </trkpt>
      <trkpt lat="42.97406994737684726715087890625" lon="-2.3827579803764820098876953125">
        <ele>906.79998779296875</ele>
        <time>2022-04-17T10:43:24.000Z</time>
      </trkpt>
      <trkpt lat="42.97406709752976894378662109375" lon="-2.38275018520653247833251953125">
        <ele>907</ele>
        <time>2022-04-17T10:43:25.000Z</time>
      </trkpt>
      <trkpt lat="42.97406726516783237457275390625" lon="-2.38274146802723407745361328125">
        <ele>907</ele>
        <time>2022-04-17T10:43:26.000Z</time>
      </trkpt>
      <trkpt lat="42.97406852245330810546875" lon="-2.38273224793374538421630859375">
        <ele>907</ele>
        <time>2022-04-17T10:43:27.000Z</time>
      </trkpt>
      <trkpt lat="42.974070198833942413330078125" lon="-2.3827254585921764373779296875">
        <ele>907</ele>
        <time>2022-04-17T10:43:28.000Z</time>
      </trkpt>
      <trkpt lat="42.97408252023160457611083984375" lon="-2.3827175796031951904296875">
        <ele>907.20001220703125</ele>
        <time>2022-04-17T10:43:29.000Z</time>
      </trkpt>
      <trkpt lat="42.974088303744792938232421875" lon="-2.382710874080657958984375">
        <ele>907.20001220703125</ele>
        <time>2022-04-17T10:43:30.000Z</time>
      </trkpt>
      <trkpt lat="42.97409073449671268463134765625" lon="-2.3827050067484378814697265625">
        <ele>907.20001220703125</ele>
        <time>2022-04-17T10:43:31.000Z</time>
      </trkpt>
      <trkpt lat="42.974092997610569000244140625" lon="-2.38269721157848834991455078125">
        <ele>907.20001220703125</ele>
        <time>2022-04-17T10:43:32.000Z</time>
      </trkpt>
      <trkpt lat="42.9740948416292667388916015625" lon="-2.3826879076659679412841796875">
        <ele>907.20001220703125</ele>
        <time>2022-04-17T10:43:33.000Z</time>
      </trkpt>
      <trkpt lat="42.97409542836248874664306640625" lon="-2.38267458043992519378662109375">
        <ele>907.4000244140625</ele>
        <time>2022-04-17T10:43:34.000Z</time>
      </trkpt>
      <trkpt lat="42.9740948416292667388916015625" lon="-2.3826637677848339080810546875">
        <ele>907.4000244140625</ele>
        <time>2022-04-17T10:43:35.000Z</time>
      </trkpt>
      <trkpt lat="42.97410045750439167022705078125" lon="-2.38265362568199634552001953125">
        <ele>907.4000244140625</ele>
        <time>2022-04-17T10:43:36.000Z</time>
      </trkpt>
      <trkpt lat="42.9741055704653263092041015625" lon="-2.38264708779752254486083984375">
        <ele>907.4000244140625</ele>
        <time>2022-04-17T10:43:37.000Z</time>
      </trkpt>
      <trkpt lat="42.97410632483661174774169921875" lon="-2.38264624960720539093017578125">
        <ele>907.5999755859375</ele>
        <time>2022-04-17T10:43:38.000Z</time>
      </trkpt>
      <trkpt lat="42.974103726446628570556640625" lon="-2.38264306448400020599365234375">
        <ele>907.5999755859375</ele>
        <time>2022-04-17T10:43:39.000Z</time>
      </trkpt>
      <trkpt lat="42.974098026752471923828125" lon="-2.38264272920787334442138671875">
        <ele>907.5999755859375</ele>
        <time>2022-04-17T10:43:40.000Z</time>
      </trkpt>
      <trkpt lat="42.97409358434379100799560546875" lon="-2.38263719715178012847900390625">
        <ele>907.5999755859375</ele>
        <time>2022-04-17T10:43:41.000Z</time>
      </trkpt>
      <trkpt lat="42.97409333288669586181640625" lon="-2.38263250328600406646728515625">
        <ele>907.79998779296875</ele>
        <time>2022-04-17T10:43:42.000Z</time>
      </trkpt>
      <trkpt lat="42.97409333288669586181640625" lon="-2.38263015635311603546142578125">
        <ele>908</ele>
        <time>2022-04-17T10:43:43.000Z</time>
      </trkpt>
      <trkpt lat="42.97408922575414180755615234375" lon="-2.38262345083057880401611328125">
        <ele>908</ele>
        <time>2022-04-17T10:43:44.000Z</time>
      </trkpt>
      <trkpt lat="42.97408335842192173004150390625" lon="-2.38261775113642215728759765625">
        <ele>908</ele>
        <time>2022-04-17T10:43:45.000Z</time>
      </trkpt>
      <trkpt lat="42.97407564707100391387939453125" lon="-2.382616661489009857177734375">
        <ele>908.20001220703125</ele>
        <time>2022-04-17T10:43:46.000Z</time>
      </trkpt>
      <trkpt lat="42.9740680195391178131103515625" lon="-2.38260853104293346405029296875">
        <ele>908.20001220703125</ele>
        <time>2022-04-17T10:43:47.000Z</time>
      </trkpt>
      <trkpt lat="42.9740606434643268585205078125" lon="-2.38259696401655673980712890625">
        <ele>908.20001220703125</ele>
        <time>2022-04-17T10:43:48.000Z</time>
      </trkpt>
      <trkpt lat="42.9740536026656627655029296875" lon="-2.38258321769535541534423828125">
        <ele>908.20001220703125</ele>
        <time>2022-04-17T10:43:49.000Z</time>
      </trkpt>
      <trkpt lat="42.9740485735237598419189453125" lon="-2.38257098011672496795654296875">
        <ele>908.4000244140625</ele>
        <time>2022-04-17T10:43:50.000Z</time>
      </trkpt>
      <trkpt lat="42.9740452207624912261962890625" lon="-2.3825593292713165283203125">
        <ele>908.4000244140625</ele>
        <time>2022-04-17T10:43:51.000Z</time>
      </trkpt>
      <trkpt lat="42.9740445502102375030517578125" lon="-2.38255103118717670440673828125">
        <ele>908.5999755859375</ele>
        <time>2022-04-17T10:43:52.000Z</time>
      </trkpt>
      <trkpt lat="42.97404639422893524169921875" lon="-2.38254734314978122711181640625">
        <ele>908.5999755859375</ele>
        <time>2022-04-17T10:43:53.000Z</time>
      </trkpt>
      <trkpt lat="42.97404983080923557281494140625" lon="-2.3825427331030368804931640625">
        <ele>908.5999755859375</ele>
        <time>2022-04-17T10:43:54.000Z</time>
      </trkpt>
      <trkpt lat="42.97404932789504528045654296875" lon="-2.38254147581756114959716796875">
        <ele>908.5999755859375</ele>
        <time>2022-04-17T10:43:55.000Z</time>
      </trkpt>
      <trkpt lat="42.97404983080923557281494140625" lon="-2.3825403861701488494873046875">
        <ele>908.5999755859375</ele>
        <time>2022-04-17T10:43:56.000Z</time>
      </trkpt>
      <trkpt lat="42.97404698096215724945068359375" lon="-2.38253493793308734893798828125">
        <ele>908.79998779296875</ele>
        <time>2022-04-17T10:43:57.000Z</time>
      </trkpt>
      <trkpt lat="42.974044047296047210693359375" lon="-2.38252521492540836334228515625">
        <ele>908.79998779296875</ele>
        <time>2022-04-17T10:43:58.000Z</time>
      </trkpt>
      <trkpt lat="42.97403700649738311767578125" lon="-2.38251783885061740875244140625">
        <ele>909</ele>
        <time>2022-04-17T10:43:59.000Z</time>
      </trkpt>
      <trkpt lat="42.97403105534613132476806640625" lon="-2.382508032023906707763671875">
        <ele>909.20001220703125</ele>
        <time>2022-04-17T10:44:00.000Z</time>
      </trkpt>
      <trkpt lat="42.97402921132743358612060546875" lon="-2.382501326501369476318359375">
        <ele>909.20001220703125</ele>
        <time>2022-04-17T10:44:01.000Z</time>
      </trkpt>
      <trkpt lat="42.9740277864038944244384765625" lon="-2.382494620978832244873046875">
        <ele>909.4000244140625</ele>
        <time>2022-04-17T10:44:02.000Z</time>
      </trkpt>
      <trkpt lat="42.97402535565197467803955078125" lon="-2.3824840597808361053466796875">
        <ele>909.4000244140625</ele>
        <time>2022-04-17T10:44:03.000Z</time>
      </trkpt>
      <trkpt lat="42.97402401454746723175048828125" lon="-2.38247551023960113525390625">
        <ele>909.4000244140625</ele>
        <time>2022-04-17T10:44:04.000Z</time>
      </trkpt>
      <trkpt lat="42.97402552329003810882568359375" lon="-2.38246838562190532684326171875">
        <ele>909.5999755859375</ele>
        <time>2022-04-17T10:44:05.000Z</time>
      </trkpt>
      <trkpt lat="42.97402569092810153961181640625" lon="-2.382461763918399810791015625">
        <ele>909.5999755859375</ele>
        <time>2022-04-17T10:44:06.000Z</time>
      </trkpt>
      <trkpt lat="42.9740244336426258087158203125" lon="-2.382451035082340240478515625">
        <ele>909.5999755859375</ele>
        <time>2022-04-17T10:44:07.000Z</time>
      </trkpt>
      <trkpt lat="42.97402082942426204681396484375" lon="-2.38243787549436092376708984375">
        <ele>909.5999755859375</ele>
        <time>2022-04-17T10:44:08.000Z</time>
      </trkpt>
      <trkpt lat="42.97401445917785167694091796875" lon="-2.38242697902023792266845703125">
        <ele>909.5999755859375</ele>
        <time>2022-04-17T10:44:09.000Z</time>
      </trkpt>
      <trkpt lat="42.97400892712175846099853515625" lon="-2.38240987993776798248291015625">
        <ele>909.79998779296875</ele>
        <time>2022-04-17T10:44:10.000Z</time>
      </trkpt>
      <trkpt lat="42.97400490380823612213134765625" lon="-2.3823965527117252349853515625">
        <ele>910</ele>
        <time>2022-04-17T10:44:11.000Z</time>
      </trkpt>
      <trkpt lat="42.974005155265331268310546875" lon="-2.38239076919853687286376953125">
        <ele>910</ele>
        <time>2022-04-17T10:44:12.000Z</time>
      </trkpt>
      <trkpt lat="42.974002473056316375732421875" lon="-2.3823868297040462493896484375">
        <ele>910</ele>
        <time>2022-04-17T10:44:13.000Z</time>
      </trkpt>
      <trkpt lat="42.97399652190506458282470703125" lon="-2.38238356076180934906005859375">
        <ele>910.20001220703125</ele>
        <time>2022-04-17T10:44:14.000Z</time>
      </trkpt>
      <trkpt lat="42.97399484552443027496337890625" lon="-2.3823771066963672637939453125">
        <ele>910.20001220703125</ele>
        <time>2022-04-17T10:44:15.000Z</time>
      </trkpt>
      <trkpt lat="42.9739949293434619903564453125" lon="-2.38237216137349605560302734375">
        <ele>910.4000244140625</ele>
        <time>2022-04-17T10:44:16.000Z</time>
      </trkpt>
      <trkpt lat="42.9739942587912082672119140625" lon="-2.38236813805997371673583984375">
        <ele>910.5999755859375</ele>
        <time>2022-04-17T10:44:17.000Z</time>
      </trkpt>
      <trkpt lat="42.9739952646195888519287109375" lon="-2.3823657073080539703369140625">
        <ele>910.5999755859375</ele>
        <time>2022-04-17T10:44:18.000Z</time>
      </trkpt>
      <trkpt lat="42.973991073668003082275390625" lon="-2.3823583312332630157470703125">
        <ele>910.79998779296875</ele>
        <time>2022-04-17T10:44:19.000Z</time>
      </trkpt>
      <trkpt lat="42.97399082221090793609619140625" lon="-2.382346428930759429931640625">
        <ele>910.79998779296875</ele>
        <time>2022-04-17T10:44:20.000Z</time>
      </trkpt>
      <trkpt lat="42.97399216331541538238525390625" lon="-2.38233595155179500579833984375">
        <ele>911</ele>
        <time>2022-04-17T10:44:21.000Z</time>
      </trkpt>
      <trkpt lat="42.9739888943731784820556640625" lon="-2.38232471980154514312744140625">
        <ele>911</ele>
        <time>2022-04-17T10:44:22.000Z</time>
      </trkpt>
      <trkpt lat="42.973985038697719573974609375" lon="-2.38231600262224674224853515625">
        <ele>911</ele>
        <time>2022-04-17T10:44:23.000Z</time>
      </trkpt>
      <trkpt lat="42.97397724352777004241943359375" lon="-2.382304184138774871826171875">
        <ele>911.20001220703125</ele>
        <time>2022-04-17T10:44:24.000Z</time>
      </trkpt>
      <trkpt lat="42.973970957100391387939453125" lon="-2.3822976462543010711669921875">
        <ele>911.20001220703125</ele>
        <time>2022-04-17T10:44:25.000Z</time>
      </trkpt>
      <trkpt lat="42.973964251577854156494140625" lon="-2.382289431989192962646484375">
        <ele>911.20001220703125</ele>
        <time>2022-04-17T10:44:26.000Z</time>
      </trkpt>
      <trkpt lat="42.97395578585565090179443359375" lon="-2.38227912224829196929931640625">
        <ele>911.4000244140625</ele>
        <time>2022-04-17T10:44:27.000Z</time>
      </trkpt>
      <trkpt lat="42.97394690103828907012939453125" lon="-2.3822696506977081298828125">
        <ele>911.4000244140625</ele>
        <time>2022-04-17T10:44:28.000Z</time>
      </trkpt>
      <trkpt lat="42.97394715249538421630859375" lon="-2.38226269371807575225830078125">
        <ele>911.4000244140625</ele>
        <time>2022-04-17T10:44:29.000Z</time>
      </trkpt>
      <trkpt lat="42.9739479906857013702392578125" lon="-2.38225431181490421295166015625">
        <ele>911.5999755859375</ele>
        <time>2022-04-17T10:44:30.000Z</time>
      </trkpt>
      <trkpt lat="42.973942458629608154296875" lon="-2.38223972730338573455810546875">
        <ele>911.5999755859375</ele>
        <time>2022-04-17T10:44:31.000Z</time>
      </trkpt>
      <trkpt lat="42.97392896376550197601318359375" lon="-2.38222380168735980987548828125">
        <ele>911.5999755859375</ele>
        <time>2022-04-17T10:44:32.000Z</time>
      </trkpt>
      <trkpt lat="42.9739147983491420745849609375" lon="-2.3822061158716678619384765625">
        <ele>911.5999755859375</ele>
        <time>2022-04-17T10:44:33.000Z</time>
      </trkpt>
      <trkpt lat="42.9739050753414630889892578125" lon="-2.3821918666362762451171875">
        <ele>911.79998779296875</ele>
        <time>2022-04-17T10:44:34.000Z</time>
      </trkpt>
      <trkpt lat="42.97389929182827472686767578125" lon="-2.38218423910439014434814453125">
        <ele>911.79998779296875</ele>
        <time>2022-04-17T10:44:35.000Z</time>
      </trkpt>
      <trkpt lat="42.9738933406770229339599609375" lon="-2.38217971287667751312255859375">
        <ele>912</ele>
        <time>2022-04-17T10:44:36.000Z</time>
      </trkpt>
      <trkpt lat="42.97388386912643909454345703125" lon="-2.3821712471544742584228515625">
        <ele>912</ele>
        <time>2022-04-17T10:44:37.000Z</time>
      </trkpt>
      <trkpt lat="42.97386744059622287750244140625" lon="-2.38216630183160305023193359375">
        <ele>912</ele>
        <time>2022-04-17T10:44:38.000Z</time>
      </trkpt>
      <trkpt lat="42.97385402955114841461181640625" lon="-2.3821662180125713348388671875">
        <ele>912.20001220703125</ele>
        <time>2022-04-17T10:44:39.000Z</time>
      </trkpt>
      <trkpt lat="42.9738386906683444976806640625" lon="-2.38216043449938297271728515625">
        <ele>912.4000244140625</ele>
        <time>2022-04-17T10:44:40.000Z</time>
      </trkpt>
      <trkpt lat="42.9738239385187625885009765625" lon="-2.38215708173811435699462890625">
        <ele>912.5999755859375</ele>
        <time>2022-04-17T10:44:41.000Z</time>
      </trkpt>
      <trkpt lat="42.97380843199789524078369140625" lon="-2.38215540535748004913330078125">
        <ele>912.5999755859375</ele>
        <time>2022-04-17T10:44:42.000Z</time>
      </trkpt>
      <trkpt lat="42.97379971481859683990478515625" lon="-2.38215020857751369476318359375">
        <ele>912.79998779296875</ele>
        <time>2022-04-17T10:44:43.000Z</time>
      </trkpt>
      <trkpt lat="42.973792254924774169921875" lon="-2.38214400596916675567626953125">
        <ele>912.79998779296875</ele>
        <time>2022-04-17T10:44:44.000Z</time>
      </trkpt>
      <trkpt lat="42.97378563322126865386962890625" lon="-2.3821350373327732086181640625">
        <ele>913</ele>
        <time>2022-04-17T10:44:45.000Z</time>
      </trkpt>
      <trkpt lat="42.97377884387969970703125" lon="-2.38212053664028644561767578125">
        <ele>913</ele>
        <time>2022-04-17T10:44:46.000Z</time>
      </trkpt>
      <trkpt lat="42.9737739823758602142333984375" lon="-2.38210394047200679779052734375">
        <ele>913</ele>
        <time>2022-04-17T10:44:47.000Z</time>
      </trkpt>
      <trkpt lat="42.97377456910908222198486328125" lon="-2.38210025243461132049560546875">
        <ele>913.20001220703125</ele>
        <time>2022-04-17T10:44:48.000Z</time>
      </trkpt>
      <trkpt lat="42.97377674840390682220458984375" lon="-2.38210209645330905914306640625">
        <ele>913.20001220703125</ele>
        <time>2022-04-17T10:44:49.000Z</time>
      </trkpt>
      <trkpt lat="42.97377280890941619873046875" lon="-2.382101677358150482177734375">
        <ele>913.4000244140625</ele>
        <time>2022-04-17T10:44:50.000Z</time>
      </trkpt>
      <trkpt lat="42.97376149334013462066650390625" lon="-2.38210268318653106689453125">
        <ele>913.4000244140625</ele>
        <time>2022-04-17T10:44:51.000Z</time>
      </trkpt>
      <trkpt lat="42.97375160269439220428466796875" lon="-2.3821072094142436981201171875">
        <ele>913.4000244140625</ele>
        <time>2022-04-17T10:44:52.000Z</time>
      </trkpt>
      <trkpt lat="42.97374221496284008026123046875" lon="-2.382110059261322021484375">
        <ele>913.5999755859375</ele>
        <time>2022-04-17T10:44:53.000Z</time>
      </trkpt>
      <trkpt lat="42.97373148612678050994873046875" lon="-2.3821075446903705596923828125">
        <ele>913.5999755859375</ele>
        <time>2022-04-17T10:44:54.000Z</time>
      </trkpt>
      <trkpt lat="42.973720170557498931884765625" lon="-2.3821078799664974212646484375">
        <ele>913.5999755859375</ele>
        <time>2022-04-17T10:44:55.000Z</time>
      </trkpt>
      <trkpt lat="42.9737069271504878997802734375" lon="-2.382105030119419097900390625">
        <ele>913.5999755859375</ele>
        <time>2022-04-17T10:44:56.000Z</time>
      </trkpt>
      <trkpt lat="42.9736948572099208831787109375" lon="-2.3820988275110721588134765625">
        <ele>913.5999755859375</ele>
        <time>2022-04-17T10:44:57.000Z</time>
      </trkpt>
      <trkpt lat="42.97368773259222507476806640625" lon="-2.38209287635982036590576171875">
        <ele>913.79998779296875</ele>
        <time>2022-04-17T10:44:58.000Z</time>
      </trkpt>
      <trkpt lat="42.9736797697842121124267578125" lon="-2.38208550028502941131591796875">
        <ele>914</ele>
        <time>2022-04-17T10:44:59.000Z</time>
      </trkpt>
      <trkpt lat="42.97367230989038944244384765625" lon="-2.3820827342569828033447265625">
        <ele>914.20001220703125</ele>
        <time>2022-04-17T10:45:00.000Z</time>
      </trkpt>
      <trkpt lat="42.973662503063678741455078125" lon="-2.3820803873240947723388671875">
        <ele>914.20001220703125</ele>
        <time>2022-04-17T10:45:01.000Z</time>
      </trkpt>
      <trkpt lat="42.9736593179404735565185546875" lon="-2.38207879476249217987060546875">
        <ele>914.4000244140625</ele>
        <time>2022-04-17T10:45:02.000Z</time>
      </trkpt>
      <trkpt lat="42.97365655191242694854736328125" lon="-2.382077872753143310546875">
        <ele>914.5999755859375</ele>
        <time>2022-04-17T10:45:03.000Z</time>
      </trkpt>
      <trkpt lat="42.97365420497953891754150390625" lon="-2.3820790462195873260498046875">
        <ele>914.5999755859375</ele>
        <time>2022-04-17T10:45:04.000Z</time>
      </trkpt>
      <trkpt lat="42.97365018166601657867431640625" lon="-2.38208030350506305694580078125">
        <ele>914.5999755859375</ele>
        <time>2022-04-17T10:45:05.000Z</time>
      </trkpt>
      <trkpt lat="42.973644733428955078125" lon="-2.3820817284286022186279296875">
        <ele>914.79998779296875</ele>
        <time>2022-04-17T10:45:06.000Z</time>
      </trkpt>
      <trkpt lat="42.9736408777534961700439453125" lon="-2.382086925208568572998046875">
        <ele>914.79998779296875</ele>
        <time>2022-04-17T10:45:07.000Z</time>
      </trkpt>
      <trkpt lat="42.97363827936351299285888671875" lon="-2.3820914514362812042236328125">
        <ele>915</ele>
        <time>2022-04-17T10:45:08.000Z</time>
      </trkpt>
      <trkpt lat="42.973637022078037261962890625" lon="-2.38209539093077182769775390625">
        <ele>915.20001220703125</ele>
        <time>2022-04-17T10:45:09.000Z</time>
      </trkpt>
      <trkpt lat="42.9736348427832126617431640625" lon="-2.38209924660623073577880859375">
        <ele>915.20001220703125</ele>
        <time>2022-04-17T10:45:10.000Z</time>
      </trkpt>
      <trkpt lat="42.9736272990703582763671875" lon="-2.38210201263427734375">
        <ele>915.20001220703125</ele>
        <time>2022-04-17T10:45:11.000Z</time>
      </trkpt>
      <trkpt lat="42.97361665405333042144775390625" lon="-2.382103689014911651611328125">
        <ele>915.20001220703125</ele>
        <time>2022-04-17T10:45:12.000Z</time>
      </trkpt>
      <trkpt lat="42.973607517778873443603515625" lon="-2.382107041776180267333984375">
        <ele>915.20001220703125</ele>
        <time>2022-04-17T10:45:13.000Z</time>
      </trkpt>
      <trkpt lat="42.9735989682376384735107421875" lon="-2.38211332820355892181396484375">
        <ele>915.4000244140625</ele>
        <time>2022-04-17T10:45:14.000Z</time>
      </trkpt>
      <trkpt lat="42.97358379699289798736572265625" lon="-2.382119111716747283935546875">
        <ele>915.5999755859375</ele>
        <time>2022-04-17T10:45:15.000Z</time>
      </trkpt>
      <trkpt lat="42.97356636263430118560791015625" lon="-2.3821221292018890380859375">
        <ele>915.5999755859375</ele>
        <time>2022-04-17T10:45:16.000Z</time>
      </trkpt>
      <trkpt lat="42.97354557551443576812744140625" lon="-2.38212120719254016876220703125">
        <ele>915.5999755859375</ele>
        <time>2022-04-17T10:45:17.000Z</time>
      </trkpt>
      <trkpt lat="42.9735309071838855743408203125" lon="-2.38212103955447673797607421875">
        <ele>915.5999755859375</ele>
        <time>2022-04-17T10:45:18.000Z</time>
      </trkpt>
      <trkpt lat="42.97352135181427001953125" lon="-2.3821276612579822540283203125">
        <ele>915.79998779296875</ele>
        <time>2022-04-17T10:45:19.000Z</time>
      </trkpt>
      <trkpt lat="42.9735173285007476806640625" lon="-2.382136546075344085693359375">
        <ele>915.79998779296875</ele>
        <time>2022-04-17T10:45:20.000Z</time>
      </trkpt>
      <trkpt lat="42.97351288609206676483154296875" lon="-2.38214157521724700927734375">
        <ele>916</ele>
        <time>2022-04-17T10:45:21.000Z</time>
      </trkpt>
      <trkpt lat="42.97351087443530559539794921875" lon="-2.38214249722659587860107421875">
        <ele>916</ele>
        <time>2022-04-17T10:45:22.000Z</time>
      </trkpt>
      <trkpt lat="42.97351020388305187225341796875" lon="-2.38214484415948390960693359375">
        <ele>916.20001220703125</ele>
        <time>2022-04-17T10:45:23.000Z</time>
      </trkpt>
      <trkpt lat="42.9735027439892292022705078125" lon="-2.38214517943561077117919921875">
        <ele>916.4000244140625</ele>
        <time>2022-04-17T10:45:24.000Z</time>
      </trkpt>
      <trkpt lat="42.9734926857054233551025390625" lon="-2.38215071149170398712158203125">
        <ele>916.4000244140625</ele>
        <time>2022-04-17T10:45:25.000Z</time>
      </trkpt>
      <trkpt lat="42.9734856449067592620849609375" lon="-2.38215632736682891845703125">
        <ele>916.5999755859375</ele>
        <time>2022-04-17T10:45:26.000Z</time>
      </trkpt>
      <trkpt lat="42.9734832979738712310791015625" lon="-2.382163703441619873046875">
        <ele>916.79998779296875</ele>
        <time>2022-04-17T10:45:27.000Z</time>
      </trkpt>
      <trkpt lat="42.97347583808004856109619140625" lon="-2.38216898404061794281005859375">
        <ele>916.79998779296875</ele>
        <time>2022-04-17T10:45:28.000Z</time>
      </trkpt>
      <trkpt lat="42.973466031253337860107421875" lon="-2.38217116333544254302978515625">
        <ele>917</ele>
        <time>2022-04-17T10:45:29.000Z</time>
      </trkpt>
      <trkpt lat="42.9734558053314685821533203125" lon="-2.38217233680188655853271484375">
        <ele>917</ele>
        <time>2022-04-17T10:45:30.000Z</time>
      </trkpt>
      <trkpt lat="42.9734449088573455810546875" lon="-2.3821745999157428741455078125">
        <ele>917</ele>
        <time>2022-04-17T10:45:31.000Z</time>
      </trkpt>
      <trkpt lat="42.9734368622303009033203125" lon="-2.38218046724796295166015625">
        <ele>917.20001220703125</ele>
        <time>2022-04-17T10:45:32.000Z</time>
      </trkpt>
      <trkpt lat="42.97342621721327304840087890625" lon="-2.3821873404085636138916015625">
        <ele>917.4000244140625</ele>
        <time>2022-04-17T10:45:33.000Z</time>
      </trkpt>
      <trkpt lat="42.97341682948172092437744140625" lon="-2.38219547085464000701904296875">
        <ele>917.5999755859375</ele>
        <time>2022-04-17T10:45:34.000Z</time>
      </trkpt>
      <trkpt lat="42.97341079451143741607666015625" lon="-2.3822057805955410003662109375">
        <ele>917.79998779296875</ele>
        <time>2022-04-17T10:45:35.000Z</time>
      </trkpt>
      <trkpt lat="42.97340375371277332305908203125" lon="-2.38221533596515655517578125">
        <ele>917.79998779296875</ele>
        <time>2022-04-17T10:45:36.000Z</time>
      </trkpt>
      <trkpt lat="42.97339864075183868408203125" lon="-2.3822245560586452484130859375">
        <ele>917.79998779296875</ele>
        <time>2022-04-17T10:45:37.000Z</time>
      </trkpt>
      <trkpt lat="42.973391599953174591064453125" lon="-2.38222983665764331817626953125">
        <ele>917.79998779296875</ele>
        <time>2022-04-17T10:45:38.000Z</time>
      </trkpt>
      <trkpt lat="42.97338330186903476715087890625" lon="-2.382233440876007080078125">
        <ele>917.79998779296875</ele>
        <time>2022-04-17T10:45:39.000Z</time>
      </trkpt>
      <trkpt lat="42.9733778536319732666015625" lon="-2.38224375061690807342529296875">
        <ele>917.79998779296875</ele>
        <time>2022-04-17T10:45:40.000Z</time>
      </trkpt>
      <trkpt lat="42.97337709926068782806396484375" lon="-2.38226084969937801361083984375">
        <ele>917.79998779296875</ele>
        <time>2022-04-17T10:45:41.000Z</time>
      </trkpt>
      <trkpt lat="42.9733783565461635589599609375" lon="-2.38227325491607189178466796875">
        <ele>917.79998779296875</ele>
        <time>2022-04-17T10:45:42.000Z</time>
      </trkpt>
      <trkpt lat="42.97338120639324188232421875" lon="-2.3822830617427825927734375">
        <ele>918</ele>
        <time>2022-04-17T10:45:43.000Z</time>
      </trkpt>
      <trkpt lat="42.97337994910776615142822265625" lon="-2.38228918053209781646728515625">
        <ele>918</ele>
        <time>2022-04-17T10:45:44.000Z</time>
      </trkpt>
      <trkpt lat="42.97337584197521209716796875" lon="-2.38229320384562015533447265625">
        <ele>918.20001220703125</ele>
        <time>2022-04-17T10:45:45.000Z</time>
      </trkpt>
      <trkpt lat="42.97337391413748264312744140625" lon="-2.3822989873588085174560546875">
        <ele>918.20001220703125</ele>
        <time>2022-04-17T10:45:46.000Z</time>
      </trkpt>
      <trkpt lat="42.97337047755718231201171875" lon="-2.38230460323393344879150390625">
        <ele>918.20001220703125</ele>
        <time>2022-04-17T10:45:47.000Z</time>
      </trkpt>
      <trkpt lat="42.9733666218817234039306640625" lon="-2.38230795599520206451416015625">
        <ele>918.4000244140625</ele>
        <time>2022-04-17T10:45:48.000Z</time>
      </trkpt>
      <trkpt lat="42.97336435876786708831787109375" lon="-2.38231214694678783416748046875">
        <ele>918.79998779296875</ele>
        <time>2022-04-17T10:45:49.000Z</time>
      </trkpt>
      <trkpt lat="42.97336067073047161102294921875" lon="-2.3823179304599761962890625">
        <ele>919</ele>
        <time>2022-04-17T10:45:50.000Z</time>
      </trkpt>
      <trkpt lat="42.97335111536085605621337890625" lon="-2.38231633789837360382080078125">
        <ele>919.20001220703125</ele>
        <time>2022-04-17T10:45:51.000Z</time>
      </trkpt>
      <trkpt lat="42.97334340400993824005126953125" lon="-2.382316924631595611572265625">
        <ele>919.20001220703125</ele>
        <time>2022-04-17T10:45:52.000Z</time>
      </trkpt>
      <trkpt lat="42.97333636321127414703369140625" lon="-2.3823154158890247344970703125">
        <ele>919.20001220703125</ele>
        <time>2022-04-17T10:45:53.000Z</time>
      </trkpt>
      <trkpt lat="42.9733290709555149078369140625" lon="-2.3823187686502933502197265625">
        <ele>919.20001220703125</ele>
        <time>2022-04-17T10:45:54.000Z</time>
      </trkpt>
      <trkpt lat="42.97332446090877056121826171875" lon="-2.3823278211057186126708984375">
        <ele>919.4000244140625</ele>
        <time>2022-04-17T10:45:55.000Z</time>
      </trkpt>
      <trkpt lat="42.9733290709555149078369140625" lon="-2.38233561627566814422607421875">
        <ele>919.4000244140625</ele>
        <time>2022-04-17T10:45:56.000Z</time>
      </trkpt>
      <trkpt lat="42.973330579698085784912109375" lon="-2.3823459260165691375732421875">
        <ele>919.5999755859375</ele>
        <time>2022-04-17T10:45:57.000Z</time>
      </trkpt>
      <trkpt lat="42.97333183698356151580810546875" lon="-2.382355146110057830810546875">
        <ele>919.79998779296875</ele>
        <time>2022-04-17T10:45:58.000Z</time>
      </trkpt>
      <trkpt lat="42.973332591354846954345703125" lon="-2.38236830569803714752197265625">
        <ele>919.79998779296875</ele>
        <time>2022-04-17T10:45:59.000Z</time>
      </trkpt>
      <trkpt lat="42.9733300767838954925537109375" lon="-2.38237836398184299468994140625">
        <ele>919.79998779296875</ele>
        <time>2022-04-17T10:46:00.000Z</time>
      </trkpt>
      <trkpt lat="42.97332529909908771514892578125" lon="-2.3823868297040462493896484375">
        <ele>920</ele>
        <time>2022-04-17T10:46:01.000Z</time>
      </trkpt>
      <trkpt lat="42.9733196832239627838134765625" lon="-2.382394038140773773193359375">
        <ele>920</ele>
        <time>2022-04-17T10:46:02.000Z</time>
      </trkpt>
      <trkpt lat="42.97331674955785274505615234375" lon="-2.38239998929202556610107421875">
        <ele>920</ele>
        <time>2022-04-17T10:46:03.000Z</time>
      </trkpt>
      <trkpt lat="42.9733186773955821990966796875" lon="-2.382403425872325897216796875">
        <ele>920.20001220703125</ele>
        <time>2022-04-17T10:46:04.000Z</time>
      </trkpt>
      <trkpt lat="42.973321862518787384033203125" lon="-2.382409460842609405517578125">
        <ele>920.4000244140625</ele>
        <time>2022-04-17T10:46:05.000Z</time>
      </trkpt>
      <trkpt lat="42.9733237065374851226806640625" lon="-2.3824153281748294830322265625">
        <ele>920.5999755859375</ele>
        <time>2022-04-17T10:46:06.000Z</time>
      </trkpt>
      <trkpt lat="42.97332043759524822235107421875" lon="-2.38242178224027156829833984375">
        <ele>920.5999755859375</ele>
        <time>2022-04-17T10:46:07.000Z</time>
      </trkpt>
      <trkpt lat="42.9733163304626941680908203125" lon="-2.3824279010295867919921875">
        <ele>920.79998779296875</ele>
        <time>2022-04-17T10:46:08.000Z</time>
      </trkpt>
      <trkpt lat="42.9733099602162837982177734375" lon="-2.382431924343109130859375">
        <ele>920.79998779296875</ele>
        <time>2022-04-17T10:46:09.000Z</time>
      </trkpt>
      <trkpt lat="42.97330610454082489013671875" lon="-2.38243619911372661590576171875">
        <ele>921</ele>
        <time>2022-04-17T10:46:10.000Z</time>
      </trkpt>
      <trkpt lat="42.97330032102763652801513671875" lon="-2.38243661820888519287109375">
        <ele>921</ele>
        <time>2022-04-17T10:46:11.000Z</time>
      </trkpt>
      <trkpt lat="42.97329076565802097320556640625" lon="-2.38243150524795055389404296875">
        <ele>921</ele>
        <time>2022-04-17T10:46:12.000Z</time>
      </trkpt>
      <trkpt lat="42.97328288666903972625732421875" lon="-2.38242932595312595367431640625">
        <ele>921</ele>
        <time>2022-04-17T10:46:13.000Z</time>
      </trkpt>
      <trkpt lat="42.9732784442603588104248046875" lon="-2.3824300803244113922119140625">
        <ele>921.20001220703125</ele>
        <time>2022-04-17T10:46:14.000Z</time>
      </trkpt>
      <trkpt lat="42.973280288279056549072265625" lon="-2.3824364505708217620849609375">
        <ele>921.4000244140625</ele>
        <time>2022-04-17T10:46:15.000Z</time>
      </trkpt>
      <trkpt lat="42.97327819280326366424560546875" lon="-2.38244391046464443206787109375">
        <ele>921.4000244140625</ele>
        <time>2022-04-17T10:46:16.000Z</time>
      </trkpt>
      <trkpt lat="42.97326796688139438629150390625" lon="-2.38244256936013698577880859375">
        <ele>921.5999755859375</ele>
        <time>2022-04-17T10:46:17.000Z</time>
      </trkpt>
      <trkpt lat="42.97325648367404937744140625" lon="-2.38244424574077129364013671875">
        <ele>921.5999755859375</ele>
        <time>2022-04-17T10:46:18.000Z</time>
      </trkpt>
      <trkpt lat="42.973242066800594329833984375" lon="-2.38244877196848392486572265625">
        <ele>921.79998779296875</ele>
        <time>2022-04-17T10:46:19.000Z</time>
      </trkpt>
      <trkpt lat="42.9732274822890758514404296875" lon="-2.38245832733809947967529296875">
        <ele>921.79998779296875</ele>
        <time>2022-04-17T10:46:20.000Z</time>
      </trkpt>
      <trkpt lat="42.9732191003859043121337890625" lon="-2.38246754743158817291259765625">
        <ele>922</ele>
        <time>2022-04-17T10:46:21.000Z</time>
      </trkpt>
      <trkpt lat="42.973216585814952850341796875" lon="-2.38247509114444255828857421875">
        <ele>922</ele>
        <time>2022-04-17T10:46:22.000Z</time>
      </trkpt>
      <trkpt lat="42.97321197576820850372314453125" lon="-2.3824790306389331817626953125">
        <ele>922</ele>
        <time>2022-04-17T10:46:23.000Z</time>
      </trkpt>
      <trkpt lat="42.97320552170276641845703125" lon="-2.38248514942824840545654296875">
        <ele>922</ele>
        <time>2022-04-17T10:46:24.000Z</time>
      </trkpt>
      <trkpt lat="42.97320376150310039520263671875" lon="-2.38248833455145359039306640625">
        <ele>922.20001220703125</ele>
        <time>2022-04-17T10:46:25.000Z</time>
      </trkpt>
      <trkpt lat="42.97320091165602207183837890625" lon="-2.38249135203659534454345703125">
        <ele>922.20001220703125</ele>
        <time>2022-04-17T10:46:26.000Z</time>
      </trkpt>
      <trkpt lat="42.97319613397121429443359375" lon="-2.38249738700687885284423828125">
        <ele>922.4000244140625</ele>
        <time>2022-04-17T10:46:27.000Z</time>
      </trkpt>
      <trkpt lat="42.97318666242063045501708984375" lon="-2.38249654881656169891357421875">
        <ele>922.4000244140625</ele>
        <time>2022-04-17T10:46:28.000Z</time>
      </trkpt>
      <trkpt lat="42.97317978926002979278564453125" lon="-2.38249420188367366790771484375">
        <ele>922.5999755859375</ele>
        <time>2022-04-17T10:46:29.000Z</time>
      </trkpt>
      <trkpt lat="42.9731745086610317230224609375" lon="-2.38249420188367366790771484375">
        <ele>922.5999755859375</ele>
        <time>2022-04-17T10:46:30.000Z</time>
      </trkpt>
      <trkpt lat="42.97316805459558963775634765625" lon="-2.38249537535011768341064453125">
        <ele>922.79998779296875</ele>
        <time>2022-04-17T10:46:31.000Z</time>
      </trkpt>
      <trkpt lat="42.97316797077655792236328125" lon="-2.38249939866364002227783203125">
        <ele>922.79998779296875</ele>
        <time>2022-04-17T10:46:32.000Z</time>
      </trkpt>
      <trkpt lat="42.97317760996520519256591796875" lon="-2.38250962458550930023193359375">
        <ele>923</ele>
        <time>2022-04-17T10:46:33.000Z</time>
      </trkpt>
      <trkpt lat="42.9731833934783935546875" lon="-2.38252152688801288604736328125">
        <ele>923</ele>
        <time>2022-04-17T10:46:34.000Z</time>
      </trkpt>
      <trkpt lat="42.97319035045802593231201171875" lon="-2.382527478039264678955078125">
        <ele>923.20001220703125</ele>
        <time>2022-04-17T10:46:35.000Z</time>
      </trkpt>
      <trkpt lat="42.97319605015218257904052734375" lon="-2.38253208808600902557373046875">
        <ele>923.4000244140625</ele>
        <time>2022-04-17T10:46:36.000Z</time>
      </trkpt>
      <trkpt lat="42.97319856472313404083251953125" lon="-2.38253275863826274871826171875">
        <ele>923.4000244140625</ele>
        <time>2022-04-17T10:46:37.000Z</time>
      </trkpt>
      <trkpt lat="42.97319990582764148712158203125" lon="-2.38253259100019931793212890625">
        <ele>923.4000244140625</ele>
        <time>2022-04-17T10:46:38.000Z</time>
      </trkpt>
      <trkpt lat="42.973201163113117218017578125" lon="-2.38253158517181873321533203125">
        <ele>923.5999755859375</ele>
        <time>2022-04-17T10:46:39.000Z</time>
      </trkpt>
      <trkpt lat="42.9732035100460052490234375" lon="-2.38253309391438961029052734375">
        <ele>923.5999755859375</ele>
        <time>2022-04-17T10:46:40.000Z</time>
      </trkpt>
      <trkpt lat="42.97320141457021236419677734375" lon="-2.3825356923043727874755859375">
        <ele>923.5999755859375</ele>
        <time>2022-04-17T10:46:41.000Z</time>
      </trkpt>
      <trkpt lat="42.973195798695087432861328125" lon="-2.38253996707499027252197265625">
        <ele>923.5999755859375</ele>
        <time>2022-04-17T10:46:42.000Z</time>
      </trkpt>
      <trkpt lat="42.973185740411281585693359375" lon="-2.38254080526530742645263671875">
        <ele>923.79998779296875</ele>
        <time>2022-04-17T10:46:43.000Z</time>
      </trkpt>
      <trkpt lat="42.9731740057468414306640625" lon="-2.38254331983625888824462890625">
        <ele>923.79998779296875</ele>
        <time>2022-04-17T10:46:44.000Z</time>
      </trkpt>
      <trkpt lat="42.97316671349108219146728515625" lon="-2.38254734314978122711181640625">
        <ele>923.79998779296875</ele>
        <time>2022-04-17T10:46:45.000Z</time>
      </trkpt>
      <trkpt lat="42.9731604270637035369873046875" lon="-2.382550947368144989013671875">
        <ele>923.79998779296875</ele>
        <time>2022-04-17T10:46:46.000Z</time>
      </trkpt>
      <trkpt lat="42.97315598465502262115478515625" lon="-2.38255731761455535888671875">
        <ele>923.79998779296875</ele>
        <time>2022-04-17T10:46:47.000Z</time>
      </trkpt>
      <trkpt lat="42.97315296716988086700439453125" lon="-2.38256427459418773651123046875">
        <ele>923.79998779296875</ele>
        <time>2022-04-17T10:46:48.000Z</time>
      </trkpt>
      <trkpt lat="42.9731513746082782745361328125" lon="-2.38256813026964664459228515625">
        <ele>923.79998779296875</ele>
        <time>2022-04-17T10:46:49.000Z</time>
      </trkpt>
      <trkpt lat="42.9731453396379947662353515625" lon="-2.38257047720253467559814453125">
        <ele>924</ele>
        <time>2022-04-17T10:46:50.000Z</time>
      </trkpt>
      <trkpt lat="42.9731379635632038116455078125" lon="-2.382570393383502960205078125">
        <ele>924.20001220703125</ele>
        <time>2022-04-17T10:46:51.000Z</time>
      </trkpt>
      <trkpt lat="42.97313016839325428009033203125" lon="-2.382569052278995513916015625">
        <ele>924.20001220703125</ele>
        <time>2022-04-17T10:46:52.000Z</time>
      </trkpt>
      <trkpt lat="42.9731201939284801483154296875" lon="-2.38256913609802722930908203125">
        <ele>924.20001220703125</ele>
        <time>2022-04-17T10:46:53.000Z</time>
      </trkpt>
      <trkpt lat="42.97311558388173580169677734375" lon="-2.38257332704961299896240234375">
        <ele>924.20001220703125</ele>
        <time>2022-04-17T10:46:54.000Z</time>
      </trkpt>
      <trkpt lat="42.9731098003685474395751953125" lon="-2.3825809545814990997314453125">
        <ele>924.4000244140625</ele>
        <time>2022-04-17T10:46:55.000Z</time>
      </trkpt>
      <trkpt lat="42.9731024242937564849853515625" lon="-2.38258673809468746185302734375">
        <ele>924.4000244140625</ele>
        <time>2022-04-17T10:46:56.000Z</time>
      </trkpt>
      <trkpt lat="42.97309446148574352264404296875" lon="-2.3825910128653049468994140625">
        <ele>924.4000244140625</ele>
        <time>2022-04-17T10:46:57.000Z</time>
      </trkpt>
      <trkpt lat="42.97308708541095256805419921875" lon="-2.382594533264636993408203125">
        <ele>924.4000244140625</ele>
        <time>2022-04-17T10:46:58.000Z</time>
      </trkpt>
      <trkpt lat="42.9730759374797344207763671875" lon="-2.38259847275912761688232421875">
        <ele>924.5999755859375</ele>
        <time>2022-04-17T10:46:59.000Z</time>
      </trkpt>
      <trkpt lat="42.97306411899626255035400390625" lon="-2.38260149024426937103271484375">
        <ele>924.5999755859375</ele>
        <time>2022-04-17T10:47:00.000Z</time>
      </trkpt>
      <trkpt lat="42.97305640764534473419189453125" lon="-2.3826062679290771484375">
        <ele>924.5999755859375</ele>
        <time>2022-04-17T10:47:01.000Z</time>
      </trkpt>
      <trkpt lat="42.97304919920861721038818359375" lon="-2.38260827958583831787109375">
        <ele>924.5999755859375</ele>
        <time>2022-04-17T10:47:02.000Z</time>
      </trkpt>
      <trkpt lat="42.9730425775051116943359375" lon="-2.3826101236045360565185546875">
        <ele>924.5999755859375</ele>
        <time>2022-04-17T10:47:03.000Z</time>
      </trkpt>
      <trkpt lat="42.973038218915462493896484375" lon="-2.382615320384502410888671875">
        <ele>924.79998779296875</ele>
        <time>2022-04-17T10:47:04.000Z</time>
      </trkpt>
      <trkpt lat="42.973030842840671539306640625" lon="-2.38261657766997814178466796875">
        <ele>924.79998779296875</ele>
        <time>2022-04-17T10:47:05.000Z</time>
      </trkpt>
      <trkpt lat="42.9730189405381679534912109375" lon="-2.3826129734516143798828125">
        <ele>924.79998779296875</ele>
        <time>2022-04-17T10:47:06.000Z</time>
      </trkpt>
      <trkpt lat="42.9730065353214740753173828125" lon="-2.38260316662490367889404296875">
        <ele>925</ele>
        <time>2022-04-17T10:47:07.000Z</time>
      </trkpt>
      <trkpt lat="42.9729948006570339202880859375" lon="-2.38259227015078067779541015625">
        <ele>925.20001220703125</ele>
        <time>2022-04-17T10:47:08.000Z</time>
      </trkpt>
      <trkpt lat="42.97298382036387920379638671875" lon="-2.382583133876323699951171875">
        <ele>925.20001220703125</ele>
        <time>2022-04-17T10:47:09.000Z</time>
      </trkpt>
      <trkpt lat="42.972973845899105072021484375" lon="-2.38257785327732563018798828125">
        <ele>925.4000244140625</ele>
        <time>2022-04-17T10:47:10.000Z</time>
      </trkpt>
      <trkpt lat="42.97296412289142608642578125" lon="-2.382575087249279022216796875">
        <ele>925.4000244140625</ele>
        <time>2022-04-17T10:47:11.000Z</time>
      </trkpt>
      <trkpt lat="42.97295565716922283172607421875" lon="-2.38257483579218387603759765625">
        <ele>925.5999755859375</ele>
        <time>2022-04-17T10:47:12.000Z</time>
      </trkpt>
      <trkpt lat="42.9729487001895904541015625" lon="-2.38257475197315216064453125">
        <ele>925.5999755859375</ele>
        <time>2022-04-17T10:47:13.000Z</time>
      </trkpt>
      <trkpt lat="42.972945012152194976806640625" lon="-2.38257651217281818389892578125">
        <ele>925.5999755859375</ele>
        <time>2022-04-17T10:47:14.000Z</time>
      </trkpt>
      <trkpt lat="42.9729428328573703765869140625" lon="-2.3825752548873424530029296875">
        <ele>925.79998779296875</ele>
        <time>2022-04-17T10:47:15.000Z</time>
      </trkpt>
      <trkpt lat="42.97294425778090953826904296875" lon="-2.38257550634443759918212890625">
        <ele>925.79998779296875</ele>
        <time>2022-04-17T10:47:16.000Z</time>
      </trkpt>
      <trkpt lat="42.9729465208947658538818359375" lon="-2.3825755901634693145751953125">
        <ele>925.79998779296875</ele>
        <time>2022-04-17T10:47:17.000Z</time>
      </trkpt>
      <trkpt lat="42.972950041294097900390625" lon="-2.3825749196112155914306640625">
        <ele>926</ele>
        <time>2022-04-17T10:47:18.000Z</time>
      </trkpt>
      <trkpt lat="42.97295029275119304656982421875" lon="-2.3825776018202304840087890625">
        <ele>926</ele>
        <time>2022-04-17T10:47:19.000Z</time>
      </trkpt>
      <trkpt lat="42.97295331023633480072021484375" lon="-2.3825826309621334075927734375">
        <ele>926.20001220703125</ele>
        <time>2022-04-17T10:47:20.000Z</time>
      </trkpt>
      <trkpt lat="42.97295783646404743194580078125" lon="-2.38258791156113147735595703125">
        <ele>926.4000244140625</ele>
        <time>2022-04-17T10:47:21.000Z</time>
      </trkpt>
      <trkpt lat="42.97296009957790374755859375" lon="-2.382595203816890716552734375">
        <ele>926.4000244140625</ele>
        <time>2022-04-17T10:47:22.000Z</time>
      </trkpt>
      <trkpt lat="42.97296118922531604766845703125" lon="-2.38260450772941112518310546875">
        <ele>926.4000244140625</ele>
        <time>2022-04-17T10:47:23.000Z</time>
      </trkpt>
      <trkpt lat="42.9729606024920940399169921875" lon="-2.38261339254677295684814453125">
        <ele>926.4000244140625</ele>
        <time>2022-04-17T10:47:24.000Z</time>
      </trkpt>
      <trkpt lat="42.9729606024920940399169921875" lon="-2.38261339254677295684814453125">
        <ele>926.4000244140625</ele>
        <time>2022-04-17T10:47:25.000Z</time>
      </trkpt>
      <trkpt lat="42.9729606024920940399169921875" lon="-2.38261339254677295684814453125">
        <ele>926.4000244140625</ele>
        <time>2022-04-17T10:47:26.000Z</time>
      </trkpt>
      <trkpt lat="42.9729606024920940399169921875" lon="-2.38261339254677295684814453125">
        <ele>926.4000244140625</ele>
        <time>2022-04-17T10:47:27.000Z</time>
      </trkpt>
      <trkpt lat="42.9729606024920940399169921875" lon="-2.38261339254677295684814453125">
        <ele>926.4000244140625</ele>
        <time>2022-04-17T10:47:28.000Z</time>
      </trkpt>
      <trkpt lat="42.9729606024920940399169921875" lon="-2.38261339254677295684814453125">
        <ele>926.4000244140625</ele>
        <time>2022-04-17T10:47:29.000Z</time>
      </trkpt>
      <trkpt lat="42.9729606024920940399169921875" lon="-2.38261339254677295684814453125">
        <ele>926.4000244140625</ele>
        <time>2022-04-17T10:47:30.000Z</time>
      </trkpt>
      <trkpt lat="42.9729606024920940399169921875" lon="-2.38261339254677295684814453125">
        <ele>926.4000244140625</ele>
        <time>2022-04-17T10:47:31.000Z</time>
      </trkpt>
      <trkpt lat="42.9729606024920940399169921875" lon="-2.38261339254677295684814453125">
        <ele>926.4000244140625</ele>
        <time>2022-04-17T10:47:32.000Z</time>
      </trkpt>
      <trkpt lat="42.9729606024920940399169921875" lon="-2.38261339254677295684814453125">
        <ele>926.4000244140625</ele>
        <time>2022-04-17T10:47:33.000Z</time>
      </trkpt>
      <trkpt lat="42.9729606024920940399169921875" lon="-2.38261339254677295684814453125">
        <ele>926.4000244140625</ele>
        <time>2022-04-17T10:47:34.000Z</time>
      </trkpt>
      <trkpt lat="42.97296009957790374755859375" lon="-2.38261339254677295684814453125">
        <ele>926.4000244140625</ele>
        <time>2022-04-17T10:47:35.000Z</time>
      </trkpt>
      <trkpt lat="42.97295800410211086273193359375" lon="-2.38261339254677295684814453125">
        <ele>926.4000244140625</ele>
        <time>2022-04-17T10:47:36.000Z</time>
      </trkpt>
      <trkpt lat="42.97295398078858852386474609375" lon="-2.38261339254677295684814453125">
        <ele>926.4000244140625</ele>
        <time>2022-04-17T10:47:37.000Z</time>
      </trkpt>
      <trkpt lat="42.97295331023633480072021484375" lon="-2.38261087797582149505615234375">
        <ele>926.4000244140625</ele>
        <time>2022-04-17T10:47:38.000Z</time>
      </trkpt>
      <trkpt lat="42.9729505442082881927490234375" lon="-2.38260501064360141754150390625">
        <ele>926.4000244140625</ele>
        <time>2022-04-17T10:47:39.000Z</time>
      </trkpt>
      <trkpt lat="42.972950041294097900390625" lon="-2.382602579891681671142578125">
        <ele>926.4000244140625</ele>
        <time>2022-04-17T10:47:40.000Z</time>
      </trkpt>
      <trkpt lat="42.9729488678276538848876953125" lon="-2.38259696401655673980712890625">
        <ele>926.4000244140625</ele>
        <time>2022-04-17T10:47:41.000Z</time>
      </trkpt>
      <trkpt lat="42.97294668853282928466796875" lon="-2.3825953714549541473388671875">
        <ele>926.5999755859375</ele>
        <time>2022-04-17T10:47:42.000Z</time>
      </trkpt>
      <trkpt lat="42.97294442541897296905517578125" lon="-2.38259377889335155487060546875">
        <ele>926.5999755859375</ele>
        <time>2022-04-17T10:47:43.000Z</time>
      </trkpt>
      <trkpt lat="42.9729398153722286224365234375" lon="-2.38259076140820980072021484375">
        <ele>926.5999755859375</ele>
        <time>2022-04-17T10:47:44.000Z</time>
      </trkpt>
      <trkpt lat="42.97292933799326419830322265625" lon="-2.38258925266563892364501953125">
        <ele>926.5999755859375</ele>
        <time>2022-04-17T10:47:45.000Z</time>
      </trkpt>
      <trkpt lat="42.972922213375568389892578125" lon="-2.38258908502757549285888671875">
        <ele>926.79998779296875</ele>
        <time>2022-04-17T10:47:46.000Z</time>
      </trkpt>
      <trkpt lat="42.9729084670543670654296875" lon="-2.3825853131711483001708984375">
        <ele>926.79998779296875</ele>
        <time>2022-04-17T10:47:47.000Z</time>
      </trkpt>
      <trkpt lat="42.97289111651480197906494140625" lon="-2.3825802840292453765869140625">
        <ele>926.79998779296875</ele>
        <time>2022-04-17T10:47:48.000Z</time>
      </trkpt>
      <trkpt lat="42.9728761129081249237060546875" lon="-2.38257768563926219940185546875">
        <ele>926.79998779296875</ele>
        <time>2022-04-17T10:47:49.000Z</time>
      </trkpt>
      <trkpt lat="42.9728548228740692138671875" lon="-2.38256813026964664459228515625">
        <ele>927</ele>
        <time>2022-04-17T10:47:50.000Z</time>
      </trkpt>
      <trkpt lat="42.97283009625971317291259765625" lon="-2.38255907781422138214111328125">
        <ele>927</ele>
        <time>2022-04-17T10:47:51.000Z</time>
      </trkpt>
      <trkpt lat="42.97280997969210147857666015625" lon="-2.382556982338428497314453125">
        <ele>927</ele>
        <time>2022-04-17T10:47:52.000Z</time>
      </trkpt>
      <trkpt lat="42.9727852530777454376220703125" lon="-2.38255061209201812744140625">
        <ele>927.20001220703125</ele>
        <time>2022-04-17T10:47:53.000Z</time>
      </trkpt>
      <trkpt lat="42.9727614484727382659912109375" lon="-2.38254382275044918060302734375">
        <ele>927.4000244140625</ele>
        <time>2022-04-17T10:47:54.000Z</time>
      </trkpt>
      <trkpt lat="42.9727363027632236480712890625" lon="-2.38253527320921421051025390625">
        <ele>927.4000244140625</ele>
        <time>2022-04-17T10:47:55.000Z</time>
      </trkpt>
      <trkpt lat="42.972714342176914215087890625" lon="-2.382523454725742340087890625">
        <ele>927.5999755859375</ele>
        <time>2022-04-17T10:47:56.000Z</time>
      </trkpt>
      <trkpt lat="42.97270394861698150634765625" lon="-2.38251666538417339324951171875">
        <ele>927.5999755859375</ele>
        <time>2022-04-17T10:47:57.000Z</time>
      </trkpt>
      <trkpt lat="42.97269397415220737457275390625" lon="-2.3825115524232387542724609375">
        <ele>927.79998779296875</ele>
        <time>2022-04-17T10:47:58.000Z</time>
      </trkpt>
      <trkpt lat="42.97268307767808437347412109375" lon="-2.38250643946230411529541015625">
        <ele>927.79998779296875</ele>
        <time>2022-04-17T10:47:59.000Z</time>
      </trkpt>
      <trkpt lat="42.97267042100429534912109375" lon="-2.38249973393976688385009765625">
        <ele>927.79998779296875</ele>
        <time>2022-04-17T10:48:00.000Z</time>
      </trkpt>
      <trkpt lat="42.97265608794987201690673828125" lon="-2.3824924416840076446533203125">
        <ele>927.79998779296875</ele>
        <time>2022-04-17T10:48:01.000Z</time>
      </trkpt>
      <trkpt lat="42.97264083288609981536865234375" lon="-2.3824857361614704132080078125">
        <ele>927.79998779296875</ele>
        <time>2022-04-17T10:48:02.000Z</time>
      </trkpt>
      <trkpt lat="42.972625158727169036865234375" lon="-2.38247944973409175872802734375">
        <ele>928</ele>
        <time>2022-04-17T10:48:03.000Z</time>
      </trkpt>
      <trkpt lat="42.97261719591915607452392578125" lon="-2.3824813775718212127685546875">
        <ele>928</ele>
        <time>2022-04-17T10:48:04.000Z</time>
      </trkpt>
      <trkpt lat="42.97260613180696964263916015625" lon="-2.382478527724742889404296875">
        <ele>928.20001220703125</ele>
        <time>2022-04-17T10:48:05.000Z</time>
      </trkpt>
      <trkpt lat="42.9725961573421955108642578125" lon="-2.38247492350637912750244140625">
        <ele>928.20001220703125</ele>
        <time>2022-04-17T10:48:06.000Z</time>
      </trkpt>
      <trkpt lat="42.9725854285061359405517578125" lon="-2.38247358240187168121337890625">
        <ele>928.4000244140625</ele>
        <time>2022-04-17T10:48:07.000Z</time>
      </trkpt>
      <trkpt lat="42.97257461585104465484619140625" lon="-2.38247190602123737335205078125">
        <ele>928.4000244140625</ele>
        <time>2022-04-17T10:48:08.000Z</time>
      </trkpt>
      <trkpt lat="42.9725669883191585540771484375" lon="-2.3824716545641422271728515625">
        <ele>928.5999755859375</ele>
        <time>2022-04-17T10:48:09.000Z</time>
      </trkpt>
      <trkpt lat="42.97256254591047763824462890625" lon="-2.38247442059218883514404296875">
        <ele>928.5999755859375</ele>
        <time>2022-04-17T10:48:10.000Z</time>
      </trkpt>
      <trkpt lat="42.97255701385438442230224609375" lon="-2.3824719898402690887451171875">
        <ele>928.79998779296875</ele>
        <time>2022-04-17T10:48:11.000Z</time>
      </trkpt>
      <trkpt lat="42.97254578210413455963134765625" lon="-2.38246721215546131134033203125">
        <ele>928.79998779296875</ele>
        <time>2022-04-17T10:48:12.000Z</time>
      </trkpt>
      <trkpt lat="42.9725361429154872894287109375" lon="-2.382464446127414703369140625">
        <ele>928.79998779296875</ele>
        <time>2022-04-17T10:48:13.000Z</time>
      </trkpt>
      <trkpt lat="42.9725260846316814422607421875" lon="-2.38245732150971889495849609375">
        <ele>929</ele>
        <time>2022-04-17T10:48:14.000Z</time>
      </trkpt>
      <trkpt lat="42.972517199814319610595703125" lon="-2.38244843669235706329345703125">
        <ele>929</ele>
        <time>2022-04-17T10:48:15.000Z</time>
      </trkpt>
      <trkpt lat="42.97251191921532154083251953125" lon="-2.382442988455295562744140625">
        <ele>929</ele>
        <time>2022-04-17T10:48:16.000Z</time>
      </trkpt>
      <trkpt lat="42.97250605188310146331787109375" lon="-2.3824384622275829315185546875">
        <ele>929.20001220703125</ele>
        <time>2022-04-17T10:48:17.000Z</time>
      </trkpt>
      <trkpt lat="42.972496412694454193115234375" lon="-2.38243703730404376983642578125">
        <ele>929.20001220703125</ele>
        <time>2022-04-17T10:48:18.000Z</time>
      </trkpt>
      <trkpt lat="42.97247990034520626068115234375" lon="-2.3824287392199039459228515625">
        <ele>929.4000244140625</ele>
        <time>2022-04-17T10:48:19.000Z</time>
      </trkpt>
      <trkpt lat="42.97246246598660945892333984375" lon="-2.3824159987270832061767578125">
        <ele>929.4000244140625</ele>
        <time>2022-04-17T10:48:20.000Z</time>
      </trkpt>
      <trkpt lat="42.972451150417327880859375" lon="-2.38241055049002170562744140625">
        <ele>929.5999755859375</ele>
        <time>2022-04-17T10:48:21.000Z</time>
      </trkpt>
      <trkpt lat="42.97245978377759456634521484375" lon="-2.3824210278689861297607421875">
        <ele>929.5999755859375</ele>
        <time>2022-04-17T10:48:22.000Z</time>
      </trkpt>
      <trkpt lat="42.9724576883018016815185546875" lon="-2.382416166365146636962890625">
        <ele>929.79998779296875</ele>
        <time>2022-04-17T10:48:23.000Z</time>
      </trkpt>
      <trkpt lat="42.97244922257959842681884765625" lon="-2.3824076168239116668701171875">
        <ele>929.79998779296875</ele>
        <time>2022-04-17T10:48:24.000Z</time>
      </trkpt>
      <trkpt lat="42.97244419343769550323486328125" lon="-2.38240283913910388946533203125">
        <ele>929.79998779296875</ele>
        <time>2022-04-17T10:48:25.000Z</time>
      </trkpt>
      <trkpt lat="42.97244989313185214996337890625" lon="-2.382400743663311004638671875">
        <ele>929.79998779296875</ele>
        <time>2022-04-17T10:48:26.000Z</time>
      </trkpt>
      <trkpt lat="42.97245559282600879669189453125" lon="-2.382395379245281219482421875">
        <ele>930</ele>
        <time>2022-04-17T10:48:27.000Z</time>
      </trkpt>
      <trkpt lat="42.9724509827792644500732421875" lon="-2.3823888413608074188232421875">
        <ele>930</ele>
        <time>2022-04-17T10:48:28.000Z</time>
      </trkpt>
      <trkpt lat="42.97244335524737834930419921875" lon="-2.382379956543445587158203125">
        <ele>930</ele>
        <time>2022-04-17T10:48:29.000Z</time>
      </trkpt>
      <trkpt lat="42.9724332131445407867431640625" lon="-2.3823724128305912017822265625">
        <ele>930</ele>
        <time>2022-04-17T10:48:30.000Z</time>
      </trkpt>
      <trkpt lat="42.97242290340363979339599609375" lon="-2.382371909916400909423828125">
        <ele>930.20001220703125</ele>
        <time>2022-04-17T10:48:31.000Z</time>
      </trkpt>
      <trkpt lat="42.97241427004337310791015625" lon="-2.38237501122057437896728515625">
        <ele>930.4000244140625</ele>
        <time>2022-04-17T10:48:32.000Z</time>
      </trkpt>
      <trkpt lat="42.97240697778761386871337890625" lon="-2.38238741643726825714111328125">
        <ele>930.4000244140625</ele>
        <time>2022-04-17T10:48:33.000Z</time>
      </trkpt>
      <trkpt lat="42.9724114201962947845458984375" lon="-2.3823915235698223114013671875">
        <ele>930.5999755859375</ele>
        <time>2022-04-17T10:48:34.000Z</time>
      </trkpt>
      <trkpt lat="42.97242357395589351654052734375" lon="-2.38240585662424564361572265625">
        <ele>930.5999755859375</ele>
        <time>2022-04-17T10:48:35.000Z</time>
      </trkpt>
      <trkpt lat="42.97244167886674404144287109375" lon="-2.38241851329803466796875">
        <ele>930.79998779296875</ele>
        <time>2022-04-17T10:48:36.000Z</time>
      </trkpt>
      <trkpt lat="42.97245643101632595062255859375" lon="-2.3824346065521240234375">
        <ele>930.79998779296875</ele>
        <time>2022-04-17T10:48:37.000Z</time>
      </trkpt>
      <trkpt lat="42.9724650643765926361083984375" lon="-2.38243955187499523162841796875">
        <ele>930.79998779296875</ele>
        <time>2022-04-17T10:48:38.000Z</time>
      </trkpt>
      <trkpt lat="42.97246816568076610565185546875" lon="-2.3824414797127246856689453125">
        <ele>931</ele>
        <time>2022-04-17T10:48:39.000Z</time>
      </trkpt>
      <trkpt lat="42.97246917150914669036865234375" lon="-2.382442317903041839599609375">
        <ele>931</ele>
        <time>2022-04-17T10:48:40.000Z</time>
      </trkpt>
      <trkpt lat="42.97246917150914669036865234375" lon="-2.382442317903041839599609375">
        <ele>931</ele>
        <time>2022-04-17T10:48:41.000Z</time>
      </trkpt>
      <trkpt lat="42.97246917150914669036865234375" lon="-2.382442317903041839599609375">
        <ele>931</ele>
        <time>2022-04-17T10:48:42.000Z</time>
      </trkpt>
      <trkpt lat="42.97246917150914669036865234375" lon="-2.382442317903041839599609375">
        <ele>931</ele>
        <time>2022-04-17T10:48:43.000Z</time>
      </trkpt>
      <trkpt lat="42.97246917150914669036865234375" lon="-2.382442317903041839599609375">
        <ele>931</ele>
        <time>2022-04-17T10:48:44.000Z</time>
      </trkpt>
      <trkpt lat="42.97246917150914669036865234375" lon="-2.382442317903041839599609375">
        <ele>931</ele>
        <time>2022-04-17T10:48:45.000Z</time>
      </trkpt>
      <trkpt lat="42.97246917150914669036865234375" lon="-2.382442317903041839599609375">
        <ele>931</ele>
        <time>2022-04-17T10:48:46.000Z</time>
      </trkpt>
      <trkpt lat="42.97246917150914669036865234375" lon="-2.382442317903041839599609375">
        <ele>931</ele>
        <time>2022-04-17T10:48:47.000Z</time>
      </trkpt>
      <trkpt lat="42.97246917150914669036865234375" lon="-2.382442317903041839599609375">
        <ele>931</ele>
        <time>2022-04-17T10:48:48.000Z</time>
      </trkpt>
      <trkpt lat="42.97246917150914669036865234375" lon="-2.382442317903041839599609375">
        <ele>931</ele>
        <time>2022-04-17T10:48:49.000Z</time>
      </trkpt>
      <trkpt lat="42.97246917150914669036865234375" lon="-2.382442317903041839599609375">
        <ele>931</ele>
        <time>2022-04-17T10:48:50.000Z</time>
      </trkpt>
      <trkpt lat="42.97246917150914669036865234375" lon="-2.382442317903041839599609375">
        <ele>930.79998779296875</ele>
        <time>2022-04-17T10:48:51.000Z</time>
      </trkpt>
      <trkpt lat="42.97246917150914669036865234375" lon="-2.382442317903041839599609375">
        <ele>930.79998779296875</ele>
        <time>2022-04-17T10:48:52.000Z</time>
      </trkpt>
      <trkpt lat="42.97246917150914669036865234375" lon="-2.382442317903041839599609375">
        <ele>930.5999755859375</ele>
        <time>2022-04-17T10:48:53.000Z</time>
      </trkpt>
      <trkpt lat="42.97246917150914669036865234375" lon="-2.382442317903041839599609375">
        <ele>930.5999755859375</ele>
        <time>2022-04-17T10:48:54.000Z</time>
      </trkpt>
      <trkpt lat="42.972468249499797821044921875" lon="-2.382442317903041839599609375">
        <ele>930.5999755859375</ele>
        <time>2022-04-17T10:48:55.000Z</time>
      </trkpt>
      <trkpt lat="42.97246799804270267486572265625" lon="-2.382442317903041839599609375">
        <ele>930.5999755859375</ele>
        <time>2022-04-17T10:48:56.000Z</time>
      </trkpt>
      <trkpt lat="42.97246799804270267486572265625" lon="-2.382442317903041839599609375">
        <ele>930.5999755859375</ele>
        <time>2022-04-17T10:48:57.000Z</time>
      </trkpt>
      <trkpt lat="42.97246615402400493621826171875" lon="-2.382442317903041839599609375">
        <ele>930.5999755859375</ele>
        <time>2022-04-17T10:48:58.000Z</time>
      </trkpt>
      <trkpt lat="42.97246523201465606689453125" lon="-2.382442317903041839599609375">
        <ele>930.79998779296875</ele>
        <time>2022-04-17T10:48:59.000Z</time>
      </trkpt>
      <trkpt lat="42.9724632203578948974609375" lon="-2.382442317903041839599609375">
        <ele>931</ele>
        <time>2022-04-17T10:49:00.000Z</time>
      </trkpt>
      <trkpt lat="42.972461879253387451171875" lon="-2.3824421502649784088134765625">
        <ele>931</ele>
        <time>2022-04-17T10:49:01.000Z</time>
      </trkpt>
      <trkpt lat="42.9724617116153240203857421875" lon="-2.38244206644594669342041015625">
        <ele>931</ele>
        <time>2022-04-17T10:49:02.000Z</time>
      </trkpt>
      <trkpt lat="42.9724617116153240203857421875" lon="-2.38244206644594669342041015625">
        <ele>931</ele>
        <time>2022-04-17T10:49:03.000Z</time>
      </trkpt>
      <trkpt lat="42.9724617116153240203857421875" lon="-2.38244206644594669342041015625">
        <ele>931</ele>
        <time>2022-04-17T10:49:04.000Z</time>
      </trkpt>
      <trkpt lat="42.9724617116153240203857421875" lon="-2.38244206644594669342041015625">
        <ele>931.20001220703125</ele>
        <time>2022-04-17T10:49:05.000Z</time>
      </trkpt>
      <trkpt lat="42.9724617116153240203857421875" lon="-2.38244206644594669342041015625">
        <ele>931.4000244140625</ele>
        <time>2022-04-17T10:49:06.000Z</time>
      </trkpt>
      <trkpt lat="42.9724617116153240203857421875" lon="-2.38244206644594669342041015625">
        <ele>931.4000244140625</ele>
        <time>2022-04-17T10:49:07.000Z</time>
      </trkpt>
      <trkpt lat="42.9724605381488800048828125" lon="-2.38244206644594669342041015625">
        <ele>931.5999755859375</ele>
        <time>2022-04-17T10:49:08.000Z</time>
      </trkpt>
      <trkpt lat="42.9724583588540554046630859375" lon="-2.38244206644594669342041015625">
        <ele>931.5999755859375</ele>
        <time>2022-04-17T10:49:09.000Z</time>
      </trkpt>
      <trkpt lat="42.97245542518794536590576171875" lon="-2.38244173116981983184814453125">
        <ele>931.79998779296875</ele>
        <time>2022-04-17T10:49:10.000Z</time>
      </trkpt>
      <trkpt lat="42.97245207242667675018310546875" lon="-2.3824391327798366546630859375">
        <ele>931.79998779296875</ele>
        <time>2022-04-17T10:49:11.000Z</time>
      </trkpt>
      <trkpt lat="42.9724472947418689727783203125" lon="-2.38243267871439456939697265625">
        <ele>931.79998779296875</ele>
        <time>2022-04-17T10:49:12.000Z</time>
      </trkpt>
      <trkpt lat="42.97244167886674404144287109375" lon="-2.382427565753459930419921875">
        <ele>931.79998779296875</ele>
        <time>2022-04-17T10:49:13.000Z</time>
      </trkpt>
      <trkpt lat="42.97243631444871425628662109375" lon="-2.3824220336973667144775390625">
        <ele>931.79998779296875</ele>
        <time>2022-04-17T10:49:14.000Z</time>
      </trkpt>
      <trkpt lat="42.972430698573589324951171875" lon="-2.3824149928987026214599609375">
        <ele>932</ele>
        <time>2022-04-17T10:49:15.000Z</time>
      </trkpt>
      <trkpt lat="42.97242592088878154754638671875" lon="-2.3823952116072177886962890625">
        <ele>932</ele>
        <time>2022-04-17T10:49:16.000Z</time>
      </trkpt>
      <trkpt lat="42.97242055647075176239013671875" lon="-2.3823600076138973236083984375">
        <ele>932</ele>
        <time>2022-04-17T10:49:17.000Z</time>
      </trkpt>
      <trkpt lat="42.972410582005977630615234375" lon="-2.3823251388967037200927734375">
        <ele>932</ele>
        <time>2022-04-17T10:49:18.000Z</time>
      </trkpt>
      <trkpt lat="42.97240488231182098388671875" lon="-2.3822909407317638397216796875">
        <ele>932.20001220703125</ele>
        <time>2022-04-17T10:49:19.000Z</time>
      </trkpt>
      <trkpt lat="42.9724010266363620758056640625" lon="-2.3822540603578090667724609375">
        <ele>932.20001220703125</ele>
        <time>2022-04-17T10:49:20.000Z</time>
      </trkpt>
      <trkpt lat="42.9723923094570636749267578125" lon="-2.38221609033644199371337890625">
        <ele>932.4000244140625</ele>
        <time>2022-04-17T10:49:21.000Z</time>
      </trkpt>
      <trkpt lat="42.97238769941031932830810546875" lon="-2.38217971287667751312255859375">
        <ele>932.4000244140625</ele>
        <time>2022-04-17T10:49:22.000Z</time>
      </trkpt>
      <trkpt lat="42.97237998805940151214599609375" lon="-2.382147274911403656005859375">
        <ele>932.4000244140625</ele>
        <time>2022-04-17T10:49:23.000Z</time>
      </trkpt>
      <trkpt lat="42.9723708517849445343017578125" lon="-2.38211466930806636810302734375">
        <ele>932.4000244140625</ele>
        <time>2022-04-17T10:49:24.000Z</time>
      </trkpt>
      <trkpt lat="42.972366325557231903076171875" lon="-2.38208969123661518096923828125">
        <ele>932.5999755859375</ele>
        <time>2022-04-17T10:49:25.000Z</time>
      </trkpt>
      <trkpt lat="42.97236196696758270263671875" lon="-2.3820750229060649871826171875">
        <ele>932.5999755859375</ele>
        <time>2022-04-17T10:49:26.000Z</time>
      </trkpt>
      <trkpt lat="42.97235785983502864837646484375" lon="-2.38206245005130767822265625">
        <ele>932.5999755859375</ele>
        <time>2022-04-17T10:49:27.000Z</time>
      </trkpt>
      <trkpt lat="42.9723564349114894866943359375" lon="-2.38205281086266040802001953125">
        <ele>932.5999755859375</ele>
        <time>2022-04-17T10:49:28.000Z</time>
      </trkpt>
      <trkpt lat="42.9723544232547283172607421875" lon="-2.3820475302636623382568359375">
        <ele>932.79998779296875</ele>
        <time>2022-04-17T10:49:29.000Z</time>
      </trkpt>
      <trkpt lat="42.9723532497882843017578125" lon="-2.38204292021691799163818359375">
        <ele>932.79998779296875</ele>
        <time>2022-04-17T10:49:30.000Z</time>
      </trkpt>
      <trkpt lat="42.97234914265573024749755859375" lon="-2.38203587941825389862060546875">
        <ele>932.79998779296875</ele>
        <time>2022-04-17T10:49:31.000Z</time>
      </trkpt>
      <trkpt lat="42.9723507352173328399658203125" lon="-2.38203437067568302154541015625">
        <ele>932.79998779296875</ele>
        <time>2022-04-17T10:49:32.000Z</time>
      </trkpt>
      <trkpt lat="42.9723507352173328399658203125" lon="-2.3820334486663341522216796875">
        <ele>932.79998779296875</ele>
        <time>2022-04-17T10:49:33.000Z</time>
      </trkpt>
      <trkpt lat="42.97235031612217426300048828125" lon="-2.3820324428379535675048828125">
        <ele>932.79998779296875</ele>
        <time>2022-04-17T10:49:34.000Z</time>
      </trkpt>
      <trkpt lat="42.97234830446541309356689453125" lon="-2.3820294253528118133544921875">
        <ele>933</ele>
        <time>2022-04-17T10:49:35.000Z</time>
      </trkpt>
      <trkpt lat="42.97234947793185710906982421875" lon="-2.382028587162494659423828125">
        <ele>933</ele>
        <time>2022-04-17T10:49:36.000Z</time>
      </trkpt>
      <trkpt lat="42.97235232777893543243408203125" lon="-2.3820304311811923980712890625">
        <ele>933</ele>
        <time>2022-04-17T10:49:37.000Z</time>
      </trkpt>
      <trkpt lat="42.97235467471182346343994140625" lon="-2.382034957408905029296875">
        <ele>933</ele>
        <time>2022-04-17T10:49:38.000Z</time>
      </trkpt>
      <trkpt lat="42.972354255616664886474609375" lon="-2.3820374719798564910888671875">
        <ele>932.79998779296875</ele>
        <time>2022-04-17T10:49:39.000Z</time>
      </trkpt>
      <trkpt lat="42.9723530821502208709716796875" lon="-2.38203923217952251434326171875">
        <ele>932.79998779296875</ele>
        <time>2022-04-17T10:49:40.000Z</time>
      </trkpt>
      <trkpt lat="42.9723530821502208709716796875" lon="-2.38203923217952251434326171875">
        <ele>932.79998779296875</ele>
        <time>2022-04-17T10:49:41.000Z</time>
      </trkpt>
      <trkpt lat="42.9723530821502208709716796875" lon="-2.38203923217952251434326171875">
        <ele>932.79998779296875</ele>
        <time>2022-04-17T10:49:42.000Z</time>
      </trkpt>
      <trkpt lat="42.9723530821502208709716796875" lon="-2.38203923217952251434326171875">
        <ele>932.79998779296875</ele>
        <time>2022-04-17T10:49:43.000Z</time>
      </trkpt>
      <trkpt lat="42.9723530821502208709716796875" lon="-2.38203923217952251434326171875">
        <ele>933</ele>
        <time>2022-04-17T10:49:44.000Z</time>
      </trkpt>
      <trkpt lat="42.9723530821502208709716796875" lon="-2.38203923217952251434326171875">
        <ele>933.20001220703125</ele>
        <time>2022-04-17T10:49:45.000Z</time>
      </trkpt>
      <trkpt lat="42.9723530821502208709716796875" lon="-2.38203923217952251434326171875">
        <ele>933.4000244140625</ele>
        <time>2022-04-17T10:49:46.000Z</time>
      </trkpt>
      <trkpt lat="42.9723530821502208709716796875" lon="-2.38203923217952251434326171875">
        <ele>933.4000244140625</ele>
        <time>2022-04-17T10:49:47.000Z</time>
      </trkpt>
      <trkpt lat="42.9723530821502208709716796875" lon="-2.38203923217952251434326171875">
        <ele>933.4000244140625</ele>
        <time>2022-04-17T10:49:48.000Z</time>
      </trkpt>
      <trkpt lat="42.9723530821502208709716796875" lon="-2.38203923217952251434326171875">
        <ele>933.20001220703125</ele>
        <time>2022-04-17T10:49:49.000Z</time>
      </trkpt>
      <trkpt lat="42.97235232777893543243408203125" lon="-2.38203923217952251434326171875">
        <ele>933.20001220703125</ele>
        <time>2022-04-17T10:49:50.000Z</time>
      </trkpt>
      <trkpt lat="42.9723514057695865631103515625" lon="-2.38203923217952251434326171875">
        <ele>933.20001220703125</ele>
        <time>2022-04-17T10:49:51.000Z</time>
      </trkpt>
      <trkpt lat="42.9723490588366985321044921875" lon="-2.38203403539955615997314453125">
        <ele>933.20001220703125</ele>
        <time>2022-04-17T10:49:52.000Z</time>
      </trkpt>
      <trkpt lat="42.9723413474857807159423828125" lon="-2.38202758133411407470703125">
        <ele>933.20001220703125</ele>
        <time>2022-04-17T10:49:53.000Z</time>
      </trkpt>
      <trkpt lat="42.97234126366674900054931640625" lon="-2.3820207081735134124755859375">
        <ele>933.20001220703125</ele>
        <time>2022-04-17T10:49:54.000Z</time>
      </trkpt>
      <trkpt lat="42.97234185039997100830078125" lon="-2.38200478255748748779296875">
        <ele>933.20001220703125</ele>
        <time>2022-04-17T10:49:55.000Z</time>
      </trkpt>
      <trkpt lat="42.97234210185706615447998046875" lon="-2.381983660161495208740234375">
        <ele>933.20001220703125</ele>
        <time>2022-04-17T10:49:56.000Z</time>
      </trkpt>
      <trkpt lat="42.9723406769335269927978515625" lon="-2.3819640465080738067626953125">
        <ele>933.20001220703125</ele>
        <time>2022-04-17T10:49:57.000Z</time>
      </trkpt>
      <trkpt lat="42.97234092839062213897705078125" lon="-2.381946109235286712646484375">
        <ele>933.20001220703125</ele>
        <time>2022-04-17T10:49:58.000Z</time>
      </trkpt>
      <trkpt lat="42.97233916819095611572265625" lon="-2.38193026743829250335693359375">
        <ele>933.20001220703125</ele>
        <time>2022-04-17T10:49:59.000Z</time>
      </trkpt>
      <trkpt lat="42.97233941964805126190185546875" lon="-2.3819181136786937713623046875">
        <ele>933.20001220703125</ele>
        <time>2022-04-17T10:50:00.000Z</time>
      </trkpt>
      <trkpt lat="42.97233380377292633056640625" lon="-2.3818995058536529541015625">
        <ele>933.20001220703125</ele>
        <time>2022-04-17T10:50:01.000Z</time>
      </trkpt>
      <trkpt lat="42.97233388759195804595947265625" lon="-2.3818874359130859375">
        <ele>933.20001220703125</ele>
        <time>2022-04-17T10:50:02.000Z</time>
      </trkpt>
      <trkpt lat="42.97233506105840206146240234375" lon="-2.38188215531408786773681640625">
        <ele>933.4000244140625</ele>
        <time>2022-04-17T10:50:03.000Z</time>
      </trkpt>
      <trkpt lat="42.9723353125154972076416015625" lon="-2.38187327049672603607177734375">
        <ele>933.4000244140625</ele>
        <time>2022-04-17T10:50:04.000Z</time>
      </trkpt>
      <trkpt lat="42.9723316244781017303466796875" lon="-2.38186773844063282012939453125">
        <ele>933.20001220703125</ele>
        <time>2022-04-17T10:50:05.000Z</time>
      </trkpt>
      <trkpt lat="42.97232818789780139923095703125" lon="-2.3818594403564929962158203125">
        <ele>933.20001220703125</ele>
        <time>2022-04-17T10:50:06.000Z</time>
      </trkpt>
      <trkpt lat="42.97232299111783504486083984375" lon="-2.3818530701100826263427734375">
        <ele>933.20001220703125</ele>
        <time>2022-04-17T10:50:07.000Z</time>
      </trkpt>
      <trkpt lat="42.97231662087142467498779296875" lon="-2.38185097463428974151611328125">
        <ele>933.20001220703125</ele>
        <time>2022-04-17T10:50:08.000Z</time>
      </trkpt>
      <trkpt lat="42.97231393866240978240966796875" lon="-2.381851561367511749267578125">
        <ele>933.20001220703125</ele>
        <time>2022-04-17T10:50:09.000Z</time>
      </trkpt>
      <trkpt lat="42.97231293283402919769287109375" lon="-2.38185348920524120330810546875">
        <ele>933.20001220703125</ele>
        <time>2022-04-17T10:50:10.000Z</time>
      </trkpt>
      <trkpt lat="42.97231041826307773590087890625" lon="-2.3818539083003997802734375">
        <ele>933.4000244140625</ele>
        <time>2022-04-17T10:50:11.000Z</time>
      </trkpt>
      <trkpt lat="42.972307316958904266357421875" lon="-2.3818564228713512420654296875">
        <ele>933.4000244140625</ele>
        <time>2022-04-17T10:50:12.000Z</time>
      </trkpt>
      <trkpt lat="42.97230471856892108917236328125" lon="-2.38185918889939785003662109375">
        <ele>933.5999755859375</ele>
        <time>2022-04-17T10:50:13.000Z</time>
      </trkpt>
      <trkpt lat="42.972306311130523681640625" lon="-2.38186421804130077362060546875">
        <ele>933.5999755859375</ele>
        <time>2022-04-17T10:50:14.000Z</time>
      </trkpt>
      <trkpt lat="42.97231100499629974365234375" lon="-2.381871007382869720458984375">
        <ele>933.5999755859375</ele>
        <time>2022-04-17T10:50:15.000Z</time>
      </trkpt>
      <trkpt lat="42.97230924479663372039794921875" lon="-2.38187679089605808258056640625">
        <ele>933.5999755859375</ele>
        <time>2022-04-17T10:50:16.000Z</time>
      </trkpt>
      <trkpt lat="42.9723068140447139739990234375" lon="-2.38186421804130077362060546875">
        <ele>933.4000244140625</ele>
        <time>2022-04-17T10:50:17.000Z</time>
      </trkpt>
      <trkpt lat="42.97231058590114116668701171875" lon="-2.38184653222560882568359375">
        <ele>933.4000244140625</ele>
        <time>2022-04-17T10:50:18.000Z</time>
      </trkpt>
      <trkpt lat="42.97231159172952175140380859375" lon="-2.3818282596766948699951171875">
        <ele>933.4000244140625</ele>
        <time>2022-04-17T10:50:19.000Z</time>
      </trkpt>
      <trkpt lat="42.9723098315298557281494140625" lon="-2.38180722109973430633544921875">
        <ele>933.4000244140625</ele>
        <time>2022-04-17T10:50:20.000Z</time>
      </trkpt>
      <trkpt lat="42.9723074845969676971435546875" lon="-2.381788194179534912109375">
        <ele>933.20001220703125</ele>
        <time>2022-04-17T10:50:21.000Z</time>
      </trkpt>
      <trkpt lat="42.9723098315298557281494140625" lon="-2.38176740705966949462890625">
        <ele>933.20001220703125</ele>
        <time>2022-04-17T10:50:22.000Z</time>
      </trkpt>
      <trkpt lat="42.97231276519596576690673828125" lon="-2.38175240345299243927001953125">
        <ele>933.20001220703125</ele>
        <time>2022-04-17T10:50:23.000Z</time>
      </trkpt>
      <trkpt lat="42.97231234610080718994140625" lon="-2.38173966296017169952392578125">
        <ele>933.20001220703125</ele>
        <time>2022-04-17T10:50:24.000Z</time>
      </trkpt>
      <trkpt lat="42.9723115079104900360107421875" lon="-2.38172273151576519012451171875">
        <ele>933.20001220703125</ele>
        <time>2022-04-17T10:50:25.000Z</time>
      </trkpt>
      <trkpt lat="42.9723135195672512054443359375" lon="-2.381708733737468719482421875">
        <ele>933.20001220703125</ele>
        <time>2022-04-17T10:50:26.000Z</time>
      </trkpt>
      <trkpt lat="42.97231159172952175140380859375" lon="-2.381686605513095855712890625">
        <ele>933.20001220703125</ele>
        <time>2022-04-17T10:50:27.000Z</time>
      </trkpt>
      <trkpt lat="42.97231636941432952880859375" lon="-2.38166506402194499969482421875">
        <ele>933.4000244140625</ele>
        <time>2022-04-17T10:50:28.000Z</time>
      </trkpt>
      <trkpt lat="42.9723130166530609130859375" lon="-2.38164595328271389007568359375">
        <ele>933.4000244140625</ele>
        <time>2022-04-17T10:50:29.000Z</time>
      </trkpt>
      <trkpt lat="42.97231008298695087432861328125" lon="-2.3816286027431488037109375">
        <ele>933.4000244140625</ele>
        <time>2022-04-17T10:50:30.000Z</time>
      </trkpt>
      <trkpt lat="42.9723051376640796661376953125" lon="-2.38161426968872547149658203125">
        <ele>933.4000244140625</ele>
        <time>2022-04-17T10:50:31.000Z</time>
      </trkpt>
      <trkpt lat="42.97230136580765247344970703125" lon="-2.38161292858421802520751953125">
        <ele>933.4000244140625</ele>
        <time>2022-04-17T10:50:32.000Z</time>
      </trkpt>
      <trkpt lat="42.972290553152561187744140625" lon="-2.3816044628620147705078125">
        <ele>933.5999755859375</ele>
        <time>2022-04-17T10:50:33.000Z</time>
      </trkpt>
      <trkpt lat="42.97228150069713592529296875" lon="-2.381596751511096954345703125">
        <ele>933.5999755859375</ele>
        <time>2022-04-17T10:50:34.000Z</time>
      </trkpt>
      <trkpt lat="42.97227622009813785552978515625" lon="-2.38158904016017913818359375">
        <ele>933.5999755859375</ele>
        <time>2022-04-17T10:50:35.000Z</time>
      </trkpt>
      <trkpt lat="42.97227680683135986328125" lon="-2.38157554529607295989990234375">
        <ele>933.5999755859375</ele>
        <time>2022-04-17T10:50:36.000Z</time>
      </trkpt>
      <trkpt lat="42.972274459898471832275390625" lon="-2.38155928440392017364501953125">
        <ele>933.5999755859375</ele>
        <time>2022-04-17T10:50:37.000Z</time>
      </trkpt>
      <trkpt lat="42.9722739569842815399169921875" lon="-2.38154972903430461883544921875">
        <ele>933.79998779296875</ele>
        <time>2022-04-17T10:50:38.000Z</time>
      </trkpt>
      <trkpt lat="42.97227303497493267059326171875" lon="-2.38154210150241851806640625">
        <ele>933.79998779296875</ele>
        <time>2022-04-17T10:50:39.000Z</time>
      </trkpt>
      <trkpt lat="42.97227337025105953216552734375" lon="-2.38153514452278614044189453125">
        <ele>933.79998779296875</ele>
        <time>2022-04-17T10:50:40.000Z</time>
      </trkpt>
      <trkpt lat="42.972266413271427154541015625" lon="-2.3815228231251239776611328125">
        <ele>933.79998779296875</ele>
        <time>2022-04-17T10:50:41.000Z</time>
      </trkpt>
      <trkpt lat="42.97226540744304656982421875" lon="-2.3815077356994152069091796875">
        <ele>933.79998779296875</ele>
        <time>2022-04-17T10:50:42.000Z</time>
      </trkpt>
      <trkpt lat="42.97226163558661937713623046875" lon="-2.38149474374949932098388671875">
        <ele>933.79998779296875</ele>
        <time>2022-04-17T10:50:43.000Z</time>
      </trkpt>
      <trkpt lat="42.972255684435367584228515625" lon="-2.38148577511310577392578125">
        <ele>933.5999755859375</ele>
        <time>2022-04-17T10:50:44.000Z</time>
      </trkpt>
      <trkpt lat="42.972251661121845245361328125" lon="-2.3814785666763782501220703125">
        <ele>933.5999755859375</ele>
        <time>2022-04-17T10:50:45.000Z</time>
      </trkpt>
      <trkpt lat="42.9722484759986400604248046875" lon="-2.38147278316318988800048828125">
        <ele>933.5999755859375</ele>
        <time>2022-04-17T10:50:46.000Z</time>
      </trkpt>
      <trkpt lat="42.97224453650414943695068359375" lon="-2.3814664967358112335205078125">
        <ele>933.5999755859375</ele>
        <time>2022-04-17T10:50:47.000Z</time>
      </trkpt>
      <trkpt lat="42.97223950736224651336669921875" lon="-2.38145551644265651702880859375">
        <ele>933.5999755859375</ele>
        <time>2022-04-17T10:50:48.000Z</time>
      </trkpt>
      <trkpt lat="42.97223464585840702056884765625" lon="-2.38144277594983577728271484375">
        <ele>933.5999755859375</ele>
        <time>2022-04-17T10:50:49.000Z</time>
      </trkpt>
      <trkpt lat="42.972232215106487274169921875" lon="-2.38143607042729854583740234375">
        <ele>933.5999755859375</ele>
        <time>2022-04-17T10:50:50.000Z</time>
      </trkpt>
      <trkpt lat="42.97223322093486785888671875" lon="-2.3814302869141101837158203125">
        <ele>933.79998779296875</ele>
        <time>2022-04-17T10:50:51.000Z</time>
      </trkpt>
      <trkpt lat="42.97223724424839019775390625" lon="-2.38142483867704868316650390625">
        <ele>933.79998779296875</ele>
        <time>2022-04-17T10:50:52.000Z</time>
      </trkpt>
      <trkpt lat="42.97224084846675395965576171875" lon="-2.38141930662095546722412109375">
        <ele>933.79998779296875</ele>
        <time>2022-04-17T10:50:53.000Z</time>
      </trkpt>
      <trkpt lat="42.9722407646477222442626953125" lon="-2.38141226582229137420654296875">
        <ele>933.79998779296875</ele>
        <time>2022-04-17T10:50:54.000Z</time>
      </trkpt>
      <trkpt lat="42.97224336303770542144775390625" lon="-2.381408996880054473876953125">
        <ele>933.79998779296875</ele>
        <time>2022-04-17T10:50:55.000Z</time>
      </trkpt>
      <trkpt lat="42.97224663197994232177734375" lon="-2.3814054764807224273681640625">
        <ele>933.79998779296875</ele>
        <time>2022-04-17T10:50:56.000Z</time>
      </trkpt>
      <trkpt lat="42.9722504876554012298583984375" lon="-2.38139919005334377288818359375">
        <ele>933.79998779296875</ele>
        <time>2022-04-17T10:50:57.000Z</time>
      </trkpt>
      <trkpt lat="42.97225493006408214569091796875" lon="-2.38139726221561431884765625">
        <ele>933.79998779296875</ele>
        <time>2022-04-17T10:50:58.000Z</time>
      </trkpt>
      <trkpt lat="42.972255684435367584228515625" lon="-2.3813898861408233642578125">
        <ele>933.79998779296875</ele>
        <time>2022-04-17T10:50:59.000Z</time>
      </trkpt>
      <trkpt lat="42.97225090675055980682373046875" lon="-2.381378151476383209228515625">
        <ele>933.79998779296875</ele>
        <time>2022-04-17T10:51:00.000Z</time>
      </trkpt>
      <trkpt lat="42.972253002226352691650390625" lon="-2.38137622363865375518798828125">
        <ele>933.79998779296875</ele>
        <time>2022-04-17T10:51:01.000Z</time>
      </trkpt>
      <trkpt lat="42.97226540744304656982421875" lon="-2.38138929940760135650634765625">
        <ele>933.79998779296875</ele>
        <time>2022-04-17T10:51:02.000Z</time>
      </trkpt>
      <trkpt lat="42.972276471555233001708984375" lon="-2.3813997767865657806396484375">
        <ele>933.79998779296875</ele>
        <time>2022-04-17T10:51:03.000Z</time>
      </trkpt>
      <trkpt lat="42.97227722592651844024658203125" lon="-2.38139994442462921142578125">
        <ele>933.79998779296875</ele>
        <time>2022-04-17T10:51:04.000Z</time>
      </trkpt>
      <trkpt lat="42.9722752980887889862060546875" lon="-2.381396926939487457275390625">
        <ele>933.79998779296875</ele>
        <time>2022-04-17T10:51:05.000Z</time>
      </trkpt>
      <trkpt lat="42.9722706042230129241943359375" lon="-2.38139533437788486480712890625">
        <ele>933.79998779296875</ele>
        <time>2022-04-17T10:51:06.000Z</time>
      </trkpt>
      <trkpt lat="42.97226683236658573150634765625" lon="-2.38139860332012176513671875">
        <ele>933.79998779296875</ele>
        <time>2022-04-17T10:51:07.000Z</time>
      </trkpt>
      <trkpt lat="42.97226347960531711578369140625" lon="-2.3814032971858978271484375">
        <ele>933.4000244140625</ele>
        <time>2022-04-17T10:51:08.000Z</time>
      </trkpt>
      <trkpt lat="42.97226029448211193084716796875" lon="-2.38140723668038845062255859375">
        <ele>933.4000244140625</ele>
        <time>2022-04-17T10:51:09.000Z</time>
      </trkpt>
      <trkpt lat="42.97226029448211193084716796875" lon="-2.38140723668038845062255859375">
        <ele>933.4000244140625</ele>
        <time>2022-04-17T10:51:10.000Z</time>
      </trkpt>
      <trkpt lat="42.97226029448211193084716796875" lon="-2.38140723668038845062255859375">
        <ele>933.4000244140625</ele>
        <time>2022-04-17T10:51:11.000Z</time>
      </trkpt>
      <trkpt lat="42.97226029448211193084716796875" lon="-2.38140723668038845062255859375">
        <ele>933.4000244140625</ele>
        <time>2022-04-17T10:51:12.000Z</time>
      </trkpt>
      <trkpt lat="42.97226029448211193084716796875" lon="-2.38140723668038845062255859375">
        <ele>933.4000244140625</ele>
        <time>2022-04-17T10:51:13.000Z</time>
      </trkpt>
      <trkpt lat="42.97226029448211193084716796875" lon="-2.38140723668038845062255859375">
        <ele>933.4000244140625</ele>
        <time>2022-04-17T10:51:14.000Z</time>
      </trkpt>
      <trkpt lat="42.97226029448211193084716796875" lon="-2.38140723668038845062255859375">
        <ele>933.4000244140625</ele>
        <time>2022-04-17T10:51:15.000Z</time>
      </trkpt>
      <trkpt lat="42.97226029448211193084716796875" lon="-2.38140723668038845062255859375">
        <ele>933.4000244140625</ele>
        <time>2022-04-17T10:51:16.000Z</time>
      </trkpt>
      <trkpt lat="42.97226029448211193084716796875" lon="-2.38140664994716644287109375">
        <ele>933.4000244140625</ele>
        <time>2022-04-17T10:51:17.000Z</time>
      </trkpt>
      <trkpt lat="42.97226029448211193084716796875" lon="-2.38140623085200786590576171875">
        <ele>933.4000244140625</ele>
        <time>2022-04-17T10:51:18.000Z</time>
      </trkpt>
      <trkpt lat="42.97226029448211193084716796875" lon="-2.38140606321394443511962890625">
        <ele>933.4000244140625</ele>
        <time>2022-04-17T10:51:19.000Z</time>
      </trkpt>
      <trkpt lat="42.97226029448211193084716796875" lon="-2.3814058117568492889404296875">
        <ele>933.4000244140625</ele>
        <time>2022-04-17T10:51:20.000Z</time>
      </trkpt>
      <trkpt lat="42.97226029448211193084716796875" lon="-2.3814046382904052734375">
        <ele>933.4000244140625</ele>
        <time>2022-04-17T10:51:21.000Z</time>
      </trkpt>
      <trkpt lat="42.97226029448211193084716796875" lon="-2.38140338100492954254150390625">
        <ele>933.4000244140625</ele>
        <time>2022-04-17T10:51:22.000Z</time>
      </trkpt>
      <trkpt lat="42.97226029448211193084716796875" lon="-2.38140170462429523468017578125">
        <ele>933.4000244140625</ele>
        <time>2022-04-17T10:51:23.000Z</time>
      </trkpt>
      <trkpt lat="42.97226029448211193084716796875" lon="-2.38140002824366092681884765625">
        <ele>933.4000244140625</ele>
        <time>2022-04-17T10:51:24.000Z</time>
      </trkpt>
      <trkpt lat="42.97226029448211193084716796875" lon="-2.3813997767865657806396484375">
        <ele>933.4000244140625</ele>
        <time>2022-04-17T10:51:25.000Z</time>
      </trkpt>
      <trkpt lat="42.97226029448211193084716796875" lon="-2.38139868713915348052978515625">
        <ele>933.4000244140625</ele>
        <time>2022-04-17T10:51:26.000Z</time>
      </trkpt>
      <trkpt lat="42.972259707748889923095703125" lon="-2.38139751367270946502685546875">
        <ele>933.4000244140625</ele>
        <time>2022-04-17T10:51:27.000Z</time>
      </trkpt>
      <trkpt lat="42.97225895337760448455810546875" lon="-2.38139701075851917266845703125">
        <ele>933.4000244140625</ele>
        <time>2022-04-17T10:51:28.000Z</time>
      </trkpt>
      <trkpt lat="42.9722588695585727691650390625" lon="-2.3813954181969165802001953125">
        <ele>933.4000244140625</ele>
        <time>2022-04-17T10:51:29.000Z</time>
      </trkpt>
      <trkpt lat="42.97225736081600189208984375" lon="-2.38139198161661624908447265625">
        <ele>933.4000244140625</ele>
        <time>2022-04-17T10:51:30.000Z</time>
      </trkpt>
      <trkpt lat="42.9722571931779384613037109375" lon="-2.38139164634048938751220703125">
        <ele>933.4000244140625</ele>
        <time>2022-04-17T10:51:31.000Z</time>
      </trkpt>
      <trkpt lat="42.9722571931779384613037109375" lon="-2.381391562521457672119140625">
        <ele>933.4000244140625</ele>
        <time>2022-04-17T10:51:32.000Z</time>
      </trkpt>
      <trkpt lat="42.9722571931779384613037109375" lon="-2.38139131106436252593994140625">
        <ele>933.4000244140625</ele>
        <time>2022-04-17T10:51:33.000Z</time>
      </trkpt>
      <trkpt lat="42.9722571931779384613037109375" lon="-2.381391227245330810546875">
        <ele>933.4000244140625</ele>
        <time>2022-04-17T10:51:34.000Z</time>
      </trkpt>
      <trkpt lat="42.9722571931779384613037109375" lon="-2.381391227245330810546875">
        <ele>933.4000244140625</ele>
        <time>2022-04-17T10:51:35.000Z</time>
      </trkpt>
      <trkpt lat="42.9722571931779384613037109375" lon="-2.381391227245330810546875">
        <ele>933.4000244140625</ele>
        <time>2022-04-17T10:51:36.000Z</time>
      </trkpt>
      <trkpt lat="42.9722571931779384613037109375" lon="-2.381391227245330810546875">
        <ele>933.4000244140625</ele>
        <time>2022-04-17T10:51:37.000Z</time>
      </trkpt>
      <trkpt lat="42.9722571931779384613037109375" lon="-2.381391227245330810546875">
        <ele>933.4000244140625</ele>
        <time>2022-04-17T10:51:38.000Z</time>
      </trkpt>
      <trkpt lat="42.9722571931779384613037109375" lon="-2.381391227245330810546875">
        <ele>933.4000244140625</ele>
        <time>2022-04-17T10:51:39.000Z</time>
      </trkpt>
      <trkpt lat="42.9722571931779384613037109375" lon="-2.381391227245330810546875">
        <ele>933.4000244140625</ele>
        <time>2022-04-17T10:51:40.000Z</time>
      </trkpt>
      <trkpt lat="42.9722571931779384613037109375" lon="-2.381391227245330810546875">
        <ele>933.4000244140625</ele>
        <time>2022-04-17T10:51:41.000Z</time>
      </trkpt>
      <trkpt lat="42.97225861810147762298583984375" lon="-2.38139097578823566436767578125">
        <ele>933.4000244140625</ele>
        <time>2022-04-17T10:51:42.000Z</time>
      </trkpt>
      <trkpt lat="42.9722588695585727691650390625" lon="-2.38139097578823566436767578125">
        <ele>933.4000244140625</ele>
        <time>2022-04-17T10:51:43.000Z</time>
      </trkpt>
      <trkpt lat="42.9722605459392070770263671875" lon="-2.38138980232179164886474609375">
        <ele>933.4000244140625</ele>
        <time>2022-04-17T10:51:44.000Z</time>
      </trkpt>
      <trkpt lat="42.9722612164914608001708984375" lon="-2.38138762302696704864501953125">
        <ele>933.4000244140625</ele>
        <time>2022-04-17T10:51:45.000Z</time>
      </trkpt>
      <trkpt lat="42.972262389957904815673828125" lon="-2.38138695247471332550048828125">
        <ele>933.4000244140625</ele>
        <time>2022-04-17T10:51:46.000Z</time>
      </trkpt>
      <trkpt lat="42.97226482070982456207275390625" lon="-2.3813863657414913177490234375">
        <ele>933.4000244140625</ele>
        <time>2022-04-17T10:51:47.000Z</time>
      </trkpt>
      <trkpt lat="42.97226540744304656982421875" lon="-2.3813831806182861328125">
        <ele>933.4000244140625</ele>
        <time>2022-04-17T10:51:48.000Z</time>
      </trkpt>
      <trkpt lat="42.97226632945239543914794921875" lon="-2.3813823424279689788818359375">
        <ele>933.4000244140625</ele>
        <time>2022-04-17T10:51:49.000Z</time>
      </trkpt>
      <trkpt lat="42.97226683236658573150634765625" lon="-2.381382174789905548095703125">
        <ele>933.4000244140625</ele>
        <time>2022-04-17T10:51:50.000Z</time>
      </trkpt>
      <trkpt lat="42.97226867638528347015380859375" lon="-2.381382174789905548095703125">
        <ele>933.4000244140625</ele>
        <time>2022-04-17T10:51:51.000Z</time>
      </trkpt>
      <trkpt lat="42.9722706042230129241943359375" lon="-2.381382174789905548095703125">
        <ele>933.4000244140625</ele>
        <time>2022-04-17T10:51:52.000Z</time>
      </trkpt>
      <trkpt lat="42.97227135859429836273193359375" lon="-2.381382174789905548095703125">
        <ele>933.4000244140625</ele>
        <time>2022-04-17T10:51:53.000Z</time>
      </trkpt>
      <trkpt lat="42.9722716100513935089111328125" lon="-2.381382174789905548095703125">
        <ele>933.4000244140625</ele>
        <time>2022-04-17T10:51:54.000Z</time>
      </trkpt>
      <trkpt lat="42.9722736217081546783447265625" lon="-2.381382174789905548095703125">
        <ele>933.4000244140625</ele>
        <time>2022-04-17T10:51:55.000Z</time>
      </trkpt>
      <trkpt lat="42.972274459898471832275390625" lon="-2.381382174789905548095703125">
        <ele>933.4000244140625</ele>
        <time>2022-04-17T10:51:56.000Z</time>
      </trkpt>
      <trkpt lat="42.97227554954588413238525390625" lon="-2.381382174789905548095703125">
        <ele>933.4000244140625</ele>
        <time>2022-04-17T10:51:57.000Z</time>
      </trkpt>
      <trkpt lat="42.97227588482201099395751953125" lon="-2.381382174789905548095703125">
        <ele>933.4000244140625</ele>
        <time>2022-04-17T10:51:58.000Z</time>
      </trkpt>
      <trkpt lat="42.97227680683135986328125" lon="-2.381382174789905548095703125">
        <ele>933.4000244140625</ele>
        <time>2022-04-17T10:51:59.000Z</time>
      </trkpt>
      <trkpt lat="42.9722783155739307403564453125" lon="-2.381382174789905548095703125">
        <ele>933.4000244140625</ele>
        <time>2022-04-17T10:52:00.000Z</time>
      </trkpt>
      <trkpt lat="42.9722786508500576019287109375" lon="-2.3813791573047637939453125">
        <ele>933.4000244140625</ele>
        <time>2022-04-17T10:52:01.000Z</time>
      </trkpt>
      <trkpt lat="42.97227881848812103271484375" lon="-2.38137471489608287811279296875">
        <ele>933.4000244140625</ele>
        <time>2022-04-17T10:52:02.000Z</time>
      </trkpt>
      <trkpt lat="42.97227881848812103271484375" lon="-2.38137169741094112396240234375">
        <ele>933.4000244140625</ele>
        <time>2022-04-17T10:52:03.000Z</time>
      </trkpt>
      <trkpt lat="42.97227881848812103271484375" lon="-2.38137002103030681610107421875">
        <ele>933.4000244140625</ele>
        <time>2022-04-17T10:52:04.000Z</time>
      </trkpt>
      <trkpt lat="42.97227881848812103271484375" lon="-2.38136817701160907745361328125">
        <ele>933.4000244140625</ele>
        <time>2022-04-17T10:52:05.000Z</time>
      </trkpt>
      <trkpt lat="42.97227881848812103271484375" lon="-2.38136708736419677734375">
        <ele>933.4000244140625</ele>
        <time>2022-04-17T10:52:06.000Z</time>
      </trkpt>
      <trkpt lat="42.97227881848812103271484375" lon="-2.38136666826903820037841796875">
        <ele>933.4000244140625</ele>
        <time>2022-04-17T10:52:07.000Z</time>
      </trkpt>
      <trkpt lat="42.97227881848812103271484375" lon="-2.3813662491738796234130859375">
        <ele>933.4000244140625</ele>
        <time>2022-04-17T10:52:08.000Z</time>
      </trkpt>
      <trkpt lat="42.97227881848812103271484375" lon="-2.3813659138977527618408203125">
        <ele>933.4000244140625</ele>
        <time>2022-04-17T10:52:09.000Z</time>
      </trkpt>
      <trkpt lat="42.97227881848812103271484375" lon="-2.3813657462596893310546875">
        <ele>933.4000244140625</ele>
        <time>2022-04-17T10:52:10.000Z</time>
      </trkpt>
      <trkpt lat="42.97227881848812103271484375" lon="-2.38136507570743560791015625">
        <ele>933.4000244140625</ele>
        <time>2022-04-17T10:52:11.000Z</time>
      </trkpt>
      <trkpt lat="42.97227881848812103271484375" lon="-2.38136398606002330780029296875">
        <ele>933.4000244140625</ele>
        <time>2022-04-17T10:52:12.000Z</time>
      </trkpt>
      <trkpt lat="42.97227881848812103271484375" lon="-2.38136331550776958465576171875">
        <ele>933.4000244140625</ele>
        <time>2022-04-17T10:52:13.000Z</time>
      </trkpt>
      <trkpt lat="42.97227881848812103271484375" lon="-2.3813612200319766998291015625">
        <ele>933.4000244140625</ele>
        <time>2022-04-17T10:52:14.000Z</time>
      </trkpt>
      <trkpt lat="42.972275801002979278564453125" lon="-2.38134906627237796783447265625">
        <ele>933.4000244140625</ele>
        <time>2022-04-17T10:52:15.000Z</time>
      </trkpt>
      <trkpt lat="42.97227211296558380126953125" lon="-2.38132408820092678070068359375">
        <ele>933.4000244140625</ele>
        <time>2022-04-17T10:52:16.000Z</time>
      </trkpt>
      <trkpt lat="42.97226582653820514678955078125" lon="-2.381298355758190155029296875">
        <ele>933.4000244140625</ele>
        <time>2022-04-17T10:52:17.000Z</time>
      </trkpt>
      <trkpt lat="42.97226096503436565399169921875" lon="-2.38127681426703929901123046875">
        <ele>933.4000244140625</ele>
        <time>2022-04-17T10:52:18.000Z</time>
      </trkpt>
      <trkpt lat="42.972255013883113861083984375" lon="-2.38125351257622241973876953125">
        <ele>933.4000244140625</ele>
        <time>2022-04-17T10:52:19.000Z</time>
      </trkpt>
      <trkpt lat="42.97225258313119411468505859375" lon="-2.381231300532817840576171875">
        <ele>933.4000244140625</ele>
        <time>2022-04-17T10:52:20.000Z</time>
      </trkpt>
      <trkpt lat="42.9722451232373714447021484375" lon="-2.3812120221555233001708984375">
        <ele>933.4000244140625</ele>
        <time>2022-04-17T10:52:21.000Z</time>
      </trkpt>
      <trkpt lat="42.9722417704761028289794921875" lon="-2.3811967670917510986328125">
        <ele>933.4000244140625</ele>
        <time>2022-04-17T10:52:22.000Z</time>
      </trkpt>
      <trkpt lat="42.97223858535289764404296875" lon="-2.3811798356473445892333984375">
        <ele>933.4000244140625</ele>
        <time>2022-04-17T10:52:23.000Z</time>
      </trkpt>
      <trkpt lat="42.97223598696291446685791015625" lon="-2.38115544430911540985107421875">
        <ele>933.4000244140625</ele>
        <time>2022-04-17T10:52:24.000Z</time>
      </trkpt>
      <trkpt lat="42.97223313711583614349365234375" lon="-2.3811359144747257232666015625">
        <ele>933.4000244140625</ele>
        <time>2022-04-17T10:52:25.000Z</time>
      </trkpt>
      <trkpt lat="42.972231209278106689453125" lon="-2.38111822865903377532958984375">
        <ele>933.4000244140625</ele>
        <time>2022-04-17T10:52:26.000Z</time>
      </trkpt>
      <trkpt lat="42.97223011963069438934326171875" lon="-2.38110850565135478973388671875">
        <ele>933.4000244140625</ele>
        <time>2022-04-17T10:52:27.000Z</time>
      </trkpt>
      <trkpt lat="42.9722253419458866119384765625" lon="-2.38109341822564601898193359375">
        <ele>933.4000244140625</ele>
        <time>2022-04-17T10:52:28.000Z</time>
      </trkpt>
      <trkpt lat="42.97221855260431766510009765625" lon="-2.38107539713382720947265625">
        <ele>933.4000244140625</ele>
        <time>2022-04-17T10:52:29.000Z</time>
      </trkpt>
      <trkpt lat="42.97221788205206394195556640625" lon="-2.381063997745513916015625">
        <ele>933.4000244140625</ele>
        <time>2022-04-17T10:52:30.000Z</time>
      </trkpt>
      <trkpt lat="42.9722058959305286407470703125" lon="-2.381048239767551422119140625">
        <ele>933.4000244140625</ele>
        <time>2022-04-17T10:52:31.000Z</time>
      </trkpt>
      <trkpt lat="42.972204387187957763671875" lon="-2.38103642128407955169677734375">
        <ele>933.4000244140625</ele>
        <time>2022-04-17T10:52:32.000Z</time>
      </trkpt>
      <trkpt lat="42.97219709493219852447509765625" lon="-2.38102904520928859710693359375">
        <ele>933.4000244140625</ele>
        <time>2022-04-17T10:52:33.000Z</time>
      </trkpt>
      <trkpt lat="42.97219206579029560089111328125" lon="-2.3810142092406749725341796875">
        <ele>933.4000244140625</ele>
        <time>2022-04-17T10:52:34.000Z</time>
      </trkpt>
      <trkpt lat="42.97218904830515384674072265625" lon="-2.3810024745762348175048828125">
        <ele>933.4000244140625</ele>
        <time>2022-04-17T10:52:35.000Z</time>
      </trkpt>
      <trkpt lat="42.9721898026764392852783203125" lon="-2.38099300302565097808837890625">
        <ele>933.4000244140625</ele>
        <time>2022-04-17T10:52:36.000Z</time>
      </trkpt>
      <trkpt lat="42.97219072468578815460205078125" lon="-2.380988560616970062255859375">
        <ele>934</ele>
        <time>2022-04-17T10:52:37.000Z</time>
      </trkpt>
      <trkpt lat="42.972189299762248992919921875" lon="-2.38098151981830596923828125">
        <ele>934.5999755859375</ele>
        <time>2022-04-17T10:52:38.000Z</time>
      </trkpt>
      <trkpt lat="42.9721918143332004547119140625" lon="-2.380969785153865814208984375">
        <ele>934.79998779296875</ele>
        <time>2022-04-17T10:52:39.000Z</time>
      </trkpt>
      <trkpt lat="42.97219701111316680908203125" lon="-2.38096282817423343658447265625">
        <ele>935</ele>
        <time>2022-04-17T10:52:40.000Z</time>
      </trkpt>
      <trkpt lat="42.9721918143332004547119140625" lon="-2.38095042295753955841064453125">
        <ele>935</ele>
        <time>2022-04-17T10:52:41.000Z</time>
      </trkpt>
      <trkpt lat="42.97218485735356807708740234375" lon="-2.3809350840747356414794921875">
        <ele>935.20001220703125</ele>
        <time>2022-04-17T10:52:42.000Z</time>
      </trkpt>
      <trkpt lat="42.9721767269074916839599609375" lon="-2.38091572187840938568115234375">
        <ele>935.20001220703125</ele>
        <time>2022-04-17T10:52:43.000Z</time>
      </trkpt>
      <trkpt lat="42.9721713624894618988037109375" lon="-2.38090096972882747650146484375">
        <ele>935.4000244140625</ele>
        <time>2022-04-17T10:52:44.000Z</time>
      </trkpt>
      <trkpt lat="42.97217153012752532958984375" lon="-2.3808896541595458984375">
        <ele>935.4000244140625</ele>
        <time>2022-04-17T10:52:45.000Z</time>
      </trkpt>
      <trkpt lat="42.97217580489814281463623046875" lon="-2.38087934441864490509033203125">
        <ele>935.4000244140625</ele>
        <time>2022-04-17T10:52:46.000Z</time>
      </trkpt>
      <trkpt lat="42.9721748828887939453125" lon="-2.38087129779160022735595703125">
        <ele>935.4000244140625</ele>
        <time>2022-04-17T10:52:47.000Z</time>
      </trkpt>
      <trkpt lat="42.9721757210791110992431640625" lon="-2.3808670230209827423095703125">
        <ele>935.4000244140625</ele>
        <time>2022-04-17T10:52:48.000Z</time>
      </trkpt>
      <trkpt lat="42.97217647545039653778076171875" lon="-2.38086082041263580322265625">
        <ele>935.4000244140625</ele>
        <time>2022-04-17T10:52:49.000Z</time>
      </trkpt>
      <trkpt lat="42.9721740446984767913818359375" lon="-2.38085210323333740234375">
        <ele>935.5999755859375</ele>
        <time>2022-04-17T10:52:50.000Z</time>
      </trkpt>
      <trkpt lat="42.9721760563552379608154296875" lon="-2.3808509297668933868408203125">
        <ele>935.5999755859375</ele>
        <time>2022-04-17T10:52:51.000Z</time>
      </trkpt>
      <trkpt lat="42.9721757210791110992431640625" lon="-2.380845062434673309326171875">
        <ele>935.5999755859375</ele>
        <time>2022-04-17T10:52:52.000Z</time>
      </trkpt>
      <trkpt lat="42.9721735417842864990234375" lon="-2.380838356912136077880859375">
        <ele>935.79998779296875</ele>
        <time>2022-04-17T10:52:53.000Z</time>
      </trkpt>
      <trkpt lat="42.9721659980714321136474609375" lon="-2.3808304779231548309326171875">
        <ele>935.79998779296875</ele>
        <time>2022-04-17T10:52:54.000Z</time>
      </trkpt>
      <trkpt lat="42.97215535305440425872802734375" lon="-2.38081664778292179107666015625">
        <ele>936</ele>
        <time>2022-04-17T10:52:55.000Z</time>
      </trkpt>
      <trkpt lat="42.9721413552761077880859375" lon="-2.380796782672405242919921875">
        <ele>936</ele>
        <time>2022-04-17T10:52:56.000Z</time>
      </trkpt>
      <trkpt lat="42.97213473357260227203369140625" lon="-2.38078278489410877227783203125">
        <ele>936</ele>
        <time>2022-04-17T10:52:57.000Z</time>
      </trkpt>
      <trkpt lat="42.97212727367877960205078125" lon="-2.380774319171905517578125">
        <ele>936.20001220703125</ele>
        <time>2022-04-17T10:52:58.000Z</time>
      </trkpt>
      <trkpt lat="42.972123920917510986328125" lon="-2.38077071495354175567626953125">
        <ele>936.20001220703125</ele>
        <time>2022-04-17T10:52:59.000Z</time>
      </trkpt>
      <trkpt lat="42.972121573984622955322265625" lon="-2.38076367415487766265869140625">
        <ele>936.20001220703125</ele>
        <time>2022-04-17T10:53:00.000Z</time>
      </trkpt>
      <trkpt lat="42.97212056815624237060546875" lon="-2.38075361587107181549072265625">
        <ele>936.4000244140625</ele>
        <time>2022-04-17T10:53:01.000Z</time>
      </trkpt>
      <trkpt lat="42.9721083305776119232177734375" lon="-2.38074037246406078338623046875">
        <ele>936.4000244140625</ele>
        <time>2022-04-17T10:53:02.000Z</time>
      </trkpt>
      <trkpt lat="42.97209885902702808380126953125" lon="-2.3807300627231597900390625">
        <ele>936.5999755859375</ele>
        <time>2022-04-17T10:53:03.000Z</time>
      </trkpt>
      <trkpt lat="42.97208829782903194427490234375" lon="-2.38071992062032222747802734375">
        <ele>936.5999755859375</ele>
        <time>2022-04-17T10:53:04.000Z</time>
      </trkpt>
      <trkpt lat="42.97208326868712902069091796875" lon="-2.3807107843458652496337890625">
        <ele>936.79998779296875</ele>
        <time>2022-04-17T10:53:05.000Z</time>
      </trkpt>
      <trkpt lat="42.972079329192638397216796875" lon="-2.38070097751915454864501953125">
        <ele>937</ele>
        <time>2022-04-17T10:53:06.000Z</time>
      </trkpt>
      <trkpt lat="42.97207069583237171173095703125" lon="-2.380688823759555816650390625">
        <ele>937.20001220703125</ele>
        <time>2022-04-17T10:53:07.000Z</time>
      </trkpt>
      <trkpt lat="42.97206298448145389556884765625" lon="-2.3806752450764179229736328125">
        <ele>937.20001220703125</ele>
        <time>2022-04-17T10:53:08.000Z</time>
      </trkpt>
      <trkpt lat="42.97206549905240535736083984375" lon="-2.380664348602294921875">
        <ele>937.4000244140625</ele>
        <time>2022-04-17T10:53:09.000Z</time>
      </trkpt>
      <trkpt lat="42.97206533141434192657470703125" lon="-2.38065085373818874359130859375">
        <ele>937.4000244140625</ele>
        <time>2022-04-17T10:53:10.000Z</time>
      </trkpt>
      <trkpt lat="42.9720650799572467803955078125" lon="-2.3806400410830974578857421875">
        <ele>937.5999755859375</ele>
        <time>2022-04-17T10:53:11.000Z</time>
      </trkpt>
      <trkpt lat="42.97206046991050243377685546875" lon="-2.38063140772283077239990234375">
        <ele>937.5999755859375</ele>
        <time>2022-04-17T10:53:12.000Z</time>
      </trkpt>
      <trkpt lat="42.9720577038824558258056640625" lon="-2.38061673939228057861328125">
        <ele>937.5999755859375</ele>
        <time>2022-04-17T10:53:13.000Z</time>
      </trkpt>
      <trkpt lat="42.9720546863973140716552734375" lon="-2.3806065134704113006591796875">
        <ele>937.5999755859375</ele>
        <time>2022-04-17T10:53:14.000Z</time>
      </trkpt>
      <trkpt lat="42.9720509983599185943603515625" lon="-2.38060257397592067718505859375">
        <ele>937.5999755859375</ele>
        <time>2022-04-17T10:53:15.000Z</time>
      </trkpt>
      <trkpt lat="42.97205150127410888671875" lon="-2.38059335388243198394775390625">
        <ele>937.5999755859375</ele>
        <time>2022-04-17T10:53:16.000Z</time>
      </trkpt>
      <trkpt lat="42.97204814851284027099609375" lon="-2.38058161921799182891845703125">
        <ele>937.79998779296875</ele>
        <time>2022-04-17T10:53:17.000Z</time>
      </trkpt>
      <trkpt lat="42.97204546630382537841796875" lon="-2.38056787289679050445556640625">
        <ele>937.79998779296875</ele>
        <time>2022-04-17T10:53:18.000Z</time>
      </trkpt>
      <trkpt lat="42.9720442928373813629150390625" lon="-2.38055513240396976470947265625">
        <ele>938</ele>
        <time>2022-04-17T10:53:19.000Z</time>
      </trkpt>
      <trkpt lat="42.97204303555190563201904296875" lon="-2.38054163753986358642578125">
        <ele>938.20001220703125</ele>
        <time>2022-04-17T10:53:20.000Z</time>
      </trkpt>
      <trkpt lat="42.9720379225909709930419921875" lon="-2.38052546046674251556396484375">
        <ele>938.20001220703125</ele>
        <time>2022-04-17T10:53:21.000Z</time>
      </trkpt>
      <trkpt lat="42.9720261879265308380126953125" lon="-2.38050685264170169830322265625">
        <ele>938.4000244140625</ele>
        <time>2022-04-17T10:53:22.000Z</time>
      </trkpt>
      <trkpt lat="42.9720157943665981292724609375" lon="-2.38049260340631008148193359375">
        <ele>938.4000244140625</ele>
        <time>2022-04-17T10:53:23.000Z</time>
      </trkpt>
      <trkpt lat="42.97200732864439487457275390625" lon="-2.38047659397125244140625">
        <ele>938.4000244140625</ele>
        <time>2022-04-17T10:53:24.000Z</time>
      </trkpt>
      <trkpt lat="42.972005568444728851318359375" lon="-2.38046586513519287109375">
        <ele>938.4000244140625</ele>
        <time>2022-04-17T10:53:25.000Z</time>
      </trkpt>
      <trkpt lat="42.972016632556915283203125" lon="-2.38046175800263881683349609375">
        <ele>938.4000244140625</ele>
        <time>2022-04-17T10:53:26.000Z</time>
      </trkpt>
      <trkpt lat="42.9720278643071651458740234375" lon="-2.38045354373753070831298828125">
        <ele>938.4000244140625</ele>
        <time>2022-04-17T10:53:27.000Z</time>
      </trkpt>
      <trkpt lat="42.97202627174556255340576171875" lon="-2.380437366664409637451171875">
        <ele>938.5999755859375</ele>
        <time>2022-04-17T10:53:28.000Z</time>
      </trkpt>
      <trkpt lat="42.97202325426042079925537109375" lon="-2.38042102195322513580322265625">
        <ele>938.5999755859375</ele>
        <time>2022-04-17T10:53:29.000Z</time>
      </trkpt>
      <trkpt lat="42.97201839275658130645751953125" lon="-2.38041155040264129638671875">
        <ele>938.5999755859375</ele>
        <time>2022-04-17T10:53:30.000Z</time>
      </trkpt>
      <trkpt lat="42.97201202251017093658447265625" lon="-2.38040618598461151123046875">
        <ele>938.5999755859375</ele>
        <time>2022-04-17T10:53:31.000Z</time>
      </trkpt>
      <trkpt lat="42.97200297005474567413330078125" lon="-2.38039688207209110260009765625">
        <ele>938.79998779296875</ele>
        <time>2022-04-17T10:53:32.000Z</time>
      </trkpt>
      <trkpt lat="42.97200112603604793548583984375" lon="-2.38038984127342700958251953125">
        <ele>938.79998779296875</ele>
        <time>2022-04-17T10:53:33.000Z</time>
      </trkpt>
      <trkpt lat="42.97200196422636508941650390625" lon="-2.380385063588619232177734375">
        <ele>939</ele>
        <time>2022-04-17T10:53:34.000Z</time>
      </trkpt>
      <trkpt lat="42.972000874578952789306640625" lon="-2.3803755082190036773681640625">
        <ele>939</ele>
        <time>2022-04-17T10:53:35.000Z</time>
      </trkpt>
      <trkpt lat="42.971999533474445343017578125" lon="-2.3803684674203395843505859375">
        <ele>939</ele>
        <time>2022-04-17T10:53:36.000Z</time>
      </trkpt>
      <trkpt lat="42.9720033891499042510986328125" lon="-2.38036368973553180694580078125">
        <ele>939</ele>
        <time>2022-04-17T10:53:37.000Z</time>
      </trkpt>
      <trkpt lat="42.97200481407344341278076171875" lon="-2.38036050461232662200927734375">
        <ele>939</ele>
        <time>2022-04-17T10:53:38.000Z</time>
      </trkpt>
      <trkpt lat="42.97200581990182399749755859375" lon="-2.38035044632852077484130859375">
        <ele>939</ele>
        <time>2022-04-17T10:53:39.000Z</time>
      </trkpt>
      <trkpt lat="42.97200749628245830535888671875" lon="-2.38034239970147609710693359375">
        <ele>939.20001220703125</ele>
        <time>2022-04-17T10:53:40.000Z</time>
      </trkpt>
      <trkpt lat="42.97200900502502918243408203125" lon="-2.3803317546844482421875">
        <ele>939.20001220703125</ele>
        <time>2022-04-17T10:53:41.000Z</time>
      </trkpt>
      <trkpt lat="42.97201931476593017578125" lon="-2.3803255520761013031005859375">
        <ele>939.20001220703125</ele>
        <time>2022-04-17T10:53:42.000Z</time>
      </trkpt>
      <trkpt lat="42.9720302112400531768798828125" lon="-2.380318678915500640869140625">
        <ele>939.20001220703125</ele>
        <time>2022-04-17T10:53:43.000Z</time>
      </trkpt>
      <trkpt lat="42.97204689122736454010009765625" lon="-2.38032395951449871063232421875">
        <ele>939.20001220703125</ele>
        <time>2022-04-17T10:53:44.000Z</time>
      </trkpt>
      <trkpt lat="42.97204739414155483245849609375" lon="-2.38030887208878993988037109375">
        <ele>939.20001220703125</ele>
        <time>2022-04-17T10:53:45.000Z</time>
      </trkpt>
      <trkpt lat="42.97204722650349140167236328125" lon="-2.38029864616692066192626953125">
        <ele>939.20001220703125</ele>
        <time>2022-04-17T10:53:46.000Z</time>
      </trkpt>
      <trkpt lat="42.97204186208546161651611328125" lon="-2.38028950989246368408203125">
        <ele>939.20001220703125</ele>
        <time>2022-04-17T10:53:47.000Z</time>
      </trkpt>
      <trkpt lat="42.97204102389514446258544921875" lon="-2.38028104417026042938232421875">
        <ele>939.20001220703125</ele>
        <time>2022-04-17T10:53:48.000Z</time>
      </trkpt>
      <trkpt lat="42.9720385931432247161865234375" lon="-2.380271069705486297607421875">
        <ele>939.4000244140625</ele>
        <time>2022-04-17T10:53:49.000Z</time>
      </trkpt>
      <trkpt lat="42.97203741967678070068359375" lon="-2.38026411272585391998291015625">
        <ele>939.4000244140625</ele>
        <time>2022-04-17T10:53:50.000Z</time>
      </trkpt>
      <trkpt lat="42.9720338992774486541748046875" lon="-2.3802605085074901580810546875">
        <ele>939.4000244140625</ele>
        <time>2022-04-17T10:53:51.000Z</time>
      </trkpt>
      <trkpt lat="42.9720318876206874847412109375" lon="-2.3802514560520648956298828125">
        <ele>939.4000244140625</ele>
        <time>2022-04-17T10:53:52.000Z</time>
      </trkpt>
      <trkpt lat="42.9720313847064971923828125" lon="-2.38024391233921051025390625">
        <ele>939.5999755859375</ele>
        <time>2022-04-17T10:53:53.000Z</time>
      </trkpt>
      <trkpt lat="42.97202828340232372283935546875" lon="-2.380234859883785247802734375">
        <ele>939.5999755859375</ele>
        <time>2022-04-17T10:53:54.000Z</time>
      </trkpt>
      <trkpt lat="42.97202710993587970733642578125" lon="-2.38022488541901111602783203125">
        <ele>939.5999755859375</ele>
        <time>2022-04-17T10:53:55.000Z</time>
      </trkpt>
      <trkpt lat="42.97202937304973602294921875" lon="-2.38021415658295154571533203125">
        <ele>939.5999755859375</ele>
        <time>2022-04-17T10:53:56.000Z</time>
      </trkpt>
      <trkpt lat="42.9720312170684337615966796875" lon="-2.3802071996033191680908203125">
        <ele>939.5999755859375</ele>
        <time>2022-04-17T10:53:57.000Z</time>
      </trkpt>
      <trkpt lat="42.97203071415424346923828125" lon="-2.38019906915724277496337890625">
        <ele>939.5999755859375</ele>
        <time>2022-04-17T10:53:58.000Z</time>
      </trkpt>
      <trkpt lat="42.97202643938362598419189453125" lon="-2.3801897652447223663330078125">
        <ele>939.5999755859375</ele>
        <time>2022-04-17T10:53:59.000Z</time>
      </trkpt>
      <trkpt lat="42.97202392481267452239990234375" lon="-2.3801783658564090728759765625">
        <ele>939.5999755859375</ele>
        <time>2022-04-17T10:54:00.000Z</time>
      </trkpt>
      <trkpt lat="42.97201956622302532196044921875" lon="-2.38016637973487377166748046875">
        <ele>939.5999755859375</ele>
        <time>2022-04-17T10:54:01.000Z</time>
      </trkpt>
      <trkpt lat="42.972018979489803314208984375" lon="-2.3801532201468944549560546875">
        <ele>939.5999755859375</ele>
        <time>2022-04-17T10:54:02.000Z</time>
      </trkpt>
      <trkpt lat="42.97201705165207386016845703125" lon="-2.3801411502063274383544921875">
        <ele>939.5999755859375</ele>
        <time>2022-04-17T10:54:03.000Z</time>
      </trkpt>
      <trkpt lat="42.972011268138885498046875" lon="-2.38013369031250476837158203125">
        <ele>939.79998779296875</ele>
        <time>2022-04-17T10:54:04.000Z</time>
      </trkpt>
      <trkpt lat="42.97200112603604793548583984375" lon="-2.38012782298028469085693359375">
        <ele>939.79998779296875</ele>
        <time>2022-04-17T10:54:05.000Z</time>
      </trkpt>
      <trkpt lat="42.97199391759932041168212890625" lon="-2.3801180161535739898681640625">
        <ele>940</ele>
        <time>2022-04-17T10:54:06.000Z</time>
      </trkpt>
      <trkpt lat="42.971990145742893218994140625" lon="-2.38010887987911701202392578125">
        <ele>940</ele>
        <time>2022-04-17T10:54:07.000Z</time>
      </trkpt>
      <trkpt lat="42.97198603861033916473388671875" lon="-2.38009463064372539520263671875">
        <ele>940.20001220703125</ele>
        <time>2022-04-17T10:54:08.000Z</time>
      </trkpt>
      <trkpt lat="42.97198067419230937957763671875" lon="-2.38009513355791568756103515625">
        <ele>940.20001220703125</ele>
        <time>2022-04-17T10:54:09.000Z</time>
      </trkpt>
      <trkpt lat="42.97197514213621616363525390625" lon="-2.3800965584814548492431640625">
        <ele>940.20001220703125</ele>
        <time>2022-04-17T10:54:10.000Z</time>
      </trkpt>
      <trkpt lat="42.971975393593311309814453125" lon="-2.380100749433040618896484375">
        <ele>940.20001220703125</ele>
        <time>2022-04-17T10:54:11.000Z</time>
      </trkpt>
      <trkpt lat="42.97196860425174236297607421875" lon="-2.38010309636592864990234375">
        <ele>940.20001220703125</ele>
        <time>2022-04-17T10:54:12.000Z</time>
      </trkpt>
      <trkpt lat="42.971962653100490570068359375" lon="-2.38010401837527751922607421875">
        <ele>940.20001220703125</ele>
        <time>2022-04-17T10:54:13.000Z</time>
      </trkpt>
      <trkpt lat="42.971956618130207061767578125" lon="-2.3801035992801189422607421875">
        <ele>940.4000244140625</ele>
        <time>2022-04-17T10:54:14.000Z</time>
      </trkpt>
      <trkpt lat="42.97194957733154296875" lon="-2.3801046051084995269775390625">
        <ele>940.4000244140625</ele>
        <time>2022-04-17T10:54:15.000Z</time>
      </trkpt>
      <trkpt lat="42.971947900950908660888671875" lon="-2.38010284490883350372314453125">
        <ele>940.5999755859375</ele>
        <time>2022-04-17T10:54:16.000Z</time>
      </trkpt>
      <trkpt lat="42.97194429673254489898681640625" lon="-2.38010401837527751922607421875">
        <ele>940.5999755859375</ele>
        <time>2022-04-17T10:54:17.000Z</time>
      </trkpt>
      <trkpt lat="42.9719373397529125213623046875" lon="-2.380098737776279449462890625">
        <ele>940.79998779296875</ele>
        <time>2022-04-17T10:54:18.000Z</time>
      </trkpt>
      <trkpt lat="42.9719192348420619964599609375" lon="-2.3800885118544101715087890625">
        <ele>941</ele>
        <time>2022-04-17T10:54:19.000Z</time>
      </trkpt>
      <trkpt lat="42.97191009856760501861572265625" lon="-2.3800811357796192169189453125">
        <ele>941</ele>
        <time>2022-04-17T10:54:20.000Z</time>
      </trkpt>
      <trkpt lat="42.97190557233989238739013671875" lon="-2.3800814710557460784912109375">
        <ele>941.20001220703125</ele>
        <time>2022-04-17T10:54:21.000Z</time>
      </trkpt>
      <trkpt lat="42.971900291740894317626953125" lon="-2.3800808005034923553466796875">
        <ele>941.4000244140625</ele>
        <time>2022-04-17T10:54:22.000Z</time>
      </trkpt>
      <trkpt lat="42.97189333476126194000244140625" lon="-2.380075268447399139404296875">
        <ele>941.4000244140625</ele>
        <time>2022-04-17T10:54:23.000Z</time>
      </trkpt>
      <trkpt lat="42.97188629396259784698486328125" lon="-2.380071245133876800537109375">
        <ele>941.5999755859375</ele>
        <time>2022-04-17T10:54:24.000Z</time>
      </trkpt>
      <trkpt lat="42.9718783311545848846435546875" lon="-2.38007367588579654693603515625">
        <ele>941.5999755859375</ele>
        <time>2022-04-17T10:54:25.000Z</time>
      </trkpt>
      <trkpt lat="42.97186978161334991455078125" lon="-2.38007535226643085479736328125">
        <ele>941.5999755859375</ele>
        <time>2022-04-17T10:54:26.000Z</time>
      </trkpt>
      <trkpt lat="42.971858717501163482666015625" lon="-2.3800730891525745391845703125">
        <ele>941.79998779296875</ele>
        <time>2022-04-17T10:54:27.000Z</time>
      </trkpt>
      <trkpt lat="42.9718463122844696044921875" lon="-2.380069904029369354248046875">
        <ele>941.79998779296875</ele>
        <time>2022-04-17T10:54:28.000Z</time>
      </trkpt>
      <trkpt lat="42.971834242343902587890625" lon="-2.3800620250403881072998046875">
        <ele>942</ele>
        <time>2022-04-17T10:54:29.000Z</time>
      </trkpt>
      <trkpt lat="42.97182443551719188690185546875" lon="-2.3800600133836269378662109375">
        <ele>942</ele>
        <time>2022-04-17T10:54:30.000Z</time>
      </trkpt>
      <trkpt lat="42.9718116112053394317626953125" lon="-2.380055487155914306640625">
        <ele>942</ele>
        <time>2022-04-17T10:54:31.000Z</time>
      </trkpt>
      <trkpt lat="42.9718028940260410308837890625" lon="-2.380052469670772552490234375">
        <ele>942.20001220703125</ele>
        <time>2022-04-17T10:54:32.000Z</time>
      </trkpt>
      <trkpt lat="42.9718106053769588470458984375" lon="-2.38005557097494602203369140625">
        <ele>942.20001220703125</ele>
        <time>2022-04-17T10:54:33.000Z</time>
      </trkpt>
      <trkpt lat="42.97182208858430385589599609375" lon="-2.38006546162068843841552734375">
        <ele>942.20001220703125</ele>
        <time>2022-04-17T10:54:34.000Z</time>
      </trkpt>
      <trkpt lat="42.9718132875859737396240234375" lon="-2.3800702393054962158203125">
        <ele>942.4000244140625</ele>
        <time>2022-04-17T10:54:35.000Z</time>
      </trkpt>
      <trkpt lat="42.97180415131151676177978515625" lon="-2.38006554543972015380859375">
        <ele>942.5999755859375</ele>
        <time>2022-04-17T10:54:36.000Z</time>
      </trkpt>
      <trkpt lat="42.971791326999664306640625" lon="-2.3800586722791194915771484375">
        <ele>942.5999755859375</ele>
        <time>2022-04-17T10:54:37.000Z</time>
      </trkpt>
      <trkpt lat="42.97177682630717754364013671875" lon="-2.3800600133836269378662109375">
        <ele>942.5999755859375</ele>
        <time>2022-04-17T10:54:38.000Z</time>
      </trkpt>
      <trkpt lat="42.9717671871185302734375" lon="-2.38005255348980426788330078125">
        <ele>942.5999755859375</ele>
        <time>2022-04-17T10:54:39.000Z</time>
      </trkpt>
      <trkpt lat="42.9717589728534221649169921875" lon="-2.3800425790250301361083984375">
        <ele>942.79998779296875</ele>
        <time>2022-04-17T10:54:40.000Z</time>
      </trkpt>
      <trkpt lat="42.97175419516861438751220703125" lon="-2.38003411330282688140869140625">
        <ele>943</ele>
        <time>2022-04-17T10:54:41.000Z</time>
      </trkpt>
      <trkpt lat="42.9717551171779632568359375" lon="-2.38002606667578220367431640625">
        <ele>943</ele>
        <time>2022-04-17T10:54:42.000Z</time>
      </trkpt>
      <trkpt lat="42.9717532731592655181884765625" lon="-2.38002221100032329559326171875">
        <ele>943</ele>
        <time>2022-04-17T10:54:43.000Z</time>
      </trkpt>
      <trkpt lat="42.97175101004540920257568359375" lon="-2.38001366145908832550048828125">
        <ele>943</ele>
        <time>2022-04-17T10:54:44.000Z</time>
      </trkpt>
      <trkpt lat="42.971751429140567779541015625" lon="-2.38000175915658473968505859375">
        <ele>943</ele>
        <time>2022-04-17T10:54:45.000Z</time>
      </trkpt>
      <trkpt lat="42.97174748964607715606689453125" lon="-2.37998717464506626129150390625">
        <ele>943</ele>
        <time>2022-04-17T10:54:46.000Z</time>
      </trkpt>
      <trkpt lat="42.97173994593322277069091796875" lon="-2.37997627817094326019287109375">
        <ele>943</ele>
        <time>2022-04-17T10:54:47.000Z</time>
      </trkpt>
      <trkpt lat="42.9717348329722881317138671875" lon="-2.37996756099164485931396484375">
        <ele>943.20001220703125</ele>
        <time>2022-04-17T10:54:48.000Z</time>
      </trkpt>
      <trkpt lat="42.97173433005809783935546875" lon="-2.37995867617428302764892578125">
        <ele>943.20001220703125</ele>
        <time>2022-04-17T10:54:49.000Z</time>
      </trkpt>
      <trkpt lat="42.97172888182103633880615234375" lon="-2.37995029427111148834228515625">
        <ele>943.4000244140625</ele>
        <time>2022-04-17T10:54:50.000Z</time>
      </trkpt>
      <trkpt lat="42.97172033227980136871337890625" lon="-2.37994258292019367218017578125">
        <ele>943.4000244140625</ele>
        <time>2022-04-17T10:54:51.000Z</time>
      </trkpt>
      <trkpt lat="42.9717153869569301605224609375" lon="-2.379943169653415679931640625">
        <ele>943.5999755859375</ele>
        <time>2022-04-17T10:54:52.000Z</time>
      </trkpt>
      <trkpt lat="42.971709184348583221435546875" lon="-2.3799468576908111572265625">
        <ele>943.5999755859375</ele>
        <time>2022-04-17T10:54:53.000Z</time>
      </trkpt>
      <trkpt lat="42.97169652767479419708251953125" lon="-2.37994216382503509521484375">
        <ele>943.5999755859375</ele>
        <time>2022-04-17T10:54:54.000Z</time>
      </trkpt>
      <trkpt lat="42.97168462537229061126708984375" lon="-2.37993269227445125579833984375">
        <ele>943.79998779296875</ele>
        <time>2022-04-17T10:54:55.000Z</time>
      </trkpt>
      <trkpt lat="42.9716826975345611572265625" lon="-2.37992766313254833221435546875">
        <ele>943.79998779296875</ele>
        <time>2022-04-17T10:54:56.000Z</time>
      </trkpt>
      <trkpt lat="42.9716825298964977264404296875" lon="-2.37992607057094573974609375">
        <ele>943.79998779296875</ele>
        <time>2022-04-17T10:54:57.000Z</time>
      </trkpt>
      <trkpt lat="42.971685715019702911376953125" lon="-2.3799218796193599700927734375">
        <ele>944</ele>
        <time>2022-04-17T10:54:58.000Z</time>
      </trkpt>
      <trkpt lat="42.971693761646747589111328125" lon="-2.37991928122937679290771484375">
        <ele>944</ele>
        <time>2022-04-17T10:54:59.000Z</time>
      </trkpt>
      <trkpt lat="42.97169669531285762786865234375" lon="-2.3799208737909793853759765625">
        <ele>944</ele>
        <time>2022-04-17T10:55:00.000Z</time>
      </trkpt>
      <trkpt lat="42.9716956056654453277587890625" lon="-2.37991458736360073089599609375">
        <ele>944</ele>
        <time>2022-04-17T10:55:01.000Z</time>
      </trkpt>
      <trkpt lat="42.97169032506644725799560546875" lon="-2.37990670837461948394775390625">
        <ele>944.20001220703125</ele>
        <time>2022-04-17T10:55:02.000Z</time>
      </trkpt>
      <trkpt lat="42.9716875590384006500244140625" lon="-2.37990335561335086822509765625">
        <ele>944.4000244140625</ele>
        <time>2022-04-17T10:55:03.000Z</time>
      </trkpt>
      <trkpt lat="42.97168613411486148834228515625" lon="-2.3798994161188602447509765625">
        <ele>944.4000244140625</ele>
        <time>2022-04-17T10:55:04.000Z</time>
      </trkpt>
      <trkpt lat="42.9716848768293857574462890625" lon="-2.37989723682403564453125">
        <ele>944.5999755859375</ele>
        <time>2022-04-17T10:55:05.000Z</time>
      </trkpt>
      <trkpt lat="42.97168479301035404205322265625" lon="-2.37989363260567188262939453125">
        <ele>944.5999755859375</ele>
        <time>2022-04-17T10:55:06.000Z</time>
      </trkpt>
      <trkpt lat="42.971683032810688018798828125" lon="-2.3798886872828006744384765625">
        <ele>944.79998779296875</ele>
        <time>2022-04-17T10:55:07.000Z</time>
      </trkpt>
      <trkpt lat="42.97168060205876827239990234375" lon="-2.37988424487411975860595703125">
        <ele>945</ele>
        <time>2022-04-17T10:55:08.000Z</time>
      </trkpt>
      <trkpt lat="42.97167775221168994903564453125" lon="-2.3798816464841365814208984375">
        <ele>945</ele>
        <time>2022-04-17T10:55:09.000Z</time>
      </trkpt>
      <trkpt lat="42.971671633422374725341796875" lon="-2.37987971864640712738037109375">
        <ele>945.20001220703125</ele>
        <time>2022-04-17T10:55:10.000Z</time>
      </trkpt>
      <trkpt lat="42.97166685573756694793701171875" lon="-2.37987737171351909637451171875">
        <ele>945.4000244140625</ele>
        <time>2022-04-17T10:55:11.000Z</time>
      </trkpt>
      <trkpt lat="42.97166056931018829345703125" lon="-2.37987267784774303436279296875">
        <ele>945.4000244140625</ele>
        <time>2022-04-17T10:55:12.000Z</time>
      </trkpt>
      <trkpt lat="42.97165654599666595458984375" lon="-2.37987083382904529571533203125">
        <ele>945.5999755859375</ele>
        <time>2022-04-17T10:55:13.000Z</time>
      </trkpt>
      <trkpt lat="42.971652187407016754150390625" lon="-2.37987041473388671875">
        <ele>945.79998779296875</ele>
        <time>2022-04-17T10:55:14.000Z</time>
      </trkpt>
      <trkpt lat="42.97164690680801868438720703125" lon="-2.3798690736293792724609375">
        <ele>945.79998779296875</ele>
        <time>2022-04-17T10:55:15.000Z</time>
      </trkpt>
      <trkpt lat="42.9716402851045131683349609375" lon="-2.37986764870584011077880859375">
        <ele>946</ele>
        <time>2022-04-17T10:55:16.000Z</time>
      </trkpt>
      <trkpt lat="42.9716386087238788604736328125" lon="-2.379863373935222625732421875">
        <ele>946</ele>
        <time>2022-04-17T10:55:17.000Z</time>
      </trkpt>
      <trkpt lat="42.9716433025896549224853515625" lon="-2.3798548243939876556396484375">
        <ele>946.20001220703125</ele>
        <time>2022-04-17T10:55:18.000Z</time>
      </trkpt>
      <trkpt lat="42.971644811332225799560546875" lon="-2.379843257367610931396484375">
        <ele>946.4000244140625</ele>
        <time>2022-04-17T10:55:19.000Z</time>
      </trkpt>
      <trkpt lat="42.97164087183773517608642578125" lon="-2.37983093596994876861572265625">
        <ele>946.4000244140625</ele>
        <time>2022-04-17T10:55:20.000Z</time>
      </trkpt>
      <trkpt lat="42.971636764705181121826171875" lon="-2.37981970421969890594482421875">
        <ele>946.5999755859375</ele>
        <time>2022-04-17T10:55:21.000Z</time>
      </trkpt>
      <trkpt lat="42.97163248993456363677978515625" lon="-2.3798102326691150665283203125">
        <ele>946.79998779296875</ele>
        <time>2022-04-17T10:55:22.000Z</time>
      </trkpt>
      <trkpt lat="42.9716288857161998748779296875" lon="-2.37980562262237071990966796875">
        <ele>946.79998779296875</ele>
        <time>2022-04-17T10:55:23.000Z</time>
      </trkpt>
      <trkpt lat="42.9716255329549312591552734375" lon="-2.3798015154898166656494140625">
        <ele>946.79998779296875</ele>
        <time>2022-04-17T10:55:24.000Z</time>
      </trkpt>
      <trkpt lat="42.971623353660106658935546875" lon="-2.37979740835726261138916015625">
        <ele>947</ele>
        <time>2022-04-17T10:55:25.000Z</time>
      </trkpt>
      <trkpt lat="42.97162109054625034332275390625" lon="-2.37979330122470855712890625">
        <ele>947.20001220703125</ele>
        <time>2022-04-17T10:55:26.000Z</time>
      </trkpt>
      <trkpt lat="42.97161689959466457366943359375" lon="-2.3797867633402347564697265625">
        <ele>947.4000244140625</ele>
        <time>2022-04-17T10:55:27.000Z</time>
      </trkpt>
      <trkpt lat="42.97161170281469821929931640625" lon="-2.37978047691285610198974609375">
        <ele>947.79998779296875</ele>
        <time>2022-04-17T10:55:28.000Z</time>
      </trkpt>
      <trkpt lat="42.971605248749256134033203125" lon="-2.37977452576160430908203125">
        <ele>948</ele>
        <time>2022-04-17T10:55:29.000Z</time>
      </trkpt>
      <trkpt lat="42.9715933464467525482177734375" lon="-2.3797659762203693389892578125">
        <ele>948</ele>
        <time>2022-04-17T10:55:30.000Z</time>
      </trkpt>
      <trkpt lat="42.97158521600067615509033203125" lon="-2.3797586001455783843994140625">
        <ele>948.20001220703125</ele>
        <time>2022-04-17T10:55:31.000Z</time>
      </trkpt>
      <trkpt lat="42.97158337198197841644287109375" lon="-2.3797532357275485992431640625">
        <ele>948.20001220703125</ele>
        <time>2022-04-17T10:55:32.000Z</time>
      </trkpt>
      <trkpt lat="42.971577085554599761962890625" lon="-2.37974376417696475982666015625">
        <ele>948.20001220703125</ele>
        <time>2022-04-17T10:55:33.000Z</time>
      </trkpt>
      <trkpt lat="42.9715728946030139923095703125" lon="-2.379741333425045013427734375">
        <ele>948.4000244140625</ele>
        <time>2022-04-17T10:55:34.000Z</time>
      </trkpt>
      <trkpt lat="42.9715655185282230377197265625" lon="-2.37973454408347606658935546875">
        <ele>948.20001220703125</ele>
        <time>2022-04-17T10:55:35.000Z</time>
      </trkpt>
      <trkpt lat="42.971554286777973175048828125" lon="-2.37972616218030452728271484375">
        <ele>948.4000244140625</ele>
        <time>2022-04-17T10:55:36.000Z</time>
      </trkpt>
      <trkpt lat="42.9715457372367382049560546875" lon="-2.379717193543910980224609375">
        <ele>948.4000244140625</ele>
        <time>2022-04-17T10:55:37.000Z</time>
      </trkpt>
      <trkpt lat="42.97153928317129611968994140625" lon="-2.3797073028981685638427734375">
        <ele>948.4000244140625</ele>
        <time>2022-04-17T10:55:38.000Z</time>
      </trkpt>
      <trkpt lat="42.9715326614677906036376953125" lon="-2.37969766370952129364013671875">
        <ele>948.5999755859375</ele>
        <time>2022-04-17T10:55:39.000Z</time>
      </trkpt>
      <trkpt lat="42.9715190827846527099609375" lon="-2.37968676723539829254150390625">
        <ele>948.5999755859375</ele>
        <time>2022-04-17T10:55:40.000Z</time>
      </trkpt>
      <trkpt lat="42.9715071804821491241455078125" lon="-2.379673607647418975830078125">
        <ele>949</ele>
        <time>2022-04-17T10:55:41.000Z</time>
      </trkpt>
      <trkpt lat="42.97149351797997951507568359375" lon="-2.37966178916394710540771484375">
        <ele>949.20001220703125</ele>
        <time>2022-04-17T10:55:42.000Z</time>
      </trkpt>
      <trkpt lat="42.97149117104709148406982421875" lon="-2.37964854575693607330322265625">
        <ele>949.4000244140625</ele>
        <time>2022-04-17T10:55:43.000Z</time>
      </trkpt>
      <trkpt lat="42.97148932702839374542236328125" lon="-2.379637397825717926025390625">
        <ele>949.4000244140625</ele>
        <time>2022-04-17T10:55:44.000Z</time>
      </trkpt>
      <trkpt lat="42.971491925418376922607421875" lon="-2.3796332068741321563720703125">
        <ele>949.4000244140625</ele>
        <time>2022-04-17T10:55:45.000Z</time>
      </trkpt>
      <trkpt lat="42.97148899175226688385009765625" lon="-2.37963748164474964141845703125">
        <ele>949.4000244140625</ele>
        <time>2022-04-17T10:55:46.000Z</time>
      </trkpt>
      <trkpt lat="42.971478514373302459716796875" lon="-2.37963681109249591827392578125">
        <ele>949.5999755859375</ele>
        <time>2022-04-17T10:55:47.000Z</time>
      </trkpt>
      <trkpt lat="42.97146745026111602783203125" lon="-2.37963773310184478759765625">
        <ele>949.5999755859375</ele>
        <time>2022-04-17T10:55:48.000Z</time>
      </trkpt>
      <trkpt lat="42.9714612476527690887451171875" lon="-2.37963697873055934906005859375">
        <ele>949.79998779296875</ele>
        <time>2022-04-17T10:55:49.000Z</time>
      </trkpt>
      <trkpt lat="42.9714508540928363800048828125" lon="-2.37963178195059299468994140625">
        <ele>949.79998779296875</ele>
        <time>2022-04-17T10:55:50.000Z</time>
      </trkpt>
      <trkpt lat="42.97144708223640918731689453125" lon="-2.37963178195059299468994140625">
        <ele>949.79998779296875</ele>
        <time>2022-04-17T10:55:51.000Z</time>
      </trkpt>
      <trkpt lat="42.9714431427419185638427734375" lon="-2.37963144667446613311767578125">
        <ele>949.79998779296875</ele>
        <time>2022-04-17T10:55:52.000Z</time>
      </trkpt>
      <trkpt lat="42.97144037671387195587158203125" lon="-2.37962960265576839447021484375">
        <ele>949.79998779296875</ele>
        <time>2022-04-17T10:55:53.000Z</time>
      </trkpt>
      <trkpt lat="42.971440292894840240478515625" lon="-2.3796303570270538330078125">
        <ele>949.79998779296875</ele>
        <time>2022-04-17T10:55:54.000Z</time>
      </trkpt>
      <trkpt lat="42.97143853269517421722412109375" lon="-2.379630692303180694580078125">
        <ele>949.5999755859375</ele>
        <time>2022-04-17T10:55:55.000Z</time>
      </trkpt>
      <trkpt lat="42.971436269581317901611328125" lon="-2.379632703959941864013671875">
        <ele>949.5999755859375</ele>
        <time>2022-04-17T10:55:56.000Z</time>
      </trkpt>
      <trkpt lat="42.97143233008682727813720703125" lon="-2.37963362596929073333740234375">
        <ele>949.79998779296875</ele>
        <time>2022-04-17T10:55:57.000Z</time>
      </trkpt>
      <trkpt lat="42.971426546573638916015625" lon="-2.3796358890831470489501953125">
        <ele>949.79998779296875</ele>
        <time>2022-04-17T10:55:58.000Z</time>
      </trkpt>
      <trkpt lat="42.97142160125076770782470703125" lon="-2.379636727273464202880859375">
        <ele>949.79998779296875</ele>
        <time>2022-04-17T10:55:59.000Z</time>
      </trkpt>
      <trkpt lat="42.9714190028607845306396484375" lon="-2.3796328715980052947998046875">
        <ele>949.79998779296875</ele>
        <time>2022-04-17T10:56:00.000Z</time>
      </trkpt>
      <trkpt lat="42.9714143089950084686279296875" lon="-2.37962742336094379425048828125">
        <ele>949.79998779296875</ele>
        <time>2022-04-17T10:56:01.000Z</time>
      </trkpt>
      <trkpt lat="42.9714122973382472991943359375" lon="-2.37962407059967517852783203125">
        <ele>949.79998779296875</ele>
        <time>2022-04-17T10:56:02.000Z</time>
      </trkpt>
      <trkpt lat="42.97141112387180328369140625" lon="-2.3796223104000091552734375">
        <ele>949.79998779296875</ele>
        <time>2022-04-17T10:56:03.000Z</time>
      </trkpt>
      <trkpt lat="42.97141120769083499908447265625" lon="-2.37961904145777225494384765625">
        <ele>949.79998779296875</ele>
        <time>2022-04-17T10:56:04.000Z</time>
      </trkpt>
      <trkpt lat="42.9714091122150421142578125" lon="-2.37961552105844020843505859375">
        <ele>949.79998779296875</ele>
        <time>2022-04-17T10:56:05.000Z</time>
      </trkpt>
      <trkpt lat="42.97140617854893207550048828125" lon="-2.37961233593523502349853515625">
        <ele>949.79998779296875</ele>
        <time>2022-04-17T10:56:06.000Z</time>
      </trkpt>
      <trkpt lat="42.97140173614025115966796875" lon="-2.37961099483072757720947265625">
        <ele>949.79998779296875</ele>
        <time>2022-04-17T10:56:07.000Z</time>
      </trkpt>
      <trkpt lat="42.97139276750385761260986328125" lon="-2.37960697151720523834228515625">
        <ele>949.79998779296875</ele>
        <time>2022-04-17T10:56:08.000Z</time>
      </trkpt>
      <trkpt lat="42.9713854752480983734130859375" lon="-2.37959875725209712982177734375">
        <ele>949.79998779296875</ele>
        <time>2022-04-17T10:56:09.000Z</time>
      </trkpt>
      <trkpt lat="42.97138505615293979644775390625" lon="-2.379597835242748260498046875">
        <ele>949.79998779296875</ele>
        <time>2022-04-17T10:56:10.000Z</time>
      </trkpt>
      <trkpt lat="42.9713878221809864044189453125" lon="-2.3796035349369049072265625">
        <ele>949.5999755859375</ele>
        <time>2022-04-17T10:56:11.000Z</time>
      </trkpt>
      <trkpt lat="42.971396036446094512939453125" lon="-2.37960596568882465362548828125">
        <ele>949.5999755859375</ele>
        <time>2022-04-17T10:56:12.000Z</time>
      </trkpt>
      <trkpt lat="42.9713985510170459747314453125" lon="-2.37960965372622013092041015625">
        <ele>949.5999755859375</ele>
        <time>2022-04-17T10:56:13.000Z</time>
      </trkpt>
      <trkpt lat="42.9713916778564453125" lon="-2.379606552422046661376953125">
        <ele>949.79998779296875</ele>
        <time>2022-04-17T10:56:14.000Z</time>
      </trkpt>
      <trkpt lat="42.971386648714542388916015625" lon="-2.37960563041269779205322265625">
        <ele>949.79998779296875</ele>
        <time>2022-04-17T10:56:15.000Z</time>
      </trkpt>
      <trkpt lat="42.97138832509517669677734375" lon="-2.37960278056561946868896484375">
        <ele>949.79998779296875</ele>
        <time>2022-04-17T10:56:16.000Z</time>
      </trkpt>
      <trkpt lat="42.971387989819049835205078125" lon="-2.3795906268060207366943359375">
        <ele>949.79998779296875</ele>
        <time>2022-04-17T10:56:17.000Z</time>
      </trkpt>
      <trkpt lat="42.971386648714542388916015625" lon="-2.37958140671253204345703125">
        <ele>949.79998779296875</ele>
        <time>2022-04-17T10:56:18.000Z</time>
      </trkpt>
      <trkpt lat="42.97138187102973461151123046875" lon="-2.3795740306377410888671875">
        <ele>949.79998779296875</ele>
        <time>2022-04-17T10:56:19.000Z</time>
      </trkpt>
      <trkpt lat="42.97137265093624591827392578125" lon="-2.37956740893423557281494140625">
        <ele>949.79998779296875</ele>
        <time>2022-04-17T10:56:20.000Z</time>
      </trkpt>
      <trkpt lat="42.97136426903307437896728515625" lon="-2.379560284316539764404296875">
        <ele>949.79998779296875</ele>
        <time>2022-04-17T10:56:21.000Z</time>
      </trkpt>
      <trkpt lat="42.9713586531579494476318359375" lon="-2.37955190241336822509765625">
        <ele>949.79998779296875</ele>
        <time>2022-04-17T10:56:22.000Z</time>
      </trkpt>
      <trkpt lat="42.9713581502437591552734375" lon="-2.3795436881482601165771484375">
        <ele>949.79998779296875</ele>
        <time>2022-04-17T10:56:23.000Z</time>
      </trkpt>
      <trkpt lat="42.9713542945683002471923828125" lon="-2.3795332945883274078369140625">
        <ele>949.79998779296875</ele>
        <time>2022-04-17T10:56:24.000Z</time>
      </trkpt>
      <trkpt lat="42.97135152854025363922119140625" lon="-2.37952616997063159942626953125">
        <ele>950</ele>
        <time>2022-04-17T10:56:25.000Z</time>
      </trkpt>
      <trkpt lat="42.97135219909250736236572265625" lon="-2.37951795570552349090576171875">
        <ele>950</ele>
        <time>2022-04-17T10:56:26.000Z</time>
      </trkpt>
      <trkpt lat="42.9713593237102031707763671875" lon="-2.379516698420047760009765625">
        <ele>950.20001220703125</ele>
        <time>2022-04-17T10:56:27.000Z</time>
      </trkpt>
      <trkpt lat="42.971361167728900909423828125" lon="-2.37952047027647495269775390625">
        <ele>950.20001220703125</ele>
        <time>2022-04-17T10:56:28.000Z</time>
      </trkpt>
      <trkpt lat="42.971355132758617401123046875" lon="-2.3795104958117008209228515625">
        <ele>950.20001220703125</ele>
        <time>2022-04-17T10:56:29.000Z</time>
      </trkpt>
      <trkpt lat="42.97134876251220703125" lon="-2.3794940672814846038818359375">
        <ele>950.20001220703125</ele>
        <time>2022-04-17T10:56:30.000Z</time>
      </trkpt>
      <trkpt lat="42.971345745027065277099609375" lon="-2.37947881221771240234375">
        <ele>950.20001220703125</ele>
        <time>2022-04-17T10:56:31.000Z</time>
      </trkpt>
      <trkpt lat="42.97133794985711574554443359375" lon="-2.37945961765944957733154296875">
        <ele>950.20001220703125</ele>
        <time>2022-04-17T10:56:32.000Z</time>
      </trkpt>
      <trkpt lat="42.9713368602097034454345703125" lon="-2.3794498108327388763427734375">
        <ele>950.20001220703125</ele>
        <time>2022-04-17T10:56:33.000Z</time>
      </trkpt>
      <trkpt lat="42.97133266925811767578125" lon="-2.3794387467205524444580078125">
        <ele>950.20001220703125</ele>
        <time>2022-04-17T10:56:34.000Z</time>
      </trkpt>
      <trkpt lat="42.97133333981037139892578125" lon="-2.37942944280803203582763671875">
        <ele>950.20001220703125</ele>
        <time>2022-04-17T10:56:35.000Z</time>
      </trkpt>
      <trkpt lat="42.971327304840087890625" lon="-2.37942315638065338134765625">
        <ele>950.20001220703125</ele>
        <time>2022-04-17T10:56:36.000Z</time>
      </trkpt>
      <trkpt lat="42.97132571227848529815673828125" lon="-2.37941720522940158843994140625">
        <ele>950.4000244140625</ele>
        <time>2022-04-17T10:56:37.000Z</time>
      </trkpt>
      <trkpt lat="42.97132252715528011322021484375" lon="-2.3794089071452617645263671875">
        <ele>950.4000244140625</ele>
        <time>2022-04-17T10:56:38.000Z</time>
      </trkpt>
      <trkpt lat="42.97132638283073902130126953125" lon="-2.3794023692607879638671875">
        <ele>950.4000244140625</ele>
        <time>2022-04-17T10:56:39.000Z</time>
      </trkpt>
      <trkpt lat="42.97132872976362705230712890625" lon="-2.37938870675861835479736328125">
        <ele>950.4000244140625</ele>
        <time>2022-04-17T10:56:40.000Z</time>
      </trkpt>
      <trkpt lat="42.9713298194110393524169921875" lon="-2.37937596626579761505126953125">
        <ele>950.4000244140625</ele>
        <time>2022-04-17T10:56:41.000Z</time>
      </trkpt>
      <trkpt lat="42.97132688574492931365966796875" lon="-2.3793659918010234832763671875">
        <ele>950.5999755859375</ele>
        <time>2022-04-17T10:56:42.000Z</time>
      </trkpt>
      <trkpt lat="42.97132068313658237457275390625" lon="-2.37935744225978851318359375">
        <ele>950.5999755859375</ele>
        <time>2022-04-17T10:56:43.000Z</time>
      </trkpt>
      <trkpt lat="42.971313893795013427734375" lon="-2.37934880889952182769775390625">
        <ele>950.5999755859375</ele>
        <time>2022-04-17T10:56:44.000Z</time>
      </trkpt>
      <trkpt lat="42.97131380997598171234130859375" lon="-2.37934025935828685760498046875">
        <ele>950.5999755859375</ele>
        <time>2022-04-17T10:56:45.000Z</time>
      </trkpt>
      <trkpt lat="42.97130978666245937347412109375" lon="-2.37933422438800334930419921875">
        <ele>950.4000244140625</ele>
        <time>2022-04-17T10:56:46.000Z</time>
      </trkpt>
      <trkpt lat="42.97130651772022247314453125" lon="-2.37933254800736904144287109375">
        <ele>950.4000244140625</ele>
        <time>2022-04-17T10:56:47.000Z</time>
      </trkpt>
      <trkpt lat="42.9713053442537784576416015625" lon="-2.37932785414159297943115234375">
        <ele>950.5999755859375</ele>
        <time>2022-04-17T10:56:48.000Z</time>
      </trkpt>
      <trkpt lat="42.97130224294960498809814453125" lon="-2.379325591027736663818359375">
        <ele>950.5999755859375</ele>
        <time>2022-04-17T10:56:49.000Z</time>
      </trkpt>
      <trkpt lat="42.9713009856641292572021484375" lon="-2.379323579370975494384765625">
        <ele>950.5999755859375</ele>
        <time>2022-04-17T10:56:50.000Z</time>
      </trkpt>
      <trkpt lat="42.971300147473812103271484375" lon="-2.379318214952945709228515625">
        <ele>950.5999755859375</ele>
        <time>2022-04-17T10:56:51.000Z</time>
      </trkpt>
      <trkpt lat="42.9712972976267337799072265625" lon="-2.379312179982662200927734375">
        <ele>950.79998779296875</ele>
        <time>2022-04-17T10:56:52.000Z</time>
      </trkpt>
      <trkpt lat="42.97129444777965545654296875" lon="-2.37930782139301300048828125">
        <ele>950.79998779296875</ele>
        <time>2022-04-17T10:56:53.000Z</time>
      </trkpt>
      <trkpt lat="42.97128933481872081756591796875" lon="-2.3793002776801586151123046875">
        <ele>950.79998779296875</ele>
        <time>2022-04-17T10:56:54.000Z</time>
      </trkpt>
      <trkpt lat="42.971284054219722747802734375" lon="-2.37929231487214565277099609375">
        <ele>950.79998779296875</ele>
        <time>2022-04-17T10:56:55.000Z</time>
      </trkpt>
      <trkpt lat="42.9712751694023609161376953125" lon="-2.37929281778633594512939453125">
        <ele>950.79998779296875</ele>
        <time>2022-04-17T10:56:56.000Z</time>
      </trkpt>
      <trkpt lat="42.9712731577455997467041015625" lon="-2.37929047085344791412353515625">
        <ele>950.79998779296875</ele>
        <time>2022-04-17T10:56:57.000Z</time>
      </trkpt>
      <trkpt lat="42.97127122990787029266357421875" lon="-2.37929441034793853759765625">
        <ele>950.79998779296875</ele>
        <time>2022-04-17T10:56:58.000Z</time>
      </trkpt>
      <trkpt lat="42.97127055935561656951904296875" lon="-2.379300780594348907470703125">
        <ele>951</ele>
        <time>2022-04-17T10:56:59.000Z</time>
      </trkpt>
      <trkpt lat="42.9712738282978534698486328125" lon="-2.37930648028850555419921875">
        <ele>951</ele>
        <time>2022-04-17T10:57:00.000Z</time>
      </trkpt>
      <trkpt lat="42.97127357684075832366943359375" lon="-2.3793140240013599395751953125">
        <ele>951</ele>
        <time>2022-04-17T10:57:01.000Z</time>
      </trkpt>
      <trkpt lat="42.97127005644142627716064453125" lon="-2.3793170414865016937255859375">
        <ele>951</ele>
        <time>2022-04-17T10:57:02.000Z</time>
      </trkpt>
      <trkpt lat="42.97126720659434795379638671875" lon="-2.379316203296184539794921875">
        <ele>951</ele>
        <time>2022-04-17T10:57:03.000Z</time>
      </trkpt>
      <trkpt lat="42.9712654463946819305419921875" lon="-2.37931092269718647003173828125">
        <ele>951</ele>
        <time>2022-04-17T10:57:04.000Z</time>
      </trkpt>
      <trkpt lat="42.97126494348049163818359375" lon="-2.37930505536496639251708984375">
        <ele>951.20001220703125</ele>
        <time>2022-04-17T10:57:05.000Z</time>
      </trkpt>
      <trkpt lat="42.9712669551372528076171875" lon="-2.3792989365756511688232421875">
        <ele>951.4000244140625</ele>
        <time>2022-04-17T10:57:06.000Z</time>
      </trkpt>
      <trkpt lat="42.97126854769885540008544921875" lon="-2.37928980030119419097900390625">
        <ele>951.5999755859375</ele>
        <time>2022-04-17T10:57:07.000Z</time>
      </trkpt>
      <trkpt lat="42.97126620076596736907958984375" lon="-2.37928225658833980560302734375">
        <ele>951.5999755859375</ele>
        <time>2022-04-17T10:57:08.000Z</time>
      </trkpt>
      <trkpt lat="42.97126251272857189178466796875" lon="-2.3792768083512783050537109375">
        <ele>951.5999755859375</ele>
        <time>2022-04-17T10:57:09.000Z</time>
      </trkpt>
      <trkpt lat="42.97125999815762042999267578125" lon="-2.37927420996129512786865234375">
        <ele>951.79998779296875</ele>
        <time>2022-04-17T10:57:10.000Z</time>
      </trkpt>
      <trkpt lat="42.97125832177698612213134765625" lon="-2.3792736232280731201171875">
        <ele>951.79998779296875</ele>
        <time>2022-04-17T10:57:11.000Z</time>
      </trkpt>
      <trkpt lat="42.971255891025066375732421875" lon="-2.3792736232280731201171875">
        <ele>951.79998779296875</ele>
        <time>2022-04-17T10:57:12.000Z</time>
      </trkpt>
      <trkpt lat="42.971254549920558929443359375" lon="-2.379276640713214874267578125">
        <ele>952</ele>
        <time>2022-04-17T10:57:13.000Z</time>
      </trkpt>
      <trkpt lat="42.97125245444476604461669921875" lon="-2.37928074784576892852783203125">
        <ele>952</ele>
        <time>2022-04-17T10:57:14.000Z</time>
      </trkpt>
      <trkpt lat="42.97125027514994144439697265625" lon="-2.37928493879735469818115234375">
        <ele>952.20001220703125</ele>
        <time>2022-04-17T10:57:15.000Z</time>
      </trkpt>
      <trkpt lat="42.97124876640737056732177734375" lon="-2.3792838491499423980712890625">
        <ele>952.20001220703125</ele>
        <time>2022-04-17T10:57:16.000Z</time>
      </trkpt>
      <trkpt lat="42.97124876640737056732177734375" lon="-2.3792838491499423980712890625">
        <ele>952.20001220703125</ele>
        <time>2022-04-17T10:57:17.000Z</time>
      </trkpt>
      <trkpt lat="42.97124876640737056732177734375" lon="-2.3792838491499423980712890625">
        <ele>952.20001220703125</ele>
        <time>2022-04-17T10:57:18.000Z</time>
      </trkpt>
      <trkpt lat="42.97124876640737056732177734375" lon="-2.3792838491499423980712890625">
        <ele>952</ele>
        <time>2022-04-17T10:57:19.000Z</time>
      </trkpt>
      <trkpt lat="42.97124876640737056732177734375" lon="-2.3792838491499423980712890625">
        <ele>951.79998779296875</ele>
        <time>2022-04-17T10:57:20.000Z</time>
      </trkpt>
      <trkpt lat="42.97124876640737056732177734375" lon="-2.3792838491499423980712890625">
        <ele>951.79998779296875</ele>
        <time>2022-04-17T10:57:21.000Z</time>
      </trkpt>
      <trkpt lat="42.97124876640737056732177734375" lon="-2.3792838491499423980712890625">
        <ele>951.79998779296875</ele>
        <time>2022-04-17T10:57:22.000Z</time>
      </trkpt>
      <trkpt lat="42.97124876640737056732177734375" lon="-2.3792838491499423980712890625">
        <ele>951.79998779296875</ele>
        <time>2022-04-17T10:57:23.000Z</time>
      </trkpt>
      <trkpt lat="42.97124876640737056732177734375" lon="-2.3792838491499423980712890625">
        <ele>951.5999755859375</ele>
        <time>2022-04-17T10:57:24.000Z</time>
      </trkpt>
      <trkpt lat="42.97124876640737056732177734375" lon="-2.3792838491499423980712890625">
        <ele>951.79998779296875</ele>
        <time>2022-04-17T10:57:25.000Z</time>
      </trkpt>
      <trkpt lat="42.97124876640737056732177734375" lon="-2.37928234040737152099609375">
        <ele>952</ele>
        <time>2022-04-17T10:57:26.000Z</time>
      </trkpt>
      <trkpt lat="42.97124876640737056732177734375" lon="-2.3792821727693080902099609375">
        <ele>952</ele>
        <time>2022-04-17T10:57:27.000Z</time>
      </trkpt>
      <trkpt lat="42.97124876640737056732177734375" lon="-2.37928074784576892852783203125">
        <ele>952</ele>
        <time>2022-04-17T10:57:28.000Z</time>
      </trkpt>
      <trkpt lat="42.97124876640737056732177734375" lon="-2.3792798258364200592041015625">
        <ele>952.20001220703125</ele>
        <time>2022-04-17T10:57:29.000Z</time>
      </trkpt>
      <trkpt lat="42.97124876640737056732177734375" lon="-2.37927965819835662841796875">
        <ele>952.20001220703125</ele>
        <time>2022-04-17T10:57:30.000Z</time>
      </trkpt>
      <trkpt lat="42.97124876640737056732177734375" lon="-2.37927856855094432830810546875">
        <ele>952.20001220703125</ele>
        <time>2022-04-17T10:57:31.000Z</time>
      </trkpt>
      <trkpt lat="42.97124750912189483642578125" lon="-2.37927697598934173583984375">
        <ele>952.20001220703125</ele>
        <time>2022-04-17T10:57:32.000Z</time>
      </trkpt>
      <trkpt lat="42.97124373726546764373779296875" lon="-2.37927672453224658966064453125">
        <ele>952.20001220703125</ele>
        <time>2022-04-17T10:57:33.000Z</time>
      </trkpt>
      <trkpt lat="42.971241809427738189697265625" lon="-2.379276640713214874267578125">
        <ele>952.20001220703125</ele>
        <time>2022-04-17T10:57:34.000Z</time>
      </trkpt>
      <trkpt lat="42.97123669646680355072021484375" lon="-2.37927655689418315887451171875">
        <ele>952.4000244140625</ele>
        <time>2022-04-17T10:57:35.000Z</time>
      </trkpt>
      <trkpt lat="42.97123217023909091949462890625" lon="-2.37927437759935855865478515625">
        <ele>952.4000244140625</ele>
        <time>2022-04-17T10:57:36.000Z</time>
      </trkpt>
      <trkpt lat="42.97122848220169544219970703125" lon="-2.37927404232323169708251953125">
        <ele>952.4000244140625</ele>
        <time>2022-04-17T10:57:37.000Z</time>
      </trkpt>
      <trkpt lat="42.97122378833591938018798828125" lon="-2.379273958504199981689453125">
        <ele>952.4000244140625</ele>
        <time>2022-04-17T10:57:38.000Z</time>
      </trkpt>
      <trkpt lat="42.97121741808950901031494140625" lon="-2.37926934845745563507080078125">
        <ele>952.20001220703125</ele>
        <time>2022-04-17T10:57:39.000Z</time>
      </trkpt>
      <trkpt lat="42.9712054319679737091064453125" lon="-2.3792613856494426727294921875">
        <ele>952.20001220703125</ele>
        <time>2022-04-17T10:57:40.000Z</time>
      </trkpt>
      <trkpt lat="42.9711972177028656005859375" lon="-2.3792513273656368255615234375">
        <ele>952.20001220703125</ele>
        <time>2022-04-17T10:57:41.000Z</time>
      </trkpt>
      <trkpt lat="42.9711972177028656005859375" lon="-2.3792513273656368255615234375">
        <ele>952.20001220703125</ele>
        <time>2022-04-17T10:57:42.000Z</time>
      </trkpt>
      <trkpt lat="42.9711972177028656005859375" lon="-2.3792513273656368255615234375">
        <ele>952.20001220703125</ele>
        <time>2022-04-17T10:57:43.000Z</time>
      </trkpt>
      <trkpt lat="42.9711972177028656005859375" lon="-2.3792513273656368255615234375">
        <ele>952.20001220703125</ele>
        <time>2022-04-17T10:57:44.000Z</time>
      </trkpt>
      <trkpt lat="42.9711972177028656005859375" lon="-2.3792513273656368255615234375">
        <ele>952.20001220703125</ele>
        <time>2022-04-17T10:57:45.000Z</time>
      </trkpt>
      <trkpt lat="42.9711972177028656005859375" lon="-2.3792513273656368255615234375">
        <ele>952.20001220703125</ele>
        <time>2022-04-17T10:57:46.000Z</time>
      </trkpt>
      <trkpt lat="42.9711972177028656005859375" lon="-2.3792513273656368255615234375">
        <ele>952.4000244140625</ele>
        <time>2022-04-17T10:57:47.000Z</time>
      </trkpt>
      <trkpt lat="42.971183471381664276123046875" lon="-2.3792513273656368255615234375">
        <ele>952.4000244140625</ele>
        <time>2022-04-17T10:57:48.000Z</time>
      </trkpt>
      <trkpt lat="42.9711799509823322296142578125" lon="-2.3792513273656368255615234375">
        <ele>952.4000244140625</ele>
        <time>2022-04-17T10:57:49.000Z</time>
      </trkpt>
      <trkpt lat="42.9711725749075412750244140625" lon="-2.37923883832991123199462890625">
        <ele>952.4000244140625</ele>
        <time>2022-04-17T10:57:50.000Z</time>
      </trkpt>
      <trkpt lat="42.97116226516664028167724609375" lon="-2.3792191408574581146240234375">
        <ele>952.4000244140625</ele>
        <time>2022-04-17T10:57:51.000Z</time>
      </trkpt>
      <trkpt lat="42.9711487703025341033935546875" lon="-2.3791985213756561279296875">
        <ele>952.4000244140625</ele>
        <time>2022-04-17T10:57:52.000Z</time>
      </trkpt>
      <trkpt lat="42.97113175503909587860107421875" lon="-2.37918636761605739593505859375">
        <ele>952.20001220703125</ele>
        <time>2022-04-17T10:57:53.000Z</time>
      </trkpt>
      <trkpt lat="42.971113063395023345947265625" lon="-2.37917312420904636383056640625">
        <ele>952.20001220703125</ele>
        <time>2022-04-17T10:57:54.000Z</time>
      </trkpt>
      <trkpt lat="42.9710952937602996826171875" lon="-2.3791621439158916473388671875">
        <ele>952.20001220703125</ele>
        <time>2022-04-17T10:57:55.000Z</time>
      </trkpt>
      <trkpt lat="42.9710780270397663116455078125" lon="-2.37915216945111751556396484375">
        <ele>952.20001220703125</ele>
        <time>2022-04-17T10:57:56.000Z</time>
      </trkpt>
      <trkpt lat="42.97106838785111904144287109375" lon="-2.37913825549185276031494140625">
        <ele>952.20001220703125</ele>
        <time>2022-04-17T10:57:57.000Z</time>
      </trkpt>
      <trkpt lat="42.9710605926811695098876953125" lon="-2.37912182696163654327392578125">
        <ele>952.20001220703125</ele>
        <time>2022-04-17T10:57:58.000Z</time>
      </trkpt>
      <trkpt lat="42.97105279751121997833251953125" lon="-2.37910665571689605712890625">
        <ele>952.20001220703125</ele>
        <time>2022-04-17T10:57:59.000Z</time>
      </trkpt>
      <trkpt lat="42.97105195932090282440185546875" lon="-2.37910271622240543365478515625">
        <ele>952.20001220703125</ele>
        <time>2022-04-17T10:58:00.000Z</time>
      </trkpt>
      <trkpt lat="42.9710491932928562164306640625" lon="-2.37909995019435882568359375">
        <ele>952.20001220703125</ele>
        <time>2022-04-17T10:58:01.000Z</time>
      </trkpt>
      <trkpt lat="42.97104391269385814666748046875" lon="-2.37909869290888309478759765625">
        <ele>952.20001220703125</ele>
        <time>2022-04-17T10:58:02.000Z</time>
      </trkpt>
      <trkpt lat="42.97103653661906719207763671875" lon="-2.37910036928951740264892578125">
        <ele>952.20001220703125</ele>
        <time>2022-04-17T10:58:03.000Z</time>
      </trkpt>
      <trkpt lat="42.97103184275329113006591796875" lon="-2.37910221330821514129638671875">
        <ele>952.20001220703125</ele>
        <time>2022-04-17T10:58:04.000Z</time>
      </trkpt>
      <trkpt lat="42.97102731652557849884033203125" lon="-2.37910103984177112579345703125">
        <ele>952</ele>
        <time>2022-04-17T10:58:05.000Z</time>
      </trkpt>
      <trkpt lat="42.9710255563259124755859375" lon="-2.3791007883846759796142578125">
        <ele>952.20001220703125</ele>
        <time>2022-04-17T10:58:06.000Z</time>
      </trkpt>
      <trkpt lat="42.97102178446948528289794921875" lon="-2.37909969873726367950439453125">
        <ele>952.20001220703125</ele>
        <time>2022-04-17T10:58:07.000Z</time>
      </trkpt>
      <trkpt lat="42.97102211974561214447021484375" lon="-2.37910841591656208038330078125">
        <ele>952.4000244140625</ele>
        <time>2022-04-17T10:58:08.000Z</time>
      </trkpt>
      <trkpt lat="42.9710287414491176605224609375" lon="-2.3791172169148921966552734375">
        <ele>952.4000244140625</ele>
        <time>2022-04-17T10:58:09.000Z</time>
      </trkpt>
      <trkpt lat="42.971039302647113800048828125" lon="-2.3791242577135562896728515625">
        <ele>952.4000244140625</ele>
        <time>2022-04-17T10:58:10.000Z</time>
      </trkpt>
      <trkpt lat="42.9710451699793338775634765625" lon="-2.3791259340941905975341796875">
        <ele>952.4000244140625</ele>
        <time>2022-04-17T10:58:11.000Z</time>
      </trkpt>
      <trkpt lat="42.9710451699793338775634765625" lon="-2.3791259340941905975341796875">
        <ele>952.4000244140625</ele>
        <time>2022-04-17T10:58:12.000Z</time>
      </trkpt>
      <trkpt lat="42.9710451699793338775634765625" lon="-2.3791259340941905975341796875">
        <ele>952.4000244140625</ele>
        <time>2022-04-17T10:58:13.000Z</time>
      </trkpt>
      <trkpt lat="42.9710451699793338775634765625" lon="-2.3791259340941905975341796875">
        <ele>952.4000244140625</ele>
        <time>2022-04-17T10:58:14.000Z</time>
      </trkpt>
      <trkpt lat="42.9710451699793338775634765625" lon="-2.3791259340941905975341796875">
        <ele>952.20001220703125</ele>
        <time>2022-04-17T10:58:15.000Z</time>
      </trkpt>
      <trkpt lat="42.9710451699793338775634765625" lon="-2.3791259340941905975341796875">
        <ele>952.20001220703125</ele>
        <time>2022-04-17T10:58:16.000Z</time>
      </trkpt>
      <trkpt lat="42.9710451699793338775634765625" lon="-2.3791259340941905975341796875">
        <ele>952.20001220703125</ele>
        <time>2022-04-17T10:58:17.000Z</time>
      </trkpt>
      <trkpt lat="42.9710451699793338775634765625" lon="-2.3791259340941905975341796875">
        <ele>952.20001220703125</ele>
        <time>2022-04-17T10:58:18.000Z</time>
      </trkpt>
      <trkpt lat="42.97104357741773128509521484375" lon="-2.3791259340941905975341796875">
        <ele>952.4000244140625</ele>
        <time>2022-04-17T10:58:19.000Z</time>
      </trkpt>
      <trkpt lat="42.97104232013225555419921875" lon="-2.3791259340941905975341796875">
        <ele>952.4000244140625</ele>
        <time>2022-04-17T10:58:20.000Z</time>
      </trkpt>
      <trkpt lat="42.9710418172180652618408203125" lon="-2.3791259340941905975341796875">
        <ele>952.5999755859375</ele>
        <time>2022-04-17T10:58:21.000Z</time>
      </trkpt>
      <trkpt lat="42.97103938646614551544189453125" lon="-2.3791259340941905975341796875">
        <ele>952.5999755859375</ele>
        <time>2022-04-17T10:58:22.000Z</time>
      </trkpt>
      <trkpt lat="42.971038632094860076904296875" lon="-2.3791259340941905975341796875">
        <ele>952.5999755859375</ele>
        <time>2022-04-17T10:58:23.000Z</time>
      </trkpt>
      <trkpt lat="42.9710367880761623382568359375" lon="-2.3791259340941905975341796875">
        <ele>952.5999755859375</ele>
        <time>2022-04-17T10:58:24.000Z</time>
      </trkpt>
      <trkpt lat="42.97103653661906719207763671875" lon="-2.3791259340941905975341796875">
        <ele>952.5999755859375</ele>
        <time>2022-04-17T10:58:25.000Z</time>
      </trkpt>
      <trkpt lat="42.971034608781337738037109375" lon="-2.3791259340941905975341796875">
        <ele>952.5999755859375</ele>
        <time>2022-04-17T10:58:26.000Z</time>
      </trkpt>
      <trkpt lat="42.97103368677198886871337890625" lon="-2.3791259340941905975341796875">
        <ele>952.5999755859375</ele>
        <time>2022-04-17T10:58:27.000Z</time>
      </trkpt>
      <trkpt lat="42.97103351913392543792724609375" lon="-2.37912543118000030517578125">
        <ele>952.79998779296875</ele>
        <time>2022-04-17T10:58:28.000Z</time>
      </trkpt>
      <trkpt lat="42.9710331000387668609619140625" lon="-2.379125095903873443603515625">
        <ele>952.79998779296875</ele>
        <time>2022-04-17T10:58:29.000Z</time>
      </trkpt>
      <trkpt lat="42.97103201039135456085205078125" lon="-2.37912476062774658203125">
        <ele>952.79998779296875</ele>
        <time>2022-04-17T10:58:30.000Z</time>
      </trkpt>
      <trkpt lat="42.97103159129619598388671875" lon="-2.3791242577135562896728515625">
        <ele>952.79998779296875</ele>
        <time>2022-04-17T10:58:31.000Z</time>
      </trkpt>
      <trkpt lat="42.97103066928684711456298828125" lon="-2.3791232518851757049560546875">
        <ele>952.79998779296875</ele>
        <time>2022-04-17T10:58:32.000Z</time>
      </trkpt>
      <trkpt lat="42.97103025019168853759765625" lon="-2.37912316806614398956298828125">
        <ele>952.79998779296875</ele>
        <time>2022-04-17T10:58:33.000Z</time>
      </trkpt>
      <trkpt lat="42.9710300825536251068115234375" lon="-2.37912316806614398956298828125">
        <ele>952.79998779296875</ele>
        <time>2022-04-17T10:58:34.000Z</time>
      </trkpt>
      <trkpt lat="42.9710300825536251068115234375" lon="-2.37912316806614398956298828125">
        <ele>952.79998779296875</ele>
        <time>2022-04-17T10:58:35.000Z</time>
      </trkpt>
      <trkpt lat="42.9710300825536251068115234375" lon="-2.37912316806614398956298828125">
        <ele>952.79998779296875</ele>
        <time>2022-04-17T10:58:36.000Z</time>
      </trkpt>
      <trkpt lat="42.9710300825536251068115234375" lon="-2.37912316806614398956298828125">
        <ele>952.79998779296875</ele>
        <time>2022-04-17T10:58:37.000Z</time>
      </trkpt>
      <trkpt lat="42.9710300825536251068115234375" lon="-2.37912316806614398956298828125">
        <ele>952.79998779296875</ele>
        <time>2022-04-17T10:58:38.000Z</time>
      </trkpt>
      <trkpt lat="42.9710300825536251068115234375" lon="-2.37912316806614398956298828125">
        <ele>953</ele>
        <time>2022-04-17T10:58:39.000Z</time>
      </trkpt>
      <trkpt lat="42.9710287414491176605224609375" lon="-2.37912031821906566619873046875">
        <ele>953</ele>
        <time>2022-04-17T10:58:40.000Z</time>
      </trkpt>
      <trkpt lat="42.9710284061729907989501953125" lon="-2.3791121877729892730712890625">
        <ele>953.20001220703125</ele>
        <time>2022-04-17T10:58:41.000Z</time>
      </trkpt>
      <trkpt lat="42.97102756798267364501953125" lon="-2.37910690717399120330810546875">
        <ele>953.4000244140625</ele>
        <time>2022-04-17T10:58:42.000Z</time>
      </trkpt>
      <trkpt lat="42.9710228741168975830078125" lon="-2.37909299321472644805908203125">
        <ele>953.4000244140625</ele>
        <time>2022-04-17T10:58:43.000Z</time>
      </trkpt>
      <trkpt lat="42.9710136540234088897705078125" lon="-2.37906801514327526092529296875">
        <ele>953.5999755859375</ele>
        <time>2022-04-17T10:58:44.000Z</time>
      </trkpt>
      <trkpt lat="42.97099940478801727294921875" lon="-2.379048652946949005126953125">
        <ele>953.4000244140625</ele>
        <time>2022-04-17T10:58:45.000Z</time>
      </trkpt>
      <trkpt lat="42.97098867595195770263671875" lon="-2.37903314642608165740966796875">
        <ele>953.4000244140625</ele>
        <time>2022-04-17T10:58:46.000Z</time>
      </trkpt>
      <trkpt lat="42.970981635153293609619140625" lon="-2.37901856191456317901611328125">
        <ele>953.4000244140625</ele>
        <time>2022-04-17T10:58:47.000Z</time>
      </trkpt>
      <trkpt lat="42.97096948139369487762451171875" lon="-2.3789973556995391845703125">
        <ele>953.4000244140625</ele>
        <time>2022-04-17T10:58:48.000Z</time>
      </trkpt>
      <trkpt lat="42.9709626920521259307861328125" lon="-2.37896986305713653564453125">
        <ele>953.5999755859375</ele>
        <time>2022-04-17T10:58:49.000Z</time>
      </trkpt>
      <trkpt lat="42.9709600098431110382080078125" lon="-2.3789385147392749786376953125">
        <ele>953.79998779296875</ele>
        <time>2022-04-17T10:58:50.000Z</time>
      </trkpt>
      <trkpt lat="42.97095523215830326080322265625" lon="-2.37891345284879207611083984375">
        <ele>953.79998779296875</ele>
        <time>2022-04-17T10:58:51.000Z</time>
      </trkpt>
      <trkpt lat="42.9709531366825103759765625" lon="-2.37888998351991176605224609375">
        <ele>953.79998779296875</ele>
        <time>2022-04-17T10:58:52.000Z</time>
      </trkpt>
      <trkpt lat="42.97095489688217639923095703125" lon="-2.37888009287416934967041015625">
        <ele>953.79998779296875</ele>
        <time>2022-04-17T10:58:53.000Z</time>
      </trkpt>
      <trkpt lat="42.97094986774027347564697265625" lon="-2.3788674362003803253173828125">
        <ele>953.79998779296875</ele>
        <time>2022-04-17T10:58:54.000Z</time>
      </trkpt>
      <trkpt lat="42.970946095883846282958984375" lon="-2.37886332906782627105712890625">
        <ele>953.79998779296875</ele>
        <time>2022-04-17T10:58:55.000Z</time>
      </trkpt>
      <trkpt lat="42.970941402018070220947265625" lon="-2.378858216106891632080078125">
        <ele>953.79998779296875</ele>
        <time>2022-04-17T10:58:56.000Z</time>
      </trkpt>
      <trkpt lat="42.9709455929696559906005859375" lon="-2.3788463138043880462646484375">
        <ele>953.79998779296875</ele>
        <time>2022-04-17T10:58:57.000Z</time>
      </trkpt>
      <trkpt lat="42.970952801406383514404296875" lon="-2.3788315616548061370849609375">
        <ele>953.79998779296875</ele>
        <time>2022-04-17T10:58:58.000Z</time>
      </trkpt>
      <trkpt lat="42.970952130854129791259765625" lon="-2.37881622277200222015380859375">
        <ele>953.79998779296875</ele>
        <time>2022-04-17T10:58:59.000Z</time>
      </trkpt>
      <trkpt lat="42.97094819135963916778564453125" lon="-2.3788067512214183807373046875">
        <ele>954</ele>
        <time>2022-04-17T10:59:00.000Z</time>
      </trkpt>
      <trkpt lat="42.97094576060771942138671875" lon="-2.37879845313727855682373046875">
        <ele>954</ele>
        <time>2022-04-17T10:59:01.000Z</time>
      </trkpt>
      <trkpt lat="42.97094416804611682891845703125" lon="-2.37879392690956592559814453125">
        <ele>954</ele>
        <time>2022-04-17T10:59:02.000Z</time>
      </trkpt>
      <trkpt lat="42.9709325172007083892822265625" lon="-2.3787909932434558868408203125">
        <ele>954</ele>
        <time>2022-04-17T10:59:03.000Z</time>
      </trkpt>
      <trkpt lat="42.970919944345951080322265625" lon="-2.37878303043544292449951171875">
        <ele>954</ele>
        <time>2022-04-17T10:59:04.000Z</time>
      </trkpt>
      <trkpt lat="42.97090879641473293304443359375" lon="-2.37877783365547657012939453125">
        <ele>954.20001220703125</ele>
        <time>2022-04-17T10:59:05.000Z</time>
      </trkpt>
      <trkpt lat="42.97090594656765460968017578125" lon="-2.37877330742776393890380859375">
        <ele>954.20001220703125</ele>
        <time>2022-04-17T10:59:06.000Z</time>
      </trkpt>
      <trkpt lat="42.970898486673831939697265625" lon="-2.3787614889442920684814453125">
        <ele>954.20001220703125</ele>
        <time>2022-04-17T10:59:07.000Z</time>
      </trkpt>
      <trkpt lat="42.97090041451156139373779296875" lon="-2.37875151447951793670654296875">
        <ele>954.20001220703125</ele>
        <time>2022-04-17T10:59:08.000Z</time>
      </trkpt>
      <trkpt lat="42.97090309672057628631591796875" lon="-2.3787398636341094970703125">
        <ele>954.4000244140625</ele>
        <time>2022-04-17T10:59:09.000Z</time>
      </trkpt>
      <trkpt lat="42.97090561129152774810791015625" lon="-2.37873156554996967315673828125">
        <ele>954.4000244140625</ele>
        <time>2022-04-17T10:59:10.000Z</time>
      </trkpt>
      <trkpt lat="42.97090276144444942474365234375" lon="-2.3787189088761806488037109375">
        <ele>954.4000244140625</ele>
        <time>2022-04-17T10:59:11.000Z</time>
      </trkpt>
      <trkpt lat="42.9708993248641490936279296875" lon="-2.3787076771259307861328125">
        <ele>954.5999755859375</ele>
        <time>2022-04-17T10:59:12.000Z</time>
      </trkpt>
      <trkpt lat="42.97089521773159503936767578125" lon="-2.37870055250823497772216796875">
        <ele>954.5999755859375</ele>
        <time>2022-04-17T10:59:13.000Z</time>
      </trkpt>
      <trkpt lat="42.970896475017070770263671875" lon="-2.37869787029922008514404296875">
        <ele>954.5999755859375</ele>
        <time>2022-04-17T10:59:14.000Z</time>
      </trkpt>
      <trkpt lat="42.970901168882846832275390625" lon="-2.3786964453756809234619140625">
        <ele>954.5999755859375</ele>
        <time>2022-04-17T10:59:15.000Z</time>
      </trkpt>
      <trkpt lat="42.97088683582842350006103515625" lon="-2.3786847107112407684326171875">
        <ele>954.5999755859375</ele>
        <time>2022-04-17T10:59:16.000Z</time>
      </trkpt>
      <trkpt lat="42.97087208367884159088134765625" lon="-2.378672473132610321044921875">
        <ele>954.79998779296875</ele>
        <time>2022-04-17T10:59:17.000Z</time>
      </trkpt>
      <trkpt lat="42.970860935747623443603515625" lon="-2.37866140902042388916015625">
        <ele>954.79998779296875</ele>
        <time>2022-04-17T10:59:18.000Z</time>
      </trkpt>
      <trkpt lat="42.9708530567586421966552734375" lon="-2.37865327857434749603271484375">
        <ele>954.79998779296875</ele>
        <time>2022-04-17T10:59:19.000Z</time>
      </trkpt>
      <trkpt lat="42.970846854150295257568359375" lon="-2.378645651042461395263671875">
        <ele>955</ele>
        <time>2022-04-17T10:59:20.000Z</time>
      </trkpt>
      <trkpt lat="42.97084383666515350341796875" lon="-2.37863617949187755584716796875">
        <ele>955</ele>
        <time>2022-04-17T10:59:21.000Z</time>
      </trkpt>
      <trkpt lat="42.9708406515419483184814453125" lon="-2.378626205027103424072265625">
        <ele>955</ele>
        <time>2022-04-17T10:59:22.000Z</time>
      </trkpt>
      <trkpt lat="42.97083713114261627197265625" lon="-2.378614805638790130615234375">
        <ele>955.20001220703125</ele>
        <time>2022-04-17T10:59:23.000Z</time>
      </trkpt>
      <trkpt lat="42.97083671204745769500732421875" lon="-2.37860382534563541412353515625">
        <ele>955.4000244140625</ele>
        <time>2022-04-17T10:59:24.000Z</time>
      </trkpt>
      <trkpt lat="42.97083738259971141815185546875" lon="-2.37859561108052730560302734375">
        <ele>955.4000244140625</ele>
        <time>2022-04-17T10:59:25.000Z</time>
      </trkpt>
      <trkpt lat="42.9708393104374408721923828125" lon="-2.37858555279672145843505859375">
        <ele>955.5999755859375</ele>
        <time>2022-04-17T10:59:26.000Z</time>
      </trkpt>
      <trkpt lat="42.9708433337509632110595703125" lon="-2.37857616506516933441162109375">
        <ele>955.5999755859375</ele>
        <time>2022-04-17T10:59:27.000Z</time>
      </trkpt>
      <trkpt lat="42.97084241174161434173583984375" lon="-2.37857096828520298004150390625">
        <ele>955.79998779296875</ele>
        <time>2022-04-17T10:59:28.000Z</time>
      </trkpt>
      <trkpt lat="42.97083654440939426422119140625" lon="-2.37856979481875896453857421875">
        <ele>955.79998779296875</ele>
        <time>2022-04-17T10:59:29.000Z</time>
      </trkpt>
      <trkpt lat="42.9708339460194110870361328125" lon="-2.37856962718069553375244140625">
        <ele>956</ele>
        <time>2022-04-17T10:59:30.000Z</time>
      </trkpt>
      <trkpt lat="42.9708352871239185333251953125" lon="-2.37856443040072917938232421875">
        <ele>956</ele>
        <time>2022-04-17T10:59:31.000Z</time>
      </trkpt>
      <trkpt lat="42.9708366282284259796142578125" lon="-2.37856082618236541748046875">
        <ele>956</ele>
        <time>2022-04-17T10:59:32.000Z</time>
      </trkpt>
      <trkpt lat="42.970838136970996856689453125" lon="-2.378553785383701324462890625">
        <ele>956</ele>
        <time>2022-04-17T10:59:33.000Z</time>
      </trkpt>
      <trkpt lat="42.9708423279225826263427734375" lon="-2.37854682840406894683837890625">
        <ele>956</ele>
        <time>2022-04-17T10:59:34.000Z</time>
      </trkpt>
      <trkpt lat="42.97084073536098003387451171875" lon="-2.378541044890880584716796875">
        <ele>956.20001220703125</ele>
        <time>2022-04-17T10:59:35.000Z</time>
      </trkpt>
      <trkpt lat="42.970837466418743133544921875" lon="-2.3785338364541530609130859375">
        <ele>956.4000244140625</ele>
        <time>2022-04-17T10:59:36.000Z</time>
      </trkpt>
      <trkpt lat="42.97083470039069652557373046875" lon="-2.3785244487226009368896484375">
        <ele>956.4000244140625</ele>
        <time>2022-04-17T10:59:37.000Z</time>
      </trkpt>
      <trkpt lat="42.9708305932581424713134765625" lon="-2.37851397134363651275634765625">
        <ele>956.5999755859375</ele>
        <time>2022-04-17T10:59:38.000Z</time>
      </trkpt>
      <trkpt lat="42.97082598321139812469482421875" lon="-2.37850106321275234222412109375">
        <ele>956.79998779296875</ele>
        <time>2022-04-17T10:59:39.000Z</time>
      </trkpt>
      <trkpt lat="42.97082263045012950897216796875" lon="-2.37849150784313678741455078125">
        <ele>956.79998779296875</ele>
        <time>2022-04-17T10:59:40.000Z</time>
      </trkpt>
      <trkpt lat="42.970831096172332763671875" lon="-2.37848396413028240203857421875">
        <ele>957</ele>
        <time>2022-04-17T10:59:41.000Z</time>
      </trkpt>
      <trkpt lat="42.970836125314235687255859375" lon="-2.378469966351985931396484375">
        <ele>957.20001220703125</ele>
        <time>2022-04-17T10:59:42.000Z</time>
      </trkpt>
      <trkpt lat="42.9708366282284259796142578125" lon="-2.37845982424914836883544921875">
        <ele>957.4000244140625</ele>
        <time>2022-04-17T10:59:43.000Z</time>
      </trkpt>
      <trkpt lat="42.97083285637199878692626953125" lon="-2.3784506879746913909912109375">
        <ele>957.4000244140625</ele>
        <time>2022-04-17T10:59:44.000Z</time>
      </trkpt>
      <trkpt lat="42.97082866542041301727294921875" lon="-2.378443144261837005615234375">
        <ele>957.4000244140625</ele>
        <time>2022-04-17T10:59:45.000Z</time>
      </trkpt>
      <trkpt lat="42.97082162462174892425537109375" lon="-2.37843836657702922821044921875">
        <ele>957.4000244140625</ele>
        <time>2022-04-17T10:59:46.000Z</time>
      </trkpt>
      <trkpt lat="42.97081424854695796966552734375" lon="-2.3784379474818706512451171875">
        <ele>957.5999755859375</ele>
        <time>2022-04-17T10:59:47.000Z</time>
      </trkpt>
      <trkpt lat="42.9708108119666576385498046875" lon="-2.37843811511993408203125">
        <ele>957.5999755859375</ele>
        <time>2022-04-17T10:59:48.000Z</time>
      </trkpt>
      <trkpt lat="42.97081273980438709259033203125" lon="-2.37843752838671207427978515625">
        <ele>957.5999755859375</ele>
        <time>2022-04-17T10:59:49.000Z</time>
      </trkpt>
      <trkpt lat="42.97081860713660717010498046875" lon="-2.37844021059572696685791015625">
        <ele>957.5999755859375</ele>
        <time>2022-04-17T10:59:50.000Z</time>
      </trkpt>
      <trkpt lat="42.97082413919270038604736328125" lon="-2.37844138406217098236083984375">
        <ele>957.5999755859375</ele>
        <time>2022-04-17T10:59:51.000Z</time>
      </trkpt>
      <trkpt lat="42.97083402983844280242919921875" lon="-2.37844440154731273651123046875">
        <ele>957.5999755859375</ele>
        <time>2022-04-17T10:59:52.000Z</time>
      </trkpt>
      <trkpt lat="42.97083620913326740264892578125" lon="-2.37844171933829784393310546875">
        <ele>957.5999755859375</ele>
        <time>2022-04-17T10:59:53.000Z</time>
      </trkpt>
      <trkpt lat="42.9708369635045528411865234375" lon="-2.37843551672995090484619140625">
        <ele>957.5999755859375</ele>
        <time>2022-04-17T10:59:54.000Z</time>
      </trkpt>
      <trkpt lat="42.97083721496164798736572265625" lon="-2.37842998467385768890380859375">
        <ele>957.79998779296875</ele>
        <time>2022-04-17T10:59:55.000Z</time>
      </trkpt>
      <trkpt lat="42.9708376340568065643310546875" lon="-2.37842177040874958038330078125">
        <ele>957.79998779296875</ele>
        <time>2022-04-17T10:59:56.000Z</time>
      </trkpt>
      <trkpt lat="42.97083579003810882568359375" lon="-2.3784134723246097564697265625">
        <ele>957.79998779296875</ele>
        <time>2022-04-17T10:59:57.000Z</time>
      </trkpt>
      <trkpt lat="42.9708336107432842254638671875" lon="-2.37840819172561168670654296875">
        <ele>957.79998779296875</ele>
        <time>2022-04-17T10:59:58.000Z</time>
      </trkpt>
      <trkpt lat="42.97083101235330104827880859375" lon="-2.37840299494564533233642578125">
        <ele>957.79998779296875</ele>
        <time>2022-04-17T10:59:59.000Z</time>
      </trkpt>
      <trkpt lat="42.97082849778234958648681640625" lon="-2.37839612178504467010498046875">
        <ele>958</ele>
        <time>2022-04-17T11:00:00.000Z</time>
      </trkpt>
      <trkpt lat="42.970831096172332763671875" lon="-2.37839628942310810089111328125">
        <ele>958</ele>
        <time>2022-04-17T11:00:01.000Z</time>
      </trkpt>
      <trkpt lat="42.97083034180104732513427734375" lon="-2.378398887813091278076171875">
        <ele>958</ele>
        <time>2022-04-17T11:00:02.000Z</time>
      </trkpt>
      <trkpt lat="42.97082774341106414794921875" lon="-2.378402911126613616943359375">
        <ele>958.20001220703125</ele>
        <time>2022-04-17T11:00:03.000Z</time>
      </trkpt>
      <trkpt lat="42.970828078687191009521484375" lon="-2.37839846871793270111083984375">
        <ele>958.20001220703125</ele>
        <time>2022-04-17T11:00:04.000Z</time>
      </trkpt>
      <trkpt lat="42.97082765959203243255615234375" lon="-2.37838991917669773101806640625">
        <ele>958.4000244140625</ele>
        <time>2022-04-17T11:00:05.000Z</time>
      </trkpt>
      <trkpt lat="42.97082480974495410919189453125" lon="-2.37838421948254108428955078125">
        <ele>958.4000244140625</ele>
        <time>2022-04-17T11:00:06.000Z</time>
      </trkpt>
      <trkpt lat="42.9708222113549709320068359375" lon="-2.37838304601609706878662109375">
        <ele>958.4000244140625</ele>
        <time>2022-04-17T11:00:07.000Z</time>
      </trkpt>
      <trkpt lat="42.97082296572625637054443359375" lon="-2.37838556058704853057861328125">
        <ele>958.4000244140625</ele>
        <time>2022-04-17T11:00:08.000Z</time>
      </trkpt>
      <trkpt lat="42.97082296572625637054443359375" lon="-2.37838556058704853057861328125">
        <ele>958.4000244140625</ele>
        <time>2022-04-17T11:00:09.000Z</time>
      </trkpt>
      <trkpt lat="42.97082296572625637054443359375" lon="-2.37838556058704853057861328125">
        <ele>958.4000244140625</ele>
        <time>2022-04-17T11:00:10.000Z</time>
      </trkpt>
      <trkpt lat="42.97082296572625637054443359375" lon="-2.37838556058704853057861328125">
        <ele>958.4000244140625</ele>
        <time>2022-04-17T11:00:11.000Z</time>
      </trkpt>
      <trkpt lat="42.97082296572625637054443359375" lon="-2.37838556058704853057861328125">
        <ele>958.4000244140625</ele>
        <time>2022-04-17T11:00:12.000Z</time>
      </trkpt>
      <trkpt lat="42.97082296572625637054443359375" lon="-2.37838556058704853057861328125">
        <ele>958.4000244140625</ele>
        <time>2022-04-17T11:00:13.000Z</time>
      </trkpt>
      <trkpt lat="42.97082296572625637054443359375" lon="-2.37838556058704853057861328125">
        <ele>958.4000244140625</ele>
        <time>2022-04-17T11:00:14.000Z</time>
      </trkpt>
      <trkpt lat="42.97082296572625637054443359375" lon="-2.37838556058704853057861328125">
        <ele>958.5999755859375</ele>
        <time>2022-04-17T11:00:15.000Z</time>
      </trkpt>
      <trkpt lat="42.97082296572625637054443359375" lon="-2.37838556058704853057861328125">
        <ele>958.5999755859375</ele>
        <time>2022-04-17T11:00:16.000Z</time>
      </trkpt>
      <trkpt lat="42.97082296572625637054443359375" lon="-2.37838556058704853057861328125">
        <ele>958.5999755859375</ele>
        <time>2022-04-17T11:00:17.000Z</time>
      </trkpt>
      <trkpt lat="42.97082296572625637054443359375" lon="-2.37838556058704853057861328125">
        <ele>958.5999755859375</ele>
        <time>2022-04-17T11:00:18.000Z</time>
      </trkpt>
      <trkpt lat="42.97082296572625637054443359375" lon="-2.37838556058704853057861328125">
        <ele>958.79998779296875</ele>
        <time>2022-04-17T11:00:19.000Z</time>
      </trkpt>
      <trkpt lat="42.97082296572625637054443359375" lon="-2.37838556058704853057861328125">
        <ele>958.79998779296875</ele>
        <time>2022-04-17T11:00:20.000Z</time>
      </trkpt>
      <trkpt lat="42.97082296572625637054443359375" lon="-2.37838556058704853057861328125">
        <ele>958.79998779296875</ele>
        <time>2022-04-17T11:00:21.000Z</time>
      </trkpt>
      <trkpt lat="42.97082296572625637054443359375" lon="-2.37838556058704853057861328125">
        <ele>959</ele>
        <time>2022-04-17T11:00:22.000Z</time>
      </trkpt>
      <trkpt lat="42.97082296572625637054443359375" lon="-2.37838556058704853057861328125">
        <ele>959</ele>
        <time>2022-04-17T11:00:23.000Z</time>
      </trkpt>
      <trkpt lat="42.97082296572625637054443359375" lon="-2.378385476768016815185546875">
        <ele>959</ele>
        <time>2022-04-17T11:00:24.000Z</time>
      </trkpt>
      <trkpt lat="42.9708222113549709320068359375" lon="-2.37838438712060451507568359375">
        <ele>959.20001220703125</ele>
        <time>2022-04-17T11:00:25.000Z</time>
      </trkpt>
      <trkpt lat="42.9708218760788440704345703125" lon="-2.37838421948254108428955078125">
        <ele>959.20001220703125</ele>
        <time>2022-04-17T11:00:26.000Z</time>
      </trkpt>
      <trkpt lat="42.970820702612400054931640625" lon="-2.37838321365416049957275390625">
        <ele>959.20001220703125</ele>
        <time>2022-04-17T11:00:27.000Z</time>
      </trkpt>
      <trkpt lat="42.970820032060146331787109375" lon="-2.37837399356067180633544921875">
        <ele>959.20001220703125</ele>
        <time>2022-04-17T11:00:28.000Z</time>
      </trkpt>
      <trkpt lat="42.9708198644220829010009765625" lon="-2.3783631809055805206298828125">
        <ele>959.20001220703125</ele>
        <time>2022-04-17T11:00:29.000Z</time>
      </trkpt>
      <trkpt lat="42.97081961296498775482177734375" lon="-2.3783509433269500732421875">
        <ele>959.20001220703125</ele>
        <time>2022-04-17T11:00:30.000Z</time>
      </trkpt>
      <trkpt lat="42.97081827186048030853271484375" lon="-2.3783387057483196258544921875">
        <ele>959.20001220703125</ele>
        <time>2022-04-17T11:00:31.000Z</time>
      </trkpt>
      <trkpt lat="42.97081793658435344696044921875" lon="-2.378330491483211517333984375">
        <ele>959.20001220703125</ele>
        <time>2022-04-17T11:00:32.000Z</time>
      </trkpt>
      <trkpt lat="42.97081676311790943145751953125" lon="-2.37832286395132541656494140625">
        <ele>959.4000244140625</ele>
        <time>2022-04-17T11:00:33.000Z</time>
      </trkpt>
      <trkpt lat="42.9708163440227508544921875" lon="-2.3783185891807079315185546875">
        <ele>959.4000244140625</ele>
        <time>2022-04-17T11:00:34.000Z</time>
      </trkpt>
      <trkpt lat="42.9708136618137359619140625" lon="-2.37830861471593379974365234375">
        <ele>959.4000244140625</ele>
        <time>2022-04-17T11:00:35.000Z</time>
      </trkpt>
      <trkpt lat="42.9708121530711650848388671875" lon="-2.3782984726130962371826171875">
        <ele>959.5999755859375</ele>
        <time>2022-04-17T11:00:36.000Z</time>
      </trkpt>
      <trkpt lat="42.97080754302442073822021484375" lon="-2.378296293318271636962890625">
        <ele>959.79998779296875</ele>
        <time>2022-04-17T11:00:37.000Z</time>
      </trkpt>
      <trkpt lat="42.97080628573894500732421875" lon="-2.3782954551279544830322265625">
        <ele>960</ele>
        <time>2022-04-17T11:00:38.000Z</time>
      </trkpt>
      <trkpt lat="42.9708037711679935455322265625" lon="-2.378290593624114990234375">
        <ele>960</ele>
        <time>2022-04-17T11:00:39.000Z</time>
      </trkpt>
      <trkpt lat="42.97080033458769321441650390625" lon="-2.378288917243480682373046875">
        <ele>960.20001220703125</ele>
        <time>2022-04-17T11:00:40.000Z</time>
      </trkpt>
      <trkpt lat="42.97079966403543949127197265625" lon="-2.37828799523413181304931640625">
        <ele>960.20001220703125</ele>
        <time>2022-04-17T11:00:41.000Z</time>
      </trkpt>
      <trkpt lat="42.9707994125783443450927734375" lon="-2.37828765995800495147705078125">
        <ele>960.4000244140625</ele>
        <time>2022-04-17T11:00:42.000Z</time>
      </trkpt>
      <trkpt lat="42.97079748474061489105224609375" lon="-2.3782865703105926513671875">
        <ele>960.4000244140625</ele>
        <time>2022-04-17T11:00:43.000Z</time>
      </trkpt>
      <trkpt lat="42.97079714946448802947998046875" lon="-2.37828380428254604339599609375">
        <ele>960.5999755859375</ele>
        <time>2022-04-17T11:00:44.000Z</time>
      </trkpt>
      <trkpt lat="42.970794551074504852294921875" lon="-2.37828330136835575103759765625">
        <ele>960.5999755859375</ele>
        <time>2022-04-17T11:00:45.000Z</time>
      </trkpt>
      <trkpt lat="42.9707880131900310516357421875" lon="-2.3782817088067531585693359375">
        <ele>960.5999755859375</ele>
        <time>2022-04-17T11:00:46.000Z</time>
      </trkpt>
      <trkpt lat="42.970781810581684112548828125" lon="-2.37828128971159458160400390625">
        <ele>960.79998779296875</ele>
        <time>2022-04-17T11:00:47.000Z</time>
      </trkpt>
      <trkpt lat="42.9707787930965423583984375" lon="-2.37828061915934085845947265625">
        <ele>960.79998779296875</ele>
        <time>2022-04-17T11:00:48.000Z</time>
      </trkpt>
      <trkpt lat="42.970777451992034912109375" lon="-2.37827827222645282745361328125">
        <ele>960.79998779296875</ele>
        <time>2022-04-17T11:00:49.000Z</time>
      </trkpt>
      <trkpt lat="42.97077703289687633514404296875" lon="-2.37827106378972530364990234375">
        <ele>960.79998779296875</ele>
        <time>2022-04-17T11:00:50.000Z</time>
      </trkpt>
      <trkpt lat="42.97077686525881290435791015625" lon="-2.378263771533966064453125">
        <ele>960.79998779296875</ele>
        <time>2022-04-17T11:00:51.000Z</time>
      </trkpt>
      <trkpt lat="42.97077678143978118896484375" lon="-2.37825513817369937896728515625">
        <ele>960.5999755859375</ele>
        <time>2022-04-17T11:00:52.000Z</time>
      </trkpt>
      <trkpt lat="42.9707766138017177581787109375" lon="-2.3782458342611789703369140625">
        <ele>960.5999755859375</ele>
        <time>2022-04-17T11:00:53.000Z</time>
      </trkpt>
      <trkpt lat="42.97077652998268604278564453125" lon="-2.378237284719944000244140625">
        <ele>960.5999755859375</ele>
        <time>2022-04-17T11:00:54.000Z</time>
      </trkpt>
      <trkpt lat="42.9707752726972103118896484375" lon="-2.37822781316936016082763671875">
        <ele>960.5999755859375</ele>
        <time>2022-04-17T11:00:55.000Z</time>
      </trkpt>
      <trkpt lat="42.97077476978302001953125" lon="-2.3782170005142688751220703125">
        <ele>960.5999755859375</ele>
        <time>2022-04-17T11:00:56.000Z</time>
      </trkpt>
      <trkpt lat="42.970774434506893157958984375" lon="-2.37821054644882678985595703125">
        <ele>960.79998779296875</ele>
        <time>2022-04-17T11:00:57.000Z</time>
      </trkpt>
      <trkpt lat="42.97077409923076629638671875" lon="-2.37820216454565525054931640625">
        <ele>960.79998779296875</ele>
        <time>2022-04-17T11:00:58.000Z</time>
      </trkpt>
      <trkpt lat="42.970772422850131988525390625" lon="-2.37819747067987918853759765625">
        <ele>960.79998779296875</ele>
        <time>2022-04-17T11:00:59.000Z</time>
      </trkpt>
      <trkpt lat="42.970766723155975341796875" lon="-2.37819478847086429595947265625">
        <ele>961</ele>
        <time>2022-04-17T11:01:00.000Z</time>
      </trkpt>
      <trkpt lat="42.97076429240405559539794921875" lon="-2.3781921900808811187744140625">
        <ele>961</ele>
        <time>2022-04-17T11:01:01.000Z</time>
      </trkpt>
      <trkpt lat="42.97076337039470672607421875" lon="-2.37819009460508823394775390625">
        <ele>961</ele>
        <time>2022-04-17T11:01:02.000Z</time>
      </trkpt>
      <trkpt lat="42.97075825743377208709716796875" lon="-2.3781885020434856414794921875">
        <ele>961</ele>
        <time>2022-04-17T11:01:03.000Z</time>
      </trkpt>
      <trkpt lat="42.97075071372091770172119140625" lon="-2.37818607129156589508056640625">
        <ele>961.20001220703125</ele>
        <time>2022-04-17T11:01:04.000Z</time>
      </trkpt>
      <trkpt lat="42.9707466065883636474609375" lon="-2.3781787790358066558837890625">
        <ele>961.20001220703125</ele>
        <time>2022-04-17T11:01:05.000Z</time>
      </trkpt>
      <trkpt lat="42.970744259655475616455078125" lon="-2.37817416898906230926513671875">
        <ele>961.20001220703125</ele>
        <time>2022-04-17T11:01:06.000Z</time>
      </trkpt>
      <trkpt lat="42.97074258327484130859375" lon="-2.37817165441811084747314453125">
        <ele>961.20001220703125</ele>
        <time>2022-04-17T11:01:07.000Z</time>
      </trkpt>
      <trkpt lat="42.970741577446460723876953125" lon="-2.37817081622779369354248046875">
        <ele>961.20001220703125</ele>
        <time>2022-04-17T11:01:08.000Z</time>
      </trkpt>
      <trkpt lat="42.97074132598936557769775390625" lon="-2.37816880457103252410888671875">
        <ele>961.20001220703125</ele>
        <time>2022-04-17T11:01:09.000Z</time>
      </trkpt>
      <trkpt lat="42.9707412421703338623046875" lon="-2.37816679291427135467529296875">
        <ele>961.20001220703125</ele>
        <time>2022-04-17T11:01:10.000Z</time>
      </trkpt>
      <trkpt lat="42.9707412421703338623046875" lon="-2.37816494889557361602783203125">
        <ele>961.20001220703125</ele>
        <time>2022-04-17T11:01:11.000Z</time>
      </trkpt>
      <trkpt lat="42.9707412421703338623046875" lon="-2.37816411070525646209716796875">
        <ele>961.20001220703125</ele>
        <time>2022-04-17T11:01:12.000Z</time>
      </trkpt>
      <trkpt lat="42.9707412421703338623046875" lon="-2.37816117703914642333984375">
        <ele>961.20001220703125</ele>
        <time>2022-04-17T11:01:13.000Z</time>
      </trkpt>
      <trkpt lat="42.9707412421703338623046875" lon="-2.3781596682965755462646484375">
        <ele>961.20001220703125</ele>
        <time>2022-04-17T11:01:14.000Z</time>
      </trkpt>
      <trkpt lat="42.9707412421703338623046875" lon="-2.3781569860875606536865234375">
        <ele>961.20001220703125</ele>
        <time>2022-04-17T11:01:15.000Z</time>
      </trkpt>
      <trkpt lat="42.9707412421703338623046875" lon="-2.37815522588789463043212890625">
        <ele>961.20001220703125</ele>
        <time>2022-04-17T11:01:16.000Z</time>
      </trkpt>
      <trkpt lat="42.9707412421703338623046875" lon="-2.3781543038785457611083984375">
        <ele>961.20001220703125</ele>
        <time>2022-04-17T11:01:17.000Z</time>
      </trkpt>
      <trkpt lat="42.9707412421703338623046875" lon="-2.37815388478338718414306640625">
        <ele>961.20001220703125</ele>
        <time>2022-04-17T11:01:18.000Z</time>
      </trkpt>
      <trkpt lat="42.9707412421703338623046875" lon="-2.37815237604081630706787109375">
        <ele>961.20001220703125</ele>
        <time>2022-04-17T11:01:19.000Z</time>
      </trkpt>
      <trkpt lat="42.97074166126549243927001953125" lon="-2.37815002910792827606201171875">
        <ele>961.20001220703125</ele>
        <time>2022-04-17T11:01:20.000Z</time>
      </trkpt>
      <trkpt lat="42.97074266709387302398681640625" lon="-2.37814868800342082977294921875">
        <ele>961.20001220703125</ele>
        <time>2022-04-17T11:01:21.000Z</time>
      </trkpt>
      <trkpt lat="42.9707440920174121856689453125" lon="-2.3781475983560085296630859375">
        <ele>961.20001220703125</ele>
        <time>2022-04-17T11:01:22.000Z</time>
      </trkpt>
      <trkpt lat="42.97074467875063419342041015625" lon="-2.37814642488956451416015625">
        <ele>961.20001220703125</ele>
        <time>2022-04-17T11:01:23.000Z</time>
      </trkpt>
      <trkpt lat="42.9707454331219196319580078125" lon="-2.378142736852169036865234375">
        <ele>961.20001220703125</ele>
        <time>2022-04-17T11:01:24.000Z</time>
      </trkpt>
      <trkpt lat="42.9707464389503002166748046875" lon="-2.3781395517289638519287109375">
        <ele>961.20001220703125</ele>
        <time>2022-04-17T11:01:25.000Z</time>
      </trkpt>
      <trkpt lat="42.97074903734028339385986328125" lon="-2.378137372434139251708984375">
        <ele>961.20001220703125</ele>
        <time>2022-04-17T11:01:26.000Z</time>
      </trkpt>
      <trkpt lat="42.9707518033683300018310546875" lon="-2.37813544459640979766845703125">
        <ele>961.20001220703125</ele>
        <time>2022-04-17T11:01:27.000Z</time>
      </trkpt>
      <trkpt lat="42.97075289301574230194091796875" lon="-2.37813410349190235137939453125">
        <ele>961.4000244140625</ele>
        <time>2022-04-17T11:01:28.000Z</time>
      </trkpt>
      <trkpt lat="42.97075331211090087890625" lon="-2.378133349120616912841796875">
        <ele>961.4000244140625</ele>
        <time>2022-04-17T11:01:29.000Z</time>
      </trkpt>
      <trkpt lat="42.97075339592993259429931640625" lon="-2.37813167273998260498046875">
        <ele>961.4000244140625</ele>
        <time>2022-04-17T11:01:30.000Z</time>
      </trkpt>
      <trkpt lat="42.9707534797489643096923828125" lon="-2.3781308345496654510498046875">
        <ele>961.4000244140625</ele>
        <time>2022-04-17T11:01:31.000Z</time>
      </trkpt>
      <trkpt lat="42.97075356356799602508544921875" lon="-2.378129325807094573974609375">
        <ele>961.4000244140625</ele>
        <time>2022-04-17T11:01:32.000Z</time>
      </trkpt>
      <trkpt lat="42.97075356356799602508544921875" lon="-2.37812739796936511993408203125">
        <ele>961.5999755859375</ele>
        <time>2022-04-17T11:01:33.000Z</time>
      </trkpt>
      <trkpt lat="42.97075356356799602508544921875" lon="-2.3781201057136058807373046875">
        <ele>961.79998779296875</ele>
        <time>2022-04-17T11:01:34.000Z</time>
      </trkpt>
      <trkpt lat="42.97075356356799602508544921875" lon="-2.3781097121536731719970703125">
        <ele>961.79998779296875</ele>
        <time>2022-04-17T11:01:35.000Z</time>
      </trkpt>
      <trkpt lat="42.97075356356799602508544921875" lon="-2.37809822894632816314697265625">
        <ele>962.20001220703125</ele>
        <time>2022-04-17T11:01:36.000Z</time>
      </trkpt>
      <trkpt lat="42.97075356356799602508544921875" lon="-2.37809051759541034698486328125">
        <ele>962.4000244140625</ele>
        <time>2022-04-17T11:01:37.000Z</time>
      </trkpt>
      <trkpt lat="42.97075356356799602508544921875" lon="-2.3780854046344757080078125">
        <ele>962.4000244140625</ele>
        <time>2022-04-17T11:01:38.000Z</time>
      </trkpt>
      <trkpt lat="42.97075356356799602508544921875" lon="-2.37807945348322391510009765625">
        <ele>962.4000244140625</ele>
        <time>2022-04-17T11:01:39.000Z</time>
      </trkpt>
      <trkpt lat="42.97075356356799602508544921875" lon="-2.3780714906752109527587890625">
        <ele>962.5999755859375</ele>
        <time>2022-04-17T11:01:40.000Z</time>
      </trkpt>
      <trkpt lat="42.97075356356799602508544921875" lon="-2.37806386314332485198974609375">
        <ele>962.5999755859375</ele>
        <time>2022-04-17T11:01:41.000Z</time>
      </trkpt>
      <trkpt lat="42.97075306065380573272705078125" lon="-2.37805657088756561279296875">
        <ele>962.79998779296875</ele>
        <time>2022-04-17T11:01:42.000Z</time>
      </trkpt>
      <trkpt lat="42.97075205482542514801025390625" lon="-2.378050200641155242919921875">
        <ele>962.79998779296875</ele>
        <time>2022-04-17T11:01:43.000Z</time>
      </trkpt>
      <trkpt lat="42.970751635730266571044921875" lon="-2.37803285010159015655517578125">
        <ele>963</ele>
        <time>2022-04-17T11:01:44.000Z</time>
      </trkpt>
      <trkpt lat="42.97074417583644390106201171875" lon="-2.3780076205730438232421875">
        <ele>963.20001220703125</ele>
        <time>2022-04-17T11:01:45.000Z</time>
      </trkpt>
      <trkpt lat="42.97073964960873126983642578125" lon="-2.37798473797738552093505859375">
        <ele>963.4000244140625</ele>
        <time>2022-04-17T11:01:46.000Z</time>
      </trkpt>
      <trkpt lat="42.9707397334277629852294921875" lon="-2.37796277739107608795166015625">
        <ele>963.5999755859375</ele>
        <time>2022-04-17T11:01:47.000Z</time>
      </trkpt>
      <trkpt lat="42.97073931433260440826416015625" lon="-2.3779424093663692474365234375">
        <ele>963.5999755859375</ele>
        <time>2022-04-17T11:01:48.000Z</time>
      </trkpt>
      <trkpt lat="42.97074317000806331634521484375" lon="-2.3779259808361530303955078125">
        <ele>963.79998779296875</ele>
        <time>2022-04-17T11:01:49.000Z</time>
      </trkpt>
      <trkpt lat="42.97074635513126850128173828125" lon="-2.37790510989725589752197265625">
        <ele>963.79998779296875</ele>
        <time>2022-04-17T11:01:50.000Z</time>
      </trkpt>
      <trkpt lat="42.97074786387383937835693359375" lon="-2.37788063473999500274658203125">
        <ele>963.79998779296875</ele>
        <time>2022-04-17T11:01:51.000Z</time>
      </trkpt>
      <trkpt lat="42.9707467742264270782470703125" lon="-2.3778565786778926849365234375">
        <ele>964</ele>
        <time>2022-04-17T11:01:52.000Z</time>
      </trkpt>
      <trkpt lat="42.97074451111257076263427734375" lon="-2.37783201970160007476806640625">
        <ele>964</ele>
        <time>2022-04-17T11:01:53.000Z</time>
      </trkpt>
      <trkpt lat="42.97074618749320507049560546875" lon="-2.37782833166420459747314453125">
        <ele>964</ele>
        <time>2022-04-17T11:01:54.000Z</time>
      </trkpt>
      <trkpt lat="42.97074618749320507049560546875" lon="-2.3778294213116168975830078125">
        <ele>964</ele>
        <time>2022-04-17T11:01:55.000Z</time>
      </trkpt>
      <trkpt lat="42.97075037844479084014892578125" lon="-2.37783134914934635162353515625">
        <ele>964.20001220703125</ele>
        <time>2022-04-17T11:01:56.000Z</time>
      </trkpt>
      <trkpt lat="42.97074836678802967071533203125" lon="-2.3778310976922512054443359375">
        <ele>964.4000244140625</ele>
        <time>2022-04-17T11:01:57.000Z</time>
      </trkpt>
      <trkpt lat="42.9707514680922031402587890625" lon="-2.37782632000744342803955078125">
        <ele>964.4000244140625</ele>
        <time>2022-04-17T11:01:58.000Z</time>
      </trkpt>
      <trkpt lat="42.97074937261641025543212890625" lon="-2.37781517207622528076171875">
        <ele>964.5999755859375</ele>
        <time>2022-04-17T11:01:59.000Z</time>
      </trkpt>
      <trkpt lat="42.970748282968997955322265625" lon="-2.37781425006687641143798828125">
        <ele>964.79998779296875</ele>
        <time>2022-04-17T11:02:00.000Z</time>
      </trkpt>
      <trkpt lat="42.970748282968997955322265625" lon="-2.37781425006687641143798828125">
        <ele>964.79998779296875</ele>
        <time>2022-04-17T11:02:01.000Z</time>
      </trkpt>
      <trkpt lat="42.970748282968997955322265625" lon="-2.37781425006687641143798828125">
        <ele>964.79998779296875</ele>
        <time>2022-04-17T11:02:02.000Z</time>
      </trkpt>
      <trkpt lat="42.970748282968997955322265625" lon="-2.37781425006687641143798828125">
        <ele>964.79998779296875</ele>
        <time>2022-04-17T11:02:03.000Z</time>
      </trkpt>
      <trkpt lat="42.970748282968997955322265625" lon="-2.37781425006687641143798828125">
        <ele>964.79998779296875</ele>
        <time>2022-04-17T11:02:04.000Z</time>
      </trkpt>
      <trkpt lat="42.970748282968997955322265625" lon="-2.37781425006687641143798828125">
        <ele>964.79998779296875</ele>
        <time>2022-04-17T11:02:05.000Z</time>
      </trkpt>
      <trkpt lat="42.970748282968997955322265625" lon="-2.37781425006687641143798828125">
        <ele>964.79998779296875</ele>
        <time>2022-04-17T11:02:06.000Z</time>
      </trkpt>
      <trkpt lat="42.970748282968997955322265625" lon="-2.37781425006687641143798828125">
        <ele>964.79998779296875</ele>
        <time>2022-04-17T11:02:07.000Z</time>
      </trkpt>
      <trkpt lat="42.970748282968997955322265625" lon="-2.37781425006687641143798828125">
        <ele>964.79998779296875</ele>
        <time>2022-04-17T11:02:08.000Z</time>
      </trkpt>
      <trkpt lat="42.970748282968997955322265625" lon="-2.37781425006687641143798828125">
        <ele>964.5999755859375</ele>
        <time>2022-04-17T11:02:09.000Z</time>
      </trkpt>
      <trkpt lat="42.970748282968997955322265625" lon="-2.37781425006687641143798828125">
        <ele>964.5999755859375</ele>
        <time>2022-04-17T11:02:10.000Z</time>
      </trkpt>
      <trkpt lat="42.970748282968997955322265625" lon="-2.37781425006687641143798828125">
        <ele>964.5999755859375</ele>
        <time>2022-04-17T11:02:11.000Z</time>
      </trkpt>
      <trkpt lat="42.9707466065883636474609375" lon="-2.37781425006687641143798828125">
        <ele>964.5999755859375</ele>
        <time>2022-04-17T11:02:12.000Z</time>
      </trkpt>
      <trkpt lat="42.97074635513126850128173828125" lon="-2.37781425006687641143798828125">
        <ele>964.5999755859375</ele>
        <time>2022-04-17T11:02:13.000Z</time>
      </trkpt>
      <trkpt lat="42.97074618749320507049560546875" lon="-2.37781425006687641143798828125">
        <ele>964.5999755859375</ele>
        <time>2022-04-17T11:02:14.000Z</time>
      </trkpt>
      <trkpt lat="42.97074618749320507049560546875" lon="-2.37781425006687641143798828125">
        <ele>964.5999755859375</ele>
        <time>2022-04-17T11:02:15.000Z</time>
      </trkpt>
      <trkpt lat="42.970744930207729339599609375" lon="-2.37781425006687641143798828125">
        <ele>964.5999755859375</ele>
        <time>2022-04-17T11:02:16.000Z</time>
      </trkpt>
      <trkpt lat="42.97074459493160247802734375" lon="-2.37781425006687641143798828125">
        <ele>964.5999755859375</ele>
        <time>2022-04-17T11:02:17.000Z</time>
      </trkpt>
      <trkpt lat="42.97074283473193645477294921875" lon="-2.37781425006687641143798828125">
        <ele>964.5999755859375</ele>
        <time>2022-04-17T11:02:18.000Z</time>
      </trkpt>
      <trkpt lat="42.9707414098083972930908203125" lon="-2.377802766859531402587890625">
        <ele>964.5999755859375</ele>
        <time>2022-04-17T11:02:19.000Z</time>
      </trkpt>
      <trkpt lat="42.97073763795197010040283203125" lon="-2.3777808062732219696044921875">
        <ele>964.5999755859375</ele>
        <time>2022-04-17T11:02:20.000Z</time>
      </trkpt>
      <trkpt lat="42.9707343690097332000732421875" lon="-2.37776144407689571380615234375">
        <ele>964.79998779296875</ele>
        <time>2022-04-17T11:02:21.000Z</time>
      </trkpt>
      <trkpt lat="42.97073227353394031524658203125" lon="-2.37773604691028594970703125">
        <ele>964.79998779296875</ele>
        <time>2022-04-17T11:02:22.000Z</time>
      </trkpt>
      <trkpt lat="42.97073126770555973052978515625" lon="-2.377716936171054840087890625">
        <ele>964.79998779296875</ele>
        <time>2022-04-17T11:02:23.000Z</time>
      </trkpt>
      <trkpt lat="42.970731519162654876708984375" lon="-2.37770260311663150787353515625">
        <ele>965</ele>
        <time>2022-04-17T11:02:24.000Z</time>
      </trkpt>
      <trkpt lat="42.97073512338101863861083984375" lon="-2.377684749662876129150390625">
        <ele>965</ele>
        <time>2022-04-17T11:02:25.000Z</time>
      </trkpt>
      <trkpt lat="42.9707385599613189697265625" lon="-2.377665974199771881103515625">
        <ele>965</ele>
        <time>2022-04-17T11:02:26.000Z</time>
      </trkpt>
      <trkpt lat="42.970740236341953277587890625" lon="-2.377641163766384124755859375">
        <ele>965</ele>
        <time>2022-04-17T11:02:27.000Z</time>
      </trkpt>
      <trkpt lat="42.9707370512187480926513671875" lon="-2.3776047863066196441650390625">
        <ele>965</ele>
        <time>2022-04-17T11:02:28.000Z</time>
      </trkpt>
      <trkpt lat="42.97073579393327236175537109375" lon="-2.37758039496839046478271484375">
        <ele>965</ele>
        <time>2022-04-17T11:02:29.000Z</time>
      </trkpt>
      <trkpt lat="42.97072892077267169952392578125" lon="-2.37756547518074512481689453125">
        <ele>964.79998779296875</ele>
        <time>2022-04-17T11:02:30.000Z</time>
      </trkpt>
      <trkpt lat="42.97072389163076877593994140625" lon="-2.37755298614501953125">
        <ele>965</ele>
        <time>2022-04-17T11:02:31.000Z</time>
      </trkpt>
      <trkpt lat="42.97071450389921665191650390625" lon="-2.37754468806087970733642578125">
        <ele>965</ele>
        <time>2022-04-17T11:02:32.000Z</time>
      </trkpt>
      <trkpt lat="42.9707015119493007659912109375" lon="-2.3775333724915981292724609375">
        <ele>965</ele>
        <time>2022-04-17T11:02:33.000Z</time>
      </trkpt>
      <trkpt lat="42.970689274370670318603515625" lon="-2.3775243200361728668212890625">
        <ele>965</ele>
        <time>2022-04-17T11:02:34.000Z</time>
      </trkpt>
      <trkpt lat="42.97068315558135509490966796875" lon="-2.377519793808460235595703125">
        <ele>965.20001220703125</ele>
        <time>2022-04-17T11:02:35.000Z</time>
      </trkpt>
      <trkpt lat="42.97067695297300815582275390625" lon="-2.37750965170562267303466796875">
        <ele>965</ele>
        <time>2022-04-17T11:02:36.000Z</time>
      </trkpt>
      <trkpt lat="42.97066790051758289337158203125" lon="-2.37749674357473850250244140625">
        <ele>965</ele>
        <time>2022-04-17T11:02:37.000Z</time>
      </trkpt>
      <trkpt lat="42.97066387720406055450439453125" lon="-2.37748467363417148590087890625">
        <ele>965</ele>
        <time>2022-04-17T11:02:38.000Z</time>
      </trkpt>
      <trkpt lat="42.9706619493663311004638671875" lon="-2.37747327424585819244384765625">
        <ele>964.79998779296875</ele>
        <time>2022-04-17T11:02:39.000Z</time>
      </trkpt>
      <trkpt lat="42.97066018916666507720947265625" lon="-2.3774616234004497528076171875">
        <ele>964.79998779296875</ele>
        <time>2022-04-17T11:02:40.000Z</time>
      </trkpt>
      <trkpt lat="42.97065113671123981475830078125" lon="-2.37744477577507495880126953125">
        <ele>964.5999755859375</ele>
        <time>2022-04-17T11:02:41.000Z</time>
      </trkpt>
      <trkpt lat="42.97064107842743396759033203125" lon="-2.3774284310638904571533203125">
        <ele>964.5999755859375</ele>
        <time>2022-04-17T11:02:42.000Z</time>
      </trkpt>
      <trkpt lat="42.97063269652426242828369140625" lon="-2.3774109967052936553955078125">
        <ele>964.5999755859375</ele>
        <time>2022-04-17T11:02:43.000Z</time>
      </trkpt>
      <trkpt lat="42.9706327803432941436767578125" lon="-2.37739917822182178497314453125">
        <ele>964.5999755859375</ele>
        <time>2022-04-17T11:02:44.000Z</time>
      </trkpt>
      <trkpt lat="42.97062364406883716583251953125" lon="-2.377384006977081298828125">
        <ele>964.4000244140625</ele>
        <time>2022-04-17T11:02:45.000Z</time>
      </trkpt>
      <trkpt lat="42.970620207488536834716796875" lon="-2.37736866809427738189697265625">
        <ele>964.4000244140625</ele>
        <time>2022-04-17T11:02:46.000Z</time>
      </trkpt>
      <trkpt lat="42.97061241231858730316162109375" lon="-2.37735919654369354248046875">
        <ele>964.4000244140625</ele>
        <time>2022-04-17T11:02:47.000Z</time>
      </trkpt>
      <trkpt lat="42.97061140649020671844482421875" lon="-2.37735257484018802642822265625">
        <ele>964.4000244140625</ele>
        <time>2022-04-17T11:02:48.000Z</time>
      </trkpt>
      <trkpt lat="42.97061073593795299530029296875" lon="-2.377346120774745941162109375">
        <ele>964.4000244140625</ele>
        <time>2022-04-17T11:02:49.000Z</time>
      </trkpt>
      <trkpt lat="42.9706083051860332489013671875" lon="-2.377334721386432647705078125">
        <ele>964.4000244140625</ele>
        <time>2022-04-17T11:02:50.000Z</time>
      </trkpt>
      <trkpt lat="42.97060671262443065643310546875" lon="-2.3773214779794216156005859375">
        <ele>964.4000244140625</ele>
        <time>2022-04-17T11:02:51.000Z</time>
      </trkpt>
      <trkpt lat="42.97060721553862094879150390625" lon="-2.37731703557074069976806640625">
        <ele>964.4000244140625</ele>
        <time>2022-04-17T11:02:52.000Z</time>
      </trkpt>
      <trkpt lat="42.97060771845281124114990234375" lon="-2.37731033004820346832275390625">
        <ele>964.4000244140625</ele>
        <time>2022-04-17T11:02:53.000Z</time>
      </trkpt>
      <trkpt lat="42.97060805372893810272216796875" lon="-2.37729943357408046722412109375">
        <ele>964.4000244140625</ele>
        <time>2022-04-17T11:02:54.000Z</time>
      </trkpt>
      <trkpt lat="42.97060512006282806396484375" lon="-2.3772795684635639190673828125">
        <ele>964.5999755859375</ele>
        <time>2022-04-17T11:02:55.000Z</time>
      </trkpt>
      <trkpt lat="42.970607466995716094970703125" lon="-2.37725517712533473968505859375">
        <ele>964.5999755859375</ele>
        <time>2022-04-17T11:02:56.000Z</time>
      </trkpt>
      <trkpt lat="42.970613501965999603271484375" lon="-2.3772265948355197906494140625">
        <ele>964.5999755859375</ele>
        <time>2022-04-17T11:02:57.000Z</time>
      </trkpt>
      <trkpt lat="42.970617525279521942138671875" lon="-2.37720790319144725799560546875">
        <ele>964.5999755859375</ele>
        <time>2022-04-17T11:02:58.000Z</time>
      </trkpt>
      <trkpt lat="42.97061643563210964202880859375" lon="-2.3771937377750873565673828125">
        <ele>964.4000244140625</ele>
        <time>2022-04-17T11:02:59.000Z</time>
      </trkpt>
      <trkpt lat="42.97061224468052387237548828125" lon="-2.377183847129344940185546875">
        <ele>964.4000244140625</ele>
        <time>2022-04-17T11:03:00.000Z</time>
      </trkpt>
      <trkpt lat="42.9706096462905406951904296875" lon="-2.37717554904520511627197265625">
        <ele>964.20001220703125</ele>
        <time>2022-04-17T11:03:01.000Z</time>
      </trkpt>
      <trkpt lat="42.97060285694897174835205078125" lon="-2.37716875970363616943359375">
        <ele>964.20001220703125</ele>
        <time>2022-04-17T11:03:02.000Z</time>
      </trkpt>
      <trkpt lat="42.97060268931090831756591796875" lon="-2.37716465257108211517333984375">
        <ele>964.20001220703125</ele>
        <time>2022-04-17T11:03:03.000Z</time>
      </trkpt>
      <trkpt lat="42.97060453332960605621337890625" lon="-2.37715560011565685272216796875">
        <ele>964.20001220703125</ele>
        <time>2022-04-17T11:03:04.000Z</time>
      </trkpt>
      <trkpt lat="42.97060780227184295654296875" lon="-2.37714537419378757476806640625">
        <ele>964.20001220703125</ele>
        <time>2022-04-17T11:03:05.000Z</time>
      </trkpt>
      <trkpt lat="42.97061207704246044158935546875" lon="-2.37713850103318691253662109375">
        <ele>964.20001220703125</ele>
        <time>2022-04-17T11:03:06.000Z</time>
      </trkpt>
      <trkpt lat="42.9706156812608242034912109375" lon="-2.37713213078677654266357421875">
        <ele>964.20001220703125</ele>
        <time>2022-04-17T11:03:07.000Z</time>
      </trkpt>
      <trkpt lat="42.9706186987459659576416015625" lon="-2.37712391652166843414306640625">
        <ele>964.20001220703125</ele>
        <time>2022-04-17T11:03:08.000Z</time>
      </trkpt>
      <trkpt lat="42.97061844728887081146240234375" lon="-2.3771144449710845947265625">
        <ele>964.20001220703125</ele>
        <time>2022-04-17T11:03:09.000Z</time>
      </trkpt>
      <trkpt lat="42.970619536936283111572265625" lon="-2.37710648216307163238525390625">
        <ele>964.4000244140625</ele>
        <time>2022-04-17T11:03:10.000Z</time>
      </trkpt>
      <trkpt lat="42.97062079422175884246826171875" lon="-2.37709944136440753936767578125">
        <ele>964.4000244140625</ele>
        <time>2022-04-17T11:03:11.000Z</time>
      </trkpt>
      <trkpt lat="42.97062121331691741943359375" lon="-2.3770898021757602691650390625">
        <ele>964.4000244140625</ele>
        <time>2022-04-17T11:03:12.000Z</time>
      </trkpt>
      <trkpt lat="42.97061744146049022674560546875" lon="-2.37708401866257190704345703125">
        <ele>964.4000244140625</ele>
        <time>2022-04-17T11:03:13.000Z</time>
      </trkpt>
      <trkpt lat="42.97061878256499767303466796875" lon="-2.3770770616829395294189453125">
        <ele>964.5999755859375</ele>
        <time>2022-04-17T11:03:14.000Z</time>
      </trkpt>
      <trkpt lat="42.97061995603144168853759765625" lon="-2.37707043997943401336669921875">
        <ele>964.5999755859375</ele>
        <time>2022-04-17T11:03:15.000Z</time>
      </trkpt>
      <trkpt lat="42.97061660327017307281494140625" lon="-2.37705954350531101226806640625">
        <ele>964.79998779296875</ele>
        <time>2022-04-17T11:03:16.000Z</time>
      </trkpt>
      <trkpt lat="42.97061006538569927215576171875" lon="-2.3770500719547271728515625">
        <ele>964.79998779296875</ele>
        <time>2022-04-17T11:03:17.000Z</time>
      </trkpt>
      <trkpt lat="42.970604114234447479248046875" lon="-2.37703791819512844085693359375">
        <ele>964.79998779296875</ele>
        <time>2022-04-17T11:03:18.000Z</time>
      </trkpt>
      <trkpt lat="42.970600090920925140380859375" lon="-2.37703062593936920166015625">
        <ele>965</ele>
        <time>2022-04-17T11:03:19.000Z</time>
      </trkpt>
      <trkpt lat="42.97059229575097560882568359375" lon="-2.37702014856040477752685546875">
        <ele>965</ele>
        <time>2022-04-17T11:03:20.000Z</time>
      </trkpt>
      <trkpt lat="42.97058726660907268524169921875" lon="-2.37700724042952060699462890625">
        <ele>965</ele>
        <time>2022-04-17T11:03:21.000Z</time>
      </trkpt>
      <trkpt lat="42.97058827243745326995849609375" lon="-2.37699399702250957489013671875">
        <ele>965.20001220703125</ele>
        <time>2022-04-17T11:03:22.000Z</time>
      </trkpt>
      <trkpt lat="42.970595061779022216796875" lon="-2.37698427401483058929443359375">
        <ele>965.4000244140625</ele>
        <time>2022-04-17T11:03:23.000Z</time>
      </trkpt>
      <trkpt lat="42.9705958999693393707275390625" lon="-2.376975975930690765380859375">
        <ele>965.5999755859375</ele>
        <time>2022-04-17T11:03:24.000Z</time>
      </trkpt>
      <trkpt lat="42.97059430740773677825927734375" lon="-2.37696734257042407989501953125">
        <ele>965.5999755859375</ele>
        <time>2022-04-17T11:03:25.000Z</time>
      </trkpt>
      <trkpt lat="42.970594726502895355224609375" lon="-2.37696398980915546417236328125">
        <ele>965.5999755859375</ele>
        <time>2022-04-17T11:03:26.000Z</time>
      </trkpt>
      <trkpt lat="42.970604784786701202392578125" lon="-2.3769563622772693634033203125">
        <ele>965.79998779296875</ele>
        <time>2022-04-17T11:03:27.000Z</time>
      </trkpt>
      <trkpt lat="42.9706160165369510650634765625" lon="-2.37693984992802143096923828125">
        <ele>965.79998779296875</ele>
        <time>2022-04-17T11:03:28.000Z</time>
      </trkpt>
      <trkpt lat="42.97061643563210964202880859375" lon="-2.376929037272930145263671875">
        <ele>965.79998779296875</ele>
        <time>2022-04-17T11:03:29.000Z</time>
      </trkpt>
      <trkpt lat="42.97061995603144168853759765625" lon="-2.37691604532301425933837890625">
        <ele>965.79998779296875</ele>
        <time>2022-04-17T11:03:30.000Z</time>
      </trkpt>
      <trkpt lat="42.97062766738235950469970703125" lon="-2.376910261809825897216796875">
        <ele>965.79998779296875</ele>
        <time>2022-04-17T11:03:31.000Z</time>
      </trkpt>
      <trkpt lat="42.970625571906566619873046875" lon="-2.3768950067460536956787109375">
        <ele>966</ele>
        <time>2022-04-17T11:03:32.000Z</time>
      </trkpt>
      <trkpt lat="42.9706217162311077117919921875" lon="-2.37688503228127956390380859375">
        <ele>966.20001220703125</ele>
        <time>2022-04-17T11:03:33.000Z</time>
      </trkpt>
      <trkpt lat="42.970616854727268218994140625" lon="-2.37687631510198116302490234375">
        <ele>966.4000244140625</ele>
        <time>2022-04-17T11:03:34.000Z</time>
      </trkpt>
      <trkpt lat="42.97062255442142486572265625" lon="-2.3768614791333675384521484375">
        <ele>966.4000244140625</ele>
        <time>2022-04-17T11:03:35.000Z</time>
      </trkpt>
      <trkpt lat="42.97062884084880352020263671875" lon="-2.37685401923954486846923828125">
        <ele>966.5999755859375</ele>
        <time>2022-04-17T11:03:36.000Z</time>
      </trkpt>
      <trkpt lat="42.97063437290489673614501953125" lon="-2.37684580497443675994873046875">
        <ele>966.5999755859375</ele>
        <time>2022-04-17T11:03:37.000Z</time>
      </trkpt>
      <trkpt lat="42.9706381447613239288330078125" lon="-2.37683775834739208221435546875">
        <ele>966.5999755859375</ele>
        <time>2022-04-17T11:03:38.000Z</time>
      </trkpt>
      <trkpt lat="42.970637977123260498046875" lon="-2.3768279515206813812255859375">
        <ele>966.5999755859375</ele>
        <time>2022-04-17T11:03:39.000Z</time>
      </trkpt>
      <trkpt lat="42.97063688747584819793701171875" lon="-2.37681345082819461822509765625">
        <ele>966.5999755859375</ele>
        <time>2022-04-17T11:03:40.000Z</time>
      </trkpt>
      <trkpt lat="42.97063889913260936737060546875" lon="-2.376802302896976470947265625">
        <ele>966.5999755859375</ele>
        <time>2022-04-17T11:03:41.000Z</time>
      </trkpt>
      <trkpt lat="42.97064208425581455230712890625" lon="-2.3767947591841220855712890625">
        <ele>966.79998779296875</ele>
        <time>2022-04-17T11:03:42.000Z</time>
      </trkpt>
      <trkpt lat="42.9706461913883686065673828125" lon="-2.3767803423106670379638671875">
        <ele>966.79998779296875</ele>
        <time>2022-04-17T11:03:43.000Z</time>
      </trkpt>
      <trkpt lat="42.97064476646482944488525390625" lon="-2.376764751970767974853515625">
        <ele>967</ele>
        <time>2022-04-17T11:03:44.000Z</time>
      </trkpt>
      <trkpt lat="42.9706482030451297760009765625" lon="-2.3767494969069957733154296875">
        <ele>967</ele>
        <time>2022-04-17T11:03:45.000Z</time>
      </trkpt>
      <trkpt lat="42.970657087862491607666015625" lon="-2.37672929652035236358642578125">
        <ele>967</ele>
        <time>2022-04-17T11:03:46.000Z</time>
      </trkpt>
      <trkpt lat="42.970655746757984161376953125" lon="-2.37671974115073680877685546875">
        <ele>967.20001220703125</ele>
        <time>2022-04-17T11:03:47.000Z</time>
      </trkpt>
      <trkpt lat="42.97065851278603076934814453125" lon="-2.376697361469268798828125">
        <ele>967.20001220703125</ele>
        <time>2022-04-17T11:03:48.000Z</time>
      </trkpt>
      <trkpt lat="42.97066220082342624664306640625" lon="-2.37668864428997039794921875">
        <ele>967.4000244140625</ele>
        <time>2022-04-17T11:03:49.000Z</time>
      </trkpt>
      <trkpt lat="42.970665805041790008544921875" lon="-2.37667699344456195831298828125">
        <ele>967.4000244140625</ele>
        <time>2022-04-17T11:03:50.000Z</time>
      </trkpt>
      <trkpt lat="42.9706686548888683319091796875" lon="-2.37666609697043895721435546875">
        <ele>967.5999755859375</ele>
        <time>2022-04-17T11:03:51.000Z</time>
      </trkpt>
      <trkpt lat="42.97067661769688129425048828125" lon="-2.37666257657110691070556640625">
        <ele>967.5999755859375</ele>
        <time>2022-04-17T11:03:52.000Z</time>
      </trkpt>
      <trkpt lat="42.97068432904779911041259765625" lon="-2.37665134482085704803466796875">
        <ele>967.5999755859375</ele>
        <time>2022-04-17T11:03:53.000Z</time>
      </trkpt>
      <trkpt lat="42.9706884361803531646728515625" lon="-2.37663567066192626953125">
        <ele>967.5999755859375</ele>
        <time>2022-04-17T11:03:54.000Z</time>
      </trkpt>
      <trkpt lat="42.970691286027431488037109375" lon="-2.376636005938053131103515625">
        <ele>967.5999755859375</ele>
        <time>2022-04-17T11:03:55.000Z</time>
      </trkpt>
      <trkpt lat="42.97069321386516094207763671875" lon="-2.37664246000349521636962890625">
        <ele>967.5999755859375</ele>
        <time>2022-04-17T11:03:56.000Z</time>
      </trkpt>
      <trkpt lat="42.97070528380572795867919921875" lon="-2.37664304673671722412109375">
        <ele>967.79998779296875</ele>
        <time>2022-04-17T11:03:57.000Z</time>
      </trkpt>
      <trkpt lat="42.9707090556621551513671875" lon="-2.37664145417511463165283203125">
        <ele>967.79998779296875</ele>
        <time>2022-04-17T11:03:58.000Z</time>
      </trkpt>
      <trkpt lat="42.9707065410912036895751953125" lon="-2.376638688147068023681640625">
        <ele>967.79998779296875</ele>
        <time>2022-04-17T11:03:59.000Z</time>
      </trkpt>
      <trkpt lat="42.9706991650164127349853515625" lon="-2.37662636674940586090087890625">
        <ele>967.79998779296875</ele>
        <time>2022-04-17T11:04:00.000Z</time>
      </trkpt>
      <trkpt lat="42.97070260159671306610107421875" lon="-2.37661312334239482879638671875">
        <ele>967.79998779296875</ele>
        <time>2022-04-17T11:04:01.000Z</time>
      </trkpt>
      <trkpt lat="42.97070570290088653564453125" lon="-2.376607172191143035888671875">
        <ele>967.79998779296875</ele>
        <time>2022-04-17T11:04:02.000Z</time>
      </trkpt>
      <trkpt lat="42.970707379281520843505859375" lon="-2.37660222686827182769775390625">
        <ele>968</ele>
        <time>2022-04-17T11:04:03.000Z</time>
      </trkpt>
      <trkpt lat="42.97071249224245548248291015625" lon="-2.3765962757170200347900390625">
        <ele>968</ele>
        <time>2022-04-17T11:04:04.000Z</time>
      </trkpt>
      <trkpt lat="42.97071903012692928314208984375" lon="-2.37658496014773845672607421875">
        <ele>968</ele>
        <time>2022-04-17T11:04:05.000Z</time>
      </trkpt>
      <trkpt lat="42.970722801983356475830078125" lon="-2.37657221965491771697998046875">
        <ele>968</ele>
        <time>2022-04-17T11:04:06.000Z</time>
      </trkpt>
      <trkpt lat="42.97072271816432476043701171875" lon="-2.3765604011714458465576171875">
        <ele>968.20001220703125</ele>
        <time>2022-04-17T11:04:07.000Z</time>
      </trkpt>
      <trkpt lat="42.9707226343452930450439453125" lon="-2.376548163592815399169921875">
        <ele>968.20001220703125</ele>
        <time>2022-04-17T11:04:08.000Z</time>
      </trkpt>
      <trkpt lat="42.97072506509721279144287109375" lon="-2.37653768621385097503662109375">
        <ele>968.20001220703125</ele>
        <time>2022-04-17T11:04:09.000Z</time>
      </trkpt>
      <trkpt lat="42.97072707675397396087646484375" lon="-2.376525364816188812255859375">
        <ele>968.4000244140625</ele>
        <time>2022-04-17T11:04:10.000Z</time>
      </trkpt>
      <trkpt lat="42.97072623856365680694580078125" lon="-2.37651119939982891082763671875">
        <ele>968.4000244140625</ele>
        <time>2022-04-17T11:04:11.000Z</time>
      </trkpt>
      <trkpt lat="42.97071970067918300628662109375" lon="-2.3764950223267078399658203125">
        <ele>968.4000244140625</ele>
        <time>2022-04-17T11:04:12.000Z</time>
      </trkpt>
      <trkpt lat="42.9707139171659946441650390625" lon="-2.37648085691034793853759765625">
        <ele>968.4000244140625</ele>
        <time>2022-04-17T11:04:13.000Z</time>
      </trkpt>
      <trkpt lat="42.9707144200801849365234375" lon="-2.3764698766171932220458984375">
        <ele>968.4000244140625</ele>
        <time>2022-04-17T11:04:14.000Z</time>
      </trkpt>
      <trkpt lat="42.97071374952793121337890625" lon="-2.37646375782787799835205078125">
        <ele>968.4000244140625</ele>
        <time>2022-04-17T11:04:15.000Z</time>
      </trkpt>
      <trkpt lat="42.97070913948118686676025390625" lon="-2.37645554356276988983154296875">
        <ele>968.4000244140625</ele>
        <time>2022-04-17T11:04:16.000Z</time>
      </trkpt>
      <trkpt lat="42.9707021825015544891357421875" lon="-2.37645168788731098175048828125">
        <ele>968.5999755859375</ele>
        <time>2022-04-17T11:04:17.000Z</time>
      </trkpt>
      <trkpt lat="42.97069774009287357330322265625" lon="-2.3764480836689472198486328125">
        <ele>968.79998779296875</ele>
        <time>2022-04-17T11:04:18.000Z</time>
      </trkpt>
      <trkpt lat="42.97069421969354152679443359375" lon="-2.3764447309076786041259765625">
        <ele>969.20001220703125</ele>
        <time>2022-04-17T11:04:19.000Z</time>
      </trkpt>
      <trkpt lat="42.97069539315998554229736328125" lon="-2.37643995322287082672119140625">
        <ele>969.20001220703125</ele>
        <time>2022-04-17T11:04:20.000Z</time>
      </trkpt>
      <trkpt lat="42.97070302069187164306640625" lon="-2.37643710337579250335693359375">
        <ele>969.4000244140625</ele>
        <time>2022-04-17T11:04:21.000Z</time>
      </trkpt>
      <trkpt lat="42.97071064822375774383544921875" lon="-2.37642855383455753326416015625">
        <ele>969.5999755859375</ele>
        <time>2022-04-17T11:04:22.000Z</time>
      </trkpt>
      <trkpt lat="42.97071802429854869842529296875" lon="-2.376421429216861724853515625">
        <ele>969.5999755859375</ele>
        <time>2022-04-17T11:04:23.000Z</time>
      </trkpt>
      <trkpt lat="42.9707256518304347991943359375" lon="-2.376411370933055877685546875">
        <ele>969.5999755859375</ele>
        <time>2022-04-17T11:04:24.000Z</time>
      </trkpt>
      <trkpt lat="42.97073126770555973052978515625" lon="-2.376402653753757476806640625">
        <ele>969.79998779296875</ele>
        <time>2022-04-17T11:04:25.000Z</time>
      </trkpt>
      <trkpt lat="42.97074149362742900848388671875" lon="-2.37639150582253932952880859375">
        <ele>969.79998779296875</ele>
        <time>2022-04-17T11:04:26.000Z</time>
      </trkpt>
      <trkpt lat="42.9707487858831882476806640625" lon="-2.376382537186145782470703125">
        <ele>969.79998779296875</ele>
        <time>2022-04-17T11:04:27.000Z</time>
      </trkpt>
      <trkpt lat="42.97075054608285427093505859375" lon="-2.3763661086559295654296875">
        <ele>970</ele>
        <time>2022-04-17T11:04:28.000Z</time>
      </trkpt>
      <trkpt lat="42.9707518033683300018310546875" lon="-2.376355715095996856689453125">
        <ele>970</ele>
        <time>2022-04-17T11:04:29.000Z</time>
      </trkpt>
      <trkpt lat="42.97075188718736171722412109375" lon="-2.37634724937379360198974609375">
        <ele>970.20001220703125</ele>
        <time>2022-04-17T11:04:30.000Z</time>
      </trkpt>
      <trkpt lat="42.9707481153309345245361328125" lon="-2.37633920274674892425537109375">
        <ele>970.20001220703125</ele>
        <time>2022-04-17T11:04:31.000Z</time>
      </trkpt>
      <trkpt lat="42.97074115835130214691162109375" lon="-2.37632445059716701507568359375">
        <ele>970.4000244140625</ele>
        <time>2022-04-17T11:04:32.000Z</time>
      </trkpt>
      <trkpt lat="42.97074149362742900848388671875" lon="-2.3763153143227100372314453125">
        <ele>970.4000244140625</ele>
        <time>2022-04-17T11:04:33.000Z</time>
      </trkpt>
      <trkpt lat="42.97074727714061737060546875" lon="-2.376306764781475067138671875">
        <ele>970.5999755859375</ele>
        <time>2022-04-17T11:04:34.000Z</time>
      </trkpt>
      <trkpt lat="42.97075138427317142486572265625" lon="-2.376298718154430389404296875">
        <ele>970.79998779296875</ele>
        <time>2022-04-17T11:04:35.000Z</time>
      </trkpt>
      <trkpt lat="42.97075591050088405609130859375" lon="-2.376287318766117095947265625">
        <ele>970.79998779296875</ele>
        <time>2022-04-17T11:04:36.000Z</time>
      </trkpt>
      <trkpt lat="42.97075758688151836395263671875" lon="-2.37627717666327953338623046875">
        <ele>971</ele>
        <time>2022-04-17T11:04:37.000Z</time>
      </trkpt>
      <trkpt lat="42.97075130045413970947265625" lon="-2.37627013586461544036865234375">
        <ele>971</ele>
        <time>2022-04-17T11:04:38.000Z</time>
      </trkpt>
      <trkpt lat="42.97075171954929828643798828125" lon="-2.37625856883823871612548828125">
        <ele>971</ele>
        <time>2022-04-17T11:04:39.000Z</time>
      </trkpt>
      <trkpt lat="42.97074258327484130859375" lon="-2.37623996101319789886474609375">
        <ele>971</ele>
        <time>2022-04-17T11:04:40.000Z</time>
      </trkpt>
      <trkpt lat="42.97073696739971637725830078125" lon="-2.37622302956879138946533203125">
        <ele>971.20001220703125</ele>
        <time>2022-04-17T11:04:41.000Z</time>
      </trkpt>
      <trkpt lat="42.97073026187717914581298828125" lon="-2.376210875809192657470703125">
        <ele>971.20001220703125</ele>
        <time>2022-04-17T11:04:42.000Z</time>
      </trkpt>
      <trkpt lat="42.9707269929349422454833984375" lon="-2.3761998116970062255859375">
        <ele>971.20001220703125</ele>
        <time>2022-04-17T11:04:43.000Z</time>
      </trkpt>
      <trkpt lat="42.97072741203010082244873046875" lon="-2.37619402818381786346435546875">
        <ele>971.20001220703125</ele>
        <time>2022-04-17T11:04:44.000Z</time>
      </trkpt>
      <trkpt lat="42.9707233048975467681884765625" lon="-2.37618816085159778594970703125">
        <ele>971.4000244140625</ele>
        <time>2022-04-17T11:04:45.000Z</time>
      </trkpt>
      <trkpt lat="42.97071936540305614471435546875" lon="-2.3761864006519317626953125">
        <ele>971.4000244140625</ele>
        <time>2022-04-17T11:04:46.000Z</time>
      </trkpt>
      <trkpt lat="42.9707119055092334747314453125" lon="-2.376182712614536285400390625">
        <ele>971.4000244140625</ele>
        <time>2022-04-17T11:04:47.000Z</time>
      </trkpt>
      <trkpt lat="42.9707048647105693817138671875" lon="-2.37617508508265018463134765625">
        <ele>971.4000244140625</ele>
        <time>2022-04-17T11:04:48.000Z</time>
      </trkpt>
      <trkpt lat="42.9707010090351104736328125" lon="-2.3761681281030178070068359375">
        <ele>971.4000244140625</ele>
        <time>2022-04-17T11:04:49.000Z</time>
      </trkpt>
      <trkpt lat="42.9706954769790172576904296875" lon="-2.37616519443690776824951171875">
        <ele>971.4000244140625</ele>
        <time>2022-04-17T11:04:50.000Z</time>
      </trkpt>
      <trkpt lat="42.970685921609401702880859375" lon="-2.37616485916078090667724609375">
        <ele>971.4000244140625</ele>
        <time>2022-04-17T11:04:51.000Z</time>
      </trkpt>
      <trkpt lat="42.97067795880138874053955078125" lon="-2.37616720609366893768310546875">
        <ele>971.4000244140625</ele>
        <time>2022-04-17T11:04:52.000Z</time>
      </trkpt>
      <trkpt lat="42.97067695297300815582275390625" lon="-2.37617106176912784576416015625">
        <ele>971.5999755859375</ele>
        <time>2022-04-17T11:04:53.000Z</time>
      </trkpt>
      <trkpt lat="42.9706850834190845489501953125" lon="-2.37618044950067996978759765625">
        <ele>971.4000244140625</ele>
        <time>2022-04-17T11:04:54.000Z</time>
      </trkpt>
      <trkpt lat="42.97069136984646320343017578125" lon="-2.37619989551603794097900390625">
        <ele>971.4000244140625</ele>
        <time>2022-04-17T11:04:55.000Z</time>
      </trkpt>
      <trkpt lat="42.97069254331290721893310546875" lon="-2.37621196545660495758056640625">
        <ele>971.4000244140625</ele>
        <time>2022-04-17T11:04:56.000Z</time>
      </trkpt>
      <trkpt lat="42.97069489024579524993896484375" lon="-2.3762214370071887969970703125">
        <ele>971.4000244140625</ele>
        <time>2022-04-17T11:04:57.000Z</time>
      </trkpt>
      <trkpt lat="42.97069204039871692657470703125" lon="-2.37622386775910854339599609375">
        <ele>971.4000244140625</ele>
        <time>2022-04-17T11:04:58.000Z</time>
      </trkpt>
      <trkpt lat="42.97068969346582889556884765625" lon="-2.3762212693691253662109375">
        <ele>971.5999755859375</ele>
        <time>2022-04-17T11:04:59.000Z</time>
      </trkpt>
      <trkpt lat="42.9706867597997188568115234375" lon="-2.37621263600885868072509765625">
        <ele>971.5999755859375</ele>
        <time>2022-04-17T11:05:00.000Z</time>
      </trkpt>
      <trkpt lat="42.97068567015230655670166015625" lon="-2.37620710395276546478271484375">
        <ele>971.5999755859375</ele>
        <time>2022-04-17T11:05:01.000Z</time>
      </trkpt>
      <trkpt lat="42.9706884361803531646728515625" lon="-2.37619914114475250244140625">
        <ele>971.79998779296875</ele>
        <time>2022-04-17T11:05:02.000Z</time>
      </trkpt>
      <trkpt lat="42.97068960964679718017578125" lon="-2.37619503401219844818115234375">
        <ele>971.79998779296875</ele>
        <time>2022-04-17T11:05:03.000Z</time>
      </trkpt>
      <trkpt lat="42.97068935818970203399658203125" lon="-2.3761912621557712554931640625">
        <ele>971.79998779296875</ele>
        <time>2022-04-17T11:05:04.000Z</time>
      </trkpt>
      <trkpt lat="42.97068684361875057220458984375" lon="-2.37618581391870975494384765625">
        <ele>972</ele>
        <time>2022-04-17T11:05:05.000Z</time>
      </trkpt>
      <trkpt lat="42.97068265266716480255126953125" lon="-2.3761822097003459930419921875">
        <ele>972</ele>
        <time>2022-04-17T11:05:06.000Z</time>
      </trkpt>
      <trkpt lat="42.9706810601055622100830078125" lon="-2.37618095241487026214599609375">
        <ele>972.20001220703125</ele>
        <time>2022-04-17T11:05:07.000Z</time>
      </trkpt>
      <trkpt lat="42.970679216086864471435546875" lon="-2.37617558799684047698974609375">
        <ele>972.4000244140625</ele>
        <time>2022-04-17T11:05:08.000Z</time>
      </trkpt>
      <trkpt lat="42.97067795880138874053955078125" lon="-2.37617257051169872283935546875">
        <ele>972.4000244140625</ele>
        <time>2022-04-17T11:05:09.000Z</time>
      </trkpt>
      <trkpt lat="42.9706728458404541015625" lon="-2.3761703073978424072265625">
        <ele>972.5999755859375</ele>
        <time>2022-04-17T11:05:10.000Z</time>
      </trkpt>
      <trkpt lat="42.97067024745047092437744140625" lon="-2.376169301569461822509765625">
        <ele>972.79998779296875</ele>
        <time>2022-04-17T11:05:11.000Z</time>
      </trkpt>
      <trkpt lat="42.97066546976566314697265625" lon="-2.3761664517223834991455078125">
        <ele>972.79998779296875</ele>
        <time>2022-04-17T11:05:12.000Z</time>
      </trkpt>
      <trkpt lat="42.97065817750990390777587890625" lon="-2.37616335041821002960205078125">
        <ele>972.79998779296875</ele>
        <time>2022-04-17T11:05:13.000Z</time>
      </trkpt>
      <trkpt lat="42.970648370683193206787109375" lon="-2.37615781836211681365966796875">
        <ele>973</ele>
        <time>2022-04-17T11:05:14.000Z</time>
      </trkpt>
      <trkpt lat="42.97064225189387798309326171875" lon="-2.37615111283957958221435546875">
        <ele>973</ele>
        <time>2022-04-17T11:05:15.000Z</time>
      </trkpt>
      <trkpt lat="42.97063906677067279815673828125" lon="-2.37614876590669155120849609375">
        <ele>973</ele>
        <time>2022-04-17T11:05:16.000Z</time>
      </trkpt>
      <trkpt lat="42.97063722275197505950927734375" lon="-2.3761473409831523895263671875">
        <ele>973</ele>
        <time>2022-04-17T11:05:17.000Z</time>
      </trkpt>
      <trkpt lat="42.97063060104846954345703125" lon="-2.376141808927059173583984375">
        <ele>973</ele>
        <time>2022-04-17T11:05:18.000Z</time>
      </trkpt>
      <trkpt lat="42.97062649391591548919677734375" lon="-2.37614289857447147369384765625">
        <ele>973</ele>
        <time>2022-04-17T11:05:19.000Z</time>
      </trkpt>
      <trkpt lat="42.97062389552593231201171875" lon="-2.37614491023123264312744140625">
        <ele>973</ele>
        <time>2022-04-17T11:05:20.000Z</time>
      </trkpt>
      <trkpt lat="42.97062900848686695098876953125" lon="-2.3761466704308986663818359375">
        <ele>973</ele>
        <time>2022-04-17T11:05:21.000Z</time>
      </trkpt>
      <trkpt lat="42.9706324450671672821044921875" lon="-2.37615086138248443603515625">
        <ele>973</ele>
        <time>2022-04-17T11:05:22.000Z</time>
      </trkpt>
      <trkpt lat="42.97064107842743396759033203125" lon="-2.3761567287147045135498046875">
        <ele>973</ele>
        <time>2022-04-17T11:05:23.000Z</time>
      </trkpt>
      <trkpt lat="42.970642335712909698486328125" lon="-2.37615622580051422119140625">
        <ele>972.79998779296875</ele>
        <time>2022-04-17T11:05:24.000Z</time>
      </trkpt>
      <trkpt lat="42.97064024023711681365966796875" lon="-2.37614977173507213592529296875">
        <ele>972.79998779296875</ele>
        <time>2022-04-17T11:05:25.000Z</time>
      </trkpt>
      <trkpt lat="42.97063990496098995208740234375" lon="-2.37613954581320285797119140625">
        <ele>973</ele>
        <time>2022-04-17T11:05:26.000Z</time>
      </trkpt>
      <trkpt lat="42.97063998878002166748046875" lon="-2.37613082863390445709228515625">
        <ele>973</ele>
        <time>2022-04-17T11:05:27.000Z</time>
      </trkpt>
      <trkpt lat="42.97064024023711681365966796875" lon="-2.376125045120716094970703125">
        <ele>973</ele>
        <time>2022-04-17T11:05:28.000Z</time>
      </trkpt>
      <trkpt lat="42.97064543701708316802978515625" lon="-2.37612093798816204071044921875">
        <ele>973.20001220703125</ele>
        <time>2022-04-17T11:05:29.000Z</time>
      </trkpt>
      <trkpt lat="42.97065163962543010711669921875" lon="-2.37611440010368824005126953125">
        <ele>973.20001220703125</ele>
        <time>2022-04-17T11:05:30.000Z</time>
      </trkpt>
      <trkpt lat="42.9706539027392864227294921875" lon="-2.37610752694308757781982421875">
        <ele>973.4000244140625</ele>
        <time>2022-04-17T11:05:31.000Z</time>
      </trkpt>
      <trkpt lat="42.97065113671123981475830078125" lon="-2.37610216252505779266357421875">
        <ele>973.5999755859375</ele>
        <time>2022-04-17T11:05:32.000Z</time>
      </trkpt>
      <trkpt lat="42.97065130434930324554443359375" lon="-2.37609914503991603851318359375">
        <ele>973.79998779296875</ele>
        <time>2022-04-17T11:05:33.000Z</time>
      </trkpt>
      <trkpt lat="42.97065163962543010711669921875" lon="-2.37609813921153545379638671875">
        <ele>974</ele>
        <time>2022-04-17T11:05:34.000Z</time>
      </trkpt>
      <trkpt lat="42.97066010534763336181640625" lon="-2.3760933615267276763916015625">
        <ele>974.20001220703125</ele>
        <time>2022-04-17T11:05:35.000Z</time>
      </trkpt>
      <trkpt lat="42.97066622413694858551025390625" lon="-2.37609109841287136077880859375">
        <ele>974.20001220703125</ele>
        <time>2022-04-17T11:05:36.000Z</time>
      </trkpt>
      <trkpt lat="42.97065951861441135406494140625" lon="-2.376094870269298553466796875">
        <ele>974.4000244140625</ele>
        <time>2022-04-17T11:05:37.000Z</time>
      </trkpt>
      <trkpt lat="42.97064803540706634521484375" lon="-2.37609847448766231536865234375">
        <ele>974.4000244140625</ele>
        <time>2022-04-17T11:05:38.000Z</time>
      </trkpt>
      <trkpt lat="42.9706461913883686065673828125" lon="-2.37609679810702800750732421875">
        <ele>974.4000244140625</ele>
        <time>2022-04-17T11:05:39.000Z</time>
      </trkpt>
      <trkpt lat="42.97065465711057186126708984375" lon="-2.37608958967030048370361328125">
        <ele>974.4000244140625</ele>
        <time>2022-04-17T11:05:40.000Z</time>
      </trkpt>
      <trkpt lat="42.97066412866115570068359375" lon="-2.3760799504816532135009765625">
        <ele>974.4000244140625</ele>
        <time>2022-04-17T11:05:41.000Z</time>
      </trkpt>
      <trkpt lat="42.97067527659237384796142578125" lon="-2.376073412597179412841796875">
        <ele>974.4000244140625</ele>
        <time>2022-04-17T11:05:42.000Z</time>
      </trkpt>
      <trkpt lat="42.97067645005881786346435546875" lon="-2.376062013208866119384765625">
        <ele>974.4000244140625</ele>
        <time>2022-04-17T11:05:43.000Z</time>
      </trkpt>
      <trkpt lat="42.97067661769688129425048828125" lon="-2.37605388276278972625732421875">
        <ele>974.79998779296875</ele>
        <time>2022-04-17T11:05:44.000Z</time>
      </trkpt>
      <trkpt lat="42.97067862935364246368408203125" lon="-2.37604633904993534088134765625">
        <ele>974.79998779296875</ele>
        <time>2022-04-17T11:05:45.000Z</time>
      </trkpt>
      <trkpt lat="42.97068147920072078704833984375" lon="-2.3760356940329074859619140625">
        <ele>975</ele>
        <time>2022-04-17T11:05:46.000Z</time>
      </trkpt>
      <trkpt lat="42.97068550251424312591552734375" lon="-2.37602538429200649261474609375">
        <ele>975.20001220703125</ele>
        <time>2022-04-17T11:05:47.000Z</time>
      </trkpt>
      <trkpt lat="42.97068919055163860321044921875" lon="-2.3760125599801540374755859375">
        <ele>975.20001220703125</ele>
        <time>2022-04-17T11:05:48.000Z</time>
      </trkpt>
      <trkpt lat="42.97069002874195575714111328125" lon="-2.37599956803023815155029296875">
        <ele>975.4000244140625</ele>
        <time>2022-04-17T11:05:49.000Z</time>
      </trkpt>
      <trkpt lat="42.97069338150322437286376953125" lon="-2.37599001266062259674072265625">
        <ele>975.5999755859375</ele>
        <time>2022-04-17T11:05:50.000Z</time>
      </trkpt>
      <trkpt lat="42.9706911183893680572509765625" lon="-2.3759780265390872955322265625">
        <ele>975.5999755859375</ele>
        <time>2022-04-17T11:05:51.000Z</time>
      </trkpt>
      <trkpt lat="42.97068893909454345703125" lon="-2.37596905790269374847412109375">
        <ele>975.5999755859375</ele>
        <time>2022-04-17T11:05:52.000Z</time>
      </trkpt>
      <trkpt lat="42.970681227743625640869140625" lon="-2.37595581449568271636962890625">
        <ele>975.79998779296875</ele>
        <time>2022-04-17T11:05:53.000Z</time>
      </trkpt>
      <trkpt lat="42.970675863325595855712890625" lon="-2.3759354464709758758544921875">
        <ele>975.79998779296875</ele>
        <time>2022-04-17T11:05:54.000Z</time>
      </trkpt>
      <trkpt lat="42.97067460604012012481689453125" lon="-2.3759113065898418426513671875">
        <ele>976</ele>
        <time>2022-04-17T11:05:55.000Z</time>
      </trkpt>
      <trkpt lat="42.97067410312592983245849609375" lon="-2.375894375145435333251953125">
        <ele>976.20001220703125</ele>
        <time>2022-04-17T11:05:56.000Z</time>
      </trkpt>
      <trkpt lat="42.97067351639270782470703125" lon="-2.3758913576602935791015625">
        <ele>976.4000244140625</ele>
        <time>2022-04-17T11:05:57.000Z</time>
      </trkpt>
      <trkpt lat="42.9706736840307712554931640625" lon="-2.37588322721421718597412109375">
        <ele>976.5999755859375</ele>
        <time>2022-04-17T11:05:58.000Z</time>
      </trkpt>
      <trkpt lat="42.97067410312592983245849609375" lon="-2.375870235264301300048828125">
        <ele>976.5999755859375</ele>
        <time>2022-04-17T11:05:59.000Z</time>
      </trkpt>
      <trkpt lat="42.970680557191371917724609375" lon="-2.3758653737604618072509765625">
        <ele>976.79998779296875</ele>
        <time>2022-04-17T11:06:00.000Z</time>
      </trkpt>
      <trkpt lat="42.97068692743778228759765625" lon="-2.3758663795888423919677734375">
        <ele>976.79998779296875</ele>
        <time>2022-04-17T11:06:01.000Z</time>
      </trkpt>
      <trkpt lat="42.970689274370670318603515625" lon="-2.37585573457181453704833984375">
        <ele>976.79998779296875</ele>
        <time>2022-04-17T11:06:02.000Z</time>
      </trkpt>
      <trkpt lat="42.9706956446170806884765625" lon="-2.3758502863347530364990234375">
        <ele>977</ele>
        <time>2022-04-17T11:06:03.000Z</time>
      </trkpt>
      <trkpt lat="42.9706995002925395965576171875" lon="-2.37584819085896015167236328125">
        <ele>977.4000244140625</ele>
        <time>2022-04-17T11:06:04.000Z</time>
      </trkpt>
      <trkpt lat="42.97069354914128780364990234375" lon="-2.37584399990737438201904296875">
        <ele>977.4000244140625</ele>
        <time>2022-04-17T11:06:05.000Z</time>
      </trkpt>
      <trkpt lat="42.97068558633327484130859375" lon="-2.3758385516703128814697265625">
        <ele>977.4000244140625</ele>
        <time>2022-04-17T11:06:06.000Z</time>
      </trkpt>
      <trkpt lat="42.97068156301975250244140625" lon="-2.3758375458419322967529296875">
        <ele>977.5999755859375</ele>
        <time>2022-04-17T11:06:07.000Z</time>
      </trkpt>
      <trkpt lat="42.97068147920072078704833984375" lon="-2.37584031186997890472412109375">
        <ele>977.79998779296875</ele>
        <time>2022-04-17T11:06:08.000Z</time>
      </trkpt>
      <trkpt lat="42.97068399377167224884033203125" lon="-2.37584182061254978179931640625">
        <ele>978</ele>
        <time>2022-04-17T11:06:09.000Z</time>
      </trkpt>
      <trkpt lat="42.9706849157810211181640625" lon="-2.375839389860630035400390625">
        <ele>978</ele>
        <time>2022-04-17T11:06:10.000Z</time>
      </trkpt>
      <trkpt lat="42.97068634070456027984619140625" lon="-2.37584014423191547393798828125">
        <ele>978</ele>
        <time>2022-04-17T11:06:11.000Z</time>
      </trkpt>
      <trkpt lat="42.97069103457033634185791015625" lon="-2.3758452571928501129150390625">
        <ele>978.20001220703125</ele>
        <time>2022-04-17T11:06:12.000Z</time>
      </trkpt>
      <trkpt lat="42.970691621303558349609375" lon="-2.3758482746779918670654296875">
        <ele>978.20001220703125</ele>
        <time>2022-04-17T11:06:13.000Z</time>
      </trkpt>
      <trkpt lat="42.97069069929420948028564453125" lon="-2.37584718503057956695556640625">
        <ele>978</ele>
        <time>2022-04-17T11:06:14.000Z</time>
      </trkpt>
      <trkpt lat="42.97068826854228973388671875" lon="-2.3758469335734844207763671875">
        <ele>978</ele>
        <time>2022-04-17T11:06:15.000Z</time>
      </trkpt>
      <trkpt lat="42.97068684361875057220458984375" lon="-2.3758457601070404052734375">
        <ele>978</ele>
        <time>2022-04-17T11:06:16.000Z</time>
      </trkpt>
      <trkpt lat="42.9706830717623233795166015625" lon="-2.375852800905704498291015625">
        <ele>978.20001220703125</ele>
        <time>2022-04-17T11:06:17.000Z</time>
      </trkpt>
      <trkpt lat="42.97068156301975250244140625" lon="-2.37585908733308315277099609375">
        <ele>978.20001220703125</ele>
        <time>2022-04-17T11:06:18.000Z</time>
      </trkpt>
      <trkpt lat="42.97068231739103794097900390625" lon="-2.37586411647498607635498046875">
        <ele>978.20001220703125</ele>
        <time>2022-04-17T11:06:19.000Z</time>
      </trkpt>
      <trkpt lat="42.97068399377167224884033203125" lon="-2.375865541398525238037109375">
        <ele>978.20001220703125</ele>
        <time>2022-04-17T11:06:20.000Z</time>
      </trkpt>
      <trkpt lat="42.970683909952640533447265625" lon="-2.37586763687431812286376953125">
        <ele>978.4000244140625</ele>
        <time>2022-04-17T11:06:21.000Z</time>
      </trkpt>
      <trkpt lat="42.970687933266162872314453125" lon="-2.3758623562753200531005859375">
        <ele>978.4000244140625</ele>
        <time>2022-04-17T11:06:22.000Z</time>
      </trkpt>
      <trkpt lat="42.9706849157810211181640625" lon="-2.37586344592273235321044921875">
        <ele>978.20001220703125</ele>
        <time>2022-04-17T11:06:23.000Z</time>
      </trkpt>
      <trkpt lat="42.9706844128668308258056640625" lon="-2.37586528994143009185791015625">
        <ele>978.20001220703125</ele>
        <time>2022-04-17T11:06:24.000Z</time>
      </trkpt>
      <trkpt lat="42.9706837423145771026611328125" lon="-2.37586830742657184600830078125">
        <ele>978.20001220703125</ele>
        <time>2022-04-17T11:06:25.000Z</time>
      </trkpt>
      <trkpt lat="42.97068290412425994873046875" lon="-2.37587266601622104644775390625">
        <ele>978.4000244140625</ele>
        <time>2022-04-17T11:06:26.000Z</time>
      </trkpt>
      <trkpt lat="42.97068214975297451019287109375" lon="-2.37587400712072849273681640625">
        <ele>978.4000244140625</ele>
        <time>2022-04-17T11:06:27.000Z</time>
      </trkpt>
      <trkpt lat="42.97068248502910137176513671875" lon="-2.3758698999881744384765625">
        <ele>978.4000244140625</ele>
        <time>2022-04-17T11:06:28.000Z</time>
      </trkpt>
      <trkpt lat="42.97068231739103794097900390625" lon="-2.37586126662790775299072265625">
        <ele>978.4000244140625</ele>
        <time>2022-04-17T11:06:29.000Z</time>
      </trkpt>
      <trkpt lat="42.970682568848133087158203125" lon="-2.375851459801197052001953125">
        <ele>978.4000244140625</ele>
        <time>2022-04-17T11:06:30.000Z</time>
      </trkpt>
      <trkpt lat="42.97068567015230655670166015625" lon="-2.37583762966096401214599609375">
        <ele>978.4000244140625</ele>
        <time>2022-04-17T11:06:31.000Z</time>
      </trkpt>
      <trkpt lat="42.970685251057147979736328125" lon="-2.37582363188266754150390625">
        <ele>978.4000244140625</ele>
        <time>2022-04-17T11:06:32.000Z</time>
      </trkpt>
      <trkpt lat="42.9706891067326068878173828125" lon="-2.37581332214176654815673828125">
        <ele>978.5999755859375</ele>
        <time>2022-04-17T11:06:33.000Z</time>
      </trkpt>
      <trkpt lat="42.9706927947700023651123046875" lon="-2.37580477260053157806396484375">
        <ele>978.5999755859375</ele>
        <time>2022-04-17T11:06:34.000Z</time>
      </trkpt>
      <trkpt lat="42.97069958411157131195068359375" lon="-2.37580041401088237762451171875">
        <ele>978.79998779296875</ele>
        <time>2022-04-17T11:06:35.000Z</time>
      </trkpt>
      <trkpt lat="42.97070972621440887451171875" lon="-2.37578918226063251495361328125">
        <ele>979</ele>
        <time>2022-04-17T11:06:36.000Z</time>
      </trkpt>
      <trkpt lat="42.9707165993750095367431640625" lon="-2.37577275373041629791259765625">
        <ele>979.4000244140625</ele>
        <time>2022-04-17T11:06:37.000Z</time>
      </trkpt>
      <trkpt lat="42.9707224667072296142578125" lon="-2.37576202489435672760009765625">
        <ele>979.5999755859375</ele>
        <time>2022-04-17T11:06:38.000Z</time>
      </trkpt>
      <trkpt lat="42.97072104178369045257568359375" lon="-2.37575657665729522705078125">
        <ele>979.5999755859375</ele>
        <time>2022-04-17T11:06:39.000Z</time>
      </trkpt>
      <trkpt lat="42.970713078975677490234375" lon="-2.37575800158083438873291015625">
        <ele>979.79998779296875</ele>
        <time>2022-04-17T11:06:40.000Z</time>
      </trkpt>
      <trkpt lat="42.97070545144379138946533203125" lon="-2.37575883977115154266357421875">
        <ele>979.79998779296875</ele>
        <time>2022-04-17T11:06:41.000Z</time>
      </trkpt>
      <trkpt lat="42.97069639898836612701416015625" lon="-2.37575791776180267333984375">
        <ele>979.79998779296875</ele>
        <time>2022-04-17T11:06:42.000Z</time>
      </trkpt>
      <trkpt lat="42.97068466432392597198486328125" lon="-2.375756911933422088623046875">
        <ele>980</ele>
        <time>2022-04-17T11:06:43.000Z</time>
      </trkpt>
      <trkpt lat="42.97068097628653049468994140625" lon="-2.37575733102858066558837890625">
        <ele>980</ele>
        <time>2022-04-17T11:06:44.000Z</time>
      </trkpt>
      <trkpt lat="42.970678545534610748291015625" lon="-2.37575816921889781951904296875">
        <ele>980</ele>
        <time>2022-04-17T11:06:45.000Z</time>
      </trkpt>
      <trkpt lat="42.97067527659237384796142578125" lon="-2.3757517151534557342529296875">
        <ele>980</ele>
        <time>2022-04-17T11:06:46.000Z</time>
      </trkpt>
      <trkpt lat="42.97067494131624698638916015625" lon="-2.3757456801831722259521484375">
        <ele>980</ele>
        <time>2022-04-17T11:06:47.000Z</time>
      </trkpt>
      <trkpt lat="42.970671840012073516845703125" lon="-2.3757389746606349945068359375">
        <ele>980</ele>
        <time>2022-04-17T11:06:48.000Z</time>
      </trkpt>
      <trkpt lat="42.97067242674529552459716796875" lon="-2.3757357895374298095703125">
        <ele>980</ele>
        <time>2022-04-17T11:06:49.000Z</time>
      </trkpt>
      <trkpt lat="42.97067410312592983245849609375" lon="-2.37572900019586086273193359375">
        <ele>980</ele>
        <time>2022-04-17T11:06:50.000Z</time>
      </trkpt>
      <trkpt lat="42.97067611478269100189208984375" lon="-2.3757223784923553466796875">
        <ele>980</ele>
        <time>2022-04-17T11:06:51.000Z</time>
      </trkpt>
      <trkpt lat="42.97067879699170589447021484375" lon="-2.3757188580930233001708984375">
        <ele>980</ele>
        <time>2022-04-17T11:06:52.000Z</time>
      </trkpt>
      <trkpt lat="42.97067712061107158660888671875" lon="-2.37571642734110355377197265625">
        <ele>980</ele>
        <time>2022-04-17T11:06:53.000Z</time>
      </trkpt>
      <trkpt lat="42.97067678533494472503662109375" lon="-2.37571366131305694580078125">
        <ele>980</ele>
        <time>2022-04-17T11:06:54.000Z</time>
      </trkpt>
      <trkpt lat="42.970675528049468994140625" lon="-2.37570754252374172210693359375">
        <ele>979.79998779296875</ele>
        <time>2022-04-17T11:06:55.000Z</time>
      </trkpt>
      <trkpt lat="42.9706756956875324249267578125" lon="-2.37569899298250675201416015625">
        <ele>979.79998779296875</ele>
        <time>2022-04-17T11:06:56.000Z</time>
      </trkpt>
      <trkpt lat="42.970673851668834686279296875" lon="-2.37569245509803295135498046875">
        <ele>979.79998779296875</ele>
        <time>2022-04-17T11:06:57.000Z</time>
      </trkpt>
      <trkpt lat="42.97067544423043727874755859375" lon="-2.37568558193743228912353515625">
        <ele>979.79998779296875</ele>
        <time>2022-04-17T11:06:58.000Z</time>
      </trkpt>
      <trkpt lat="42.97068022191524505615234375" lon="-2.37567703239619731903076171875">
        <ele>979.79998779296875</ele>
        <time>2022-04-17T11:06:59.000Z</time>
      </trkpt>
      <trkpt lat="42.970685251057147979736328125" lon="-2.375662364065647125244140625">
        <ele>979.79998779296875</ele>
        <time>2022-04-17T11:07:00.000Z</time>
      </trkpt>
      <trkpt lat="42.97068885527551174163818359375" lon="-2.3756518028676509857177734375">
        <ele>979.79998779296875</ele>
        <time>2022-04-17T11:07:01.000Z</time>
      </trkpt>
      <trkpt lat="42.97069095075130462646484375" lon="-2.375646270811557769775390625">
        <ele>979.79998779296875</ele>
        <time>2022-04-17T11:07:02.000Z</time>
      </trkpt>
      <trkpt lat="42.97068868763744831085205078125" lon="-2.375633530318737030029296875">
        <ele>979.79998779296875</ele>
        <time>2022-04-17T11:07:03.000Z</time>
      </trkpt>
      <trkpt lat="42.97068634070456027984619140625" lon="-2.375617437064647674560546875">
        <ele>979.79998779296875</ele>
        <time>2022-04-17T11:07:04.000Z</time>
      </trkpt>
      <trkpt lat="42.970687262713909149169921875" lon="-2.37560528330504894256591796875">
        <ele>979.79998779296875</ele>
        <time>2022-04-17T11:07:05.000Z</time>
      </trkpt>
      <trkpt lat="42.970689274370670318603515625" lon="-2.37559321336448192596435546875">
        <ele>980</ele>
        <time>2022-04-17T11:07:06.000Z</time>
      </trkpt>
      <trkpt lat="42.97069136984646320343017578125" lon="-2.37557644955813884735107421875">
        <ele>980</ele>
        <time>2022-04-17T11:07:07.000Z</time>
      </trkpt>
      <trkpt lat="42.97069229185581207275390625" lon="-2.3755606077611446380615234375">
        <ele>980</ele>
        <time>2022-04-17T11:07:08.000Z</time>
      </trkpt>
      <trkpt lat="42.970693297684192657470703125" lon="-2.3755445145070552825927734375">
        <ele>980.20001220703125</ele>
        <time>2022-04-17T11:07:09.000Z</time>
      </trkpt>
      <trkpt lat="42.97069606371223926544189453125" lon="-2.37553185783326625823974609375">
        <ele>980.20001220703125</ele>
        <time>2022-04-17T11:07:10.000Z</time>
      </trkpt>
      <trkpt lat="42.9707011766731739044189453125" lon="-2.37551475875079631805419921875">
        <ele>980.4000244140625</ele>
        <time>2022-04-17T11:07:11.000Z</time>
      </trkpt>
      <trkpt lat="42.9707063734531402587890625" lon="-2.375498078763484954833984375">
        <ele>980.5999755859375</ele>
        <time>2022-04-17T11:07:12.000Z</time>
      </trkpt>
      <trkpt lat="42.97069790773093700408935546875" lon="-2.3754888586699962615966796875">
        <ele>980.79998779296875</ele>
        <time>2022-04-17T11:07:13.000Z</time>
      </trkpt>
      <trkpt lat="42.97068198211491107940673828125" lon="-2.37548441626131534576416015625">
        <ele>980.79998779296875</ele>
        <time>2022-04-17T11:07:14.000Z</time>
      </trkpt>
      <trkpt lat="42.97066572122275829315185546875" lon="-2.37547720782458782196044921875">
        <ele>981</ele>
        <time>2022-04-17T11:07:15.000Z</time>
      </trkpt>
      <trkpt lat="42.97065834514796733856201171875" lon="-2.37546681426465511322021484375">
        <ele>981</ele>
        <time>2022-04-17T11:07:16.000Z</time>
      </trkpt>
      <trkpt lat="42.97065549530088901519775390625" lon="-2.37546631135046482086181640625">
        <ele>981</ele>
        <time>2022-04-17T11:07:17.000Z</time>
      </trkpt>
      <trkpt lat="42.9706461913883686065673828125" lon="-2.37546849064528942108154296875">
        <ele>981.20001220703125</ele>
        <time>2022-04-17T11:07:18.000Z</time>
      </trkpt>
      <trkpt lat="42.97063554637134075164794921875" lon="-2.3754700832068920135498046875">
        <ele>981.20001220703125</ele>
        <time>2022-04-17T11:07:19.000Z</time>
      </trkpt>
      <trkpt lat="42.970621883869171142578125" lon="-2.37547201104462146759033203125">
        <ele>981.4000244140625</ele>
        <time>2022-04-17T11:07:20.000Z</time>
      </trkpt>
      <trkpt lat="42.97061182558536529541015625" lon="-2.37547553144395351409912109375">
        <ele>981.4000244140625</ele>
        <time>2022-04-17T11:07:21.000Z</time>
      </trkpt>
      <trkpt lat="42.97061048448085784912109375" lon="-2.37547628581523895263671875">
        <ele>981.4000244140625</ele>
        <time>2022-04-17T11:07:22.000Z</time>
      </trkpt>
      <trkpt lat="42.97060805372893810272216796875" lon="-2.3754727654159069061279296875">
        <ele>981.79998779296875</ele>
        <time>2022-04-17T11:07:23.000Z</time>
      </trkpt>
      <trkpt lat="42.970611155033111572265625" lon="-2.3754637129604816436767578125">
        <ele>982</ele>
        <time>2022-04-17T11:07:24.000Z</time>
      </trkpt>
      <trkpt lat="42.9706059582531452178955078125" lon="-2.37545348703861236572265625">
        <ele>982.20001220703125</ele>
        <time>2022-04-17T11:07:25.000Z</time>
      </trkpt>
      <trkpt lat="42.97060017473995685577392578125" lon="-2.37544770352542400360107421875">
        <ele>982.20001220703125</ele>
        <time>2022-04-17T11:07:26.000Z</time>
      </trkpt>
      <trkpt lat="42.9706026054918766021728515625" lon="-2.37545273266732692718505859375">
        <ele>982.4000244140625</ele>
        <time>2022-04-17T11:07:27.000Z</time>
      </trkpt>
      <trkpt lat="42.970605790615081787109375" lon="-2.3754600249230861663818359375">
        <ele>982.4000244140625</ele>
        <time>2022-04-17T11:07:28.000Z</time>
      </trkpt>
      <trkpt lat="42.97059883363544940948486328125" lon="-2.3754586838185787200927734375">
        <ele>982.5999755859375</ele>
        <time>2022-04-17T11:07:29.000Z</time>
      </trkpt>
      <trkpt lat="42.97058994881808757781982421875" lon="-2.37546019256114959716796875">
        <ele>982.5999755859375</ele>
        <time>2022-04-17T11:07:30.000Z</time>
      </trkpt>
      <trkpt lat="42.97058626078069210052490234375" lon="-2.3754622042179107666015625">
        <ele>982.5999755859375</ele>
        <time>2022-04-17T11:07:31.000Z</time>
      </trkpt>
      <trkpt lat="42.9705841653048992156982421875" lon="-2.37546564079821109771728515625">
        <ele>982.5999755859375</ele>
        <time>2022-04-17T11:07:32.000Z</time>
      </trkpt>
      <trkpt lat="42.9705848358571529388427734375" lon="-2.3754704184830188751220703125">
        <ele>982.5999755859375</ele>
        <time>2022-04-17T11:07:33.000Z</time>
      </trkpt>
      <trkpt lat="42.970583327114582061767578125" lon="-2.3754724301397800445556640625">
        <ele>982.79998779296875</ele>
        <time>2022-04-17T11:07:34.000Z</time>
      </trkpt>
      <trkpt lat="42.97058190219104290008544921875" lon="-2.37547402270138263702392578125">
        <ele>982.79998779296875</ele>
        <time>2022-04-17T11:07:35.000Z</time>
      </trkpt>
      <trkpt lat="42.97057854942977428436279296875" lon="-2.37547452561557292938232421875">
        <ele>982.79998779296875</ele>
        <time>2022-04-17T11:07:36.000Z</time>
      </trkpt>
      <trkpt lat="42.9705731011927127838134765625" lon="-2.3754744417965412139892578125">
        <ele>982.79998779296875</ele>
        <time>2022-04-17T11:07:37.000Z</time>
      </trkpt>
      <trkpt lat="42.970571257174015045166015625" lon="-2.375468574464321136474609375">
        <ele>982.79998779296875</ele>
        <time>2022-04-17T11:07:38.000Z</time>
      </trkpt>
      <trkpt lat="42.97057033516466617584228515625" lon="-2.3754627071321010589599609375">
        <ele>982.79998779296875</ele>
        <time>2022-04-17T11:07:39.000Z</time>
      </trkpt>
      <trkpt lat="42.9705710895359516143798828125" lon="-2.37546161748468875885009765625">
        <ele>983</ele>
        <time>2022-04-17T11:07:40.000Z</time>
      </trkpt>
      <trkpt lat="42.97057469375431537628173828125" lon="-2.37546077929437160491943359375">
        <ele>983</ele>
        <time>2022-04-17T11:07:41.000Z</time>
      </trkpt>
      <trkpt lat="42.97057553194463253021240234375" lon="-2.37546446733176708221435546875">
        <ele>983</ele>
        <time>2022-04-17T11:07:42.000Z</time>
      </trkpt>
      <trkpt lat="42.97057519666850566864013671875" lon="-2.375467903912067413330078125">
        <ele>983.20001220703125</ele>
        <time>2022-04-17T11:07:43.000Z</time>
      </trkpt>
      <trkpt lat="42.97057829797267913818359375" lon="-2.3754700832068920135498046875">
        <ele>983.20001220703125</ele>
        <time>2022-04-17T11:07:44.000Z</time>
      </trkpt>
      <trkpt lat="42.97058039344847202301025390625" lon="-2.37547150813043117523193359375">
        <ele>983.20001220703125</ele>
        <time>2022-04-17T11:07:45.000Z</time>
      </trkpt>
      <trkpt lat="42.97057771123945713043212890625" lon="-2.37547201104462146759033203125">
        <ele>983.20001220703125</ele>
        <time>2022-04-17T11:07:46.000Z</time>
      </trkpt>
      <trkpt lat="42.97057829797267913818359375" lon="-2.375468574464321136474609375">
        <ele>983.20001220703125</ele>
        <time>2022-04-17T11:07:47.000Z</time>
      </trkpt>
      <trkpt lat="42.97058307565748691558837890625" lon="-2.3754637129604816436767578125">
        <ele>983</ele>
        <time>2022-04-17T11:07:48.000Z</time>
      </trkpt>
      <trkpt lat="42.97058860771358013153076171875" lon="-2.37545910291373729705810546875">
        <ele>982.79998779296875</ele>
        <time>2022-04-17T11:07:49.000Z</time>
      </trkpt>
      <trkpt lat="42.970585338771343231201171875" lon="-2.37545214593410491943359375">
        <ele>982.79998779296875</ele>
        <time>2022-04-17T11:07:50.000Z</time>
      </trkpt>
      <trkpt lat="42.97058324329555034637451171875" lon="-2.375450469553470611572265625">
        <ele>982.79998779296875</ele>
        <time>2022-04-17T11:07:51.000Z</time>
      </trkpt>
      <trkpt lat="42.97058156691491603851318359375" lon="-2.375447116792201995849609375">
        <ele>982.5999755859375</ele>
        <time>2022-04-17T11:07:52.000Z</time>
      </trkpt>
      <trkpt lat="42.970581986010074615478515625" lon="-2.37544217146933078765869140625">
        <ele>982.5999755859375</ele>
        <time>2022-04-17T11:07:53.000Z</time>
      </trkpt>
      <trkpt lat="42.97058441676199436187744140625" lon="-2.37543965689837932586669921875">
        <ele>982.5999755859375</ele>
        <time>2022-04-17T11:07:54.000Z</time>
      </trkpt>
      <trkpt lat="42.9705861769616603851318359375" lon="-2.375441081821918487548828125">
        <ele>982.5999755859375</ele>
        <time>2022-04-17T11:07:55.000Z</time>
      </trkpt>
      <trkpt lat="42.97058491967618465423583984375" lon="-2.37544166855514049530029296875">
        <ele>982.5999755859375</ele>
        <time>2022-04-17T11:07:56.000Z</time>
      </trkpt>
      <trkpt lat="42.97058324329555034637451171875" lon="-2.3754380643367767333984375">
        <ele>982.5999755859375</ele>
        <time>2022-04-17T11:07:57.000Z</time>
      </trkpt>
      <trkpt lat="42.97058022581040859222412109375" lon="-2.3754318617284297943115234375">
        <ele>982.5999755859375</ele>
        <time>2022-04-17T11:07:58.000Z</time>
      </trkpt>
      <trkpt lat="42.97057368792593479156494140625" lon="-2.3754187859594821929931640625">
        <ele>982.79998779296875</ele>
        <time>2022-04-17T11:07:59.000Z</time>
      </trkpt>
      <trkpt lat="42.9705724306404590606689453125" lon="-2.37540797330439090728759765625">
        <ele>983</ele>
        <time>2022-04-17T11:08:00.000Z</time>
      </trkpt>
      <trkpt lat="42.97056849114596843719482421875" lon="-2.37539389170706272125244140625">
        <ele>983.20001220703125</ele>
        <time>2022-04-17T11:08:01.000Z</time>
      </trkpt>
      <trkpt lat="42.97056480310857295989990234375" lon="-2.375388778746128082275390625">
        <ele>983.20001220703125</ele>
        <time>2022-04-17T11:08:02.000Z</time>
      </trkpt>
      <trkpt lat="42.970567904412746429443359375" lon="-2.37538383342325687408447265625">
        <ele>983.5999755859375</ele>
        <time>2022-04-17T11:08:03.000Z</time>
      </trkpt>
      <trkpt lat="42.97055927105247974395751953125" lon="-2.37538215704262256622314453125">
        <ele>983.79998779296875</ele>
        <time>2022-04-17T11:08:04.000Z</time>
      </trkpt>
      <trkpt lat="42.97054133377969264984130859375" lon="-2.37538400106132030487060546875">
        <ele>984.20001220703125</ele>
        <time>2022-04-17T11:08:05.000Z</time>
      </trkpt>
      <trkpt lat="42.9705271683633327484130859375" lon="-2.37538634799420833587646484375">
        <ele>984.4000244140625</ele>
        <time>2022-04-17T11:08:06.000Z</time>
      </trkpt>
      <trkpt lat="42.9705258272588253021240234375" lon="-2.375386767089366912841796875">
        <ele>984.79998779296875</ele>
        <time>2022-04-17T11:08:07.000Z</time>
      </trkpt>
      <trkpt lat="42.97052423469722270965576171875" lon="-2.3753844201564788818359375">
        <ele>985</ele>
        <time>2022-04-17T11:08:08.000Z</time>
      </trkpt>
      <trkpt lat="42.97052138485014438629150390625" lon="-2.37537561915814876556396484375">
        <ele>985.20001220703125</ele>
        <time>2022-04-17T11:08:09.000Z</time>
      </trkpt>
      <trkpt lat="42.97051258385181427001953125" lon="-2.37537109293043613433837890625">
        <ele>985.5999755859375</ele>
        <time>2022-04-17T11:08:10.000Z</time>
      </trkpt>
      <trkpt lat="42.97049707733094692230224609375" lon="-2.3753721825778484344482421875">
        <ele>985.79998779296875</ele>
        <time>2022-04-17T11:08:11.000Z</time>
      </trkpt>
      <trkpt lat="42.97048483975231647491455078125" lon="-2.37537461332976818084716796875">
        <ele>986</ele>
        <time>2022-04-17T11:08:12.000Z</time>
      </trkpt>
      <trkpt lat="42.970476709306240081787109375" lon="-2.37538014538586139678955078125">
        <ele>986.20001220703125</ele>
        <time>2022-04-17T11:08:13.000Z</time>
      </trkpt>
      <trkpt lat="42.9704651422798633575439453125" lon="-2.37538450397551059722900390625">
        <ele>986.20001220703125</ele>
        <time>2022-04-17T11:08:14.000Z</time>
      </trkpt>
      <trkpt lat="42.970455586910247802734375" lon="-2.37539020366966724395751953125">
        <ele>986.4000244140625</ele>
        <time>2022-04-17T11:08:15.000Z</time>
      </trkpt>
      <trkpt lat="42.970450222492218017578125" lon="-2.37539255060255527496337890625">
        <ele>986.5999755859375</ele>
        <time>2022-04-17T11:08:16.000Z</time>
      </trkpt>
      <trkpt lat="42.9704488813877105712890625" lon="-2.37539623863995075225830078125">
        <ele>986.79998779296875</ele>
        <time>2022-04-17T11:08:17.000Z</time>
      </trkpt>
      <trkpt lat="42.97044544480741024017333984375" lon="-2.375400178134441375732421875">
        <ele>986.79998779296875</ele>
        <time>2022-04-17T11:08:18.000Z</time>
      </trkpt>
      <trkpt lat="42.970446534454822540283203125" lon="-2.3754033632576465606689453125">
        <ele>986.79998779296875</ele>
        <time>2022-04-17T11:08:19.000Z</time>
      </trkpt>
      <trkpt lat="42.97044661827385425567626953125" lon="-2.37540629692375659942626953125">
        <ele>987</ele>
        <time>2022-04-17T11:08:20.000Z</time>
      </trkpt>
      <trkpt lat="42.9704470373690128326416015625" lon="-2.37541350536048412322998046875">
        <ele>986.79998779296875</ele>
        <time>2022-04-17T11:08:21.000Z</time>
      </trkpt>
      <trkpt lat="42.97044645063579082489013671875" lon="-2.37541593611240386962890625">
        <ele>986.79998779296875</ele>
        <time>2022-04-17T11:08:22.000Z</time>
      </trkpt>
      <trkpt lat="42.97044494189321994781494140625" lon="-2.37541618756949901580810546875">
        <ele>986.79998779296875</ele>
        <time>2022-04-17T11:08:23.000Z</time>
      </trkpt>
      <trkpt lat="42.97044309787452220916748046875" lon="-2.3754157684743404388427734375">
        <ele>986.79998779296875</ele>
        <time>2022-04-17T11:08:24.000Z</time>
      </trkpt>
      <trkpt lat="42.97044360078871250152587890625" lon="-2.37541518174111843109130859375">
        <ele>987</ele>
        <time>2022-04-17T11:08:25.000Z</time>
      </trkpt>
      <trkpt lat="42.97044427134096622467041015625" lon="-2.37541182897984981536865234375">
        <ele>987</ele>
        <time>2022-04-17T11:08:26.000Z</time>
      </trkpt>
      <trkpt lat="42.97044343315064907073974609375" lon="-2.375409565865993499755859375">
        <ele>987</ele>
        <time>2022-04-17T11:08:27.000Z</time>
      </trkpt>
      <trkpt lat="42.97044259496033191680908203125" lon="-2.37540596164762973785400390625">
        <ele>987</ele>
        <time>2022-04-17T11:08:28.000Z</time>
      </trkpt>
      <trkpt lat="42.97044075094163417816162109375" lon="-2.37540654838085174560546875">
        <ele>987.20001220703125</ele>
        <time>2022-04-17T11:08:29.000Z</time>
      </trkpt>
      <trkpt lat="42.97043723054230213165283203125" lon="-2.3754114098846912384033203125">
        <ele>987.20001220703125</ele>
        <time>2022-04-17T11:08:30.000Z</time>
      </trkpt>
      <trkpt lat="42.9704322852194309234619140625" lon="-2.3754174448549747467041015625">
        <ele>987.20001220703125</ele>
        <time>2022-04-17T11:08:31.000Z</time>
      </trkpt>
      <trkpt lat="42.970421724021434783935546875" lon="-2.3754187859594821929931640625">
        <ele>987.20001220703125</ele>
        <time>2022-04-17T11:08:32.000Z</time>
      </trkpt>
      <trkpt lat="42.97041510231792926788330078125" lon="-2.37541585229337215423583984375">
        <ele>987.20001220703125</ele>
        <time>2022-04-17T11:08:33.000Z</time>
      </trkpt>
      <trkpt lat="42.970413006842136383056640625" lon="-2.375414930284023284912109375">
        <ele>987.20001220703125</ele>
        <time>2022-04-17T11:08:34.000Z</time>
      </trkpt>
      <trkpt lat="42.9704057984054088592529296875" lon="-2.37540914677083492279052734375">
        <ele>987.20001220703125</ele>
        <time>2022-04-17T11:08:35.000Z</time>
      </trkpt>
      <trkpt lat="42.97039515338838100433349609375" lon="-2.37540679983794689178466796875">
        <ele>987.20001220703125</ele>
        <time>2022-04-17T11:08:36.000Z</time>
      </trkpt>
      <trkpt lat="42.9703876934945583343505859375" lon="-2.37540847621858119964599609375">
        <ele>987.20001220703125</ele>
        <time>2022-04-17T11:08:37.000Z</time>
      </trkpt>
      <trkpt lat="42.97037621028721332550048828125" lon="-2.3754110746085643768310546875">
        <ele>987</ele>
        <time>2022-04-17T11:08:38.000Z</time>
      </trkpt>
      <trkpt lat="42.97037067823112010955810546875" lon="-2.3754181154072284698486328125">
        <ele>987</ele>
        <time>2022-04-17T11:08:39.000Z</time>
      </trkpt>
      <trkpt lat="42.970364727079868316650390625" lon="-2.3754228092730045318603515625">
        <ele>987</ele>
        <time>2022-04-17T11:08:40.000Z</time>
      </trkpt>
      <trkpt lat="42.9703561775386333465576171875" lon="-2.37542859278619289398193359375">
        <ele>986.79998779296875</ele>
        <time>2022-04-17T11:08:41.000Z</time>
      </trkpt>
      <trkpt lat="42.97034754417836666107177734375" lon="-2.37543177790939807891845703125">
        <ele>986.79998779296875</ele>
        <time>2022-04-17T11:08:42.000Z</time>
      </trkpt>
      <trkpt lat="42.97033631242811679840087890625" lon="-2.3754338733851909637451171875">
        <ele>986.5999755859375</ele>
        <time>2022-04-17T11:08:43.000Z</time>
      </trkpt>
      <trkpt lat="42.97032105736434459686279296875" lon="-2.37543412484228610992431640625">
        <ele>986.5999755859375</ele>
        <time>2022-04-17T11:08:44.000Z</time>
      </trkpt>
      <trkpt lat="42.97030932269990444183349609375" lon="-2.37542658112943172454833984375">
        <ele>986.4000244140625</ele>
        <time>2022-04-17T11:08:45.000Z</time>
      </trkpt>
      <trkpt lat="42.9702986776828765869140625" lon="-2.375420629978179931640625">
        <ele>986.4000244140625</ele>
        <time>2022-04-17T11:08:46.000Z</time>
      </trkpt>
      <trkpt lat="42.9702837578952312469482421875" lon="-2.37541149370372295379638671875">
        <ele>986.4000244140625</ele>
        <time>2022-04-17T11:08:47.000Z</time>
      </trkpt>
      <trkpt lat="42.9702651500701904296875" lon="-2.37540948204696178436279296875">
        <ele>986.20001220703125</ele>
        <time>2022-04-17T11:08:48.000Z</time>
      </trkpt>
      <trkpt lat="42.970247380435466766357421875" lon="-2.37540923058986663818359375">
        <ele>986.20001220703125</ele>
        <time>2022-04-17T11:08:49.000Z</time>
      </trkpt>
      <trkpt lat="42.97024092637002468109130859375" lon="-2.37540210597217082977294921875">
        <ele>986.20001220703125</ele>
        <time>2022-04-17T11:08:50.000Z</time>
      </trkpt>
      <trkpt lat="42.97023338265717029571533203125" lon="-2.37540696747601032257080078125">
        <ele>986.20001220703125</ele>
        <time>2022-04-17T11:08:51.000Z</time>
      </trkpt>
      <trkpt lat="42.9702220670878887176513671875" lon="-2.3754114098846912384033203125">
        <ele>986.20001220703125</ele>
        <time>2022-04-17T11:08:52.000Z</time>
      </trkpt>
      <trkpt lat="42.970209158957004547119140625" lon="-2.3754218034446239471435546875">
        <ele>986.4000244140625</ele>
        <time>2022-04-17T11:08:53.000Z</time>
      </trkpt>
      <trkpt lat="42.97019549645483493804931640625" lon="-2.37542138434946537017822265625">
        <ele>986.4000244140625</ele>
        <time>2022-04-17T11:08:54.000Z</time>
      </trkpt>
      <trkpt lat="42.97018560580909252166748046875" lon="-2.375413589179515838623046875">
        <ele>986.4000244140625</ele>
        <time>2022-04-17T11:08:55.000Z</time>
      </trkpt>
      <trkpt lat="42.9701801575720310211181640625" lon="-2.3754187859594821929931640625">
        <ele>986.4000244140625</ele>
        <time>2022-04-17T11:08:56.000Z</time>
      </trkpt>
      <trkpt lat="42.970177643001079559326171875" lon="-2.37542322836816310882568359375">
        <ele>986.5999755859375</ele>
        <time>2022-04-17T11:08:57.000Z</time>
      </trkpt>
      <trkpt lat="42.9701784811913967132568359375" lon="-2.37542138434946537017822265625">
        <ele>986.79998779296875</ele>
        <time>2022-04-17T11:08:58.000Z</time>
      </trkpt>
      <trkpt lat="42.9701794870197772979736328125" lon="-2.37542138434946537017822265625">
        <ele>986.79998779296875</ele>
        <time>2022-04-17T11:08:59.000Z</time>
      </trkpt>
      <trkpt lat="42.9701752960681915283203125" lon="-2.37542507238686084747314453125">
        <ele>986.79998779296875</ele>
        <time>2022-04-17T11:09:00.000Z</time>
      </trkpt>
      <trkpt lat="42.97016766853630542755126953125" lon="-2.37543261609971523284912109375">
        <ele>986.79998779296875</ele>
        <time>2022-04-17T11:09:01.000Z</time>
      </trkpt>
      <trkpt lat="42.97016498632729053497314453125" lon="-2.375443093478679656982421875">
        <ele>987</ele>
        <time>2022-04-17T11:09:02.000Z</time>
      </trkpt>
      <trkpt lat="42.9701640643179416656494140625" lon="-2.37545348703861236572265625">
        <ele>986.79998779296875</ele>
        <time>2022-04-17T11:09:03.000Z</time>
      </trkpt>
      <trkpt lat="42.97015777789056301116943359375" lon="-2.37545843236148357391357421875">
        <ele>986.79998779296875</ele>
        <time>2022-04-17T11:09:04.000Z</time>
      </trkpt>
      <trkpt lat="42.97015023417770862579345703125" lon="-2.37545759417116641998291015625">
        <ele>986.5999755859375</ele>
        <time>2022-04-17T11:09:05.000Z</time>
      </trkpt>
      <trkpt lat="42.970145456492900848388671875" lon="-2.37545876763761043548583984375">
        <ele>986.5999755859375</ele>
        <time>2022-04-17T11:09:06.000Z</time>
      </trkpt>
      <trkpt lat="42.97014051117002964019775390625" lon="-2.37545642070472240447998046875">
        <ele>986.79998779296875</ele>
        <time>2022-04-17T11:09:07.000Z</time>
      </trkpt>
      <trkpt lat="42.9701345600187778472900390625" lon="-2.37545139156281948089599609375">
        <ele>987</ele>
        <time>2022-04-17T11:09:08.000Z</time>
      </trkpt>
      <trkpt lat="42.9701295308768749237060546875" lon="-2.37544602714478969573974609375">
        <ele>987</ele>
        <time>2022-04-17T11:09:09.000Z</time>
      </trkpt>
      <trkpt lat="42.97012156806886196136474609375" lon="-2.375436723232269287109375">
        <ele>987.20001220703125</ele>
        <time>2022-04-17T11:09:10.000Z</time>
      </trkpt>
      <trkpt lat="42.97011402435600757598876953125" lon="-2.37542842514812946319580078125">
        <ele>987.4000244140625</ele>
        <time>2022-04-17T11:09:11.000Z</time>
      </trkpt>
      <trkpt lat="42.97010849229991436004638671875" lon="-2.375420294702053070068359375">
        <ele>987.4000244140625</ele>
        <time>2022-04-17T11:09:12.000Z</time>
      </trkpt>
      <trkpt lat="42.97010296024382114410400390625" lon="-2.375414930284023284912109375">
        <ele>987.5999755859375</ele>
        <time>2022-04-17T11:09:13.000Z</time>
      </trkpt>
      <trkpt lat="42.97009818255901336669921875" lon="-2.37541149370372295379638671875">
        <ele>987.79998779296875</ele>
        <time>2022-04-17T11:09:14.000Z</time>
      </trkpt>
      <trkpt lat="42.9700903035700321197509765625" lon="-2.37540914677083492279052734375">
        <ele>987.79998779296875</ele>
        <time>2022-04-17T11:09:15.000Z</time>
      </trkpt>
      <trkpt lat="42.97008418478071689605712890625" lon="-2.3754060454666614532470703125">
        <ele>988</ele>
        <time>2022-04-17T11:09:16.000Z</time>
      </trkpt>
      <trkpt lat="42.9700789041817188262939453125" lon="-2.37539925612509250640869140625">
        <ele>988</ele>
        <time>2022-04-17T11:09:17.000Z</time>
      </trkpt>
      <trkpt lat="42.97006976790726184844970703125" lon="-2.375388108193874359130859375">
        <ele>988</ele>
        <time>2022-04-17T11:09:18.000Z</time>
      </trkpt>
      <trkpt lat="42.97006239183247089385986328125" lon="-2.37538081593811511993408203125">
        <ele>988</ele>
        <time>2022-04-17T11:09:19.000Z</time>
      </trkpt>
      <trkpt lat="42.97005451284348964691162109375" lon="-2.37537059001624584197998046875">
        <ele>988</ele>
        <time>2022-04-17T11:09:20.000Z</time>
      </trkpt>
      <trkpt lat="42.97004411928355693817138671875" lon="-2.375361956655979156494140625">
        <ele>988</ele>
        <time>2022-04-17T11:09:21.000Z</time>
      </trkpt>
      <trkpt lat="42.97003825195133686065673828125" lon="-2.37534619867801666259765625">
        <ele>988.20001220703125</ele>
        <time>2022-04-17T11:09:22.000Z</time>
      </trkpt>
      <trkpt lat="42.97003707848489284515380859375" lon="-2.3753334581851959228515625">
        <ele>988.20001220703125</ele>
        <time>2022-04-17T11:09:23.000Z</time>
      </trkpt>
      <trkpt lat="42.9700373299419879913330078125" lon="-2.3753279261291027069091796875">
        <ele>988.20001220703125</ele>
        <time>2022-04-17T11:09:24.000Z</time>
      </trkpt>
      <trkpt lat="42.9700349830090999603271484375" lon="-2.37532516010105609893798828125">
        <ele>988.20001220703125</ele>
        <time>2022-04-17T11:09:25.000Z</time>
      </trkpt>
      <trkpt lat="42.970032133162021636962890625" lon="-2.3753255791962146759033203125">
        <ele>988.5999755859375</ele>
        <time>2022-04-17T11:09:26.000Z</time>
      </trkpt>
      <trkpt lat="42.9700292833149433135986328125" lon="-2.375324405729770660400390625">
        <ele>988.79998779296875</ele>
        <time>2022-04-17T11:09:27.000Z</time>
      </trkpt>
      <trkpt lat="42.9700219072401523590087890625" lon="-2.37531979568302631378173828125">
        <ele>989</ele>
        <time>2022-04-17T11:09:28.000Z</time>
      </trkpt>
      <trkpt lat="42.97001696191728115081787109375" lon="-2.37531258724629878997802734375">
        <ele>989</ele>
        <time>2022-04-17T11:09:29.000Z</time>
      </trkpt>
      <trkpt lat="42.97001293860375881195068359375" lon="-2.3753093183040618896484375">
        <ele>989.4000244140625</ele>
        <time>2022-04-17T11:09:30.000Z</time>
      </trkpt>
      <trkpt lat="42.9699887149035930633544921875" lon="-2.37532415427267551422119140625">
        <ele>989.4000244140625</ele>
        <time>2022-04-17T11:09:31.000Z</time>
      </trkpt>
      <trkpt lat="42.969980500638484954833984375" lon="-2.3753468692302703857421875">
        <ele>989.5999755859375</ele>
        <time>2022-04-17T11:09:32.000Z</time>
      </trkpt>
      <trkpt lat="42.9699836857616901397705078125" lon="-2.3753802292048931121826171875">
        <ele>989.5999755859375</ele>
        <time>2022-04-17T11:09:33.000Z</time>
      </trkpt>
      <trkpt lat="42.96997974626719951629638671875" lon="-2.37539959140121936798095703125">
        <ele>989.79998779296875</ele>
        <time>2022-04-17T11:09:34.000Z</time>
      </trkpt>
      <trkpt lat="42.9699756391346454620361328125" lon="-2.37540244124829769134521484375">
        <ele>989.79998779296875</ele>
        <time>2022-04-17T11:09:35.000Z</time>
      </trkpt>
      <trkpt lat="42.9699742980301380157470703125" lon="-2.37540344707667827606201171875">
        <ele>990</ele>
        <time>2022-04-17T11:09:36.000Z</time>
      </trkpt>
      <trkpt lat="42.96997522003948688507080078125" lon="-2.3754050396382808685302734375">
        <ele>990</ele>
        <time>2022-04-17T11:09:37.000Z</time>
      </trkpt>
      <trkpt lat="42.9699706099927425384521484375" lon="-2.37540110014379024505615234375">
        <ele>990</ele>
        <time>2022-04-17T11:09:38.000Z</time>
      </trkpt>
      <trkpt lat="42.969969771802425384521484375" lon="-2.37540126778185367584228515625">
        <ele>990</ele>
        <time>2022-04-17T11:09:39.000Z</time>
      </trkpt>
      <trkpt lat="42.96996382065117359161376953125" lon="-2.37539850175380706787109375">
        <ele>989.79998779296875</ele>
        <time>2022-04-17T11:09:40.000Z</time>
      </trkpt>
      <trkpt lat="42.96995795331895351409912109375" lon="-2.3753963224589824676513671875">
        <ele>989.79998779296875</ele>
        <time>2022-04-17T11:09:41.000Z</time>
      </trkpt>
      <trkpt lat="42.9699553549289703369140625" lon="-2.37539556808769702911376953125">
        <ele>989.79998779296875</ele>
        <time>2022-04-17T11:09:42.000Z</time>
      </trkpt>
      <trkpt lat="42.9699541814625263214111328125" lon="-2.37540118396282196044921875">
        <ele>989.79998779296875</ele>
        <time>2022-04-17T11:09:43.000Z</time>
      </trkpt>
      <trkpt lat="42.969954013824462890625" lon="-2.37540529109537601470947265625">
        <ele>989.5999755859375</ele>
        <time>2022-04-17T11:09:44.000Z</time>
      </trkpt>
      <trkpt lat="42.96995175071060657501220703125" lon="-2.3754077218472957611083984375">
        <ele>989.5999755859375</ele>
        <time>2022-04-17T11:09:45.000Z</time>
      </trkpt>
      <trkpt lat="42.96994973905384540557861328125" lon="-2.37540981732308864593505859375">
        <ele>989.5999755859375</ele>
        <time>2022-04-17T11:09:46.000Z</time>
      </trkpt>
      <trkpt lat="42.96994320116937160491943359375" lon="-2.3754124157130718231201171875">
        <ele>989.5999755859375</ele>
        <time>2022-04-17T11:09:47.000Z</time>
      </trkpt>
      <trkpt lat="42.96994395554065704345703125" lon="-2.37541803158819675445556640625">
        <ele>989.5999755859375</ele>
        <time>2022-04-17T11:09:48.000Z</time>
      </trkpt>
      <trkpt lat="42.9699444584548473358154296875" lon="-2.37541954033076763153076171875">
        <ele>989.5999755859375</ele>
        <time>2022-04-17T11:09:49.000Z</time>
      </trkpt>
      <trkpt lat="42.96993683092296123504638671875" lon="-2.375420629978179931640625">
        <ele>989.79998779296875</ele>
        <time>2022-04-17T11:09:50.000Z</time>
      </trkpt>
      <trkpt lat="42.9699256829917430877685546875" lon="-2.3754258267581462860107421875">
        <ele>989.79998779296875</ele>
        <time>2022-04-17T11:09:51.000Z</time>
      </trkpt>
      <trkpt lat="42.969912104308605194091796875" lon="-2.37543831579387187957763671875">
        <ele>989.79998779296875</ele>
        <time>2022-04-17T11:09:52.000Z</time>
      </trkpt>
      <trkpt lat="42.9699042253196239471435546875" lon="-2.37544812262058258056640625">
        <ele>990</ele>
        <time>2022-04-17T11:09:53.000Z</time>
      </trkpt>
      <trkpt lat="42.9698971845209598541259765625" lon="-2.37545675598084926605224609375">
        <ele>990.20001220703125</ele>
        <time>2022-04-17T11:09:54.000Z</time>
      </trkpt>
      <trkpt lat="42.96989165246486663818359375" lon="-2.3754633776843547821044921875">
        <ele>990.20001220703125</ele>
        <time>2022-04-17T11:09:55.000Z</time>
      </trkpt>
      <trkpt lat="42.969888634979724884033203125" lon="-2.37546823918819427490234375">
        <ele>990.20001220703125</ele>
        <time>2022-04-17T11:09:56.000Z</time>
      </trkpt>
      <trkpt lat="42.96988687478005886077880859375" lon="-2.3754702508449554443359375">
        <ele>990.4000244140625</ele>
        <time>2022-04-17T11:09:57.000Z</time>
      </trkpt>
      <trkpt lat="42.96988570131361484527587890625" lon="-2.37546932883560657501220703125">
        <ele>990.4000244140625</ele>
        <time>2022-04-17T11:09:58.000Z</time>
      </trkpt>
      <trkpt lat="42.96988494694232940673828125" lon="-2.37546983174979686737060546875">
        <ele>990.4000244140625</ele>
        <time>2022-04-17T11:09:59.000Z</time>
      </trkpt>
      <trkpt lat="42.9698834381997585296630859375" lon="-2.375469915568828582763671875">
        <ele>990.4000244140625</ele>
        <time>2022-04-17T11:10:00.000Z</time>
      </trkpt>
      <trkpt lat="42.96987916342914104461669921875" lon="-2.375471927225589752197265625">
        <ele>990.4000244140625</ele>
        <time>2022-04-17T11:10:01.000Z</time>
      </trkpt>
      <trkpt lat="42.9698777385056018829345703125" lon="-2.3754727654159069061279296875">
        <ele>990.4000244140625</ele>
        <time>2022-04-17T11:10:02.000Z</time>
      </trkpt>
      <trkpt lat="42.96987581066787242889404296875" lon="-2.37547360360622406005859375">
        <ele>990.4000244140625</ele>
        <time>2022-04-17T11:10:03.000Z</time>
      </trkpt>
      <trkpt lat="42.96987296082079410552978515625" lon="-2.3754756152629852294921875">
        <ele>990.20001220703125</ele>
        <time>2022-04-17T11:10:04.000Z</time>
      </trkpt>
      <trkpt lat="42.96986742876470088958740234375" lon="-2.37547762691974639892578125">
        <ele>990</ele>
        <time>2022-04-17T11:10:05.000Z</time>
      </trkpt>
      <trkpt lat="42.9698653332889080047607421875" lon="-2.3754784651100635528564453125">
        <ele>990</ele>
        <time>2022-04-17T11:10:06.000Z</time>
      </trkpt>
      <trkpt lat="42.96986558474600315093994140625" lon="-2.37547762691974639892578125">
        <ele>989.79998779296875</ele>
        <time>2022-04-17T11:10:07.000Z</time>
      </trkpt>
      <trkpt lat="42.96986809931695461273193359375" lon="-2.3754756152629852294921875">
        <ele>989.79998779296875</ele>
        <time>2022-04-17T11:10:08.000Z</time>
      </trkpt>
      <trkpt lat="42.96987111680209636688232421875" lon="-2.3754771240055561065673828125">
        <ele>989.79998779296875</ele>
        <time>2022-04-17T11:10:09.000Z</time>
      </trkpt>
      <trkpt lat="42.96987832523882389068603515625" lon="-2.3754702508449554443359375">
        <ele>990</ele>
        <time>2022-04-17T11:10:10.000Z</time>
      </trkpt>
      <trkpt lat="42.9698882997035980224609375" lon="-2.37546329386532306671142578125">
        <ele>990.20001220703125</ele>
        <time>2022-04-17T11:10:11.000Z</time>
      </trkpt>
      <trkpt lat="42.96988938935101032257080078125" lon="-2.37546161748468875885009765625">
        <ele>990.4000244140625</ele>
        <time>2022-04-17T11:10:12.000Z</time>
      </trkpt>
      <trkpt lat="42.96989005990326404571533203125" lon="-2.37545960582792758941650390625">
        <ele>990.4000244140625</ele>
        <time>2022-04-17T11:10:13.000Z</time>
      </trkpt>
      <trkpt lat="42.9698909819126129150390625" lon="-2.37545591779053211212158203125">
        <ele>990.4000244140625</ele>
        <time>2022-04-17T11:10:14.000Z</time>
      </trkpt>
      <trkpt lat="42.9698909819126129150390625" lon="-2.37545591779053211212158203125">
        <ele>990.4000244140625</ele>
        <time>2022-04-17T11:10:15.000Z</time>
      </trkpt>
      <trkpt lat="42.9698909819126129150390625" lon="-2.37545591779053211212158203125">
        <ele>990.4000244140625</ele>
        <time>2022-04-17T11:10:16.000Z</time>
      </trkpt>
      <trkpt lat="42.9698909819126129150390625" lon="-2.37545591779053211212158203125">
        <ele>990.4000244140625</ele>
        <time>2022-04-17T11:10:17.000Z</time>
      </trkpt>
      <trkpt lat="42.9698909819126129150390625" lon="-2.37545591779053211212158203125">
        <ele>990.5999755859375</ele>
        <time>2022-04-17T11:10:18.000Z</time>
      </trkpt>
      <trkpt lat="42.9698909819126129150390625" lon="-2.37545591779053211212158203125">
        <ele>990.5999755859375</ele>
        <time>2022-04-17T11:10:19.000Z</time>
      </trkpt>
      <trkpt lat="42.9698909819126129150390625" lon="-2.37545591779053211212158203125">
        <ele>990.5999755859375</ele>
        <time>2022-04-17T11:10:20.000Z</time>
      </trkpt>
      <trkpt lat="42.9698909819126129150390625" lon="-2.37545591779053211212158203125">
        <ele>990.5999755859375</ele>
        <time>2022-04-17T11:10:21.000Z</time>
      </trkpt>
      <trkpt lat="42.9698909819126129150390625" lon="-2.37545591779053211212158203125">
        <ele>990.4000244140625</ele>
        <time>2022-04-17T11:10:22.000Z</time>
      </trkpt>
      <trkpt lat="42.9698909819126129150390625" lon="-2.37545591779053211212158203125">
        <ele>990.20001220703125</ele>
        <time>2022-04-17T11:10:23.000Z</time>
      </trkpt>
      <trkpt lat="42.9698909819126129150390625" lon="-2.37545591779053211212158203125">
        <ele>990.20001220703125</ele>
        <time>2022-04-17T11:10:24.000Z</time>
      </trkpt>
      <trkpt lat="42.9698909819126129150390625" lon="-2.37545591779053211212158203125">
        <ele>990</ele>
        <time>2022-04-17T11:10:25.000Z</time>
      </trkpt>
      <trkpt lat="42.9698909819126129150390625" lon="-2.37545591779053211212158203125">
        <ele>990</ele>
        <time>2022-04-17T11:10:26.000Z</time>
      </trkpt>
      <trkpt lat="42.9698909819126129150390625" lon="-2.37545591779053211212158203125">
        <ele>990</ele>
        <time>2022-04-17T11:10:27.000Z</time>
      </trkpt>
      <trkpt lat="42.9698909819126129150390625" lon="-2.37545591779053211212158203125">
        <ele>990</ele>
        <time>2022-04-17T11:10:28.000Z</time>
      </trkpt>
      <trkpt lat="42.9698908142745494842529296875" lon="-2.37545591779053211212158203125">
        <ele>989.5999755859375</ele>
        <time>2022-04-17T11:10:29.000Z</time>
      </trkpt>
      <trkpt lat="42.96989005990326404571533203125" lon="-2.37545491196215152740478515625">
        <ele>989.5999755859375</ele>
        <time>2022-04-17T11:10:30.000Z</time>
      </trkpt>
      <trkpt lat="42.9698894731700420379638671875" lon="-2.3754543252289295196533203125">
        <ele>989.5999755859375</ele>
        <time>2022-04-17T11:10:31.000Z</time>
      </trkpt>
      <trkpt lat="42.96988838352262973785400390625" lon="-2.375453151762485504150390625">
        <ele>989.5999755859375</ele>
        <time>2022-04-17T11:10:32.000Z</time>
      </trkpt>
      <trkpt lat="42.96988570131361484527587890625" lon="-2.37545256502926349639892578125">
        <ele>989.5999755859375</ele>
        <time>2022-04-17T11:10:33.000Z</time>
      </trkpt>
      <trkpt lat="42.9698829352855682373046875" lon="-2.37544971518218517303466796875">
        <ele>989.5999755859375</ele>
        <time>2022-04-17T11:10:34.000Z</time>
      </trkpt>
      <trkpt lat="42.96988050453364849090576171875" lon="-2.3754489608108997344970703125">
        <ele>989.5999755859375</ele>
        <time>2022-04-17T11:10:35.000Z</time>
      </trkpt>
      <trkpt lat="42.96988033689558506011962890625" lon="-2.37544870935380458831787109375">
        <ele>989.5999755859375</ele>
        <time>2022-04-17T11:10:36.000Z</time>
      </trkpt>
      <trkpt lat="42.9698802530765533447265625" lon="-2.375447787344455718994140625">
        <ele>989.5999755859375</ele>
        <time>2022-04-17T11:10:37.000Z</time>
      </trkpt>
      <trkpt lat="42.9698802530765533447265625" lon="-2.3754472844302654266357421875">
        <ele>989.5999755859375</ele>
        <time>2022-04-17T11:10:38.000Z</time>
      </trkpt>
      <trkpt lat="42.9698802530765533447265625" lon="-2.37544636242091655731201171875">
        <ele>989.5999755859375</ele>
        <time>2022-04-17T11:10:39.000Z</time>
      </trkpt>
      <trkpt lat="42.9698802530765533447265625" lon="-2.3754429258406162261962890625">
        <ele>989.5999755859375</ele>
        <time>2022-04-17T11:10:40.000Z</time>
      </trkpt>
      <trkpt lat="42.9698774032294750213623046875" lon="-2.375439070165157318115234375">
        <ele>989.5999755859375</ele>
        <time>2022-04-17T11:10:41.000Z</time>
      </trkpt>
      <trkpt lat="42.96987379901111125946044921875" lon="-2.37543831579387187957763671875">
        <ele>989.5999755859375</ele>
        <time>2022-04-17T11:10:42.000Z</time>
      </trkpt>
      <trkpt lat="42.96986592002213001251220703125" lon="-2.37543596886098384857177734375">
        <ele>989.5999755859375</ele>
        <time>2022-04-17T11:10:43.000Z</time>
      </trkpt>
      <trkpt lat="42.9698549397289752960205078125" lon="-2.375435046851634979248046875">
        <ele>989.5999755859375</ele>
        <time>2022-04-17T11:10:44.000Z</time>
      </trkpt>
      <trkpt lat="42.9698391817510128021240234375" lon="-2.37543446011841297149658203125">
        <ele>989.5999755859375</ele>
        <time>2022-04-17T11:10:45.000Z</time>
      </trkpt>
      <trkpt lat="42.96982937492430210113525390625" lon="-2.3754342086613178253173828125">
        <ele>989.5999755859375</ele>
        <time>2022-04-17T11:10:46.000Z</time>
      </trkpt>
      <trkpt lat="42.96982736326754093170166015625" lon="-2.375433705747127532958984375">
        <ele>989.5999755859375</ele>
        <time>2022-04-17T11:10:47.000Z</time>
      </trkpt>
      <trkpt lat="42.96982384286820888519287109375" lon="-2.3754275031387805938720703125">
        <ele>989.5999755859375</ele>
        <time>2022-04-17T11:10:48.000Z</time>
      </trkpt>
      <trkpt lat="42.96980984508991241455078125" lon="-2.37541048787534236907958984375">
        <ele>989.5999755859375</ele>
        <time>2022-04-17T11:10:49.000Z</time>
      </trkpt>
      <trkpt lat="42.9697997868061065673828125" lon="-2.3753889463841915130615234375">
        <ele>989.5999755859375</ele>
        <time>2022-04-17T11:10:50.000Z</time>
      </trkpt>
      <trkpt lat="42.96979106962680816650390625" lon="-2.37537276931107044219970703125">
        <ele>989.5999755859375</ele>
        <time>2022-04-17T11:10:51.000Z</time>
      </trkpt>
      <trkpt lat="42.96978092752397060394287109375" lon="-2.37535567022860050201416015625">
        <ele>989.5999755859375</ele>
        <time>2022-04-17T11:10:52.000Z</time>
      </trkpt>
      <trkpt lat="42.96976919285953044891357421875" lon="-2.37534728832542896270751953125">
        <ele>989.5999755859375</ele>
        <time>2022-04-17T11:10:53.000Z</time>
      </trkpt>
      <trkpt lat="42.969758547842502593994140625" lon="-2.37533949315547943115234375">
        <ele>989.5999755859375</ele>
        <time>2022-04-17T11:10:54.000Z</time>
      </trkpt>
      <trkpt lat="42.9697506688535213470458984375" lon="-2.3753254115581512451171875">
        <ele>989.79998779296875</ele>
        <time>2022-04-17T11:10:55.000Z</time>
      </trkpt>
      <trkpt lat="42.9697456397116184234619140625" lon="-2.37531074322760105133056640625">
        <ele>990.20001220703125</ele>
        <time>2022-04-17T11:10:56.000Z</time>
      </trkpt>
      <trkpt lat="42.969740442931652069091796875" lon="-2.375300265848636627197265625">
        <ele>990.4000244140625</ele>
        <time>2022-04-17T11:10:57.000Z</time>
      </trkpt>
      <trkpt lat="42.969737090170383453369140625" lon="-2.37529632635414600372314453125">
        <ele>990.5999755859375</ele>
        <time>2022-04-17T11:10:58.000Z</time>
      </trkpt>
      <trkpt lat="42.9697315581142902374267578125" lon="-2.37529532052576541900634765625">
        <ele>990.5999755859375</ele>
        <time>2022-04-17T11:10:59.000Z</time>
      </trkpt>
      <trkpt lat="42.96972108073532581329345703125" lon="-2.3752940632402896881103515625">
        <ele>990.79998779296875</ele>
        <time>2022-04-17T11:11:00.000Z</time>
      </trkpt>
      <trkpt lat="42.96971035189926624298095703125" lon="-2.37528727389872074127197265625">
        <ele>990.79998779296875</ele>
        <time>2022-04-17T11:11:01.000Z</time>
      </trkpt>
      <trkpt lat="42.96970431692898273468017578125" lon="-2.375280149281024932861328125">
        <ele>990.79998779296875</ele>
        <time>2022-04-17T11:11:02.000Z</time>
      </trkpt>
      <trkpt lat="42.9697017185389995574951171875" lon="-2.3752709291875362396240234375">
        <ele>990.79998779296875</ele>
        <time>2022-04-17T11:11:03.000Z</time>
      </trkpt>
      <trkpt lat="42.96969442628324031829833984375" lon="-2.3752664029598236083984375">
        <ele>990.79998779296875</ele>
        <time>2022-04-17T11:11:04.000Z</time>
      </trkpt>
      <trkpt lat="42.969685457646846771240234375" lon="-2.37526061944663524627685546875">
        <ele>990.5999755859375</ele>
        <time>2022-04-17T11:11:05.000Z</time>
      </trkpt>
      <trkpt lat="42.96968218870460987091064453125" lon="-2.3752503097057342529296875">
        <ele>990.5999755859375</ele>
        <time>2022-04-17T11:11:06.000Z</time>
      </trkpt>
      <trkpt lat="42.9696789197623729705810546875" lon="-2.3752390779554843902587890625">
        <ele>990.4000244140625</ele>
        <time>2022-04-17T11:11:07.000Z</time>
      </trkpt>
      <trkpt lat="42.9696822725236415863037109375" lon="-2.37523161806166172027587890625">
        <ele>990.4000244140625</ele>
        <time>2022-04-17T11:11:08.000Z</time>
      </trkpt>
      <trkpt lat="42.96968839131295680999755859375" lon="-2.37522960640490055084228515625">
        <ele>990.4000244140625</ele>
        <time>2022-04-17T11:11:09.000Z</time>
      </trkpt>
      <trkpt lat="42.969683445990085601806640625" lon="-2.37522290088236331939697265625">
        <ele>990.4000244140625</ele>
        <time>2022-04-17T11:11:10.000Z</time>
      </trkpt>
      <trkpt lat="42.9696718789637088775634765625" lon="-2.3752213083207607269287109375">
        <ele>990.20001220703125</ele>
        <time>2022-04-17T11:11:11.000Z</time>
      </trkpt>
      <trkpt lat="42.96965561807155609130859375" lon="-2.37521803937852382659912109375">
        <ele>990.20001220703125</ele>
        <time>2022-04-17T11:11:12.000Z</time>
      </trkpt>
      <trkpt lat="42.9696415364742279052734375" lon="-2.37520982511341571807861328125">
        <ele>990.20001220703125</ele>
        <time>2022-04-17T11:11:13.000Z</time>
      </trkpt>
      <trkpt lat="42.969637848436832427978515625" lon="-2.3751998506486415863037109375">
        <ele>990.20001220703125</ele>
        <time>2022-04-17T11:11:14.000Z</time>
      </trkpt>
      <trkpt lat="42.96963508240878582000732421875" lon="-2.3751938156783580780029296875">
        <ele>990.20001220703125</ele>
        <time>2022-04-17T11:11:15.000Z</time>
      </trkpt>
      <trkpt lat="42.96963122673332691192626953125" lon="-2.3751894570887088775634765625">
        <ele>990.4000244140625</ele>
        <time>2022-04-17T11:11:16.000Z</time>
      </trkpt>
      <trkpt lat="42.96962477266788482666015625" lon="-2.37519138492643833160400390625">
        <ele>990.4000244140625</ele>
        <time>2022-04-17T11:11:17.000Z</time>
      </trkpt>
      <trkpt lat="42.9696147143840789794921875" lon="-2.37519959919154644012451171875">
        <ele>990.4000244140625</ele>
        <time>2022-04-17T11:11:18.000Z</time>
      </trkpt>
      <trkpt lat="42.969605661928653717041015625" lon="-2.3752021975815296173095703125">
        <ele>990.4000244140625</ele>
        <time>2022-04-17T11:11:19.000Z</time>
      </trkpt>
      <trkpt lat="42.969595603644847869873046875" lon="-2.37520001828670501708984375">
        <ele>990.4000244140625</ele>
        <time>2022-04-17T11:11:20.000Z</time>
      </trkpt>
      <trkpt lat="42.9695852100849151611328125" lon="-2.375192977488040924072265625">
        <ele>990.4000244140625</ele>
        <time>2022-04-17T11:11:21.000Z</time>
      </trkpt>
      <trkpt lat="42.96957137994468212127685546875" lon="-2.37518635578453540802001953125">
        <ele>990.4000244140625</ele>
        <time>2022-04-17T11:11:22.000Z</time>
      </trkpt>
      <trkpt lat="42.9695632494986057281494140625" lon="-2.37518568523228168487548828125">
        <ele>990.4000244140625</ele>
        <time>2022-04-17T11:11:23.000Z</time>
      </trkpt>
      <trkpt lat="42.96955771744251251220703125" lon="-2.3751832544803619384765625">
        <ele>990.4000244140625</ele>
        <time>2022-04-17T11:11:24.000Z</time>
      </trkpt>
      <trkpt lat="42.9695528559386730194091796875" lon="-2.37517629750072956085205078125">
        <ele>990.4000244140625</ele>
        <time>2022-04-17T11:11:25.000Z</time>
      </trkpt>
      <trkpt lat="42.96954690478742122650146484375" lon="-2.3751757107675075531005859375">
        <ele>990.4000244140625</ele>
        <time>2022-04-17T11:11:26.000Z</time>
      </trkpt>
      <trkpt lat="42.9695387743413448333740234375" lon="-2.37517612986266613006591796875">
        <ele>990.4000244140625</ele>
        <time>2022-04-17T11:11:27.000Z</time>
      </trkpt>
      <trkpt lat="42.9695307277143001556396484375" lon="-2.37517814151942729949951171875">
        <ele>990.4000244140625</ele>
        <time>2022-04-17T11:11:28.000Z</time>
      </trkpt>
      <trkpt lat="42.96952108852565288543701171875" lon="-2.3751753754913806915283203125">
        <ele>990.5999755859375</ele>
        <time>2022-04-17T11:11:29.000Z</time>
      </trkpt>
      <trkpt lat="42.96950851567089557647705078125" lon="-2.37516925670206546783447265625">
        <ele>990.79998779296875</ele>
        <time>2022-04-17T11:11:30.000Z</time>
      </trkpt>
      <trkpt lat="42.969502396881580352783203125" lon="-2.37516121007502079010009765625">
        <ele>991</ele>
        <time>2022-04-17T11:11:31.000Z</time>
      </trkpt>
      <trkpt lat="42.969499714672565460205078125" lon="-2.37515601329505443572998046875">
        <ele>991</ele>
        <time>2022-04-17T11:11:32.000Z</time>
      </trkpt>
      <trkpt lat="42.96949393115937709808349609375" lon="-2.37514964304864406585693359375">
        <ele>991.20001220703125</ele>
        <time>2022-04-17T11:11:33.000Z</time>
      </trkpt>
      <trkpt lat="42.96948261559009552001953125" lon="-2.37514126114547252655029296875">
        <ele>991.20001220703125</ele>
        <time>2022-04-17T11:11:34.000Z</time>
      </trkpt>
      <trkpt lat="42.96947331167757511138916015625" lon="-2.37513522617518901824951171875">
        <ele>991.4000244140625</ele>
        <time>2022-04-17T11:11:35.000Z</time>
      </trkpt>
      <trkpt lat="42.96945847570896148681640625" lon="-2.3751291073858737945556640625">
        <ele>991.4000244140625</ele>
        <time>2022-04-17T11:11:36.000Z</time>
      </trkpt>
      <trkpt lat="42.96944514848291873931884765625" lon="-2.37512466497719287872314453125">
        <ele>991.5999755859375</ele>
        <time>2022-04-17T11:11:37.000Z</time>
      </trkpt>
      <trkpt lat="42.96943291090428829193115234375" lon="-2.3751200549304485321044921875">
        <ele>991.79998779296875</ele>
        <time>2022-04-17T11:11:38.000Z</time>
      </trkpt>
      <trkpt lat="42.9694237746298313140869140625" lon="-2.3751183785498142242431640625">
        <ele>991.79998779296875</ele>
        <time>2022-04-17T11:11:39.000Z</time>
      </trkpt>
      <trkpt lat="42.9694187454879283905029296875" lon="-2.3751150257885456085205078125">
        <ele>992</ele>
        <time>2022-04-17T11:11:40.000Z</time>
      </trkpt>
      <trkpt lat="42.9694130457937717437744140625" lon="-2.37510672770440578460693359375">
        <ele>992.4000244140625</ele>
        <time>2022-04-17T11:11:41.000Z</time>
      </trkpt>
      <trkpt lat="42.9694080166518688201904296875" lon="-2.3751026205718517303466796875">
        <ele>992.5999755859375</ele>
        <time>2022-04-17T11:11:42.000Z</time>
      </trkpt>
      <trkpt lat="42.9694019816815853118896484375" lon="-2.37509541213512420654296875">
        <ele>992.79998779296875</ele>
        <time>2022-04-17T11:11:43.000Z</time>
      </trkpt>
      <trkpt lat="42.96939452178776264190673828125" lon="-2.3750865273177623748779296875">
        <ele>992.79998779296875</ele>
        <time>2022-04-17T11:11:44.000Z</time>
      </trkpt>
      <trkpt lat="42.96938731335103511810302734375" lon="-2.37507336772978305816650390625">
        <ele>993</ele>
        <time>2022-04-17T11:11:45.000Z</time>
      </trkpt>
      <trkpt lat="42.9693795181810855865478515625" lon="-2.37506213597953319549560546875">
        <ele>993</ele>
        <time>2022-04-17T11:11:46.000Z</time>
      </trkpt>
      <trkpt lat="42.96937465667724609375" lon="-2.37504906021058559417724609375">
        <ele>993.20001220703125</ele>
        <time>2022-04-17T11:11:47.000Z</time>
      </trkpt>
      <trkpt lat="42.96937155537307262420654296875" lon="-2.37503430806100368499755859375">
        <ele>993.4000244140625</ele>
        <time>2022-04-17T11:11:48.000Z</time>
      </trkpt>
      <trkpt lat="42.9693714715540409088134765625" lon="-2.3750255070626735687255859375">
        <ele>993.5999755859375</ele>
        <time>2022-04-17T11:11:49.000Z</time>
      </trkpt>
      <trkpt lat="42.96937406994402408599853515625" lon="-2.37502005882561206817626953125">
        <ele>993.79998779296875</ele>
        <time>2022-04-17T11:11:50.000Z</time>
      </trkpt>
      <trkpt lat="42.96937524341046810150146484375" lon="-2.3750169575214385986328125">
        <ele>994</ele>
        <time>2022-04-17T11:11:51.000Z</time>
      </trkpt>
      <trkpt lat="42.96937465667724609375" lon="-2.37501720897853374481201171875">
        <ele>994</ele>
        <time>2022-04-17T11:11:52.000Z</time>
      </trkpt>
      <trkpt lat="42.96937390230596065521240234375" lon="-2.375017963349819183349609375">
        <ele>994.20001220703125</ele>
        <time>2022-04-17T11:11:53.000Z</time>
      </trkpt>
      <trkpt lat="42.969366610050201416015625" lon="-2.37500698305666446685791015625">
        <ele>994.20001220703125</ele>
        <time>2022-04-17T11:11:54.000Z</time>
      </trkpt>
      <trkpt lat="42.96935831196606159210205078125" lon="-2.37499524839222431182861328125">
        <ele>994.4000244140625</ele>
        <time>2022-04-17T11:11:55.000Z</time>
      </trkpt>
      <trkpt lat="42.96934708021581172943115234375" lon="-2.3749856092035770416259765625">
        <ele>994.5999755859375</ele>
        <time>2022-04-17T11:11:56.000Z</time>
      </trkpt>
      <trkpt lat="42.969336770474910736083984375" lon="-2.37497739493846893310546875">
        <ele>994.79998779296875</ele>
        <time>2022-04-17T11:11:57.000Z</time>
      </trkpt>
      <trkpt lat="42.969329059123992919921875" lon="-2.37497027032077312469482421875">
        <ele>995</ele>
        <time>2022-04-17T11:11:58.000Z</time>
      </trkpt>
      <trkpt lat="42.96932595781981945037841796875" lon="-2.37496255896985530853271484375">
        <ele>995</ele>
        <time>2022-04-17T11:11:59.000Z</time>
      </trkpt>
      <trkpt lat="42.96931958757340908050537109375" lon="-2.37495702691376209259033203125">
        <ele>995.20001220703125</ele>
        <time>2022-04-17T11:12:00.000Z</time>
      </trkpt>
      <trkpt lat="42.96931229531764984130859375" lon="-2.374952919781208038330078125">
        <ele>995.4000244140625</ele>
        <time>2022-04-17T11:12:01.000Z</time>
      </trkpt>
      <trkpt lat="42.96930852346122264862060546875" lon="-2.3749487288296222686767578125">
        <ele>995.5999755859375</ele>
        <time>2022-04-17T11:12:02.000Z</time>
      </trkpt>
      <trkpt lat="42.9693070985376834869384765625" lon="-2.37494378350675106048583984375">
        <ele>996</ele>
        <time>2022-04-17T11:12:03.000Z</time>
      </trkpt>
      <trkpt lat="42.96930290758609771728515625" lon="-2.37493825145065784454345703125">
        <ele>996.20001220703125</ele>
        <time>2022-04-17T11:12:04.000Z</time>
      </trkpt>
      <trkpt lat="42.96929997391998767852783203125" lon="-2.37492911517620086669921875">
        <ele>996.4000244140625</ele>
        <time>2022-04-17T11:12:05.000Z</time>
      </trkpt>
      <trkpt lat="42.969297207891941070556640625" lon="-2.37491847015917301177978515625">
        <ele>996.4000244140625</ele>
        <time>2022-04-17T11:12:06.000Z</time>
      </trkpt>
      <trkpt lat="42.969293855130672454833984375" lon="-2.37491008825600147247314453125">
        <ele>996.4000244140625</ele>
        <time>2022-04-17T11:12:07.000Z</time>
      </trkpt>
      <trkpt lat="42.9692946933209896087646484375" lon="-2.3749021254479885101318359375">
        <ele>996.4000244140625</ele>
        <time>2022-04-17T11:12:08.000Z</time>
      </trkpt>
      <trkpt lat="42.96929796226322650909423828125" lon="-2.37489902414381504058837890625">
        <ele>996.4000244140625</ele>
        <time>2022-04-17T11:12:09.000Z</time>
      </trkpt>
      <trkpt lat="42.9693027399480342864990234375" lon="-2.37489801831543445587158203125">
        <ele>996.4000244140625</ele>
        <time>2022-04-17T11:12:10.000Z</time>
      </trkpt>
      <trkpt lat="42.969307601451873779296875" lon="-2.3748984374105930328369140625">
        <ele>996.4000244140625</ele>
        <time>2022-04-17T11:12:11.000Z</time>
      </trkpt>
      <trkpt lat="42.96931556425988674163818359375" lon="-2.37489868886768817901611328125">
        <ele>996.4000244140625</ele>
        <time>2022-04-17T11:12:12.000Z</time>
      </trkpt>
      <trkpt lat="42.96931724064052104949951171875" lon="-2.37489424645900726318359375">
        <ele>996.4000244140625</ele>
        <time>2022-04-17T11:12:13.000Z</time>
      </trkpt>
      <trkpt lat="42.96931925229728221893310546875" lon="-2.3748882114887237548828125">
        <ele>996.4000244140625</ele>
        <time>2022-04-17T11:12:14.000Z</time>
      </trkpt>
      <trkpt lat="42.96931791119277477264404296875" lon="-2.3748863674700260162353515625">
        <ele>996.4000244140625</ele>
        <time>2022-04-17T11:12:15.000Z</time>
      </trkpt>
      <trkpt lat="42.96931497752666473388671875" lon="-2.37487823702394962310791015625">
        <ele>996.4000244140625</ele>
        <time>2022-04-17T11:12:16.000Z</time>
      </trkpt>
      <trkpt lat="42.969314642250537872314453125" lon="-2.3748685978353023529052734375">
        <ele>996.4000244140625</ele>
        <time>2022-04-17T11:12:17.000Z</time>
      </trkpt>
      <trkpt lat="42.9693143069744110107421875" lon="-2.37486130557954311370849609375">
        <ele>996.4000244140625</ele>
        <time>2022-04-17T11:12:18.000Z</time>
      </trkpt>
      <trkpt lat="42.969315312802791595458984375" lon="-2.3748565278947353363037109375">
        <ele>996.4000244140625</ele>
        <time>2022-04-17T11:12:19.000Z</time>
      </trkpt>
      <trkpt lat="42.969315312802791595458984375" lon="-2.3748565278947353363037109375">
        <ele>996.4000244140625</ele>
        <time>2022-04-17T11:12:20.000Z</time>
      </trkpt>
      <trkpt lat="42.969315312802791595458984375" lon="-2.3748565278947353363037109375">
        <ele>996.4000244140625</ele>
        <time>2022-04-17T11:12:21.000Z</time>
      </trkpt>
      <trkpt lat="42.969315312802791595458984375" lon="-2.3748565278947353363037109375">
        <ele>996.4000244140625</ele>
        <time>2022-04-17T11:12:22.000Z</time>
      </trkpt>
      <trkpt lat="42.969315312802791595458984375" lon="-2.3748565278947353363037109375">
        <ele>996.4000244140625</ele>
        <time>2022-04-17T11:12:23.000Z</time>
      </trkpt>
      <trkpt lat="42.969315312802791595458984375" lon="-2.3748565278947353363037109375">
        <ele>996.4000244140625</ele>
        <time>2022-04-17T11:12:24.000Z</time>
      </trkpt>
      <trkpt lat="42.969315312802791595458984375" lon="-2.3748565278947353363037109375">
        <ele>996.4000244140625</ele>
        <time>2022-04-17T11:12:25.000Z</time>
      </trkpt>
      <trkpt lat="42.969315312802791595458984375" lon="-2.3748565278947353363037109375">
        <ele>996.4000244140625</ele>
        <time>2022-04-17T11:12:26.000Z</time>
      </trkpt>
      <trkpt lat="42.969315312802791595458984375" lon="-2.3748565278947353363037109375">
        <ele>996.5999755859375</ele>
        <time>2022-04-17T11:12:27.000Z</time>
      </trkpt>
      <trkpt lat="42.969315312802791595458984375" lon="-2.3748565278947353363037109375">
        <ele>996.5999755859375</ele>
        <time>2022-04-17T11:12:28.000Z</time>
      </trkpt>
      <trkpt lat="42.969315312802791595458984375" lon="-2.3748565278947353363037109375">
        <ele>996.5999755859375</ele>
        <time>2022-04-17T11:12:29.000Z</time>
      </trkpt>
      <trkpt lat="42.969315312802791595458984375" lon="-2.3748565278947353363037109375">
        <ele>996.5999755859375</ele>
        <time>2022-04-17T11:12:30.000Z</time>
      </trkpt>
      <trkpt lat="42.9693154804408550262451171875" lon="-2.3748565278947353363037109375">
        <ele>996.5999755859375</ele>
        <time>2022-04-17T11:12:31.000Z</time>
      </trkpt>
      <trkpt lat="42.9693171568214893341064453125" lon="-2.3748565278947353363037109375">
        <ele>996.79998779296875</ele>
        <time>2022-04-17T11:12:32.000Z</time>
      </trkpt>
      <trkpt lat="42.9693174920976161956787109375" lon="-2.3748565278947353363037109375">
        <ele>996.79998779296875</ele>
        <time>2022-04-17T11:12:33.000Z</time>
      </trkpt>
      <trkpt lat="42.96931791119277477264404296875" lon="-2.3748565278947353363037109375">
        <ele>996.79998779296875</ele>
        <time>2022-04-17T11:12:34.000Z</time>
      </trkpt>
      <trkpt lat="42.96931908465921878814697265625" lon="-2.3748565278947353363037109375">
        <ele>996.5999755859375</ele>
        <time>2022-04-17T11:12:35.000Z</time>
      </trkpt>
      <trkpt lat="42.9693195037543773651123046875" lon="-2.37485610879957675933837890625">
        <ele>996.5999755859375</ele>
        <time>2022-04-17T11:12:36.000Z</time>
      </trkpt>
      <trkpt lat="42.96932495199143886566162109375" lon="-2.37485493533313274383544921875">
        <ele>996.5999755859375</ele>
        <time>2022-04-17T11:12:37.000Z</time>
      </trkpt>
      <trkpt lat="42.96932545490562915802001953125" lon="-2.3748545162379741668701171875">
        <ele>996.5999755859375</ele>
        <time>2022-04-17T11:12:38.000Z</time>
      </trkpt>
      <trkpt lat="42.969328053295612335205078125" lon="-2.37485359422862529754638671875">
        <ele>996.5999755859375</ele>
        <time>2022-04-17T11:12:39.000Z</time>
      </trkpt>
      <trkpt lat="42.96933065168559551239013671875" lon="-2.37485309131443500518798828125">
        <ele>996.4000244140625</ele>
        <time>2022-04-17T11:12:40.000Z</time>
      </trkpt>
      <trkpt lat="42.96933199279010295867919921875" lon="-2.3748525045812129974365234375">
        <ele>996.4000244140625</ele>
        <time>2022-04-17T11:12:41.000Z</time>
      </trkpt>
      <trkpt lat="42.9693330824375152587890625" lon="-2.37485208548605442047119140625">
        <ele>996.5999755859375</ele>
        <time>2022-04-17T11:12:42.000Z</time>
      </trkpt>
      <trkpt lat="42.96933350153267383575439453125" lon="-2.374850325286388397216796875">
        <ele>996.5999755859375</ele>
        <time>2022-04-17T11:12:43.000Z</time>
      </trkpt>
      <trkpt lat="42.9693335853517055511474609375" lon="-2.37484521232545375823974609375">
        <ele>996.5999755859375</ele>
        <time>2022-04-17T11:12:44.000Z</time>
      </trkpt>
      <trkpt lat="42.9693335853517055511474609375" lon="-2.37484437413513660430908203125">
        <ele>996.5999755859375</ele>
        <time>2022-04-17T11:12:45.000Z</time>
      </trkpt>
      <trkpt lat="42.9693335853517055511474609375" lon="-2.3748434521257877349853515625">
        <ele>996.5999755859375</ele>
        <time>2022-04-17T11:12:46.000Z</time>
      </trkpt>
      <trkpt lat="42.9693335853517055511474609375" lon="-2.3748414404690265655517578125">
        <ele>996.79998779296875</ele>
        <time>2022-04-17T11:12:47.000Z</time>
      </trkpt>
      <trkpt lat="42.9693335853517055511474609375" lon="-2.3748387582600116729736328125">
        <ele>997</ele>
        <time>2022-04-17T11:12:48.000Z</time>
      </trkpt>
      <trkpt lat="42.9693335853517055511474609375" lon="-2.374835573136806488037109375">
        <ele>997</ele>
        <time>2022-04-17T11:12:49.000Z</time>
      </trkpt>
      <trkpt lat="42.9693335853517055511474609375" lon="-2.37482677213847637176513671875">
        <ele>997.20001220703125</ele>
        <time>2022-04-17T11:12:50.000Z</time>
      </trkpt>
      <trkpt lat="42.9693335853517055511474609375" lon="-2.37481956370174884796142578125">
        <ele>997.20001220703125</ele>
        <time>2022-04-17T11:12:51.000Z</time>
      </trkpt>
      <trkpt lat="42.9693335853517055511474609375" lon="-2.374816797673702239990234375">
        <ele>997.20001220703125</ele>
        <time>2022-04-17T11:12:52.000Z</time>
      </trkpt>
      <trkpt lat="42.9693335853517055511474609375" lon="-2.37481512129306793212890625">
        <ele>997.20001220703125</ele>
        <time>2022-04-17T11:12:53.000Z</time>
      </trkpt>
      <trkpt lat="42.96933350153267383575439453125" lon="-2.374814786016941070556640625">
        <ele>997</ele>
        <time>2022-04-17T11:12:54.000Z</time>
      </trkpt>
      <trkpt lat="42.9693332500755786895751953125" lon="-2.37481436692178249359130859375">
        <ele>997</ele>
        <time>2022-04-17T11:12:55.000Z</time>
      </trkpt>
      <trkpt lat="42.96933266334235668182373046875" lon="-2.37481419928371906280517578125">
        <ele>996.79998779296875</ele>
        <time>2022-04-17T11:12:56.000Z</time>
      </trkpt>
      <trkpt lat="42.9693322442471981048583984375" lon="-2.37481419928371906280517578125">
        <ele>996.5999755859375</ele>
        <time>2022-04-17T11:12:57.000Z</time>
      </trkpt>
      <trkpt lat="42.96933031640946865081787109375" lon="-2.37481403164565563201904296875">
        <ele>996.4000244140625</ele>
        <time>2022-04-17T11:12:58.000Z</time>
      </trkpt>
      <trkpt lat="42.969328723847866058349609375" lon="-2.37481378018856048583984375">
        <ele>996.4000244140625</ele>
        <time>2022-04-17T11:12:59.000Z</time>
      </trkpt>
      <trkpt lat="42.96932612545788288116455078125" lon="-2.3748129419982433319091796875">
        <ele>996.4000244140625</ele>
        <time>2022-04-17T11:13:00.000Z</time>
      </trkpt>
      <trkpt lat="42.96932076103985309600830078125" lon="-2.37481269054114818572998046875">
        <ele>996.4000244140625</ele>
        <time>2022-04-17T11:13:01.000Z</time>
      </trkpt>
      <trkpt lat="42.9693178273737430572509765625" lon="-2.374812103807926177978515625">
        <ele>996.4000244140625</ele>
        <time>2022-04-17T11:13:02.000Z</time>
      </trkpt>
      <trkpt lat="42.96931673772633075714111328125" lon="-2.37481017597019672393798828125">
        <ele>996.4000244140625</ele>
        <time>2022-04-17T11:13:03.000Z</time>
      </trkpt>
      <trkpt lat="42.9693161509931087493896484375" lon="-2.3748089186847209930419921875">
        <ele>996.4000244140625</ele>
        <time>2022-04-17T11:13:04.000Z</time>
      </trkpt>
      <trkpt lat="42.969315983355045318603515625" lon="-2.3748079128563404083251953125">
        <ele>996.4000244140625</ele>
        <time>2022-04-17T11:13:05.000Z</time>
      </trkpt>
      <trkpt lat="42.96931539662182331085205078125" lon="-2.37480715848505496978759765625">
        <ele>996.4000244140625</ele>
        <time>2022-04-17T11:13:06.000Z</time>
      </trkpt>
      <trkpt lat="42.96931506134569644927978515625" lon="-2.37480640411376953125">
        <ele>996.4000244140625</ele>
        <time>2022-04-17T11:13:07.000Z</time>
      </trkpt>
      <trkpt lat="42.96931321732699871063232421875" lon="-2.3748059011995792388916015625">
        <ele>996.4000244140625</ele>
        <time>2022-04-17T11:13:08.000Z</time>
      </trkpt>
      <trkpt lat="42.96931154094636440277099609375" lon="-2.3748050630092620849609375">
        <ele>996.4000244140625</ele>
        <time>2022-04-17T11:13:09.000Z</time>
      </trkpt>
      <trkpt lat="42.969309948384761810302734375" lon="-2.374801374971866607666015625">
        <ele>996.5999755859375</ele>
        <time>2022-04-17T11:13:10.000Z</time>
      </trkpt>
      <trkpt lat="42.96930818818509578704833984375" lon="-2.37479207105934619903564453125">
        <ele>996.5999755859375</ele>
        <time>2022-04-17T11:13:11.000Z</time>
      </trkpt>
      <trkpt lat="42.969307266175746917724609375" lon="-2.374788634479045867919921875">
        <ele>996.5999755859375</ele>
        <time>2022-04-17T11:13:12.000Z</time>
      </trkpt>
      <trkpt lat="42.96930651180446147918701171875" lon="-2.37478695809841156005859375">
        <ele>996.5999755859375</ele>
        <time>2022-04-17T11:13:13.000Z</time>
      </trkpt>
      <trkpt lat="42.9693060927093029022216796875" lon="-2.3747857846319675445556640625">
        <ele>996.79998779296875</ele>
        <time>2022-04-17T11:13:14.000Z</time>
      </trkpt>
      <trkpt lat="42.9693057574331760406494140625" lon="-2.37478318624198436737060546875">
        <ele>997</ele>
        <time>2022-04-17T11:13:15.000Z</time>
      </trkpt>
      <trkpt lat="42.96930558979511260986328125" lon="-2.37478184513747692108154296875">
        <ele>997</ele>
        <time>2022-04-17T11:13:16.000Z</time>
      </trkpt>
      <trkpt lat="42.9693050868809223175048828125" lon="-2.3747810907661914825439453125">
        <ele>996.79998779296875</ele>
        <time>2022-04-17T11:13:17.000Z</time>
      </trkpt>
      <trkpt lat="42.96930416487157344818115234375" lon="-2.37478083930909633636474609375">
        <ele>996.79998779296875</ele>
        <time>2022-04-17T11:13:18.000Z</time>
      </trkpt>
      <trkpt lat="42.969302572309970855712890625" lon="-2.3747807554900646209716796875">
        <ele>996.79998779296875</ele>
        <time>2022-04-17T11:13:19.000Z</time>
      </trkpt>
      <trkpt lat="42.96930022537708282470703125" lon="-2.3747807554900646209716796875">
        <ele>996.79998779296875</ele>
        <time>2022-04-17T11:13:20.000Z</time>
      </trkpt>
      <trkpt lat="42.96929528005421161651611328125" lon="-2.3747807554900646209716796875">
        <ele>996.79998779296875</ele>
        <time>2022-04-17T11:13:21.000Z</time>
      </trkpt>
      <trkpt lat="42.96928823925554752349853515625" lon="-2.3747807554900646209716796875">
        <ele>996.5999755859375</ele>
        <time>2022-04-17T11:13:22.000Z</time>
      </trkpt>
      <trkpt lat="42.9692826233804225921630859375" lon="-2.3747807554900646209716796875">
        <ele>996.5999755859375</ele>
        <time>2022-04-17T11:13:23.000Z</time>
      </trkpt>
      <trkpt lat="42.96927600167691707611083984375" lon="-2.3747807554900646209716796875">
        <ele>996.5999755859375</ele>
        <time>2022-04-17T11:13:24.000Z</time>
      </trkpt>
      <trkpt lat="42.96926778741180896759033203125" lon="-2.3747807554900646209716796875">
        <ele>996.5999755859375</ele>
        <time>2022-04-17T11:13:25.000Z</time>
      </trkpt>
      <trkpt lat="42.9692628420889377593994140625" lon="-2.3747807554900646209716796875">
        <ele>996.5999755859375</ele>
        <time>2022-04-17T11:13:26.000Z</time>
      </trkpt>
      <trkpt lat="42.96926024369895458221435546875" lon="-2.37478117458522319793701171875">
        <ele>997</ele>
        <time>2022-04-17T11:13:27.000Z</time>
      </trkpt>
      <trkpt lat="42.969259321689605712890625" lon="-2.37478184513747692108154296875">
        <ele>997</ele>
        <time>2022-04-17T11:13:28.000Z</time>
      </trkpt>
      <trkpt lat="42.96925907023251056671142578125" lon="-2.3747831024229526519775390625">
        <ele>997</ele>
        <time>2022-04-17T11:13:29.000Z</time>
      </trkpt>
      <trkpt lat="42.969258986413478851318359375" lon="-2.374784611165523529052734375">
        <ele>997</ele>
        <time>2022-04-17T11:13:30.000Z</time>
      </trkpt>
      <trkpt lat="42.96925890259444713592529296875" lon="-2.3747851140797138214111328125">
        <ele>997</ele>
        <time>2022-04-17T11:13:31.000Z</time>
      </trkpt>
      <trkpt lat="42.96925890259444713592529296875" lon="-2.374785952270030975341796875">
        <ele>997</ele>
        <time>2022-04-17T11:13:32.000Z</time>
      </trkpt>
      <trkpt lat="42.96926057897508144378662109375" lon="-2.3747847788035869598388671875">
        <ele>997</ele>
        <time>2022-04-17T11:13:33.000Z</time>
      </trkpt>
      <trkpt lat="42.96925504691898822784423828125" lon="-2.3747720383107662200927734375">
        <ele>997</ele>
        <time>2022-04-17T11:13:34.000Z</time>
      </trkpt>
      <trkpt lat="42.9692467488348484039306640625" lon="-2.3747649975121021270751953125">
        <ele>997</ele>
        <time>2022-04-17T11:13:35.000Z</time>
      </trkpt>
      <trkpt lat="42.96924247406423091888427734375" lon="-2.37475904636085033416748046875">
        <ele>997</ele>
        <time>2022-04-17T11:13:36.000Z</time>
      </trkpt>
      <trkpt lat="42.96923794783651828765869140625" lon="-2.37474915571510791778564453125">
        <ele>997</ele>
        <time>2022-04-17T11:13:37.000Z</time>
      </trkpt>
      <trkpt lat="42.969230152666568756103515625" lon="-2.3747391812503337860107421875">
        <ele>997</ele>
        <time>2022-04-17T11:13:38.000Z</time>
      </trkpt>
      <trkpt lat="42.96922420151531696319580078125" lon="-2.374728620052337646484375">
        <ele>997</ele>
        <time>2022-04-17T11:13:39.000Z</time>
      </trkpt>
      <trkpt lat="42.96922034583985805511474609375" lon="-2.37471713684499263763427734375">
        <ele>997</ele>
        <time>2022-04-17T11:13:40.000Z</time>
      </trkpt>
      <trkpt lat="42.9692185856401920318603515625" lon="-2.37470741383731365203857421875">
        <ele>997</ele>
        <time>2022-04-17T11:13:41.000Z</time>
      </trkpt>
      <trkpt lat="42.96921481378376483917236328125" lon="-2.37469735555350780487060546875">
        <ele>997</ele>
        <time>2022-04-17T11:13:42.000Z</time>
      </trkpt>
      <trkpt lat="42.96920634806156158447265625" lon="-2.3746892251074314117431640625">
        <ele>997</ele>
        <time>2022-04-17T11:13:43.000Z</time>
      </trkpt>
      <trkpt lat="42.96919989399611949920654296875" lon="-2.3746801726520061492919921875">
        <ele>997</ele>
        <time>2022-04-17T11:13:44.000Z</time>
      </trkpt>
      <trkpt lat="42.96919218264520168304443359375" lon="-2.37466986291110515594482421875">
        <ele>997</ele>
        <time>2022-04-17T11:13:45.000Z</time>
      </trkpt>
      <trkpt lat="42.9691894166171550750732421875" lon="-2.37466198392212390899658203125">
        <ele>997</ele>
        <time>2022-04-17T11:13:46.000Z</time>
      </trkpt>
      <trkpt lat="42.969189248979091644287109375" lon="-2.37465293146669864654541015625">
        <ele>997</ele>
        <time>2022-04-17T11:13:47.000Z</time>
      </trkpt>
      <trkpt lat="42.96919067390263080596923828125" lon="-2.37463750876486301422119140625">
        <ele>997</ele>
        <time>2022-04-17T11:13:48.000Z</time>
      </trkpt>
      <trkpt lat="42.969183214008808135986328125" lon="-2.37462292425334453582763671875">
        <ele>997</ele>
        <time>2022-04-17T11:13:49.000Z</time>
      </trkpt>
      <trkpt lat="42.96917743049561977386474609375" lon="-2.3746030591428279876708984375">
        <ele>997</ele>
        <time>2022-04-17T11:13:50.000Z</time>
      </trkpt>
      <trkpt lat="42.96917038969695568084716796875" lon="-2.3745859600603580474853515625">
        <ele>997</ele>
        <time>2022-04-17T11:13:51.000Z</time>
      </trkpt>
      <trkpt lat="42.96915664337575435638427734375" lon="-2.37457229755818843841552734375">
        <ele>997</ele>
        <time>2022-04-17T11:13:52.000Z</time>
      </trkpt>
      <trkpt lat="42.96914742328226566314697265625" lon="-2.374559976160526275634765625">
        <ele>997</ele>
        <time>2022-04-17T11:13:53.000Z</time>
      </trkpt>
      <trkpt lat="42.9691397957503795623779296875" lon="-2.37454421818256378173828125">
        <ele>997</ele>
        <time>2022-04-17T11:13:54.000Z</time>
      </trkpt>
      <trkpt lat="42.969135604798793792724609375" lon="-2.37453608773648738861083984375">
        <ele>997</ele>
        <time>2022-04-17T11:13:55.000Z</time>
      </trkpt>
      <trkpt lat="42.9691364429891109466552734375" lon="-2.374524436891078948974609375">
        <ele>997</ele>
        <time>2022-04-17T11:13:56.000Z</time>
      </trkpt>
      <trkpt lat="42.96914390288293361663818359375" lon="-2.3745127022266387939453125">
        <ele>997</ele>
        <time>2022-04-17T11:13:57.000Z</time>
      </trkpt>
      <trkpt lat="42.96915262006223201751708984375" lon="-2.37450507469475269317626953125">
        <ele>997</ele>
        <time>2022-04-17T11:13:58.000Z</time>
      </trkpt>
      <trkpt lat="42.96915999613702297210693359375" lon="-2.37450054846704006195068359375">
        <ele>997</ele>
        <time>2022-04-17T11:13:59.000Z</time>
      </trkpt>
      <trkpt lat="42.9691589064896106719970703125" lon="-2.374498285353183746337890625">
        <ele>997</ele>
        <time>2022-04-17T11:14:00.000Z</time>
      </trkpt>
      <trkpt lat="42.969155721366405487060546875" lon="-2.3744957707822322845458984375">
        <ele>997</ele>
        <time>2022-04-17T11:14:01.000Z</time>
      </trkpt>
      <trkpt lat="42.96915429644286632537841796875" lon="-2.3744885623455047607421875">
        <ele>997</ele>
        <time>2022-04-17T11:14:02.000Z</time>
      </trkpt>
      <trkpt lat="42.96915002167224884033203125" lon="-2.3744813539087772369384765625">
        <ele>997</ele>
        <time>2022-04-17T11:14:03.000Z</time>
      </trkpt>
      <trkpt lat="42.96914239414036273956298828125" lon="-2.3744719661772251129150390625">
        <ele>997</ele>
        <time>2022-04-17T11:14:04.000Z</time>
      </trkpt>
      <trkpt lat="42.96914407052099704742431640625" lon="-2.3744619078934192657470703125">
        <ele>997</ele>
        <time>2022-04-17T11:14:05.000Z</time>
      </trkpt>
      <trkpt lat="42.96913987956941127777099609375" lon="-2.3744545318186283111572265625">
        <ele>997</ele>
        <time>2022-04-17T11:14:06.000Z</time>
      </trkpt>
      <trkpt lat="42.9691345989704132080078125" lon="-2.37444858066737651824951171875">
        <ele>997</ele>
        <time>2022-04-17T11:14:07.000Z</time>
      </trkpt>
      <trkpt lat="42.9691304080188274383544921875" lon="-2.37444229423999786376953125">
        <ele>997</ele>
        <time>2022-04-17T11:14:08.000Z</time>
      </trkpt>
      <trkpt lat="42.9691283963620662689208984375" lon="-2.374431230127811431884765625">
        <ele>1000.4000244140625</ele>
        <time>2022-04-17T11:14:09.000Z</time>
      </trkpt>
      <trkpt lat="42.9691240377724170684814453125" lon="-2.37442351877689361572265625">
        <ele>1002.4000244140625</ele>
        <time>2022-04-17T11:14:10.000Z</time>
      </trkpt>
      <trkpt lat="42.969124205410480499267578125" lon="-2.37441538833081722259521484375">
        <ele>1003.4000244140625</ele>
        <time>2022-04-17T11:14:11.000Z</time>
      </trkpt>
      <trkpt lat="42.969125211238861083984375" lon="-2.3744089342653751373291015625">
        <ele>1003.79998779296875</ele>
        <time>2022-04-17T11:14:12.000Z</time>
      </trkpt>
      <trkpt lat="42.96912060119211673736572265625" lon="-2.374403737485408782958984375">
        <ele>1004.20001220703125</ele>
        <time>2022-04-17T11:14:13.000Z</time>
      </trkpt>
      <trkpt lat="42.9691139794886112213134765625" lon="-2.374396026134490966796875">
        <ele>1004.4000244140625</ele>
        <time>2022-04-17T11:14:14.000Z</time>
      </trkpt>
      <trkpt lat="42.96910802833735942840576171875" lon="-2.37439258955419063568115234375">
        <ele>1004.4000244140625</ele>
        <time>2022-04-17T11:14:15.000Z</time>
      </trkpt>
      <trkpt lat="42.9691049270331859588623046875" lon="-2.37438035197556018829345703125">
        <ele>1004.5999755859375</ele>
        <time>2022-04-17T11:14:16.000Z</time>
      </trkpt>
      <trkpt lat="42.9691045917570590972900390625" lon="-2.37437046132981777191162109375">
        <ele>1004.79998779296875</ele>
        <time>2022-04-17T11:14:17.000Z</time>
      </trkpt>
      <trkpt lat="42.96909998171031475067138671875" lon="-2.37435269169509410858154296875">
        <ele>1005</ele>
        <time>2022-04-17T11:14:18.000Z</time>
      </trkpt>
      <trkpt lat="42.96909545548260211944580078125" lon="-2.37433542497456073760986328125">
        <ele>1005.20001220703125</ele>
        <time>2022-04-17T11:14:19.000Z</time>
      </trkpt>
      <trkpt lat="42.9690915159881114959716796875" lon="-2.374323941767215728759765625">
        <ele>1005.5999755859375</ele>
        <time>2022-04-17T11:14:20.000Z</time>
      </trkpt>
      <trkpt lat="42.96908321790397167205810546875" lon="-2.37430608831346035003662109375">
        <ele>1005.79998779296875</ele>
        <time>2022-04-17T11:14:21.000Z</time>
      </trkpt>
      <trkpt lat="42.96907248906791210174560546875" lon="-2.374293766915798187255859375">
        <ele>1006</ele>
        <time>2022-04-17T11:14:22.000Z</time>
      </trkpt>
      <trkpt lat="42.9690636880695819854736328125" lon="-2.374292425811290740966796875">
        <ele>1006.20001220703125</ele>
        <time>2022-04-17T11:14:23.000Z</time>
      </trkpt>
      <trkpt lat="42.969055809080600738525390625" lon="-2.3742835409939289093017578125">
        <ele>1006.20001220703125</ele>
        <time>2022-04-17T11:14:24.000Z</time>
      </trkpt>
      <trkpt lat="42.96904885210096836090087890625" lon="-2.37427272833883762359619140625">
        <ele>1006.4000244140625</ele>
        <time>2022-04-17T11:14:25.000Z</time>
      </trkpt>
      <trkpt lat="42.969038374722003936767578125" lon="-2.37426736392080783843994140625">
        <ele>1006.5999755859375</ele>
        <time>2022-04-17T11:14:26.000Z</time>
      </trkpt>
      <trkpt lat="42.9690214432775974273681640625" lon="-2.37426451407372951507568359375">
        <ele>1006.79998779296875</ele>
        <time>2022-04-17T11:14:27.000Z</time>
      </trkpt>
      <trkpt lat="42.96900845132768154144287109375" lon="-2.37424825318157672882080078125">
        <ele>1006.79998779296875</ele>
        <time>2022-04-17T11:14:28.000Z</time>
      </trkpt>
      <trkpt lat="42.96899789012968540191650390625" lon="-2.37422880716621875762939453125">
        <ele>1006.79998779296875</ele>
        <time>2022-04-17T11:14:29.000Z</time>
      </trkpt>
      <trkpt lat="42.96898665837943553924560546875" lon="-2.3742087744176387786865234375">
        <ele>1006.79998779296875</ele>
        <time>2022-04-17T11:14:30.000Z</time>
      </trkpt>
      <trkpt lat="42.96897760592401027679443359375" lon="-2.37418941222131252288818359375">
        <ele>1006.79998779296875</ele>
        <time>2022-04-17T11:14:31.000Z</time>
      </trkpt>
      <trkpt lat="42.96896821819245815277099609375" lon="-2.37417281605303287506103515625">
        <ele>1006.79998779296875</ele>
        <time>2022-04-17T11:14:32.000Z</time>
      </trkpt>
      <trkpt lat="42.96896419487893581390380859375" lon="-2.37415772862732410430908203125">
        <ele>1006.79998779296875</ele>
        <time>2022-04-17T11:14:33.000Z</time>
      </trkpt>
      <trkpt lat="42.96896184794604778289794921875" lon="-2.37414733506739139556884765625">
        <ele>1007</ele>
        <time>2022-04-17T11:14:34.000Z</time>
      </trkpt>
      <trkpt lat="42.9689574055373668670654296875" lon="-2.3741316609084606170654296875">
        <ele>1007</ele>
        <time>2022-04-17T11:14:35.000Z</time>
      </trkpt>
      <trkpt lat="42.9689575731754302978515625" lon="-2.3741122148931026458740234375">
        <ele>1007</ele>
        <time>2022-04-17T11:14:36.000Z</time>
      </trkpt>
      <trkpt lat="42.96895732171833515167236328125" lon="-2.37409687601029872894287109375">
        <ele>1007.20001220703125</ele>
        <time>2022-04-17T11:14:37.000Z</time>
      </trkpt>
      <trkpt lat="42.9689540527760982513427734375" lon="-2.37409184686839580535888671875">
        <ele>1007.4000244140625</ele>
        <time>2022-04-17T11:14:38.000Z</time>
      </trkpt>
      <trkpt lat="42.9689503647387027740478515625" lon="-2.37408497370779514312744140625">
        <ele>1007.4000244140625</ele>
        <time>2022-04-17T11:14:39.000Z</time>
      </trkpt>
      <trkpt lat="42.968944497406482696533203125" lon="-2.3740726523101329803466796875">
        <ele>1007.4000244140625</ele>
        <time>2022-04-17T11:14:40.000Z</time>
      </trkpt>
      <trkpt lat="42.96893720515072345733642578125" lon="-2.37404960207641124725341796875">
        <ele>1007.5999755859375</ele>
        <time>2022-04-17T11:14:41.000Z</time>
      </trkpt>
      <trkpt lat="42.968929074704647064208984375" lon="-2.3740351013839244842529296875">
        <ele>1007.5999755859375</ele>
        <time>2022-04-17T11:14:42.000Z</time>
      </trkpt>
      <trkpt lat="42.96891532838344573974609375" lon="-2.37402864731848239898681640625">
        <ele>1007.79998779296875</ele>
        <time>2022-04-17T11:14:43.000Z</time>
      </trkpt>
      <trkpt lat="42.968913652002811431884765625" lon="-2.374032251536846160888671875">
        <ele>1007.79998779296875</ele>
        <time>2022-04-17T11:14:44.000Z</time>
      </trkpt>
      <trkpt lat="42.96891122125089168548583984375" lon="-2.3740324191749095916748046875">
        <ele>1008</ele>
        <time>2022-04-17T11:14:45.000Z</time>
      </trkpt>
      <trkpt lat="42.9689191840589046478271484375" lon="-2.37403669394552707672119140625">
        <ele>1008</ele>
        <time>2022-04-17T11:14:46.000Z</time>
      </trkpt>
      <trkpt lat="42.968921698629856109619140625" lon="-2.37402345053851604461669921875">
        <ele>1008</ele>
        <time>2022-04-17T11:14:47.000Z</time>
      </trkpt>
      <trkpt lat="42.96892379410564899444580078125" lon="-2.3740190081298351287841796875">
        <ele>1008</ele>
        <time>2022-04-17T11:14:48.000Z</time>
      </trkpt>
      <trkpt lat="42.96892446465790271759033203125" lon="-2.3740099556744098663330078125">
        <ele>1008.20001220703125</ele>
        <time>2022-04-17T11:14:49.000Z</time>
      </trkpt>
      <trkpt lat="42.96892731450498104095458984375" lon="-2.37400241196155548095703125">
        <ele>1008.4000244140625</ele>
        <time>2022-04-17T11:14:50.000Z</time>
      </trkpt>
      <trkpt lat="42.96892848797142505645751953125" lon="-2.37399637699127197265625">
        <ele>1008.4000244140625</ele>
        <time>2022-04-17T11:14:51.000Z</time>
      </trkpt>
      <trkpt lat="42.96893184073269367218017578125" lon="-2.37398874945938587188720703125">
        <ele>1008.5999755859375</ele>
        <time>2022-04-17T11:14:52.000Z</time>
      </trkpt>
      <trkpt lat="42.96893008053302764892578125" lon="-2.37397802062332630157470703125">
        <ele>1008.5999755859375</ele>
        <time>2022-04-17T11:14:53.000Z</time>
      </trkpt>
      <trkpt lat="42.9689255543053150177001953125" lon="-2.37396888434886932373046875">
        <ele>1008.79998779296875</ele>
        <time>2022-04-17T11:14:54.000Z</time>
      </trkpt>
      <trkpt lat="42.9689228720963001251220703125" lon="-2.3739667050540447235107421875">
        <ele>1008.79998779296875</ele>
        <time>2022-04-17T11:14:55.000Z</time>
      </trkpt>
      <trkpt lat="42.96891809441149234771728515625" lon="-2.37396041862666606903076171875">
        <ele>1009</ele>
        <time>2022-04-17T11:14:56.000Z</time>
      </trkpt>
      <trkpt lat="42.968907617032527923583984375" lon="-2.3739593289792537689208984375">
        <ele>1009</ele>
        <time>2022-04-17T11:14:57.000Z</time>
      </trkpt>
      <trkpt lat="42.96890191733837127685546875" lon="-2.3739522881805896759033203125">
        <ele>1009.20001220703125</ele>
        <time>2022-04-17T11:14:58.000Z</time>
      </trkpt>
      <trkpt lat="42.96889814548194408416748046875" lon="-2.37394432537257671356201171875">
        <ele>1009.4000244140625</ele>
        <time>2022-04-17T11:14:59.000Z</time>
      </trkpt>
      <trkpt lat="42.96889831312000751495361328125" lon="-2.37393644638359546661376953125">
        <ele>1009.5999755859375</ele>
        <time>2022-04-17T11:15:00.000Z</time>
      </trkpt>
      <trkpt lat="42.96889579854905605316162109375" lon="-2.373934350907802581787109375">
        <ele>1009.79998779296875</ele>
        <time>2022-04-17T11:15:01.000Z</time>
      </trkpt>
      <trkpt lat="42.96889177523553371429443359375" lon="-2.3739258013665676116943359375">
        <ele>1009.79998779296875</ele>
        <time>2022-04-17T11:15:02.000Z</time>
      </trkpt>
      <trkpt lat="42.96888741664588451385498046875" lon="-2.37391783855855464935302734375">
        <ele>1010</ele>
        <time>2022-04-17T11:15:03.000Z</time>
      </trkpt>
      <trkpt lat="42.9688792861998081207275390625" lon="-2.37391884438693523406982421875">
        <ele>1010.20001220703125</ele>
        <time>2022-04-17T11:15:04.000Z</time>
      </trkpt>
      <trkpt lat="42.9688705690205097198486328125" lon="-2.37392437644302845001220703125">
        <ele>1010.4000244140625</ele>
        <time>2022-04-17T11:15:05.000Z</time>
      </trkpt>
      <trkpt lat="42.96885539777576923370361328125" lon="-2.3739268071949481964111328125">
        <ele>1010.5999755859375</ele>
        <time>2022-04-17T11:15:06.000Z</time>
      </trkpt>
      <trkpt lat="42.96884701587259769439697265625" lon="-2.37392999231815338134765625">
        <ele>1010.5999755859375</ele>
        <time>2022-04-17T11:15:07.000Z</time>
      </trkpt>
      <trkpt lat="42.968838214874267578125" lon="-2.3739268071949481964111328125">
        <ele>1010.79998779296875</ele>
        <time>2022-04-17T11:15:08.000Z</time>
      </trkpt>
      <trkpt lat="42.96883561648428440093994140625" lon="-2.37391079775989055633544921875">
        <ele>1011</ele>
        <time>2022-04-17T11:15:09.000Z</time>
      </trkpt>
      <trkpt lat="42.96883109025657176971435546875" lon="-2.373902499675750732421875">
        <ele>1011</ele>
        <time>2022-04-17T11:15:10.000Z</time>
      </trkpt>
      <trkpt lat="42.96882052905857563018798828125" lon="-2.37389118410646915435791015625">
        <ele>1011.20001220703125</ele>
        <time>2022-04-17T11:15:11.000Z</time>
      </trkpt>
      <trkpt lat="42.968809045851230621337890625" lon="-2.37388565205037593841552734375">
        <ele>1011.20001220703125</ele>
        <time>2022-04-17T11:15:12.000Z</time>
      </trkpt>
      <trkpt lat="42.9687974788248538970947265625" lon="-2.37387727014720439910888671875">
        <ele>1011.20001220703125</ele>
        <time>2022-04-17T11:15:13.000Z</time>
      </trkpt>
      <trkpt lat="42.968792952597141265869140625" lon="-2.37387475557625293731689453125">
        <ele>1011.20001220703125</ele>
        <time>2022-04-17T11:15:14.000Z</time>
      </trkpt>
      <trkpt lat="42.968794964253902435302734375" lon="-2.37386830151081085205078125">
        <ele>1011.20001220703125</ele>
        <time>2022-04-17T11:15:15.000Z</time>
      </trkpt>
      <trkpt lat="42.96879001893103122711181640625" lon="-2.37385564483702182769775390625">
        <ele>1011.20001220703125</ele>
        <time>2022-04-17T11:15:16.000Z</time>
      </trkpt>
      <trkpt lat="42.9687887616455554962158203125" lon="-2.37384676001965999603271484375">
        <ele>1011.20001220703125</ele>
        <time>2022-04-17T11:15:17.000Z</time>
      </trkpt>
      <trkpt lat="42.96878213994204998016357421875" lon="-2.373838461935520172119140625">
        <ele>1011.4000244140625</ele>
        <time>2022-04-17T11:15:18.000Z</time>
      </trkpt>
      <trkpt lat="42.96877853572368621826171875" lon="-2.37383435480296611785888671875">
        <ele>1011.4000244140625</ele>
        <time>2022-04-17T11:15:19.000Z</time>
      </trkpt>
      <trkpt lat="42.96877761371433734893798828125" lon="-2.373829074203968048095703125">
        <ele>1011.4000244140625</ele>
        <time>2022-04-17T11:15:20.000Z</time>
      </trkpt>
      <trkpt lat="42.96877711080014705657958984375" lon="-2.373821027576923370361328125">
        <ele>1011.4000244140625</ele>
        <time>2022-04-17T11:15:21.000Z</time>
      </trkpt>
      <trkpt lat="42.96877208165824413299560546875" lon="-2.37381490878760814666748046875">
        <ele>1011.4000244140625</ele>
        <time>2022-04-17T11:15:22.000Z</time>
      </trkpt>
      <trkpt lat="42.96877241693437099456787109375" lon="-2.3738084547221660614013671875">
        <ele>1011.5999755859375</ele>
        <time>2022-04-17T11:15:23.000Z</time>
      </trkpt>
      <trkpt lat="42.96876705251634120941162109375" lon="-2.3738030903041362762451171875">
        <ele>1011.5999755859375</ele>
        <time>2022-04-17T11:15:24.000Z</time>
      </trkpt>
      <trkpt lat="42.9687612690031528472900390625" lon="-2.3737923614680767059326171875">
        <ele>1011.79998779296875</ele>
        <time>2022-04-17T11:15:25.000Z</time>
      </trkpt>
      <trkpt lat="42.96875867061316967010498046875" lon="-2.3737799562513828277587890625">
        <ele>1011.79998779296875</ele>
        <time>2022-04-17T11:15:26.000Z</time>
      </trkpt>
      <trkpt lat="42.9687555693089962005615234375" lon="-2.37375833094120025634765625">
        <ele>1012</ele>
        <time>2022-04-17T11:15:27.000Z</time>
      </trkpt>
      <trkpt lat="42.968752719461917877197265625" lon="-2.37374349497258663177490234375">
        <ele>1012</ele>
        <time>2022-04-17T11:15:28.000Z</time>
      </trkpt>
      <trkpt lat="42.96875313855707645416259765625" lon="-2.3737383820116519927978515625">
        <ele>1012</ele>
        <time>2022-04-17T11:15:29.000Z</time>
      </trkpt>
      <trkpt lat="42.968752719461917877197265625" lon="-2.3737340234220027923583984375">
        <ele>1012.20001220703125</ele>
        <time>2022-04-17T11:15:30.000Z</time>
      </trkpt>
      <trkpt lat="42.9687589220702648162841796875" lon="-2.37372740171849727630615234375">
        <ele>1012.20001220703125</ele>
        <time>2022-04-17T11:15:31.000Z</time>
      </trkpt>
      <trkpt lat="42.9687629453837871551513671875" lon="-2.37371717579662799835205078125">
        <ele>1012.4000244140625</ele>
        <time>2022-04-17T11:15:32.000Z</time>
      </trkpt>
      <trkpt lat="42.9687617719173431396484375" lon="-2.373703680932521820068359375">
        <ele>1012.4000244140625</ele>
        <time>2022-04-17T11:15:33.000Z</time>
      </trkpt>
      <trkpt lat="42.9687582515180110931396484375" lon="-2.37369068898260593414306640625">
        <ele>1012.5999755859375</ele>
        <time>2022-04-17T11:15:34.000Z</time>
      </trkpt>
      <trkpt lat="42.968749701976776123046875" lon="-2.37367694266140460968017578125">
        <ele>1012.5999755859375</ele>
        <time>2022-04-17T11:15:35.000Z</time>
      </trkpt>
      <trkpt lat="42.9687404818832874298095703125" lon="-2.37365682609379291534423828125">
        <ele>1012.5999755859375</ele>
        <time>2022-04-17T11:15:36.000Z</time>
      </trkpt>
      <trkpt lat="42.9687428288161754608154296875" lon="-2.37365246750414371490478515625">
        <ele>1012.5999755859375</ele>
        <time>2022-04-17T11:15:37.000Z</time>
      </trkpt>
      <trkpt lat="42.96875263564288616180419921875" lon="-2.37365045584738254547119140625">
        <ele>1012.5999755859375</ele>
        <time>2022-04-17T11:15:38.000Z</time>
      </trkpt>
      <trkpt lat="42.9687579162418842315673828125" lon="-2.3736461810767650604248046875">
        <ele>1012.79998779296875</ele>
        <time>2022-04-17T11:15:39.000Z</time>
      </trkpt>
      <trkpt lat="42.9687622748315334320068359375" lon="-2.37364022992551326751708984375">
        <ele>1013</ele>
        <time>2022-04-17T11:15:40.000Z</time>
      </trkpt>
      <trkpt lat="42.9687619395554065704345703125" lon="-2.37363100983202457427978515625">
        <ele>1013</ele>
        <time>2022-04-17T11:15:41.000Z</time>
      </trkpt>
      <trkpt lat="42.9687559045851230621337890625" lon="-2.37361659295856952667236328125">
        <ele>1013.20001220703125</ele>
        <time>2022-04-17T11:15:42.000Z</time>
      </trkpt>
      <trkpt lat="42.96874827705323696136474609375" lon="-2.37360787577927112579345703125">
        <ele>1013.4000244140625</ele>
        <time>2022-04-17T11:15:43.000Z</time>
      </trkpt>
      <trkpt lat="42.9687438346445560455322265625" lon="-2.37360410392284393310546875">
        <ele>1013.5999755859375</ele>
        <time>2022-04-17T11:15:44.000Z</time>
      </trkpt>
      <trkpt lat="42.9687403142452239990234375" lon="-2.3736032657325267791748046875">
        <ele>1013.79998779296875</ele>
        <time>2022-04-17T11:15:45.000Z</time>
      </trkpt>
      <trkpt lat="42.96873704530298709869384765625" lon="-2.3735999129712581634521484375">
        <ele>1014</ele>
        <time>2022-04-17T11:15:46.000Z</time>
      </trkpt>
      <trkpt lat="42.96873369254171848297119140625" lon="-2.37359647639095783233642578125">
        <ele>1014.20001220703125</ele>
        <time>2022-04-17T11:15:47.000Z</time>
      </trkpt>
      <trkpt lat="42.968722544610500335693359375" lon="-2.3735881783068180084228515625">
        <ele>1014.20001220703125</ele>
        <time>2022-04-17T11:15:48.000Z</time>
      </trkpt>
      <trkpt lat="42.9687093012034893035888671875" lon="-2.37358071841299533843994140625">
        <ele>1014.4000244140625</ele>
        <time>2022-04-17T11:15:49.000Z</time>
      </trkpt>
      <trkpt lat="42.96869941055774688720703125" lon="-2.3735707439482212066650390625">
        <ele>1014.4000244140625</ele>
        <time>2022-04-17T11:15:50.000Z</time>
      </trkpt>
      <trkpt lat="42.96869111247360706329345703125" lon="-2.37356512807309627532958984375">
        <ele>1014.5999755859375</ele>
        <time>2022-04-17T11:15:51.000Z</time>
      </trkpt>
      <trkpt lat="42.96868122182786464691162109375" lon="-2.373558841645717620849609375">
        <ele>1014.5999755859375</ele>
        <time>2022-04-17T11:15:52.000Z</time>
      </trkpt>
      <trkpt lat="42.96867501921951770782470703125" lon="-2.373551465570926666259765625">
        <ele>1014.79998779296875</ele>
        <time>2022-04-17T11:15:53.000Z</time>
      </trkpt>
      <trkpt lat="42.96866227872669696807861328125" lon="-2.3735429160296916961669921875">
        <ele>1014.79998779296875</ele>
        <time>2022-04-17T11:15:54.000Z</time>
      </trkpt>
      <trkpt lat="42.9686452634632587432861328125" lon="-2.37353864125907421112060546875">
        <ele>1014.79998779296875</ele>
        <time>2022-04-17T11:15:55.000Z</time>
      </trkpt>
      <trkpt lat="42.96862958930432796478271484375" lon="-2.37353478558361530303955078125">
        <ele>1014.79998779296875</ele>
        <time>2022-04-17T11:15:56.000Z</time>
      </trkpt>
      <trkpt lat="42.96860947273671627044677734375" lon="-2.3735301755368709564208984375">
        <ele>1014.79998779296875</ele>
        <time>2022-04-17T11:15:57.000Z</time>
      </trkpt>
      <trkpt lat="42.96859824098646640777587890625" lon="-2.3735176026821136474609375">
        <ele>1014.79998779296875</ele>
        <time>2022-04-17T11:15:58.000Z</time>
      </trkpt>
      <trkpt lat="42.96859237365424633026123046875" lon="-2.37351014278829097747802734375">
        <ele>1015</ele>
        <time>2022-04-17T11:15:59.000Z</time>
      </trkpt>
      <trkpt lat="42.96858943998813629150390625" lon="-2.373504526913166046142578125">
        <ele>1015</ele>
        <time>2022-04-17T11:16:00.000Z</time>
      </trkpt>
      <trkpt lat="42.96857829205691814422607421875" lon="-2.3734983243048191070556640625">
        <ele>1015</ele>
        <time>2022-04-17T11:16:01.000Z</time>
      </trkpt>
      <trkpt lat="42.968572676181793212890625" lon="-2.37349153496325016021728515625">
        <ele>1015</ele>
        <time>2022-04-17T11:16:02.000Z</time>
      </trkpt>
      <trkpt lat="42.9685694910585880279541015625" lon="-2.37349019385874271392822265625">
        <ele>1015</ele>
        <time>2022-04-17T11:16:03.000Z</time>
      </trkpt>
      <trkpt lat="42.96856555156409740447998046875" lon="-2.37348449416458606719970703125">
        <ele>1015.20001220703125</ele>
        <time>2022-04-17T11:16:04.000Z</time>
      </trkpt>
      <trkpt lat="42.9685604386031627655029296875" lon="-2.37347778864204883575439453125">
        <ele>1015.20001220703125</ele>
        <time>2022-04-17T11:16:05.000Z</time>
      </trkpt>
      <trkpt lat="42.9685554094612598419189453125" lon="-2.37346672452986240386962890625">
        <ele>1015.4000244140625</ele>
        <time>2022-04-17T11:16:06.000Z</time>
      </trkpt>
      <trkpt lat="42.968550883233547210693359375" lon="-2.37345716916024684906005859375">
        <ele>1015.4000244140625</ele>
        <time>2022-04-17T11:16:07.000Z</time>
      </trkpt>
      <trkpt lat="42.96855063177645206451416015625" lon="-2.373455576598644256591796875">
        <ele>1015.5999755859375</ele>
        <time>2022-04-17T11:16:08.000Z</time>
      </trkpt>
      <trkpt lat="42.9685530625283718109130859375" lon="-2.373451888561248779296875">
        <ele>1015.5999755859375</ele>
        <time>2022-04-17T11:16:09.000Z</time>
      </trkpt>
      <trkpt lat="42.968556247651576995849609375" lon="-2.3734352923929691314697265625">
        <ele>1015.79998779296875</ele>
        <time>2022-04-17T11:16:10.000Z</time>
      </trkpt>
      <trkpt lat="42.96855364926159381866455078125" lon="-2.37342263571918010711669921875">
        <ele>1015.79998779296875</ele>
        <time>2022-04-17T11:16:11.000Z</time>
      </trkpt>
      <trkpt lat="42.9685520566999912261962890625" lon="-2.37340972758829593658447265625">
        <ele>1016</ele>
        <time>2022-04-17T11:16:12.000Z</time>
      </trkpt>
      <trkpt lat="42.9685527272522449493408203125" lon="-2.37340033985674381256103515625">
        <ele>1016</ele>
        <time>2022-04-17T11:16:13.000Z</time>
      </trkpt>
      <trkpt lat="42.968546189367771148681640625" lon="-2.37339480780065059661865234375">
        <ele>1016.20001220703125</ele>
        <time>2022-04-17T11:16:14.000Z</time>
      </trkpt>
      <trkpt lat="42.96853319741785526275634765625" lon="-2.373385168612003326416015625">
        <ele>1016.20001220703125</ele>
        <time>2022-04-17T11:16:15.000Z</time>
      </trkpt>
      <trkpt lat="42.96852464787662029266357421875" lon="-2.37337854690849781036376953125">
        <ele>1016.4000244140625</ele>
        <time>2022-04-17T11:16:16.000Z</time>
      </trkpt>
      <trkpt lat="42.9685091413557529449462890625" lon="-2.37336128018796443939208984375">
        <ele>1016.5999755859375</ele>
        <time>2022-04-17T11:16:17.000Z</time>
      </trkpt>
      <trkpt lat="42.96849262900650501251220703125" lon="-2.37334518693387508392333984375">
        <ele>1016.79998779296875</ele>
        <time>2022-04-17T11:16:18.000Z</time>
      </trkpt>
      <trkpt lat="42.96847586520016193389892578125" lon="-2.37332649528980255126953125">
        <ele>1016.79998779296875</ele>
        <time>2022-04-17T11:16:19.000Z</time>
      </trkpt>
      <trkpt lat="42.96845893375575542449951171875" lon="-2.37331031821668148040771484375">
        <ele>1016.79998779296875</ele>
        <time>2022-04-17T11:16:20.000Z</time>
      </trkpt>
      <trkpt lat="42.96844636090099811553955078125" lon="-2.37329808063805103302001953125">
        <ele>1016.79998779296875</ele>
        <time>2022-04-17T11:16:21.000Z</time>
      </trkpt>
      <trkpt lat="42.96843864955008029937744140625" lon="-2.373292632400989532470703125">
        <ele>1017</ele>
        <time>2022-04-17T11:16:22.000Z</time>
      </trkpt>
      <trkpt lat="42.968432866036891937255859375" lon="-2.37328768707811832427978515625">
        <ele>1016.79998779296875</ele>
        <time>2022-04-17T11:16:23.000Z</time>
      </trkpt>
      <trkpt lat="42.968429513275623321533203125" lon="-2.37329154275357723236083984375">
        <ele>1016.79998779296875</ele>
        <time>2022-04-17T11:16:24.000Z</time>
      </trkpt>
      <trkpt lat="42.96842507086694240570068359375" lon="-2.37329992465674877166748046875">
        <ele>1016.79998779296875</ele>
        <time>2022-04-17T11:16:25.000Z</time>
      </trkpt>
      <trkpt lat="42.96841601841151714324951171875" lon="-2.3733025230467319488525390625">
        <ele>1016.79998779296875</ele>
        <time>2022-04-17T11:16:26.000Z</time>
      </trkpt>
      <trkpt lat="42.968410067260265350341796875" lon="-2.3732984997332096099853515625">
        <ele>1017</ele>
        <time>2022-04-17T11:16:27.000Z</time>
      </trkpt>
      <trkpt lat="42.96840596012771129608154296875" lon="-2.3733008466660976409912109375">
        <ele>1017</ele>
        <time>2022-04-17T11:16:28.000Z</time>
      </trkpt>
      <trkpt lat="42.9684001766145229339599609375" lon="-2.3732991702854633331298828125">
        <ele>1017</ele>
        <time>2022-04-17T11:16:29.000Z</time>
      </trkpt>
      <trkpt lat="42.9684011824429035186767578125" lon="-2.37329355441033840179443359375">
        <ele>1017</ele>
        <time>2022-04-17T11:16:30.000Z</time>
      </trkpt>
      <trkpt lat="42.9684008471667766571044921875" lon="-2.37328894436359405517578125">
        <ele>1017</ele>
        <time>2022-04-17T11:16:31.000Z</time>
      </trkpt>
      <trkpt lat="42.96840093098580837249755859375" lon="-2.373284585773944854736328125">
        <ele>1017</ele>
        <time>2022-04-17T11:16:32.000Z</time>
      </trkpt>
      <trkpt lat="42.96840126626193523406982421875" lon="-2.3732827417552471160888671875">
        <ele>1017</ele>
        <time>2022-04-17T11:16:33.000Z</time>
      </trkpt>
      <trkpt lat="42.9684023559093475341796875" lon="-2.3732814006507396697998046875">
        <ele>1017.20001220703125</ele>
        <time>2022-04-17T11:16:34.000Z</time>
      </trkpt>
      <trkpt lat="42.96840361319482326507568359375" lon="-2.37327947281301021575927734375">
        <ele>1017.20001220703125</ele>
        <time>2022-04-17T11:16:35.000Z</time>
      </trkpt>
      <trkpt lat="42.9684035293757915496826171875" lon="-2.3732753656804561614990234375">
        <ele>1017.20001220703125</ele>
        <time>2022-04-17T11:16:36.000Z</time>
      </trkpt>
      <trkpt lat="42.96840168535709381103515625" lon="-2.37327209673821926116943359375">
        <ele>1017.4000244140625</ele>
        <time>2022-04-17T11:16:37.000Z</time>
      </trkpt>
      <trkpt lat="42.9683981649577617645263671875" lon="-2.37326840870082378387451171875">
        <ele>1017.4000244140625</ele>
        <time>2022-04-17T11:16:38.000Z</time>
      </trkpt>
      <trkpt lat="42.9683944769203662872314453125" lon="-2.37326254136860370635986328125">
        <ele>1017.4000244140625</ele>
        <time>2022-04-17T11:16:39.000Z</time>
      </trkpt>
      <trkpt lat="42.96839690767228603363037109375" lon="-2.37325985915958881378173828125">
        <ele>1017.5999755859375</ele>
        <time>2022-04-17T11:16:40.000Z</time>
      </trkpt>
      <trkpt lat="42.96839724294841289520263671875" lon="-2.3732508905231952667236328125">
        <ele>1017.5999755859375</ele>
        <time>2022-04-17T11:16:41.000Z</time>
      </trkpt>
      <trkpt lat="42.968394644558429718017578125" lon="-2.37324762158095836639404296875">
        <ele>1017.79998779296875</ele>
        <time>2022-04-17T11:16:42.000Z</time>
      </trkpt>
      <trkpt lat="42.96838785521686077117919921875" lon="-2.37324493937194347381591796875">
        <ele>1018</ele>
        <time>2022-04-17T11:16:43.000Z</time>
      </trkpt>
      <trkpt lat="42.968387268483638763427734375" lon="-2.37323530018329620361328125">
        <ele>1018</ele>
        <time>2022-04-17T11:16:44.000Z</time>
      </trkpt>
      <trkpt lat="42.968386597931385040283203125" lon="-2.37322499044239521026611328125">
        <ele>1018.20001220703125</ele>
        <time>2022-04-17T11:16:45.000Z</time>
      </trkpt>
      <trkpt lat="42.9683844186365604400634765625" lon="-2.37322314642369747161865234375">
        <ele>1018.4000244140625</ele>
        <time>2022-04-17T11:16:46.000Z</time>
      </trkpt>
      <trkpt lat="42.96838215552270412445068359375" lon="-2.37320755608379840850830078125">
        <ele>1018.5999755859375</ele>
        <time>2022-04-17T11:16:47.000Z</time>
      </trkpt>
      <trkpt lat="42.9683767072856426239013671875" lon="-2.37318811006844043731689453125">
        <ele>1018.5999755859375</ele>
        <time>2022-04-17T11:16:48.000Z</time>
      </trkpt>
      <trkpt lat="42.96837746165692806243896484375" lon="-2.37317805178463459014892578125">
        <ele>1018.79998779296875</ele>
        <time>2022-04-17T11:16:49.000Z</time>
      </trkpt>
      <trkpt lat="42.96838014386594295501708984375" lon="-2.37317025661468505859375">
        <ele>1019</ele>
        <time>2022-04-17T11:16:50.000Z</time>
      </trkpt>
      <trkpt lat="42.9683780483901500701904296875" lon="-2.37316480837762355804443359375">
        <ele>1019.20001220703125</ele>
        <time>2022-04-17T11:16:51.000Z</time>
      </trkpt>
      <trkpt lat="42.96837796457111835479736328125" lon="-2.3731660656630992889404296875">
        <ele>1019.20001220703125</ele>
        <time>2022-04-17T11:16:52.000Z</time>
      </trkpt>
      <trkpt lat="42.96838156878948211669921875" lon="-2.37315885722637176513671875">
        <ele>1019.4000244140625</ele>
        <time>2022-04-17T11:16:53.000Z</time>
      </trkpt>
      <trkpt lat="42.96838223934173583984375" lon="-2.3731519840657711029052734375">
        <ele>1019.5999755859375</ele>
        <time>2022-04-17T11:16:54.000Z</time>
      </trkpt>
      <trkpt lat="42.9683827422559261322021484375" lon="-2.37314410507678985595703125">
        <ele>1019.79998779296875</ele>
        <time>2022-04-17T11:16:55.000Z</time>
      </trkpt>
      <trkpt lat="42.9683787189424037933349609375" lon="-2.3731379024684429168701171875">
        <ele>1019.79998779296875</ele>
        <time>2022-04-17T11:16:56.000Z</time>
      </trkpt>
      <trkpt lat="42.96837762929499149322509765625" lon="-2.37312440760433673858642578125">
        <ele>1020</ele>
        <time>2022-04-17T11:16:57.000Z</time>
      </trkpt>
      <trkpt lat="42.9683768749237060546875" lon="-2.37311325967311859130859375">
        <ele>1020.20001220703125</ele>
        <time>2022-04-17T11:16:58.000Z</time>
      </trkpt>
      <trkpt lat="42.96837578527629375457763671875" lon="-2.37310043536126613616943359375">
        <ele>1020.4000244140625</ele>
        <time>2022-04-17T11:16:59.000Z</time>
      </trkpt>
      <trkpt lat="42.9683693312108516693115234375" lon="-2.37308735959231853485107421875">
        <ele>1020.5999755859375</ele>
        <time>2022-04-17T11:17:00.000Z</time>
      </trkpt>
      <trkpt lat="42.9683632962405681610107421875" lon="-2.3730742000043392181396484375">
        <ele>1020.79998779296875</ele>
        <time>2022-04-17T11:17:01.000Z</time>
      </trkpt>
      <trkpt lat="42.96835550107061862945556640625" lon="-2.3730614595115184783935546875">
        <ele>1021</ele>
        <time>2022-04-17T11:17:02.000Z</time>
      </trkpt>
      <trkpt lat="42.96834535896778106689453125" lon="-2.373046875">
        <ele>1021.20001220703125</ele>
        <time>2022-04-17T11:17:03.000Z</time>
      </trkpt>
      <trkpt lat="42.96833504922688007354736328125" lon="-2.37303790636360645294189453125">
        <ele>1021.4000244140625</ele>
        <time>2022-04-17T11:17:04.000Z</time>
      </trkpt>
      <trkpt lat="42.968333624303340911865234375" lon="-2.37303505651652812957763671875">
        <ele>1021.5999755859375</ele>
        <time>2022-04-17T11:17:05.000Z</time>
      </trkpt>
      <trkpt lat="42.96832918189465999603271484375" lon="-2.3730265907943248748779296875">
        <ele>1021.79998779296875</ele>
        <time>2022-04-17T11:17:06.000Z</time>
      </trkpt>
      <trkpt lat="42.96832817606627941131591796875" lon="-2.37300940789282321929931640625">
        <ele>1022</ele>
        <time>2022-04-17T11:17:07.000Z</time>
      </trkpt>
      <trkpt lat="42.968315184116363525390625" lon="-2.3730001039803028106689453125">
        <ele>1022</ele>
        <time>2022-04-17T11:17:08.000Z</time>
      </trkpt>
      <trkpt lat="42.96829707920551300048828125" lon="-2.37298962660133838653564453125">
        <ele>1022.20001220703125</ele>
        <time>2022-04-17T11:17:09.000Z</time>
      </trkpt>
      <trkpt lat="42.96828291378915309906005859375" lon="-2.3729897104203701019287109375">
        <ele>1022.20001220703125</ele>
        <time>2022-04-17T11:17:10.000Z</time>
      </trkpt>
      <trkpt lat="42.968266904354095458984375" lon="-2.37298308871686458587646484375">
        <ele>1022.4000244140625</ele>
        <time>2022-04-17T11:17:11.000Z</time>
      </trkpt>
      <trkpt lat="42.96825625933706760406494140625" lon="-2.37297168932855129241943359375">
        <ele>1022.4000244140625</ele>
        <time>2022-04-17T11:17:12.000Z</time>
      </trkpt>
      <trkpt lat="42.9682496376335620880126953125" lon="-2.37295635044574737548828125">
        <ele>1022.5999755859375</ele>
        <time>2022-04-17T11:17:13.000Z</time>
      </trkpt>
      <trkpt lat="42.96824754215776920318603515625" lon="-2.3729467950761318206787109375">
        <ele>1022.5999755859375</ele>
        <time>2022-04-17T11:17:14.000Z</time>
      </trkpt>
      <trkpt lat="42.968247123062610626220703125" lon="-2.372944615781307220458984375">
        <ele>1022.5999755859375</ele>
        <time>2022-04-17T11:17:15.000Z</time>
      </trkpt>
      <trkpt lat="42.9682476259768009185791015625" lon="-2.37294159829616546630859375">
        <ele>1022.79998779296875</ele>
        <time>2022-04-17T11:17:16.000Z</time>
      </trkpt>
      <trkpt lat="42.968250475823879241943359375" lon="-2.372931204736232757568359375">
        <ele>1022.79998779296875</ele>
        <time>2022-04-17T11:17:17.000Z</time>
      </trkpt>
      <trkpt lat="42.9682529903948307037353515625" lon="-2.37292173318564891815185546875">
        <ele>1023</ele>
        <time>2022-04-17T11:17:18.000Z</time>
      </trkpt>
      <trkpt lat="42.96825743280351161956787109375" lon="-2.37291343510150909423828125">
        <ele>1023.20001220703125</ele>
        <time>2022-04-17T11:17:19.000Z</time>
      </trkpt>
      <trkpt lat="42.96826011501252651214599609375" lon="-2.3729060590267181396484375">
        <ele>1023.4000244140625</ele>
        <time>2022-04-17T11:17:20.000Z</time>
      </trkpt>
      <trkpt lat="42.9682593606412410736083984375" lon="-2.372901700437068939208984375">
        <ele>1023.5999755859375</ele>
        <time>2022-04-17T11:17:21.000Z</time>
      </trkpt>
      <trkpt lat="42.9682586900889873504638671875" lon="-2.372899018228054046630859375">
        <ele>1023.79998779296875</ele>
        <time>2022-04-17T11:17:22.000Z</time>
      </trkpt>
      <trkpt lat="42.968255169689655303955078125" lon="-2.37289994023740291595458984375">
        <ele>1024</ele>
        <time>2022-04-17T11:17:23.000Z</time>
      </trkpt>
      <trkpt lat="42.96825055964291095733642578125" lon="-2.3728914745151996612548828125">
        <ele>1024.199951171875</ele>
        <time>2022-04-17T11:17:24.000Z</time>
      </trkpt>
      <trkpt lat="42.9682523198425769805908203125" lon="-2.37288753502070903778076171875">
        <ele>1024.199951171875</ele>
        <time>2022-04-17T11:17:25.000Z</time>
      </trkpt>
      <trkpt lat="42.96825190074741840362548828125" lon="-2.3728844337165355682373046875">
        <ele>1024.5999755859375</ele>
        <time>2022-04-17T11:17:26.000Z</time>
      </trkpt>
      <trkpt lat="42.96824754215776920318603515625" lon="-2.372880242764949798583984375">
        <ele>1024.5999755859375</ele>
        <time>2022-04-17T11:17:27.000Z</time>
      </trkpt>
      <trkpt lat="42.9682494699954986572265625" lon="-2.37287412397563457489013671875">
        <ele>1024.800048828125</ele>
        <time>2022-04-17T11:17:28.000Z</time>
      </trkpt>
      <trkpt lat="42.96825072728097438812255859375" lon="-2.37287311814725399017333984375">
        <ele>1025</ele>
        <time>2022-04-17T11:17:29.000Z</time>
      </trkpt>
      <trkpt lat="42.9682560078799724578857421875" lon="-2.372875548899173736572265625">
        <ele>1025.199951171875</ele>
        <time>2022-04-17T11:17:30.000Z</time>
      </trkpt>
      <trkpt lat="42.96826313249766826629638671875" lon="-2.372874878346920013427734375">
        <ele>1025.199951171875</ele>
        <time>2022-04-17T11:17:31.000Z</time>
      </trkpt>
      <trkpt lat="42.9682741127908229827880859375" lon="-2.372862808406352996826171875">
        <ele>1025.4000244140625</ele>
        <time>2022-04-17T11:17:32.000Z</time>
      </trkpt>
      <trkpt lat="42.968288026750087738037109375" lon="-2.37285149283707141876220703125">
        <ele>1025.4000244140625</ele>
        <time>2022-04-17T11:17:33.000Z</time>
      </trkpt>
      <trkpt lat="42.9682975821197032928466796875" lon="-2.372841350734233856201171875">
        <ele>1025.800048828125</ele>
        <time>2022-04-17T11:17:34.000Z</time>
      </trkpt>
      <trkpt lat="42.96830085106194019317626953125" lon="-2.37283422611653804779052734375">
        <ele>1026</ele>
        <time>2022-04-17T11:17:35.000Z</time>
      </trkpt>
      <trkpt lat="42.968299426138401031494140625" lon="-2.3728294484317302703857421875">
        <ele>1026.199951171875</ele>
        <time>2022-04-17T11:17:36.000Z</time>
      </trkpt>
      <trkpt lat="42.9682950675487518310546875" lon="-2.3728210665285587310791015625">
        <ele>1026.4000244140625</ele>
        <time>2022-04-17T11:17:37.000Z</time>
      </trkpt>
      <trkpt lat="42.96828961931169033050537109375" lon="-2.3728121817111968994140625">
        <ele>1026.5999755859375</ele>
        <time>2022-04-17T11:17:38.000Z</time>
      </trkpt>
      <trkpt lat="42.96828710474073886871337890625" lon="-2.37280522473156452178955078125">
        <ele>1026.5999755859375</ele>
        <time>2022-04-17T11:17:39.000Z</time>
      </trkpt>
      <trkpt lat="42.96828341670334339141845703125" lon="-2.37279566936194896697998046875">
        <ele>1026.5999755859375</ele>
        <time>2022-04-17T11:17:40.000Z</time>
      </trkpt>
      <trkpt lat="42.9682814888656139373779296875" lon="-2.3727853596210479736328125">
        <ele>1026.800048828125</ele>
        <time>2022-04-17T11:17:41.000Z</time>
      </trkpt>
      <trkpt lat="42.968280315399169921875" lon="-2.37277521751821041107177734375">
        <ele>1026.800048828125</ele>
        <time>2022-04-17T11:17:42.000Z</time>
      </trkpt>
      <trkpt lat="42.9682774655520915985107421875" lon="-2.37277270294725894927978515625">
        <ele>1027</ele>
        <time>2022-04-17T11:17:43.000Z</time>
      </trkpt>
      <trkpt lat="42.96827453188598155975341796875" lon="-2.372770272195339202880859375">
        <ele>1027.199951171875</ele>
        <time>2022-04-17T11:17:44.000Z</time>
      </trkpt>
      <trkpt lat="42.96827436424791812896728515625" lon="-2.37276633270084857940673828125">
        <ele>1027.199951171875</ele>
        <time>2022-04-17T11:17:45.000Z</time>
      </trkpt>
      <trkpt lat="42.96827872283756732940673828125" lon="-2.37276549451053142547607421875">
        <ele>1027.4000244140625</ele>
        <time>2022-04-17T11:17:46.000Z</time>
      </trkpt>
      <trkpt lat="42.9682804830372333526611328125" lon="-2.3727657459676265716552734375">
        <ele>1027.4000244140625</ele>
        <time>2022-04-17T11:17:47.000Z</time>
      </trkpt>
      <trkpt lat="42.9682774655520915985107421875" lon="-2.372764907777309417724609375">
        <ele>1027.5999755859375</ele>
        <time>2022-04-17T11:17:48.000Z</time>
      </trkpt>
      <trkpt lat="42.9682680778205394744873046875" lon="-2.3727612197399139404296875">
        <ele>1027.800048828125</ele>
        <time>2022-04-17T11:17:49.000Z</time>
      </trkpt>
      <trkpt lat="42.9682613722980022430419921875" lon="-2.37275920808315277099609375">
        <ele>1027.800048828125</ele>
        <time>2022-04-17T11:17:50.000Z</time>
      </trkpt>
      <trkpt lat="42.9682543314993381500244140625" lon="-2.3727526701986789703369140625">
        <ele>1028</ele>
        <time>2022-04-17T11:17:51.000Z</time>
      </trkpt>
      <trkpt lat="42.96825039200484752655029296875" lon="-2.37274873070418834686279296875">
        <ele>1028</ele>
        <time>2022-04-17T11:17:52.000Z</time>
      </trkpt>
      <trkpt lat="42.96824955381453037261962890625" lon="-2.3727451264858245849609375">
        <ele>1028.199951171875</ele>
        <time>2022-04-17T11:17:53.000Z</time>
      </trkpt>
      <trkpt lat="42.96825357712805271148681640625" lon="-2.3727382533252239227294921875">
        <ele>1028.4000244140625</ele>
        <time>2022-04-17T11:17:54.000Z</time>
      </trkpt>
      <trkpt lat="42.9682563431560993194580078125" lon="-2.372733391821384429931640625">
        <ele>1028.5999755859375</ele>
        <time>2022-04-17T11:17:55.000Z</time>
      </trkpt>
      <trkpt lat="42.9682563431560993194580078125" lon="-2.372733391821384429931640625">
        <ele>1028.5999755859375</ele>
        <time>2022-04-17T11:17:56.000Z</time>
      </trkpt>
      <trkpt lat="42.9682563431560993194580078125" lon="-2.372733391821384429931640625">
        <ele>1028.800048828125</ele>
        <time>2022-04-17T11:17:57.000Z</time>
      </trkpt>
      <trkpt lat="42.9682563431560993194580078125" lon="-2.372733391821384429931640625">
        <ele>1028.800048828125</ele>
        <time>2022-04-17T11:17:58.000Z</time>
      </trkpt>
      <trkpt lat="42.9682563431560993194580078125" lon="-2.372733391821384429931640625">
        <ele>1028.800048828125</ele>
        <time>2022-04-17T11:17:59.000Z</time>
      </trkpt>
      <trkpt lat="42.9682563431560993194580078125" lon="-2.372733391821384429931640625">
        <ele>1028.800048828125</ele>
        <time>2022-04-17T11:18:00.000Z</time>
      </trkpt>
      <trkpt lat="42.9682563431560993194580078125" lon="-2.372733391821384429931640625">
        <ele>1028.800048828125</ele>
        <time>2022-04-17T11:18:01.000Z</time>
      </trkpt>
      <trkpt lat="42.9682563431560993194580078125" lon="-2.372733391821384429931640625">
        <ele>1028.800048828125</ele>
        <time>2022-04-17T11:18:02.000Z</time>
      </trkpt>
      <trkpt lat="42.9682563431560993194580078125" lon="-2.372733391821384429931640625">
        <ele>1029</ele>
        <time>2022-04-17T11:18:03.000Z</time>
      </trkpt>
      <trkpt lat="42.9682563431560993194580078125" lon="-2.372733391821384429931640625">
        <ele>1029</ele>
        <time>2022-04-17T11:18:04.000Z</time>
      </trkpt>
      <trkpt lat="42.9682563431560993194580078125" lon="-2.372733391821384429931640625">
        <ele>1029.199951171875</ele>
        <time>2022-04-17T11:18:05.000Z</time>
      </trkpt>
      <trkpt lat="42.9682563431560993194580078125" lon="-2.372733391821384429931640625">
        <ele>1029.199951171875</ele>
        <time>2022-04-17T11:18:06.000Z</time>
      </trkpt>
      <trkpt lat="42.9682563431560993194580078125" lon="-2.372733391821384429931640625">
        <ele>1029.4000244140625</ele>
        <time>2022-04-17T11:18:07.000Z</time>
      </trkpt>
      <trkpt lat="42.96825340948998928070068359375" lon="-2.37272777594625949859619140625">
        <ele>1029.5999755859375</ele>
        <time>2022-04-17T11:18:08.000Z</time>
      </trkpt>
      <trkpt lat="42.96824670396745204925537109375" lon="-2.37271285615861415863037109375">
        <ele>1029.800048828125</ele>
        <time>2022-04-17T11:18:09.000Z</time>
      </trkpt>
      <trkpt lat="42.9682385735213756561279296875" lon="-2.3726950027048587799072265625">
        <ele>1030</ele>
        <time>2022-04-17T11:18:10.000Z</time>
      </trkpt>
      <trkpt lat="42.9682372324168682098388671875" lon="-2.372682094573974609375">
        <ele>1030.199951171875</ele>
        <time>2022-04-17T11:18:11.000Z</time>
      </trkpt>
      <trkpt lat="42.96823983080685138702392578125" lon="-2.372668348252773284912109375">
        <ele>1030.199951171875</ele>
        <time>2022-04-17T11:18:12.000Z</time>
      </trkpt>
      <trkpt lat="42.9682372324168682098388671875" lon="-2.37265862524509429931640625">
        <ele>1030.4000244140625</ele>
        <time>2022-04-17T11:18:13.000Z</time>
      </trkpt>
      <trkpt lat="42.9682322032749652862548828125" lon="-2.37264077179133892059326171875">
        <ele>1030.4000244140625</ele>
        <time>2022-04-17T11:18:14.000Z</time>
      </trkpt>
      <trkpt lat="42.96822826378047466278076171875" lon="-2.37262853421270847320556640625">
        <ele>1030.5999755859375</ele>
        <time>2022-04-17T11:18:15.000Z</time>
      </trkpt>
      <trkpt lat="42.9682278446853160858154296875" lon="-2.37261679954826831817626953125">
        <ele>1030.800048828125</ele>
        <time>2022-04-17T11:18:16.000Z</time>
      </trkpt>
      <trkpt lat="42.96822926960885524749755859375" lon="-2.3726068250834941864013671875">
        <ele>1030.800048828125</ele>
        <time>2022-04-17T11:18:17.000Z</time>
      </trkpt>
      <trkpt lat="42.96823111362755298614501953125" lon="-2.3725994490087032318115234375">
        <ele>1031</ele>
        <time>2022-04-17T11:18:18.000Z</time>
      </trkpt>
      <trkpt lat="42.96822994016110897064208984375" lon="-2.3725920729339122772216796875">
        <ele>1031.199951171875</ele>
        <time>2022-04-17T11:18:19.000Z</time>
      </trkpt>
      <trkpt lat="42.9682308621704578399658203125" lon="-2.37258343957364559173583984375">
        <ele>1031.4000244140625</ele>
        <time>2022-04-17T11:18:20.000Z</time>
      </trkpt>
      <trkpt lat="42.96822859905660152435302734375" lon="-2.37257740460336208343505859375">
        <ele>1031.4000244140625</ele>
        <time>2022-04-17T11:18:21.000Z</time>
      </trkpt>
      <trkpt lat="42.9682291857898235321044921875" lon="-2.3725702799856662750244140625">
        <ele>1031.5999755859375</ele>
        <time>2022-04-17T11:18:22.000Z</time>
      </trkpt>
      <trkpt lat="42.96822926960885524749755859375" lon="-2.372562400996685028076171875">
        <ele>1031.800048828125</ele>
        <time>2022-04-17T11:18:23.000Z</time>
      </trkpt>
      <trkpt lat="42.96823002398014068603515625" lon="-2.37255410291254520416259765625">
        <ele>1031.800048828125</ele>
        <time>2022-04-17T11:18:24.000Z</time>
      </trkpt>
      <trkpt lat="42.9682253301143646240234375" lon="-2.37254002131521701812744140625">
        <ele>1032</ele>
        <time>2022-04-17T11:18:25.000Z</time>
      </trkpt>
      <trkpt lat="42.9682241566479206085205078125" lon="-2.37253247760236263275146484375">
        <ele>1032.199951171875</ele>
        <time>2022-04-17T11:18:26.000Z</time>
      </trkpt>
      <trkpt lat="42.96822289936244487762451171875" lon="-2.37252560444176197052001953125">
        <ele>1032.199951171875</ele>
        <time>2022-04-17T11:18:27.000Z</time>
      </trkpt>
      <trkpt lat="42.9682244919240474700927734375" lon="-2.3725233413279056549072265625">
        <ele>1032.4000244140625</ele>
        <time>2022-04-17T11:18:28.000Z</time>
      </trkpt>
      <trkpt lat="42.968226335942745208740234375" lon="-2.3725236766040325164794921875">
        <ele>1032.5999755859375</ele>
        <time>2022-04-17T11:18:29.000Z</time>
      </trkpt>
      <trkpt lat="42.96822574920952320098876953125" lon="-2.37251780927181243896484375">
        <ele>1032.800048828125</ele>
        <time>2022-04-17T11:18:30.000Z</time>
      </trkpt>
      <trkpt lat="42.96822356991469860076904296875" lon="-2.37251579761505126953125">
        <ele>1032.800048828125</ele>
        <time>2022-04-17T11:18:31.000Z</time>
      </trkpt>
      <trkpt lat="42.9682201333343982696533203125" lon="-2.3725072480738162994384765625">
        <ele>1033</ele>
        <time>2022-04-17T11:18:32.000Z</time>
      </trkpt>
      <trkpt lat="42.9682218097150325775146484375" lon="-2.372496686875820159912109375">
        <ele>1033</ele>
        <time>2022-04-17T11:18:33.000Z</time>
      </trkpt>
      <trkpt lat="42.96821837313473224639892578125" lon="-2.37246944569051265716552734375">
        <ele>1033</ele>
        <time>2022-04-17T11:18:34.000Z</time>
      </trkpt>
      <trkpt lat="42.96821393072605133056640625" lon="-2.37244714982807636260986328125">
        <ele>1033.199951171875</ele>
        <time>2022-04-17T11:18:35.000Z</time>
      </trkpt>
      <trkpt lat="42.96821099705994129180908203125" lon="-2.37242720089852809906005859375">
        <ele>1033.199951171875</ele>
        <time>2022-04-17T11:18:36.000Z</time>
      </trkpt>
      <trkpt lat="42.9682065546512603759765625" lon="-2.37241228111088275909423828125">
        <ele>1033.199951171875</ele>
        <time>2022-04-17T11:18:37.000Z</time>
      </trkpt>
      <trkpt lat="42.9681958258152008056640625" lon="-2.372403480112552642822265625">
        <ele>1033.5999755859375</ele>
        <time>2022-04-17T11:18:38.000Z</time>
      </trkpt>
      <trkpt lat="42.9681904613971710205078125" lon="-2.37239442765712738037109375">
        <ele>1033.800048828125</ele>
        <time>2022-04-17T11:18:39.000Z</time>
      </trkpt>
      <trkpt lat="42.96818308532238006591796875" lon="-2.3723848722875118255615234375">
        <ele>1034</ele>
        <time>2022-04-17T11:18:40.000Z</time>
      </trkpt>
      <trkpt lat="42.96817629598081111907958984375" lon="-2.3723744787275791168212890625">
        <ele>1034.199951171875</ele>
        <time>2022-04-17T11:18:41.000Z</time>
      </trkpt>
      <trkpt lat="42.96817361377179622650146484375" lon="-2.3723624087870121002197265625">
        <ele>1034.199951171875</ele>
        <time>2022-04-17T11:18:42.000Z</time>
      </trkpt>
      <trkpt lat="42.96817763708531856536865234375" lon="-2.37234774045646190643310546875">
        <ele>1034.4000244140625</ele>
        <time>2022-04-17T11:18:43.000Z</time>
      </trkpt>
      <trkpt lat="42.96817906200885772705078125" lon="-2.37233650870621204376220703125">
        <ele>1034.4000244140625</ele>
        <time>2022-04-17T11:18:44.000Z</time>
      </trkpt>
      <trkpt lat="42.96817495487630367279052734375" lon="-2.372325696051120758056640625">
        <ele>1034.5999755859375</ele>
        <time>2022-04-17T11:18:45.000Z</time>
      </trkpt>
      <trkpt lat="42.96816833317279815673828125" lon="-2.37231471575796604156494140625">
        <ele>1034.5999755859375</ele>
        <time>2022-04-17T11:18:46.000Z</time>
      </trkpt>
      <trkpt lat="42.9681597836315631866455078125" lon="-2.3723023943603038787841796875">
        <ele>1034.5999755859375</ele>
        <time>2022-04-17T11:18:47.000Z</time>
      </trkpt>
      <trkpt lat="42.96814796514809131622314453125" lon="-2.372286804020404815673828125">
        <ele>1034.5999755859375</ele>
        <time>2022-04-17T11:18:48.000Z</time>
      </trkpt>
      <trkpt lat="42.96814360655844211578369140625" lon="-2.37227582372725009918212890625">
        <ele>1034.800048828125</ele>
        <time>2022-04-17T11:18:49.000Z</time>
      </trkpt>
      <trkpt lat="42.96814008615911006927490234375" lon="-2.372264005243778228759765625">
        <ele>1034.800048828125</ele>
        <time>2022-04-17T11:18:50.000Z</time>
      </trkpt>
      <trkpt lat="42.96814343892037868499755859375" lon="-2.37225067801773548126220703125">
        <ele>1035</ele>
        <time>2022-04-17T11:18:51.000Z</time>
      </trkpt>
      <trkpt lat="42.9681426845490932464599609375" lon="-2.3722427152097225189208984375">
        <ele>1035.199951171875</ele>
        <time>2022-04-17T11:18:52.000Z</time>
      </trkpt>
      <trkpt lat="42.9681301116943359375" lon="-2.3722363449633121490478515625">
        <ele>1035.4000244140625</ele>
        <time>2022-04-17T11:18:53.000Z</time>
      </trkpt>
      <trkpt lat="42.96812030486762523651123046875" lon="-2.37223240546882152557373046875">
        <ele>1035.4000244140625</ele>
        <time>2022-04-17T11:18:54.000Z</time>
      </trkpt>
      <trkpt lat="42.96810890547931194305419921875" lon="-2.37222804687917232513427734375">
        <ele>1035.5999755859375</ele>
        <time>2022-04-17T11:18:55.000Z</time>
      </trkpt>
      <trkpt lat="42.96810538507997989654541015625" lon="-2.37222435884177684783935546875">
        <ele>1035.5999755859375</ele>
        <time>2022-04-17T11:18:56.000Z</time>
      </trkpt>
      <trkpt lat="42.968102954328060150146484375" lon="-2.3722249455749988555908203125">
        <ele>1035.5999755859375</ele>
        <time>2022-04-17T11:18:57.000Z</time>
      </trkpt>
      <trkpt lat="42.96810052357614040374755859375" lon="-2.37222804687917232513427734375">
        <ele>1035.800048828125</ele>
        <time>2022-04-17T11:18:58.000Z</time>
      </trkpt>
      <trkpt lat="42.96810052357614040374755859375" lon="-2.37222838215529918670654296875">
        <ele>1035.800048828125</ele>
        <time>2022-04-17T11:18:59.000Z</time>
      </trkpt>
      <trkpt lat="42.96810370869934558868408203125" lon="-2.37222737632691860198974609375">
        <ele>1036</ele>
        <time>2022-04-17T11:19:00.000Z</time>
      </trkpt>
      <trkpt lat="42.9681051336228847503662109375" lon="-2.372221760451793670654296875">
        <ele>1036</ele>
        <time>2022-04-17T11:19:01.000Z</time>
      </trkpt>
      <trkpt lat="42.9681037925183773040771484375" lon="-2.37221664749085903167724609375">
        <ele>1036.199951171875</ele>
        <time>2022-04-17T11:19:02.000Z</time>
      </trkpt>
      <trkpt lat="42.96810471452772617340087890625" lon="-2.3722078464925289154052734375">
        <ele>1036.4000244140625</ele>
        <time>2022-04-17T11:19:03.000Z</time>
      </trkpt>
      <trkpt lat="42.96810873784124851226806640625" lon="-2.37219502218067646026611328125">
        <ele>1036.4000244140625</ele>
        <time>2022-04-17T11:19:04.000Z</time>
      </trkpt>
      <trkpt lat="42.9681118391454219818115234375" lon="-2.372186891734600067138671875">
        <ele>1036.5999755859375</ele>
        <time>2022-04-17T11:19:05.000Z</time>
      </trkpt>
      <trkpt lat="42.968113683164119720458984375" lon="-2.37217993475496768951416015625">
        <ele>1036.5999755859375</ele>
        <time>2022-04-17T11:19:06.000Z</time>
      </trkpt>
      <trkpt lat="42.9681111685931682586669921875" lon="-2.3721753247082233428955078125">
        <ele>1036.800048828125</ele>
        <time>2022-04-17T11:19:07.000Z</time>
      </trkpt>
      <trkpt lat="42.96810588799417018890380859375" lon="-2.3721709661185741424560546875">
        <ele>1036.800048828125</ele>
        <time>2022-04-17T11:19:08.000Z</time>
      </trkpt>
      <trkpt lat="42.96810261905193328857421875" lon="-2.37216752953827381134033203125">
        <ele>1037</ele>
        <time>2022-04-17T11:19:09.000Z</time>
      </trkpt>
      <trkpt lat="42.96809985302388668060302734375" lon="-2.37215965054929256439208984375">
        <ele>1037</ele>
        <time>2022-04-17T11:19:10.000Z</time>
      </trkpt>
      <trkpt lat="42.96809130348265171051025390625" lon="-2.3721662722527980804443359375">
        <ele>1037.199951171875</ele>
        <time>2022-04-17T11:19:11.000Z</time>
      </trkpt>
      <trkpt lat="42.9680809937417507171630859375" lon="-2.3721723072230815887451171875">
        <ele>1037.4000244140625</ele>
        <time>2022-04-17T11:19:12.000Z</time>
      </trkpt>
      <trkpt lat="42.96807386912405490875244140625" lon="-2.37218094058334827423095703125">
        <ele>1037.4000244140625</ele>
        <time>2022-04-17T11:19:13.000Z</time>
      </trkpt>
      <trkpt lat="42.96806330792605876922607421875" lon="-2.37218655645847320556640625">
        <ele>1037.5999755859375</ele>
        <time>2022-04-17T11:19:14.000Z</time>
      </trkpt>
      <trkpt lat="42.96805174089968204498291015625" lon="-2.37218932248651981353759765625">
        <ele>1037.5999755859375</ele>
        <time>2022-04-17T11:19:15.000Z</time>
      </trkpt>
      <trkpt lat="42.96803933568298816680908203125" lon="-2.37219535745680332183837890625">
        <ele>1037.5999755859375</ele>
        <time>2022-04-17T11:19:16.000Z</time>
      </trkpt>
      <trkpt lat="42.96802877448499202728271484375" lon="-2.3721991293132305145263671875">
        <ele>1037.5999755859375</ele>
        <time>2022-04-17T11:19:17.000Z</time>
      </trkpt>
      <trkpt lat="42.9680233262479305267333984375" lon="-2.37220088951289653778076171875">
        <ele>1037.800048828125</ele>
        <time>2022-04-17T11:19:18.000Z</time>
      </trkpt>
      <trkpt lat="42.968019135296344757080078125" lon="-2.37219317816197872161865234375">
        <ele>1037.800048828125</ele>
        <time>2022-04-17T11:19:19.000Z</time>
      </trkpt>
      <trkpt lat="42.9680169560015201568603515625" lon="-2.3721823655068874359130859375">
        <ele>1037.800048828125</ele>
        <time>2022-04-17T11:19:20.000Z</time>
      </trkpt>
      <trkpt lat="42.96801745891571044921875" lon="-2.3721763305366039276123046875">
        <ele>1037.800048828125</ele>
        <time>2022-04-17T11:19:21.000Z</time>
      </trkpt>
      <trkpt lat="42.96801888383924961090087890625" lon="-2.372174151241779327392578125">
        <ele>1037.800048828125</ele>
        <time>2022-04-17T11:19:22.000Z</time>
      </trkpt>
      <trkpt lat="42.96801972202956676483154296875" lon="-2.372177504003047943115234375">
        <ele>1037.800048828125</ele>
        <time>2022-04-17T11:19:23.000Z</time>
      </trkpt>
      <trkpt lat="42.96802056021988391876220703125" lon="-2.372182197868824005126953125">
        <ele>1038</ele>
        <time>2022-04-17T11:19:24.000Z</time>
      </trkpt>
      <trkpt lat="42.968023829162120819091796875" lon="-2.3721813596785068511962890625">
        <ele>1038</ele>
        <time>2022-04-17T11:19:25.000Z</time>
      </trkpt>
      <trkpt lat="42.96802307479083538055419921875" lon="-2.37217624671757221221923828125">
        <ele>1037.800048828125</ele>
        <time>2022-04-17T11:19:26.000Z</time>
      </trkpt>
      <trkpt lat="42.968022488057613372802734375" lon="-2.37217943184077739715576171875">
        <ele>1037.800048828125</ele>
        <time>2022-04-17T11:19:27.000Z</time>
      </trkpt>
      <trkpt lat="42.968026511371135711669921875" lon="-2.3721853829920291900634765625">
        <ele>1037.800048828125</ele>
        <time>2022-04-17T11:19:28.000Z</time>
      </trkpt>
      <trkpt lat="42.96802885830402374267578125" lon="-2.3721877299249172210693359375">
        <ele>1037.800048828125</ele>
        <time>2022-04-17T11:19:29.000Z</time>
      </trkpt>
      <trkpt lat="42.9680276848375797271728515625" lon="-2.37219016067683696746826171875">
        <ele>1037.5999755859375</ele>
        <time>2022-04-17T11:19:30.000Z</time>
      </trkpt>
      <trkpt lat="42.96802609227597713470458984375" lon="-2.3721899092197418212890625">
        <ele>1037.5999755859375</ele>
        <time>2022-04-17T11:19:31.000Z</time>
      </trkpt>
      <trkpt lat="42.96802751719951629638671875" lon="-2.37218655645847320556640625">
        <ele>1037.5999755859375</ele>
        <time>2022-04-17T11:19:32.000Z</time>
      </trkpt>
      <trkpt lat="42.96802491880953311920166015625" lon="-2.372185885906219482421875">
        <ele>1037.5999755859375</ele>
        <time>2022-04-17T11:19:33.000Z</time>
      </trkpt>
      <trkpt lat="42.968019805848598480224609375" lon="-2.3721816949546337127685546875">
        <ele>1037.5999755859375</ele>
        <time>2022-04-17T11:19:34.000Z</time>
      </trkpt>
      <trkpt lat="42.96801804564893245697021484375" lon="-2.372175157070159912109375">
        <ele>1037.5999755859375</ele>
        <time>2022-04-17T11:19:35.000Z</time>
      </trkpt>
      <trkpt lat="42.96801804564893245697021484375" lon="-2.372175157070159912109375">
        <ele>1037.5999755859375</ele>
        <time>2022-04-17T11:19:36.000Z</time>
      </trkpt>
      <trkpt lat="42.96801804564893245697021484375" lon="-2.372175157070159912109375">
        <ele>1037.5999755859375</ele>
        <time>2022-04-17T11:19:37.000Z</time>
      </trkpt>
      <trkpt lat="42.96801804564893245697021484375" lon="-2.372175157070159912109375">
        <ele>1037.4000244140625</ele>
        <time>2022-04-17T11:19:38.000Z</time>
      </trkpt>
      <trkpt lat="42.96801804564893245697021484375" lon="-2.372175157070159912109375">
        <ele>1037.4000244140625</ele>
        <time>2022-04-17T11:19:39.000Z</time>
      </trkpt>
      <trkpt lat="42.96801804564893245697021484375" lon="-2.372175157070159912109375">
        <ele>1037.4000244140625</ele>
        <time>2022-04-17T11:19:40.000Z</time>
      </trkpt>
      <trkpt lat="42.96801804564893245697021484375" lon="-2.372175157070159912109375">
        <ele>1037.4000244140625</ele>
        <time>2022-04-17T11:19:41.000Z</time>
      </trkpt>
      <trkpt lat="42.96801804564893245697021484375" lon="-2.372175157070159912109375">
        <ele>1037.4000244140625</ele>
        <time>2022-04-17T11:19:42.000Z</time>
      </trkpt>
      <trkpt lat="42.96801804564893245697021484375" lon="-2.372175157070159912109375">
        <ele>1037.4000244140625</ele>
        <time>2022-04-17T11:19:43.000Z</time>
      </trkpt>
      <trkpt lat="42.96801812946796417236328125" lon="-2.372175157070159912109375">
        <ele>1037.4000244140625</ele>
        <time>2022-04-17T11:19:44.000Z</time>
      </trkpt>
      <trkpt lat="42.9680188000202178955078125" lon="-2.372175157070159912109375">
        <ele>1037.5999755859375</ele>
        <time>2022-04-17T11:19:45.000Z</time>
      </trkpt>
      <trkpt lat="42.9680196382105350494384765625" lon="-2.372175157070159912109375">
        <ele>1037.5999755859375</ele>
        <time>2022-04-17T11:19:46.000Z</time>
      </trkpt>
      <trkpt lat="42.968019805848598480224609375" lon="-2.372175157070159912109375">
        <ele>1037.5999755859375</ele>
        <time>2022-04-17T11:19:47.000Z</time>
      </trkpt>
      <trkpt lat="42.968020141124725341796875" lon="-2.372175157070159912109375">
        <ele>1037.800048828125</ele>
        <time>2022-04-17T11:19:48.000Z</time>
      </trkpt>
      <trkpt lat="42.96802056021988391876220703125" lon="-2.372175157070159912109375">
        <ele>1038</ele>
        <time>2022-04-17T11:19:49.000Z</time>
      </trkpt>
      <trkpt lat="42.96802089549601078033447265625" lon="-2.372175157070159912109375">
        <ele>1038.199951171875</ele>
        <time>2022-04-17T11:19:50.000Z</time>
      </trkpt>
      <trkpt lat="42.9680209793150424957275390625" lon="-2.37217088229954242706298828125">
        <ele>1038.4000244140625</ele>
        <time>2022-04-17T11:19:51.000Z</time>
      </trkpt>
      <trkpt lat="42.9680209793150424957275390625" lon="-2.3721679486334323883056640625">
        <ele>1038.4000244140625</ele>
        <time>2022-04-17T11:19:52.000Z</time>
      </trkpt>
      <trkpt lat="42.9680209793150424957275390625" lon="-2.37216467969119548797607421875">
        <ele>1038.5999755859375</ele>
        <time>2022-04-17T11:19:53.000Z</time>
      </trkpt>
      <trkpt lat="42.9680209793150424957275390625" lon="-2.37216283567249774932861328125">
        <ele>1038.800048828125</ele>
        <time>2022-04-17T11:19:54.000Z</time>
      </trkpt>
      <trkpt lat="42.9680209793150424957275390625" lon="-2.3721578903496265411376953125">
        <ele>1039</ele>
        <time>2022-04-17T11:19:55.000Z</time>
      </trkpt>
      <trkpt lat="42.9680209793150424957275390625" lon="-2.372152693569660186767578125">
        <ele>1039.199951171875</ele>
        <time>2022-04-17T11:19:56.000Z</time>
      </trkpt>
      <trkpt lat="42.9680206440389156341552734375" lon="-2.3721505142748355865478515625">
        <ele>1039.4000244140625</ele>
        <time>2022-04-17T11:19:57.000Z</time>
      </trkpt>
      <trkpt lat="42.96802056021988391876220703125" lon="-2.37214565277099609375">
        <ele>1039.5999755859375</ele>
        <time>2022-04-17T11:19:58.000Z</time>
      </trkpt>
      <trkpt lat="42.968020141124725341796875" lon="-2.372140623629093170166015625">
        <ele>1039.5999755859375</ele>
        <time>2022-04-17T11:19:59.000Z</time>
      </trkpt>
      <trkpt lat="42.96801988966763019561767578125" lon="-2.37214003689587116241455078125">
        <ele>1039.5999755859375</ele>
        <time>2022-04-17T11:20:00.000Z</time>
      </trkpt>
      <trkpt lat="42.96801972202956676483154296875" lon="-2.37213584594428539276123046875">
        <ele>1039.800048828125</ele>
        <time>2022-04-17T11:20:01.000Z</time>
      </trkpt>
      <trkpt lat="42.9680189676582813262939453125" lon="-2.3721317388117313385009765625">
        <ele>1039.800048828125</ele>
        <time>2022-04-17T11:20:02.000Z</time>
      </trkpt>
      <trkpt lat="42.9680182971060276031494140625" lon="-2.37212696112692356109619140625">
        <ele>1040</ele>
        <time>2022-04-17T11:20:03.000Z</time>
      </trkpt>
      <trkpt lat="42.96801804564893245697021484375" lon="-2.37212562002241611480712890625">
        <ele>1040</ele>
        <time>2022-04-17T11:20:04.000Z</time>
      </trkpt>
      <trkpt lat="42.9680172912776470184326171875" lon="-2.372124530375003814697265625">
        <ele>1040</ele>
        <time>2022-04-17T11:20:05.000Z</time>
      </trkpt>
      <trkpt lat="42.9680161178112030029296875" lon="-2.37212126143276691436767578125">
        <ele>1040.199951171875</ele>
        <time>2022-04-17T11:20:06.000Z</time>
      </trkpt>
      <trkpt lat="42.968013770878314971923828125" lon="-2.372117824852466583251953125">
        <ele>1040.199951171875</ele>
        <time>2022-04-17T11:20:07.000Z</time>
      </trkpt>
      <trkpt lat="42.9680092446506023406982421875" lon="-2.37211304716765880584716796875">
        <ele>1040.4000244140625</ele>
        <time>2022-04-17T11:20:08.000Z</time>
      </trkpt>
      <trkpt lat="42.96800564043223857879638671875" lon="-2.37210650928318500518798828125">
        <ele>1040.4000244140625</ele>
        <time>2022-04-17T11:20:09.000Z</time>
      </trkpt>
      <trkpt lat="42.9680032096803188323974609375" lon="-2.37209938466548919677734375">
        <ele>1040.5999755859375</ele>
        <time>2022-04-17T11:20:10.000Z</time>
      </trkpt>
      <trkpt lat="42.96800279058516025543212890625" lon="-2.37209175713360309600830078125">
        <ele>1040.5999755859375</ele>
        <time>2022-04-17T11:20:11.000Z</time>
      </trkpt>
      <trkpt lat="42.9680018685758113861083984375" lon="-2.37208169884979724884033203125">
        <ele>1040.800048828125</ele>
        <time>2022-04-17T11:20:12.000Z</time>
      </trkpt>
      <trkpt lat="42.96800128184258937835693359375" lon="-2.37207130528986454010009765625">
        <ele>1040.800048828125</ele>
        <time>2022-04-17T11:20:13.000Z</time>
      </trkpt>
      <trkpt lat="42.96800044365227222442626953125" lon="-2.37206711433827877044677734375">
        <ele>1041</ele>
        <time>2022-04-17T11:20:14.000Z</time>
      </trkpt>
      <trkpt lat="42.9679991863667964935302734375" lon="-2.37206493504345417022705078125">
        <ele>1041</ele>
        <time>2022-04-17T11:20:15.000Z</time>
      </trkpt>
      <trkpt lat="42.96799843199551105499267578125" lon="-2.3720638453960418701171875">
        <ele>1041.199951171875</ele>
        <time>2022-04-17T11:20:16.000Z</time>
      </trkpt>
      <trkpt lat="42.96799709089100360870361328125" lon="-2.37206024117767810821533203125">
        <ele>1041.4000244140625</ele>
        <time>2022-04-17T11:20:17.000Z</time>
      </trkpt>
      <trkpt lat="42.96799558214843273162841796875" lon="-2.37205387093126773834228515625">
        <ele>1041.5999755859375</ele>
        <time>2022-04-17T11:20:18.000Z</time>
      </trkpt>
      <trkpt lat="42.9679944925010204315185546875" lon="-2.37204934470355510711669921875">
        <ele>1041.800048828125</ele>
        <time>2022-04-17T11:20:19.000Z</time>
      </trkpt>
      <trkpt lat="42.96799273230135440826416015625" lon="-2.37204305827617645263671875">
        <ele>1041.800048828125</ele>
        <time>2022-04-17T11:20:20.000Z</time>
      </trkpt>
      <trkpt lat="42.9679908044636249542236328125" lon="-2.37203258089721202850341796875">
        <ele>1042</ele>
        <time>2022-04-17T11:20:21.000Z</time>
      </trkpt>
      <trkpt lat="42.96798854134976863861083984375" lon="-2.3720140568912029266357421875">
        <ele>1042</ele>
        <time>2022-04-17T11:20:22.000Z</time>
      </trkpt>
      <trkpt lat="42.96798150055110454559326171875" lon="-2.37198664806783199310302734375">
        <ele>1042.199951171875</ele>
        <time>2022-04-17T11:20:23.000Z</time>
      </trkpt>
      <trkpt lat="42.967983596026897430419921875" lon="-2.3719506897032260894775390625">
        <ele>1042.4000244140625</ele>
        <time>2022-04-17T11:20:24.000Z</time>
      </trkpt>
      <trkpt lat="42.96798820607364177703857421875" lon="-2.371911965310573577880859375">
        <ele>1042.4000244140625</ele>
        <time>2022-04-17T11:20:25.000Z</time>
      </trkpt>
      <trkpt lat="42.96798527240753173828125" lon="-2.37188522703945636749267578125">
        <ele>1042.800048828125</ele>
        <time>2022-04-17T11:20:26.000Z</time>
      </trkpt>
      <trkpt lat="42.9679785668849945068359375" lon="-2.3718564771115779876708984375">
        <ele>1042.800048828125</ele>
        <time>2022-04-17T11:20:27.000Z</time>
      </trkpt>
      <trkpt lat="42.96797680668532848358154296875" lon="-2.371832169592380523681640625">
        <ele>1043</ele>
        <time>2022-04-17T11:20:28.000Z</time>
      </trkpt>
      <trkpt lat="42.96797714196145534515380859375" lon="-2.37180828116834163665771484375">
        <ele>1043.199951171875</ele>
        <time>2022-04-17T11:20:29.000Z</time>
      </trkpt>
      <trkpt lat="42.9679740406572818756103515625" lon="-2.37178531475365161895751953125">
        <ele>1043.199951171875</ele>
        <time>2022-04-17T11:20:30.000Z</time>
      </trkpt>
      <trkpt lat="42.967977225780487060546875" lon="-2.371769137680530548095703125">
        <ele>1043.4000244140625</ele>
        <time>2022-04-17T11:20:31.000Z</time>
      </trkpt>
      <trkpt lat="42.96798183582723140716552734375" lon="-2.3717612586915493011474609375">
        <ele>1043.5999755859375</ele>
        <time>2022-04-17T11:20:32.000Z</time>
      </trkpt>
      <trkpt lat="42.96798652969300746917724609375" lon="-2.371756732463836669921875">
        <ele>1043.800048828125</ele>
        <time>2022-04-17T11:20:33.000Z</time>
      </trkpt>
      <trkpt lat="42.96798250637948513031005859375" lon="-2.37175061367452144622802734375">
        <ele>1044</ele>
        <time>2022-04-17T11:20:34.000Z</time>
      </trkpt>
      <trkpt lat="42.967979572713375091552734375" lon="-2.3717414774000644683837890625">
        <ele>1044.199951171875</ele>
        <time>2022-04-17T11:20:35.000Z</time>
      </trkpt>
      <trkpt lat="42.96797563321888446807861328125" lon="-2.37173259258270263671875">
        <ele>1044.4000244140625</ele>
        <time>2022-04-17T11:20:36.000Z</time>
      </trkpt>
      <trkpt lat="42.967975549399852752685546875" lon="-2.37172194756567478179931640625">
        <ele>1044.4000244140625</ele>
        <time>2022-04-17T11:20:37.000Z</time>
      </trkpt>
      <trkpt lat="42.96798116527497768402099609375" lon="-2.37171457149088382720947265625">
        <ele>1044.5999755859375</ele>
        <time>2022-04-17T11:20:38.000Z</time>
      </trkpt>
      <trkpt lat="42.967984937131404876708984375" lon="-2.37170468084514141082763671875">
        <ele>1044.800048828125</ele>
        <time>2022-04-17T11:20:39.000Z</time>
      </trkpt>
      <trkpt lat="42.967984266579151153564453125" lon="-2.37169814296066761016845703125">
        <ele>1045</ele>
        <time>2022-04-17T11:20:40.000Z</time>
      </trkpt>
      <trkpt lat="42.96798367984592914581298828125" lon="-2.371688671410083770751953125">
        <ele>1045.199951171875</ele>
        <time>2022-04-17T11:20:41.000Z</time>
      </trkpt>
      <trkpt lat="42.9679804109036922454833984375" lon="-2.37168238498270511627197265625">
        <ele>1045.199951171875</ele>
        <time>2022-04-17T11:20:42.000Z</time>
      </trkpt>
      <trkpt lat="42.96798191964626312255859375" lon="-2.371676266193389892578125">
        <ele>1045.199951171875</ele>
        <time>2022-04-17T11:20:43.000Z</time>
      </trkpt>
      <trkpt lat="42.9679810814559459686279296875" lon="-2.37166981212794780731201171875">
        <ele>1045.199951171875</ele>
        <time>2022-04-17T11:20:44.000Z</time>
      </trkpt>
      <trkpt lat="42.96797865070402622222900390625" lon="-2.371662519872188568115234375">
        <ele>1045.4000244140625</ele>
        <time>2022-04-17T11:20:45.000Z</time>
      </trkpt>
      <trkpt lat="42.9679770581424236297607421875" lon="-2.37165304832160472869873046875">
        <ele>1045.4000244140625</ele>
        <time>2022-04-17T11:20:46.000Z</time>
      </trkpt>
      <trkpt lat="42.96797915361821651458740234375" lon="-2.37164667807519435882568359375">
        <ele>1045.5999755859375</ele>
        <time>2022-04-17T11:20:47.000Z</time>
      </trkpt>
      <trkpt lat="42.96797948889434337615966796875" lon="-2.37164533697068691253662109375">
        <ele>1045.800048828125</ele>
        <time>2022-04-17T11:20:48.000Z</time>
      </trkpt>
      <trkpt lat="42.96797479502856731414794921875" lon="-2.37164751626551151275634765625">
        <ele>1045.800048828125</ele>
        <time>2022-04-17T11:20:49.000Z</time>
      </trkpt>
      <trkpt lat="42.96797077171504497528076171875" lon="-2.3716492764651775360107421875">
        <ele>1045.800048828125</ele>
        <time>2022-04-17T11:20:50.000Z</time>
      </trkpt>
      <trkpt lat="42.96796758659183979034423828125" lon="-2.37164785154163837432861328125">
        <ele>1045.800048828125</ele>
        <time>2022-04-17T11:20:51.000Z</time>
      </trkpt>
      <trkpt lat="42.96796507202088832855224609375" lon="-2.37164475023746490478515625">
        <ele>1045.800048828125</ele>
        <time>2022-04-17T11:20:52.000Z</time>
      </trkpt>
      <trkpt lat="42.96796440146863460540771484375" lon="-2.37164131365716457366943359375">
        <ele>1045.800048828125</ele>
        <time>2022-04-17T11:20:53.000Z</time>
      </trkpt>
      <trkpt lat="42.967964150011539459228515625" lon="-2.3716239631175994873046875">
        <ele>1045.800048828125</ele>
        <time>2022-04-17T11:20:54.000Z</time>
      </trkpt>
      <trkpt lat="42.9679616354405879974365234375" lon="-2.3716130666434764862060546875">
        <ele>1045.800048828125</ele>
        <time>2022-04-17T11:20:55.000Z</time>
      </trkpt>
      <trkpt lat="42.9679616354405879974365234375" lon="-2.3716130666434764862060546875">
        <ele>1045.800048828125</ele>
        <time>2022-04-17T11:20:56.000Z</time>
      </trkpt>
      <trkpt lat="42.9679616354405879974365234375" lon="-2.3716130666434764862060546875">
        <ele>1045.800048828125</ele>
        <time>2022-04-17T11:20:57.000Z</time>
      </trkpt>
      <trkpt lat="42.9679616354405879974365234375" lon="-2.3716130666434764862060546875">
        <ele>1045.800048828125</ele>
        <time>2022-04-17T11:20:58.000Z</time>
      </trkpt>
      <trkpt lat="42.9679616354405879974365234375" lon="-2.3716130666434764862060546875">
        <ele>1045.800048828125</ele>
        <time>2022-04-17T11:20:59.000Z</time>
      </trkpt>
      <trkpt lat="42.9679616354405879974365234375" lon="-2.3716130666434764862060546875">
        <ele>1045.800048828125</ele>
        <time>2022-04-17T11:21:00.000Z</time>
      </trkpt>
      <trkpt lat="42.9679616354405879974365234375" lon="-2.3716130666434764862060546875">
        <ele>1045.800048828125</ele>
        <time>2022-04-17T11:21:01.000Z</time>
      </trkpt>
      <trkpt lat="42.9679616354405879974365234375" lon="-2.3716130666434764862060546875">
        <ele>1045.800048828125</ele>
        <time>2022-04-17T11:21:02.000Z</time>
      </trkpt>
      <trkpt lat="42.9679616354405879974365234375" lon="-2.3716130666434764862060546875">
        <ele>1046</ele>
        <time>2022-04-17T11:21:03.000Z</time>
      </trkpt>
      <trkpt lat="42.9679616354405879974365234375" lon="-2.3716130666434764862060546875">
        <ele>1046</ele>
        <time>2022-04-17T11:21:04.000Z</time>
      </trkpt>
      <trkpt lat="42.9679616354405879974365234375" lon="-2.3716130666434764862060546875">
        <ele>1046.199951171875</ele>
        <time>2022-04-17T11:21:05.000Z</time>
      </trkpt>
      <trkpt lat="42.9679616354405879974365234375" lon="-2.3716130666434764862060546875">
        <ele>1046.199951171875</ele>
        <time>2022-04-17T11:21:06.000Z</time>
      </trkpt>
      <trkpt lat="42.9679616354405879974365234375" lon="-2.3716130666434764862060546875">
        <ele>1046.199951171875</ele>
        <time>2022-04-17T11:21:07.000Z</time>
      </trkpt>
      <trkpt lat="42.9679616354405879974365234375" lon="-2.3716130666434764862060546875">
        <ele>1046</ele>
        <time>2022-04-17T11:21:08.000Z</time>
      </trkpt>
      <trkpt lat="42.9679616354405879974365234375" lon="-2.3716130666434764862060546875">
        <ele>1045.800048828125</ele>
        <time>2022-04-17T11:21:09.000Z</time>
      </trkpt>
      <trkpt lat="42.9679616354405879974365234375" lon="-2.3716130666434764862060546875">
        <ele>1045.800048828125</ele>
        <time>2022-04-17T11:21:10.000Z</time>
      </trkpt>
      <trkpt lat="42.9679616354405879974365234375" lon="-2.3716070316731929779052734375">
        <ele>1045.800048828125</ele>
        <time>2022-04-17T11:21:11.000Z</time>
      </trkpt>
      <trkpt lat="42.9679616354405879974365234375" lon="-2.37160049378871917724609375">
        <ele>1045.800048828125</ele>
        <time>2022-04-17T11:21:12.000Z</time>
      </trkpt>
      <trkpt lat="42.9679616354405879974365234375" lon="-2.3715946264564990997314453125">
        <ele>1045.800048828125</ele>
        <time>2022-04-17T11:21:13.000Z</time>
      </trkpt>
      <trkpt lat="42.9679616354405879974365234375" lon="-2.37159051932394504547119140625">
        <ele>1046</ele>
        <time>2022-04-17T11:21:14.000Z</time>
      </trkpt>
      <trkpt lat="42.96796289272606372833251953125" lon="-2.371588759124279022216796875">
        <ele>1046</ele>
        <time>2022-04-17T11:21:15.000Z</time>
      </trkpt>
      <trkpt lat="42.9679633118212223052978515625" lon="-2.37158817239105701446533203125">
        <ele>1046.199951171875</ele>
        <time>2022-04-17T11:21:16.000Z</time>
      </trkpt>
      <trkpt lat="42.9679633118212223052978515625" lon="-2.3715852387249469757080078125">
        <ele>1046.199951171875</ele>
        <time>2022-04-17T11:21:17.000Z</time>
      </trkpt>
      <trkpt lat="42.9679633118212223052978515625" lon="-2.37157895229756832122802734375">
        <ele>1046.4000244140625</ele>
        <time>2022-04-17T11:21:18.000Z</time>
      </trkpt>
      <trkpt lat="42.9679633118212223052978515625" lon="-2.37157090567052364349365234375">
        <ele>1046.4000244140625</ele>
        <time>2022-04-17T11:21:19.000Z</time>
      </trkpt>
      <trkpt lat="42.9679633118212223052978515625" lon="-2.37156168557703495025634765625">
        <ele>1046.5999755859375</ele>
        <time>2022-04-17T11:21:20.000Z</time>
      </trkpt>
      <trkpt lat="42.9679633118212223052978515625" lon="-2.37156017683446407318115234375">
        <ele>1046.5999755859375</ele>
        <time>2022-04-17T11:21:21.000Z</time>
      </trkpt>
      <trkpt lat="42.9679633118212223052978515625" lon="-2.371558248996734619140625">
        <ele>1046.5999755859375</ele>
        <time>2022-04-17T11:21:22.000Z</time>
      </trkpt>
      <trkpt lat="42.9679633118212223052978515625" lon="-2.37155715934932231903076171875">
        <ele>1046.800048828125</ele>
        <time>2022-04-17T11:21:23.000Z</time>
      </trkpt>
      <trkpt lat="42.9679633118212223052978515625" lon="-2.37155665643513202667236328125">
        <ele>1046.800048828125</ele>
        <time>2022-04-17T11:21:24.000Z</time>
      </trkpt>
      <trkpt lat="42.96796339564025402069091796875" lon="-2.37155363894999027252197265625">
        <ele>1046.800048828125</ele>
        <time>2022-04-17T11:21:25.000Z</time>
      </trkpt>
      <trkpt lat="42.967964150011539459228515625" lon="-2.3715493641793727874755859375">
        <ele>1047</ele>
        <time>2022-04-17T11:21:26.000Z</time>
      </trkpt>
      <trkpt lat="42.9679673351347446441650390625" lon="-2.37154492177069187164306640625">
        <ele>1047</ele>
        <time>2022-04-17T11:21:27.000Z</time>
      </trkpt>
      <trkpt lat="42.96797177754342555999755859375" lon="-2.37154089845716953277587890625">
        <ele>1047.199951171875</ele>
        <time>2022-04-17T11:21:28.000Z</time>
      </trkpt>
      <trkpt lat="42.96797378920018672943115234375" lon="-2.37154014408588409423828125">
        <ele>1047.4000244140625</ele>
        <time>2022-04-17T11:21:29.000Z</time>
      </trkpt>
      <trkpt lat="42.9679763875901699066162109375" lon="-2.37153880298137664794921875">
        <ele>1047.5999755859375</ele>
        <time>2022-04-17T11:21:30.000Z</time>
      </trkpt>
      <trkpt lat="42.96797730959951877593994140625" lon="-2.3715329356491565704345703125">
        <ele>1047.5999755859375</ele>
        <time>2022-04-17T11:21:31.000Z</time>
      </trkpt>
      <trkpt lat="42.96797747723758220672607421875" lon="-2.37152874469757080078125">
        <ele>1047.800048828125</ele>
        <time>2022-04-17T11:21:32.000Z</time>
      </trkpt>
      <trkpt lat="42.967977561056613922119140625" lon="-2.37152547575533390045166015625">
        <ele>1048</ele>
        <time>2022-04-17T11:21:33.000Z</time>
      </trkpt>
      <trkpt lat="42.96797798015177249908447265625" lon="-2.37152279354631900787353515625">
        <ele>1048.199951171875</ele>
        <time>2022-04-17T11:21:34.000Z</time>
      </trkpt>
      <trkpt lat="42.967978902161121368408203125" lon="-2.37151893787086009979248046875">
        <ele>1048.199951171875</ele>
        <time>2022-04-17T11:21:35.000Z</time>
      </trkpt>
      <trkpt lat="42.96797915361821651458740234375" lon="-2.3715141601860523223876953125">
        <ele>1048.199951171875</ele>
        <time>2022-04-17T11:21:36.000Z</time>
      </trkpt>
      <trkpt lat="42.96797915361821651458740234375" lon="-2.37150921486318111419677734375">
        <ele>1048.4000244140625</ele>
        <time>2022-04-17T11:21:37.000Z</time>
      </trkpt>
      <trkpt lat="42.96797915361821651458740234375" lon="-2.3715020902454853057861328125">
        <ele>1048.4000244140625</ele>
        <time>2022-04-17T11:21:38.000Z</time>
      </trkpt>
      <trkpt lat="42.96797915361821651458740234375" lon="-2.37149563618004322052001953125">
        <ele>1048.4000244140625</ele>
        <time>2022-04-17T11:21:39.000Z</time>
      </trkpt>
      <trkpt lat="42.96797915361821651458740234375" lon="-2.37149186432361602783203125">
        <ele>1048.4000244140625</ele>
        <time>2022-04-17T11:21:40.000Z</time>
      </trkpt>
      <trkpt lat="42.96797915361821651458740234375" lon="-2.37148909829556941986083984375">
        <ele>1048.5999755859375</ele>
        <time>2022-04-17T11:21:41.000Z</time>
      </trkpt>
      <trkpt lat="42.96797915361821651458740234375" lon="-2.37148842774331569671630859375">
        <ele>1048.800048828125</ele>
        <time>2022-04-17T11:21:42.000Z</time>
      </trkpt>
      <trkpt lat="42.96797915361821651458740234375" lon="-2.37148708663880825042724609375">
        <ele>1049</ele>
        <time>2022-04-17T11:21:43.000Z</time>
      </trkpt>
      <trkpt lat="42.96797915361821651458740234375" lon="-2.37148406915366649627685546875">
        <ele>1049</ele>
        <time>2022-04-17T11:21:44.000Z</time>
      </trkpt>
      <trkpt lat="42.96797915361821651458740234375" lon="-2.3714813031256198883056640625">
        <ele>1049.199951171875</ele>
        <time>2022-04-17T11:21:45.000Z</time>
      </trkpt>
      <trkpt lat="42.96797831542789936065673828125" lon="-2.37147619016468524932861328125">
        <ele>1049.199951171875</ele>
        <time>2022-04-17T11:21:46.000Z</time>
      </trkpt>
      <trkpt lat="42.9679777286946773529052734375" lon="-2.371472418308258056640625">
        <ele>1049.4000244140625</ele>
        <time>2022-04-17T11:21:47.000Z</time>
      </trkpt>
      <trkpt lat="42.9679760523140430450439453125" lon="-2.3714668862521648406982421875">
        <ele>1049.5999755859375</ele>
        <time>2022-04-17T11:21:48.000Z</time>
      </trkpt>
      <trkpt lat="42.967975549399852752685546875" lon="-2.37145967781543731689453125">
        <ele>1049.800048828125</ele>
        <time>2022-04-17T11:21:49.000Z</time>
      </trkpt>
      <trkpt lat="42.96797513030469417572021484375" lon="-2.37145590595901012420654296875">
        <ele>1050</ele>
        <time>2022-04-17T11:21:50.000Z</time>
      </trkpt>
      <trkpt lat="42.96796993352472782135009765625" lon="-2.37145364284515380859375">
        <ele>1050</ele>
        <time>2022-04-17T11:21:51.000Z</time>
      </trkpt>
      <trkpt lat="42.967965491116046905517578125" lon="-2.3714523017406463623046875">
        <ele>1050</ele>
        <time>2022-04-17T11:21:52.000Z</time>
      </trkpt>
      <trkpt lat="42.96796389855444431304931640625" lon="-2.3714507929980754852294921875">
        <ele>1050.199951171875</ele>
        <time>2022-04-17T11:21:53.000Z</time>
      </trkpt>
      <trkpt lat="42.96796155162155628204345703125" lon="-2.37144886516034603118896484375">
        <ele>1050.199951171875</ele>
        <time>2022-04-17T11:21:54.000Z</time>
      </trkpt>
      <trkpt lat="42.9679606296122074127197265625" lon="-2.371445596218109130859375">
        <ele>1050.199951171875</ele>
        <time>2022-04-17T11:21:55.000Z</time>
      </trkpt>
      <trkpt lat="42.96796004287898540496826171875" lon="-2.3714442551136016845703125">
        <ele>1050.199951171875</ele>
        <time>2022-04-17T11:21:56.000Z</time>
      </trkpt>
      <trkpt lat="42.9679596237838268280029296875" lon="-2.37144249491393566131591796875">
        <ele>1050.4000244140625</ele>
        <time>2022-04-17T11:21:57.000Z</time>
      </trkpt>
      <trkpt lat="42.9679582826793193817138671875" lon="-2.37143822014331817626953125">
        <ele>1050.5999755859375</ele>
        <time>2022-04-17T11:21:58.000Z</time>
      </trkpt>
      <trkpt lat="42.96795534901320934295654296875" lon="-2.37143277190625667572021484375">
        <ele>1050.5999755859375</ele>
        <time>2022-04-17T11:21:59.000Z</time>
      </trkpt>
      <trkpt lat="42.96795048750936985015869140625" lon="-2.37142422236502170562744140625">
        <ele>1050.800048828125</ele>
        <time>2022-04-17T11:22:00.000Z</time>
      </trkpt>
      <trkpt lat="42.96794512309134006500244140625" lon="-2.37141718156635761260986328125">
        <ele>1050.800048828125</ele>
        <time>2022-04-17T11:22:01.000Z</time>
      </trkpt>
      <trkpt lat="42.96794227324426174163818359375" lon="-2.371409051120281219482421875">
        <ele>1051</ele>
        <time>2022-04-17T11:22:02.000Z</time>
      </trkpt>
      <trkpt lat="42.96794026158750057220458984375" lon="-2.371403686702251434326171875">
        <ele>1051</ele>
        <time>2022-04-17T11:22:03.000Z</time>
      </trkpt>
      <trkpt lat="42.9679388366639614105224609375" lon="-2.3713981546461582183837890625">
        <ele>1051.199951171875</ele>
        <time>2022-04-17T11:22:04.000Z</time>
      </trkpt>
      <trkpt lat="42.96793791465461254119873046875" lon="-2.37139253877103328704833984375">
        <ele>1051.199951171875</ele>
        <time>2022-04-17T11:22:05.000Z</time>
      </trkpt>
      <trkpt lat="42.96793741174042224884033203125" lon="-2.37139035947620868682861328125">
        <ele>1051.4000244140625</ele>
        <time>2022-04-17T11:22:06.000Z</time>
      </trkpt>
      <trkpt lat="42.96793674118816852569580078125" lon="-2.371389605104923248291015625">
        <ele>1051.5999755859375</ele>
        <time>2022-04-17T11:22:07.000Z</time>
      </trkpt>
      <trkpt lat="42.96793640591204166412353515625" lon="-2.371388934552669525146484375">
        <ele>1051.5999755859375</ele>
        <time>2022-04-17T11:22:08.000Z</time>
      </trkpt>
      <trkpt lat="42.96793590299785137176513671875" lon="-2.37138717435300350189208984375">
        <ele>1051.800048828125</ele>
        <time>2022-04-17T11:22:09.000Z</time>
      </trkpt>
      <trkpt lat="42.96793506480753421783447265625" lon="-2.371383570134639739990234375">
        <ele>1051.800048828125</ele>
        <time>2022-04-17T11:22:10.000Z</time>
      </trkpt>
      <trkpt lat="42.96793456189334392547607421875" lon="-2.37137778662145137786865234375">
        <ele>1052</ele>
        <time>2022-04-17T11:22:11.000Z</time>
      </trkpt>
      <trkpt lat="42.9679341427981853485107421875" lon="-2.37136923708021640777587890625">
        <ele>1052</ele>
        <time>2022-04-17T11:22:12.000Z</time>
      </trkpt>
      <trkpt lat="42.96793372370302677154541015625" lon="-2.37136236391961574554443359375">
        <ele>1052</ele>
        <time>2022-04-17T11:22:13.000Z</time>
      </trkpt>
      <trkpt lat="42.96793439425528049468994140625" lon="-2.37135079689323902130126953125">
        <ele>1052.199951171875</ele>
        <time>2022-04-17T11:22:14.000Z</time>
      </trkpt>
      <trkpt lat="42.96793556772172451019287109375" lon="-2.37132422626018524169921875">
        <ele>1052.4000244140625</ele>
        <time>2022-04-17T11:22:15.000Z</time>
      </trkpt>
      <trkpt lat="42.96793640591204166412353515625" lon="-2.37130771391093730926513671875">
        <ele>1052.5999755859375</ele>
        <time>2022-04-17T11:22:16.000Z</time>
      </trkpt>
      <trkpt lat="42.96793506480753421783447265625" lon="-2.371291033923625946044921875">
        <ele>1052.5999755859375</ele>
        <time>2022-04-17T11:22:17.000Z</time>
      </trkpt>
      <trkpt lat="42.96793221496045589447021484375" lon="-2.3712777905166149139404296875">
        <ele>1052.5999755859375</ele>
        <time>2022-04-17T11:22:18.000Z</time>
      </trkpt>
      <trkpt lat="42.96793204732239246368408203125" lon="-2.37126245163381099700927734375">
        <ele>1052.5999755859375</ele>
        <time>2022-04-17T11:22:19.000Z</time>
      </trkpt>
      <trkpt lat="42.967931292951107025146484375" lon="-2.37125021405518054962158203125">
        <ele>1052.800048828125</ele>
        <time>2022-04-17T11:22:20.000Z</time>
      </trkpt>
      <trkpt lat="42.967934310436248779296875" lon="-2.37123579718172550201416015625">
        <ele>1052.800048828125</ele>
        <time>2022-04-17T11:22:21.000Z</time>
      </trkpt>
      <trkpt lat="42.96794042922556400299072265625" lon="-2.3712211288511753082275390625">
        <ele>1052.800048828125</ele>
        <time>2022-04-17T11:22:22.000Z</time>
      </trkpt>
      <trkpt lat="42.96794210560619831085205078125" lon="-2.37120998091995716094970703125">
        <ele>1053</ele>
        <time>2022-04-17T11:22:23.000Z</time>
      </trkpt>
      <trkpt lat="42.96793498098850250244140625" lon="-2.3711979947984218597412109375">
        <ele>1053.199951171875</ele>
        <time>2022-04-17T11:22:24.000Z</time>
      </trkpt>
      <trkpt lat="42.9679301194846630096435546875" lon="-2.371172346174716949462890625">
        <ele>1053.4000244140625</ele>
        <time>2022-04-17T11:22:25.000Z</time>
      </trkpt>
      <trkpt lat="42.967923246324062347412109375" lon="-2.37116455100476741790771484375">
        <ele>1053.4000244140625</ele>
        <time>2022-04-17T11:22:26.000Z</time>
      </trkpt>
      <trkpt lat="42.967917881906032562255859375" lon="-2.37116103060543537139892578125">
        <ele>1053.5999755859375</ele>
        <time>2022-04-17T11:22:27.000Z</time>
      </trkpt>
      <trkpt lat="42.9679173789918422698974609375" lon="-2.3711599409580230712890625">
        <ele>1053.5999755859375</ele>
        <time>2022-04-17T11:22:28.000Z</time>
      </trkpt>
      <trkpt lat="42.967920564115047454833984375" lon="-2.37115683965384960174560546875">
        <ele>1053.5999755859375</ele>
        <time>2022-04-17T11:22:29.000Z</time>
      </trkpt>
      <trkpt lat="42.96792115084826946258544921875" lon="-2.37115256488323211669921875">
        <ele>1053.5999755859375</ele>
        <time>2022-04-17T11:22:30.000Z</time>
      </trkpt>
      <trkpt lat="42.967918217182159423828125" lon="-2.37114896066486835479736328125">
        <ele>1053.5999755859375</ele>
        <time>2022-04-17T11:22:31.000Z</time>
      </trkpt>
      <trkpt lat="42.96791645698249340057373046875" lon="-2.37114544026553630828857421875">
        <ele>1053.5999755859375</ele>
        <time>2022-04-17T11:22:32.000Z</time>
      </trkpt>
      <trkpt lat="42.96790773980319499969482421875" lon="-2.3711399920284748077392578125">
        <ele>1053.5999755859375</ele>
        <time>2022-04-17T11:22:33.000Z</time>
      </trkpt>
      <trkpt lat="42.967899776995182037353515625" lon="-2.37113102339208126068115234375">
        <ele>1053.5999755859375</ele>
        <time>2022-04-17T11:22:34.000Z</time>
      </trkpt>
      <trkpt lat="42.96789030544459819793701171875" lon="-2.3711208812892436981201171875">
        <ele>1053.800048828125</ele>
        <time>2022-04-17T11:22:35.000Z</time>
      </trkpt>
      <trkpt lat="42.967881001532077789306640625" lon="-2.37110822461545467376708984375">
        <ele>1053.800048828125</ele>
        <time>2022-04-17T11:22:36.000Z</time>
      </trkpt>
      <trkpt lat="42.9678747989237308502197265625" lon="-2.3711064644157886505126953125">
        <ele>1054</ele>
        <time>2022-04-17T11:22:37.000Z</time>
      </trkpt>
      <trkpt lat="42.96786398626863956451416015625" lon="-2.37110017798840999603271484375">
        <ele>1054.199951171875</ele>
        <time>2022-04-17T11:22:38.000Z</time>
      </trkpt>
      <trkpt lat="42.9678563587367534637451171875" lon="-2.3710950650274753570556640625">
        <ele>1054.4000244140625</ele>
        <time>2022-04-17T11:22:39.000Z</time>
      </trkpt>
      <trkpt lat="42.967844791710376739501953125" lon="-2.3710886947810649871826171875">
        <ele>1054.4000244140625</ele>
        <time>2022-04-17T11:22:40.000Z</time>
      </trkpt>
      <trkpt lat="42.967829369008541107177734375" lon="-2.37107821740210056304931640625">
        <ele>1054.5999755859375</ele>
        <time>2022-04-17T11:22:41.000Z</time>
      </trkpt>
      <trkpt lat="42.9678181372582912445068359375" lon="-2.37107670865952968597412109375">
        <ele>1054.5999755859375</ele>
        <time>2022-04-17T11:22:42.000Z</time>
      </trkpt>
      <trkpt lat="42.9678084142506122589111328125" lon="-2.37107285298407077789306640625">
        <ele>1054.5999755859375</ele>
        <time>2022-04-17T11:22:43.000Z</time>
      </trkpt>
      <trkpt lat="42.967803217470645904541015625" lon="-2.37106815911829471588134765625">
        <ele>1054.800048828125</ele>
        <time>2022-04-17T11:22:44.000Z</time>
      </trkpt>
      <trkpt lat="42.967798523604869842529296875" lon="-2.37106363289058208465576171875">
        <ele>1054.800048828125</ele>
        <time>2022-04-17T11:22:45.000Z</time>
      </trkpt>
      <trkpt lat="42.96778989024460315704345703125" lon="-2.37106363289058208465576171875">
        <ele>1054.800048828125</ele>
        <time>2022-04-17T11:22:46.000Z</time>
      </trkpt>
      <trkpt lat="42.96778368763625621795654296875" lon="-2.37106463871896266937255859375">
        <ele>1055</ele>
        <time>2022-04-17T11:22:47.000Z</time>
      </trkpt>
      <trkpt lat="42.96778083778917789459228515625" lon="-2.3710615374147891998291015625">
        <ele>1055</ele>
        <time>2022-04-17T11:22:48.000Z</time>
      </trkpt>
      <trkpt lat="42.967779077589511871337890625" lon="-2.37105960957705974578857421875">
        <ele>1055.199951171875</ele>
        <time>2022-04-17T11:22:49.000Z</time>
      </trkpt>
      <trkpt lat="42.96778167597949504852294921875" lon="-2.37106597982347011566162109375">
        <ele>1055.199951171875</ele>
        <time>2022-04-17T11:22:50.000Z</time>
      </trkpt>
      <trkpt lat="42.96777714975178241729736328125" lon="-2.371074445545673370361328125">
        <ele>1055.4000244140625</ele>
        <time>2022-04-17T11:22:51.000Z</time>
      </trkpt>
      <trkpt lat="42.967771701514720916748046875" lon="-2.37107352353632450103759765625">
        <ele>1055.4000244140625</ele>
        <time>2022-04-17T11:22:52.000Z</time>
      </trkpt>
      <trkpt lat="42.9677661694586277008056640625" lon="-2.37107369117438793182373046875">
        <ele>1055.4000244140625</ele>
        <time>2022-04-17T11:22:53.000Z</time>
      </trkpt>
      <trkpt lat="42.967754267156124114990234375" lon="-2.371076457202434539794921875">
        <ele>1055.4000244140625</ele>
        <time>2022-04-17T11:22:54.000Z</time>
      </trkpt>
      <trkpt lat="42.967749573290348052978515625" lon="-2.37107880413532257080078125">
        <ele>1055.5999755859375</ele>
        <time>2022-04-17T11:22:55.000Z</time>
      </trkpt>
      <trkpt lat="42.9677460528910160064697265625" lon="-2.371075116097927093505859375">
        <ele>1055.800048828125</ele>
        <time>2022-04-17T11:22:56.000Z</time>
      </trkpt>
      <trkpt lat="42.967744879424571990966796875" lon="-2.371068410575389862060546875">
        <ele>1055.800048828125</ele>
        <time>2022-04-17T11:22:57.000Z</time>
      </trkpt>
      <trkpt lat="42.9677443765103816986083984375" lon="-2.37105860374867916107177734375">
        <ele>1055.800048828125</ele>
        <time>2022-04-17T11:22:58.000Z</time>
      </trkpt>
      <trkpt lat="42.967741526663303375244140625" lon="-2.37105466425418853759765625">
        <ele>1056</ele>
        <time>2022-04-17T11:22:59.000Z</time>
      </trkpt>
      <trkpt lat="42.96773876063525676727294921875" lon="-2.37104804255068302154541015625">
        <ele>1056.199951171875</ele>
        <time>2022-04-17T11:23:00.000Z</time>
      </trkpt>
      <trkpt lat="42.96773591078817844390869140625" lon="-2.3710417561233043670654296875">
        <ele>1056.199951171875</ele>
        <time>2022-04-17T11:23:01.000Z</time>
      </trkpt>
      <trkpt lat="42.96773473732173442840576171875" lon="-2.3710343800485134124755859375">
        <ele>1056.4000244140625</ele>
        <time>2022-04-17T11:23:02.000Z</time>
      </trkpt>
      <trkpt lat="42.9677356593310832977294921875" lon="-2.37102826125919818878173828125">
        <ele>1056.4000244140625</ele>
        <time>2022-04-17T11:23:03.000Z</time>
      </trkpt>
      <trkpt lat="42.9677366651594638824462890625" lon="-2.37102373503148555755615234375">
        <ele>1056.5999755859375</ele>
        <time>2022-04-17T11:23:04.000Z</time>
      </trkpt>
      <trkpt lat="42.96773850917816162109375" lon="-2.3710162751376628875732421875">
        <ele>1056.5999755859375</ele>
        <time>2022-04-17T11:23:05.000Z</time>
      </trkpt>
      <trkpt lat="42.967740185558795928955078125" lon="-2.371005378663539886474609375">
        <ele>1057</ele>
        <time>2022-04-17T11:23:06.000Z</time>
      </trkpt>
      <trkpt lat="42.967732809484004974365234375" lon="-2.37100060097873210906982421875">
        <ele>1057.199951171875</ele>
        <time>2022-04-17T11:23:07.000Z</time>
      </trkpt>
      <trkpt lat="42.9677291214466094970703125" lon="-2.37099029123783111572265625">
        <ele>1057.4000244140625</ele>
        <time>2022-04-17T11:23:08.000Z</time>
      </trkpt>
      <trkpt lat="42.96772870235145092010498046875" lon="-2.37098098732531070709228515625">
        <ele>1057.4000244140625</ele>
        <time>2022-04-17T11:23:09.000Z</time>
      </trkpt>
      <trkpt lat="42.9677344858646392822265625" lon="-2.37097042612731456756591796875">
        <ele>1057.5999755859375</ele>
        <time>2022-04-17T11:23:10.000Z</time>
      </trkpt>
      <trkpt lat="42.9677453823387622833251953125" lon="-2.3709525726735591888427734375">
        <ele>1057.5999755859375</ele>
        <time>2022-04-17T11:23:11.000Z</time>
      </trkpt>
      <trkpt lat="42.96774965710937976837158203125" lon="-2.37093798816204071044921875">
        <ele>1057.800048828125</ele>
        <time>2022-04-17T11:23:12.000Z</time>
      </trkpt>
      <trkpt lat="42.9677487351000308990478515625" lon="-2.37093321047723293304443359375">
        <ele>1057.800048828125</ele>
        <time>2022-04-17T11:23:13.000Z</time>
      </trkpt>
      <trkpt lat="42.96774093993008136749267578125" lon="-2.37093974836170673370361328125">
        <ele>1057.800048828125</ele>
        <time>2022-04-17T11:23:14.000Z</time>
      </trkpt>
      <trkpt lat="42.967739515006542205810546875" lon="-2.37093471921980381011962890625">
        <ele>1058</ele>
        <time>2022-04-17T11:23:15.000Z</time>
      </trkpt>
      <trkpt lat="42.96774043701589107513427734375" lon="-2.3709287680685520172119140625">
        <ele>1058</ele>
        <time>2022-04-17T11:23:16.000Z</time>
      </trkpt>
      <trkpt lat="42.96773842535912990570068359375" lon="-2.37092684023082256317138671875">
        <ele>1058</ele>
        <time>2022-04-17T11:23:17.000Z</time>
      </trkpt>
      <trkpt lat="42.967735491693019866943359375" lon="-2.370922230184078216552734375">
        <ele>1058.199951171875</ele>
        <time>2022-04-17T11:23:18.000Z</time>
      </trkpt>
      <trkpt lat="42.967730127274990081787109375" lon="-2.37091275863349437713623046875">
        <ele>1058.199951171875</ele>
        <time>2022-04-17T11:23:19.000Z</time>
      </trkpt>
      <trkpt lat="42.96771964989602565765380859375" lon="-2.370907478034496307373046875">
        <ele>1058.4000244140625</ele>
        <time>2022-04-17T11:23:20.000Z</time>
      </trkpt>
      <trkpt lat="42.96771529130637645721435546875" lon="-2.37090789712965488433837890625">
        <ele>1058.5999755859375</ele>
        <time>2022-04-17T11:23:21.000Z</time>
      </trkpt>
      <trkpt lat="42.9677116870880126953125" lon="-2.3709093220531940460205078125">
        <ele>1058.5999755859375</ele>
        <time>2022-04-17T11:23:22.000Z</time>
      </trkpt>
      <trkpt lat="42.9677051492035388946533203125" lon="-2.37091493792831897735595703125">
        <ele>1058.800048828125</ele>
        <time>2022-04-17T11:23:23.000Z</time>
      </trkpt>
      <trkpt lat="42.96770238317549228668212890625" lon="-2.370918206870555877685546875">
        <ele>1058.800048828125</ele>
        <time>2022-04-17T11:23:24.000Z</time>
      </trkpt>
      <trkpt lat="42.967700622975826263427734375" lon="-2.370916195213794708251953125">
        <ele>1059</ele>
        <time>2022-04-17T11:23:25.000Z</time>
      </trkpt>
      <trkpt lat="42.9677078314125537872314453125" lon="-2.3709016107022762298583984375">
        <ele>1059</ele>
        <time>2022-04-17T11:23:26.000Z</time>
      </trkpt>
      <trkpt lat="42.9677115194499492645263671875" lon="-2.37088995985686779022216796875">
        <ele>1059</ele>
        <time>2022-04-17T11:23:27.000Z</time>
      </trkpt>
      <trkpt lat="42.96770623885095119476318359375" lon="-2.37088157795369625091552734375">
        <ele>1059.199951171875</ele>
        <time>2022-04-17T11:23:28.000Z</time>
      </trkpt>
      <trkpt lat="42.967705987393856048583984375" lon="-2.37088057212531566619873046875">
        <ele>1059.199951171875</ele>
        <time>2022-04-17T11:23:29.000Z</time>
      </trkpt>
      <trkpt lat="42.967708669602870941162109375" lon="-2.37087721936404705047607421875">
        <ele>1059.4000244140625</ele>
        <time>2022-04-17T11:23:30.000Z</time>
      </trkpt>
      <trkpt lat="42.96770825050771236419677734375" lon="-2.37088291905820369720458984375">
        <ele>1059.4000244140625</ele>
        <time>2022-04-17T11:23:31.000Z</time>
      </trkpt>
      <trkpt lat="42.9677085019648075103759765625" lon="-2.37087654881179332733154296875">
        <ele>1059.4000244140625</ele>
        <time>2022-04-17T11:23:32.000Z</time>
      </trkpt>
      <trkpt lat="42.967698611319065093994140625" lon="-2.37086934037506580352783203125">
        <ele>1059.5999755859375</ele>
        <time>2022-04-17T11:23:33.000Z</time>
      </trkpt>
      <trkpt lat="42.96768913976848125457763671875" lon="-2.37086146138608455657958984375">
        <ele>1059.5999755859375</ele>
        <time>2022-04-17T11:23:34.000Z</time>
      </trkpt>
      <trkpt lat="42.9676816798746585845947265625" lon="-2.37085341475903987884521484375">
        <ele>1059.800048828125</ele>
        <time>2022-04-17T11:23:35.000Z</time>
      </trkpt>
      <trkpt lat="42.96767489053308963775634765625" lon="-2.37084553577005863189697265625">
        <ele>1059.800048828125</ele>
        <time>2022-04-17T11:23:36.000Z</time>
      </trkpt>
      <trkpt lat="42.96767170540988445281982421875" lon="-2.37083681859076023101806640625">
        <ele>1060</ele>
        <time>2022-04-17T11:23:37.000Z</time>
      </trkpt>
      <trkpt lat="42.967671453952789306640625" lon="-2.37082927487790584564208984375">
        <ele>1060</ele>
        <time>2022-04-17T11:23:38.000Z</time>
      </trkpt>
      <trkpt lat="42.96766768209636211395263671875" lon="-2.37082659266889095306396484375">
        <ele>1060.199951171875</ele>
        <time>2022-04-17T11:23:39.000Z</time>
      </trkpt>
      <trkpt lat="42.96766600571572780609130859375" lon="-2.370820306241512298583984375">
        <ele>1060.199951171875</ele>
        <time>2022-04-17T11:23:40.000Z</time>
      </trkpt>
      <trkpt lat="42.96766231767833232879638671875" lon="-2.37081301398575305938720703125">
        <ele>1060.4000244140625</ele>
        <time>2022-04-17T11:23:41.000Z</time>
      </trkpt>
      <trkpt lat="42.967660725116729736328125" lon="-2.37080580554902553558349609375">
        <ele>1060.4000244140625</ele>
        <time>2022-04-17T11:23:42.000Z</time>
      </trkpt>
      <trkpt lat="42.96766064129769802093505859375" lon="-2.37080144695937633514404296875">
        <ele>1060.4000244140625</ele>
        <time>2022-04-17T11:23:43.000Z</time>
      </trkpt>
      <trkpt lat="42.967661060392856597900390625" lon="-2.3707959987223148345947265625">
        <ele>1060.5999755859375</ele>
        <time>2022-04-17T11:23:44.000Z</time>
      </trkpt>
      <trkpt lat="42.9676598869264125823974609375" lon="-2.370791137218475341796875">
        <ele>1060.5999755859375</ele>
        <time>2022-04-17T11:23:45.000Z</time>
      </trkpt>
      <trkpt lat="42.96765930019319057464599609375" lon="-2.37078510224819183349609375">
        <ele>1060.5999755859375</ele>
        <time>2022-04-17T11:23:46.000Z</time>
      </trkpt>
      <trkpt lat="42.96766399405896663665771484375" lon="-2.370779402554035186767578125">
        <ele>1060.5999755859375</ele>
        <time>2022-04-17T11:23:47.000Z</time>
      </trkpt>
      <trkpt lat="42.96766768209636211395263671875" lon="-2.37076842226088047027587890625">
        <ele>1060.800048828125</ele>
        <time>2022-04-17T11:23:48.000Z</time>
      </trkpt>
      <trkpt lat="42.9676662571728229522705078125" lon="-2.37075685523450374603271484375">
        <ele>1061</ele>
        <time>2022-04-17T11:23:49.000Z</time>
      </trkpt>
      <trkpt lat="42.9676625691354274749755859375" lon="-2.37074277363717555999755859375">
        <ele>1061</ele>
        <time>2022-04-17T11:23:50.000Z</time>
      </trkpt>
      <trkpt lat="42.96765728853642940521240234375" lon="-2.37073439173400402069091796875">
        <ele>1061.199951171875</ele>
        <time>2022-04-17T11:23:51.000Z</time>
      </trkpt>
      <trkpt lat="42.9676578752696514129638671875" lon="-2.37072768621146678924560546875">
        <ele>1061.199951171875</ele>
        <time>2022-04-17T11:23:52.000Z</time>
      </trkpt>
      <trkpt lat="42.96766181476414203643798828125" lon="-2.370721064507961273193359375">
        <ele>1061.199951171875</ele>
        <time>2022-04-17T11:23:53.000Z</time>
      </trkpt>
      <trkpt lat="42.9676655866205692291259765625" lon="-2.3707141913473606109619140625">
        <ele>1061.199951171875</ele>
        <time>2022-04-17T11:23:54.000Z</time>
      </trkpt>
      <trkpt lat="42.96765862964093685150146484375" lon="-2.370699942111968994140625">
        <ele>1061.4000244140625</ele>
        <time>2022-04-17T11:23:55.000Z</time>
      </trkpt>
      <trkpt lat="42.96764924190938472747802734375" lon="-2.37069315277040004730224609375">
        <ele>1061.5999755859375</ele>
        <time>2022-04-17T11:23:56.000Z</time>
      </trkpt>
      <trkpt lat="42.96764018945395946502685546875" lon="-2.3706793226301670074462890625">
        <ele>1061.5999755859375</ele>
        <time>2022-04-17T11:23:57.000Z</time>
      </trkpt>
      <trkpt lat="42.96763482503592967987060546875" lon="-2.37067085690796375274658203125">
        <ele>1061.800048828125</ele>
        <time>2022-04-17T11:23:58.000Z</time>
      </trkpt>
      <trkpt lat="42.96763516031205654144287109375" lon="-2.370666079223155975341796875">
        <ele>1061.800048828125</ele>
        <time>2022-04-17T11:23:59.000Z</time>
      </trkpt>
      <trkpt lat="42.96763197518885135650634765625" lon="-2.37066574394702911376953125">
        <ele>1062</ele>
        <time>2022-04-17T11:24:00.000Z</time>
      </trkpt>
      <trkpt lat="42.96763130463659763336181640625" lon="-2.37065962515771389007568359375">
        <ele>1062</ele>
        <time>2022-04-17T11:24:01.000Z</time>
      </trkpt>
      <trkpt lat="42.967633567750453948974609375" lon="-2.37065744586288928985595703125">
        <ele>1062</ele>
        <time>2022-04-17T11:24:02.000Z</time>
      </trkpt>
      <trkpt lat="42.967633567750453948974609375" lon="-2.37065040506422519683837890625">
        <ele>1062.199951171875</ele>
        <time>2022-04-17T11:24:03.000Z</time>
      </trkpt>
      <trkpt lat="42.9676290415227413177490234375" lon="-2.3706461302936077117919921875">
        <ele>1062.4000244140625</ele>
        <time>2022-04-17T11:24:04.000Z</time>
      </trkpt>
      <trkpt lat="42.9676258563995361328125" lon="-2.37063917331397533416748046875">
        <ele>1062.4000244140625</ele>
        <time>2022-04-17T11:24:05.000Z</time>
      </trkpt>
      <trkpt lat="42.96762459911406040191650390625" lon="-2.37063598819077014923095703125">
        <ele>1062.4000244140625</ele>
        <time>2022-04-17T11:24:06.000Z</time>
      </trkpt>
      <trkpt lat="42.96762342564761638641357421875" lon="-2.3706297017633914947509765625">
        <ele>1062.5999755859375</ele>
        <time>2022-04-17T11:24:07.000Z</time>
      </trkpt>
      <trkpt lat="42.96762258745729923248291015625" lon="-2.37062408588826656341552734375">
        <ele>1062.5999755859375</ele>
        <time>2022-04-17T11:24:08.000Z</time>
      </trkpt>
      <trkpt lat="42.967622838914394378662109375" lon="-2.370619140565395355224609375">
        <ele>1062.800048828125</ele>
        <time>2022-04-17T11:24:09.000Z</time>
      </trkpt>
      <trkpt lat="42.967625521123409271240234375" lon="-2.37060673534870147705078125">
        <ele>1062.800048828125</ele>
        <time>2022-04-17T11:24:10.000Z</time>
      </trkpt>
      <trkpt lat="42.96762208454310894012451171875" lon="-2.3705978505313396453857421875">
        <ele>1063</ele>
        <time>2022-04-17T11:24:11.000Z</time>
      </trkpt>
      <trkpt lat="42.9676151275634765625" lon="-2.37058393657207489013671875">
        <ele>1063.199951171875</ele>
        <time>2022-04-17T11:24:12.000Z</time>
      </trkpt>
      <trkpt lat="42.96761202625930309295654296875" lon="-2.37056138925254344940185546875">
        <ele>1063.199951171875</ele>
        <time>2022-04-17T11:24:13.000Z</time>
      </trkpt>
      <trkpt lat="42.96761219389736652374267578125" lon="-2.3705529235303401947021484375">
        <ele>1063.199951171875</ele>
        <time>2022-04-17T11:24:14.000Z</time>
      </trkpt>
      <trkpt lat="42.967611439526081085205078125" lon="-2.37054076977074146270751953125">
        <ele>1063.199951171875</ele>
        <time>2022-04-17T11:24:15.000Z</time>
      </trkpt>
      <trkpt lat="42.96760129742324352264404296875" lon="-2.37053004093468189239501953125">
        <ele>1063.4000244140625</ele>
        <time>2022-04-17T11:24:16.000Z</time>
      </trkpt>
      <trkpt lat="42.9675958491861820220947265625" lon="-2.37052065320312976837158203125">
        <ele>1063.5999755859375</ele>
        <time>2022-04-17T11:24:17.000Z</time>
      </trkpt>
      <trkpt lat="42.9675931669771671295166015625" lon="-2.370511181652545928955078125">
        <ele>1063.5999755859375</ele>
        <time>2022-04-17T11:24:18.000Z</time>
      </trkpt>
      <trkpt lat="42.96758989803493022918701171875" lon="-2.37050506286323070526123046875">
        <ele>1063.800048828125</ele>
        <time>2022-04-17T11:24:19.000Z</time>
      </trkpt>
      <trkpt lat="42.96758520416915416717529296875" lon="-2.37050120718777179718017578125">
        <ele>1063.800048828125</ele>
        <time>2022-04-17T11:24:20.000Z</time>
      </trkpt>
      <trkpt lat="42.96757782809436321258544921875" lon="-2.370501123368740081787109375">
        <ele>1064</ele>
        <time>2022-04-17T11:24:21.000Z</time>
      </trkpt>
      <trkpt lat="42.96757757663726806640625" lon="-2.37049886025488376617431640625">
        <ele>1064.199951171875</ele>
        <time>2022-04-17T11:24:22.000Z</time>
      </trkpt>
      <trkpt lat="42.9675841145217418670654296875" lon="-2.370489053428173065185546875">
        <ele>1064.199951171875</ele>
        <time>2022-04-17T11:24:23.000Z</time>
      </trkpt>
      <trkpt lat="42.96758755110204219818115234375" lon="-2.370481677353382110595703125">
        <ele>1064.199951171875</ele>
        <time>2022-04-17T11:24:24.000Z</time>
      </trkpt>
      <trkpt lat="42.967585287988185882568359375" lon="-2.3704707808792591094970703125">
        <ele>1064.4000244140625</ele>
        <time>2022-04-17T11:24:25.000Z</time>
      </trkpt>
      <trkpt lat="42.96758704818785190582275390625" lon="-2.37046265043318271636962890625">
        <ele>1064.4000244140625</ele>
        <time>2022-04-17T11:24:26.000Z</time>
      </trkpt>
      <trkpt lat="42.9675815999507904052734375" lon="-2.37045628018677234649658203125">
        <ele>1064.5999755859375</ele>
        <time>2022-04-17T11:24:27.000Z</time>
      </trkpt>
      <trkpt lat="42.96758017502725124359130859375" lon="-2.3704491555690765380859375">
        <ele>1064.800048828125</ele>
        <time>2022-04-17T11:24:28.000Z</time>
      </trkpt>
      <trkpt lat="42.967580594122409820556640625" lon="-2.37044555135071277618408203125">
        <ele>1064.800048828125</ele>
        <time>2022-04-17T11:24:29.000Z</time>
      </trkpt>
      <trkpt lat="42.96758361160755157470703125" lon="-2.37043163739144802093505859375">
        <ele>1064.800048828125</ele>
        <time>2022-04-17T11:24:30.000Z</time>
      </trkpt>
      <trkpt lat="42.96758897602558135986328125" lon="-2.37042526714503765106201171875">
        <ele>1065</ele>
        <time>2022-04-17T11:24:31.000Z</time>
      </trkpt>
      <trkpt lat="42.96759308315813541412353515625" lon="-2.3704191483557224273681640625">
        <ele>1065</ele>
        <time>2022-04-17T11:24:32.000Z</time>
      </trkpt>
      <trkpt lat="42.96759543009102344512939453125" lon="-2.370416633784770965576171875">
        <ele>1065</ele>
        <time>2022-04-17T11:24:33.000Z</time>
      </trkpt>
      <trkpt lat="42.96759090386331081390380859375" lon="-2.37040582112967967987060546875">
        <ele>1065</ele>
        <time>2022-04-17T11:24:34.000Z</time>
      </trkpt>
      <trkpt lat="42.96758227050304412841796875" lon="-2.370399534702301025390625">
        <ele>1065.199951171875</ele>
        <time>2022-04-17T11:24:35.000Z</time>
      </trkpt>
      <trkpt lat="42.96756089664995670318603515625" lon="-2.370399534702301025390625">
        <ele>1065.199951171875</ele>
        <time>2022-04-17T11:24:36.000Z</time>
      </trkpt>
      <trkpt lat="42.96754748560488224029541015625" lon="-2.37039752304553985595703125">
        <ele>1065.4000244140625</ele>
        <time>2022-04-17T11:24:37.000Z</time>
      </trkpt>
      <trkpt lat="42.96753943897783756256103515625" lon="-2.37038469873368740081787109375">
        <ele>1065.4000244140625</ele>
        <time>2022-04-17T11:24:38.000Z</time>
      </trkpt>
      <trkpt lat="42.96753088943660259246826171875" lon="-2.370380423963069915771484375">
        <ele>1065.5999755859375</ele>
        <time>2022-04-17T11:24:39.000Z</time>
      </trkpt>
      <trkpt lat="42.9675267823040485382080078125" lon="-2.37037346698343753814697265625">
        <ele>1065.5999755859375</ele>
        <time>2022-04-17T11:24:40.000Z</time>
      </trkpt>
      <trkpt lat="42.9675217531621456146240234375" lon="-2.3703688569366931915283203125">
        <ele>1065.800048828125</ele>
        <time>2022-04-17T11:24:41.000Z</time>
      </trkpt>
      <trkpt lat="42.967515550553798675537109375" lon="-2.3703651688992977142333984375">
        <ele>1065.800048828125</ele>
        <time>2022-04-17T11:24:42.000Z</time>
      </trkpt>
      <trkpt lat="42.96750976704061031341552734375" lon="-2.37035737372934818267822265625">
        <ele>1065.800048828125</ele>
        <time>2022-04-17T11:24:43.000Z</time>
      </trkpt>
      <trkpt lat="42.9675046540796756744384765625" lon="-2.370343543589115142822265625">
        <ele>1065.800048828125</ele>
        <time>2022-04-17T11:24:44.000Z</time>
      </trkpt>
      <trkpt lat="42.967494092881679534912109375" lon="-2.370330803096294403076171875">
        <ele>1065.800048828125</ele>
        <time>2022-04-17T11:24:45.000Z</time>
      </trkpt>
      <trkpt lat="42.9674858786165714263916015625" lon="-2.37032451666891574859619140625">
        <ele>1065.800048828125</ele>
        <time>2022-04-17T11:24:46.000Z</time>
      </trkpt>
      <trkpt lat="42.96747540123760700225830078125" lon="-2.3703178949654102325439453125">
        <ele>1065.800048828125</ele>
        <time>2022-04-17T11:24:47.000Z</time>
      </trkpt>
      <trkpt lat="42.96746601350605487823486328125" lon="-2.37031194381415843963623046875">
        <ele>1066</ele>
        <time>2022-04-17T11:24:48.000Z</time>
      </trkpt>
      <trkpt lat="42.96745612286031246185302734375" lon="-2.37030473537743091583251953125">
        <ele>1066.199951171875</ele>
        <time>2022-04-17T11:24:49.000Z</time>
      </trkpt>
      <trkpt lat="42.96744824387133121490478515625" lon="-2.37029300071299076080322265625">
        <ele>1066.199951171875</ele>
        <time>2022-04-17T11:24:50.000Z</time>
      </trkpt>
      <trkpt lat="42.96744170598685741424560546875" lon="-2.37028327770531177520751953125">
        <ele>1066.4000244140625</ele>
        <time>2022-04-17T11:24:51.000Z</time>
      </trkpt>
      <trkpt lat="42.967435084283351898193359375" lon="-2.370272465050220489501953125">
        <ele>1066.199951171875</ele>
        <time>2022-04-17T11:24:52.000Z</time>
      </trkpt>
      <trkpt lat="42.96742846257984638214111328125" lon="-2.3702645860612392425537109375">
        <ele>1066.199951171875</ele>
        <time>2022-04-17T11:24:53.000Z</time>
      </trkpt>
      <trkpt lat="42.96742225997149944305419921875" lon="-2.3702525161206722259521484375">
        <ele>1066.199951171875</ele>
        <time>2022-04-17T11:24:54.000Z</time>
      </trkpt>
      <trkpt lat="42.96741471625864505767822265625" lon="-2.37023550085723400115966796875">
        <ele>1066.4000244140625</ele>
        <time>2022-04-17T11:24:55.000Z</time>
      </trkpt>
      <trkpt lat="42.967407591640949249267578125" lon="-2.3702233470976352691650390625">
        <ele>1066.4000244140625</ele>
        <time>2022-04-17T11:24:56.000Z</time>
      </trkpt>
      <trkpt lat="42.96739644370973110198974609375" lon="-2.370212115347385406494140625">
        <ele>1066.4000244140625</ele>
        <time>2022-04-17T11:24:57.000Z</time>
      </trkpt>
      <trkpt lat="42.96738722361624240875244140625" lon="-2.3702039010822772979736328125">
        <ele>1066.4000244140625</ele>
        <time>2022-04-17T11:24:58.000Z</time>
      </trkpt>
      <trkpt lat="42.9673785902559757232666015625" lon="-2.37019962631165981292724609375">
        <ele>1066.4000244140625</ele>
        <time>2022-04-17T11:24:59.000Z</time>
      </trkpt>
      <trkpt lat="42.9673735611140727996826171875" lon="-2.3702049069106578826904296875">
        <ele>1066.4000244140625</ele>
        <time>2022-04-17T11:25:00.000Z</time>
      </trkpt>
      <trkpt lat="42.9673608206212520599365234375" lon="-2.370202727615833282470703125">
        <ele>1066.5999755859375</ele>
        <time>2022-04-17T11:25:01.000Z</time>
      </trkpt>
      <trkpt lat="42.96734883449971675872802734375" lon="-2.370193339884281158447265625">
        <ele>1066.5999755859375</ele>
        <time>2022-04-17T11:25:02.000Z</time>
      </trkpt>
      <trkpt lat="42.9673393629491329193115234375" lon="-2.37017598934471607208251953125">
        <ele>1066.800048828125</ele>
        <time>2022-04-17T11:25:03.000Z</time>
      </trkpt>
      <trkpt lat="42.9673390276730060577392578125" lon="-2.37015319056808948516845703125">
        <ele>1066.800048828125</ele>
        <time>2022-04-17T11:25:04.000Z</time>
      </trkpt>
      <trkpt lat="42.967336177825927734375" lon="-2.370137684047222137451171875">
        <ele>1067</ele>
        <time>2022-04-17T11:25:05.000Z</time>
      </trkpt>
      <trkpt lat="42.9673350043594837188720703125" lon="-2.37012938596308231353759765625">
        <ele>1067.199951171875</ele>
        <time>2022-04-17T11:25:06.000Z</time>
      </trkpt>
      <trkpt lat="42.967322431504726409912109375" lon="-2.37011999823153018951416015625">
        <ele>1067.199951171875</ele>
        <time>2022-04-17T11:25:07.000Z</time>
      </trkpt>
      <trkpt lat="42.967315055429935455322265625" lon="-2.370107173919677734375">
        <ele>1067.4000244140625</ele>
        <time>2022-04-17T11:25:08.000Z</time>
      </trkpt>
      <trkpt lat="42.96731547452509403228759765625" lon="-2.37009233795106410980224609375">
        <ele>1067.4000244140625</ele>
        <time>2022-04-17T11:25:09.000Z</time>
      </trkpt>
      <trkpt lat="42.96731664799153804779052734375" lon="-2.3700697906315326690673828125">
        <ele>1067.5999755859375</ele>
        <time>2022-04-17T11:25:10.000Z</time>
      </trkpt>
      <trkpt lat="42.96731815673410892486572265625" lon="-2.37006015144288539886474609375">
        <ele>1067.5999755859375</ele>
        <time>2022-04-17T11:25:11.000Z</time>
      </trkpt>
      <trkpt lat="42.9673168994486331939697265625" lon="-2.3700506798923015594482421875">
        <ele>1067.800048828125</ele>
        <time>2022-04-17T11:25:12.000Z</time>
      </trkpt>
      <trkpt lat="42.96731882728636264801025390625" lon="-2.37004321999847888946533203125">
        <ele>1067.800048828125</ele>
        <time>2022-04-17T11:25:13.000Z</time>
      </trkpt>
      <trkpt lat="42.96731614507734775543212890625" lon="-2.37003550864756107330322265625">
        <ele>1067.800048828125</ele>
        <time>2022-04-17T11:25:14.000Z</time>
      </trkpt>
      <trkpt lat="42.96731446869671344757080078125" lon="-2.37002830021083354949951171875">
        <ele>1068</ele>
        <time>2022-04-17T11:25:15.000Z</time>
      </trkpt>
      <trkpt lat="42.96731136739253997802734375" lon="-2.370021678507328033447265625">
        <ele>1068.199951171875</ele>
        <time>2022-04-17T11:25:16.000Z</time>
      </trkpt>
      <trkpt lat="42.96730524860322475433349609375" lon="-2.37001757137477397918701171875">
        <ele>1068.199951171875</ele>
        <time>2022-04-17T11:25:17.000Z</time>
      </trkpt>
      <trkpt lat="42.96730072237551212310791015625" lon="-2.37000902183353900909423828125">
        <ele>1068.199951171875</ele>
        <time>2022-04-17T11:25:18.000Z</time>
      </trkpt>
      <trkpt lat="42.9672981239855289459228515625" lon="-2.369995526969432830810546875">
        <ele>1068.199951171875</ele>
        <time>2022-04-17T11:25:19.000Z</time>
      </trkpt>
      <trkpt lat="42.96729217283427715301513671875" lon="-2.36998756416141986846923828125">
        <ele>1068.199951171875</ele>
        <time>2022-04-17T11:25:20.000Z</time>
      </trkpt>
      <trkpt lat="42.9672865569591522216796875" lon="-2.36997918225824832916259765625">
        <ele>1068.199951171875</ele>
        <time>2022-04-17T11:25:21.000Z</time>
      </trkpt>
      <trkpt lat="42.96728278510272502899169921875" lon="-2.36997105181217193603515625">
        <ele>1068.199951171875</ele>
        <time>2022-04-17T11:25:22.000Z</time>
      </trkpt>
      <trkpt lat="42.9672726429998874664306640625" lon="-2.3699635080993175506591796875">
        <ele>1068.199951171875</ele>
        <time>2022-04-17T11:25:23.000Z</time>
      </trkpt>
      <trkpt lat="42.96725965104997158050537109375" lon="-2.369959652423858642578125">
        <ele>1068.199951171875</ele>
        <time>2022-04-17T11:25:24.000Z</time>
      </trkpt>
      <trkpt lat="42.9672531969845294952392578125" lon="-2.3699487559497356414794921875">
        <ele>1068.199951171875</ele>
        <time>2022-04-17T11:25:25.000Z</time>
      </trkpt>
      <trkpt lat="42.96724833548069000244140625" lon="-2.36993693746626377105712890625">
        <ele>1068.199951171875</ele>
        <time>2022-04-17T11:25:26.000Z</time>
      </trkpt>
      <trkpt lat="42.9672485031187534332275390625" lon="-2.369926460087299346923828125">
        <ele>1068.199951171875</ele>
        <time>2022-04-17T11:25:27.000Z</time>
      </trkpt>
      <trkpt lat="42.9672488383948802947998046875" lon="-2.3699068464338779449462890625">
        <ele>1068.199951171875</ele>
        <time>2022-04-17T11:25:28.000Z</time>
      </trkpt>
      <trkpt lat="42.96724422834813594818115234375" lon="-2.36988949589431285858154296875">
        <ele>1068.199951171875</ele>
        <time>2022-04-17T11:25:29.000Z</time>
      </trkpt>
      <trkpt lat="42.9672350920736789703369140625" lon="-2.36987222917377948760986328125">
        <ele>1068.199951171875</ele>
        <time>2022-04-17T11:25:30.000Z</time>
      </trkpt>
      <trkpt lat="42.96722947619855403900146484375" lon="-2.36986116506159305572509765625">
        <ele>1068.199951171875</ele>
        <time>2022-04-17T11:25:31.000Z</time>
      </trkpt>
      <trkpt lat="42.9672213457524776458740234375" lon="-2.369850687682628631591796875">
        <ele>1068.199951171875</ele>
        <time>2022-04-17T11:25:32.000Z</time>
      </trkpt>
      <trkpt lat="42.96721606515347957611083984375" lon="-2.36983937211334705352783203125">
        <ele>1068.199951171875</ele>
        <time>2022-04-17T11:25:33.000Z</time>
      </trkpt>
      <trkpt lat="42.967207767069339752197265625" lon="-2.3698250390589237213134765625">
        <ele>1068.199951171875</ele>
        <time>2022-04-17T11:25:34.000Z</time>
      </trkpt>
      <trkpt lat="42.96720265410840511322021484375" lon="-2.36981280148029327392578125">
        <ele>1068.199951171875</ele>
        <time>2022-04-17T11:25:35.000Z</time>
      </trkpt>
      <trkpt lat="42.96719829551875591278076171875" lon="-2.369795702397823333740234375">
        <ele>1068.199951171875</ele>
        <time>2022-04-17T11:25:36.000Z</time>
      </trkpt>
      <trkpt lat="42.96719611622393131256103515625" lon="-2.369782961905002593994140625">
        <ele>1068.199951171875</ele>
        <time>2022-04-17T11:25:37.000Z</time>
      </trkpt>
      <trkpt lat="42.96719066798686981201171875" lon="-2.3697727359831333160400390625">
        <ele>1068.199951171875</ele>
        <time>2022-04-17T11:25:38.000Z</time>
      </trkpt>
      <trkpt lat="42.9671817831695079803466796875" lon="-2.36976561136543750762939453125">
        <ele>1068.199951171875</ele>
        <time>2022-04-17T11:25:39.000Z</time>
      </trkpt>
      <trkpt lat="42.96717398799955844879150390625" lon="-2.3697589896619319915771484375">
        <ele>1068.199951171875</ele>
        <time>2022-04-17T11:25:40.000Z</time>
      </trkpt>
      <trkpt lat="42.9671640135347843170166015625" lon="-2.36975245177745819091796875">
        <ele>1068.199951171875</ele>
        <time>2022-04-17T11:25:41.000Z</time>
      </trkpt>
      <trkpt lat="42.96715387143194675445556640625" lon="-2.36974482424557209014892578125">
        <ele>1068.4000244140625</ele>
        <time>2022-04-17T11:25:42.000Z</time>
      </trkpt>
      <trkpt lat="42.967146076261997222900390625" lon="-2.36973627470433712005615234375">
        <ele>1068.4000244140625</ele>
        <time>2022-04-17T11:25:43.000Z</time>
      </trkpt>
      <trkpt lat="42.96713593415915966033935546875" lon="-2.3697254620492458343505859375">
        <ele>1068.4000244140625</ele>
        <time>2022-04-17T11:25:44.000Z</time>
      </trkpt>
      <trkpt lat="42.96712763607501983642578125" lon="-2.3697093687951564788818359375">
        <ele>1068.5999755859375</ele>
        <time>2022-04-17T11:25:45.000Z</time>
      </trkpt>
      <trkpt lat="42.96711430884897708892822265625" lon="-2.3696966283023357391357421875">
        <ele>1068.5999755859375</ele>
        <time>2022-04-17T11:25:46.000Z</time>
      </trkpt>
      <trkpt lat="42.9671090282499790191650390625" lon="-2.36968615092337131500244140625">
        <ele>1068.5999755859375</ele>
        <time>2022-04-17T11:25:47.000Z</time>
      </trkpt>
      <trkpt lat="42.96710592694580554962158203125" lon="-2.369680702686309814453125">
        <ele>1068.5999755859375</ele>
        <time>2022-04-17T11:25:48.000Z</time>
      </trkpt>
      <trkpt lat="42.9671036638319492340087890625" lon="-2.3696738295257091522216796875">
        <ele>1068.5999755859375</ele>
        <time>2022-04-17T11:25:49.000Z</time>
      </trkpt>
      <trkpt lat="42.96709855087101459503173828125" lon="-2.3696590773761272430419921875">
        <ele>1068.5999755859375</ele>
        <time>2022-04-17T11:25:50.000Z</time>
      </trkpt>
      <trkpt lat="42.96709016896784305572509765625" lon="-2.36964843235909938812255859375">
        <ele>1068.800048828125</ele>
        <time>2022-04-17T11:25:51.000Z</time>
      </trkpt>
      <trkpt lat="42.967079691588878631591796875" lon="-2.3696406371891498565673828125">
        <ele>1068.800048828125</ele>
        <time>2022-04-17T11:25:52.000Z</time>
      </trkpt>
      <trkpt lat="42.96706820838153362274169921875" lon="-2.36963845789432525634765625">
        <ele>1068.800048828125</ele>
        <time>2022-04-17T11:25:53.000Z</time>
      </trkpt>
      <trkpt lat="42.96705865301191806793212890625" lon="-2.36962814815342426300048828125">
        <ele>1068.800048828125</ele>
        <time>2022-04-17T11:25:54.000Z</time>
      </trkpt>
      <trkpt lat="42.9670523665845394134521484375" lon="-2.36961104907095432281494140625">
        <ele>1068.800048828125</ele>
        <time>2022-04-17T11:25:55.000Z</time>
      </trkpt>
      <trkpt lat="42.96704708598554134368896484375" lon="-2.36959755420684814453125">
        <ele>1068.800048828125</ele>
        <time>2022-04-17T11:25:56.000Z</time>
      </trkpt>
      <trkpt lat="42.96704188920557498931884765625" lon="-2.3695799522101879119873046875">
        <ele>1068.800048828125</ele>
        <time>2022-04-17T11:25:57.000Z</time>
      </trkpt>
      <trkpt lat="42.96703468076884746551513671875" lon="-2.369568049907684326171875">
        <ele>1068.800048828125</ele>
        <time>2022-04-17T11:25:58.000Z</time>
      </trkpt>
      <trkpt lat="42.96703216619789600372314453125" lon="-2.36955665051937103271484375">
        <ele>1068.800048828125</ele>
        <time>2022-04-17T11:25:59.000Z</time>
      </trkpt>
      <trkpt lat="42.96702881343662738800048828125" lon="-2.369544245302677154541015625">
        <ele>1069</ele>
        <time>2022-04-17T11:26:00.000Z</time>
      </trkpt>
      <trkpt lat="42.96701909042894840240478515625" lon="-2.36953443847596645355224609375">
        <ele>1069</ele>
        <time>2022-04-17T11:26:01.000Z</time>
      </trkpt>
      <trkpt lat="42.96700567938387393951416015625" lon="-2.36952245235443115234375">
        <ele>1069</ele>
        <time>2022-04-17T11:26:02.000Z</time>
      </trkpt>
      <trkpt lat="42.96700023114681243896484375" lon="-2.36951172351837158203125">
        <ele>1069</ele>
        <time>2022-04-17T11:26:03.000Z</time>
      </trkpt>
      <trkpt lat="42.96700350008904933929443359375" lon="-2.369506023824214935302734375">
        <ele>1069</ele>
        <time>2022-04-17T11:26:04.000Z</time>
      </trkpt>
      <trkpt lat="42.967000566422939300537109375" lon="-2.3694981448352336883544921875">
        <ele>1069</ele>
        <time>2022-04-17T11:26:05.000Z</time>
      </trkpt>
      <trkpt lat="42.96700157225131988525390625" lon="-2.369487248361110687255859375">
        <ele>1069</ele>
        <time>2022-04-17T11:26:06.000Z</time>
      </trkpt>
      <trkpt lat="42.96699981205165386199951171875" lon="-2.36947727389633655548095703125">
        <ele>1069.199951171875</ele>
        <time>2022-04-17T11:26:07.000Z</time>
      </trkpt>
      <trkpt lat="42.966999895870685577392578125" lon="-2.36946453340351581573486328125">
        <ele>1069.199951171875</ele>
        <time>2022-04-17T11:26:08.000Z</time>
      </trkpt>
      <trkpt lat="42.9669960401952266693115234375" lon="-2.36945128999650478363037109375">
        <ele>1069.4000244140625</ele>
        <time>2022-04-17T11:26:09.000Z</time>
      </trkpt>
      <trkpt lat="42.9669839702546596527099609375" lon="-2.36944961361587047576904296875">
        <ele>1069.5999755859375</ele>
        <time>2022-04-17T11:26:10.000Z</time>
      </trkpt>
      <trkpt lat="42.96697097830474376678466796875" lon="-2.36945548094809055328369140625">
        <ele>1069.5999755859375</ele>
        <time>2022-04-17T11:26:11.000Z</time>
      </trkpt>
      <trkpt lat="42.96696511097252368927001953125" lon="-2.36944994889199733734130859375">
        <ele>1069.5999755859375</ele>
        <time>2022-04-17T11:26:12.000Z</time>
      </trkpt>
      <trkpt lat="42.96696075238287448883056640625" lon="-2.36944123171269893646240234375">
        <ele>1069.5999755859375</ele>
        <time>2022-04-17T11:26:13.000Z</time>
      </trkpt>
      <trkpt lat="42.96695999801158905029296875" lon="-2.369433939456939697265625">
        <ele>1069.800048828125</ele>
        <time>2022-04-17T11:26:14.000Z</time>
      </trkpt>
      <trkpt lat="42.96695974655449390411376953125" lon="-2.36942295916378498077392578125">
        <ele>1069.800048828125</ele>
        <time>2022-04-17T11:26:15.000Z</time>
      </trkpt>
      <trkpt lat="42.96695656143128871917724609375" lon="-2.3694149963557720184326171875">
        <ele>1070</ele>
        <time>2022-04-17T11:26:16.000Z</time>
      </trkpt>
      <trkpt lat="42.96694935299456119537353515625" lon="-2.36940837465226650238037109375">
        <ele>1070</ele>
        <time>2022-04-17T11:26:17.000Z</time>
      </trkpt>
      <trkpt lat="42.96694834716618061065673828125" lon="-2.36940418370068073272705078125">
        <ele>1070</ele>
        <time>2022-04-17T11:26:18.000Z</time>
      </trkpt>
      <trkpt lat="42.9669370315968990325927734375" lon="-2.3694046027958393096923828125">
        <ele>1070</ele>
        <time>2022-04-17T11:26:19.000Z</time>
      </trkpt>
      <trkpt lat="42.96692471019923686981201171875" lon="-2.3693962208926677703857421875">
        <ele>1070</ele>
        <time>2022-04-17T11:26:20.000Z</time>
      </trkpt>
      <trkpt lat="42.9669162444770336151123046875" lon="-2.369381971657276153564453125">
        <ele>1070</ele>
        <time>2022-04-17T11:26:21.000Z</time>
      </trkpt>
      <trkpt lat="42.96691238880157470703125" lon="-2.36937417648732662200927734375">
        <ele>1070.199951171875</ele>
        <time>2022-04-17T11:26:22.000Z</time>
      </trkpt>
      <trkpt lat="42.96690593473613262176513671875" lon="-2.369365878403186798095703125">
        <ele>1070</ele>
        <time>2022-04-17T11:26:23.000Z</time>
      </trkpt>
      <trkpt lat="42.966898977756500244140625" lon="-2.36936151981353759765625">
        <ele>1070.199951171875</ele>
        <time>2022-04-17T11:26:24.000Z</time>
      </trkpt>
      <trkpt lat="42.96689067967236042022705078125" lon="-2.36935355700552463531494140625">
        <ele>1070.199951171875</ele>
        <time>2022-04-17T11:26:25.000Z</time>
      </trkpt>
      <trkpt lat="42.96688380651175975799560546875" lon="-2.3693454265594482421875">
        <ele>1070.199951171875</ele>
        <time>2022-04-17T11:26:26.000Z</time>
      </trkpt>
      <trkpt lat="42.96687592752277851104736328125" lon="-2.369334362447261810302734375">
        <ele>1070</ele>
        <time>2022-04-17T11:26:27.000Z</time>
      </trkpt>
      <trkpt lat="42.96687148511409759521484375" lon="-2.3693234659731388092041015625">
        <ele>1070</ele>
        <time>2022-04-17T11:26:28.000Z</time>
      </trkpt>
      <trkpt lat="42.966862432658672332763671875" lon="-2.3693157546222209930419921875">
        <ele>1070</ele>
        <time>2022-04-17T11:26:29.000Z</time>
      </trkpt>
      <trkpt lat="42.96685530804097652435302734375" lon="-2.36930544488131999969482421875">
        <ele>1070</ele>
        <time>2022-04-17T11:26:30.000Z</time>
      </trkpt>
      <trkpt lat="42.9668471775949001312255859375" lon="-2.36929505132138729095458984375">
        <ele>1070</ele>
        <time>2022-04-17T11:26:31.000Z</time>
      </trkpt>
      <trkpt lat="42.9668387956917285919189453125" lon="-2.3692875914275646209716796875">
        <ele>1070.199951171875</ele>
        <time>2022-04-17T11:26:32.000Z</time>
      </trkpt>
      <trkpt lat="42.9668304137885570526123046875" lon="-2.36927543766796588897705078125">
        <ele>1070.199951171875</ele>
        <time>2022-04-17T11:26:33.000Z</time>
      </trkpt>
      <trkpt lat="42.96681515872478485107421875" lon="-2.3692671395838260650634765625">
        <ele>1070.199951171875</ele>
        <time>2022-04-17T11:26:34.000Z</time>
      </trkpt>
      <trkpt lat="42.9668052680790424346923828125" lon="-2.369257248938083648681640625">
        <ele>1070.4000244140625</ele>
        <time>2022-04-17T11:26:35.000Z</time>
      </trkpt>
      <trkpt lat="42.96679965220391750335693359375" lon="-2.369245178997516632080078125">
        <ele>1070.4000244140625</ele>
        <time>2022-04-17T11:26:36.000Z</time>
      </trkpt>
      <trkpt lat="42.96679529361426830291748046875" lon="-2.36923252232372760772705078125">
        <ele>1070.4000244140625</ele>
        <time>2022-04-17T11:26:37.000Z</time>
      </trkpt>
      <trkpt lat="42.9667881689965724945068359375" lon="-2.369223050773143768310546875">
        <ele>1070.5999755859375</ele>
        <time>2022-04-17T11:26:38.000Z</time>
      </trkpt>
      <trkpt lat="42.9667811281979084014892578125" lon="-2.36920922063291072845458984375">
        <ele>1070.800048828125</ele>
        <time>2022-04-17T11:26:39.000Z</time>
      </trkpt>
      <trkpt lat="42.96677584759891033172607421875" lon="-2.3691953904926776885986328125">
        <ele>1070.800048828125</ele>
        <time>2022-04-17T11:26:40.000Z</time>
      </trkpt>
      <trkpt lat="42.966769225895404815673828125" lon="-2.3691873438656330108642578125">
        <ele>1071</ele>
        <time>2022-04-17T11:26:41.000Z</time>
      </trkpt>
      <trkpt lat="42.9667662084102630615234375" lon="-2.369178794324398040771484375">
        <ele>1071.199951171875</ele>
        <time>2022-04-17T11:26:42.000Z</time>
      </trkpt>
      <trkpt lat="42.9667623527348041534423828125" lon="-2.36917183734476566314697265625">
        <ele>1071.199951171875</ele>
        <time>2022-04-17T11:26:43.000Z</time>
      </trkpt>
      <trkpt lat="42.9667573235929012298583984375" lon="-2.36916395835578441619873046875">
        <ele>1071.4000244140625</ele>
        <time>2022-04-17T11:26:44.000Z</time>
      </trkpt>
      <trkpt lat="42.96675019897520542144775390625" lon="-2.36915390007197856903076171875">
        <ele>1071.5999755859375</ele>
        <time>2022-04-17T11:26:45.000Z</time>
      </trkpt>
      <trkpt lat="42.96674584038555622100830078125" lon="-2.3691424168646335601806640625">
        <ele>1071.5999755859375</ele>
        <time>2022-04-17T11:26:46.000Z</time>
      </trkpt>
      <trkpt lat="42.9667422361671924591064453125" lon="-2.3691357113420963287353515625">
        <ele>1071.800048828125</ele>
        <time>2022-04-17T11:26:47.000Z</time>
      </trkpt>
      <trkpt lat="42.966740392148494720458984375" lon="-2.3691293410956859588623046875">
        <ele>1072</ele>
        <time>2022-04-17T11:26:48.000Z</time>
      </trkpt>
      <trkpt lat="42.9667392186820507049560546875" lon="-2.36911903135478496551513671875">
        <ele>1072.199951171875</ele>
        <time>2022-04-17T11:26:49.000Z</time>
      </trkpt>
      <trkpt lat="42.96674005687236785888671875" lon="-2.36910528503358364105224609375">
        <ele>1072.4000244140625</ele>
        <time>2022-04-17T11:26:50.000Z</time>
      </trkpt>
      <trkpt lat="42.9667429067194461822509765625" lon="-2.36908785067498683929443359375">
        <ele>1072.4000244140625</ele>
        <time>2022-04-17T11:26:51.000Z</time>
      </trkpt>
      <trkpt lat="42.9667455889284610748291015625" lon="-2.36907309852540493011474609375">
        <ele>1072.5999755859375</ele>
        <time>2022-04-17T11:26:52.000Z</time>
      </trkpt>
      <trkpt lat="42.9667459242045879364013671875" lon="-2.3690653033554553985595703125">
        <ele>1072.800048828125</ele>
        <time>2022-04-17T11:26:53.000Z</time>
      </trkpt>
      <trkpt lat="42.96674148179590702056884765625" lon="-2.36906178295612335205078125">
        <ele>1073</ele>
        <time>2022-04-17T11:26:54.000Z</time>
      </trkpt>
      <trkpt lat="42.96673335134983062744140625" lon="-2.36905641853809356689453125">
        <ele>1073.199951171875</ele>
        <time>2022-04-17T11:26:55.000Z</time>
      </trkpt>
      <trkpt lat="42.96673326753079891204833984375" lon="-2.3690532334148883819580078125">
        <ele>1073.4000244140625</ele>
        <time>2022-04-17T11:26:56.000Z</time>
      </trkpt>
      <trkpt lat="42.96671918593347072601318359375" lon="-2.3690428398549556732177734375">
        <ele>1073.4000244140625</ele>
        <time>2022-04-17T11:26:57.000Z</time>
      </trkpt>
      <trkpt lat="42.966694124042987823486328125" lon="-2.36903227865695953369140625">
        <ele>1073.4000244140625</ele>
        <time>2022-04-17T11:26:58.000Z</time>
      </trkpt>
      <trkpt lat="42.9666885919868946075439453125" lon="-2.36900755204260349273681640625">
        <ele>1073.5999755859375</ele>
        <time>2022-04-17T11:26:59.000Z</time>
      </trkpt>
      <trkpt lat="42.9666805453598499298095703125" lon="-2.36899263225495815277099609375">
        <ele>1073.5999755859375</ele>
        <time>2022-04-17T11:27:00.000Z</time>
      </trkpt>
      <trkpt lat="42.96667878516018390655517578125" lon="-2.36898475326597690582275390625">
        <ele>1073.5999755859375</ele>
        <time>2022-04-17T11:27:01.000Z</time>
      </trkpt>
      <trkpt lat="42.96667828224599361419677734375" lon="-2.3689724318683147430419921875">
        <ele>1073.5999755859375</ele>
        <time>2022-04-17T11:27:02.000Z</time>
      </trkpt>
      <trkpt lat="42.96667241491377353668212890625" lon="-2.3689663968980312347412109375">
        <ele>1073.5999755859375</ele>
        <time>2022-04-17T11:27:03.000Z</time>
      </trkpt>
      <trkpt lat="42.96666227281093597412109375" lon="-2.3689627088606357574462890625">
        <ele>1073.5999755859375</ele>
        <time>2022-04-17T11:27:04.000Z</time>
      </trkpt>
      <trkpt lat="42.9666550643742084503173828125" lon="-2.36895851790904998779296875">
        <ele>1073.800048828125</ele>
        <time>2022-04-17T11:27:05.000Z</time>
      </trkpt>
      <trkpt lat="42.9666460119187831878662109375" lon="-2.3689506389200687408447265625">
        <ele>1073.800048828125</ele>
        <time>2022-04-17T11:27:06.000Z</time>
      </trkpt>
      <trkpt lat="42.96663888730108737945556640625" lon="-2.3689435981214046478271484375">
        <ele>1073.800048828125</ele>
        <time>2022-04-17T11:27:07.000Z</time>
      </trkpt>
      <trkpt lat="42.9666309244930744171142578125" lon="-2.36893714405596256256103515625">
        <ele>1073.800048828125</ele>
        <time>2022-04-17T11:27:08.000Z</time>
      </trkpt>
      <trkpt lat="42.96662011183798313140869140625" lon="-2.3689337074756622314453125">
        <ele>1073.800048828125</ele>
        <time>2022-04-17T11:27:09.000Z</time>
      </trkpt>
      <trkpt lat="42.966612316668033599853515625" lon="-2.36892926506698131561279296875">
        <ele>1073.800048828125</ele>
        <time>2022-04-17T11:27:10.000Z</time>
      </trkpt>
      <trkpt lat="42.96660603024065494537353515625" lon="-2.3689207993447780609130859375">
        <ele>1073.800048828125</ele>
        <time>2022-04-17T11:27:11.000Z</time>
      </trkpt>
      <trkpt lat="42.966602258384227752685546875" lon="-2.368909902870655059814453125">
        <ele>1074</ele>
        <time>2022-04-17T11:27:12.000Z</time>
      </trkpt>
      <trkpt lat="42.96659848652780055999755859375" lon="-2.368902862071990966796875">
        <ele>1074</ele>
        <time>2022-04-17T11:27:13.000Z</time>
      </trkpt>
      <trkpt lat="42.96659312210977077484130859375" lon="-2.368903197348117828369140625">
        <ele>1074.199951171875</ele>
        <time>2022-04-17T11:27:14.000Z</time>
      </trkpt>
      <trkpt lat="42.96658457256853580474853515625" lon="-2.3688976652920246124267578125">
        <ele>1074.199951171875</ele>
        <time>2022-04-17T11:27:15.000Z</time>
      </trkpt>
      <trkpt lat="42.966577447950839996337890625" lon="-2.368888445198535919189453125">
        <ele>1074.4000244140625</ele>
        <time>2022-04-17T11:27:16.000Z</time>
      </trkpt>
      <trkpt lat="42.966570742428302764892578125" lon="-2.36887872219085693359375">
        <ele>1074.5999755859375</ele>
        <time>2022-04-17T11:27:17.000Z</time>
      </trkpt>
      <trkpt lat="42.96656814403831958770751953125" lon="-2.3688738606870174407958984375">
        <ele>1074.800048828125</ele>
        <time>2022-04-17T11:27:18.000Z</time>
      </trkpt>
      <trkpt lat="42.9665595106780529022216796875" lon="-2.368871010839939117431640625">
        <ele>1074.800048828125</ele>
        <time>2022-04-17T11:27:19.000Z</time>
      </trkpt>
      <trkpt lat="42.96655020676553249359130859375" lon="-2.36886422149837017059326171875">
        <ele>1074.800048828125</ele>
        <time>2022-04-17T11:27:20.000Z</time>
      </trkpt>
      <trkpt lat="42.96653931029140949249267578125" lon="-2.36885852180421352386474609375">
        <ele>1074.800048828125</ele>
        <time>2022-04-17T11:27:21.000Z</time>
      </trkpt>
      <trkpt lat="42.96653009019792079925537109375" lon="-2.36885248683393001556396484375">
        <ele>1075</ele>
        <time>2022-04-17T11:27:22.000Z</time>
      </trkpt>
      <trkpt lat="42.9665216244757175445556640625" lon="-2.3688453622162342071533203125">
        <ele>1075</ele>
        <time>2022-04-17T11:27:23.000Z</time>
      </trkpt>
      <trkpt lat="42.96651533804833889007568359375" lon="-2.36882516182959079742431640625">
        <ele>1075.199951171875</ele>
        <time>2022-04-17T11:27:24.000Z</time>
      </trkpt>
      <trkpt lat="42.96650846488773822784423828125" lon="-2.36881091259419918060302734375">
        <ele>1075.199951171875</ele>
        <time>2022-04-17T11:27:25.000Z</time>
      </trkpt>
      <trkpt lat="42.96649605967104434967041015625" lon="-2.36879666335880756378173828125">
        <ele>1075.4000244140625</ele>
        <time>2022-04-17T11:27:26.000Z</time>
      </trkpt>
      <trkpt lat="42.9664914496243000030517578125" lon="-2.36878090538084506988525390625">
        <ele>1075.5999755859375</ele>
        <time>2022-04-17T11:27:27.000Z</time>
      </trkpt>
      <trkpt lat="42.96648658812046051025390625" lon="-2.3687736131250858306884765625">
        <ele>1075.800048828125</ele>
        <time>2022-04-17T11:27:28.000Z</time>
      </trkpt>
      <trkpt lat="42.96648818068206310272216796875" lon="-2.36876673996448516845703125">
        <ele>1075.800048828125</ele>
        <time>2022-04-17T11:27:29.000Z</time>
      </trkpt>
      <trkpt lat="42.96649136580526828765869140625" lon="-2.3687605373561382293701171875">
        <ele>1076</ele>
        <time>2022-04-17T11:27:30.000Z</time>
      </trkpt>
      <trkpt lat="42.96648901887238025665283203125" lon="-2.36875240691006183624267578125">
        <ele>1076</ele>
        <time>2022-04-17T11:27:31.000Z</time>
      </trkpt>
      <trkpt lat="42.96648868359625339508056640625" lon="-2.36873765476047992706298828125">
        <ele>1076</ele>
        <time>2022-04-17T11:27:32.000Z</time>
      </trkpt>
      <trkpt lat="42.9664834029972553253173828125" lon="-2.368724159896373748779296875">
        <ele>1076.199951171875</ele>
        <time>2022-04-17T11:27:33.000Z</time>
      </trkpt>
      <trkpt lat="42.9664760269224643707275390625" lon="-2.3687139339745044708251953125">
        <ele>1076.199951171875</ele>
        <time>2022-04-17T11:27:34.000Z</time>
      </trkpt>
      <trkpt lat="42.9664706625044345855712890625" lon="-2.368699014186859130859375">
        <ele>1076.199951171875</ele>
        <time>2022-04-17T11:27:35.000Z</time>
      </trkpt>
      <trkpt lat="42.9664656333625316619873046875" lon="-2.368679232895374298095703125">
        <ele>1076.4000244140625</ele>
        <time>2022-04-17T11:27:36.000Z</time>
      </trkpt>
      <trkpt lat="42.96645029447972774505615234375" lon="-2.368667162954807281494140625">
        <ele>1076.5999755859375</ele>
        <time>2022-04-17T11:27:37.000Z</time>
      </trkpt>
      <trkpt lat="42.9664357937872409820556640625" lon="-2.368665151298046112060546875">
        <ele>1076.800048828125</ele>
        <time>2022-04-17T11:27:38.000Z</time>
      </trkpt>
      <trkpt lat="42.96642959117889404296875" lon="-2.36866054125130176544189453125">
        <ele>1076.800048828125</ele>
        <time>2022-04-17T11:27:39.000Z</time>
      </trkpt>
      <trkpt lat="42.96642330475151538848876953125" lon="-2.3686519078910350799560546875">
        <ele>1077</ele>
        <time>2022-04-17T11:27:40.000Z</time>
      </trkpt>
      <trkpt lat="42.96641894616186618804931640625" lon="-2.36864159815013408660888671875">
        <ele>1077</ele>
        <time>2022-04-17T11:27:41.000Z</time>
      </trkpt>
      <trkpt lat="42.96641827560961246490478515625" lon="-2.36863757483661174774169921875">
        <ele>1077.199951171875</ele>
        <time>2022-04-17T11:27:42.000Z</time>
      </trkpt>
      <trkpt lat="42.96641978435218334197998046875" lon="-2.36863128840923309326171875">
        <ele>1077.199951171875</ele>
        <time>2022-04-17T11:27:43.000Z</time>
      </trkpt>
      <trkpt lat="42.9664190299808979034423828125" lon="-2.368623577058315277099609375">
        <ele>1077.4000244140625</ele>
        <time>2022-04-17T11:27:44.000Z</time>
      </trkpt>
      <trkpt lat="42.966417185962200164794921875" lon="-2.3686158657073974609375">
        <ele>1077.4000244140625</ele>
        <time>2022-04-17T11:27:45.000Z</time>
      </trkpt>
      <trkpt lat="42.96641291119158267974853515625" lon="-2.36860337667167186737060546875">
        <ele>1077.5999755859375</ele>
        <time>2022-04-17T11:27:46.000Z</time>
      </trkpt>
      <trkpt lat="42.9664076305925846099853515625" lon="-2.368584014475345611572265625">
        <ele>1077.800048828125</ele>
        <time>2022-04-17T11:27:47.000Z</time>
      </trkpt>
      <trkpt lat="42.966405116021633148193359375" lon="-2.36856834031641483306884765625">
        <ele>1077.800048828125</ele>
        <time>2022-04-17T11:27:48.000Z</time>
      </trkpt>
      <trkpt lat="42.96640335582196712493896484375" lon="-2.36855023540556430816650390625">
        <ele>1078</ele>
        <time>2022-04-17T11:27:49.000Z</time>
      </trkpt>
      <trkpt lat="42.96640151180326938629150390625" lon="-2.3685382492840290069580078125">
        <ele>1078</ele>
        <time>2022-04-17T11:27:50.000Z</time>
      </trkpt>
      <trkpt lat="42.9663955606520175933837890625" lon="-2.36853615380823612213134765625">
        <ele>1078.199951171875</ele>
        <time>2022-04-17T11:27:51.000Z</time>
      </trkpt>
      <trkpt lat="42.96638156287372112274169921875" lon="-2.368528358638286590576171875">
        <ele>1078.4000244140625</ele>
        <time>2022-04-17T11:27:52.000Z</time>
      </trkpt>
      <trkpt lat="42.96637083403766155242919921875" lon="-2.3685204796493053436279296875">
        <ele>1078.5999755859375</ele>
        <time>2022-04-17T11:27:53.000Z</time>
      </trkpt>
      <trkpt lat="42.96636295504868030548095703125" lon="-2.3685126006603240966796875">
        <ele>1078.800048828125</ele>
        <time>2022-04-17T11:27:54.000Z</time>
      </trkpt>
      <trkpt lat="42.9663583450019359588623046875" lon="-2.3685074038803577423095703125">
        <ele>1079</ele>
        <time>2022-04-17T11:27:55.000Z</time>
      </trkpt>
      <trkpt lat="42.966354824602603912353515625" lon="-2.36849156208336353302001953125">
        <ele>1079</ele>
        <time>2022-04-17T11:27:56.000Z</time>
      </trkpt>
      <trkpt lat="42.966345436871051788330078125" lon="-2.3684829287230968475341796875">
        <ele>1079.4000244140625</ele>
        <time>2022-04-17T11:27:57.000Z</time>
      </trkpt>
      <trkpt lat="42.96633504331111907958984375" lon="-2.36848100088536739349365234375">
        <ele>1079.5999755859375</ele>
        <time>2022-04-17T11:27:58.000Z</time>
      </trkpt>
      <trkpt lat="42.9663244821131229400634765625" lon="-2.36847245134413242340087890625">
        <ele>1079.800048828125</ele>
        <time>2022-04-17T11:27:59.000Z</time>
      </trkpt>
      <trkpt lat="42.966324649751186370849609375" lon="-2.3684567771852016448974609375">
        <ele>1079.800048828125</ele>
        <time>2022-04-17T11:28:00.000Z</time>
      </trkpt>
      <trkpt lat="42.96631920151412487030029296875" lon="-2.36844982020556926727294921875">
        <ele>1080</ele>
        <time>2022-04-17T11:28:01.000Z</time>
      </trkpt>
      <trkpt lat="42.9663201235234737396240234375" lon="-2.368441857397556304931640625">
        <ele>1080.199951171875</ele>
        <time>2022-04-17T11:28:02.000Z</time>
      </trkpt>
      <trkpt lat="42.966321967542171478271484375" lon="-2.368427775800228118896484375">
        <ele>1080.4000244140625</ele>
        <time>2022-04-17T11:28:03.000Z</time>
      </trkpt>
      <trkpt lat="42.96632171608507633209228515625" lon="-2.3684115149080753326416015625">
        <ele>1080.5999755859375</ele>
        <time>2022-04-17T11:28:04.000Z</time>
      </trkpt>
      <trkpt lat="42.9663234762847423553466796875" lon="-2.3683900572359561920166015625">
        <ele>1080.5999755859375</ele>
        <time>2022-04-17T11:28:05.000Z</time>
      </trkpt>
      <trkpt lat="42.9663264937698841094970703125" lon="-2.36837505362927913665771484375">
        <ele>1080.800048828125</ele>
        <time>2022-04-17T11:28:06.000Z</time>
      </trkpt>
      <trkpt lat="42.96632942743599414825439453125" lon="-2.36836214549839496612548828125">
        <ele>1081</ele>
        <time>2022-04-17T11:28:07.000Z</time>
      </trkpt>
      <trkpt lat="42.96633504331111907958984375" lon="-2.36835376359522342681884765625">
        <ele>1081</ele>
        <time>2022-04-17T11:28:08.000Z</time>
      </trkpt>
      <trkpt lat="42.96634283848106861114501953125" lon="-2.3683501593768596649169921875">
        <ele>1081.199951171875</ele>
        <time>2022-04-17T11:28:09.000Z</time>
      </trkpt>
      <trkpt lat="42.96635289676487445831298828125" lon="-2.368350327014923095703125">
        <ele>1081.199951171875</ele>
        <time>2022-04-17T11:28:10.000Z</time>
      </trkpt>
      <trkpt lat="42.96636094339191913604736328125" lon="-2.36835233867168426513671875">
        <ele>1081.4000244140625</ele>
        <time>2022-04-17T11:28:11.000Z</time>
      </trkpt>
      <trkpt lat="42.96636513434350490570068359375" lon="-2.368352003395557403564453125">
        <ele>1081.5999755859375</ele>
        <time>2022-04-17T11:28:12.000Z</time>
      </trkpt>
      <trkpt lat="42.966370917856693267822265625" lon="-2.36835493706166744232177734375">
        <ele>1081.800048828125</ele>
        <time>2022-04-17T11:28:13.000Z</time>
      </trkpt>
      <trkpt lat="42.96637661755084991455078125" lon="-2.36835158430039882659912109375">
        <ele>1081.800048828125</ele>
        <time>2022-04-17T11:28:14.000Z</time>
      </trkpt>
      <trkpt lat="42.96638105995953083038330078125" lon="-2.3683489859104156494140625">
        <ele>1082</ele>
        <time>2022-04-17T11:28:15.000Z</time>
      </trkpt>
      <trkpt lat="42.9663844965398311614990234375" lon="-2.3683555237948894500732421875">
        <ele>1082.4000244140625</ele>
        <time>2022-04-17T11:28:16.000Z</time>
      </trkpt>
      <trkpt lat="42.966387011110782623291015625" lon="-2.3683592118322849273681640625">
        <ele>1082.4000244140625</ele>
        <time>2022-04-17T11:28:17.000Z</time>
      </trkpt>
      <trkpt lat="42.966394387185573577880859375" lon="-2.3683612234890460968017578125">
        <ele>1082.5999755859375</ele>
        <time>2022-04-17T11:28:18.000Z</time>
      </trkpt>
      <trkpt lat="42.96640251763164997100830078125" lon="-2.36836851574480533599853515625">
        <ele>1083</ele>
        <time>2022-04-17T11:28:19.000Z</time>
      </trkpt>
      <trkpt lat="42.9664039425551891326904296875" lon="-2.368375472724437713623046875">
        <ele>1083.4000244140625</ele>
        <time>2022-04-17T11:28:20.000Z</time>
      </trkpt>
      <trkpt lat="42.9664089716970920562744140625" lon="-2.36837941221892833709716796875">
        <ele>1083.5999755859375</ele>
        <time>2022-04-17T11:28:21.000Z</time>
      </trkpt>
      <trkpt lat="42.9664163477718830108642578125" lon="-2.36838008277118206024169921875">
        <ele>1083.800048828125</ele>
        <time>2022-04-17T11:28:22.000Z</time>
      </trkpt>
      <trkpt lat="42.96642330475151538848876953125" lon="-2.3683784902095794677734375">
        <ele>1083.800048828125</ele>
        <time>2022-04-17T11:28:23.000Z</time>
      </trkpt>
      <trkpt lat="42.9664280824363231658935546875" lon="-2.36837941221892833709716796875">
        <ele>1084</ele>
        <time>2022-04-17T11:28:24.000Z</time>
      </trkpt>
      <trkpt lat="42.96643286012113094329833984375" lon="-2.368390560150146484375">
        <ele>1084.199951171875</ele>
        <time>2022-04-17T11:28:25.000Z</time>
      </trkpt>
      <trkpt lat="42.966435290873050689697265625" lon="-2.36840288154780864715576171875">
        <ele>1084.4000244140625</ele>
        <time>2022-04-17T11:28:26.000Z</time>
      </trkpt>
      <trkpt lat="42.9664404876530170440673828125" lon="-2.36841679550707340240478515625">
        <ele>1084.4000244140625</ele>
        <time>2022-04-17T11:28:27.000Z</time>
      </trkpt>
      <trkpt lat="42.96644878573715686798095703125" lon="-2.36842199228703975677490234375">
        <ele>1084.4000244140625</ele>
        <time>2022-04-17T11:28:28.000Z</time>
      </trkpt>
      <trkpt lat="42.96645834110677242279052734375" lon="-2.368430458009243011474609375">
        <ele>1084.800048828125</ele>
        <time>2022-04-17T11:28:29.000Z</time>
      </trkpt>
      <trkpt lat="42.96646404080092906951904296875" lon="-2.36844060011208057403564453125">
        <ele>1085</ele>
        <time>2022-04-17T11:28:30.000Z</time>
      </trkpt>
      <trkpt lat="42.96647124923765659332275390625" lon="-2.368445880711078643798828125">
        <ele>1085</ele>
        <time>2022-04-17T11:28:31.000Z</time>
      </trkpt>
      <trkpt lat="42.96647963114082813262939453125" lon="-2.36844982020556926727294921875">
        <ele>1085.4000244140625</ele>
        <time>2022-04-17T11:28:32.000Z</time>
      </trkpt>
      <trkpt lat="42.96648130752146244049072265625" lon="-2.368458621203899383544921875">
        <ele>1085.5999755859375</ele>
        <time>2022-04-17T11:28:33.000Z</time>
      </trkpt>
      <trkpt lat="42.96648030169308185577392578125" lon="-2.3684718646109104156494140625">
        <ele>1085.800048828125</ele>
        <time>2022-04-17T11:28:34.000Z</time>
      </trkpt>
      <trkpt lat="42.9664857499301433563232421875" lon="-2.36848116852343082427978515625">
        <ele>1086</ele>
        <time>2022-04-17T11:28:35.000Z</time>
      </trkpt>
      <trkpt lat="42.9664901085197925567626953125" lon="-2.368489801883697509765625">
        <ele>1086.199951171875</ele>
        <time>2022-04-17T11:28:36.000Z</time>
      </trkpt>
      <trkpt lat="42.9664937965571880340576171875" lon="-2.36848955042660236358642578125">
        <ele>1086.4000244140625</ele>
        <time>2022-04-17T11:28:37.000Z</time>
      </trkpt>
      <trkpt lat="42.96649740077555179595947265625" lon="-2.36848737113177776336669921875">
        <ele>1086.5999755859375</ele>
        <time>2022-04-17T11:28:38.000Z</time>
      </trkpt>
      <trkpt lat="42.96649890951812267303466796875" lon="-2.36848787404596805572509765625">
        <ele>1086.5999755859375</ele>
        <time>2022-04-17T11:28:39.000Z</time>
      </trkpt>
      <trkpt lat="42.96649999916553497314453125" lon="-2.36849290318787097930908203125">
        <ele>1086.800048828125</ele>
        <time>2022-04-17T11:28:40.000Z</time>
      </trkpt>
      <trkpt lat="42.96650377102196216583251953125" lon="-2.368506900966167449951171875">
        <ele>1087</ele>
        <time>2022-04-17T11:28:41.000Z</time>
      </trkpt>
      <trkpt lat="42.96651181764900684356689453125" lon="-2.36850849352777004241943359375">
        <ele>1087.199951171875</ele>
        <time>2022-04-17T11:28:42.000Z</time>
      </trkpt>
      <trkpt lat="42.96652371995151042938232421875" lon="-2.36850882880389690399169921875">
        <ele>1087.199951171875</ele>
        <time>2022-04-17T11:28:43.000Z</time>
      </trkpt>
      <trkpt lat="42.96653126366436481475830078125" lon="-2.3685094155371189117431640625">
        <ele>1087.5999755859375</ele>
        <time>2022-04-17T11:28:44.000Z</time>
      </trkpt>
      <trkpt lat="42.96654065139591693878173828125" lon="-2.36851704306900501251220703125">
        <ele>1087.5999755859375</ele>
        <time>2022-04-17T11:28:45.000Z</time>
      </trkpt>
      <trkpt lat="42.9665454290807247161865234375" lon="-2.368525005877017974853515625">
        <ele>1087.800048828125</ele>
        <time>2022-04-17T11:28:46.000Z</time>
      </trkpt>
      <trkpt lat="42.96654802747070789337158203125" lon="-2.36852467060089111328125">
        <ele>1088.199951171875</ele>
        <time>2022-04-17T11:28:47.000Z</time>
      </trkpt>
      <trkpt lat="42.96655833721160888671875" lon="-2.36850765533745288848876953125">
        <ele>1088.4000244140625</ele>
        <time>2022-04-17T11:28:48.000Z</time>
      </trkpt>
      <trkpt lat="42.96656445600092411041259765625" lon="-2.36849156208336353302001953125">
        <ele>1088.5999755859375</ele>
        <time>2022-04-17T11:28:49.000Z</time>
      </trkpt>
      <trkpt lat="42.966567389667034149169921875" lon="-2.3684778995811939239501953125">
        <ele>1088.800048828125</ele>
        <time>2022-04-17T11:28:50.000Z</time>
      </trkpt>
      <trkpt lat="42.966564036905765533447265625" lon="-2.368469350039958953857421875">
        <ele>1089</ele>
        <time>2022-04-17T11:28:51.000Z</time>
      </trkpt>
      <trkpt lat="42.966562025249004364013671875" lon="-2.3684581182897090911865234375">
        <ele>1089</ele>
        <time>2022-04-17T11:28:52.000Z</time>
      </trkpt>
      <trkpt lat="42.966562695801258087158203125" lon="-2.3684497363865375518798828125">
        <ele>1089.199951171875</ele>
        <time>2022-04-17T11:28:53.000Z</time>
      </trkpt>
      <trkpt lat="42.96656093560159206390380859375" lon="-2.3684403486549854278564453125">
        <ele>1089.4000244140625</ele>
        <time>2022-04-17T11:28:54.000Z</time>
      </trkpt>
      <trkpt lat="42.966559343039989471435546875" lon="-2.3684333078563213348388671875">
        <ele>1089.5999755859375</ele>
        <time>2022-04-17T11:28:55.000Z</time>
      </trkpt>
      <trkpt lat="42.96655976213514804840087890625" lon="-2.36842450685799121856689453125">
        <ele>1089.800048828125</ele>
        <time>2022-04-17T11:28:56.000Z</time>
      </trkpt>
      <trkpt lat="42.9665595106780529022216796875" lon="-2.36841428093612194061279296875">
        <ele>1089.800048828125</ele>
        <time>2022-04-17T11:28:57.000Z</time>
      </trkpt>
      <trkpt lat="42.9665598459541797637939453125" lon="-2.36840774305164813995361328125">
        <ele>1090</ele>
        <time>2022-04-17T11:28:58.000Z</time>
      </trkpt>
      <trkpt lat="42.966565378010272979736328125" lon="-2.368398942053318023681640625">
        <ele>1090.199951171875</ele>
        <time>2022-04-17T11:28:59.000Z</time>
      </trkpt>
      <trkpt lat="42.966570071876049041748046875" lon="-2.36839164979755878448486328125">
        <ele>1090.4000244140625</ele>
        <time>2022-04-17T11:29:00.000Z</time>
      </trkpt>
      <trkpt lat="42.96657199971377849578857421875" lon="-2.36838159151375293731689453125">
        <ele>1090.5999755859375</ele>
        <time>2022-04-17T11:29:01.000Z</time>
      </trkpt>
      <trkpt lat="42.96656982041895389556884765625" lon="-2.36837605945765972137451171875">
        <ele>1090.800048828125</ele>
        <time>2022-04-17T11:29:02.000Z</time>
      </trkpt>
      <trkpt lat="42.966566383838653564453125" lon="-2.36836767755448818206787109375">
        <ele>1091</ele>
        <time>2022-04-17T11:29:03.000Z</time>
      </trkpt>
      <trkpt lat="42.9665621928870677947998046875" lon="-2.3683565296232700347900390625">
        <ele>1091.199951171875</ele>
        <time>2022-04-17T11:29:04.000Z</time>
      </trkpt>
      <trkpt lat="42.966555990278720855712890625" lon="-2.36834839917719364166259765625">
        <ele>1091.4000244140625</ele>
        <time>2022-04-17T11:29:05.000Z</time>
      </trkpt>
      <trkpt lat="42.96655288897454738616943359375" lon="-2.3683360777795314788818359375">
        <ele>1091.5999755859375</ele>
        <time>2022-04-17T11:29:06.000Z</time>
      </trkpt>
      <trkpt lat="42.96654962003231048583984375" lon="-2.36832140944898128509521484375">
        <ele>1091.800048828125</ele>
        <time>2022-04-17T11:29:07.000Z</time>
      </trkpt>
      <trkpt lat="42.96654635109007358551025390625" lon="-2.36831101588904857635498046875">
        <ele>1092</ele>
        <time>2022-04-17T11:29:08.000Z</time>
      </trkpt>
      <trkpt lat="42.96654316596686840057373046875" lon="-2.368299029767513275146484375">
        <ele>1092.199951171875</ele>
        <time>2022-04-17T11:29:09.000Z</time>
      </trkpt>
      <trkpt lat="42.96654216013848781585693359375" lon="-2.3682872951030731201171875">
        <ele>1092.199951171875</ele>
        <time>2022-04-17T11:29:10.000Z</time>
      </trkpt>
      <trkpt lat="42.96653528697788715362548828125" lon="-2.3682831041514873504638671875">
        <ele>1092.4000244140625</ele>
        <time>2022-04-17T11:29:11.000Z</time>
      </trkpt>
      <trkpt lat="42.96652707271277904510498046875" lon="-2.3682765662670135498046875">
        <ele>1092.5999755859375</ele>
        <time>2022-04-17T11:29:12.000Z</time>
      </trkpt>
      <trkpt lat="42.966521121561527252197265625" lon="-2.36826893873512744903564453125">
        <ele>1092.800048828125</ele>
        <time>2022-04-17T11:29:13.000Z</time>
      </trkpt>
      <trkpt lat="42.96651952899992465972900390625" lon="-2.368257455527782440185546875">
        <ele>1093</ele>
        <time>2022-04-17T11:29:14.000Z</time>
      </trkpt>
      <trkpt lat="42.9665125720202922821044921875" lon="-2.3682455532252788543701171875">
        <ele>1093.199951171875</ele>
        <time>2022-04-17T11:29:15.000Z</time>
      </trkpt>
      <trkpt lat="42.96650729142129421234130859375" lon="-2.368229292333126068115234375">
        <ele>1093.4000244140625</ele>
        <time>2022-04-17T11:29:16.000Z</time>
      </trkpt>
      <trkpt lat="42.9665033519268035888671875" lon="-2.36821822822093963623046875">
        <ele>1093.5999755859375</ele>
        <time>2022-04-17T11:29:17.000Z</time>
      </trkpt>
      <trkpt lat="42.96650670468807220458984375" lon="-2.36819936893880367279052734375">
        <ele>1093.800048828125</ele>
        <time>2022-04-17T11:29:18.000Z</time>
      </trkpt>
      <trkpt lat="42.9665135778486728668212890625" lon="-2.36818310804665088653564453125">
        <ele>1094</ele>
        <time>2022-04-17T11:29:19.000Z</time>
      </trkpt>
      <trkpt lat="42.96652187593281269073486328125" lon="-2.368172295391559600830078125">
        <ele>1094.199951171875</ele>
        <time>2022-04-17T11:29:20.000Z</time>
      </trkpt>
      <trkpt lat="42.96652824617922306060791015625" lon="-2.36816315911710262298583984375">
        <ele>1094.5999755859375</ele>
        <time>2022-04-17T11:29:21.000Z</time>
      </trkpt>
      <trkpt lat="42.96653578989207744598388671875" lon="-2.36815628595650196075439453125">
        <ele>1094.800048828125</ele>
        <time>2022-04-17T11:29:22.000Z</time>
      </trkpt>
      <trkpt lat="42.96653595753014087677001953125" lon="-2.36814840696752071380615234375">
        <ele>1094.800048828125</ele>
        <time>2022-04-17T11:29:23.000Z</time>
      </trkpt>
      <trkpt lat="42.96653545461595058441162109375" lon="-2.36814086325466632843017578125">
        <ele>1095</ele>
        <time>2022-04-17T11:29:24.000Z</time>
      </trkpt>
      <trkpt lat="42.96653327532112598419189453125" lon="-2.36812694929540157318115234375">
        <ele>1095.4000244140625</ele>
        <time>2022-04-17T11:29:25.000Z</time>
      </trkpt>
      <trkpt lat="42.966532520949840545654296875" lon="-2.3681158013641834259033203125">
        <ele>1095.5999755859375</ele>
        <time>2022-04-17T11:29:26.000Z</time>
      </trkpt>
      <trkpt lat="42.9665347002446651458740234375" lon="-2.36810498870909214019775390625">
        <ele>1096</ele>
        <time>2022-04-17T11:29:27.000Z</time>
      </trkpt>
      <trkpt lat="42.9665336944162845611572265625" lon="-2.36809610389173030853271484375">
        <ele>1096.199951171875</ele>
        <time>2022-04-17T11:29:28.000Z</time>
      </trkpt>
      <trkpt lat="42.966532520949840545654296875" lon="-2.36809141002595424652099609375">
        <ele>1096.199951171875</ele>
        <time>2022-04-17T11:29:29.000Z</time>
      </trkpt>
      <trkpt lat="42.96653042547404766082763671875" lon="-2.36808805726468563079833984375">
        <ele>1096.4000244140625</ele>
        <time>2022-04-17T11:29:30.000Z</time>
      </trkpt>
      <trkpt lat="42.966525815427303314208984375" lon="-2.36808738671243190765380859375">
        <ele>1096.5999755859375</ele>
        <time>2022-04-17T11:29:31.000Z</time>
      </trkpt>
      <trkpt lat="42.966525144875049591064453125" lon="-2.368085794150829315185546875">
        <ele>1096.800048828125</ele>
        <time>2022-04-17T11:29:32.000Z</time>
      </trkpt>
      <trkpt lat="42.9665249772369861602783203125" lon="-2.3680876381695270538330078125">
        <ele>1097</ele>
        <time>2022-04-17T11:29:33.000Z</time>
      </trkpt>
      <trkpt lat="42.96652120538055896759033203125" lon="-2.36808990128338336944580078125">
        <ele>1097.199951171875</ele>
        <time>2022-04-17T11:29:34.000Z</time>
      </trkpt>
      <trkpt lat="42.96651181764900684356689453125" lon="-2.36809006892144680023193359375">
        <ele>1097.4000244140625</ele>
        <time>2022-04-17T11:29:35.000Z</time>
      </trkpt>
      <trkpt lat="42.96650670468807220458984375" lon="-2.36808654852211475372314453125">
        <ele>1097.5999755859375</ele>
        <time>2022-04-17T11:29:36.000Z</time>
      </trkpt>
      <trkpt lat="42.96650209464132785797119140625" lon="-2.3680856265127658843994140625">
        <ele>1097.5999755859375</ele>
        <time>2022-04-17T11:29:37.000Z</time>
      </trkpt>
      <trkpt lat="42.96650142408907413482666015625" lon="-2.368079088628292083740234375">
        <ele>1097.800048828125</ele>
        <time>2022-04-17T11:29:38.000Z</time>
      </trkpt>
      <trkpt lat="42.96649999916553497314453125" lon="-2.36807229928672313690185546875">
        <ele>1097.800048828125</ele>
        <time>2022-04-17T11:29:39.000Z</time>
      </trkpt>
      <trkpt lat="42.96650242991745471954345703125" lon="-2.3680705390870571136474609375">
        <ele>1098</ele>
        <time>2022-04-17T11:29:40.000Z</time>
      </trkpt>
      <trkpt lat="42.966500334441661834716796875" lon="-2.368065007030963897705078125">
        <ele>1098</ele>
        <time>2022-04-17T11:29:41.000Z</time>
      </trkpt>
      <trkpt lat="42.9664964787662029266357421875" lon="-2.36805972643196582794189453125">
        <ele>1098.199951171875</ele>
        <time>2022-04-17T11:29:42.000Z</time>
      </trkpt>
      <trkpt lat="42.96649119816720485687255859375" lon="-2.3680594749748706817626953125">
        <ele>1098.4000244140625</ele>
        <time>2022-04-17T11:29:43.000Z</time>
      </trkpt>
      <trkpt lat="42.96648683957755565643310546875" lon="-2.36805888824164867401123046875">
        <ele>1098.5999755859375</ele>
        <time>2022-04-17T11:29:44.000Z</time>
      </trkpt>
      <trkpt lat="42.96648181043565273284912109375" lon="-2.368051595985889434814453125">
        <ele>1098.5999755859375</ele>
        <time>2022-04-17T11:29:45.000Z</time>
      </trkpt>
      <trkpt lat="42.96647778712213039398193359375" lon="-2.36804564483463764190673828125">
        <ele>1098.800048828125</ele>
        <time>2022-04-17T11:29:46.000Z</time>
      </trkpt>
      <trkpt lat="42.96647585928440093994140625" lon="-2.36803776584565639495849609375">
        <ele>1098.800048828125</ele>
        <time>2022-04-17T11:29:47.000Z</time>
      </trkpt>
      <trkpt lat="42.96646722592413425445556640625" lon="-2.36802636645734310150146484375">
        <ele>1099.199951171875</ele>
        <time>2022-04-17T11:29:48.000Z</time>
      </trkpt>
      <trkpt lat="42.96646420843899250030517578125" lon="-2.3680122010409832000732421875">
        <ele>1099.199951171875</ele>
        <time>2022-04-17T11:29:49.000Z</time>
      </trkpt>
      <trkpt lat="42.966459430754184722900390625" lon="-2.36799895763397216796875">
        <ele>1099.4000244140625</ele>
        <time>2022-04-17T11:29:50.000Z</time>
      </trkpt>
      <trkpt lat="42.96645565889775753021240234375" lon="-2.3679920844733715057373046875">
        <ele>1099.5999755859375</ele>
        <time>2022-04-17T11:29:51.000Z</time>
      </trkpt>
      <trkpt lat="42.96645331196486949920654296875" lon="-2.36798294819891452789306640625">
        <ele>1099.800048828125</ele>
        <time>2022-04-17T11:29:52.000Z</time>
      </trkpt>
      <trkpt lat="42.96645171940326690673828125" lon="-2.36797590740025043487548828125">
        <ele>1100</ele>
        <time>2022-04-17T11:29:53.000Z</time>
      </trkpt>
      <trkpt lat="42.9664502106606960296630859375" lon="-2.36797004006803035736083984375">
        <ele>1100.199951171875</ele>
        <time>2022-04-17T11:29:54.000Z</time>
      </trkpt>
      <trkpt lat="42.96644903719425201416015625" lon="-2.36796869896352291107177734375">
        <ele>1100.199951171875</ele>
        <time>2022-04-17T11:29:55.000Z</time>
      </trkpt>
      <trkpt lat="42.96644593589007854461669921875" lon="-2.3679625801742076873779296875">
        <ele>1100.4000244140625</ele>
        <time>2022-04-17T11:29:56.000Z</time>
      </trkpt>
      <trkpt lat="42.96644694171845912933349609375" lon="-2.36795746721327304840087890625">
        <ele>1100.5999755859375</ele>
        <time>2022-04-17T11:29:57.000Z</time>
      </trkpt>
      <trkpt lat="42.966447360813617706298828125" lon="-2.3679531924426555633544921875">
        <ele>1100.800048828125</ele>
        <time>2022-04-17T11:29:58.000Z</time>
      </trkpt>
      <trkpt lat="42.96644392423331737518310546875" lon="-2.36794891767203807830810546875">
        <ele>1100.800048828125</ele>
        <time>2022-04-17T11:29:59.000Z</time>
      </trkpt>
      <trkpt lat="42.9664401523768901824951171875" lon="-2.36794137395918369293212890625">
        <ele>1101</ele>
        <time>2022-04-17T11:30:00.000Z</time>
      </trkpt>
      <trkpt lat="42.9664388112723827362060546875" lon="-2.36792989075183868408203125">
        <ele>1101</ele>
        <time>2022-04-17T11:30:01.000Z</time>
      </trkpt>
      <trkpt lat="42.96643403358757495880126953125" lon="-2.367923520505428314208984375">
        <ele>1101.199951171875</ele>
        <time>2022-04-17T11:30:02.000Z</time>
      </trkpt>
      <trkpt lat="42.96642531640827655792236328125" lon="-2.3679173178970813751220703125">
        <ele>1101.199951171875</ele>
        <time>2022-04-17T11:30:03.000Z</time>
      </trkpt>
      <trkpt lat="42.96641894616186618804931640625" lon="-2.3679096065461635589599609375">
        <ele>1101.4000244140625</ele>
        <time>2022-04-17T11:30:04.000Z</time>
      </trkpt>
      <trkpt lat="42.96641173772513866424560546875" lon="-2.36790818162262439727783203125">
        <ele>1101.5999755859375</ele>
        <time>2022-04-17T11:30:05.000Z</time>
      </trkpt>
      <trkpt lat="42.966405451297760009765625" lon="-2.36790734343230724334716796875">
        <ele>1101.5999755859375</ele>
        <time>2022-04-17T11:30:06.000Z</time>
      </trkpt>
      <trkpt lat="42.96640268526971340179443359375" lon="-2.36790549941360950469970703125">
        <ele>1101.5999755859375</ele>
        <time>2022-04-17T11:30:07.000Z</time>
      </trkpt>
      <trkpt lat="42.9663979075849056243896484375" lon="-2.36790038645267486572265625">
        <ele>1101.800048828125</ele>
        <time>2022-04-17T11:30:08.000Z</time>
      </trkpt>
      <trkpt lat="42.9663969017565250396728515625" lon="-2.36789175309240818023681640625">
        <ele>1101.800048828125</ele>
        <time>2022-04-17T11:30:09.000Z</time>
      </trkpt>
      <trkpt lat="42.966398410499095916748046875" lon="-2.3678787611424922943115234375">
        <ele>1102.199951171875</ele>
        <time>2022-04-17T11:30:10.000Z</time>
      </trkpt>
      <trkpt lat="42.96639807522296905517578125" lon="-2.36786928959190845489501953125">
        <ele>1102.4000244140625</ele>
        <time>2022-04-17T11:30:11.000Z</time>
      </trkpt>
      <trkpt lat="42.96639547683298587799072265625" lon="-2.3678619973361492156982421875">
        <ele>1102.5999755859375</ele>
        <time>2022-04-17T11:30:12.000Z</time>
      </trkpt>
      <trkpt lat="42.96639782376587390899658203125" lon="-2.36786157824099063873291015625">
        <ele>1102.800048828125</ele>
        <time>2022-04-17T11:30:13.000Z</time>
      </trkpt>
      <trkpt lat="42.966403774917125701904296875" lon="-2.36786283552646636962890625">
        <ele>1103</ele>
        <time>2022-04-17T11:30:14.000Z</time>
      </trkpt>
      <trkpt lat="42.9664094746112823486328125" lon="-2.3678589798510074615478515625">
        <ele>1103.199951171875</ele>
        <time>2022-04-17T11:30:15.000Z</time>
      </trkpt>
      <trkpt lat="42.9664056189358234405517578125" lon="-2.36785017885267734527587890625">
        <ele>1103.4000244140625</ele>
        <time>2022-04-17T11:30:16.000Z</time>
      </trkpt>
      <trkpt lat="42.966405116021633148193359375" lon="-2.3678418807685375213623046875">
        <ele>1103.4000244140625</ele>
        <time>2022-04-17T11:30:17.000Z</time>
      </trkpt>
      <trkpt lat="42.9664089716970920562744140625" lon="-2.3678314872086048126220703125">
        <ele>1103.4000244140625</ele>
        <time>2022-04-17T11:30:18.000Z</time>
      </trkpt>
      <trkpt lat="42.9664175212383270263671875" lon="-2.3678231053054332733154296875">
        <ele>1103.4000244140625</ele>
        <time>2022-04-17T11:30:19.000Z</time>
      </trkpt>
      <trkpt lat="42.96641676686704158782958984375" lon="-2.36781732179224491119384765625">
        <ele>1103.4000244140625</ele>
        <time>2022-04-17T11:30:20.000Z</time>
      </trkpt>
      <trkpt lat="42.96641609631478786468505859375" lon="-2.367813885211944580078125">
        <ele>1103.4000244140625</ele>
        <time>2022-04-17T11:30:21.000Z</time>
      </trkpt>
      <trkpt lat="42.9664113186299800872802734375" lon="-2.36780726350843906402587890625">
        <ele>1104</ele>
        <time>2022-04-17T11:30:22.000Z</time>
      </trkpt>
      <trkpt lat="42.96640469692647457122802734375" lon="-2.36780357547104358673095703125">
        <ele>1104.199951171875</ele>
        <time>2022-04-17T11:30:23.000Z</time>
      </trkpt>
      <trkpt lat="42.96639799140393733978271484375" lon="-2.367798797786235809326171875">
        <ele>1104.4000244140625</ele>
        <time>2022-04-17T11:30:24.000Z</time>
      </trkpt>
      <trkpt lat="42.96638893894851207733154296875" lon="-2.36779435537755489349365234375">
        <ele>1104.4000244140625</ele>
        <time>2022-04-17T11:30:25.000Z</time>
      </trkpt>
      <trkpt lat="42.966384999454021453857421875" lon="-2.36778530292212963104248046875">
        <ele>1104.4000244140625</ele>
        <time>2022-04-17T11:30:26.000Z</time>
      </trkpt>
      <trkpt lat="42.96638424508273601531982421875" lon="-2.36777591519057750701904296875">
        <ele>1104.4000244140625</ele>
        <time>2022-04-17T11:30:27.000Z</time>
      </trkpt>
      <trkpt lat="42.9663834907114505767822265625" lon="-2.36776820383965969085693359375">
        <ele>1104.5999755859375</ele>
        <time>2022-04-17T11:30:28.000Z</time>
      </trkpt>
      <trkpt lat="42.96638240106403827667236328125" lon="-2.36776233650743961334228515625">
        <ele>1104.5999755859375</ele>
        <time>2022-04-17T11:30:29.000Z</time>
      </trkpt>
      <trkpt lat="42.9663838259875774383544921875" lon="-2.3677590675652027130126953125">
        <ele>1105</ele>
        <time>2022-04-17T11:30:30.000Z</time>
      </trkpt>
      <trkpt lat="42.966383658349514007568359375" lon="-2.3677583970129489898681640625">
        <ele>1105.199951171875</ele>
        <time>2022-04-17T11:30:31.000Z</time>
      </trkpt>
      <trkpt lat="42.96638307161629199981689453125" lon="-2.3677577264606952667236328125">
        <ele>1105.4000244140625</ele>
        <time>2022-04-17T11:30:32.000Z</time>
      </trkpt>
      <trkpt lat="42.966381646692752838134765625" lon="-2.3677563853561878204345703125">
        <ele>1105.4000244140625</ele>
        <time>2022-04-17T11:30:33.000Z</time>
      </trkpt>
      <trkpt lat="42.96637971885502338409423828125" lon="-2.36775512807071208953857421875">
        <ele>1105.5999755859375</ele>
        <time>2022-04-17T11:30:34.000Z</time>
      </trkpt>
      <trkpt lat="42.966376952826976776123046875" lon="-2.36775479279458522796630859375">
        <ele>1105.5999755859375</ele>
        <time>2022-04-17T11:30:35.000Z</time>
      </trkpt>
      <trkpt lat="42.96637502498924732208251953125" lon="-2.36774875782430171966552734375">
        <ele>1105.5999755859375</ele>
        <time>2022-04-17T11:30:36.000Z</time>
      </trkpt>
      <trkpt lat="42.96637351624667644500732421875" lon="-2.36774188466370105743408203125">
        <ele>1105.5999755859375</ele>
        <time>2022-04-17T11:30:37.000Z</time>
      </trkpt>
      <trkpt lat="42.96637217514216899871826171875" lon="-2.367737106978893280029296875">
        <ele>1105.5999755859375</ele>
        <time>2022-04-17T11:30:38.000Z</time>
      </trkpt>
      <trkpt lat="42.9663647152483463287353515625" lon="-2.3677285574376583099365234375">
        <ele>1105.5999755859375</ele>
        <time>2022-04-17T11:30:39.000Z</time>
      </trkpt>
      <trkpt lat="42.96635448932647705078125" lon="-2.367722354829311370849609375">
        <ele>1105.5999755859375</ele>
        <time>2022-04-17T11:30:40.000Z</time>
      </trkpt>
      <trkpt lat="42.96634987927973270416259765625" lon="-2.36771707423031330108642578125">
        <ele>1105.800048828125</ele>
        <time>2022-04-17T11:30:41.000Z</time>
      </trkpt>
      <trkpt lat="42.96634443104267120361328125" lon="-2.3677121289074420928955078125">
        <ele>1105.800048828125</ele>
        <time>2022-04-17T11:30:42.000Z</time>
      </trkpt>
      <trkpt lat="42.9663385637104511260986328125" lon="-2.3677079379558563232421875">
        <ele>1106</ele>
        <time>2022-04-17T11:30:43.000Z</time>
      </trkpt>
      <trkpt lat="42.96633236110210418701171875" lon="-2.3677040822803974151611328125">
        <ele>1106</ele>
        <time>2022-04-17T11:30:44.000Z</time>
      </trkpt>
      <trkpt lat="42.9663291759788990020751953125" lon="-2.36770332790911197662353515625">
        <ele>1106</ele>
        <time>2022-04-17T11:30:45.000Z</time>
      </trkpt>
      <trkpt lat="42.96632557176053524017333984375" lon="-2.367700226604938507080078125">
        <ele>1106.199951171875</ele>
        <time>2022-04-17T11:30:46.000Z</time>
      </trkpt>
      <trkpt lat="42.96632657758891582489013671875" lon="-2.367695532739162445068359375">
        <ele>1106.199951171875</ele>
        <time>2022-04-17T11:30:47.000Z</time>
      </trkpt>
      <trkpt lat="42.966330014169216156005859375" lon="-2.36769209615886211395263671875">
        <ele>1106.199951171875</ele>
        <time>2022-04-17T11:30:48.000Z</time>
      </trkpt>
      <trkpt lat="42.96632825396955013275146484375" lon="-2.3676883243024349212646484375">
        <ele>1106.4000244140625</ele>
        <time>2022-04-17T11:30:49.000Z</time>
      </trkpt>
      <trkpt lat="42.966327667236328125" lon="-2.36768983304500579833984375">
        <ele>1106.4000244140625</ele>
        <time>2022-04-17T11:30:50.000Z</time>
      </trkpt>
      <trkpt lat="42.96632590703666210174560546875" lon="-2.36769109033048152923583984375">
        <ele>1106.199951171875</ele>
        <time>2022-04-17T11:30:51.000Z</time>
      </trkpt>
      <trkpt lat="42.9663224704563617706298828125" lon="-2.3676923476159572601318359375">
        <ele>1106.199951171875</ele>
        <time>2022-04-17T11:30:52.000Z</time>
      </trkpt>
      <trkpt lat="42.96632188372313976287841796875" lon="-2.36769251525402069091796875">
        <ele>1106.4000244140625</ele>
        <time>2022-04-17T11:30:53.000Z</time>
      </trkpt>
      <trkpt lat="42.96631987206637859344482421875" lon="-2.3676945269107818603515625">
        <ele>1106.4000244140625</ele>
        <time>2022-04-17T11:30:54.000Z</time>
      </trkpt>
      <trkpt lat="42.96631584875285625457763671875" lon="-2.367700897157192230224609375">
        <ele>1106.4000244140625</ele>
        <time>2022-04-17T11:30:55.000Z</time>
      </trkpt>
      <trkpt lat="42.96631584875285625457763671875" lon="-2.367700897157192230224609375">
        <ele>1106.199951171875</ele>
        <time>2022-04-17T11:30:56.000Z</time>
      </trkpt>
      <trkpt lat="42.96631584875285625457763671875" lon="-2.367700897157192230224609375">
        <ele>1106.199951171875</ele>
        <time>2022-04-17T11:30:57.000Z</time>
      </trkpt>
      <trkpt lat="42.96631584875285625457763671875" lon="-2.367700897157192230224609375">
        <ele>1106.4000244140625</ele>
        <time>2022-04-17T11:30:58.000Z</time>
      </trkpt>
      <trkpt lat="42.96631584875285625457763671875" lon="-2.367700897157192230224609375">
        <ele>1106.199951171875</ele>
        <time>2022-04-17T11:30:59.000Z</time>
      </trkpt>
      <trkpt lat="42.96631584875285625457763671875" lon="-2.367700897157192230224609375">
        <ele>1106.199951171875</ele>
        <time>2022-04-17T11:31:00.000Z</time>
      </trkpt>
      <trkpt lat="42.96631584875285625457763671875" lon="-2.367700897157192230224609375">
        <ele>1106.199951171875</ele>
        <time>2022-04-17T11:31:01.000Z</time>
      </trkpt>
      <trkpt lat="42.96631584875285625457763671875" lon="-2.367700897157192230224609375">
        <ele>1106.199951171875</ele>
        <time>2022-04-17T11:31:02.000Z</time>
      </trkpt>
      <trkpt lat="42.96631584875285625457763671875" lon="-2.367700897157192230224609375">
        <ele>1106.199951171875</ele>
        <time>2022-04-17T11:31:03.000Z</time>
      </trkpt>
      <trkpt lat="42.96631584875285625457763671875" lon="-2.367700897157192230224609375">
        <ele>1106.199951171875</ele>
        <time>2022-04-17T11:31:04.000Z</time>
      </trkpt>
      <trkpt lat="42.96631584875285625457763671875" lon="-2.367700897157192230224609375">
        <ele>1106.199951171875</ele>
        <time>2022-04-17T11:31:05.000Z</time>
      </trkpt>
      <trkpt lat="42.96631584875285625457763671875" lon="-2.367700897157192230224609375">
        <ele>1106.199951171875</ele>
        <time>2022-04-17T11:31:06.000Z</time>
      </trkpt>
      <trkpt lat="42.96631584875285625457763671875" lon="-2.367700897157192230224609375">
        <ele>1106.199951171875</ele>
        <time>2022-04-17T11:31:07.000Z</time>
      </trkpt>
      <trkpt lat="42.96631584875285625457763671875" lon="-2.367700897157192230224609375">
        <ele>1106.199951171875</ele>
        <time>2022-04-17T11:31:08.000Z</time>
      </trkpt>
      <trkpt lat="42.96631584875285625457763671875" lon="-2.367700897157192230224609375">
        <ele>1106.199951171875</ele>
        <time>2022-04-17T11:31:09.000Z</time>
      </trkpt>
      <trkpt lat="42.96631584875285625457763671875" lon="-2.367700897157192230224609375">
        <ele>1106.199951171875</ele>
        <time>2022-04-17T11:31:10.000Z</time>
      </trkpt>
      <trkpt lat="42.96631249599158763885498046875" lon="-2.367700897157192230224609375">
        <ele>1106.199951171875</ele>
        <time>2022-04-17T11:31:11.000Z</time>
      </trkpt>
      <trkpt lat="42.96631031669676303863525390625" lon="-2.3676998913288116455078125">
        <ele>1106.199951171875</ele>
        <time>2022-04-17T11:31:12.000Z</time>
      </trkpt>
      <trkpt lat="42.96630796976387500762939453125" lon="-2.36769595183432102203369140625">
        <ele>1106.199951171875</ele>
        <time>2022-04-17T11:31:13.000Z</time>
      </trkpt>
      <trkpt lat="42.9662979952991008758544921875" lon="-2.36769461072981357574462890625">
        <ele>1106.4000244140625</ele>
        <time>2022-04-17T11:31:14.000Z</time>
      </trkpt>
      <trkpt lat="42.96629053540527820587158203125" lon="-2.3676926828920841217041015625">
        <ele>1106.4000244140625</ele>
        <time>2022-04-17T11:31:15.000Z</time>
      </trkpt>
      <trkpt lat="42.9662865959107875823974609375" lon="-2.3676923476159572601318359375">
        <ele>1106.4000244140625</ele>
        <time>2022-04-17T11:31:16.000Z</time>
      </trkpt>
      <trkpt lat="42.96628600917756557464599609375" lon="-2.36769209615886211395263671875">
        <ele>1106.4000244140625</ele>
        <time>2022-04-17T11:31:17.000Z</time>
      </trkpt>
      <trkpt lat="42.96628399752080440521240234375" lon="-2.36769117414951324462890625">
        <ele>1106.4000244140625</ele>
        <time>2022-04-17T11:31:18.000Z</time>
      </trkpt>
      <trkpt lat="42.96627779491245746612548828125" lon="-2.36769109033048152923583984375">
        <ele>1106.4000244140625</ele>
        <time>2022-04-17T11:31:19.000Z</time>
      </trkpt>
      <trkpt lat="42.96627108938992023468017578125" lon="-2.36769109033048152923583984375">
        <ele>1106.5999755859375</ele>
        <time>2022-04-17T11:31:20.000Z</time>
      </trkpt>
      <trkpt lat="42.96626840718090534210205078125" lon="-2.36768656410276889801025390625">
        <ele>1106.4000244140625</ele>
        <time>2022-04-17T11:31:21.000Z</time>
      </trkpt>
      <trkpt lat="42.96625994145870208740234375" lon="-2.3676732368767261505126953125">
        <ele>1106.4000244140625</ele>
        <time>2022-04-17T11:31:22.000Z</time>
      </trkpt>
      <trkpt lat="42.96624376438558101654052734375" lon="-2.3676544614136219024658203125">
        <ele>1106.4000244140625</ele>
        <time>2022-04-17T11:31:23.000Z</time>
      </trkpt>
      <trkpt lat="42.966228425502777099609375" lon="-2.3676328361034393310546875">
        <ele>1106.800048828125</ele>
        <time>2022-04-17T11:31:24.000Z</time>
      </trkpt>
      <trkpt lat="42.9662138409912586212158203125" lon="-2.36760861240327358245849609375">
        <ele>1107</ele>
        <time>2022-04-17T11:31:25.000Z</time>
      </trkpt>
      <trkpt lat="42.96619959175586700439453125" lon="-2.3675899207592010498046875">
        <ele>1107</ele>
        <time>2022-04-17T11:31:26.000Z</time>
      </trkpt>
      <trkpt lat="42.96618542633950710296630859375" lon="-2.36756837926805019378662109375">
        <ele>1107.199951171875</ele>
        <time>2022-04-17T11:31:27.000Z</time>
      </trkpt>
      <trkpt lat="42.9661719314754009246826171875" lon="-2.367547340691089630126953125">
        <ele>1107.199951171875</ele>
        <time>2022-04-17T11:31:28.000Z</time>
      </trkpt>
      <trkpt lat="42.9661605320870876312255859375" lon="-2.36752613447606563568115234375">
        <ele>1107.199951171875</ele>
        <time>2022-04-17T11:31:29.000Z</time>
      </trkpt>
      <trkpt lat="42.9661504738032817840576171875" lon="-2.3675035871565341949462890625">
        <ele>1107.199951171875</ele>
        <time>2022-04-17T11:31:30.000Z</time>
      </trkpt>
      <trkpt lat="42.96614100225269794464111328125" lon="-2.36748288385570049285888671875">
        <ele>1107.199951171875</ele>
        <time>2022-04-17T11:31:31.000Z</time>
      </trkpt>
      <trkpt lat="42.96613899059593677520751953125" lon="-2.3674747534096240997314453125">
        <ele>1107.4000244140625</ele>
        <time>2022-04-17T11:31:32.000Z</time>
      </trkpt>
      <trkpt lat="42.96613614074885845184326171875" lon="-2.3674665391445159912109375">
        <ele>1107.4000244140625</ele>
        <time>2022-04-17T11:31:33.000Z</time>
      </trkpt>
      <trkpt lat="42.966131530702114105224609375" lon="-2.367458157241344451904296875">
        <ele>1107.4000244140625</ele>
        <time>2022-04-17T11:31:34.000Z</time>
      </trkpt>
      <trkpt lat="42.96612641774117946624755859375" lon="-2.367449104785919189453125">
        <ele>1107.5999755859375</ele>
        <time>2022-04-17T11:31:35.000Z</time>
      </trkpt>
      <trkpt lat="42.96612189151346683502197265625" lon="-2.3674382083117961883544921875">
        <ele>1107.800048828125</ele>
        <time>2022-04-17T11:31:36.000Z</time>
      </trkpt>
      <trkpt lat="42.966121137142181396484375" lon="-2.36743007786571979522705078125">
        <ele>1107.800048828125</ele>
        <time>2022-04-17T11:31:37.000Z</time>
      </trkpt>
      <trkpt lat="42.96612071804702281951904296875" lon="-2.3674207739531993865966796875">
        <ele>1108</ele>
        <time>2022-04-17T11:31:38.000Z</time>
      </trkpt>
      <trkpt lat="42.96612289734184741973876953125" lon="-2.36740962602198123931884765625">
        <ele>1108</ele>
        <time>2022-04-17T11:31:39.000Z</time>
      </trkpt>
      <trkpt lat="42.9661236517131328582763671875" lon="-2.3673999868333339691162109375">
        <ele>1108.199951171875</ele>
        <time>2022-04-17T11:31:40.000Z</time>
      </trkpt>
      <trkpt lat="42.9661239869892597198486328125" lon="-2.36738934181630611419677734375">
        <ele>1108.199951171875</ele>
        <time>2022-04-17T11:31:41.000Z</time>
      </trkpt>
      <trkpt lat="42.96612340025603771209716796875" lon="-2.367379032075405120849609375">
        <ele>1108.199951171875</ele>
        <time>2022-04-17T11:31:42.000Z</time>
      </trkpt>
      <trkpt lat="42.9661224782466888427734375" lon="-2.3673674650490283966064453125">
        <ele>1108.4000244140625</ele>
        <time>2022-04-17T11:31:43.000Z</time>
      </trkpt>
      <trkpt lat="42.96612557955086231231689453125" lon="-2.3673527128994464874267578125">
        <ele>1108.5999755859375</ele>
        <time>2022-04-17T11:31:44.000Z</time>
      </trkpt>
      <trkpt lat="42.966131865978240966796875" lon="-2.36732966266572475433349609375">
        <ele>1108.800048828125</ele>
        <time>2022-04-17T11:31:45.000Z</time>
      </trkpt>
      <trkpt lat="42.96613547019660472869873046875" lon="-2.36731566488742828369140625">
        <ele>1108.800048828125</ele>
        <time>2022-04-17T11:31:46.000Z</time>
      </trkpt>
      <trkpt lat="42.96613496728241443634033203125" lon="-2.3673074506223201751708984375">
        <ele>1109</ele>
        <time>2022-04-17T11:31:47.000Z</time>
      </trkpt>
      <trkpt lat="42.9661310277879238128662109375" lon="-2.3673077858984470367431640625">
        <ele>1109.199951171875</ele>
        <time>2022-04-17T11:31:48.000Z</time>
      </trkpt>
      <trkpt lat="42.966132201254367828369140625" lon="-2.367303930222988128662109375">
        <ele>1109.4000244140625</ele>
        <time>2022-04-17T11:31:49.000Z</time>
      </trkpt>
      <trkpt lat="42.9661332070827484130859375" lon="-2.36729554831981658935546875">
        <ele>1109.4000244140625</ele>
        <time>2022-04-17T11:31:50.000Z</time>
      </trkpt>
      <trkpt lat="42.96613882295787334442138671875" lon="-2.367287166416645050048828125">
        <ele>1109.4000244140625</ele>
        <time>2022-04-17T11:31:51.000Z</time>
      </trkpt>
      <trkpt lat="42.96614536084234714508056640625" lon="-2.36727417446672916412353515625">
        <ele>1109.800048828125</ele>
        <time>2022-04-17T11:31:52.000Z</time>
      </trkpt>
      <trkpt lat="42.966147623956203460693359375" lon="-2.3672645352780818939208984375">
        <ele>1110</ele>
        <time>2022-04-17T11:31:53.000Z</time>
      </trkpt>
      <trkpt lat="42.9661484621465206146240234375" lon="-2.36725606955587863922119140625">
        <ele>1110.199951171875</ele>
        <time>2022-04-17T11:31:54.000Z</time>
      </trkpt>
      <trkpt lat="42.96615131199359893798828125" lon="-2.3672467656433582305908203125">
        <ele>1110.5999755859375</ele>
        <time>2022-04-17T11:31:55.000Z</time>
      </trkpt>
      <trkpt lat="42.966148294508457183837890625" lon="-2.36724735237658023834228515625">
        <ele>1110.800048828125</ele>
        <time>2022-04-17T11:31:56.000Z</time>
      </trkpt>
      <trkpt lat="42.9661524854600429534912109375" lon="-2.36723746173083782196044921875">
        <ele>1110.800048828125</ele>
        <time>2022-04-17T11:31:57.000Z</time>
      </trkpt>
      <trkpt lat="42.966155000030994415283203125" lon="-2.3672253079712390899658203125">
        <ele>1111</ele>
        <time>2022-04-17T11:31:58.000Z</time>
      </trkpt>
      <trkpt lat="42.96615458093583583831787109375" lon="-2.3672175966203212738037109375">
        <ele>1111</ele>
        <time>2022-04-17T11:31:59.000Z</time>
      </trkpt>
      <trkpt lat="42.96614837832748889923095703125" lon="-2.36720192246139049530029296875">
        <ele>1111</ele>
        <time>2022-04-17T11:32:00.000Z</time>
      </trkpt>
      <trkpt lat="42.96614586375653743743896484375" lon="-2.3671937920153141021728515625">
        <ele>1111.199951171875</ele>
        <time>2022-04-17T11:32:01.000Z</time>
      </trkpt>
      <trkpt lat="42.9661447741091251373291015625" lon="-2.3671823926270008087158203125">
        <ele>1111.199951171875</ele>
        <time>2022-04-17T11:32:02.000Z</time>
      </trkpt>
      <trkpt lat="42.96614569611847400665283203125" lon="-2.367172501981258392333984375">
        <ele>1111.199951171875</ele>
        <time>2022-04-17T11:32:03.000Z</time>
      </trkpt>
      <trkpt lat="42.96614192426204681396484375" lon="-2.36716588027775287628173828125">
        <ele>1111.199951171875</ele>
        <time>2022-04-17T11:32:04.000Z</time>
      </trkpt>
      <trkpt lat="42.9661373980343341827392578125" lon="-2.36715900711715221405029296875">
        <ele>1111.4000244140625</ele>
        <time>2022-04-17T11:32:05.000Z</time>
      </trkpt>
      <trkpt lat="42.9661337099969387054443359375" lon="-2.36715205013751983642578125">
        <ele>1111.5999755859375</ele>
        <time>2022-04-17T11:32:06.000Z</time>
      </trkpt>
      <trkpt lat="42.966130189597606658935546875" lon="-2.36714609898626804351806640625">
        <ele>1112</ele>
        <time>2022-04-17T11:32:07.000Z</time>
      </trkpt>
      <trkpt lat="42.9661283455789089202880859375" lon="-2.3671411536633968353271484375">
        <ele>1112</ele>
        <time>2022-04-17T11:32:08.000Z</time>
      </trkpt>
      <trkpt lat="42.96612088568508625030517578125" lon="-2.36713553778827190399169921875">
        <ele>1112.199951171875</ele>
        <time>2022-04-17T11:32:09.000Z</time>
      </trkpt>
      <trkpt lat="42.96611216850578784942626953125" lon="-2.36712279729545116424560546875">
        <ele>1112.4000244140625</ele>
        <time>2022-04-17T11:32:10.000Z</time>
      </trkpt>
      <trkpt lat="42.9661099053919315338134765625" lon="-2.36711625941097736358642578125">
        <ele>1112.4000244140625</ele>
        <time>2022-04-17T11:32:11.000Z</time>
      </trkpt>
      <trkpt lat="42.9661102406680583953857421875" lon="-2.36710913479328155517578125">
        <ele>1112.4000244140625</ele>
        <time>2022-04-17T11:32:12.000Z</time>
      </trkpt>
      <trkpt lat="42.966109402477741241455078125" lon="-2.36710301600396633148193359375">
        <ele>1112.5999755859375</ele>
        <time>2022-04-17T11:32:13.000Z</time>
      </trkpt>
      <trkpt lat="42.9661062173545360565185546875" lon="-2.36709496937692165374755859375">
        <ele>1112.800048828125</ele>
        <time>2022-04-17T11:32:14.000Z</time>
      </trkpt>
      <trkpt lat="42.966105379164218902587890625" lon="-2.3670858331024646759033203125">
        <ele>1113</ele>
        <time>2022-04-17T11:32:15.000Z</time>
      </trkpt>
      <trkpt lat="42.9661068879067897796630859375" lon="-2.3670794628560543060302734375">
        <ele>1113</ele>
        <time>2022-04-17T11:32:16.000Z</time>
      </trkpt>
      <trkpt lat="42.96610839664936065673828125" lon="-2.36707602627575397491455078125">
        <ele>1113.199951171875</ele>
        <time>2022-04-17T11:32:17.000Z</time>
      </trkpt>
      <trkpt lat="42.96610998921096324920654296875" lon="-2.36706915311515331268310546875">
        <ele>1113.4000244140625</ele>
        <time>2022-04-17T11:32:18.000Z</time>
      </trkpt>
      <trkpt lat="42.9661109112203121185302734375" lon="-2.36706077121198177337646484375">
        <ele>1113.4000244140625</ele>
        <time>2022-04-17T11:32:19.000Z</time>
      </trkpt>
      <trkpt lat="42.96610831283032894134521484375" lon="-2.3670559935271739959716796875">
        <ele>1113.5999755859375</ele>
        <time>2022-04-17T11:32:20.000Z</time>
      </trkpt>
      <trkpt lat="42.96610797755420207977294921875" lon="-2.3670489527285099029541015625">
        <ele>1113.5999755859375</ele>
        <time>2022-04-17T11:32:21.000Z</time>
      </trkpt>
      <trkpt lat="42.9661088995635509490966796875" lon="-2.36703981645405292510986328125">
        <ele>1113.800048828125</ele>
        <time>2022-04-17T11:32:22.000Z</time>
      </trkpt>
      <trkpt lat="42.9661092348396778106689453125" lon="-2.36703411675989627838134765625">
        <ele>1114.199951171875</ele>
        <time>2022-04-17T11:32:23.000Z</time>
      </trkpt>
      <trkpt lat="42.966108061373233795166015625" lon="-2.3670268245041370391845703125">
        <ele>1114.199951171875</ele>
        <time>2022-04-17T11:32:24.000Z</time>
      </trkpt>
      <trkpt lat="42.966104708611965179443359375" lon="-2.36701902933418750762939453125">
        <ele>1114.4000244140625</ele>
        <time>2022-04-17T11:32:25.000Z</time>
      </trkpt>
      <trkpt lat="42.96610303223133087158203125" lon="-2.36701182089745998382568359375">
        <ele>1114.5999755859375</ele>
        <time>2022-04-17T11:32:26.000Z</time>
      </trkpt>
      <trkpt lat="42.9661011882126331329345703125" lon="-2.3670057021081447601318359375">
        <ele>1114.800048828125</ele>
        <time>2022-04-17T11:32:27.000Z</time>
      </trkpt>
      <trkpt lat="42.966098003089427947998046875" lon="-2.36699840985238552093505859375">
        <ele>1115</ele>
        <time>2022-04-17T11:32:28.000Z</time>
      </trkpt>
      <trkpt lat="42.966094650328159332275390625" lon="-2.3669936321675777435302734375">
        <ele>1115.199951171875</ele>
        <time>2022-04-17T11:32:29.000Z</time>
      </trkpt>
      <trkpt lat="42.96609339304268360137939453125" lon="-2.36698843538761138916015625">
        <ele>1115.4000244140625</ele>
        <time>2022-04-17T11:32:30.000Z</time>
      </trkpt>
      <trkpt lat="42.96609456650912761688232421875" lon="-2.36698449589312076568603515625">
        <ele>1115.4000244140625</ele>
        <time>2022-04-17T11:32:31.000Z</time>
      </trkpt>
      <trkpt lat="42.96609356068074703216552734375" lon="-2.36698114313185214996337890625">
        <ele>1115.4000244140625</ele>
        <time>2022-04-17T11:32:32.000Z</time>
      </trkpt>
      <trkpt lat="42.96609037555754184722900390625" lon="-2.3669745214283466339111328125">
        <ele>1115.800048828125</ele>
        <time>2022-04-17T11:32:33.000Z</time>
      </trkpt>
      <trkpt lat="42.966083250939846038818359375" lon="-2.3669711686670780181884765625">
        <ele>1116</ele>
        <time>2022-04-17T11:32:34.000Z</time>
      </trkpt>
      <trkpt lat="42.9660793952643871307373046875" lon="-2.3669674806296825408935546875">
        <ele>1116.199951171875</ele>
        <time>2022-04-17T11:32:35.000Z</time>
      </trkpt>
      <trkpt lat="42.96607218682765960693359375" lon="-2.3669641278684139251708984375">
        <ele>1116.199951171875</ele>
        <time>2022-04-17T11:32:36.000Z</time>
      </trkpt>
      <trkpt lat="42.96606187708675861358642578125" lon="-2.3669567517936229705810546875">
        <ele>1116.4000244140625</ele>
        <time>2022-04-17T11:32:37.000Z</time>
      </trkpt>
      <trkpt lat="42.966058440506458282470703125" lon="-2.36695197410881519317626953125">
        <ele>1116.5999755859375</ele>
        <time>2022-04-17T11:32:38.000Z</time>
      </trkpt>
      <trkpt lat="42.9660576023161411285400390625" lon="-2.36694845370948314666748046875">
        <ele>1116.800048828125</ele>
        <time>2022-04-17T11:32:39.000Z</time>
      </trkpt>
      <trkpt lat="42.966053746640682220458984375" lon="-2.36693940125405788421630859375">
        <ele>1117</ele>
        <time>2022-04-17T11:32:40.000Z</time>
      </trkpt>
      <trkpt lat="42.96605114825069904327392578125" lon="-2.3669302649796009063720703125">
        <ele>1117.199951171875</ele>
        <time>2022-04-17T11:32:41.000Z</time>
      </trkpt>
      <trkpt lat="42.96605081297457218170166015625" lon="-2.366923391819000244140625">
        <ele>1117.4000244140625</ele>
        <time>2022-04-17T11:32:42.000Z</time>
      </trkpt>
      <trkpt lat="42.96605114825069904327392578125" lon="-2.36691509373486042022705078125">
        <ele>1117.5999755859375</ele>
        <time>2022-04-17T11:32:43.000Z</time>
      </trkpt>
      <trkpt lat="42.9660522378981113433837890625" lon="-2.36690671183168888092041015625">
        <ele>1117.5999755859375</ele>
        <time>2022-04-17T11:32:44.000Z</time>
      </trkpt>
      <trkpt lat="42.96605215407907962799072265625" lon="-2.366896905004978179931640625">
        <ele>1117.5999755859375</ele>
        <time>2022-04-17T11:32:45.000Z</time>
      </trkpt>
      <trkpt lat="42.9660529084503650665283203125" lon="-2.36688994802534580230712890625">
        <ele>1118</ele>
        <time>2022-04-17T11:32:46.000Z</time>
      </trkpt>
      <trkpt lat="42.966052405536174774169921875" lon="-2.366886176168918609619140625">
        <ele>1118.199951171875</ele>
        <time>2022-04-17T11:32:47.000Z</time>
      </trkpt>
      <trkpt lat="42.9660498909652233123779296875" lon="-2.36687972210347652435302734375">
        <ele>1118.4000244140625</ele>
        <time>2022-04-17T11:32:48.000Z</time>
      </trkpt>
      <trkpt lat="42.96604913659393787384033203125" lon="-2.3668702505528926849365234375">
        <ele>1118.5999755859375</ele>
        <time>2022-04-17T11:32:49.000Z</time>
      </trkpt>
      <trkpt lat="42.9660522378981113433837890625" lon="-2.3668601922690868377685546875">
        <ele>1118.5999755859375</ele>
        <time>2022-04-17T11:32:50.000Z</time>
      </trkpt>
      <trkpt lat="42.9660445265471935272216796875" lon="-2.36686639487743377685546875">
        <ele>1118.800048828125</ele>
        <time>2022-04-17T11:32:51.000Z</time>
      </trkpt>
      <trkpt lat="42.9660438559949398040771484375" lon="-2.3668601922690868377685546875">
        <ele>1118.800048828125</ele>
        <time>2022-04-17T11:32:52.000Z</time>
      </trkpt>
      <trkpt lat="42.9660408385097980499267578125" lon="-2.3668508045375347137451171875">
        <ele>1119</ele>
        <time>2022-04-17T11:32:53.000Z</time>
      </trkpt>
      <trkpt lat="42.966041006147861480712890625" lon="-2.3668404109776020050048828125">
        <ele>1119</ele>
        <time>2022-04-17T11:32:54.000Z</time>
      </trkpt>
      <trkpt lat="42.96603874303400516510009765625" lon="-2.3668335378170013427734375">
        <ele>1119.199951171875</ele>
        <time>2022-04-17T11:32:55.000Z</time>
      </trkpt>
      <trkpt lat="42.96603673137724399566650390625" lon="-2.3668276704847812652587890625">
        <ele>1119.199951171875</ele>
        <time>2022-04-17T11:32:56.000Z</time>
      </trkpt>
      <trkpt lat="42.96603421680629253387451171875" lon="-2.3668246529996395111083984375">
        <ele>1119.4000244140625</ele>
        <time>2022-04-17T11:32:57.000Z</time>
      </trkpt>
      <trkpt lat="42.96603572554886341094970703125" lon="-2.36681409180164337158203125">
        <ele>1119.5999755859375</ele>
        <time>2022-04-17T11:32:58.000Z</time>
      </trkpt>
      <trkpt lat="42.966036982834339141845703125" lon="-2.3668035306036472320556640625">
        <ele>1119.5999755859375</ele>
        <time>2022-04-17T11:32:59.000Z</time>
      </trkpt>
      <trkpt lat="42.9660351388156414031982421875" lon="-2.36679875291883945465087890625">
        <ele>1119.800048828125</ele>
        <time>2022-04-17T11:33:00.000Z</time>
      </trkpt>
      <trkpt lat="42.96603262424468994140625" lon="-2.366788275539875030517578125">
        <ele>1120</ele>
        <time>2022-04-17T11:33:01.000Z</time>
      </trkpt>
      <trkpt lat="42.966030277311801910400390625" lon="-2.3667757026851177215576171875">
        <ele>1120.199951171875</ele>
        <time>2022-04-17T11:33:02.000Z</time>
      </trkpt>
      <trkpt lat="42.966026253998279571533203125" lon="-2.3667656444013118743896484375">
        <ele>1120.199951171875</ele>
        <time>2022-04-17T11:33:03.000Z</time>
      </trkpt>
      <trkpt lat="42.96602617017924785614013671875" lon="-2.3667545802891254425048828125">
        <ele>1120.4000244140625</ele>
        <time>2022-04-17T11:33:04.000Z</time>
      </trkpt>
      <trkpt lat="42.96602399088442325592041015625" lon="-2.3667468689382076263427734375">
        <ele>1120.5999755859375</ele>
        <time>2022-04-17T11:33:05.000Z</time>
      </trkpt>
      <trkpt lat="42.966021560132503509521484375" lon="-2.36673773266375064849853515625">
        <ele>1120.800048828125</ele>
        <time>2022-04-17T11:33:06.000Z</time>
      </trkpt>
      <trkpt lat="42.96602030284702777862548828125" lon="-2.36672717146575450897216796875">
        <ele>1120.800048828125</ele>
        <time>2022-04-17T11:33:07.000Z</time>
      </trkpt>
      <trkpt lat="42.9660166986286640167236328125" lon="-2.366715855896472930908203125">
        <ele>1121</ele>
        <time>2022-04-17T11:33:08.000Z</time>
      </trkpt>
      <trkpt lat="42.96601225621998310089111328125" lon="-2.36670420505106449127197265625">
        <ele>1121</ele>
        <time>2022-04-17T11:33:09.000Z</time>
      </trkpt>
      <trkpt lat="42.96600806526839733123779296875" lon="-2.366693727672100067138671875">
        <ele>1121.199951171875</ele>
        <time>2022-04-17T11:33:10.000Z</time>
      </trkpt>
      <trkpt lat="42.96600655652582645416259765625" lon="-2.36668459139764308929443359375">
        <ele>1121.4000244140625</ele>
        <time>2022-04-17T11:33:11.000Z</time>
      </trkpt>
      <trkpt lat="42.96600387431681156158447265625" lon="-2.36667461693286895751953125">
        <ele>1121.4000244140625</ele>
        <time>2022-04-17T11:33:12.000Z</time>
      </trkpt>
      <trkpt lat="42.96600068919360637664794921875" lon="-2.36666413955390453338623046875">
        <ele>1121.5999755859375</ele>
        <time>2022-04-17T11:33:13.000Z</time>
      </trkpt>
      <trkpt lat="42.9659982584416866302490234375" lon="-2.3666533268988132476806640625">
        <ele>1121.800048828125</ele>
        <time>2022-04-17T11:33:14.000Z</time>
      </trkpt>
      <trkpt lat="42.9659905470907688140869140625" lon="-2.36664318479597568511962890625">
        <ele>1121.800048828125</ele>
        <time>2022-04-17T11:33:15.000Z</time>
      </trkpt>
      <trkpt lat="42.96598359011113643646240234375" lon="-2.36663362942636013031005859375">
        <ele>1122</ele>
        <time>2022-04-17T11:33:16.000Z</time>
      </trkpt>
      <trkpt lat="42.965980656445026397705078125" lon="-2.36662357114255428314208984375">
        <ele>1122.199951171875</ele>
        <time>2022-04-17T11:33:17.000Z</time>
      </trkpt>
      <trkpt lat="42.965981997549533843994140625" lon="-2.36661334522068500518798828125">
        <ele>1122.4000244140625</ele>
        <time>2022-04-17T11:33:18.000Z</time>
      </trkpt>
      <trkpt lat="42.96598023734986782073974609375" lon="-2.36660865135490894317626953125">
        <ele>1122.4000244140625</ele>
        <time>2022-04-17T11:33:19.000Z</time>
      </trkpt>
      <trkpt lat="42.965979315340518951416015625" lon="-2.36659892834722995758056640625">
        <ele>1122.5999755859375</ele>
        <time>2022-04-17T11:33:20.000Z</time>
      </trkpt>
      <trkpt lat="42.9659741185605525970458984375" lon="-2.36659155227243900299072265625">
        <ele>1122.800048828125</ele>
        <time>2022-04-17T11:33:21.000Z</time>
      </trkpt>
      <trkpt lat="42.96596758067607879638671875" lon="-2.36658434383571147918701171875">
        <ele>1122.800048828125</ele>
        <time>2022-04-17T11:33:22.000Z</time>
      </trkpt>
      <trkpt lat="42.96596146188676357269287109375" lon="-2.3665728606283664703369140625">
        <ele>1123</ele>
        <time>2022-04-17T11:33:23.000Z</time>
      </trkpt>
      <trkpt lat="42.96595727093517780303955078125" lon="-2.36656456254422664642333984375">
        <ele>1123.199951171875</ele>
        <time>2022-04-17T11:33:24.000Z</time>
      </trkpt>
      <trkpt lat="42.965949475765228271484375" lon="-2.36655525863170623779296875">
        <ele>1123.199951171875</ele>
        <time>2022-04-17T11:33:25.000Z</time>
      </trkpt>
      <trkpt lat="42.9659415967762470245361328125" lon="-2.3665467090904712677001953125">
        <ele>1123.4000244140625</ele>
        <time>2022-04-17T11:33:26.000Z</time>
      </trkpt>
      <trkpt lat="42.9659362323582172393798828125" lon="-2.3665384948253631591796875">
        <ele>1123.4000244140625</ele>
        <time>2022-04-17T11:33:27.000Z</time>
      </trkpt>
      <trkpt lat="42.96593145467340946197509765625" lon="-2.3665331304073333740234375">
        <ele>1123.5999755859375</ele>
        <time>2022-04-17T11:33:28.000Z</time>
      </trkpt>
      <trkpt lat="42.965919636189937591552734375" lon="-2.36652717925608158111572265625">
        <ele>1123.5999755859375</ele>
        <time>2022-04-17T11:33:29.000Z</time>
      </trkpt>
      <trkpt lat="42.96591770835220813751220703125" lon="-2.36651645042002201080322265625">
        <ele>1123.800048828125</ele>
        <time>2022-04-17T11:33:30.000Z</time>
      </trkpt>
      <trkpt lat="42.96591284684836864471435546875" lon="-2.366504631936550140380859375">
        <ele>1123.800048828125</ele>
        <time>2022-04-17T11:33:31.000Z</time>
      </trkpt>
      <trkpt lat="42.96590647660195827484130859375" lon="-2.3664934001863002777099609375">
        <ele>1123.800048828125</ele>
        <time>2022-04-17T11:33:32.000Z</time>
      </trkpt>
      <trkpt lat="42.96590312384068965911865234375" lon="-2.36648459918797016143798828125">
        <ele>1124</ele>
        <time>2022-04-17T11:33:33.000Z</time>
      </trkpt>
      <trkpt lat="42.96590161509811878204345703125" lon="-2.36647286452353000640869140625">
        <ele>1124</ele>
        <time>2022-04-17T11:33:34.000Z</time>
      </trkpt>
      <trkpt lat="42.9658973403275012969970703125" lon="-2.36646045930683612823486328125">
        <ele>1124</ele>
        <time>2022-04-17T11:33:35.000Z</time>
      </trkpt>
      <trkpt lat="42.96589490957558155059814453125" lon="-2.36644939519464969635009765625">
        <ele>1124.199951171875</ele>
        <time>2022-04-17T11:33:36.000Z</time>
      </trkpt>
      <trkpt lat="42.96589407138526439666748046875" lon="-2.3664384149014949798583984375">
        <ele>1124.4000244140625</ele>
        <time>2022-04-17T11:33:37.000Z</time>
      </trkpt>
      <trkpt lat="42.9658926464617252349853515625" lon="-2.36642760224640369415283203125">
        <ele>1124.5999755859375</ele>
        <time>2022-04-17T11:33:38.000Z</time>
      </trkpt>
      <trkpt lat="42.9658918082714080810546875" lon="-2.36641519702970981597900390625">
        <ele>1124.5999755859375</ele>
        <time>2022-04-17T11:33:39.000Z</time>
      </trkpt>
      <trkpt lat="42.96588988043367862701416015625" lon="-2.36640480346977710723876953125">
        <ele>1124.800048828125</ele>
        <time>2022-04-17T11:33:40.000Z</time>
      </trkpt>
      <trkpt lat="42.96588703058660030364990234375" lon="-2.366396002471446990966796875">
        <ele>1124.800048828125</ele>
        <time>2022-04-17T11:33:41.000Z</time>
      </trkpt>
      <trkpt lat="42.9658849351108074188232421875" lon="-2.366387285292148590087890625">
        <ele>1125</ele>
        <time>2022-04-17T11:33:42.000Z</time>
      </trkpt>
      <trkpt lat="42.96587948687374591827392578125" lon="-2.36638099886476993560791015625">
        <ele>1125.199951171875</ele>
        <time>2022-04-17T11:33:43.000Z</time>
      </trkpt>
      <trkpt lat="42.96587504446506500244140625" lon="-2.36637823283672332763671875">
        <ele>1125.4000244140625</ele>
        <time>2022-04-17T11:33:44.000Z</time>
      </trkpt>
      <trkpt lat="42.96587781049311161041259765625" lon="-2.36636457033455371856689453125">
        <ele>1125.5999755859375</ele>
        <time>2022-04-17T11:33:45.000Z</time>
      </trkpt>
      <trkpt lat="42.96587747521698474884033203125" lon="-2.36636138521134853363037109375">
        <ele>1125.800048828125</ele>
        <time>2022-04-17T11:33:46.000Z</time>
      </trkpt>
      <trkpt lat="42.965874373912811279296875" lon="-2.366355769336223602294921875">
        <ele>1126</ele>
        <time>2022-04-17T11:33:47.000Z</time>
      </trkpt>
      <trkpt lat="42.9658688418567180633544921875" lon="-2.36635149456560611724853515625">
        <ele>1126.199951171875</ele>
        <time>2022-04-17T11:33:48.000Z</time>
      </trkpt>
      <trkpt lat="42.965858615934848785400390625" lon="-2.36634260974824428558349609375">
        <ele>1126.4000244140625</ele>
        <time>2022-04-17T11:33:49.000Z</time>
      </trkpt>
      <trkpt lat="42.96585350297391414642333984375" lon="-2.36633598804473876953125">
        <ele>1126.5999755859375</ele>
        <time>2022-04-17T11:33:50.000Z</time>
      </trkpt>
      <trkpt lat="42.96585023403167724609375" lon="-2.36632953397929668426513671875">
        <ele>1126.800048828125</ele>
        <time>2022-04-17T11:33:51.000Z</time>
      </trkpt>
      <trkpt lat="42.9658460430800914764404296875" lon="-2.36632618121802806854248046875">
        <ele>1126.800048828125</ele>
        <time>2022-04-17T11:33:52.000Z</time>
      </trkpt>
      <trkpt lat="42.96584059484302997589111328125" lon="-2.36632014624774456024169921875">
        <ele>1126.800048828125</ele>
        <time>2022-04-17T11:33:53.000Z</time>
      </trkpt>
      <trkpt lat="42.96583657152950763702392578125" lon="-2.3663123510777950286865234375">
        <ele>1127</ele>
        <time>2022-04-17T11:33:54.000Z</time>
      </trkpt>
      <trkpt lat="42.96583338640630245208740234375" lon="-2.366304136812686920166015625">
        <ele>1127</ele>
        <time>2022-04-17T11:33:55.000Z</time>
      </trkpt>
      <trkpt lat="42.96582835726439952850341796875" lon="-2.36629776656627655029296875">
        <ele>1127</ele>
        <time>2022-04-17T11:33:56.000Z</time>
      </trkpt>
      <trkpt lat="42.96582198701798915863037109375" lon="-2.36628963612020015716552734375">
        <ele>1127</ele>
        <time>2022-04-17T11:33:57.000Z</time>
      </trkpt>
      <trkpt lat="42.96581712551414966583251953125" lon="-2.36628234386444091796875">
        <ele>1127</ele>
        <time>2022-04-17T11:33:58.000Z</time>
      </trkpt>
      <trkpt lat="42.965815700590610504150390625" lon="-2.36627169884741306304931640625">
        <ele>1127</ele>
        <time>2022-04-17T11:33:59.000Z</time>
      </trkpt>
      <trkpt lat="42.96581109054386615753173828125" lon="-2.3662568628787994384765625">
        <ele>1127</ele>
        <time>2022-04-17T11:34:00.000Z</time>
      </trkpt>
      <trkpt lat="42.96580757014453411102294921875" lon="-2.3662442900240421295166015625">
        <ele>1127.199951171875</ele>
        <time>2022-04-17T11:34:01.000Z</time>
      </trkpt>
      <trkpt lat="42.96580237336456775665283203125" lon="-2.36623942852020263671875">
        <ele>1127.199951171875</ele>
        <time>2022-04-17T11:34:02.000Z</time>
      </trkpt>
      <trkpt lat="42.96579969115555286407470703125" lon="-2.3662327229976654052734375">
        <ele>1127.199951171875</ele>
        <time>2022-04-17T11:34:03.000Z</time>
      </trkpt>
      <trkpt lat="42.965799272060394287109375" lon="-2.366231717169284820556640625">
        <ele>1127.4000244140625</ele>
        <time>2022-04-17T11:34:04.000Z</time>
      </trkpt>
      <trkpt lat="42.9658041335642337799072265625" lon="-2.36622325144708156585693359375">
        <ele>1127.4000244140625</ele>
        <time>2022-04-17T11:34:05.000Z</time>
      </trkpt>
      <trkpt lat="42.96580706723034381866455078125" lon="-2.3662265203893184661865234375">
        <ele>1127.4000244140625</ele>
        <time>2022-04-17T11:34:06.000Z</time>
      </trkpt>
      <trkpt lat="42.965804971754550933837890625" lon="-2.36622945405542850494384765625">
        <ele>1127.4000244140625</ele>
        <time>2022-04-17T11:34:07.000Z</time>
      </trkpt>
      <trkpt lat="42.9658044688403606414794921875" lon="-2.36622400581836700439453125">
        <ele>1127.4000244140625</ele>
        <time>2022-04-17T11:34:08.000Z</time>
      </trkpt>
      <trkpt lat="42.9658032953739166259765625" lon="-2.36621436662971973419189453125">
        <ele>1127.4000244140625</ele>
        <time>2022-04-17T11:34:09.000Z</time>
      </trkpt>
      <trkpt lat="42.96580270864069461822509765625" lon="-2.36620514653623104095458984375">
        <ele>1127.4000244140625</ele>
        <time>2022-04-17T11:34:10.000Z</time>
      </trkpt>
      <trkpt lat="42.96580270864069461822509765625" lon="-2.36620095558464527130126953125">
        <ele>1127.4000244140625</ele>
        <time>2022-04-17T11:34:11.000Z</time>
      </trkpt>
      <trkpt lat="42.96580488793551921844482421875" lon="-2.36619240604341030120849609375">
        <ele>1127.5999755859375</ele>
        <time>2022-04-17T11:34:12.000Z</time>
      </trkpt>
      <trkpt lat="42.96579994261264801025390625" lon="-2.36618100665509700775146484375">
        <ele>1127.800048828125</ele>
        <time>2022-04-17T11:34:13.000Z</time>
      </trkpt>
      <trkpt lat="42.965799607336521148681640625" lon="-2.36616441048681735992431640625">
        <ele>1128</ele>
        <time>2022-04-17T11:34:14.000Z</time>
      </trkpt>
      <trkpt lat="42.9657960869371891021728515625" lon="-2.36615569330751895904541015625">
        <ele>1128</ele>
        <time>2022-04-17T11:34:15.000Z</time>
      </trkpt>
      <trkpt lat="42.9657940752804279327392578125" lon="-2.36615150235593318939208984375">
        <ele>1128.199951171875</ele>
        <time>2022-04-17T11:34:16.000Z</time>
      </trkpt>
      <trkpt lat="42.96579432673752307891845703125" lon="-2.3661494068801403045654296875">
        <ele>1128.199951171875</ele>
        <time>2022-04-17T11:34:17.000Z</time>
      </trkpt>
      <trkpt lat="42.96579600311815738677978515625" lon="-2.36615016125142574310302734375">
        <ele>1128.4000244140625</ele>
        <time>2022-04-17T11:34:18.000Z</time>
      </trkpt>
      <trkpt lat="42.96579516492784023284912109375" lon="-2.366148568689823150634765625">
        <ele>1128.5999755859375</ele>
        <time>2022-04-17T11:34:19.000Z</time>
      </trkpt>
      <trkpt lat="42.96579734422266483306884765625" lon="-2.36614353954792022705078125">
        <ele>1128.5999755859375</ele>
        <time>2022-04-17T11:34:20.000Z</time>
      </trkpt>
      <trkpt lat="42.96579868532717227935791015625" lon="-2.36613473854959011077880859375">
        <ele>1128.800048828125</ele>
        <time>2022-04-17T11:34:21.000Z</time>
      </trkpt>
      <trkpt lat="42.965798936784267425537109375" lon="-2.366127781569957733154296875">
        <ele>1129</ele>
        <time>2022-04-17T11:34:22.000Z</time>
      </trkpt>
      <trkpt lat="42.96579985879361629486083984375" lon="-2.3661202378571033477783203125">
        <ele>1129.199951171875</ele>
        <time>2022-04-17T11:34:23.000Z</time>
      </trkpt>
      <trkpt lat="42.96579617075622081756591796875" lon="-2.3661115206778049468994140625">
        <ele>1129.4000244140625</ele>
        <time>2022-04-17T11:34:24.000Z</time>
      </trkpt>
      <trkpt lat="42.96579415909945964813232421875" lon="-2.36610171385109424591064453125">
        <ele>1129.5999755859375</ele>
        <time>2022-04-17T11:34:25.000Z</time>
      </trkpt>
      <trkpt lat="42.965793907642364501953125" lon="-2.36609182320535182952880859375">
        <ele>1129.800048828125</ele>
        <time>2022-04-17T11:34:26.000Z</time>
      </trkpt>
      <trkpt lat="42.965792231261730194091796875" lon="-2.3660850338637828826904296875">
        <ele>1130</ele>
        <time>2022-04-17T11:34:27.000Z</time>
      </trkpt>
      <trkpt lat="42.96579147689044475555419921875" lon="-2.36607673577964305877685546875">
        <ele>1130.199951171875</ele>
        <time>2022-04-17T11:34:28.000Z</time>
      </trkpt>
      <trkpt lat="42.96578929759562015533447265625" lon="-2.366065084934234619140625">
        <ele>1130.4000244140625</ele>
        <time>2022-04-17T11:34:29.000Z</time>
      </trkpt>
      <trkpt lat="42.9657860286533832550048828125" lon="-2.36605511046946048736572265625">
        <ele>1130.5999755859375</ele>
        <time>2022-04-17T11:34:30.000Z</time>
      </trkpt>
      <trkpt lat="42.96578108333051204681396484375" lon="-2.36604538746178150177001953125">
        <ele>1130.800048828125</ele>
        <time>2022-04-17T11:34:31.000Z</time>
      </trkpt>
      <trkpt lat="42.9657803289592266082763671875" lon="-2.36603935249149799346923828125">
        <ele>1130.800048828125</ele>
        <time>2022-04-17T11:34:32.000Z</time>
      </trkpt>
      <trkpt lat="42.96577739529311656951904296875" lon="-2.36603449098765850067138671875">
        <ele>1131</ele>
        <time>2022-04-17T11:34:33.000Z</time>
      </trkpt>
      <trkpt lat="42.96577286906540393829345703125" lon="-2.36603164114058017730712890625">
        <ele>1131.199951171875</ele>
        <time>2022-04-17T11:34:34.000Z</time>
      </trkpt>
      <trkpt lat="42.96576783992350101470947265625" lon="-2.366029210388660430908203125">
        <ele>1131.4000244140625</ele>
        <time>2022-04-17T11:34:35.000Z</time>
      </trkpt>
      <trkpt lat="42.965761385858058929443359375" lon="-2.36602879129350185394287109375">
        <ele>1131.4000244140625</ele>
        <time>2022-04-17T11:34:36.000Z</time>
      </trkpt>
      <trkpt lat="42.965757362544536590576171875" lon="-2.36602979712188243865966796875">
        <ele>1131.5999755859375</ele>
        <time>2022-04-17T11:34:37.000Z</time>
      </trkpt>
      <trkpt lat="42.96575191430747509002685546875" lon="-2.3660280369222164154052734375">
        <ele>1131.5999755859375</ele>
        <time>2022-04-17T11:34:38.000Z</time>
      </trkpt>
      <trkpt lat="42.9657488130033016204833984375" lon="-2.36601973883807659149169921875">
        <ele>1131.800048828125</ele>
        <time>2022-04-17T11:34:39.000Z</time>
      </trkpt>
      <trkpt lat="42.9657461307942867279052734375" lon="-2.36601588316261768341064453125">
        <ele>1131.800048828125</ele>
        <time>2022-04-17T11:34:40.000Z</time>
      </trkpt>
      <trkpt lat="42.9657447896897792816162109375" lon="-2.36600666306912899017333984375">
        <ele>1131.800048828125</ele>
        <time>2022-04-17T11:34:41.000Z</time>
      </trkpt>
      <trkpt lat="42.9657424427568912506103515625" lon="-2.36599828116595745086669921875">
        <ele>1131.800048828125</ele>
        <time>2022-04-17T11:34:42.000Z</time>
      </trkpt>
      <trkpt lat="42.9657437838613986968994140625" lon="-2.365989647805690765380859375">
        <ele>1132</ele>
        <time>2022-04-17T11:34:43.000Z</time>
      </trkpt>
      <trkpt lat="42.9657387547194957733154296875" lon="-2.36598235554993152618408203125">
        <ele>1132.199951171875</ele>
        <time>2022-04-17T11:34:44.000Z</time>
      </trkpt>
      <trkpt lat="42.9657350666821002960205078125" lon="-2.36598663032054901123046875">
        <ele>1132.4000244140625</ele>
        <time>2022-04-17T11:34:45.000Z</time>
      </trkpt>
      <trkpt lat="42.96572827734053134918212890625" lon="-2.3659834451973438262939453125">
        <ele>1132.5999755859375</ele>
        <time>2022-04-17T11:34:46.000Z</time>
      </trkpt>
      <trkpt lat="42.96572710387408733367919921875" lon="-2.36598134972155094146728515625">
        <ele>1132.5999755859375</ele>
        <time>2022-04-17T11:34:47.000Z</time>
      </trkpt>
      <trkpt lat="42.9657263495028018951416015625" lon="-2.3659743927419185638427734375">
        <ele>1132.800048828125</ele>
        <time>2022-04-17T11:34:48.000Z</time>
      </trkpt>
      <trkpt lat="42.965720482170581817626953125" lon="-2.3659686930477619171142578125">
        <ele>1133</ele>
        <time>2022-04-17T11:34:49.000Z</time>
      </trkpt>
      <trkpt lat="42.9657189734280109405517578125" lon="-2.365960143506526947021484375">
        <ele>1133</ele>
        <time>2022-04-17T11:34:50.000Z</time>
      </trkpt>
      <trkpt lat="42.9657161235809326171875" lon="-2.36595201306045055389404296875">
        <ele>1133</ele>
        <time>2022-04-17T11:34:51.000Z</time>
      </trkpt>
      <trkpt lat="42.96571302227675914764404296875" lon="-2.36595000140368938446044921875">
        <ele>1133.199951171875</ele>
        <time>2022-04-17T11:34:52.000Z</time>
      </trkpt>
      <trkpt lat="42.9657072387635707855224609375" lon="-2.36594815738499164581298828125">
        <ele>1133.4000244140625</ele>
        <time>2022-04-17T11:34:53.000Z</time>
      </trkpt>
      <trkpt lat="42.9657022096216678619384765625" lon="-2.3659422062337398529052734375">
        <ele>1133.4000244140625</ele>
        <time>2022-04-17T11:34:54.000Z</time>
      </trkpt>
      <trkpt lat="42.9657022096216678619384765625" lon="-2.3659375123679637908935546875">
        <ele>1133.4000244140625</ele>
        <time>2022-04-17T11:34:55.000Z</time>
      </trkpt>
      <trkpt lat="42.96569860540330410003662109375" lon="-2.36593030393123626708984375">
        <ele>1133.5999755859375</ele>
        <time>2022-04-17T11:34:56.000Z</time>
      </trkpt>
      <trkpt lat="42.96569407917559146881103515625" lon="-2.36592334695160388946533203125">
        <ele>1133.800048828125</ele>
        <time>2022-04-17T11:34:57.000Z</time>
      </trkpt>
      <trkpt lat="42.9656884633004665374755859375" lon="-2.36591831780970096588134765625">
        <ele>1134</ele>
        <time>2022-04-17T11:34:58.000Z</time>
      </trkpt>
      <trkpt lat="42.96568586491048336029052734375" lon="-2.3659123666584491729736328125">
        <ele>1134.199951171875</ele>
        <time>2022-04-17T11:34:59.000Z</time>
      </trkpt>
      <trkpt lat="42.96568217687308788299560546875" lon="-2.36590725369751453399658203125">
        <ele>1134.199951171875</ele>
        <time>2022-04-17T11:35:00.000Z</time>
      </trkpt>
      <trkpt lat="42.96567915938794612884521484375" lon="-2.365901470184326171875">
        <ele>1134.4000244140625</ele>
        <time>2022-04-17T11:35:01.000Z</time>
      </trkpt>
      <trkpt lat="42.96567614190280437469482421875" lon="-2.36589518375694751739501953125">
        <ele>1134.5999755859375</ele>
        <time>2022-04-17T11:35:02.000Z</time>
      </trkpt>
      <trkpt lat="42.9656750522553920745849609375" lon="-2.36588479019701480865478515625">
        <ele>1134.800048828125</ele>
        <time>2022-04-17T11:35:03.000Z</time>
      </trkpt>
      <trkpt lat="42.965673543512821197509765625" lon="-2.36587691120803356170654296875">
        <ele>1135</ele>
        <time>2022-04-17T11:35:04.000Z</time>
      </trkpt>
      <trkpt lat="42.96567312441766262054443359375" lon="-2.365870289504528045654296875">
        <ele>1135.199951171875</ele>
        <time>2022-04-17T11:35:05.000Z</time>
      </trkpt>
      <trkpt lat="42.96567396260797977447509765625" lon="-2.36586282961070537567138671875">
        <ele>1135.4000244140625</ele>
        <time>2022-04-17T11:35:06.000Z</time>
      </trkpt>
      <trkpt lat="42.9656732082366943359375" lon="-2.36585495062172412872314453125">
        <ele>1135.5999755859375</ele>
        <time>2022-04-17T11:35:07.000Z</time>
      </trkpt>
      <trkpt lat="42.96567094512283802032470703125" lon="-2.36584740690886974334716796875">
        <ele>1135.5999755859375</ele>
        <time>2022-04-17T11:35:08.000Z</time>
      </trkpt>
      <trkpt lat="42.9656670056283473968505859375" lon="-2.36584321595728397369384765625">
        <ele>1136</ele>
        <time>2022-04-17T11:35:09.000Z</time>
      </trkpt>
      <trkpt lat="42.96566692180931568145751953125" lon="-2.3658349178731441497802734375">
        <ele>1136.199951171875</ele>
        <time>2022-04-17T11:35:10.000Z</time>
      </trkpt>
      <trkpt lat="42.96567027457058429718017578125" lon="-2.3658295534551143646240234375">
        <ele>1136.199951171875</ele>
        <time>2022-04-17T11:35:11.000Z</time>
      </trkpt>
      <trkpt lat="42.96566985547542572021484375" lon="-2.3658218421041965484619140625">
        <ele>1136.4000244140625</ele>
        <time>2022-04-17T11:35:12.000Z</time>
      </trkpt>
      <trkpt lat="42.9656592942774295806884765625" lon="-2.365819327533245086669921875">
        <ele>1136.4000244140625</ele>
        <time>2022-04-17T11:35:13.000Z</time>
      </trkpt>
      <trkpt lat="42.96565602533519268035888671875" lon="-2.36581496894359588623046875">
        <ele>1136.4000244140625</ele>
        <time>2022-04-17T11:35:14.000Z</time>
      </trkpt>
      <trkpt lat="42.9656504094600677490234375" lon="-2.365808598697185516357421875">
        <ele>1136.4000244140625</ele>
        <time>2022-04-17T11:35:15.000Z</time>
      </trkpt>
      <trkpt lat="42.96564663760364055633544921875" lon="-2.36580231226980686187744140625">
        <ele>1136.4000244140625</ele>
        <time>2022-04-17T11:35:16.000Z</time>
      </trkpt>
      <trkpt lat="42.96564110554754734039306640625" lon="-2.36579619348049163818359375">
        <ele>1136.5999755859375</ele>
        <time>2022-04-17T11:35:17.000Z</time>
      </trkpt>
      <trkpt lat="42.9656307958066463470458984375" lon="-2.36579225398600101470947265625">
        <ele>1136.5999755859375</ele>
        <time>2022-04-17T11:35:18.000Z</time>
      </trkpt>
      <trkpt lat="42.9656307958066463470458984375" lon="-2.36578286625444889068603515625">
        <ele>1136.5999755859375</ele>
        <time>2022-04-17T11:35:19.000Z</time>
      </trkpt>
      <trkpt lat="42.9656408540904521942138671875" lon="-2.36577951349318027496337890625">
        <ele>1136.800048828125</ele>
        <time>2022-04-17T11:35:20.000Z</time>
      </trkpt>
      <trkpt lat="42.96564445830881595611572265625" lon="-2.3657728917896747589111328125">
        <ele>1137</ele>
        <time>2022-04-17T11:35:21.000Z</time>
      </trkpt>
      <trkpt lat="42.96564663760364055633544921875" lon="-2.3657661862671375274658203125">
        <ele>1137.199951171875</ele>
        <time>2022-04-17T11:35:22.000Z</time>
      </trkpt>
      <trkpt lat="42.9656478948891162872314453125" lon="-2.36576157622039318084716796875">
        <ele>1137.199951171875</ele>
        <time>2022-04-17T11:35:23.000Z</time>
      </trkpt>
      <trkpt lat="42.9656462185084819793701171875" lon="-2.3657554574310779571533203125">
        <ele>1137.199951171875</ele>
        <time>2022-04-17T11:35:24.000Z</time>
      </trkpt>
      <trkpt lat="42.9656442068517208099365234375" lon="-2.36574866808950901031494140625">
        <ele>1137.4000244140625</ele>
        <time>2022-04-17T11:35:25.000Z</time>
      </trkpt>
      <trkpt lat="42.96564395539462566375732421875" lon="-2.36574145965278148651123046875">
        <ele>1137.5999755859375</ele>
        <time>2022-04-17T11:35:26.000Z</time>
      </trkpt>
      <trkpt lat="42.9656423628330230712890625" lon="-2.365736849606037139892578125">
        <ele>1137.5999755859375</ele>
        <time>2022-04-17T11:35:27.000Z</time>
      </trkpt>
      <trkpt lat="42.96564278192818164825439453125" lon="-2.36573207192122936248779296875">
        <ele>1137.800048828125</ele>
        <time>2022-04-17T11:35:28.000Z</time>
      </trkpt>
      <trkpt lat="42.96564211137592792510986328125" lon="-2.36573056317865848541259765625">
        <ele>1138</ele>
        <time>2022-04-17T11:35:29.000Z</time>
      </trkpt>
      <trkpt lat="42.9656364955008029937744140625" lon="-2.365730814635753631591796875">
        <ele>1138.199951171875</ele>
        <time>2022-04-17T11:35:30.000Z</time>
      </trkpt>
      <trkpt lat="42.96563171781599521636962890625" lon="-2.36573291011154651641845703125">
        <ele>1138.4000244140625</ele>
        <time>2022-04-17T11:35:31.000Z</time>
      </trkpt>
      <trkpt lat="42.9656311310827732086181640625" lon="-2.3657336644828319549560546875">
        <ele>1138.5999755859375</ele>
        <time>2022-04-17T11:35:32.000Z</time>
      </trkpt>
      <trkpt lat="42.965633310377597808837890625" lon="-2.3657326586544513702392578125">
        <ele>1138.5999755859375</ele>
        <time>2022-04-17T11:35:33.000Z</time>
      </trkpt>
      <trkpt lat="42.96563356183469295501708984375" lon="-2.3657343350350856781005859375">
        <ele>1138.5999755859375</ele>
        <time>2022-04-17T11:35:34.000Z</time>
      </trkpt>
      <trkpt lat="42.9656341485679149627685546875" lon="-2.36573450267314910888671875">
        <ele>1138.800048828125</ele>
        <time>2022-04-17T11:35:35.000Z</time>
      </trkpt>
      <trkpt lat="42.96564077027142047882080078125" lon="-2.3657343350350856781005859375">
        <ele>1138.800048828125</ele>
        <time>2022-04-17T11:35:36.000Z</time>
      </trkpt>
      <trkpt lat="42.96563875861465930938720703125" lon="-2.365728802978992462158203125">
        <ele>1138.800048828125</ele>
        <time>2022-04-17T11:35:37.000Z</time>
      </trkpt>
      <trkpt lat="42.9656361602246761322021484375" lon="-2.36572436057031154632568359375">
        <ele>1138.800048828125</ele>
        <time>2022-04-17T11:35:38.000Z</time>
      </trkpt>
      <trkpt lat="42.96563607640564441680908203125" lon="-2.3657190799713134765625">
        <ele>1138.800048828125</ele>
        <time>2022-04-17T11:35:39.000Z</time>
      </trkpt>
      <trkpt lat="42.96563674695789813995361328125" lon="-2.365714050829410552978515625">
        <ele>1139</ele>
        <time>2022-04-17T11:35:40.000Z</time>
      </trkpt>
      <trkpt lat="42.9656418599188327789306640625" lon="-2.36570625565946102142333984375">
        <ele>1139.199951171875</ele>
        <time>2022-04-17T11:35:41.000Z</time>
      </trkpt>
      <trkpt lat="42.96564579941332340240478515625" lon="-2.3656989634037017822265625">
        <ele>1139.199951171875</ele>
        <time>2022-04-17T11:35:42.000Z</time>
      </trkpt>
      <trkpt lat="42.96564730815589427947998046875" lon="-2.36569401808083057403564453125">
        <ele>1139.4000244140625</ele>
        <time>2022-04-17T11:35:43.000Z</time>
      </trkpt>
      <trkpt lat="42.96564546413719654083251953125" lon="-2.36568815074861049652099609375">
        <ele>1139.5999755859375</ele>
        <time>2022-04-17T11:35:44.000Z</time>
      </trkpt>
      <trkpt lat="42.96564278192818164825439453125" lon="-2.36568144522607326507568359375">
        <ele>1139.5999755859375</ele>
        <time>2022-04-17T11:35:45.000Z</time>
      </trkpt>
      <trkpt lat="42.965642027556896209716796875" lon="-2.36567281186580657958984375">
        <ele>1139.800048828125</ele>
        <time>2022-04-17T11:35:46.000Z</time>
      </trkpt>
      <trkpt lat="42.9656396806240081787109375" lon="-2.36566166393458843231201171875">
        <ele>1140</ele>
        <time>2022-04-17T11:35:47.000Z</time>
      </trkpt>
      <trkpt lat="42.96563523821532726287841796875" lon="-2.3656491748988628387451171875">
        <ele>1140</ele>
        <time>2022-04-17T11:35:48.000Z</time>
      </trkpt>
      <trkpt lat="42.9656316339969635009765625" lon="-2.36564355902373790740966796875">
        <ele>1140.199951171875</ele>
        <time>2022-04-17T11:35:49.000Z</time>
      </trkpt>
      <trkpt lat="42.96563205309212207794189453125" lon="-2.36564062535762786865234375">
        <ele>1140.4000244140625</ele>
        <time>2022-04-17T11:35:50.000Z</time>
      </trkpt>
      <trkpt lat="42.96563255600631237030029296875" lon="-2.36563685350120067596435546875">
        <ele>1140.4000244140625</ele>
        <time>2022-04-17T11:35:51.000Z</time>
      </trkpt>
      <trkpt lat="42.9656331427395343780517578125" lon="-2.36563350073993206024169921875">
        <ele>1140.5999755859375</ele>
        <time>2022-04-17T11:35:52.000Z</time>
      </trkpt>
      <trkpt lat="42.9656328074634075164794921875" lon="-2.36563123762607574462890625">
        <ele>1140.800048828125</ele>
        <time>2022-04-17T11:35:53.000Z</time>
      </trkpt>
      <trkpt lat="42.96563322655856609344482421875" lon="-2.36562788486480712890625">
        <ele>1140.800048828125</ele>
        <time>2022-04-17T11:35:54.000Z</time>
      </trkpt>
      <trkpt lat="42.96563372947275638580322265625" lon="-2.36562159843742847442626953125">
        <ele>1141</ele>
        <time>2022-04-17T11:35:55.000Z</time>
      </trkpt>
      <trkpt lat="42.96563339419662952423095703125" lon="-2.36561573110520839691162109375">
        <ele>1141</ele>
        <time>2022-04-17T11:35:56.000Z</time>
      </trkpt>
      <trkpt lat="42.9656343162059783935546875" lon="-2.36560785211622714996337890625">
        <ele>1141.199951171875</ele>
        <time>2022-04-17T11:35:57.000Z</time>
      </trkpt>
      <trkpt lat="42.96563138253986835479736328125" lon="-2.3656042478978633880615234375">
        <ele>1141.199951171875</ele>
        <time>2022-04-17T11:35:58.000Z</time>
      </trkpt>
      <trkpt lat="42.96562618575990200042724609375" lon="-2.36559930257499217987060546875">
        <ele>1141.4000244140625</ele>
        <time>2022-04-17T11:35:59.000Z</time>
      </trkpt>
      <trkpt lat="42.9656163789331912994384765625" lon="-2.36559234559535980224609375">
        <ele>1141.5999755859375</ele>
        <time>2022-04-17T11:36:00.000Z</time>
      </trkpt>
      <trkpt lat="42.96561160124838352203369140625" lon="-2.36558496952056884765625">
        <ele>1141.800048828125</ele>
        <time>2022-04-17T11:36:01.000Z</time>
      </trkpt>
      <trkpt lat="42.96559969894587993621826171875" lon="-2.3655794374644756317138671875">
        <ele>1142</ele>
        <time>2022-04-17T11:36:02.000Z</time>
      </trkpt>
      <trkpt lat="42.96559299342334270477294921875" lon="-2.36557415686547756195068359375">
        <ele>1142.199951171875</ele>
        <time>2022-04-17T11:36:03.000Z</time>
      </trkpt>
      <trkpt lat="42.96559282578527927398681640625" lon="-2.3655613325536251068115234375">
        <ele>1142.199951171875</ele>
        <time>2022-04-17T11:36:04.000Z</time>
      </trkpt>
      <trkpt lat="42.965588383376598358154296875" lon="-2.36556527204811573028564453125">
        <ele>1142.4000244140625</ele>
        <time>2022-04-17T11:36:05.000Z</time>
      </trkpt>
      <trkpt lat="42.96558008529245853424072265625" lon="-2.36556543968617916107177734375">
        <ele>1142.5999755859375</ele>
        <time>2022-04-17T11:36:06.000Z</time>
      </trkpt>
      <trkpt lat="42.9655717872083187103271484375" lon="-2.365560494363307952880859375">
        <ele>1142.800048828125</ele>
        <time>2022-04-17T11:36:07.000Z</time>
      </trkpt>
      <trkpt lat="42.96556734479963779449462890625" lon="-2.3655495978891849517822265625">
        <ele>1143</ele>
        <time>2022-04-17T11:36:08.000Z</time>
      </trkpt>
      <trkpt lat="42.965565584599971771240234375" lon="-2.3655425570905208587646484375">
        <ele>1143</ele>
        <time>2022-04-17T11:36:09.000Z</time>
      </trkpt>
      <trkpt lat="42.96556550078094005584716796875" lon="-2.36554364673793315887451171875">
        <ele>1143.199951171875</ele>
        <time>2022-04-17T11:36:10.000Z</time>
      </trkpt>
      <trkpt lat="42.9655644111335277557373046875" lon="-2.36553861759603023529052734375">
        <ele>1143.199951171875</ele>
        <time>2022-04-17T11:36:11.000Z</time>
      </trkpt>
      <trkpt lat="42.9655618965625762939453125" lon="-2.365533001720905303955078125">
        <ele>1143.199951171875</ele>
        <time>2022-04-17T11:36:12.000Z</time>
      </trkpt>
      <trkpt lat="42.96555929817259311676025390625" lon="-2.36552570946514606475830078125">
        <ele>1143.4000244140625</ele>
        <time>2022-04-17T11:36:13.000Z</time>
      </trkpt>
      <trkpt lat="42.96555577777326107025146484375" lon="-2.3655227757990360260009765625">
        <ele>1143.4000244140625</ele>
        <time>2022-04-17T11:36:14.000Z</time>
      </trkpt>
      <trkpt lat="42.96555577777326107025146484375" lon="-2.3655137233436107635498046875">
        <ele>1143.5999755859375</ele>
        <time>2022-04-17T11:36:15.000Z</time>
      </trkpt>
      <trkpt lat="42.9655543528497219085693359375" lon="-2.3655043356120586395263671875">
        <ele>1143.800048828125</ele>
        <time>2022-04-17T11:36:16.000Z</time>
      </trkpt>
      <trkpt lat="42.9655520059168338775634765625" lon="-2.36549670808017253875732421875">
        <ele>1143.800048828125</ele>
        <time>2022-04-17T11:36:17.000Z</time>
      </trkpt>
      <trkpt lat="42.96555058099329471588134765625" lon="-2.3654872365295886993408203125">
        <ele>1144</ele>
        <time>2022-04-17T11:36:18.000Z</time>
      </trkpt>
      <trkpt lat="42.96554622240364551544189453125" lon="-2.365480028092861175537109375">
        <ele>1144.199951171875</ele>
        <time>2022-04-17T11:36:19.000Z</time>
      </trkpt>
      <trkpt lat="42.96554186381399631500244140625" lon="-2.36547776497900485992431640625">
        <ele>1144.4000244140625</ele>
        <time>2022-04-17T11:36:20.000Z</time>
      </trkpt>
      <trkpt lat="42.965536415576934814453125" lon="-2.365472652018070220947265625">
        <ele>1144.4000244140625</ele>
        <time>2022-04-17T11:36:21.000Z</time>
      </trkpt>
      <trkpt lat="42.9655325599014759063720703125" lon="-2.3654620908200740814208984375">
        <ele>1144.4000244140625</ele>
        <time>2022-04-17T11:36:22.000Z</time>
      </trkpt>
      <trkpt lat="42.9655315540730953216552734375" lon="-2.36544884741306304931640625">
        <ele>1144.5999755859375</ele>
        <time>2022-04-17T11:36:23.000Z</time>
      </trkpt>
      <trkpt lat="42.965530045330524444580078125" lon="-2.36543870531022548675537109375">
        <ele>1144.5999755859375</ele>
        <time>2022-04-17T11:36:24.000Z</time>
      </trkpt>
      <trkpt lat="42.965526692569255828857421875" lon="-2.36543116159737110137939453125">
        <ele>1144.800048828125</ele>
        <time>2022-04-17T11:36:25.000Z</time>
      </trkpt>
      <trkpt lat="42.96552493236958980560302734375" lon="-2.365424372255802154541015625">
        <ele>1145</ele>
        <time>2022-04-17T11:36:26.000Z</time>
      </trkpt>
      <trkpt lat="42.9655245132744312286376953125" lon="-2.36541607417166233062744140625">
        <ele>1145.199951171875</ele>
        <time>2022-04-17T11:36:27.000Z</time>
      </trkpt>
      <trkpt lat="42.96552275307476520538330078125" lon="-2.3654114641249179840087890625">
        <ele>1145.4000244140625</ele>
        <time>2022-04-17T11:36:28.000Z</time>
      </trkpt>
      <trkpt lat="42.9655194841325283050537109375" lon="-2.36540165729820728302001953125">
        <ele>1145.4000244140625</ele>
        <time>2022-04-17T11:36:29.000Z</time>
      </trkpt>
      <trkpt lat="42.9655171371996402740478515625" lon="-2.36539461649954319000244140625">
        <ele>1145.5999755859375</ele>
        <time>2022-04-17T11:36:30.000Z</time>
      </trkpt>
      <trkpt lat="42.96551705338060855865478515625" lon="-2.36538849771022796630859375">
        <ele>1145.5999755859375</ele>
        <time>2022-04-17T11:36:31.000Z</time>
      </trkpt>
      <trkpt lat="42.96551428735256195068359375" lon="-2.36538506112992763519287109375">
        <ele>1145.800048828125</ele>
        <time>2022-04-17T11:36:32.000Z</time>
      </trkpt>
      <trkpt lat="42.9655147902667522430419921875" lon="-2.365380115807056427001953125">
        <ele>1145.800048828125</ele>
        <time>2022-04-17T11:36:33.000Z</time>
      </trkpt>
      <trkpt lat="42.9655164666473865509033203125" lon="-2.3653786070644855499267578125">
        <ele>1146</ele>
        <time>2022-04-17T11:36:34.000Z</time>
      </trkpt>
      <trkpt lat="42.965514622628688812255859375" lon="-2.3653742484748363494873046875">
        <ele>1146</ele>
        <time>2022-04-17T11:36:35.000Z</time>
      </trkpt>
      <trkpt lat="42.9655131138861179351806640625" lon="-2.36536745913326740264892578125">
        <ele>1146.199951171875</ele>
        <time>2022-04-17T11:36:36.000Z</time>
      </trkpt>
      <trkpt lat="42.96551101841032505035400390625" lon="-2.3653641901910305023193359375">
        <ele>1146.4000244140625</ele>
        <time>2022-04-17T11:36:37.000Z</time>
      </trkpt>
      <trkpt lat="42.9655094258487224578857421875" lon="-2.36536075361073017120361328125">
        <ele>1146.5999755859375</ele>
        <time>2022-04-17T11:36:38.000Z</time>
      </trkpt>
      <trkpt lat="42.96550733037292957305908203125" lon="-2.365354634821414947509765625">
        <ele>1146.5999755859375</ele>
        <time>2022-04-17T11:36:39.000Z</time>
      </trkpt>
      <trkpt lat="42.9655087552964687347412109375" lon="-2.3653467558324337005615234375">
        <ele>1146.800048828125</ele>
        <time>2022-04-17T11:36:40.000Z</time>
      </trkpt>
      <trkpt lat="42.96550615690648555755615234375" lon="-2.3653393797576427459716796875">
        <ele>1147</ele>
        <time>2022-04-17T11:36:41.000Z</time>
      </trkpt>
      <trkpt lat="42.96549978666007518768310546875" lon="-2.36533108167350292205810546875">
        <ele>1147</ele>
        <time>2022-04-17T11:36:42.000Z</time>
      </trkpt>
      <trkpt lat="42.965494506061077117919921875" lon="-2.365319095551967620849609375">
        <ele>1147</ele>
        <time>2022-04-17T11:36:43.000Z</time>
      </trkpt>
      <trkpt lat="42.96549282968044281005859375" lon="-2.36531264148652553558349609375">
        <ele>1147.199951171875</ele>
        <time>2022-04-17T11:36:44.000Z</time>
      </trkpt>
      <trkpt lat="42.9654919914901256561279296875" lon="-2.36530744470655918121337890625">
        <ele>1147.199951171875</ele>
        <time>2022-04-17T11:36:45.000Z</time>
      </trkpt>
      <trkpt lat="42.96549190767109394073486328125" lon="-2.36530425958335399627685546875">
        <ele>1147.4000244140625</ele>
        <time>2022-04-17T11:36:46.000Z</time>
      </trkpt>
      <trkpt lat="42.96549123711884021759033203125" lon="-2.36529721878468990325927734375">
        <ele>1147.5999755859375</ele>
        <time>2022-04-17T11:36:47.000Z</time>
      </trkpt>
      <trkpt lat="42.96548302285373210906982421875" lon="-2.36529193818569183349609375">
        <ele>1147.5999755859375</ele>
        <time>2022-04-17T11:36:48.000Z</time>
      </trkpt>
      <trkpt lat="42.965482436120510101318359375" lon="-2.3652813769876956939697265625">
        <ele>1147.800048828125</ele>
        <time>2022-04-17T11:36:49.000Z</time>
      </trkpt>
      <trkpt lat="42.965481765568256378173828125" lon="-2.3652756772935390472412109375">
        <ele>1148</ele>
        <time>2022-04-17T11:36:50.000Z</time>
      </trkpt>
      <trkpt lat="42.965477742254734039306640625" lon="-2.36527173779904842376708984375">
        <ele>1148.199951171875</ele>
        <time>2022-04-17T11:36:51.000Z</time>
      </trkpt>
      <trkpt lat="42.965471036732196807861328125" lon="-2.365268804132938385009765625">
        <ele>1148.4000244140625</ele>
        <time>2022-04-17T11:36:52.000Z</time>
      </trkpt>
      <trkpt lat="42.9654681868851184844970703125" lon="-2.36526109278202056884765625">
        <ele>1148.4000244140625</ele>
        <time>2022-04-17T11:36:53.000Z</time>
      </trkpt>
      <trkpt lat="42.96546793542802333831787109375" lon="-2.36525162123143672943115234375">
        <ele>1148.5999755859375</ele>
        <time>2022-04-17T11:36:54.000Z</time>
      </trkpt>
      <trkpt lat="42.96546592377126216888427734375" lon="-2.3652448318898677825927734375">
        <ele>1148.5999755859375</ele>
        <time>2022-04-17T11:36:55.000Z</time>
      </trkpt>
      <trkpt lat="42.96546039171516895294189453125" lon="-2.3652376234531402587890625">
        <ele>1148.800048828125</ele>
        <time>2022-04-17T11:36:56.000Z</time>
      </trkpt>
      <trkpt lat="42.96545636840164661407470703125" lon="-2.365227229893207550048828125">
        <ele>1149</ele>
        <time>2022-04-17T11:36:57.000Z</time>
      </trkpt>
      <trkpt lat="42.96545217745006084442138671875" lon="-2.365217171609401702880859375">
        <ele>1149</ele>
        <time>2022-04-17T11:36:58.000Z</time>
      </trkpt>
      <trkpt lat="42.965450249612331390380859375" lon="-2.36521356739103794097900390625">
        <ele>1149.199951171875</ele>
        <time>2022-04-17T11:36:59.000Z</time>
      </trkpt>
      <trkpt lat="42.96544589102268218994140625" lon="-2.3652123101055622100830078125">
        <ele>1149.199951171875</ele>
        <time>2022-04-17T11:37:00.000Z</time>
      </trkpt>
      <trkpt lat="42.96544513665139675140380859375" lon="-2.3652059398591518402099609375">
        <ele>1149.4000244140625</ele>
        <time>2022-04-17T11:37:01.000Z</time>
      </trkpt>
      <trkpt lat="42.96544513665139675140380859375" lon="-2.36520518548786640167236328125">
        <ele>1149.4000244140625</ele>
        <time>2022-04-17T11:37:02.000Z</time>
      </trkpt>
      <trkpt lat="42.96544446609914302825927734375" lon="-2.36520987935364246368408203125">
        <ele>1149.5999755859375</ele>
        <time>2022-04-17T11:37:03.000Z</time>
      </trkpt>
      <trkpt lat="42.9654443822801113128662109375" lon="-2.36521490849554538726806640625">
        <ele>1149.5999755859375</ele>
        <time>2022-04-17T11:37:04.000Z</time>
      </trkpt>
      <trkpt lat="42.96544278971850872039794921875" lon="-2.36521289683878421783447265625">
        <ele>1149.5999755859375</ele>
        <time>2022-04-17T11:37:05.000Z</time>
      </trkpt>
      <trkpt lat="42.9654423706233501434326171875" lon="-2.3652054369449615478515625">
        <ele>1149.5999755859375</ele>
        <time>2022-04-17T11:37:06.000Z</time>
      </trkpt>
      <trkpt lat="42.9654396884143352508544921875" lon="-2.36519076861441135406494140625">
        <ele>1149.5999755859375</ele>
        <time>2022-04-17T11:37:07.000Z</time>
      </trkpt>
      <trkpt lat="42.96544329263269901275634765625" lon="-2.36517534591257572174072265625">
        <ele>1149.800048828125</ele>
        <time>2022-04-17T11:37:08.000Z</time>
      </trkpt>
      <trkpt lat="42.965445220470428466796875" lon="-2.365166209638118743896484375">
        <ele>1150</ele>
        <time>2022-04-17T11:37:09.000Z</time>
      </trkpt>
      <trkpt lat="42.96544429846107959747314453125" lon="-2.36516746692359447479248046875">
        <ele>1150.199951171875</ele>
        <time>2022-04-17T11:37:10.000Z</time>
      </trkpt>
      <trkpt lat="42.96544128097593784332275390625" lon="-2.3651683889329433441162109375">
        <ele>1150.4000244140625</ele>
        <time>2022-04-17T11:37:11.000Z</time>
      </trkpt>
      <trkpt lat="42.96543776057660579681396484375" lon="-2.3651717416942119598388671875">
        <ele>1150.4000244140625</ele>
        <time>2022-04-17T11:37:12.000Z</time>
      </trkpt>
      <trkpt lat="42.96543373726308345794677734375" lon="-2.36517467536032199859619140625">
        <ele>1150.4000244140625</ele>
        <time>2022-04-17T11:37:13.000Z</time>
      </trkpt>
      <trkpt lat="42.9654358327388763427734375" lon="-2.36517257988452911376953125">
        <ele>1150.4000244140625</ele>
        <time>2022-04-17T11:37:14.000Z</time>
      </trkpt>
      <trkpt lat="42.965437509119510650634765625" lon="-2.36516696400940418243408203125">
        <ele>1150.5999755859375</ele>
        <time>2022-04-17T11:37:15.000Z</time>
      </trkpt>
      <trkpt lat="42.9654400236904621124267578125" lon="-2.36516176722943782806396484375">
        <ele>1150.5999755859375</ele>
        <time>2022-04-17T11:37:16.000Z</time>
      </trkpt>
      <trkpt lat="42.9654386825859546661376953125" lon="-2.36515858210623264312744140625">
        <ele>1150.5999755859375</ele>
        <time>2022-04-17T11:37:17.000Z</time>
      </trkpt>
      <trkpt lat="42.9654373414814472198486328125" lon="-2.36515087075531482696533203125">
        <ele>1150.5999755859375</ele>
        <time>2022-04-17T11:37:18.000Z</time>
      </trkpt>
      <trkpt lat="42.9654343239963054656982421875" lon="-2.36514483578503131866455078125">
        <ele>1150.800048828125</ele>
        <time>2022-04-17T11:37:19.000Z</time>
      </trkpt>
      <trkpt lat="42.96543155796825885772705078125" lon="-2.36513511277735233306884765625">
        <ele>1151</ele>
        <time>2022-04-17T11:37:20.000Z</time>
      </trkpt>
      <trkpt lat="42.96542652882635593414306640625" lon="-2.365126311779022216796875">
        <ele>1151.199951171875</ele>
        <time>2022-04-17T11:37:21.000Z</time>
      </trkpt>
      <trkpt lat="42.965422086417675018310546875" lon="-2.3651204444468021392822265625">
        <ele>1151.4000244140625</ele>
        <time>2022-04-17T11:37:22.000Z</time>
      </trkpt>
      <trkpt lat="42.96542367897927761077880859375" lon="-2.3651154153048992156982421875">
        <ele>1151.4000244140625</ele>
        <time>2022-04-17T11:37:23.000Z</time>
      </trkpt>
      <trkpt lat="42.96542443335056304931640625" lon="-2.365114577114582061767578125">
        <ele>1151.5999755859375</ele>
        <time>2022-04-17T11:37:24.000Z</time>
      </trkpt>
      <trkpt lat="42.96542711555957794189453125" lon="-2.36511759459972381591796875">
        <ele>1151.800048828125</ele>
        <time>2022-04-17T11:37:25.000Z</time>
      </trkpt>
      <trkpt lat="42.9654331505298614501953125" lon="-2.3651087097823619842529296875">
        <ele>1152</ele>
        <time>2022-04-17T11:37:26.000Z</time>
      </trkpt>
      <trkpt lat="42.96543004922568798065185546875" lon="-2.36510963179171085357666015625">
        <ele>1152</ele>
        <time>2022-04-17T11:37:27.000Z</time>
      </trkpt>
      <trkpt lat="42.9654286243021488189697265625" lon="-2.36509840004146099090576171875">
        <ele>1152.199951171875</ele>
        <time>2022-04-17T11:37:28.000Z</time>
      </trkpt>
      <trkpt lat="42.96542971394956111907958984375" lon="-2.3650901019573211669921875">
        <ele>1152.4000244140625</ele>
        <time>2022-04-17T11:37:29.000Z</time>
      </trkpt>
      <trkpt lat="42.96542845666408538818359375" lon="-2.36508716829121112823486328125">
        <ele>1152.5999755859375</ele>
        <time>2022-04-17T11:37:30.000Z</time>
      </trkpt>
      <trkpt lat="42.96542300842702388763427734375" lon="-2.3650899343192577362060546875">
        <ele>1152.800048828125</ele>
        <time>2022-04-17T11:37:31.000Z</time>
      </trkpt>
      <trkpt lat="42.96542116440832614898681640625" lon="-2.36508943140506744384765625">
        <ele>1152.800048828125</ele>
        <time>2022-04-17T11:37:32.000Z</time>
      </trkpt>
      <trkpt lat="42.96542175114154815673828125" lon="-2.36509286798536777496337890625">
        <ele>1152.800048828125</ele>
        <time>2022-04-17T11:37:33.000Z</time>
      </trkpt>
      <trkpt lat="42.965421415865421295166015625" lon="-2.3650996573269367218017578125">
        <ele>1152.800048828125</ele>
        <time>2022-04-17T11:37:34.000Z</time>
      </trkpt>
      <trkpt lat="42.965422086417675018310546875" lon="-2.36510141752660274505615234375">
        <ele>1153</ele>
        <time>2022-04-17T11:37:35.000Z</time>
      </trkpt>
      <trkpt lat="42.965422086417675018310546875" lon="-2.36510141752660274505615234375">
        <ele>1153</ele>
        <time>2022-04-17T11:37:36.000Z</time>
      </trkpt>
      <trkpt lat="42.965422086417675018310546875" lon="-2.36510141752660274505615234375">
        <ele>1153.199951171875</ele>
        <time>2022-04-17T11:37:37.000Z</time>
      </trkpt>
      <trkpt lat="42.965422086417675018310546875" lon="-2.36510141752660274505615234375">
        <ele>1153.199951171875</ele>
        <time>2022-04-17T11:37:38.000Z</time>
      </trkpt>
      <trkpt lat="42.965422086417675018310546875" lon="-2.36510141752660274505615234375">
        <ele>1153.4000244140625</ele>
        <time>2022-04-17T11:37:39.000Z</time>
      </trkpt>
      <trkpt lat="42.965422086417675018310546875" lon="-2.36510141752660274505615234375">
        <ele>1153.4000244140625</ele>
        <time>2022-04-17T11:37:40.000Z</time>
      </trkpt>
      <trkpt lat="42.965422086417675018310546875" lon="-2.36510141752660274505615234375">
        <ele>1153.800048828125</ele>
        <time>2022-04-17T11:37:41.000Z</time>
      </trkpt>
      <trkpt lat="42.965422086417675018310546875" lon="-2.36510141752660274505615234375">
        <ele>1154</ele>
        <time>2022-04-17T11:37:42.000Z</time>
      </trkpt>
      <trkpt lat="42.965422086417675018310546875" lon="-2.36510141752660274505615234375">
        <ele>1154.199951171875</ele>
        <time>2022-04-17T11:37:43.000Z</time>
      </trkpt>
      <trkpt lat="42.965422086417675018310546875" lon="-2.3651008307933807373046875">
        <ele>1154.199951171875</ele>
        <time>2022-04-17T11:37:44.000Z</time>
      </trkpt>
      <trkpt lat="42.965422086417675018310546875" lon="-2.36509974114596843719482421875">
        <ele>1154.4000244140625</ele>
        <time>2022-04-17T11:37:45.000Z</time>
      </trkpt>
      <trkpt lat="42.96542300842702388763427734375" lon="-2.365098483860492706298828125">
        <ele>1154.5999755859375</ele>
        <time>2022-04-17T11:37:46.000Z</time>
      </trkpt>
      <trkpt lat="42.96542468480765819549560546875" lon="-2.36509504728019237518310546875">
        <ele>1154.800048828125</ele>
        <time>2022-04-17T11:37:47.000Z</time>
      </trkpt>
      <trkpt lat="42.96542552299797534942626953125" lon="-2.3650929518043994903564453125">
        <ele>1155</ele>
        <time>2022-04-17T11:37:48.000Z</time>
      </trkpt>
      <trkpt lat="42.9654256068170070648193359375" lon="-2.3650902695953845977783203125">
        <ele>1155.199951171875</ele>
        <time>2022-04-17T11:37:49.000Z</time>
      </trkpt>
      <trkpt lat="42.9654256068170070648193359375" lon="-2.36509001813828945159912109375">
        <ele>1155.4000244140625</ele>
        <time>2022-04-17T11:37:50.000Z</time>
      </trkpt>
      <trkpt lat="42.9654256068170070648193359375" lon="-2.36508943140506744384765625">
        <ele>1155.4000244140625</ele>
        <time>2022-04-17T11:37:51.000Z</time>
      </trkpt>
      <trkpt lat="42.9654256068170070648193359375" lon="-2.36508733592927455902099609375">
        <ele>1155.5999755859375</ele>
        <time>2022-04-17T11:37:52.000Z</time>
      </trkpt>
      <trkpt lat="42.9654256068170070648193359375" lon="-2.36508633010089397430419921875">
        <ele>1155.5999755859375</ele>
        <time>2022-04-17T11:37:53.000Z</time>
      </trkpt>
      <trkpt lat="42.9654256068170070648193359375" lon="-2.36507467925548553466796875">
        <ele>1155.800048828125</ele>
        <time>2022-04-17T11:37:54.000Z</time>
      </trkpt>
      <trkpt lat="42.9654256068170070648193359375" lon="-2.365068309009075164794921875">
        <ele>1156</ele>
        <time>2022-04-17T11:37:55.000Z</time>
      </trkpt>
      <trkpt lat="42.9654256068170070648193359375" lon="-2.3650597594678401947021484375">
        <ele>1156.199951171875</ele>
        <time>2022-04-17T11:37:56.000Z</time>
      </trkpt>
      <trkpt lat="42.96542485244572162628173828125" lon="-2.36505565233528614044189453125">
        <ele>1156.4000244140625</ele>
        <time>2022-04-17T11:37:57.000Z</time>
      </trkpt>
      <trkpt lat="42.9654232598841190338134765625" lon="-2.3650513775646686553955078125">
        <ele>1156.5999755859375</ele>
        <time>2022-04-17T11:37:58.000Z</time>
      </trkpt>
      <trkpt lat="42.9654222540557384490966796875" lon="-2.36504844389855861663818359375">
        <ele>1156.800048828125</ele>
        <time>2022-04-17T11:37:59.000Z</time>
      </trkpt>
      <trkpt lat="42.96542183496057987213134765625" lon="-2.3650416545569896697998046875">
        <ele>1156.800048828125</ele>
        <time>2022-04-17T11:38:00.000Z</time>
      </trkpt>
      <trkpt lat="42.965421415865421295166015625" lon="-2.36503444612026214599609375">
        <ele>1156.800048828125</ele>
        <time>2022-04-17T11:38:01.000Z</time>
      </trkpt>
      <trkpt lat="42.965421415865421295166015625" lon="-2.3650255613029003143310546875">
        <ele>1157</ele>
        <time>2022-04-17T11:38:02.000Z</time>
      </trkpt>
      <trkpt lat="42.96541898511350154876708984375" lon="-2.36502229236066341400146484375">
        <ele>1157</ele>
        <time>2022-04-17T11:38:03.000Z</time>
      </trkpt>
      <trkpt lat="42.96541244722902774810791015625" lon="-2.36501860432326793670654296875">
        <ele>1157.199951171875</ele>
        <time>2022-04-17T11:38:04.000Z</time>
      </trkpt>
      <trkpt lat="42.96540155075490474700927734375" lon="-2.3650096356868743896484375">
        <ele>1157.199951171875</ele>
        <time>2022-04-17T11:38:05.000Z</time>
      </trkpt>
      <trkpt lat="42.96538545750081539154052734375" lon="-2.36499697901308536529541015625">
        <ele>1157.4000244140625</ele>
        <time>2022-04-17T11:38:06.000Z</time>
      </trkpt>
      <trkpt lat="42.96536869369447231292724609375" lon="-2.36498675309121608734130859375">
        <ele>1157.5999755859375</ele>
        <time>2022-04-17T11:38:07.000Z</time>
      </trkpt>
      <trkpt lat="42.9653518460690975189208984375" lon="-2.364977784454822540283203125">
        <ele>1157.5999755859375</ele>
        <time>2022-04-17T11:38:08.000Z</time>
      </trkpt>
      <trkpt lat="42.96533633954823017120361328125" lon="-2.36496361903846263885498046875">
        <ele>1157.800048828125</ele>
        <time>2022-04-17T11:38:09.000Z</time>
      </trkpt>
      <trkpt lat="42.96532577835023403167724609375" lon="-2.36494065262377262115478515625">
        <ele>1158</ele>
        <time>2022-04-17T11:38:10.000Z</time>
      </trkpt>
      <trkpt lat="42.96531437896192073822021484375" lon="-2.36491885967552661895751953125">
        <ele>1158</ele>
        <time>2022-04-17T11:38:11.000Z</time>
      </trkpt>
      <trkpt lat="42.96529811806976795196533203125" lon="-2.36490259878337383270263671875">
        <ele>1158</ele>
        <time>2022-04-17T11:38:12.000Z</time>
      </trkpt>
      <trkpt lat="42.96527783386409282684326171875" lon="-2.36488667316734790802001953125">
        <ele>1158.199951171875</ele>
        <time>2022-04-17T11:38:13.000Z</time>
      </trkpt>
      <trkpt lat="42.96525738202035427093505859375" lon="-2.36487619578838348388671875">
        <ele>1158.4000244140625</ele>
        <time>2022-04-17T11:38:14.000Z</time>
      </trkpt>
      <trkpt lat="42.96524941921234130859375" lon="-2.3648723401129245758056640625">
        <ele>1158.4000244140625</ele>
        <time>2022-04-17T11:38:15.000Z</time>
      </trkpt>
      <trkpt lat="42.96524480916559696197509765625" lon="-2.3648706637322902679443359375">
        <ele>1158.5999755859375</ele>
        <time>2022-04-17T11:38:16.000Z</time>
      </trkpt>
      <trkpt lat="42.96523290686309337615966796875" lon="-2.364875860512256622314453125">
        <ele>1158.5999755859375</ele>
        <time>2022-04-17T11:38:17.000Z</time>
      </trkpt>
      <trkpt lat="42.96521999873220920562744140625" lon="-2.3648716695606708526611328125">
        <ele>1158.5999755859375</ele>
        <time>2022-04-17T11:38:18.000Z</time>
      </trkpt>
      <trkpt lat="42.9652110300958156585693359375" lon="-2.36486119218170642852783203125">
        <ele>1158.800048828125</ele>
        <time>2022-04-17T11:38:19.000Z</time>
      </trkpt>
      <trkpt lat="42.9652033187448978424072265625" lon="-2.36484711058437824249267578125">
        <ele>1159</ele>
        <time>2022-04-17T11:38:20.000Z</time>
      </trkpt>
      <trkpt lat="42.9651992954313755035400390625" lon="-2.364836633205413818359375">
        <ele>1159</ele>
        <time>2022-04-17T11:38:21.000Z</time>
      </trkpt>
      <trkpt lat="42.96519300900399684906005859375" lon="-2.3648272454738616943359375">
        <ele>1159.199951171875</ele>
        <time>2022-04-17T11:38:22.000Z</time>
      </trkpt>
      <trkpt lat="42.96518747694790363311767578125" lon="-2.36481509171426296234130859375">
        <ele>1159.199951171875</ele>
        <time>2022-04-17T11:38:23.000Z</time>
      </trkpt>
      <trkpt lat="42.96517943032085895538330078125" lon="-2.364804111421108245849609375">
        <ele>1159.199951171875</ele>
        <time>2022-04-17T11:38:24.000Z</time>
      </trkpt>
      <trkpt lat="42.9651764966547489166259765625" lon="-2.36479413695633411407470703125">
        <ele>1159.199951171875</ele>
        <time>2022-04-17T11:38:25.000Z</time>
      </trkpt>
      <trkpt lat="42.9651758261024951934814453125" lon="-2.36478525213897228240966796875">
        <ele>1159.199951171875</ele>
        <time>2022-04-17T11:38:26.000Z</time>
      </trkpt>
      <trkpt lat="42.96517155133187770843505859375" lon="-2.3647749423980712890625">
        <ele>1159.4000244140625</ele>
        <time>2022-04-17T11:38:27.000Z</time>
      </trkpt>
      <trkpt lat="42.96516434289515018463134765625" lon="-2.36477100290358066558837890625">
        <ele>1159.4000244140625</ele>
        <time>2022-04-17T11:38:28.000Z</time>
      </trkpt>
      <trkpt lat="42.965158559381961822509765625" lon="-2.3647633753716945648193359375">
        <ele>1159.5999755859375</ele>
        <time>2022-04-17T11:38:29.000Z</time>
      </trkpt>
      <trkpt lat="42.96515378169715404510498046875" lon="-2.3647533170878887176513671875">
        <ele>1159.5999755859375</ele>
        <time>2022-04-17T11:38:30.000Z</time>
      </trkpt>
      <trkpt lat="42.96514875255525112152099609375" lon="-2.36473739147186279296875">
        <ele>1159.800048828125</ele>
        <time>2022-04-17T11:38:31.000Z</time>
      </trkpt>
      <trkpt lat="42.9651461541652679443359375" lon="-2.364725656807422637939453125">
        <ele>1159.800048828125</ele>
        <time>2022-04-17T11:38:32.000Z</time>
      </trkpt>
      <trkpt lat="42.9651419632136821746826171875" lon="-2.36471333540976047515869140625">
        <ele>1159.800048828125</ele>
        <time>2022-04-17T11:38:33.000Z</time>
      </trkpt>
      <trkpt lat="42.9651329107582569122314453125" lon="-2.364702858030796051025390625">
        <ele>1160</ele>
        <time>2022-04-17T11:38:34.000Z</time>
      </trkpt>
      <trkpt lat="42.965123355388641357421875" lon="-2.36469137482345104217529296875">
        <ele>1160</ele>
        <time>2022-04-17T11:38:35.000Z</time>
      </trkpt>
      <trkpt lat="42.9651148058474063873291015625" lon="-2.36467964015901088714599609375">
        <ele>1160.199951171875</ele>
        <time>2022-04-17T11:38:36.000Z</time>
      </trkpt>
      <trkpt lat="42.96510650776326656341552734375" lon="-2.3646701686084270477294921875">
        <ele>1160.4000244140625</ele>
        <time>2022-04-17T11:38:37.000Z</time>
      </trkpt>
      <trkpt lat="42.9650977067649364471435546875" lon="-2.364658601582050323486328125">
        <ele>1160.5999755859375</ele>
        <time>2022-04-17T11:38:38.000Z</time>
      </trkpt>
      <trkpt lat="42.96508873812854290008544921875" lon="-2.3646463640034198760986328125">
        <ele>1160.800048828125</ele>
        <time>2022-04-17T11:38:39.000Z</time>
      </trkpt>
      <trkpt lat="42.9650816135108470916748046875" lon="-2.36463387496769428253173828125">
        <ele>1161</ele>
        <time>2022-04-17T11:38:40.000Z</time>
      </trkpt>
      <trkpt lat="42.9650737345218658447265625" lon="-2.36462700180709362030029296875">
        <ele>1161.199951171875</ele>
        <time>2022-04-17T11:38:41.000Z</time>
      </trkpt>
      <trkpt lat="42.96506124548614025115966796875" lon="-2.3646242357790470123291015625">
        <ele>1161.4000244140625</ele>
        <time>2022-04-17T11:38:42.000Z</time>
      </trkpt>
      <trkpt lat="42.96504816971719264984130859375" lon="-2.364622056484222412109375">
        <ele>1161.4000244140625</ele>
        <time>2022-04-17T11:38:43.000Z</time>
      </trkpt>
      <trkpt lat="42.96503593213856220245361328125" lon="-2.36461392603814601898193359375">
        <ele>1161.5999755859375</ele>
        <time>2022-04-17T11:38:44.000Z</time>
      </trkpt>
      <trkpt lat="42.965028472244739532470703125" lon="-2.36460135318338871002197265625">
        <ele>1162.199951171875</ele>
        <time>2022-04-17T11:38:45.000Z</time>
      </trkpt>
      <trkpt lat="42.96501950360834598541259765625" lon="-2.364592887461185455322265625">
        <ele>1162.4000244140625</ele>
        <time>2022-04-17T11:38:46.000Z</time>
      </trkpt>
      <trkpt lat="42.965007685124874114990234375" lon="-2.36458760686218738555908203125">
        <ele>1162.800048828125</ele>
        <time>2022-04-17T11:38:47.000Z</time>
      </trkpt>
      <trkpt lat="42.9649944417178630828857421875" lon="-2.36458408646285533905029296875">
        <ele>1163</ele>
        <time>2022-04-17T11:38:48.000Z</time>
      </trkpt>
      <trkpt lat="42.9649803601205348968505859375" lon="-2.36458023078739643096923828125">
        <ele>1163.199951171875</ele>
        <time>2022-04-17T11:38:49.000Z</time>
      </trkpt>
      <trkpt lat="42.9649692960083484649658203125" lon="-2.364577464759349822998046875">
        <ele>1163.199951171875</ele>
        <time>2022-04-17T11:38:50.000Z</time>
      </trkpt>
      <trkpt lat="42.96496041119098663330078125" lon="-2.36457017250359058380126953125">
        <ele>1163.4000244140625</ele>
        <time>2022-04-17T11:38:51.000Z</time>
      </trkpt>
      <trkpt lat="42.9649501852691173553466796875" lon="-2.36456505954265594482421875">
        <ele>1163.4000244140625</ele>
        <time>2022-04-17T11:38:52.000Z</time>
      </trkpt>
      <trkpt lat="42.9649387858808040618896484375" lon="-2.364557348191738128662109375">
        <ele>1163.4000244140625</ele>
        <time>2022-04-17T11:38:53.000Z</time>
      </trkpt>
      <trkpt lat="42.96493719331920146942138671875" lon="-2.36453496851027011871337890625">
        <ele>1163.199951171875</ele>
        <time>2022-04-17T11:38:54.000Z</time>
      </trkpt>
      <trkpt lat="42.9649324156343936920166015625" lon="-2.3645219765603542327880859375">
        <ele>1163.199951171875</ele>
        <time>2022-04-17T11:38:55.000Z</time>
      </trkpt>
      <trkpt lat="42.9649293981492519378662109375" lon="-2.36451401375234127044677734375">
        <ele>1163.199951171875</ele>
        <time>2022-04-17T11:38:56.000Z</time>
      </trkpt>
      <trkpt lat="42.964920513331890106201171875" lon="-2.3645089007914066314697265625">
        <ele>1163.199951171875</ele>
        <time>2022-04-17T11:38:57.000Z</time>
      </trkpt>
      <trkpt lat="42.96490919776260852813720703125" lon="-2.36450512893497943878173828125">
        <ele>1163</ele>
        <time>2022-04-17T11:38:58.000Z</time>
      </trkpt>
      <trkpt lat="42.96491255052387714385986328125" lon="-2.36450797878205776214599609375">
        <ele>1163</ele>
        <time>2022-04-17T11:38:59.000Z</time>
      </trkpt>
      <trkpt lat="42.96491825021803379058837890625" lon="-2.36450697295367717742919921875">
        <ele>1163.199951171875</ele>
        <time>2022-04-17T11:39:00.000Z</time>
      </trkpt>
      <trkpt lat="42.9649206809699535369873046875" lon="-2.364504374563694000244140625">
        <ele>1163.4000244140625</ele>
        <time>2022-04-17T11:39:01.000Z</time>
      </trkpt>
      <trkpt lat="42.96492059715092182159423828125" lon="-2.3645021952688694000244140625">
        <ele>1163.4000244140625</ele>
        <time>2022-04-17T11:39:02.000Z</time>
      </trkpt>
      <trkpt lat="42.964922524988651275634765625" lon="-2.364504039287567138671875">
        <ele>1163.5999755859375</ele>
        <time>2022-04-17T11:39:03.000Z</time>
      </trkpt>
      <trkpt lat="42.9649270512163639068603515625" lon="-2.36450227908790111541748046875">
        <ele>1163.800048828125</ele>
        <time>2022-04-17T11:39:04.000Z</time>
      </trkpt>
      <trkpt lat="42.9649304039776325225830078125" lon="-2.3645045422017574310302734375">
        <ele>1163.800048828125</ele>
        <time>2022-04-17T11:39:05.000Z</time>
      </trkpt>
      <trkpt lat="42.96492981724441051483154296875" lon="-2.3645092360675334930419921875">
        <ele>1164</ele>
        <time>2022-04-17T11:39:06.000Z</time>
      </trkpt>
      <trkpt lat="42.96492646448314189910888671875" lon="-2.36451141536235809326171875">
        <ele>1163.800048828125</ele>
        <time>2022-04-17T11:39:07.000Z</time>
      </trkpt>
      <trkpt lat="42.96492931433022022247314453125" lon="-2.36451216973364353179931640625">
        <ele>1163.800048828125</ele>
        <time>2022-04-17T11:39:08.000Z</time>
      </trkpt>
      <trkpt lat="42.96493451111018657684326171875" lon="-2.36451141536235809326171875">
        <ele>1163.800048828125</ele>
        <time>2022-04-17T11:39:09.000Z</time>
      </trkpt>
      <trkpt lat="42.96493954025208950042724609375" lon="-2.36451233737170696258544921875">
        <ele>1163.800048828125</ele>
        <time>2022-04-17T11:39:10.000Z</time>
      </trkpt>
      <trkpt lat="42.9649458266794681549072265625" lon="-2.364511750638484954833984375">
        <ele>1164</ele>
        <time>2022-04-17T11:39:11.000Z</time>
      </trkpt>
      <trkpt lat="42.964959405362606048583984375" lon="-2.36451166681945323944091796875">
        <ele>1164</ele>
        <time>2022-04-17T11:39:12.000Z</time>
      </trkpt>
      <trkpt lat="42.96495647169649600982666015625" lon="-2.36452122218906879425048828125">
        <ele>1164</ele>
        <time>2022-04-17T11:39:13.000Z</time>
      </trkpt>
      <trkpt lat="42.96495647169649600982666015625" lon="-2.36452122218906879425048828125">
        <ele>1164</ele>
        <time>2022-04-17T11:39:14.000Z</time>
      </trkpt>
      <trkpt lat="42.96495647169649600982666015625" lon="-2.36452122218906879425048828125">
        <ele>1164</ele>
        <time>2022-04-17T11:39:15.000Z</time>
      </trkpt>
      <trkpt lat="42.96495647169649600982666015625" lon="-2.36452122218906879425048828125">
        <ele>1163.800048828125</ele>
        <time>2022-04-17T11:39:16.000Z</time>
      </trkpt>
      <trkpt lat="42.96495647169649600982666015625" lon="-2.36452122218906879425048828125">
        <ele>1163.800048828125</ele>
        <time>2022-04-17T11:39:17.000Z</time>
      </trkpt>
      <trkpt lat="42.96495647169649600982666015625" lon="-2.36452122218906879425048828125">
        <ele>1163.5999755859375</ele>
        <time>2022-04-17T11:39:18.000Z</time>
      </trkpt>
      <trkpt lat="42.96495647169649600982666015625" lon="-2.36452122218906879425048828125">
        <ele>1163.5999755859375</ele>
        <time>2022-04-17T11:39:19.000Z</time>
      </trkpt>
      <trkpt lat="42.96495647169649600982666015625" lon="-2.36452122218906879425048828125">
        <ele>1163.5999755859375</ele>
        <time>2022-04-17T11:39:20.000Z</time>
      </trkpt>
      <trkpt lat="42.96495647169649600982666015625" lon="-2.36452122218906879425048828125">
        <ele>1163.800048828125</ele>
        <time>2022-04-17T11:39:21.000Z</time>
      </trkpt>
      <trkpt lat="42.96495647169649600982666015625" lon="-2.36452122218906879425048828125">
        <ele>1163.800048828125</ele>
        <time>2022-04-17T11:39:22.000Z</time>
      </trkpt>
      <trkpt lat="42.96495647169649600982666015625" lon="-2.36452122218906879425048828125">
        <ele>1163.800048828125</ele>
        <time>2022-04-17T11:39:23.000Z</time>
      </trkpt>
      <trkpt lat="42.96495647169649600982666015625" lon="-2.36451971344649791717529296875">
        <ele>1163.800048828125</ele>
        <time>2022-04-17T11:39:24.000Z</time>
      </trkpt>
      <trkpt lat="42.96495647169649600982666015625" lon="-2.36451552249491214752197265625">
        <ele>1164</ele>
        <time>2022-04-17T11:39:25.000Z</time>
      </trkpt>
      <trkpt lat="42.96495647169649600982666015625" lon="-2.36451250500977039337158203125">
        <ele>1164.199951171875</ele>
        <time>2022-04-17T11:39:26.000Z</time>
      </trkpt>
      <trkpt lat="42.96495647169649600982666015625" lon="-2.3645122535526752471923828125">
        <ele>1164.4000244140625</ele>
        <time>2022-04-17T11:39:27.000Z</time>
      </trkpt>
      <trkpt lat="42.9649508558213710784912109375" lon="-2.3645053803920745849609375">
        <ele>1164.4000244140625</ele>
        <time>2022-04-17T11:39:28.000Z</time>
      </trkpt>
      <trkpt lat="42.96493886969983577728271484375" lon="-2.364488951861858367919921875">
        <ele>1164.800048828125</ele>
        <time>2022-04-17T11:39:29.000Z</time>
      </trkpt>
      <trkpt lat="42.96492830850183963775634765625" lon="-2.36447520554065704345703125">
        <ele>1165</ele>
        <time>2022-04-17T11:39:30.000Z</time>
      </trkpt>
      <trkpt lat="42.96491540037095546722412109375" lon="-2.36446372233331203460693359375">
        <ele>1165.199951171875</ele>
        <time>2022-04-17T11:39:31.000Z</time>
      </trkpt>
      <trkpt lat="42.96490265987813472747802734375" lon="-2.36445282585918903350830078125">
        <ele>1165.4000244140625</ele>
        <time>2022-04-17T11:39:32.000Z</time>
      </trkpt>
      <trkpt lat="42.96488673426210880279541015625" lon="-2.36444125883281230926513671875">
        <ele>1165.4000244140625</ele>
        <time>2022-04-17T11:39:33.000Z</time>
      </trkpt>
      <trkpt lat="42.96487323939800262451171875" lon="-2.3644307814538478851318359375">
        <ele>1165.5999755859375</ele>
        <time>2022-04-17T11:39:34.000Z</time>
      </trkpt>
      <trkpt lat="42.9648610018193721771240234375" lon="-2.36442130990326404571533203125">
        <ele>1165.800048828125</ele>
        <time>2022-04-17T11:39:35.000Z</time>
      </trkpt>
      <trkpt lat="42.96484784223139286041259765625" lon="-2.36440923996269702911376953125">
        <ele>1166</ele>
        <time>2022-04-17T11:39:36.000Z</time>
      </trkpt>
      <trkpt lat="42.96483912505209445953369140625" lon="-2.36439247615635395050048828125">
        <ele>1166.199951171875</ele>
        <time>2022-04-17T11:39:37.000Z</time>
      </trkpt>
      <trkpt lat="42.9648345150053501129150390625" lon="-2.36438694410026073455810546875">
        <ele>1166.199951171875</ele>
        <time>2022-04-17T11:39:38.000Z</time>
      </trkpt>
      <trkpt lat="42.96482571400701999664306640625" lon="-2.36438442952930927276611328125">
        <ele>1166.4000244140625</ele>
        <time>2022-04-17T11:39:39.000Z</time>
      </trkpt>
      <trkpt lat="42.96481632627546787261962890625" lon="-2.36438401043415069580078125">
        <ele>1166.5999755859375</ele>
        <time>2022-04-17T11:39:40.000Z</time>
      </trkpt>
      <trkpt lat="42.96480953693389892578125" lon="-2.3643848486244678497314453125">
        <ele>1166.5999755859375</ele>
        <time>2022-04-17T11:39:41.000Z</time>
      </trkpt>
      <trkpt lat="42.96479973010718822479248046875" lon="-2.364395074546337127685546875">
        <ele>1166.5999755859375</ele>
        <time>2022-04-17T11:39:42.000Z</time>
      </trkpt>
      <trkpt lat="42.96478682197630405426025390625" lon="-2.36440018750727176666259765625">
        <ele>1166.800048828125</ele>
        <time>2022-04-17T11:39:43.000Z</time>
      </trkpt>
      <trkpt lat="42.96477936208248138427734375" lon="-2.3643980920314788818359375">
        <ele>1166.800048828125</ele>
        <time>2022-04-17T11:39:44.000Z</time>
      </trkpt>
      <trkpt lat="42.96477265655994415283203125" lon="-2.3643908835947513580322265625">
        <ele>1166.5999755859375</ele>
        <time>2022-04-17T11:39:45.000Z</time>
      </trkpt>
      <trkpt lat="42.9647631011903285980224609375" lon="-2.36438627354800701141357421875">
        <ele>1166.4000244140625</ele>
        <time>2022-04-17T11:39:46.000Z</time>
      </trkpt>
      <trkpt lat="42.96475589275360107421875" lon="-2.36438308842480182647705078125">
        <ele>1166.4000244140625</ele>
        <time>2022-04-17T11:39:47.000Z</time>
      </trkpt>
      <trkpt lat="42.96474625356495380401611328125" lon="-2.36438208259642124176025390625">
        <ele>1166.199951171875</ele>
        <time>2022-04-17T11:39:48.000Z</time>
      </trkpt>
      <trkpt lat="42.9647382907569408416748046875" lon="-2.3643818311393260955810546875">
        <ele>1166.199951171875</ele>
        <time>2022-04-17T11:39:49.000Z</time>
      </trkpt>
      <trkpt lat="42.96473049558699131011962890625" lon="-2.3643788136541843414306640625">
        <ele>1166.199951171875</ele>
        <time>2022-04-17T11:39:50.000Z</time>
      </trkpt>
      <trkpt lat="42.96472211368381977081298828125" lon="-2.36437864601612091064453125">
        <ele>1166.199951171875</ele>
        <time>2022-04-17T11:39:51.000Z</time>
      </trkpt>
      <trkpt lat="42.96471222303807735443115234375" lon="-2.36437386833131313323974609375">
        <ele>1166.199951171875</ele>
        <time>2022-04-17T11:39:52.000Z</time>
      </trkpt>
      <trkpt lat="42.9647097922861576080322265625" lon="-2.36436733044683933258056640625">
        <ele>1166.199951171875</ele>
        <time>2022-04-17T11:39:53.000Z</time>
      </trkpt>
      <trkpt lat="42.9647062718868255615234375" lon="-2.36436833627521991729736328125">
        <ele>1166</ele>
        <time>2022-04-17T11:39:54.000Z</time>
      </trkpt>
      <trkpt lat="42.9646987281739711761474609375" lon="-2.36436657607555389404296875">
        <ele>1166</ele>
        <time>2022-04-17T11:39:55.000Z</time>
      </trkpt>
      <trkpt lat="42.96469110064208507537841796875" lon="-2.36436381004750728607177734375">
        <ele>1166</ele>
        <time>2022-04-17T11:39:56.000Z</time>
      </trkpt>
      <trkpt lat="42.96468607150018215179443359375" lon="-2.36436121165752410888671875">
        <ele>1166</ele>
        <time>2022-04-17T11:39:57.000Z</time>
      </trkpt>
      <trkpt lat="42.9646809585392475128173828125" lon="-2.36435987055301666259765625">
        <ele>1166</ele>
        <time>2022-04-17T11:39:58.000Z</time>
      </trkpt>
      <trkpt lat="42.9646732471883296966552734375" lon="-2.364355511963367462158203125">
        <ele>1166</ele>
        <time>2022-04-17T11:39:59.000Z</time>
      </trkpt>
      <trkpt lat="42.964662350714206695556640625" lon="-2.3643540032207965850830078125">
        <ele>1166</ele>
        <time>2022-04-17T11:40:00.000Z</time>
      </trkpt>
      <trkpt lat="42.9646494425833225250244140625" lon="-2.36434855498373508453369140625">
        <ele>1166</ele>
        <time>2022-04-17T11:40:01.000Z</time>
      </trkpt>
      <trkpt lat="42.96463661827147006988525390625" lon="-2.36434453167021274566650390625">
        <ele>1166.199951171875</ele>
        <time>2022-04-17T11:40:02.000Z</time>
      </trkpt>
      <trkpt lat="42.96462454833090305328369140625" lon="-2.36433832906186580657958984375">
        <ele>1166.199951171875</ele>
        <time>2022-04-17T11:40:03.000Z</time>
      </trkpt>
      <trkpt lat="42.964616082608699798583984375" lon="-2.3643328808248043060302734375">
        <ele>1166.199951171875</ele>
        <time>2022-04-17T11:40:04.000Z</time>
      </trkpt>
      <trkpt lat="42.9646055214107036590576171875" lon="-2.3643271811306476593017578125">
        <ele>1166</ele>
        <time>2022-04-17T11:40:05.000Z</time>
      </trkpt>
      <trkpt lat="42.96459554694592952728271484375" lon="-2.36432122997939586639404296875">
        <ele>1166</ele>
        <time>2022-04-17T11:40:06.000Z</time>
      </trkpt>
      <trkpt lat="42.964584566652774810791015625" lon="-2.3643184639513492584228515625">
        <ele>1166</ele>
        <time>2022-04-17T11:40:07.000Z</time>
      </trkpt>
      <trkpt lat="42.964571826159954071044921875" lon="-2.36431234516203403472900390625">
        <ele>1165.800048828125</ele>
        <time>2022-04-17T11:40:08.000Z</time>
      </trkpt>
      <trkpt lat="42.9645622707903385162353515625" lon="-2.3643030412495136260986328125">
        <ele>1165.5999755859375</ele>
        <time>2022-04-17T11:40:09.000Z</time>
      </trkpt>
      <trkpt lat="42.96454760245978832244873046875" lon="-2.3642949946224689483642578125">
        <ele>1165.5999755859375</ele>
        <time>2022-04-17T11:40:10.000Z</time>
      </trkpt>
      <trkpt lat="42.96453268267214298248291015625" lon="-2.36429206095635890960693359375">
        <ele>1165.5999755859375</ele>
        <time>2022-04-17T11:40:11.000Z</time>
      </trkpt>
      <trkpt lat="42.96452111564576625823974609375" lon="-2.3642881214618682861328125">
        <ele>1165.4000244140625</ele>
        <time>2022-04-17T11:40:12.000Z</time>
      </trkpt>
      <trkpt lat="42.96450938098132610321044921875" lon="-2.36428602598607540130615234375">
        <ele>1165.4000244140625</ele>
        <time>2022-04-17T11:40:13.000Z</time>
      </trkpt>
      <trkpt lat="42.96450032852590084075927734375" lon="-2.3642862774431705474853515625">
        <ele>1165.4000244140625</ele>
        <time>2022-04-17T11:40:14.000Z</time>
      </trkpt>
      <trkpt lat="42.964493371546268463134765625" lon="-2.36428552307188510894775390625">
        <ele>1165.4000244140625</ele>
        <time>2022-04-17T11:40:15.000Z</time>
      </trkpt>
      <trkpt lat="42.96448457054793834686279296875" lon="-2.3642839305102825164794921875">
        <ele>1165.4000244140625</ele>
        <time>2022-04-17T11:40:16.000Z</time>
      </trkpt>
      <trkpt lat="42.96447870321571826934814453125" lon="-2.36428099684417247772216796875">
        <ele>1165.4000244140625</ele>
        <time>2022-04-17T11:40:17.000Z</time>
      </trkpt>
      <trkpt lat="42.96447099186480045318603515625" lon="-2.36427848227322101593017578125">
        <ele>1165.4000244140625</ele>
        <time>2022-04-17T11:40:18.000Z</time>
      </trkpt>
      <trkpt lat="42.964458502829074859619140625" lon="-2.36427546478807926177978515625">
        <ele>1165.4000244140625</ele>
        <time>2022-04-17T11:40:19.000Z</time>
      </trkpt>
      <trkpt lat="42.9644526354968547821044921875" lon="-2.36426741816103458404541015625">
        <ele>1165.4000244140625</ele>
        <time>2022-04-17T11:40:20.000Z</time>
      </trkpt>
      <trkpt lat="42.9644462652504444122314453125" lon="-2.36426557414233684539794921875">
        <ele>1165.4000244140625</ele>
        <time>2022-04-17T11:40:21.000Z</time>
      </trkpt>
      <trkpt lat="42.96444274485111236572265625" lon="-2.36426389776170253753662109375">
        <ele>1165.4000244140625</ele>
        <time>2022-04-17T11:40:22.000Z</time>
      </trkpt>
      <trkpt lat="42.964440397918224334716796875" lon="-2.36426238901913166046142578125">
        <ele>1165.4000244140625</ele>
        <time>2022-04-17T11:40:23.000Z</time>
      </trkpt>
      <trkpt lat="42.9644380509853363037109375" lon="-2.3642561025917530059814453125">
        <ele>1165.4000244140625</ele>
        <time>2022-04-17T11:40:24.000Z</time>
      </trkpt>
      <trkpt lat="42.96443612314760684967041015625" lon="-2.36424998380243778228759765625">
        <ele>1165.4000244140625</ele>
        <time>2022-04-17T11:40:25.000Z</time>
      </trkpt>
      <trkpt lat="42.96443897299468517303466796875" lon="-2.3642433620989322662353515625">
        <ele>1165.5999755859375</ele>
        <time>2022-04-17T11:40:26.000Z</time>
      </trkpt>
      <trkpt lat="42.9644328542053699493408203125" lon="-2.36424596048891544342041015625">
        <ele>1165.5999755859375</ele>
        <time>2022-04-17T11:40:27.000Z</time>
      </trkpt>
      <trkpt lat="42.96442262828350067138671875" lon="-2.36425953917205333709716796875">
        <ele>1165.5999755859375</ele>
        <time>2022-04-17T11:40:28.000Z</time>
      </trkpt>
      <trkpt lat="42.96441256999969482421875" lon="-2.364269681274890899658203125">
        <ele>1165.5999755859375</ele>
        <time>2022-04-17T11:40:29.000Z</time>
      </trkpt>
      <trkpt lat="42.96440385282039642333984375" lon="-2.36427680589258670806884765625">
        <ele>1165.5999755859375</ele>
        <time>2022-04-17T11:40:30.000Z</time>
      </trkpt>
      <trkpt lat="42.96439404599368572235107421875" lon="-2.36428133212029933929443359375">
        <ele>1165.4000244140625</ele>
        <time>2022-04-17T11:40:31.000Z</time>
      </trkpt>
      <trkpt lat="42.9643845744431018829345703125" lon="-2.36428745090961456298828125">
        <ele>1165.4000244140625</ele>
        <time>2022-04-17T11:40:32.000Z</time>
      </trkpt>
      <trkpt lat="42.96437694691121578216552734375" lon="-2.36429289914667606353759765625">
        <ele>1165.4000244140625</ele>
        <time>2022-04-17T11:40:33.000Z</time>
      </trkpt>
      <trkpt lat="42.96437091194093227386474609375" lon="-2.3642970062792301177978515625">
        <ele>1165.5999755859375</ele>
        <time>2022-04-17T11:40:34.000Z</time>
      </trkpt>
      <trkpt lat="42.9643647931516170501708984375" lon="-2.364300526678562164306640625">
        <ele>1165.800048828125</ele>
        <time>2022-04-17T11:40:35.000Z</time>
      </trkpt>
      <trkpt lat="42.964356243610382080078125" lon="-2.3643042147159576416015625">
        <ele>1166.199951171875</ele>
        <time>2022-04-17T11:40:36.000Z</time>
      </trkpt>
      <trkpt lat="42.96434794552624225616455078125" lon="-2.36430664546787738800048828125">
        <ele>1166.4000244140625</ele>
        <time>2022-04-17T11:40:37.000Z</time>
      </trkpt>
      <trkpt lat="42.964340485632419586181640625" lon="-2.36430781893432140350341796875">
        <ele>1166.4000244140625</ele>
        <time>2022-04-17T11:40:38.000Z</time>
      </trkpt>
      <trkpt lat="42.9643352888524532318115234375" lon="-2.36430832184851169586181640625">
        <ele>1166.5999755859375</ele>
        <time>2022-04-17T11:40:39.000Z</time>
      </trkpt>
      <trkpt lat="42.96433486975729465484619140625" lon="-2.36430496908724308013916015625">
        <ele>1166.5999755859375</ele>
        <time>2022-04-17T11:40:40.000Z</time>
      </trkpt>
      <trkpt lat="42.9643322713673114776611328125" lon="-2.3643042147159576416015625">
        <ele>1166.800048828125</ele>
        <time>2022-04-17T11:40:41.000Z</time>
      </trkpt>
      <trkpt lat="42.96432330273091793060302734375" lon="-2.36430731602013111114501953125">
        <ele>1166.800048828125</ele>
        <time>2022-04-17T11:40:42.000Z</time>
      </trkpt>
      <trkpt lat="42.96430737711489200592041015625" lon="-2.3643073998391628265380859375">
        <ele>1167.199951171875</ele>
        <time>2022-04-17T11:40:43.000Z</time>
      </trkpt>
      <trkpt lat="42.9642960615456104278564453125" lon="-2.36430580727756023406982421875">
        <ele>1167.4000244140625</ele>
        <time>2022-04-17T11:40:44.000Z</time>
      </trkpt>
      <trkpt lat="42.9642772860825061798095703125" lon="-2.364303879439830780029296875">
        <ele>1167.800048828125</ele>
        <time>2022-04-17T11:40:45.000Z</time>
      </trkpt>
      <trkpt lat="42.9642611928284168243408203125" lon="-2.3642899654805660247802734375">
        <ele>1168</ele>
        <time>2022-04-17T11:40:46.000Z</time>
      </trkpt>
      <trkpt lat="42.96424719505012035369873046875" lon="-2.3642819188535213470458984375">
        <ele>1168</ele>
        <time>2022-04-17T11:40:47.000Z</time>
      </trkpt>
      <trkpt lat="42.96423546038568019866943359375" lon="-2.36428745090961456298828125">
        <ele>1168</ele>
        <time>2022-04-17T11:40:48.000Z</time>
      </trkpt>
      <trkpt lat="42.9642296768724918365478515625" lon="-2.3642822541296482086181640625">
        <ele>1168.199951171875</ele>
        <time>2022-04-17T11:40:49.000Z</time>
      </trkpt>
      <trkpt lat="42.964221797883510589599609375" lon="-2.364283092319965362548828125">
        <ele>1168.199951171875</ele>
        <time>2022-04-17T11:40:50.000Z</time>
      </trkpt>
      <trkpt lat="42.96421953476965427398681640625" lon="-2.3642819188535213470458984375">
        <ele>1168.4000244140625</ele>
        <time>2022-04-17T11:40:51.000Z</time>
      </trkpt>
      <trkpt lat="42.96421743929386138916015625" lon="-2.36427529715001583099365234375">
        <ele>1168.4000244140625</ele>
        <time>2022-04-17T11:40:52.000Z</time>
      </trkpt>
      <trkpt lat="42.96421299688518047332763671875" lon="-2.36426775343716144561767578125">
        <ele>1168.800048828125</ele>
        <time>2022-04-17T11:40:53.000Z</time>
      </trkpt>
      <trkpt lat="42.9642038606107234954833984375" lon="-2.364267669618129730224609375">
        <ele>1169</ele>
        <time>2022-04-17T11:40:54.000Z</time>
      </trkpt>
      <trkpt lat="42.964194975793361663818359375" lon="-2.36426305957138538360595703125">
        <ele>1169</ele>
        <time>2022-04-17T11:40:55.000Z</time>
      </trkpt>
      <trkpt lat="42.96418525278568267822265625" lon="-2.36425870098173618316650390625">
        <ele>1169.199951171875</ele>
        <time>2022-04-17T11:40:56.000Z</time>
      </trkpt>
      <trkpt lat="42.96417695470154285430908203125" lon="-2.36425568349659442901611328125">
        <ele>1169.4000244140625</ele>
        <time>2022-04-17T11:40:57.000Z</time>
      </trkpt>
      <trkpt lat="42.9641760326921939849853515625" lon="-2.3642403446137905120849609375">
        <ele>1169.5999755859375</ele>
        <time>2022-04-17T11:40:58.000Z</time>
      </trkpt>
      <trkpt lat="42.9641716741025447845458984375" lon="-2.36422249116003513336181640625">
        <ele>1169.800048828125</ele>
        <time>2022-04-17T11:40:59.000Z</time>
      </trkpt>
      <trkpt lat="42.96417008154094219207763671875" lon="-2.3642148636281490325927734375">
        <ele>1170</ele>
        <time>2022-04-17T11:41:00.000Z</time>
      </trkpt>
      <trkpt lat="42.96415851451456546783447265625" lon="-2.36420807428658008575439453125">
        <ele>1170.199951171875</ele>
        <time>2022-04-17T11:41:01.000Z</time>
      </trkpt>
      <trkpt lat="42.96415315009653568267822265625" lon="-2.36420036293566226959228515625">
        <ele>1170.4000244140625</ele>
        <time>2022-04-17T11:41:02.000Z</time>
      </trkpt>
      <trkpt lat="42.96414275653660297393798828125" lon="-2.364198267459869384765625">
        <ele>1170.800048828125</ele>
        <time>2022-04-17T11:41:03.000Z</time>
      </trkpt>
      <trkpt lat="42.96414091251790523529052734375" lon="-2.3641920648515224456787109375">
        <ele>1171.199951171875</ele>
        <time>2022-04-17T11:41:04.000Z</time>
      </trkpt>
      <trkpt lat="42.964139319956302642822265625" lon="-2.36418058164417743682861328125">
        <ele>1171.4000244140625</ele>
        <time>2022-04-17T11:41:05.000Z</time>
      </trkpt>
      <trkpt lat="42.9641421698033809661865234375" lon="-2.36417387612164020538330078125">
        <ele>1171.800048828125</ele>
        <time>2022-04-17T11:41:06.000Z</time>
      </trkpt>
      <trkpt lat="42.96414024196565151214599609375" lon="-2.36416851170361042022705078125">
        <ele>1172</ele>
        <time>2022-04-17T11:41:07.000Z</time>
      </trkpt>
      <trkpt lat="42.9641334526240825653076171875" lon="-2.3641679249703884124755859375">
        <ele>1172.4000244140625</ele>
        <time>2022-04-17T11:41:08.000Z</time>
      </trkpt>
      <trkpt lat="42.9641294293105602264404296875" lon="-2.3641618900001049041748046875">
        <ele>1172.5999755859375</ele>
        <time>2022-04-17T11:41:09.000Z</time>
      </trkpt>
      <trkpt lat="42.9641280882060527801513671875" lon="-2.3641535080969333648681640625">
        <ele>1172.800048828125</ele>
        <time>2022-04-17T11:41:10.000Z</time>
      </trkpt>
      <trkpt lat="42.96413320116698741912841796875" lon="-2.36414269544184207916259765625">
        <ele>1173.199951171875</ele>
        <time>2022-04-17T11:41:11.000Z</time>
      </trkpt>
      <trkpt lat="42.964134626090526580810546875" lon="-2.3641340620815753936767578125">
        <ele>1173.4000244140625</ele>
        <time>2022-04-17T11:41:12.000Z</time>
      </trkpt>
      <trkpt lat="42.9641341231763362884521484375" lon="-2.3641276918351650238037109375">
        <ele>1173.5999755859375</ele>
        <time>2022-04-17T11:41:13.000Z</time>
      </trkpt>
      <trkpt lat="42.96412766911089420318603515625" lon="-2.3641233332455158233642578125">
        <ele>1173.800048828125</ele>
        <time>2022-04-17T11:41:14.000Z</time>
      </trkpt>
      <trkpt lat="42.964119873940944671630859375" lon="-2.36411822028458118438720703125">
        <ele>1173.800048828125</ele>
        <time>2022-04-17T11:41:15.000Z</time>
      </trkpt>
      <trkpt lat="42.96411459334194660186767578125" lon="-2.36410916782915592193603515625">
        <ele>1174</ele>
        <time>2022-04-17T11:41:16.000Z</time>
      </trkpt>
      <trkpt lat="42.964109145104885101318359375" lon="-2.3641005344688892364501953125">
        <ele>1174.199951171875</ele>
        <time>2022-04-17T11:41:17.000Z</time>
      </trkpt>
      <trkpt lat="42.96410218812525272369384765625" lon="-2.36409299075603485107421875">
        <ele>1174.4000244140625</ele>
        <time>2022-04-17T11:41:18.000Z</time>
      </trkpt>
      <trkpt lat="42.96409137547016143798828125" lon="-2.36408838070929050445556640625">
        <ele>1174.5999755859375</ele>
        <time>2022-04-17T11:41:19.000Z</time>
      </trkpt>
      <trkpt lat="42.96408374793827533721923828125" lon="-2.3640891350805759429931640625">
        <ele>1175</ele>
        <time>2022-04-17T11:41:20.000Z</time>
      </trkpt>
      <trkpt lat="42.96407687477767467498779296875" lon="-2.36408905126154422760009765625">
        <ele>1175.199951171875</ele>
        <time>2022-04-17T11:41:21.000Z</time>
      </trkpt>
      <trkpt lat="42.9640731029212474822998046875" lon="-2.36409642733633518218994140625">
        <ele>1175.199951171875</ele>
        <time>2022-04-17T11:41:22.000Z</time>
      </trkpt>
      <trkpt lat="42.96406882815062999725341796875" lon="-2.3640978522598743438720703125">
        <ele>1175.4000244140625</ele>
        <time>2022-04-17T11:41:23.000Z</time>
      </trkpt>
      <trkpt lat="42.96406991779804229736328125" lon="-2.36409827135503292083740234375">
        <ele>1175.4000244140625</ele>
        <time>2022-04-17T11:41:24.000Z</time>
      </trkpt>
      <trkpt lat="42.9640697501599788665771484375" lon="-2.3641012050211429595947265625">
        <ele>1175.5999755859375</ele>
        <time>2022-04-17T11:41:25.000Z</time>
      </trkpt>
      <trkpt lat="42.96406229026615619659423828125" lon="-2.36410665325820446014404296875">
        <ele>1175.800048828125</ele>
        <time>2022-04-17T11:41:26.000Z</time>
      </trkpt>
      <trkpt lat="42.964054830372333526611328125" lon="-2.36410933546721935272216796875">
        <ele>1176</ele>
        <time>2022-04-17T11:41:27.000Z</time>
      </trkpt>
      <trkpt lat="42.964053489267826080322265625" lon="-2.3641062341630458831787109375">
        <ele>1176.199951171875</ele>
        <time>2022-04-17T11:41:28.000Z</time>
      </trkpt>
      <trkpt lat="42.9640503041446208953857421875" lon="-2.36410430632531642913818359375">
        <ele>1176.4000244140625</ele>
        <time>2022-04-17T11:41:29.000Z</time>
      </trkpt>
      <trkpt lat="42.9640576802194118499755859375" lon="-2.36410480923950672149658203125">
        <ele>1176.5999755859375</ele>
        <time>2022-04-17T11:41:30.000Z</time>
      </trkpt>
      <trkpt lat="42.9640469513833522796630859375" lon="-2.36410832963883876800537109375">
        <ele>1176.800048828125</ele>
        <time>2022-04-17T11:41:31.000Z</time>
      </trkpt>
      <trkpt lat="42.9640399105846881866455078125" lon="-2.36409743316471576690673828125">
        <ele>1176.800048828125</ele>
        <time>2022-04-17T11:41:32.000Z</time>
      </trkpt>
      <trkpt lat="42.9640285111963748931884765625" lon="-2.36409374512732028961181640625">
        <ele>1177</ele>
        <time>2022-04-17T11:41:33.000Z</time>
      </trkpt>
      <trkpt lat="42.9640249907970428466796875" lon="-2.3640882968902587890625">
        <ele>1177</ele>
        <time>2022-04-17T11:41:34.000Z</time>
      </trkpt>
      <trkpt lat="42.9640224762260913848876953125" lon="-2.36408117227256298065185546875">
        <ele>1177.4000244140625</ele>
        <time>2022-04-17T11:41:35.000Z</time>
      </trkpt>
      <trkpt lat="42.96401920728385448455810546875" lon="-2.36407287418842315673828125">
        <ele>1177.5999755859375</ele>
        <time>2022-04-17T11:41:36.000Z</time>
      </trkpt>
      <trkpt lat="42.96400562860071659088134765625" lon="-2.36406541429460048675537109375">
        <ele>1177.800048828125</ele>
        <time>2022-04-17T11:41:37.000Z</time>
      </trkpt>
      <trkpt lat="42.96398936770856380462646484375" lon="-2.36406616866588592529296875">
        <ele>1178</ele>
        <time>2022-04-17T11:41:38.000Z</time>
      </trkpt>
      <trkpt lat="42.96397562138736248016357421875" lon="-2.36407094635069370269775390625">
        <ele>1178.199951171875</ele>
        <time>2022-04-17T11:41:39.000Z</time>
      </trkpt>
      <trkpt lat="42.96397025696933269500732421875" lon="-2.36406759358942508697509765625">
        <ele>1178.4000244140625</ele>
        <time>2022-04-17T11:41:40.000Z</time>
      </trkpt>
      <trkpt lat="42.9639632999897003173828125" lon="-2.3640485666692256927490234375">
        <ele>1178.5999755859375</ele>
        <time>2022-04-17T11:41:41.000Z</time>
      </trkpt>
      <trkpt lat="42.9639524035155773162841796875" lon="-2.364032305777072906494140625">
        <ele>1178.800048828125</ele>
        <time>2022-04-17T11:41:42.000Z</time>
      </trkpt>
      <trkpt lat="42.96394745819270610809326171875" lon="-2.36401746980845928192138671875">
        <ele>1179</ele>
        <time>2022-04-17T11:41:43.000Z</time>
      </trkpt>
      <trkpt lat="42.96394343487918376922607421875" lon="-2.36399911344051361083984375">
        <ele>1179.199951171875</ele>
        <time>2022-04-17T11:41:44.000Z</time>
      </trkpt>
      <trkpt lat="42.96394142322242259979248046875" lon="-2.36399332992732524871826171875">
        <ele>1179.4000244140625</ele>
        <time>2022-04-17T11:41:45.000Z</time>
      </trkpt>
      <trkpt lat="42.96394653618335723876953125" lon="-2.36399249173700809478759765625">
        <ele>1179.5999755859375</ele>
        <time>2022-04-17T11:41:46.000Z</time>
      </trkpt>
      <trkpt lat="42.96395014040172100067138671875" lon="-2.36398763023316860198974609375">
        <ele>1179.5999755859375</ele>
        <time>2022-04-17T11:41:47.000Z</time>
      </trkpt>
      <trkpt lat="42.9639473743736743927001953125" lon="-2.363979332149028778076171875">
        <ele>1179.5999755859375</ele>
        <time>2022-04-17T11:41:48.000Z</time>
      </trkpt>
      <trkpt lat="42.96394611708819866180419921875" lon="-2.3639738000929355621337890625">
        <ele>1179.800048828125</ele>
        <time>2022-04-17T11:41:49.000Z</time>
      </trkpt>
      <trkpt lat="42.96394259668886661529541015625" lon="-2.36396516673266887664794921875">
        <ele>1179.800048828125</ele>
        <time>2022-04-17T11:41:50.000Z</time>
      </trkpt>
      <trkpt lat="42.96393983066082000732421875" lon="-2.36395376734435558319091796875">
        <ele>1180</ele>
        <time>2022-04-17T11:41:51.000Z</time>
      </trkpt>
      <trkpt lat="42.9639353044331073760986328125" lon="-2.363944463431835174560546875">
        <ele>1180</ele>
        <time>2022-04-17T11:41:52.000Z</time>
      </trkpt>
      <trkpt lat="42.96393371187150478363037109375" lon="-2.363937087357044219970703125">
        <ele>1180.199951171875</ele>
        <time>2022-04-17T11:41:53.000Z</time>
      </trkpt>
      <trkpt lat="42.96393069438636302947998046875" lon="-2.36392929218709468841552734375">
        <ele>1180.4000244140625</ele>
        <time>2022-04-17T11:41:54.000Z</time>
      </trkpt>
      <trkpt lat="42.96392264775931835174560546875" lon="-2.36391822807490825653076171875">
        <ele>1180.5999755859375</ele>
        <time>2022-04-17T11:41:55.000Z</time>
      </trkpt>
      <trkpt lat="42.96391300857067108154296875" lon="-2.36391328275203704833984375">
        <ele>1180.800048828125</ele>
        <time>2022-04-17T11:41:56.000Z</time>
      </trkpt>
      <trkpt lat="42.9639041237533092498779296875" lon="-2.36390791833400726318359375">
        <ele>1180.800048828125</ele>
        <time>2022-04-17T11:41:57.000Z</time>
      </trkpt>
      <trkpt lat="42.963899932801723480224609375" lon="-2.36389794386923313140869140625">
        <ele>1181</ele>
        <time>2022-04-17T11:41:58.000Z</time>
      </trkpt>
      <trkpt lat="42.9638922214508056640625" lon="-2.36389040015637874603271484375">
        <ele>1181</ele>
        <time>2022-04-17T11:41:59.000Z</time>
      </trkpt>
      <trkpt lat="42.96388627029955387115478515625" lon="-2.36389090307056903839111328125">
        <ele>1181</ele>
        <time>2022-04-17T11:42:00.000Z</time>
      </trkpt>
      <trkpt lat="42.96388157643377780914306640625" lon="-2.36389257945120334625244140625">
        <ele>1181.199951171875</ele>
        <time>2022-04-17T11:42:01.000Z</time>
      </trkpt>
      <trkpt lat="42.96387386508285999298095703125" lon="-2.3638896457850933074951171875">
        <ele>1181.199951171875</ele>
        <time>2022-04-17T11:42:02.000Z</time>
      </trkpt>
      <trkpt lat="42.96387470327317714691162109375" lon="-2.36388185061514377593994140625">
        <ele>1181.4000244140625</ele>
        <time>2022-04-17T11:42:03.000Z</time>
      </trkpt>
      <trkpt lat="42.96387185342609882354736328125" lon="-2.36387128941714763641357421875">
        <ele>1181.4000244140625</ele>
        <time>2022-04-17T11:42:04.000Z</time>
      </trkpt>
      <trkpt lat="42.963867746293544769287109375" lon="-2.3638641647994518280029296875">
        <ele>1181.4000244140625</ele>
        <time>2022-04-17T11:42:05.000Z</time>
      </trkpt>
      <trkpt lat="42.9638548381626605987548828125" lon="-2.3638621531426906585693359375">
        <ele>1181.5999755859375</ele>
        <time>2022-04-17T11:42:06.000Z</time>
      </trkpt>
      <trkpt lat="42.9638441093266010284423828125" lon="-2.3638616502285003662109375">
        <ele>1181.800048828125</ele>
        <time>2022-04-17T11:42:07.000Z</time>
      </trkpt>
      <trkpt lat="42.96383782289922237396240234375" lon="-2.36386341042816638946533203125">
        <ele>1181.800048828125</ele>
        <time>2022-04-17T11:42:08.000Z</time>
      </trkpt>
      <trkpt lat="42.96383514069020748138427734375" lon="-2.36386877484619617462158203125">
        <ele>1182</ele>
        <time>2022-04-17T11:42:09.000Z</time>
      </trkpt>
      <trkpt lat="42.96383229084312915802001953125" lon="-2.36386508680880069732666015625">
        <ele>1182.199951171875</ele>
        <time>2022-04-17T11:42:10.000Z</time>
      </trkpt>
      <trkpt lat="42.96383011154830455780029296875" lon="-2.363863326609134674072265625">
        <ele>1182.4000244140625</ele>
        <time>2022-04-17T11:42:11.000Z</time>
      </trkpt>
      <trkpt lat="42.9638293571770191192626953125" lon="-2.3638562858104705810546875">
        <ele>1182.4000244140625</ele>
        <time>2022-04-17T11:42:12.000Z</time>
      </trkpt>
      <trkpt lat="42.96382357366383075714111328125" lon="-2.36384916119277477264404296875">
        <ele>1182.5999755859375</ele>
        <time>2022-04-17T11:42:13.000Z</time>
      </trkpt>
      <trkpt lat="42.96382156200706958770751953125" lon="-2.363839857280254364013671875">
        <ele>1182.5999755859375</ele>
        <time>2022-04-17T11:42:14.000Z</time>
      </trkpt>
      <trkpt lat="42.9638233222067356109619140625" lon="-2.3638303019106388092041015625">
        <ele>1182.5999755859375</ele>
        <time>2022-04-17T11:42:15.000Z</time>
      </trkpt>
      <trkpt lat="42.9638229869306087493896484375" lon="-2.36381965689361095428466796875">
        <ele>1182.800048828125</ele>
        <time>2022-04-17T11:42:16.000Z</time>
      </trkpt>
      <trkpt lat="42.96381644904613494873046875" lon="-2.363815046846866607666015625">
        <ele>1182.800048828125</ele>
        <time>2022-04-17T11:42:17.000Z</time>
      </trkpt>
      <trkpt lat="42.96380781568586826324462890625" lon="-2.363808341324329376220703125">
        <ele>1182.800048828125</ele>
        <time>2022-04-17T11:42:18.000Z</time>
      </trkpt>
      <trkpt lat="42.96379993669688701629638671875" lon="-2.36379434354603290557861328125">
        <ele>1183</ele>
        <time>2022-04-17T11:42:19.000Z</time>
      </trkpt>
      <trkpt lat="42.96379708684980869293212890625" lon="-2.36377917230129241943359375">
        <ele>1183.199951171875</ele>
        <time>2022-04-17T11:42:20.000Z</time>
      </trkpt>
      <trkpt lat="42.96379138715565204620361328125" lon="-2.36377322115004062652587890625">
        <ele>1183.4000244140625</ele>
        <time>2022-04-17T11:42:21.000Z</time>
      </trkpt>
      <trkpt lat="42.96379230916500091552734375" lon="-2.363763414323329925537109375">
        <ele>1183.5999755859375</ele>
        <time>2022-04-17T11:42:22.000Z</time>
      </trkpt>
      <trkpt lat="42.9637948237359523773193359375" lon="-2.3637516796588897705078125">
        <ele>1183.800048828125</ele>
        <time>2022-04-17T11:42:23.000Z</time>
      </trkpt>
      <trkpt lat="42.96379423700273036956787109375" lon="-2.36374287866055965423583984375">
        <ele>1184</ele>
        <time>2022-04-17T11:42:24.000Z</time>
      </trkpt>
      <trkpt lat="42.96379205770790576934814453125" lon="-2.36373424530029296875">
        <ele>1184</ele>
        <time>2022-04-17T11:42:25.000Z</time>
      </trkpt>
      <trkpt lat="42.96379507519304752349853515625" lon="-2.3637233488261699676513671875">
        <ele>1184.199951171875</ele>
        <time>2022-04-17T11:42:26.000Z</time>
      </trkpt>
      <trkpt lat="42.96379758976399898529052734375" lon="-2.36371471546590328216552734375">
        <ele>1184.4000244140625</ele>
        <time>2022-04-17T11:42:27.000Z</time>
      </trkpt>
      <trkpt lat="42.96379633247852325439453125" lon="-2.36370407044887542724609375">
        <ele>1184.5999755859375</ele>
        <time>2022-04-17T11:42:28.000Z</time>
      </trkpt>
      <trkpt lat="42.963792979717254638671875" lon="-2.36369493417441844940185546875">
        <ele>1184.5999755859375</ele>
        <time>2022-04-17T11:42:29.000Z</time>
      </trkpt>
      <trkpt lat="42.96378904022276401519775390625" lon="-2.3636851273477077484130859375">
        <ele>1184.800048828125</ele>
        <time>2022-04-17T11:42:30.000Z</time>
      </trkpt>
      <trkpt lat="42.96378686092793941497802734375" lon="-2.36367900855839252471923828125">
        <ele>1185</ele>
        <time>2022-04-17T11:42:31.000Z</time>
      </trkpt>
      <trkpt lat="42.96378585509955883026123046875" lon="-2.3636707104742527008056640625">
        <ele>1185.199951171875</ele>
        <time>2022-04-17T11:42:32.000Z</time>
      </trkpt>
      <trkpt lat="42.96378233470022678375244140625" lon="-2.36366450786590576171875">
        <ele>1185.199951171875</ele>
        <time>2022-04-17T11:42:33.000Z</time>
      </trkpt>
      <trkpt lat="42.96378032304346561431884765625" lon="-2.36365553922951221466064453125">
        <ele>1185.199951171875</ele>
        <time>2022-04-17T11:42:34.000Z</time>
      </trkpt>
      <trkpt lat="42.96377898193895816802978515625" lon="-2.363645397126674652099609375">
        <ele>1185.199951171875</ele>
        <time>2022-04-17T11:42:35.000Z</time>
      </trkpt>
      <trkpt lat="42.96377764083445072174072265625" lon="-2.3636371828615665435791015625">
        <ele>1185.4000244140625</ele>
        <time>2022-04-17T11:42:36.000Z</time>
      </trkpt>
      <trkpt lat="42.96377621591091156005859375" lon="-2.3636277951300144195556640625">
        <ele>1185.5999755859375</ele>
        <time>2022-04-17T11:42:37.000Z</time>
      </trkpt>
      <trkpt lat="42.96377487480640411376953125" lon="-2.3636177368462085723876953125">
        <ele>1185.800048828125</ele>
        <time>2022-04-17T11:42:38.000Z</time>
      </trkpt>
      <trkpt lat="42.96377261169254779815673828125" lon="-2.36361010931432247161865234375">
        <ele>1186</ele>
        <time>2022-04-17T11:42:39.000Z</time>
      </trkpt>
      <trkpt lat="42.96376741491258144378662109375" lon="-2.36360155977308750152587890625">
        <ele>1186.199951171875</ele>
        <time>2022-04-17T11:42:40.000Z</time>
      </trkpt>
      <trkpt lat="42.9637639783322811126708984375" lon="-2.36359409987926483154296875">
        <ele>1186.4000244140625</ele>
        <time>2022-04-17T11:42:41.000Z</time>
      </trkpt>
      <trkpt lat="42.96376012265682220458984375" lon="-2.363585047423839569091796875">
        <ele>1186.5999755859375</ele>
        <time>2022-04-17T11:42:42.000Z</time>
      </trkpt>
      <trkpt lat="42.96375551261007785797119140625" lon="-2.36357666552066802978515625">
        <ele>1186.800048828125</ele>
        <time>2022-04-17T11:42:43.000Z</time>
      </trkpt>
      <trkpt lat="42.963752411305904388427734375" lon="-2.363569624722003936767578125">
        <ele>1187</ele>
        <time>2022-04-17T11:42:44.000Z</time>
      </trkpt>
      <trkpt lat="42.963748387992382049560546875" lon="-2.363560907542705535888671875">
        <ele>1187.199951171875</ele>
        <time>2022-04-17T11:42:45.000Z</time>
      </trkpt>
      <trkpt lat="42.96374662779271602630615234375" lon="-2.36354858614504337310791015625">
        <ele>1187.4000244140625</ele>
        <time>2022-04-17T11:42:46.000Z</time>
      </trkpt>
      <trkpt lat="42.96374528668820858001708984375" lon="-2.3635402880609035491943359375">
        <ele>1187.5999755859375</ele>
        <time>2022-04-17T11:42:47.000Z</time>
      </trkpt>
      <trkpt lat="42.9637421853840351104736328125" lon="-2.3635319061577320098876953125">
        <ele>1187.5999755859375</ele>
        <time>2022-04-17T11:42:48.000Z</time>
      </trkpt>
      <trkpt lat="42.96373807825148105621337890625" lon="-2.3635196685791015625">
        <ele>1187.800048828125</ele>
        <time>2022-04-17T11:42:49.000Z</time>
      </trkpt>
      <trkpt lat="42.96373791061341762542724609375" lon="-2.36350935883820056915283203125">
        <ele>1187.800048828125</ele>
        <time>2022-04-17T11:42:50.000Z</time>
      </trkpt>
      <trkpt lat="42.96373891644179821014404296875" lon="-2.36349946819245815277099609375">
        <ele>1188</ele>
        <time>2022-04-17T11:42:51.000Z</time>
      </trkpt>
      <trkpt lat="42.963741682469844818115234375" lon="-2.36349192447960376739501953125">
        <ele>1188.199951171875</ele>
        <time>2022-04-17T11:42:52.000Z</time>
      </trkpt>
      <trkpt lat="42.96374537050724029541015625" lon="-2.36348505131900310516357421875">
        <ele>1188.4000244140625</ele>
        <time>2022-04-17T11:42:53.000Z</time>
      </trkpt>
      <trkpt lat="42.96374931000173091888427734375" lon="-2.363475747406482696533203125">
        <ele>1188.4000244140625</ele>
        <time>2022-04-17T11:42:54.000Z</time>
      </trkpt>
      <trkpt lat="42.9637509025633335113525390625" lon="-2.36346275545656681060791015625">
        <ele>1188.4000244140625</ele>
        <time>2022-04-17T11:42:55.000Z</time>
      </trkpt>
      <trkpt lat="42.963756434619426727294921875" lon="-2.363444902002811431884765625">
        <ele>1188.4000244140625</ele>
        <time>2022-04-17T11:42:56.000Z</time>
      </trkpt>
      <trkpt lat="42.96376070939004421234130859375" lon="-2.36343073658645153045654296875">
        <ele>1188.5999755859375</ele>
        <time>2022-04-17T11:42:57.000Z</time>
      </trkpt>
      <trkpt lat="42.9637663252651691436767578125" lon="-2.3634222708642482757568359375">
        <ele>1188.5999755859375</ele>
        <time>2022-04-17T11:42:58.000Z</time>
      </trkpt>
      <trkpt lat="42.96377110294997692108154296875" lon="-2.363410703837871551513671875">
        <ele>1189</ele>
        <time>2022-04-17T11:42:59.000Z</time>
      </trkpt>
      <trkpt lat="42.96376992948353290557861328125" lon="-2.36340458504855632781982421875">
        <ele>1189.4000244140625</ele>
        <time>2022-04-17T11:43:00.000Z</time>
      </trkpt>
      <trkpt lat="42.963769845664501190185546875" lon="-2.36339720897376537322998046875">
        <ele>1189.5999755859375</ele>
        <time>2022-04-17T11:43:01.000Z</time>
      </trkpt>
      <trkpt lat="42.96376959420740604400634765625" lon="-2.36338983289897441864013671875">
        <ele>1189.5999755859375</ele>
        <time>2022-04-17T11:43:02.000Z</time>
      </trkpt>
      <trkpt lat="42.963771857321262359619140625" lon="-2.36337491311132907867431640625">
        <ele>1189.800048828125</ele>
        <time>2022-04-17T11:43:03.000Z</time>
      </trkpt>
      <trkpt lat="42.96377562917768955230712890625" lon="-2.36336854286491870880126953125">
        <ele>1190</ele>
        <time>2022-04-17T11:43:04.000Z</time>
      </trkpt>
      <trkpt lat="42.9637800715863704681396484375" lon="-2.36336116679012775421142578125">
        <ele>1190</ele>
        <time>2022-04-17T11:43:05.000Z</time>
      </trkpt>
      <trkpt lat="42.96378233470022678375244140625" lon="-2.36334876157343387603759765625">
        <ele>1190.199951171875</ele>
        <time>2022-04-17T11:43:06.000Z</time>
      </trkpt>
      <trkpt lat="42.963782586157321929931640625" lon="-2.36334188841283321380615234375">
        <ele>1190.4000244140625</ele>
        <time>2022-04-17T11:43:07.000Z</time>
      </trkpt>
      <trkpt lat="42.9637851007282733917236328125" lon="-2.363332249224185943603515625">
        <ele>1190.4000244140625</ele>
        <time>2022-04-17T11:43:08.000Z</time>
      </trkpt>
      <trkpt lat="42.9637857712805271148681640625" lon="-2.36332411877810955047607421875">
        <ele>1190.5999755859375</ele>
        <time>2022-04-17T11:43:09.000Z</time>
      </trkpt>
      <trkpt lat="42.96378753148019313812255859375" lon="-2.36331238411366939544677734375">
        <ele>1190.5999755859375</ele>
        <time>2022-04-17T11:43:10.000Z</time>
      </trkpt>
      <trkpt lat="42.96378870494663715362548828125" lon="-2.36330048181116580963134765625">
        <ele>1191</ele>
        <time>2022-04-17T11:43:11.000Z</time>
      </trkpt>
      <trkpt lat="42.963792644441127777099609375" lon="-2.36329226754605770111083984375">
        <ele>1191.199951171875</ele>
        <time>2022-04-17T11:43:12.000Z</time>
      </trkpt>
      <trkpt lat="42.963792644441127777099609375" lon="-2.363284640014171600341796875">
        <ele>1191.199951171875</ele>
        <time>2022-04-17T11:43:13.000Z</time>
      </trkpt>
      <trkpt lat="42.9637921415269374847412109375" lon="-2.36327650956809520721435546875">
        <ele>1191.4000244140625</ele>
        <time>2022-04-17T11:43:14.000Z</time>
      </trkpt>
      <trkpt lat="42.96379071660339832305908203125" lon="-2.363265864551067352294921875">
        <ele>1191.4000244140625</ele>
        <time>2022-04-17T11:43:15.000Z</time>
      </trkpt>
      <trkpt lat="42.96378820203244686126708984375" lon="-2.36325739882886409759521484375">
        <ele>1191.5999755859375</ele>
        <time>2022-04-17T11:43:16.000Z</time>
      </trkpt>
      <trkpt lat="42.96378518454730510711669921875" lon="-2.363250441849231719970703125">
        <ele>1191.5999755859375</ele>
        <time>2022-04-17T11:43:17.000Z</time>
      </trkpt>
      <trkpt lat="42.96378350816667079925537109375" lon="-2.36324348486959934234619140625">
        <ele>1191.800048828125</ele>
        <time>2022-04-17T11:43:18.000Z</time>
      </trkpt>
      <trkpt lat="42.9637790657579898834228515625" lon="-2.36323979683220386505126953125">
        <ele>1191.800048828125</ele>
        <time>2022-04-17T11:43:19.000Z</time>
      </trkpt>
      <trkpt lat="42.963774204254150390625" lon="-2.36323535442352294921875">
        <ele>1192</ele>
        <time>2022-04-17T11:43:20.000Z</time>
      </trkpt>
      <trkpt lat="42.9637733660638332366943359375" lon="-2.36322688870131969451904296875">
        <ele>1192</ele>
        <time>2022-04-17T11:43:21.000Z</time>
      </trkpt>
      <trkpt lat="42.96376925893127918243408203125" lon="-2.363217584788799285888671875">
        <ele>1192</ele>
        <time>2022-04-17T11:43:22.000Z</time>
      </trkpt>
      <trkpt lat="42.96376825310289859771728515625" lon="-2.3632076941430568695068359375">
        <ele>1192</ele>
        <time>2022-04-17T11:43:23.000Z</time>
      </trkpt>
      <trkpt lat="42.96376548707485198974609375" lon="-2.363200150430202484130859375">
        <ele>1192</ele>
        <time>2022-04-17T11:43:24.000Z</time>
      </trkpt>
      <trkpt lat="42.963761799037456512451171875" lon="-2.36319243907928466796875">
        <ele>1192.199951171875</ele>
        <time>2022-04-17T11:43:25.000Z</time>
      </trkpt>
      <trkpt lat="42.96375752426683902740478515625" lon="-2.36318145878612995147705078125">
        <ele>1192.199951171875</ele>
        <time>2022-04-17T11:43:26.000Z</time>
      </trkpt>
      <trkpt lat="42.96375744044780731201171875" lon="-2.363172657787799835205078125">
        <ele>1192.4000244140625</ele>
        <time>2022-04-17T11:43:27.000Z</time>
      </trkpt>
      <trkpt lat="42.96375618316233158111572265625" lon="-2.3631624318659305572509765625">
        <ele>1192.4000244140625</ele>
        <time>2022-04-17T11:43:28.000Z</time>
      </trkpt>
      <trkpt lat="42.96375383622944355010986328125" lon="-2.36315296031534671783447265625">
        <ele>1192.4000244140625</ele>
        <time>2022-04-17T11:43:29.000Z</time>
      </trkpt>
      <trkpt lat="42.96374931000173091888427734375" lon="-2.36314524896442890167236328125">
        <ele>1192.4000244140625</ele>
        <time>2022-04-17T11:43:30.000Z</time>
      </trkpt>
      <trkpt lat="42.9637445323169231414794921875" lon="-2.36313602887094020843505859375">
        <ele>1192.4000244140625</ele>
        <time>2022-04-17T11:43:31.000Z</time>
      </trkpt>
      <trkpt lat="42.96374193392693996429443359375" lon="-2.36313007771968841552734375">
        <ele>1192.5999755859375</ele>
        <time>2022-04-17T11:43:32.000Z</time>
      </trkpt>
      <trkpt lat="42.96373791061341762542724609375" lon="-2.363123036921024322509765625">
        <ele>1192.4000244140625</ele>
        <time>2022-04-17T11:43:33.000Z</time>
      </trkpt>
      <trkpt lat="42.9637344740331172943115234375" lon="-2.36311423592269420623779296875">
        <ele>1192.4000244140625</ele>
        <time>2022-04-17T11:43:34.000Z</time>
      </trkpt>
      <trkpt lat="42.96373204328119754791259765625" lon="-2.36310367472469806671142578125">
        <ele>1192.5999755859375</ele>
        <time>2022-04-17T11:43:35.000Z</time>
      </trkpt>
      <trkpt lat="42.96372592449188232421875" lon="-2.36309261061251163482666015625">
        <ele>1192.5999755859375</ele>
        <time>2022-04-17T11:43:36.000Z</time>
      </trkpt>
      <trkpt lat="42.9637219011783599853515625" lon="-2.36308372579514980316162109375">
        <ele>1192.5999755859375</ele>
        <time>2022-04-17T11:43:37.000Z</time>
      </trkpt>
      <trkpt lat="42.96371695585548877716064453125" lon="-2.36307584680616855621337890625">
        <ele>1192.800048828125</ele>
        <time>2022-04-17T11:43:38.000Z</time>
      </trkpt>
      <trkpt lat="42.9637116752564907073974609375" lon="-2.36306729726493358612060546875">
        <ele>1192.800048828125</ele>
        <time>2022-04-17T11:43:39.000Z</time>
      </trkpt>
      <trkpt lat="42.96370857395231723785400390625" lon="-2.36305623315274715423583984375">
        <ele>1192.800048828125</ele>
        <time>2022-04-17T11:43:40.000Z</time>
      </trkpt>
      <trkpt lat="42.9637002758681774139404296875" lon="-2.36305321566760540008544921875">
        <ele>1192.800048828125</ele>
        <time>2022-04-17T11:43:41.000Z</time>
      </trkpt>
      <trkpt lat="42.9636932350695133209228515625" lon="-2.36305204220116138458251953125">
        <ele>1192.800048828125</ele>
        <time>2022-04-17T11:43:42.000Z</time>
      </trkpt>
      <trkpt lat="42.9636865295469760894775390625" lon="-2.3630501143634319305419921875">
        <ele>1192.800048828125</ele>
        <time>2022-04-17T11:43:43.000Z</time>
      </trkpt>
      <trkpt lat="42.96368359588086605072021484375" lon="-2.36304449848830699920654296875">
        <ele>1192.800048828125</ele>
        <time>2022-04-17T11:43:44.000Z</time>
      </trkpt>
      <trkpt lat="42.96368259005248546600341796875" lon="-2.3630383796989917755126953125">
        <ele>1192.5999755859375</ele>
        <time>2022-04-17T11:43:45.000Z</time>
      </trkpt>
      <trkpt lat="42.96368259005248546600341796875" lon="-2.3630293272435665130615234375">
        <ele>1192.5999755859375</ele>
        <time>2022-04-17T11:43:46.000Z</time>
      </trkpt>
      <trkpt lat="42.96368074603378772735595703125" lon="-2.3630229569971561431884765625">
        <ele>1192.5999755859375</ele>
        <time>2022-04-17T11:43:47.000Z</time>
      </trkpt>
      <trkpt lat="42.96367487870156764984130859375" lon="-2.36301432363688945770263671875">
        <ele>1192.5999755859375</ele>
        <time>2022-04-17T11:43:48.000Z</time>
      </trkpt>
      <trkpt lat="42.9636644013226032257080078125" lon="-2.36299973912537097930908203125">
        <ele>1192.4000244140625</ele>
        <time>2022-04-17T11:43:49.000Z</time>
      </trkpt>
      <trkpt lat="42.9636560194194316864013671875" lon="-2.3629899322986602783203125">
        <ele>1192.4000244140625</ele>
        <time>2022-04-17T11:43:50.000Z</time>
      </trkpt>
      <trkpt lat="42.9636483080685138702392578125" lon="-2.36298414878547191619873046875">
        <ele>1192.199951171875</ele>
        <time>2022-04-17T11:43:51.000Z</time>
      </trkpt>
      <trkpt lat="42.96364487148821353912353515625" lon="-2.36297945491969585418701171875">
        <ele>1192.199951171875</ele>
        <time>2022-04-17T11:43:52.000Z</time>
      </trkpt>
      <trkpt lat="42.96364587731659412384033203125" lon="-2.36296839080750942230224609375">
        <ele>1192.199951171875</ele>
        <time>2022-04-17T11:43:53.000Z</time>
      </trkpt>
      <trkpt lat="42.96364621259272098541259765625" lon="-2.36295481212437152862548828125">
        <ele>1192.199951171875</ele>
        <time>2022-04-17T11:43:54.000Z</time>
      </trkpt>
      <trkpt lat="42.9636439494788646697998046875" lon="-2.362940311431884765625">
        <ele>1192.5999755859375</ele>
        <time>2022-04-17T11:43:55.000Z</time>
      </trkpt>
      <trkpt lat="42.9636412672698497772216796875" lon="-2.3629314266145229339599609375">
        <ele>1192.800048828125</ele>
        <time>2022-04-17T11:43:56.000Z</time>
      </trkpt>
      <trkpt lat="42.96363565139472484588623046875" lon="-2.36291977576911449432373046875">
        <ele>1192.800048828125</ele>
        <time>2022-04-17T11:43:57.000Z</time>
      </trkpt>
      <trkpt lat="42.9636278562247753143310546875" lon="-2.36290745437145233154296875">
        <ele>1192.800048828125</ele>
        <time>2022-04-17T11:43:58.000Z</time>
      </trkpt>
      <trkpt lat="42.96362576074898242950439453125" lon="-2.36289412714540958404541015625">
        <ele>1192.800048828125</ele>
        <time>2022-04-17T11:43:59.000Z</time>
      </trkpt>
      <trkpt lat="42.9636191390454769134521484375" lon="-2.3628807999193668365478515625">
        <ele>1192.800048828125</ele>
        <time>2022-04-17T11:44:00.000Z</time>
      </trkpt>
      <trkpt lat="42.963616289198398590087890625" lon="-2.3628710769116878509521484375">
        <ele>1192.800048828125</ele>
        <time>2022-04-17T11:44:01.000Z</time>
      </trkpt>
      <trkpt lat="42.96361436136066913604736328125" lon="-2.3628526367247104644775390625">
        <ele>1192.5999755859375</ele>
        <time>2022-04-17T11:44:02.000Z</time>
      </trkpt>
      <trkpt lat="42.963608913123607635498046875" lon="-2.362841404974460601806640625">
        <ele>1192.5999755859375</ele>
        <time>2022-04-17T11:44:03.000Z</time>
      </trkpt>
      <trkpt lat="42.96360480599105358123779296875" lon="-2.36282388679683208465576171875">
        <ele>1192.4000244140625</ele>
        <time>2022-04-17T11:44:04.000Z</time>
      </trkpt>
      <trkpt lat="42.96360027976334095001220703125" lon="-2.36281089484691619873046875">
        <ele>1192.4000244140625</ele>
        <time>2022-04-17T11:44:05.000Z</time>
      </trkpt>
      <trkpt lat="42.96359977684915065765380859375" lon="-2.36279790289700031280517578125">
        <ele>1192.4000244140625</ele>
        <time>2022-04-17T11:44:06.000Z</time>
      </trkpt>
      <trkpt lat="42.96359675936400890350341796875" lon="-2.3627968132495880126953125">
        <ele>1192.199951171875</ele>
        <time>2022-04-17T11:44:07.000Z</time>
      </trkpt>
      <trkpt lat="42.96358988620340824127197265625" lon="-2.36280150711536407470703125">
        <ele>1192.199951171875</ele>
        <time>2022-04-17T11:44:08.000Z</time>
      </trkpt>
      <trkpt lat="42.963587455451488494873046875" lon="-2.36279807053506374359130859375">
        <ele>1192.199951171875</ele>
        <time>2022-04-17T11:44:09.000Z</time>
      </trkpt>
      <trkpt lat="42.96358385123312473297119140625" lon="-2.362796477973461151123046875">
        <ele>1192.199951171875</ele>
        <time>2022-04-17T11:44:10.000Z</time>
      </trkpt>
      <trkpt lat="42.96357681043446063995361328125" lon="-2.3627976514399051666259765625">
        <ele>1192.199951171875</ele>
        <time>2022-04-17T11:44:11.000Z</time>
      </trkpt>
      <trkpt lat="42.963574714958667755126953125" lon="-2.3628006689250469207763671875">
        <ele>1192.199951171875</ele>
        <time>2022-04-17T11:44:12.000Z</time>
      </trkpt>
      <trkpt lat="42.96357144601643085479736328125" lon="-2.362803183495998382568359375">
        <ele>1192.199951171875</ele>
        <time>2022-04-17T11:44:13.000Z</time>
      </trkpt>
      <trkpt lat="42.9635698534548282623291015625" lon="-2.36280527897179126739501953125">
        <ele>1192.199951171875</ele>
        <time>2022-04-17T11:44:14.000Z</time>
      </trkpt>
      <trkpt lat="42.96356960199773311614990234375" lon="-2.36280611716210842132568359375">
        <ele>1192.199951171875</ele>
        <time>2022-04-17T11:44:15.000Z</time>
      </trkpt>
      <trkpt lat="42.9635681770741939544677734375" lon="-2.36280879937112331390380859375">
        <ele>1192.199951171875</ele>
        <time>2022-04-17T11:44:16.000Z</time>
      </trkpt>
      <trkpt lat="42.96357044018805027008056640625" lon="-2.3628048598766326904296875">
        <ele>1192.199951171875</ele>
        <time>2022-04-17T11:44:17.000Z</time>
      </trkpt>
      <trkpt lat="42.9635716974735260009765625" lon="-2.362804524600505828857421875">
        <ele>1192.199951171875</ele>
        <time>2022-04-17T11:44:18.000Z</time>
      </trkpt>
      <trkpt lat="42.96357261948287487030029296875" lon="-2.36279874108731746673583984375">
        <ele>1192.199951171875</ele>
        <time>2022-04-17T11:44:19.000Z</time>
      </trkpt>
      <trkpt lat="42.96357412822544574737548828125" lon="-2.362789101898670196533203125">
        <ele>1192.199951171875</ele>
        <time>2022-04-17T11:44:20.000Z</time>
      </trkpt>
      <trkpt lat="42.96357345767319202423095703125" lon="-2.3627745173871517181396484375">
        <ele>1192.199951171875</ele>
        <time>2022-04-17T11:44:21.000Z</time>
      </trkpt>
      <trkpt lat="42.9635716974735260009765625" lon="-2.3627651296555995941162109375">
        <ele>1192.199951171875</ele>
        <time>2022-04-17T11:44:22.000Z</time>
      </trkpt>
      <trkpt lat="42.96357077546417713165283203125" lon="-2.36275255680084228515625">
        <ele>1192.199951171875</ele>
        <time>2022-04-17T11:44:23.000Z</time>
      </trkpt>
      <trkpt lat="42.96356557868421077728271484375" lon="-2.36274409107863903045654296875">
        <ele>1192.4000244140625</ele>
        <time>2022-04-17T11:44:24.000Z</time>
      </trkpt>
      <trkpt lat="42.9635584540665149688720703125" lon="-2.362736128270626068115234375">
        <ele>1192.4000244140625</ele>
        <time>2022-04-17T11:44:25.000Z</time>
      </trkpt>
      <trkpt lat="42.96355451457202434539794921875" lon="-2.3627242259681224822998046875">
        <ele>1192.5999755859375</ele>
        <time>2022-04-17T11:44:26.000Z</time>
      </trkpt>
      <trkpt lat="42.96354915015399456024169921875" lon="-2.3627138324081897735595703125">
        <ele>1192.5999755859375</ele>
        <time>2022-04-17T11:44:27.000Z</time>
      </trkpt>
      <trkpt lat="42.96354244463145732879638671875" lon="-2.3627094738185405731201171875">
        <ele>1192.5999755859375</ele>
        <time>2022-04-17T11:44:28.000Z</time>
      </trkpt>
      <trkpt lat="42.9635383374989032745361328125" lon="-2.36270067282021045684814453125">
        <ele>1192.4000244140625</ele>
        <time>2022-04-17T11:44:29.000Z</time>
      </trkpt>
      <trkpt lat="42.96353138051927089691162109375" lon="-2.36269882880151271820068359375">
        <ele>1192.4000244140625</ele>
        <time>2022-04-17T11:44:30.000Z</time>
      </trkpt>
      <trkpt lat="42.9635314643383026123046875" lon="-2.36268885433673858642578125">
        <ele>1192.4000244140625</ele>
        <time>2022-04-17T11:44:31.000Z</time>
      </trkpt>
      <trkpt lat="42.96353347599506378173828125" lon="-2.3626762814819812774658203125">
        <ele>1192.4000244140625</ele>
        <time>2022-04-17T11:44:32.000Z</time>
      </trkpt>
      <trkpt lat="42.963528446853160858154296875" lon="-2.3626689054071903228759765625">
        <ele>1192.4000244140625</ele>
        <time>2022-04-17T11:44:33.000Z</time>
      </trkpt>
      <trkpt lat="42.96352408826351165771484375" lon="-2.36266312189400196075439453125">
        <ele>1192.199951171875</ele>
        <time>2022-04-17T11:44:34.000Z</time>
      </trkpt>
      <trkpt lat="42.9635255970060825347900390625" lon="-2.36265826039016246795654296875">
        <ele>1192.199951171875</ele>
        <time>2022-04-17T11:44:35.000Z</time>
      </trkpt>
      <trkpt lat="42.96352333389222621917724609375" lon="-2.362650297582149505615234375">
        <ele>1192.199951171875</ele>
        <time>2022-04-17T11:44:36.000Z</time>
      </trkpt>
      <trkpt lat="42.96351662836968898773193359375" lon="-2.36264166422188282012939453125">
        <ele>1192</ele>
        <time>2022-04-17T11:44:37.000Z</time>
      </trkpt>
      <trkpt lat="42.96351042576134204864501953125" lon="-2.3626347072422504425048828125">
        <ele>1192</ele>
        <time>2022-04-17T11:44:38.000Z</time>
      </trkpt>
      <trkpt lat="42.96350858174264430999755859375" lon="-2.3626278340816497802734375">
        <ele>1192</ele>
        <time>2022-04-17T11:44:39.000Z</time>
      </trkpt>
      <trkpt lat="42.96350774355232715606689453125" lon="-2.36262355931103229522705078125">
        <ele>1192</ele>
        <time>2022-04-17T11:44:40.000Z</time>
      </trkpt>
      <trkpt lat="42.96350531280040740966796875" lon="-2.36261777579784393310546875">
        <ele>1192</ele>
        <time>2022-04-17T11:44:41.000Z</time>
      </trkpt>
      <trkpt lat="42.96350053511559963226318359375" lon="-2.36260780133306980133056640625">
        <ele>1192</ele>
        <time>2022-04-17T11:44:42.000Z</time>
      </trkpt>
      <trkpt lat="42.9634967632591724395751953125" lon="-2.362592630088329315185546875">
        <ele>1192</ele>
        <time>2022-04-17T11:44:43.000Z</time>
      </trkpt>
      <trkpt lat="42.9634967632591724395751953125" lon="-2.36257477663457393646240234375">
        <ele>1192</ele>
        <time>2022-04-17T11:44:44.000Z</time>
      </trkpt>
      <trkpt lat="42.9634957574307918548583984375" lon="-2.362562455236911773681640625">
        <ele>1192</ele>
        <time>2022-04-17T11:44:45.000Z</time>
      </trkpt>
      <trkpt lat="42.96349617652595043182373046875" lon="-2.36255968920886516571044921875">
        <ele>1192</ele>
        <time>2022-04-17T11:44:46.000Z</time>
      </trkpt>
      <trkpt lat="42.96349802054464817047119140625" lon="-2.36255474388599395751953125">
        <ele>1191.800048828125</ele>
        <time>2022-04-17T11:44:47.000Z</time>
      </trkpt>
      <trkpt lat="42.9634974338114261627197265625" lon="-2.362547032535076141357421875">
        <ele>1191.800048828125</ele>
        <time>2022-04-17T11:44:48.000Z</time>
      </trkpt>
      <trkpt lat="42.9634887166321277618408203125" lon="-2.36254242248833179473876953125">
        <ele>1191.5999755859375</ele>
        <time>2022-04-17T11:44:49.000Z</time>
      </trkpt>
      <trkpt lat="42.96348175965249538421630859375" lon="-2.36253705807030200958251953125">
        <ele>1191.5999755859375</ele>
        <time>2022-04-17T11:44:50.000Z</time>
      </trkpt>
      <trkpt lat="42.9634763114154338836669921875" lon="-2.36252901144325733184814453125">
        <ele>1191.5999755859375</ele>
        <time>2022-04-17T11:44:51.000Z</time>
      </trkpt>
      <trkpt lat="42.963474802672863006591796875" lon="-2.3625187017023563385009765625">
        <ele>1191.5999755859375</ele>
        <time>2022-04-17T11:44:52.000Z</time>
      </trkpt>
      <trkpt lat="42.96347270719707012176513671875" lon="-2.36250671558082103729248046875">
        <ele>1191.5999755859375</ele>
        <time>2022-04-17T11:44:53.000Z</time>
      </trkpt>
      <trkpt lat="42.963472120463848114013671875" lon="-2.362490035593509674072265625">
        <ele>1191.4000244140625</ele>
        <time>2022-04-17T11:44:54.000Z</time>
      </trkpt>
      <trkpt lat="42.96347044408321380615234375" lon="-2.36247167922556400299072265625">
        <ele>1191.4000244140625</ele>
        <time>2022-04-17T11:44:55.000Z</time>
      </trkpt>
      <trkpt lat="42.9634665884077548980712890625" lon="-2.3624580167233943939208984375">
        <ele>1191.4000244140625</ele>
        <time>2022-04-17T11:44:56.000Z</time>
      </trkpt>
      <trkpt lat="42.96345192007720470428466796875" lon="-2.36243278719484806060791015625">
        <ele>1191.4000244140625</ele>
        <time>2022-04-17T11:44:57.000Z</time>
      </trkpt>
      <trkpt lat="42.963439263403415679931640625" lon="-2.36241484992206096649169921875">
        <ele>1191.4000244140625</ele>
        <time>2022-04-17T11:44:58.000Z</time>
      </trkpt>
      <trkpt lat="42.963432557880878448486328125" lon="-2.36240277998149394989013671875">
        <ele>1191.4000244140625</ele>
        <time>2022-04-17T11:44:59.000Z</time>
      </trkpt>
      <trkpt lat="42.96343465335667133331298828125" lon="-2.36239112913608551025390625">
        <ele>1191.199951171875</ele>
        <time>2022-04-17T11:45:00.000Z</time>
      </trkpt>
      <trkpt lat="42.9634333960711956024169921875" lon="-2.36237771809101104736328125">
        <ele>1191.199951171875</ele>
        <time>2022-04-17T11:45:01.000Z</time>
      </trkpt>
      <trkpt lat="42.96343046240508556365966796875" lon="-2.36236070282757282257080078125">
        <ele>1191.199951171875</ele>
        <time>2022-04-17T11:45:02.000Z</time>
      </trkpt>
      <trkpt lat="42.963433898985385894775390625" lon="-2.3623435199260711669921875">
        <ele>1191.199951171875</ele>
        <time>2022-04-17T11:45:03.000Z</time>
      </trkpt>
      <trkpt lat="42.96343079768121242523193359375" lon="-2.36232600174844264984130859375">
        <ele>1191</ele>
        <time>2022-04-17T11:45:04.000Z</time>
      </trkpt>
      <trkpt lat="42.96342618763446807861328125" lon="-2.36230739392340183258056640625">
        <ele>1191</ele>
        <time>2022-04-17T11:45:05.000Z</time>
      </trkpt>
      <trkpt lat="42.96341805718839168548583984375" lon="-2.36229599453508853912353515625">
        <ele>1191</ele>
        <time>2022-04-17T11:45:06.000Z</time>
      </trkpt>
      <trkpt lat="42.963409423828125" lon="-2.36228786408901214599609375">
        <ele>1190.800048828125</ele>
        <time>2022-04-17T11:45:07.000Z</time>
      </trkpt>
      <trkpt lat="42.96340447850525379180908203125" lon="-2.36226799897849559783935546875">
        <ele>1190.800048828125</ele>
        <time>2022-04-17T11:45:08.000Z</time>
      </trkpt>
      <trkpt lat="42.9633995331823825836181640625" lon="-2.36225157044827938079833984375">
        <ele>1190.5999755859375</ele>
        <time>2022-04-17T11:45:09.000Z</time>
      </trkpt>
      <trkpt lat="42.9634052328765392303466796875" lon="-2.36223899759352207183837890625">
        <ele>1190.5999755859375</ele>
        <time>2022-04-17T11:45:10.000Z</time>
      </trkpt>
      <trkpt lat="42.96340565197169780731201171875" lon="-2.3622335493564605712890625">
        <ele>1190.5999755859375</ele>
        <time>2022-04-17T11:45:11.000Z</time>
      </trkpt>
      <trkpt lat="42.9634092561900615692138671875" lon="-2.362217791378498077392578125">
        <ele>1190.4000244140625</ele>
        <time>2022-04-17T11:45:12.000Z</time>
      </trkpt>
      <trkpt lat="42.96341202221810817718505859375" lon="-2.36220379360020160675048828125">
        <ele>1190.4000244140625</ele>
        <time>2022-04-17T11:45:13.000Z</time>
      </trkpt>
      <trkpt lat="42.96342082321643829345703125" lon="-2.3621918074786663055419921875">
        <ele>1190.199951171875</ele>
        <time>2022-04-17T11:45:14.000Z</time>
      </trkpt>
      <trkpt lat="42.96342694200575351715087890625" lon="-2.36218250356614589691162109375">
        <ele>1190.199951171875</ele>
        <time>2022-04-17T11:45:15.000Z</time>
      </trkpt>
      <trkpt lat="42.9634253494441509246826171875" lon="-2.362174205482006072998046875">
        <ele>1190.199951171875</ele>
        <time>2022-04-17T11:45:16.000Z</time>
      </trkpt>
      <trkpt lat="42.96342845074832439422607421875" lon="-2.36216540448367595672607421875">
        <ele>1190</ele>
        <time>2022-04-17T11:45:17.000Z</time>
      </trkpt>
      <trkpt lat="42.96343666501343250274658203125" lon="-2.36215316690504550933837890625">
        <ele>1190</ele>
        <time>2022-04-17T11:45:18.000Z</time>
      </trkpt>
      <trkpt lat="42.96343959867954254150390625" lon="-2.36214310862123966217041015625">
        <ele>1190</ele>
        <time>2022-04-17T11:45:19.000Z</time>
      </trkpt>
      <trkpt lat="42.96342543326318264007568359375" lon="-2.3621388338506221771240234375">
        <ele>1190</ele>
        <time>2022-04-17T11:45:20.000Z</time>
      </trkpt>
      <trkpt lat="42.9634193144738674163818359375" lon="-2.36212282441556453704833984375">
        <ele>1189.800048828125</ele>
        <time>2022-04-17T11:45:21.000Z</time>
      </trkpt>
      <trkpt lat="42.9634119383990764617919921875" lon="-2.36211461015045642852783203125">
        <ele>1189.800048828125</ele>
        <time>2022-04-17T11:45:22.000Z</time>
      </trkpt>
      <trkpt lat="42.96340246684849262237548828125" lon="-2.3621039651334285736083984375">
        <ele>1189.800048828125</ele>
        <time>2022-04-17T11:45:23.000Z</time>
      </trkpt>
      <trkpt lat="42.96339995227754116058349609375" lon="-2.36210145056247711181640625">
        <ele>1189.800048828125</ele>
        <time>2022-04-17T11:45:24.000Z</time>
      </trkpt>
      <trkpt lat="42.9634000360965728759765625" lon="-2.36209399066865444183349609375">
        <ele>1189.800048828125</ele>
        <time>2022-04-17T11:45:25.000Z</time>
      </trkpt>
      <trkpt lat="42.9634042270481586456298828125" lon="-2.36207655631005764007568359375">
        <ele>1189.800048828125</ele>
        <time>2022-04-17T11:45:26.000Z</time>
      </trkpt>
      <trkpt lat="42.96340682543814182281494140625" lon="-2.3620627261698246002197265625">
        <ele>1189.800048828125</ele>
        <time>2022-04-17T11:45:27.000Z</time>
      </trkpt>
      <trkpt lat="42.963407747447490692138671875" lon="-2.36205308698117733001708984375">
        <ele>1189.800048828125</ele>
        <time>2022-04-17T11:45:28.000Z</time>
      </trkpt>
      <trkpt lat="42.96341202221810817718505859375" lon="-2.3620442859828472137451171875">
        <ele>1189.800048828125</ele>
        <time>2022-04-17T11:45:29.000Z</time>
      </trkpt>
      <trkpt lat="42.9634126089513301849365234375" lon="-2.362034060060977935791015625">
        <ele>1189.800048828125</ele>
        <time>2022-04-17T11:45:30.000Z</time>
      </trkpt>
      <trkpt lat="42.963414452970027923583984375" lon="-2.36201603896915912628173828125">
        <ele>1189.800048828125</ele>
        <time>2022-04-17T11:45:31.000Z</time>
      </trkpt>
      <trkpt lat="42.96341218985617160797119140625" lon="-2.36201168037950992584228515625">
        <ele>1189.800048828125</ele>
        <time>2022-04-17T11:45:32.000Z</time>
      </trkpt>
      <trkpt lat="42.963407747447490692138671875" lon="-2.362009584903717041015625">
        <ele>1189.800048828125</ele>
        <time>2022-04-17T11:45:33.000Z</time>
      </trkpt>
      <trkpt lat="42.96340699307620525360107421875" lon="-2.361999191343784332275390625">
        <ele>1189.800048828125</ele>
        <time>2022-04-17T11:45:34.000Z</time>
      </trkpt>
      <trkpt lat="42.96340716071426868438720703125" lon="-2.36199307255446910858154296875">
        <ele>1189.800048828125</ele>
        <time>2022-04-17T11:45:35.000Z</time>
      </trkpt>
      <trkpt lat="42.96340699307620525360107421875" lon="-2.361979074776172637939453125">
        <ele>1189.800048828125</ele>
        <time>2022-04-17T11:45:36.000Z</time>
      </trkpt>
      <trkpt lat="42.96340950764715671539306640625" lon="-2.36197161488234996795654296875">
        <ele>1189.800048828125</ele>
        <time>2022-04-17T11:45:37.000Z</time>
      </trkpt>
      <trkpt lat="42.96341369859874248504638671875" lon="-2.3619626462459564208984375">
        <ele>1189.800048828125</ele>
        <time>2022-04-17T11:45:38.000Z</time>
      </trkpt>
      <trkpt lat="42.96342157758772373199462890625" lon="-2.3619530908763408660888671875">
        <ele>1189.800048828125</ele>
        <time>2022-04-17T11:45:39.000Z</time>
      </trkpt>
      <trkpt lat="42.963429875671863555908203125" lon="-2.36192844808101654052734375">
        <ele>1189.800048828125</ele>
        <time>2022-04-17T11:45:40.000Z</time>
      </trkpt>
      <trkpt lat="42.96343515627086162567138671875" lon="-2.36191193573176860809326171875">
        <ele>1189.800048828125</ele>
        <time>2022-04-17T11:45:41.000Z</time>
      </trkpt>
      <trkpt lat="42.96343733556568622589111328125" lon="-2.3619091697037220001220703125">
        <ele>1189.800048828125</ele>
        <time>2022-04-17T11:45:42.000Z</time>
      </trkpt>
      <trkpt lat="42.96344018541276454925537109375" lon="-2.36189357936382293701171875">
        <ele>1189.800048828125</ele>
        <time>2022-04-17T11:45:43.000Z</time>
      </trkpt>
      <trkpt lat="42.96344554983079433441162109375" lon="-2.361882515251636505126953125">
        <ele>1189.5999755859375</ele>
        <time>2022-04-17T11:45:44.000Z</time>
      </trkpt>
      <trkpt lat="42.9634525068104267120361328125" lon="-2.36187103204429149627685546875">
        <ele>1189.5999755859375</ele>
        <time>2022-04-17T11:45:45.000Z</time>
      </trkpt>
      <trkpt lat="42.96345770359039306640625" lon="-2.36186005175113677978515625">
        <ele>1189.5999755859375</ele>
        <time>2022-04-17T11:45:46.000Z</time>
      </trkpt>
      <trkpt lat="42.96346239745616912841796875" lon="-2.3618541844189167022705078125">
        <ele>1189.199951171875</ele>
        <time>2022-04-17T11:45:47.000Z</time>
      </trkpt>
      <trkpt lat="42.96346583403646945953369140625" lon="-2.361848987638950347900390625">
        <ele>1189</ele>
        <time>2022-04-17T11:45:48.000Z</time>
      </trkpt>
      <trkpt lat="42.963471114635467529296875" lon="-2.3618387617170810699462890625">
        <ele>1189</ele>
        <time>2022-04-17T11:45:49.000Z</time>
      </trkpt>
      <trkpt lat="42.9634753055870532989501953125" lon="-2.3618307150900363922119140625">
        <ele>1188.800048828125</ele>
        <time>2022-04-17T11:45:50.000Z</time>
      </trkpt>
      <trkpt lat="42.9634776525199413299560546875" lon="-2.36182442866265773773193359375">
        <ele>1188.800048828125</ele>
        <time>2022-04-17T11:45:51.000Z</time>
      </trkpt>
      <trkpt lat="42.963479496538639068603515625" lon="-2.36181520856916904449462890625">
        <ele>1188.5999755859375</ele>
        <time>2022-04-17T11:45:52.000Z</time>
      </trkpt>
      <trkpt lat="42.963483519852161407470703125" lon="-2.3618012107908725738525390625">
        <ele>1188.4000244140625</ele>
        <time>2022-04-17T11:45:53.000Z</time>
      </trkpt>
      <trkpt lat="42.96348779462277889251708984375" lon="-2.36178838647902011871337890625">
        <ele>1188.4000244140625</ele>
        <time>2022-04-17T11:45:54.000Z</time>
      </trkpt>
      <trkpt lat="42.96347924508154392242431640625" lon="-2.3617629893124103546142578125">
        <ele>1188.199951171875</ele>
        <time>2022-04-17T11:45:55.000Z</time>
      </trkpt>
      <trkpt lat="42.96348117291927337646484375" lon="-2.36174681223928928375244140625">
        <ele>1188.199951171875</ele>
        <time>2022-04-17T11:45:56.000Z</time>
      </trkpt>
      <trkpt lat="42.96347823925316333770751953125" lon="-2.361737005412578582763671875">
        <ele>1188.199951171875</ele>
        <time>2022-04-17T11:45:57.000Z</time>
      </trkpt>
      <trkpt lat="42.9634642414748668670654296875" lon="-2.36173390410840511322021484375">
        <ele>1188.199951171875</ele>
        <time>2022-04-17T11:45:58.000Z</time>
      </trkpt>
      <trkpt lat="42.9634590446949005126953125" lon="-2.36172082833945751190185546875">
        <ele>1188</ele>
        <time>2022-04-17T11:45:59.000Z</time>
      </trkpt>
      <trkpt lat="42.9634565301239490509033203125" lon="-2.36170959658920764923095703125">
        <ele>1188</ele>
        <time>2022-04-17T11:46:00.000Z</time>
      </trkpt>
      <trkpt lat="42.9634598828852176666259765625" lon="-2.36169115640223026275634765625">
        <ele>1188</ele>
        <time>2022-04-17T11:46:01.000Z</time>
      </trkpt>
      <trkpt lat="42.96346868388354778289794921875" lon="-2.361667267978191375732421875">
        <ele>1187.800048828125</ele>
        <time>2022-04-17T11:46:02.000Z</time>
      </trkpt>
      <trkpt lat="42.96346935443580150604248046875" lon="-2.36165343783795833587646484375">
        <ele>1187.5999755859375</ele>
        <time>2022-04-17T11:46:03.000Z</time>
      </trkpt>
      <trkpt lat="42.96346432529389858245849609375" lon="-2.3616407811641693115234375">
        <ele>1187.5999755859375</ele>
        <time>2022-04-17T11:46:04.000Z</time>
      </trkpt>
      <trkpt lat="42.96346516348421573638916015625" lon="-2.36162535846233367919921875">
        <ele>1187.4000244140625</ele>
        <time>2022-04-17T11:46:05.000Z</time>
      </trkpt>
      <trkpt lat="42.9634697735309600830078125" lon="-2.36160750500857830047607421875">
        <ele>1187.4000244140625</ele>
        <time>2022-04-17T11:46:06.000Z</time>
      </trkpt>
      <trkpt lat="42.9634732939302921295166015625" lon="-2.36159007064998149871826171875">
        <ele>1187.4000244140625</ele>
        <time>2022-04-17T11:46:07.000Z</time>
      </trkpt>
      <trkpt lat="42.9634716175496578216552734375" lon="-2.3615792579948902130126953125">
        <ele>1187.4000244140625</ele>
        <time>2022-04-17T11:46:08.000Z</time>
      </trkpt>
      <trkpt lat="42.9634682647883892059326171875" lon="-2.36156911589205265045166015625">
        <ele>1187.4000244140625</ele>
        <time>2022-04-17T11:46:09.000Z</time>
      </trkpt>
      <trkpt lat="42.96346600167453289031982421875" lon="-2.36155352555215358734130859375">
        <ele>1187.4000244140625</ele>
        <time>2022-04-17T11:46:10.000Z</time>
      </trkpt>
      <trkpt lat="42.96346499584615230560302734375" lon="-2.36153944395482540130615234375">
        <ele>1187.199951171875</ele>
        <time>2022-04-17T11:46:11.000Z</time>
      </trkpt>
      <trkpt lat="42.963463403284549713134765625" lon="-2.36152268014848232269287109375">
        <ele>1187.199951171875</ele>
        <time>2022-04-17T11:46:12.000Z</time>
      </trkpt>
      <trkpt lat="42.963465414941310882568359375" lon="-2.36150926910340785980224609375">
        <ele>1187</ele>
        <time>2022-04-17T11:46:13.000Z</time>
      </trkpt>
      <trkpt lat="42.9634697735309600830078125" lon="-2.36150088720023632049560546875">
        <ele>1187</ele>
        <time>2022-04-17T11:46:14.000Z</time>
      </trkpt>
      <trkpt lat="42.9634776525199413299560546875" lon="-2.36148144118487834930419921875">
        <ele>1186.5999755859375</ele>
        <time>2022-04-17T11:46:15.000Z</time>
      </trkpt>
      <trkpt lat="42.96348142437636852264404296875" lon="-2.36146501265466213226318359375">
        <ele>1186.4000244140625</ele>
        <time>2022-04-17T11:46:16.000Z</time>
      </trkpt>
      <trkpt lat="42.9634907282888889312744140625" lon="-2.36145210452377796173095703125">
        <ele>1186.4000244140625</ele>
        <time>2022-04-17T11:46:17.000Z</time>
      </trkpt>
      <trkpt lat="42.96349936164915561676025390625" lon="-2.3614374361932277679443359375">
        <ele>1186.199951171875</ele>
        <time>2022-04-17T11:46:18.000Z</time>
      </trkpt>
      <trkpt lat="42.96350087039172649383544921875" lon="-2.36142125912010669708251953125">
        <ele>1186.199951171875</ele>
        <time>2022-04-17T11:46:19.000Z</time>
      </trkpt>
      <trkpt lat="42.96350204385817050933837890625" lon="-2.36140667460858821868896484375">
        <ele>1186.199951171875</ele>
        <time>2022-04-17T11:46:20.000Z</time>
      </trkpt>
      <trkpt lat="42.96350271441042423248291015625" lon="-2.36139544285833835601806640625">
        <ele>1186.199951171875</ele>
        <time>2022-04-17T11:46:21.000Z</time>
      </trkpt>
      <trkpt lat="42.96350103802978992462158203125" lon="-2.36138706095516681671142578125">
        <ele>1186.199951171875</ele>
        <time>2022-04-17T11:46:22.000Z</time>
      </trkpt>
      <trkpt lat="42.96349852345883846282958984375" lon="-2.36138404347002506256103515625">
        <ele>1186.199951171875</ele>
        <time>2022-04-17T11:46:23.000Z</time>
      </trkpt>
      <trkpt lat="42.96349450014531612396240234375" lon="-2.3613779246807098388671875">
        <ele>1186.199951171875</ele>
        <time>2022-04-17T11:46:24.000Z</time>
      </trkpt>
      <trkpt lat="42.9634893871843814849853515625" lon="-2.3613690398633480072021484375">
        <ele>1186</ele>
        <time>2022-04-17T11:46:25.000Z</time>
      </trkpt>
      <trkpt lat="42.963484860956668853759765625" lon="-2.36136057414114475250244140625">
        <ele>1185.800048828125</ele>
        <time>2022-04-17T11:46:26.000Z</time>
      </trkpt>
      <trkpt lat="42.9634820111095905303955078125" lon="-2.36135437153279781341552734375">
        <ele>1185.5999755859375</ele>
        <time>2022-04-17T11:46:27.000Z</time>
      </trkpt>
      <trkpt lat="42.96349517069756984710693359375" lon="-2.36132604070007801055908203125">
        <ele>1185.5999755859375</ele>
        <time>2022-04-17T11:46:28.000Z</time>
      </trkpt>
      <trkpt lat="42.963503636419773101806640625" lon="-2.3613029904663562774658203125">
        <ele>1185.5999755859375</ele>
        <time>2022-04-17T11:46:29.000Z</time>
      </trkpt>
      <trkpt lat="42.9634992778301239013671875" lon="-2.36128765158355236053466796875">
        <ele>1185.4000244140625</ele>
        <time>2022-04-17T11:46:30.000Z</time>
      </trkpt>
      <trkpt lat="42.96348963864147663116455078125" lon="-2.36127273179590702056884765625">
        <ele>1185.4000244140625</ele>
        <time>2022-04-17T11:46:31.000Z</time>
      </trkpt>
      <trkpt lat="42.9634831845760345458984375" lon="-2.36125764437019824981689453125">
        <ele>1185.4000244140625</ele>
        <time>2022-04-17T11:46:32.000Z</time>
      </trkpt>
      <trkpt lat="42.963477484881877899169921875" lon="-2.36124339513480663299560546875">
        <ele>1185.199951171875</ele>
        <time>2022-04-17T11:46:33.000Z</time>
      </trkpt>
      <trkpt lat="42.96348041854798793792724609375" lon="-2.3612357676029205322265625">
        <ele>1185.199951171875</ele>
        <time>2022-04-17T11:46:34.000Z</time>
      </trkpt>
      <trkpt lat="42.963480837643146514892578125" lon="-2.3612277209758758544921875">
        <ele>1185.199951171875</ele>
        <time>2022-04-17T11:46:35.000Z</time>
      </trkpt>
      <trkpt lat="42.96348092146217823028564453125" lon="-2.36121724359691143035888671875">
        <ele>1185.199951171875</ele>
        <time>2022-04-17T11:46:36.000Z</time>
      </trkpt>
      <trkpt lat="42.963482849299907684326171875" lon="-2.36120886169373989105224609375">
        <ele>1185.199951171875</ele>
        <time>2022-04-17T11:46:37.000Z</time>
      </trkpt>
      <trkpt lat="42.96348142437636852264404296875" lon="-2.36119260080158710479736328125">
        <ele>1185</ele>
        <time>2022-04-17T11:46:38.000Z</time>
      </trkpt>
      <trkpt lat="42.9634813405573368072509765625" lon="-2.36116670072078704833984375">
        <ele>1185</ele>
        <time>2022-04-17T11:46:39.000Z</time>
      </trkpt>
      <trkpt lat="42.9634831845760345458984375" lon="-2.3611474223434925079345703125">
        <ele>1185</ele>
        <time>2022-04-17T11:46:40.000Z</time>
      </trkpt>
      <trkpt lat="42.9634846933186054229736328125" lon="-2.36113375984132289886474609375">
        <ele>1185</ele>
        <time>2022-04-17T11:46:41.000Z</time>
      </trkpt>
      <trkpt lat="42.9634826816618442535400390625" lon="-2.36112018115818500518798828125">
        <ele>1185</ele>
        <time>2022-04-17T11:46:42.000Z</time>
      </trkpt>
      <trkpt lat="42.96347916126251220703125" lon="-2.36110894940793514251708984375">
        <ele>1185</ele>
        <time>2022-04-17T11:46:43.000Z</time>
      </trkpt>
      <trkpt lat="42.96347421593964099884033203125" lon="-2.361100651323795318603515625">
        <ele>1185</ele>
        <time>2022-04-17T11:46:44.000Z</time>
      </trkpt>
      <trkpt lat="42.96347237192094326019287109375" lon="-2.36108698882162570953369140625">
        <ele>1185.199951171875</ele>
        <time>2022-04-17T11:46:45.000Z</time>
      </trkpt>
      <trkpt lat="42.96347136609256267547607421875" lon="-2.36107776872813701629638671875">
        <ele>1185.199951171875</ele>
        <time>2022-04-17T11:46:46.000Z</time>
      </trkpt>
      <trkpt lat="42.96346801333129405975341796875" lon="-2.36106921918690204620361328125">
        <ele>1185.199951171875</ele>
        <time>2022-04-17T11:46:47.000Z</time>
      </trkpt>
      <trkpt lat="42.9634675942361354827880859375" lon="-2.3610552214086055755615234375">
        <ele>1185.199951171875</ele>
        <time>2022-04-17T11:46:48.000Z</time>
      </trkpt>
      <trkpt lat="42.9634699411690235137939453125" lon="-2.361042313277721405029296875">
        <ele>1185.199951171875</ele>
        <time>2022-04-17T11:46:49.000Z</time>
      </trkpt>
      <trkpt lat="42.9634702764451503753662109375" lon="-2.36102932132780551910400390625">
        <ele>1185.199951171875</ele>
        <time>2022-04-17T11:46:50.000Z</time>
      </trkpt>
      <trkpt lat="42.96346650458872318267822265625" lon="-2.36101440154016017913818359375">
        <ele>1185</ele>
        <time>2022-04-17T11:46:51.000Z</time>
      </trkpt>
      <trkpt lat="42.963456697762012481689453125" lon="-2.36099663190543651580810546875">
        <ele>1185</ele>
        <time>2022-04-17T11:46:52.000Z</time>
      </trkpt>
      <trkpt lat="42.96345192007720470428466796875" lon="-2.3609760962426662445068359375">
        <ele>1184.800048828125</ele>
        <time>2022-04-17T11:46:53.000Z</time>
      </trkpt>
      <trkpt lat="42.96344907023012638092041015625" lon="-2.36096017062664031982421875">
        <ele>1184.800048828125</ele>
        <time>2022-04-17T11:46:54.000Z</time>
      </trkpt>
      <trkpt lat="42.9634491540491580963134765625" lon="-2.3609445802867412567138671875">
        <ele>1184.5999755859375</ele>
        <time>2022-04-17T11:46:55.000Z</time>
      </trkpt>
      <trkpt lat="42.96345074661076068878173828125" lon="-2.36092303879559040069580078125">
        <ele>1184.5999755859375</ele>
        <time>2022-04-17T11:46:56.000Z</time>
      </trkpt>
      <trkpt lat="42.9634561948478221893310546875" lon="-2.36090183258056640625">
        <ele>1184.5999755859375</ele>
        <time>2022-04-17T11:46:57.000Z</time>
      </trkpt>
      <trkpt lat="42.9634679295122623443603515625" lon="-2.360880710184574127197265625">
        <ele>1184.4000244140625</ele>
        <time>2022-04-17T11:46:58.000Z</time>
      </trkpt>
      <trkpt lat="42.963472791016101837158203125" lon="-2.36086654476821422576904296875">
        <ele>1184.4000244140625</ele>
        <time>2022-04-17T11:46:59.000Z</time>
      </trkpt>
      <trkpt lat="42.9634726233780384063720703125" lon="-2.36085816286504268646240234375">
        <ele>1184.4000244140625</ele>
        <time>2022-04-17T11:47:00.000Z</time>
      </trkpt>
      <trkpt lat="42.963469438254833221435546875" lon="-2.36085548065602779388427734375">
        <ele>1184.4000244140625</ele>
        <time>2022-04-17T11:47:01.000Z</time>
      </trkpt>
      <trkpt lat="42.96346373856067657470703125" lon="-2.36085179261863231658935546875">
        <ele>1184.5999755859375</ele>
        <time>2022-04-17T11:47:02.000Z</time>
      </trkpt>
      <trkpt lat="42.96346399001777172088623046875" lon="-2.36083678901195526123046875">
        <ele>1184.5999755859375</ele>
        <time>2022-04-17T11:47:03.000Z</time>
      </trkpt>
      <trkpt lat="42.9634595476090908050537109375" lon="-2.3608191870152950286865234375">
        <ele>1184.5999755859375</ele>
        <time>2022-04-17T11:47:04.000Z</time>
      </trkpt>
      <trkpt lat="42.9634561948478221893310546875" lon="-2.36080326139926910400390625">
        <ele>1184.5999755859375</ele>
        <time>2022-04-17T11:47:05.000Z</time>
      </trkpt>
      <trkpt lat="42.9634538479149341583251953125" lon="-2.36079253256320953369140625">
        <ele>1184.800048828125</ele>
        <time>2022-04-17T11:47:06.000Z</time>
      </trkpt>
      <trkpt lat="42.96345435082912445068359375" lon="-2.3607789538800716400146484375">
        <ele>1184.800048828125</ele>
        <time>2022-04-17T11:47:07.000Z</time>
      </trkpt>
      <trkpt lat="42.96345376409590244293212890625" lon="-2.36076562665402889251708984375">
        <ele>1184.800048828125</ele>
        <time>2022-04-17T11:47:08.000Z</time>
      </trkpt>
      <trkpt lat="42.96345141716301441192626953125" lon="-2.3607551492750644683837890625">
        <ele>1185</ele>
        <time>2022-04-17T11:47:09.000Z</time>
      </trkpt>
      <trkpt lat="42.96344873495399951934814453125" lon="-2.3607457615435123443603515625">
        <ele>1185</ele>
        <time>2022-04-17T11:47:10.000Z</time>
      </trkpt>
      <trkpt lat="42.96344739384949207305908203125" lon="-2.36073310486972332000732421875">
        <ele>1185.199951171875</ele>
        <time>2022-04-17T11:47:11.000Z</time>
      </trkpt>
      <trkpt lat="42.96344823203980922698974609375" lon="-2.360721789300441741943359375">
        <ele>1185.199951171875</ele>
        <time>2022-04-17T11:47:12.000Z</time>
      </trkpt>
      <trkpt lat="42.96344806440174579620361328125" lon="-2.36071198247373104095458984375">
        <ele>1185.199951171875</ele>
        <time>2022-04-17T11:47:13.000Z</time>
      </trkpt>
      <trkpt lat="42.96344437636435031890869140625" lon="-2.36069756560027599334716796875">
        <ele>1185.4000244140625</ele>
        <time>2022-04-17T11:47:14.000Z</time>
      </trkpt>
      <trkpt lat="42.96345175243914127349853515625" lon="-2.36067694611847400665283203125">
        <ele>1185.4000244140625</ele>
        <time>2022-04-17T11:47:15.000Z</time>
      </trkpt>
      <trkpt lat="42.96345761977136135101318359375" lon="-2.360656745731830596923828125">
        <ele>1185.4000244140625</ele>
        <time>2022-04-17T11:47:16.000Z</time>
      </trkpt>
      <trkpt lat="42.96346566639840602874755859375" lon="-2.360641993582248687744140625">
        <ele>1185.5999755859375</ele>
        <time>2022-04-17T11:47:17.000Z</time>
      </trkpt>
      <trkpt lat="42.96347119845449924468994140625" lon="-2.3606170155107975006103515625">
        <ele>1185.5999755859375</ele>
        <time>2022-04-17T11:47:18.000Z</time>
      </trkpt>
      <trkpt lat="42.963474132120609283447265625" lon="-2.360592372715473175048828125">
        <ele>1185.5999755859375</ele>
        <time>2022-04-17T11:47:19.000Z</time>
      </trkpt>
      <trkpt lat="42.9634753055870532989501953125" lon="-2.3605834878981113433837890625">
        <ele>1185.800048828125</ele>
        <time>2022-04-17T11:47:20.000Z</time>
      </trkpt>
      <trkpt lat="42.9634746350347995758056640625" lon="-2.36057032831013202667236328125">
        <ele>1186</ele>
        <time>2022-04-17T11:47:21.000Z</time>
      </trkpt>
      <trkpt lat="42.963450662791728973388671875" lon="-2.36055557616055011749267578125">
        <ele>1186</ele>
        <time>2022-04-17T11:47:22.000Z</time>
      </trkpt>
      <trkpt lat="42.96343800611793994903564453125" lon="-2.3605469428002834320068359375">
        <ele>1186</ele>
        <time>2022-04-17T11:47:23.000Z</time>
      </trkpt>
      <trkpt lat="42.963430546224117279052734375" lon="-2.3605251498520374298095703125">
        <ele>1186</ele>
        <time>2022-04-17T11:47:24.000Z</time>
      </trkpt>
      <trkpt lat="42.96342744491994380950927734375" lon="-2.3605070449411869049072265625">
        <ele>1186.199951171875</ele>
        <time>2022-04-17T11:47:25.000Z</time>
      </trkpt>
      <trkpt lat="42.9634268581867218017578125" lon="-2.36050109378993511199951171875">
        <ele>1186.199951171875</ele>
        <time>2022-04-17T11:47:26.000Z</time>
      </trkpt>
      <trkpt lat="42.96342643909156322479248046875" lon="-2.3605033569037914276123046875">
        <ele>1186</ele>
        <time>2022-04-17T11:47:27.000Z</time>
      </trkpt>
      <trkpt lat="42.963427193462848663330078125" lon="-2.36049480736255645751953125">
        <ele>1186</ele>
        <time>2022-04-17T11:47:28.000Z</time>
      </trkpt>
      <trkpt lat="42.963429205119609832763671875" lon="-2.3604869283735752105712890625">
        <ele>1186</ele>
        <time>2022-04-17T11:47:29.000Z</time>
      </trkpt>
      <trkpt lat="42.96342995949089527130126953125" lon="-2.36048248596489429473876953125">
        <ele>1186</ele>
        <time>2022-04-17T11:47:30.000Z</time>
      </trkpt>
      <trkpt lat="42.963427193462848663330078125" lon="-2.36047997139394283294677734375">
        <ele>1186</ele>
        <time>2022-04-17T11:47:31.000Z</time>
      </trkpt>
      <trkpt lat="42.96342660672962665557861328125" lon="-2.3604767024517059326171875">
        <ele>1185.800048828125</ele>
        <time>2022-04-17T11:47:32.000Z</time>
      </trkpt>
      <trkpt lat="42.96343280933797359466552734375" lon="-2.36046806909143924713134765625">
        <ele>1185.800048828125</ele>
        <time>2022-04-17T11:47:33.000Z</time>
      </trkpt>
      <trkpt lat="42.96343867667019367218017578125" lon="-2.36045683734118938446044921875">
        <ele>1185.5999755859375</ele>
        <time>2022-04-17T11:47:34.000Z</time>
      </trkpt>
      <trkpt lat="42.96344202943146228790283203125" lon="-2.36044728197157382965087890625">
        <ele>1185.4000244140625</ele>
        <time>2022-04-17T11:47:35.000Z</time>
      </trkpt>
      <trkpt lat="42.96344018541276454925537109375" lon="-2.36043890006840229034423828125">
        <ele>1185.199951171875</ele>
        <time>2022-04-17T11:47:36.000Z</time>
      </trkpt>
      <trkpt lat="42.96343901194632053375244140625" lon="-2.360432446002960205078125">
        <ele>1185</ele>
        <time>2022-04-17T11:47:37.000Z</time>
      </trkpt>
      <trkpt lat="42.96344219706952571868896484375" lon="-2.360422052443027496337890625">
        <ele>1184.800048828125</ele>
        <time>2022-04-17T11:47:38.000Z</time>
      </trkpt>
      <trkpt lat="42.96344269998371601104736328125" lon="-2.3604096472263336181640625">
        <ele>1184.800048828125</ele>
        <time>2022-04-17T11:47:39.000Z</time>
      </trkpt>
      <trkpt lat="42.963444627821445465087890625" lon="-2.3604027740657329559326171875">
        <ele>1184.800048828125</ele>
        <time>2022-04-17T11:47:40.000Z</time>
      </trkpt>
      <trkpt lat="42.96344907023012638092041015625" lon="-2.360390536487102508544921875">
        <ele>1184.5999755859375</ele>
        <time>2022-04-17T11:47:41.000Z</time>
      </trkpt>
      <trkpt lat="42.963455021381378173828125" lon="-2.3603756166994571685791015625">
        <ele>1184.5999755859375</ele>
        <time>2022-04-17T11:47:42.000Z</time>
      </trkpt>
      <trkpt lat="42.963458709418773651123046875" lon="-2.3603648878633975982666015625">
        <ele>1184.5999755859375</ele>
        <time>2022-04-17T11:47:43.000Z</time>
      </trkpt>
      <trkpt lat="42.96346248127520084381103515625" lon="-2.36035323701798915863037109375">
        <ele>1184.5999755859375</ele>
        <time>2022-04-17T11:47:44.000Z</time>
      </trkpt>
      <trkpt lat="42.9634645767509937286376953125" lon="-2.3603372275829315185546875">
        <ele>1184.199951171875</ele>
        <time>2022-04-17T11:47:45.000Z</time>
      </trkpt>
      <trkpt lat="42.9634659178555011749267578125" lon="-2.3603233136236667633056640625">
        <ele>1184.199951171875</ele>
        <time>2022-04-17T11:47:46.000Z</time>
      </trkpt>
      <trkpt lat="42.96346717514097690582275390625" lon="-2.36030831001698970794677734375">
        <ele>1184</ele>
        <time>2022-04-17T11:47:47.000Z</time>
      </trkpt>
      <trkpt lat="42.9634722881019115447998046875" lon="-2.36027427949011325836181640625">
        <ele>1183.5999755859375</ele>
        <time>2022-04-17T11:47:48.000Z</time>
      </trkpt>
      <trkpt lat="42.9634769819676876068115234375" lon="-2.36025466583669185638427734375">
        <ele>1183.199951171875</ele>
        <time>2022-04-17T11:47:49.000Z</time>
      </trkpt>
      <trkpt lat="42.96347689814865589141845703125" lon="-2.36023999750614166259765625">
        <ele>1183</ele>
        <time>2022-04-17T11:47:50.000Z</time>
      </trkpt>
      <trkpt lat="42.9634793289005756378173828125" lon="-2.360226921737194061279296875">
        <ele>1182.800048828125</ele>
        <time>2022-04-17T11:47:51.000Z</time>
      </trkpt>
      <trkpt lat="42.963481508195400238037109375" lon="-2.360208816826343536376953125">
        <ele>1182.800048828125</ele>
        <time>2022-04-17T11:47:52.000Z</time>
      </trkpt>
      <trkpt lat="42.96347119845449924468994140625" lon="-2.36020102165639400482177734375">
        <ele>1182.5999755859375</ele>
        <time>2022-04-17T11:47:53.000Z</time>
      </trkpt>
      <trkpt lat="42.96346952207386493682861328125" lon="-2.36018492840230464935302734375">
        <ele>1182.5999755859375</ele>
        <time>2022-04-17T11:47:54.000Z</time>
      </trkpt>
      <trkpt lat="42.96346901915967464447021484375" lon="-2.36017026007175445556640625">
        <ele>1182.5999755859375</ele>
        <time>2022-04-17T11:47:55.000Z</time>
      </trkpt>
      <trkpt lat="42.9634639061987400054931640625" lon="-2.3601600341498851776123046875">
        <ele>1182.4000244140625</ele>
        <time>2022-04-17T11:47:56.000Z</time>
      </trkpt>
      <trkpt lat="42.96345896087586879730224609375" lon="-2.36014955677092075347900390625">
        <ele>1182.4000244140625</ele>
        <time>2022-04-17T11:47:57.000Z</time>
      </trkpt>
      <trkpt lat="42.9634561948478221893310546875" lon="-2.3601425997912883758544921875">
        <ele>1182.4000244140625</ele>
        <time>2022-04-17T11:47:58.000Z</time>
      </trkpt>
      <trkpt lat="42.963456697762012481689453125" lon="-2.360130362212657928466796875">
        <ele>1182.199951171875</ele>
        <time>2022-04-17T11:47:59.000Z</time>
      </trkpt>
      <trkpt lat="42.96346013434231281280517578125" lon="-2.36012239940464496612548828125">
        <ele>1182.199951171875</ele>
        <time>2022-04-17T11:48:00.000Z</time>
      </trkpt>
      <trkpt lat="42.96346298418939113616943359375" lon="-2.360117621719837188720703125">
        <ele>1182.199951171875</ele>
        <time>2022-04-17T11:48:01.000Z</time>
      </trkpt>
      <trkpt lat="42.96346264891326427459716796875" lon="-2.360114268958568572998046875">
        <ele>1182.199951171875</ele>
        <time>2022-04-17T11:48:02.000Z</time>
      </trkpt>
      <trkpt lat="42.963454686105251312255859375" lon="-2.36010898835957050323486328125">
        <ele>1182.199951171875</ele>
        <time>2022-04-17T11:48:03.000Z</time>
      </trkpt>
      <trkpt lat="42.96345510520040988922119140625" lon="-2.360096834599971771240234375">
        <ele>1182.4000244140625</ele>
        <time>2022-04-17T11:48:04.000Z</time>
      </trkpt>
      <trkpt lat="42.9634568654000759124755859375" lon="-2.360083758831024169921875">
        <ele>1182.4000244140625</ele>
        <time>2022-04-17T11:48:05.000Z</time>
      </trkpt>
      <trkpt lat="42.96346264891326427459716796875" lon="-2.3600663244724273681640625">
        <ele>1182.4000244140625</ele>
        <time>2022-04-17T11:48:06.000Z</time>
      </trkpt>
      <trkpt lat="42.96346516348421573638916015625" lon="-2.36004629172384738922119140625">
        <ele>1182.4000244140625</ele>
        <time>2022-04-17T11:48:07.000Z</time>
      </trkpt>
      <trkpt lat="42.96346985734999179840087890625" lon="-2.360029779374599456787109375">
        <ele>1182.5999755859375</ele>
        <time>2022-04-17T11:48:08.000Z</time>
      </trkpt>
      <trkpt lat="42.96347522176802158355712890625" lon="-2.36000798642635345458984375">
        <ele>1182.4000244140625</ele>
        <time>2022-04-17T11:48:09.000Z</time>
      </trkpt>
      <trkpt lat="42.96347916126251220703125" lon="-2.3599940724670886993408203125">
        <ele>1182.4000244140625</ele>
        <time>2022-04-17T11:48:10.000Z</time>
      </trkpt>
      <trkpt lat="42.9634826816618442535400390625" lon="-2.359976805746555328369140625">
        <ele>1182.199951171875</ele>
        <time>2022-04-17T11:48:11.000Z</time>
      </trkpt>
      <trkpt lat="42.96348829753696918487548828125" lon="-2.35995744355022907257080078125">
        <ele>1182.199951171875</ele>
        <time>2022-04-17T11:48:12.000Z</time>
      </trkpt>
      <trkpt lat="42.9634924046695232391357421875" lon="-2.35993330366909503936767578125">
        <ele>1182.199951171875</ele>
        <time>2022-04-17T11:48:13.000Z</time>
      </trkpt>
      <trkpt lat="42.96350321732461452484130859375" lon="-2.35990245826542377471923828125">
        <ele>1182</ele>
        <time>2022-04-17T11:48:14.000Z</time>
      </trkpt>
      <trkpt lat="42.96351134777069091796875" lon="-2.359874211251735687255859375">
        <ele>1182</ele>
        <time>2022-04-17T11:48:15.000Z</time>
      </trkpt>
      <trkpt lat="42.963510341942310333251953125" lon="-2.35985904000699520111083984375">
        <ele>1182</ele>
        <time>2022-04-17T11:48:16.000Z</time>
      </trkpt>
      <trkpt lat="42.96350506134331226348876953125" lon="-2.35985216684639453887939453125">
        <ele>1182</ele>
        <time>2022-04-17T11:48:17.000Z</time>
      </trkpt>
      <trkpt lat="42.9635019600391387939453125" lon="-2.35984495840966701507568359375">
        <ele>1182</ele>
        <time>2022-04-17T11:48:18.000Z</time>
      </trkpt>
      <trkpt lat="42.96350372023880481719970703125" lon="-2.3598334752023220062255859375">
        <ele>1181.800048828125</ele>
        <time>2022-04-17T11:48:19.000Z</time>
      </trkpt>
      <trkpt lat="42.96350799500942230224609375" lon="-2.35981964506208896636962890625">
        <ele>1181.800048828125</ele>
        <time>2022-04-17T11:48:20.000Z</time>
      </trkpt>
      <trkpt lat="42.96352031640708446502685546875" lon="-2.3598043061792850494384765625">
        <ele>1181.800048828125</ele>
        <time>2022-04-17T11:48:21.000Z</time>
      </trkpt>
      <trkpt lat="42.96352534554898738861083984375" lon="-2.3597838543355464935302734375">
        <ele>1181.800048828125</ele>
        <time>2022-04-17T11:48:22.000Z</time>
      </trkpt>
      <trkpt lat="42.96352232806384563446044921875" lon="-2.35977438278496265411376953125">
        <ele>1181.800048828125</ele>
        <time>2022-04-17T11:48:23.000Z</time>
      </trkpt>
      <trkpt lat="42.963520400226116180419921875" lon="-2.35976197756826877593994140625">
        <ele>1181.800048828125</ele>
        <time>2022-04-17T11:48:24.000Z</time>
      </trkpt>
      <trkpt lat="42.96352165751159191131591796875" lon="-2.359746806323528289794921875">
        <ele>1181.800048828125</ele>
        <time>2022-04-17T11:48:25.000Z</time>
      </trkpt>
      <trkpt lat="42.9635245911777019500732421875" lon="-2.3597332276403903961181640625">
        <ele>1181.5999755859375</ele>
        <time>2022-04-17T11:48:26.000Z</time>
      </trkpt>
      <trkpt lat="42.96352718956768512725830078125" lon="-2.3597181402146816253662109375">
        <ele>1181.5999755859375</ele>
        <time>2022-04-17T11:48:27.000Z</time>
      </trkpt>
      <trkpt lat="42.96352920122444629669189453125" lon="-2.35970280133187770843505859375">
        <ele>1181.4000244140625</ele>
        <time>2022-04-17T11:48:28.000Z</time>
      </trkpt>
      <trkpt lat="42.96353087760508060455322265625" lon="-2.35969190485775470733642578125">
        <ele>1181.4000244140625</ele>
        <time>2022-04-17T11:48:29.000Z</time>
      </trkpt>
      <trkpt lat="42.96353079378604888916015625" lon="-2.359685786068439483642578125">
        <ele>1181.4000244140625</ele>
        <time>2022-04-17T11:48:30.000Z</time>
      </trkpt>
      <trkpt lat="42.96353188343346118927001953125" lon="-2.3596725426614284515380859375">
        <ele>1181.4000244140625</ele>
        <time>2022-04-17T11:48:31.000Z</time>
      </trkpt>
      <trkpt lat="42.9635222442448139190673828125" lon="-2.35964714549481868743896484375">
        <ele>1181.4000244140625</ele>
        <time>2022-04-17T11:48:32.000Z</time>
      </trkpt>
      <trkpt lat="42.963514029979705810546875" lon="-2.35962577164173126220703125">
        <ele>1181.4000244140625</ele>
        <time>2022-04-17T11:48:33.000Z</time>
      </trkpt>
      <trkpt lat="42.9635031335055828094482421875" lon="-2.359612695872783660888671875">
        <ele>1181.4000244140625</ele>
        <time>2022-04-17T11:48:34.000Z</time>
      </trkpt>
      <trkpt lat="42.96350036747753620147705078125" lon="-2.35959417186677455902099609375">
        <ele>1181.199951171875</ele>
        <time>2022-04-17T11:48:35.000Z</time>
      </trkpt>
      <trkpt lat="42.96350221149623394012451171875" lon="-2.35956265591084957122802734375">
        <ele>1181.199951171875</ele>
        <time>2022-04-17T11:48:36.000Z</time>
      </trkpt>
      <trkpt lat="42.96349399723112583160400390625" lon="-2.35954874195158481597900390625">
        <ele>1181.199951171875</ele>
        <time>2022-04-17T11:48:37.000Z</time>
      </trkpt>
      <trkpt lat="42.9634836874902248382568359375" lon="-2.359538935124874114990234375">
        <ele>1181.199951171875</ele>
        <time>2022-04-17T11:48:38.000Z</time>
      </trkpt>
      <trkpt lat="42.9634712822735309600830078125" lon="-2.35952979885041713714599609375">
        <ele>1181.199951171875</ele>
        <time>2022-04-17T11:48:39.000Z</time>
      </trkpt>
      <trkpt lat="42.96346499584615230560302734375" lon="-2.35952141694724559783935546875">
        <ele>1181.199951171875</ele>
        <time>2022-04-17T11:48:40.000Z</time>
      </trkpt>
      <trkpt lat="42.963459379971027374267578125" lon="-2.359516806900501251220703125">
        <ele>1181.4000244140625</ele>
        <time>2022-04-17T11:48:41.000Z</time>
      </trkpt>
      <trkpt lat="42.96345326118171215057373046875" lon="-2.3595129512250423431396484375">
        <ele>1181.4000244140625</ele>
        <time>2022-04-17T11:48:42.000Z</time>
      </trkpt>
      <trkpt lat="42.96344974078238010406494140625" lon="-2.35950800590217113494873046875">
        <ele>1181.5999755859375</ele>
        <time>2022-04-17T11:48:43.000Z</time>
      </trkpt>
      <trkpt lat="42.9634498246014118194580078125" lon="-2.3594884760677814483642578125">
        <ele>1181.5999755859375</ele>
        <time>2022-04-17T11:48:44.000Z</time>
      </trkpt>
      <trkpt lat="42.96344437636435031890869140625" lon="-2.3594787530601024627685546875">
        <ele>1181.5999755859375</ele>
        <time>2022-04-17T11:48:45.000Z</time>
      </trkpt>
      <trkpt lat="42.96344068832695484161376953125" lon="-2.3594633303582668304443359375">
        <ele>1181.800048828125</ele>
        <time>2022-04-17T11:48:46.000Z</time>
      </trkpt>
      <trkpt lat="42.963437922298908233642578125" lon="-2.35944514162838459014892578125">
        <ele>1181.800048828125</ele>
        <time>2022-04-17T11:48:47.000Z</time>
      </trkpt>
      <trkpt lat="42.96343297697603702545166015625" lon="-2.35942988656461238861083984375">
        <ele>1182</ele>
        <time>2022-04-17T11:48:48.000Z</time>
      </trkpt>
      <trkpt lat="42.96343180350959300994873046875" lon="-2.359390072524547576904296875">
        <ele>1182</ele>
        <time>2022-04-17T11:48:49.000Z</time>
      </trkpt>
      <trkpt lat="42.96343247406184673309326171875" lon="-2.3593671061098575592041015625">
        <ele>1182.199951171875</ele>
        <time>2022-04-17T11:48:50.000Z</time>
      </trkpt>
      <trkpt lat="42.963430546224117279052734375" lon="-2.35935478471219539642333984375">
        <ele>1182</ele>
        <time>2022-04-17T11:48:51.000Z</time>
      </trkpt>
      <trkpt lat="42.96343750320374965667724609375" lon="-2.35935294069349765777587890625">
        <ele>1182</ele>
        <time>2022-04-17T11:48:52.000Z</time>
      </trkpt>
      <trkpt lat="42.96342995949089527130126953125" lon="-2.3593479953706264495849609375">
        <ele>1182</ele>
        <time>2022-04-17T11:48:53.000Z</time>
      </trkpt>
      <trkpt lat="42.96342140994966030120849609375" lon="-2.35933735035359859466552734375">
        <ele>1182</ele>
        <time>2022-04-17T11:48:54.000Z</time>
      </trkpt>
      <trkpt lat="42.9634209908545017242431640625" lon="-2.359325028955936431884765625">
        <ele>1182</ele>
        <time>2022-04-17T11:48:55.000Z</time>
      </trkpt>
      <trkpt lat="42.96341671608388423919677734375" lon="-2.35931396484375">
        <ele>1182</ele>
        <time>2022-04-17T11:48:56.000Z</time>
      </trkpt>
      <trkpt lat="42.963407747447490692138671875" lon="-2.3593034036457538604736328125">
        <ele>1182</ele>
        <time>2022-04-17T11:48:57.000Z</time>
      </trkpt>
      <trkpt lat="42.9634052328765392303466796875" lon="-2.3592884838581085205078125">
        <ele>1182</ele>
        <time>2022-04-17T11:48:58.000Z</time>
      </trkpt>
      <trkpt lat="42.9634027183055877685546875" lon="-2.359276749193668365478515625">
        <ele>1181.800048828125</ele>
        <time>2022-04-17T11:48:59.000Z</time>
      </trkpt>
      <trkpt lat="42.963386960327625274658203125" lon="-2.359255962073802947998046875">
        <ele>1181.800048828125</ele>
        <time>2022-04-17T11:49:00.000Z</time>
      </trkpt>
      <trkpt lat="42.96337698586285114288330078125" lon="-2.35924783162772655487060546875">
        <ele>1181.800048828125</ele>
        <time>2022-04-17T11:49:01.000Z</time>
      </trkpt>
      <trkpt lat="42.9633743874728679656982421875" lon="-2.35923408530652523040771484375">
        <ele>1181.5999755859375</ele>
        <time>2022-04-17T11:49:02.000Z</time>
      </trkpt>
      <trkpt lat="42.96337547712028026580810546875" lon="-2.35922318883240222930908203125">
        <ele>1181.5999755859375</ele>
        <time>2022-04-17T11:49:03.000Z</time>
      </trkpt>
      <trkpt lat="42.9633713699877262115478515625" lon="-2.35921405255794525146484375">
        <ele>1181.5999755859375</ele>
        <time>2022-04-17T11:49:04.000Z</time>
      </trkpt>
      <trkpt lat="42.96336944214999675750732421875" lon="-2.35920391045510768890380859375">
        <ele>1181.5999755859375</ele>
        <time>2022-04-17T11:49:05.000Z</time>
      </trkpt>
      <trkpt lat="42.96337178908288478851318359375" lon="-2.35919217579066753387451171875">
        <ele>1181.5999755859375</ele>
        <time>2022-04-17T11:49:06.000Z</time>
      </trkpt>
      <trkpt lat="42.96337480656802654266357421875" lon="-2.3591759987175464630126953125">
        <ele>1181.5999755859375</ele>
        <time>2022-04-17T11:49:07.000Z</time>
      </trkpt>
      <trkpt lat="42.9633720405399799346923828125" lon="-2.35916418023407459259033203125">
        <ele>1181.5999755859375</ele>
        <time>2022-04-17T11:49:08.000Z</time>
      </trkpt>
      <trkpt lat="42.96336675994098186492919921875" lon="-2.35915009863674640655517578125">
        <ele>1181.5999755859375</ele>
        <time>2022-04-17T11:49:09.000Z</time>
      </trkpt>
      <trkpt lat="42.96336290426552295684814453125" lon="-2.3591387830674648284912109375">
        <ele>1181.5999755859375</ele>
        <time>2022-04-17T11:49:10.000Z</time>
      </trkpt>
      <trkpt lat="42.96335485763847827911376953125" lon="-2.3591337539255619049072265625">
        <ele>1181.5999755859375</ele>
        <time>2022-04-17T11:49:11.000Z</time>
      </trkpt>
      <trkpt lat="42.9633571207523345947265625" lon="-2.35912160016596317291259765625">
        <ele>1181.5999755859375</ele>
        <time>2022-04-17T11:49:12.000Z</time>
      </trkpt>
      <trkpt lat="42.9633609764277935028076171875" lon="-2.35910299234092235565185546875">
        <ele>1181.5999755859375</ele>
        <time>2022-04-17T11:49:13.000Z</time>
      </trkpt>
      <trkpt lat="42.963355444371700286865234375" lon="-2.3590864799916744232177734375">
        <ele>1181.5999755859375</ele>
        <time>2022-04-17T11:49:14.000Z</time>
      </trkpt>
      <trkpt lat="42.96334748156368732452392578125" lon="-2.35907399095594882965087890625">
        <ele>1181.4000244140625</ele>
        <time>2022-04-17T11:49:15.000Z</time>
      </trkpt>
      <trkpt lat="42.963348068296909332275390625" lon="-2.3590603284537792205810546875">
        <ele>1181.199951171875</ele>
        <time>2022-04-17T11:49:16.000Z</time>
      </trkpt>
      <trkpt lat="42.96335016377270221710205078125" lon="-2.35904733650386333465576171875">
        <ele>1181</ele>
        <time>2022-04-17T11:49:17.000Z</time>
      </trkpt>
      <trkpt lat="42.96335049904882907867431640625" lon="-2.35903375782072544097900390625">
        <ele>1181</ele>
        <time>2022-04-17T11:49:18.000Z</time>
      </trkpt>
      <trkpt lat="42.96335242688655853271484375" lon="-2.35901749692857265472412109375">
        <ele>1180.800048828125</ele>
        <time>2022-04-17T11:49:19.000Z</time>
      </trkpt>
      <trkpt lat="42.96334899030625820159912109375" lon="-2.3590014874935150146484375">
        <ele>1180.800048828125</ele>
        <time>2022-04-17T11:49:20.000Z</time>
      </trkpt>
      <trkpt lat="42.96333926729857921600341796875" lon="-2.35898648388683795928955078125">
        <ele>1180.800048828125</ele>
        <time>2022-04-17T11:49:21.000Z</time>
      </trkpt>
      <trkpt lat="42.96333658508956432342529296875" lon="-2.35897307284176349639892578125">
        <ele>1180.800048828125</ele>
        <time>2022-04-17T11:49:22.000Z</time>
      </trkpt>
      <trkpt lat="42.96333591453731060028076171875" lon="-2.35895781777799129486083984375">
        <ele>1180.5999755859375</ele>
        <time>2022-04-17T11:49:23.000Z</time>
      </trkpt>
      <trkpt lat="42.9633371718227863311767578125" lon="-2.35894180834293365478515625">
        <ele>1180.5999755859375</ele>
        <time>2022-04-17T11:49:24.000Z</time>
      </trkpt>
      <trkpt lat="42.96333759091794490814208984375" lon="-2.358926720917224884033203125">
        <ele>1180.4000244140625</ele>
        <time>2022-04-17T11:49:25.000Z</time>
      </trkpt>
      <trkpt lat="42.96333633363246917724609375" lon="-2.35891909338533878326416015625">
        <ele>1180.199951171875</ele>
        <time>2022-04-17T11:49:26.000Z</time>
      </trkpt>
      <trkpt lat="42.9633371718227863311767578125" lon="-2.35891490243375301361083984375">
        <ele>1180.199951171875</ele>
        <time>2022-04-17T11:49:27.000Z</time>
      </trkpt>
      <trkpt lat="42.9633428715169429779052734375" lon="-2.35890165902674198150634765625">
        <ele>1180</ele>
        <time>2022-04-17T11:49:28.000Z</time>
      </trkpt>
      <trkpt lat="42.96334396116435527801513671875" lon="-2.35888414084911346435546875">
        <ele>1180</ele>
        <time>2022-04-17T11:49:29.000Z</time>
      </trkpt>
      <trkpt lat="42.963340692222118377685546875" lon="-2.35886444337666034698486328125">
        <ele>1180</ele>
        <time>2022-04-17T11:49:30.000Z</time>
      </trkpt>
      <trkpt lat="42.9633368365466594696044921875" lon="-2.3588410578668117523193359375">
        <ele>1180</ele>
        <time>2022-04-17T11:49:31.000Z</time>
      </trkpt>
      <trkpt lat="42.96333390288054943084716796875" lon="-2.35882245004177093505859375">
        <ele>1179.800048828125</ele>
        <time>2022-04-17T11:49:32.000Z</time>
      </trkpt>
      <trkpt lat="42.96333155594766139984130859375" lon="-2.35880644060671329498291015625">
        <ele>1179.800048828125</ele>
        <time>2022-04-17T11:49:33.000Z</time>
      </trkpt>
      <trkpt lat="42.96333675272762775421142578125" lon="-2.35878531821072101593017578125">
        <ele>1179.800048828125</ele>
        <time>2022-04-17T11:49:34.000Z</time>
      </trkpt>
      <trkpt lat="42.96334731392562389373779296875" lon="-2.35875665210187435150146484375">
        <ele>1179.5999755859375</ele>
        <time>2022-04-17T11:49:35.000Z</time>
      </trkpt>
      <trkpt lat="42.963348068296909332275390625" lon="-2.35873687081038951873779296875">
        <ele>1179.5999755859375</ele>
        <time>2022-04-17T11:49:36.000Z</time>
      </trkpt>
      <trkpt lat="42.96334312297403812408447265625" lon="-2.3587260581552982330322265625">
        <ele>1179.5999755859375</ele>
        <time>2022-04-17T11:49:37.000Z</time>
      </trkpt>
      <trkpt lat="42.96333767473697662353515625" lon="-2.35872052609920501708984375">
        <ele>1179.4000244140625</ele>
        <time>2022-04-17T11:49:38.000Z</time>
      </trkpt>
      <trkpt lat="42.96333356760442256927490234375" lon="-2.35871138982474803924560546875">
        <ele>1179.199951171875</ele>
        <time>2022-04-17T11:49:39.000Z</time>
      </trkpt>
      <trkpt lat="42.96333474107086658477783203125" lon="-2.35870233736932277679443359375">
        <ele>1179.199951171875</ele>
        <time>2022-04-17T11:49:40.000Z</time>
      </trkpt>
      <trkpt lat="42.96333608217537403106689453125" lon="-2.35868976451456546783447265625">
        <ele>1179</ele>
        <time>2022-04-17T11:49:41.000Z</time>
      </trkpt>
      <trkpt lat="42.96332434751093387603759765625" lon="-2.35868490301072597503662109375">
        <ele>1179</ele>
        <time>2022-04-17T11:49:42.000Z</time>
      </trkpt>
      <trkpt lat="42.96331563033163547515869140625" lon="-2.3586834780871868133544921875">
        <ele>1179</ele>
        <time>2022-04-17T11:49:43.000Z</time>
      </trkpt>
      <trkpt lat="42.9633214138448238372802734375" lon="-2.358663193881511688232421875">
        <ele>1178.800048828125</ele>
        <time>2022-04-17T11:49:44.000Z</time>
      </trkpt>
      <trkpt lat="42.96331579796969890594482421875" lon="-2.35865087248384952545166015625">
        <ele>1178.800048828125</ele>
        <time>2022-04-17T11:49:45.000Z</time>
      </trkpt>
      <trkpt lat="42.96330791898071765899658203125" lon="-2.35864064656198024749755859375">
        <ele>1178.5999755859375</ele>
        <time>2022-04-17T11:49:46.000Z</time>
      </trkpt>
      <trkpt lat="42.9633029736578464508056640625" lon="-2.3586305044591426849365234375">
        <ele>1178.4000244140625</ele>
        <time>2022-04-17T11:49:47.000Z</time>
      </trkpt>
      <trkpt lat="42.96330439858138561248779296875" lon="-2.35861868597567081451416015625">
        <ele>1178.4000244140625</ele>
        <time>2022-04-17T11:49:48.000Z</time>
      </trkpt>
      <trkpt lat="42.96330221928656101226806640625" lon="-2.358608543872833251953125">
        <ele>1178.199951171875</ele>
        <time>2022-04-17T11:49:49.000Z</time>
      </trkpt>
      <trkpt lat="42.9633006267249584197998046875" lon="-2.35859974287450313568115234375">
        <ele>1178.199951171875</ele>
        <time>2022-04-17T11:49:50.000Z</time>
      </trkpt>
      <trkpt lat="42.96329232864081859588623046875" lon="-2.358598820865154266357421875">
        <ele>1178</ele>
        <time>2022-04-17T11:49:51.000Z</time>
      </trkpt>
      <trkpt lat="42.96329207718372344970703125" lon="-2.3585875891149044036865234375">
        <ele>1178.199951171875</ele>
        <time>2022-04-17T11:49:52.000Z</time>
      </trkpt>
      <trkpt lat="42.96329283155500888824462890625" lon="-2.35856437124311923980712890625">
        <ele>1178.199951171875</ele>
        <time>2022-04-17T11:49:53.000Z</time>
      </trkpt>
      <trkpt lat="42.96328629367053508758544921875" lon="-2.35854241065680980682373046875">
        <ele>1178.199951171875</ele>
        <time>2022-04-17T11:49:54.000Z</time>
      </trkpt>
      <trkpt lat="42.96326986514031887054443359375" lon="-2.35852539539337158203125">
        <ele>1178.199951171875</ele>
        <time>2022-04-17T11:49:55.000Z</time>
      </trkpt>
      <trkpt lat="42.963260896503925323486328125" lon="-2.35850997269153594970703125">
        <ele>1178.4000244140625</ele>
        <time>2022-04-17T11:49:56.000Z</time>
      </trkpt>
      <trkpt lat="42.9632496647536754608154296875" lon="-2.35848960466682910919189453125">
        <ele>1178.4000244140625</ele>
        <time>2022-04-17T11:49:57.000Z</time>
      </trkpt>
      <trkpt lat="42.96324354596436023712158203125" lon="-2.35847703181207180023193359375">
        <ele>1178.4000244140625</ele>
        <time>2022-04-17T11:49:58.000Z</time>
      </trkpt>
      <trkpt lat="42.96323918737471103668212890625" lon="-2.35846647061407566070556640625">
        <ele>1178.4000244140625</ele>
        <time>2022-04-17T11:49:59.000Z</time>
      </trkpt>
      <trkpt lat="42.96323843300342559814453125" lon="-2.35845590941607952117919921875">
        <ele>1178.5999755859375</ele>
        <time>2022-04-17T11:50:00.000Z</time>
      </trkpt>
      <trkpt lat="42.96323834918439388275146484375" lon="-2.3584551550447940826416015625">
        <ele>1178.5999755859375</ele>
        <time>2022-04-17T11:50:01.000Z</time>
      </trkpt>
      <trkpt lat="42.96323868446052074432373046875" lon="-2.35845373012125492095947265625">
        <ele>1178.5999755859375</ele>
        <time>2022-04-17T11:50:02.000Z</time>
      </trkpt>
      <trkpt lat="42.9632339067757129669189453125" lon="-2.35844987444579601287841796875">
        <ele>1178.5999755859375</ele>
        <time>2022-04-17T11:50:03.000Z</time>
      </trkpt>
      <trkpt lat="42.96322694979608058929443359375" lon="-2.358441911637783050537109375">
        <ele>1178.800048828125</ele>
        <time>2022-04-17T11:50:04.000Z</time>
      </trkpt>
      <trkpt lat="42.96321923844516277313232421875" lon="-2.35843931324779987335205078125">
        <ele>1178.800048828125</ele>
        <time>2022-04-17T11:50:05.000Z</time>
      </trkpt>
      <trkpt lat="42.96321772970259189605712890625" lon="-2.35843378119170665740966796875">
        <ele>1178.800048828125</ele>
        <time>2022-04-17T11:50:06.000Z</time>
      </trkpt>
      <trkpt lat="42.963217310607433319091796875" lon="-2.3584216274321079254150390625">
        <ele>1178.800048828125</ele>
        <time>2022-04-17T11:50:07.000Z</time>
      </trkpt>
      <trkpt lat="42.96322175301611423492431640625" lon="-2.35839891247451305389404296875">
        <ele>1178.800048828125</ele>
        <time>2022-04-17T11:50:08.000Z</time>
      </trkpt>
      <trkpt lat="42.96322862617671489715576171875" lon="-2.3583810590207576751708984375">
        <ele>1178.5999755859375</ele>
        <time>2022-04-17T11:50:09.000Z</time>
      </trkpt>
      <trkpt lat="42.9632255248725414276123046875" lon="-2.3583706654608249664306640625">
        <ele>1178.5999755859375</ele>
        <time>2022-04-17T11:50:10.000Z</time>
      </trkpt>
      <trkpt lat="42.96322141773998737335205078125" lon="-2.358360774815082550048828125">
        <ele>1178.5999755859375</ele>
        <time>2022-04-17T11:50:11.000Z</time>
      </trkpt>
      <trkpt lat="42.96321521513164043426513671875" lon="-2.358357422053813934326171875">
        <ele>1178.5999755859375</ele>
        <time>2022-04-17T11:50:12.000Z</time>
      </trkpt>
      <trkpt lat="42.96321253292262554168701171875" lon="-2.3583502136170864105224609375">
        <ele>1178.5999755859375</ele>
        <time>2022-04-17T11:50:13.000Z</time>
      </trkpt>
      <trkpt lat="42.9632117785513401031494140625" lon="-2.35834443010389804840087890625">
        <ele>1178.5999755859375</ele>
        <time>2022-04-17T11:50:14.000Z</time>
      </trkpt>
      <trkpt lat="42.96321018598973751068115234375" lon="-2.3583391495048999786376953125">
        <ele>1178.5999755859375</ele>
        <time>2022-04-17T11:50:15.000Z</time>
      </trkpt>
      <trkpt lat="42.9632057435810565948486328125" lon="-2.3583297617733478546142578125">
        <ele>1178.800048828125</ele>
        <time>2022-04-17T11:50:16.000Z</time>
      </trkpt>
      <trkpt lat="42.96320113353431224822998046875" lon="-2.35832079313695430755615234375">
        <ele>1178.800048828125</ele>
        <time>2022-04-17T11:50:17.000Z</time>
      </trkpt>
      <trkpt lat="42.9631936736404895782470703125" lon="-2.3583093099296092987060546875">
        <ele>1178.800048828125</ele>
        <time>2022-04-17T11:50:18.000Z</time>
      </trkpt>
      <trkpt lat="42.96318738721311092376708984375" lon="-2.35830687917768955230712890625">
        <ele>1179</ele>
        <time>2022-04-17T11:50:19.000Z</time>
      </trkpt>
      <trkpt lat="42.9631862975656986236572265625" lon="-2.358304448425769805908203125">
        <ele>1179</ele>
        <time>2022-04-17T11:50:20.000Z</time>
      </trkpt>
      <trkpt lat="42.9631862975656986236572265625" lon="-2.35829866491258144378662109375">
        <ele>1179.199951171875</ele>
        <time>2022-04-17T11:50:21.000Z</time>
      </trkpt>
      <trkpt lat="42.96318822540342807769775390625" lon="-2.35829782672226428985595703125">
        <ele>1179.4000244140625</ele>
        <time>2022-04-17T11:50:22.000Z</time>
      </trkpt>
      <trkpt lat="42.96319174580276012420654296875" lon="-2.3582952283322811126708984375">
        <ele>1179.4000244140625</ele>
        <time>2022-04-17T11:50:23.000Z</time>
      </trkpt>
      <trkpt lat="42.96318487264215946197509765625" lon="-2.3582947254180908203125">
        <ele>1179.4000244140625</ele>
        <time>2022-04-17T11:50:24.000Z</time>
      </trkpt>
      <trkpt lat="42.9631802625954151153564453125" lon="-2.35828978009521961212158203125">
        <ele>1179.5999755859375</ele>
        <time>2022-04-17T11:50:25.000Z</time>
      </trkpt>
      <trkpt lat="42.9631805978715419769287109375" lon="-2.358289696276187896728515625">
        <ele>1179.5999755859375</ele>
        <time>2022-04-17T11:50:26.000Z</time>
      </trkpt>
      <trkpt lat="42.96317984350025653839111328125" lon="-2.358287684619426727294921875">
        <ele>1179.5999755859375</ele>
        <time>2022-04-17T11:50:27.000Z</time>
      </trkpt>
      <trkpt lat="42.96318403445184230804443359375" lon="-2.35828709788620471954345703125">
        <ele>1179.5999755859375</ele>
        <time>2022-04-17T11:50:28.000Z</time>
      </trkpt>
      <trkpt lat="42.9631852917373180389404296875" lon="-2.3582821525633335113525390625">
        <ele>1179.199951171875</ele>
        <time>2022-04-17T11:50:29.000Z</time>
      </trkpt>
      <trkpt lat="42.96318537555634975433349609375" lon="-2.35827854834496974945068359375">
        <ele>1179.199951171875</ele>
        <time>2022-04-17T11:50:30.000Z</time>
      </trkpt>
      <trkpt lat="42.9631854593753814697265625" lon="-2.3582754470407962799072265625">
        <ele>1179.199951171875</ele>
        <time>2022-04-17T11:50:31.000Z</time>
      </trkpt>
      <trkpt lat="42.9631854593753814697265625" lon="-2.3582754470407962799072265625">
        <ele>1179</ele>
        <time>2022-04-17T11:50:32.000Z</time>
      </trkpt>
      <trkpt lat="42.9631854593753814697265625" lon="-2.3582754470407962799072265625">
        <ele>1179.199951171875</ele>
        <time>2022-04-17T11:50:33.000Z</time>
      </trkpt>
      <trkpt lat="42.9631854593753814697265625" lon="-2.3582754470407962799072265625">
        <ele>1179.199951171875</ele>
        <time>2022-04-17T11:50:34.000Z</time>
      </trkpt>
      <trkpt lat="42.9631854593753814697265625" lon="-2.3582754470407962799072265625">
        <ele>1179.199951171875</ele>
        <time>2022-04-17T11:50:35.000Z</time>
      </trkpt>
      <trkpt lat="42.9631854593753814697265625" lon="-2.3582754470407962799072265625">
        <ele>1179.199951171875</ele>
        <time>2022-04-17T11:50:36.000Z</time>
      </trkpt>
      <trkpt lat="42.9631854593753814697265625" lon="-2.3582754470407962799072265625">
        <ele>1179.4000244140625</ele>
        <time>2022-04-17T11:50:37.000Z</time>
      </trkpt>
      <trkpt lat="42.9631854593753814697265625" lon="-2.3582754470407962799072265625">
        <ele>1179.4000244140625</ele>
        <time>2022-04-17T11:50:38.000Z</time>
      </trkpt>
      <trkpt lat="42.9631854593753814697265625" lon="-2.3582754470407962799072265625">
        <ele>1179.4000244140625</ele>
        <time>2022-04-17T11:50:39.000Z</time>
      </trkpt>
      <trkpt lat="42.9631854593753814697265625" lon="-2.3582754470407962799072265625">
        <ele>1179.4000244140625</ele>
        <time>2022-04-17T11:50:40.000Z</time>
      </trkpt>
      <trkpt lat="42.9631854593753814697265625" lon="-2.3582754470407962799072265625">
        <ele>1179.5999755859375</ele>
        <time>2022-04-17T11:50:41.000Z</time>
      </trkpt>
      <trkpt lat="42.96318537555634975433349609375" lon="-2.3582754470407962799072265625">
        <ele>1179.5999755859375</ele>
        <time>2022-04-17T11:50:42.000Z</time>
      </trkpt>
      <trkpt lat="42.9631852917373180389404296875" lon="-2.3582754470407962799072265625">
        <ele>1179.5999755859375</ele>
        <time>2022-04-17T11:50:43.000Z</time>
      </trkpt>
      <trkpt lat="42.96318487264215946197509765625" lon="-2.3582754470407962799072265625">
        <ele>1179.4000244140625</ele>
        <time>2022-04-17T11:50:44.000Z</time>
      </trkpt>
      <trkpt lat="42.9631841182708740234375" lon="-2.3582754470407962799072265625">
        <ele>1179.4000244140625</ele>
        <time>2022-04-17T11:50:45.000Z</time>
      </trkpt>
      <trkpt lat="42.963183782994747161865234375" lon="-2.3582754470407962799072265625">
        <ele>1179.4000244140625</ele>
        <time>2022-04-17T11:50:46.000Z</time>
      </trkpt>
      <trkpt lat="42.96318168751895427703857421875" lon="-2.358269579708576202392578125">
        <ele>1179.4000244140625</ele>
        <time>2022-04-17T11:50:47.000Z</time>
      </trkpt>
      <trkpt lat="42.96318101696670055389404296875" lon="-2.3582660593092441558837890625">
        <ele>1179.4000244140625</ele>
        <time>2022-04-17T11:50:48.000Z</time>
      </trkpt>
      <trkpt lat="42.9631805978715419769287109375" lon="-2.35826429910957813262939453125">
        <ele>1179.4000244140625</ele>
        <time>2022-04-17T11:50:49.000Z</time>
      </trkpt>
      <trkpt lat="42.9631802625954151153564453125" lon="-2.3582630418241024017333984375">
        <ele>1179.4000244140625</ele>
        <time>2022-04-17T11:50:50.000Z</time>
      </trkpt>
      <trkpt lat="42.9631799273192882537841796875" lon="-2.3582627065479755401611328125">
        <ele>1179.5999755859375</ele>
        <time>2022-04-17T11:50:51.000Z</time>
      </trkpt>
      <trkpt lat="42.96317883767187595367431640625" lon="-2.35825306735932826995849609375">
        <ele>1179.5999755859375</ele>
        <time>2022-04-17T11:50:52.000Z</time>
      </trkpt>
      <trkpt lat="42.96318051405251026153564453125" lon="-2.35822792164981365203857421875">
        <ele>1179.5999755859375</ele>
        <time>2022-04-17T11:50:53.000Z</time>
      </trkpt>
      <trkpt lat="42.96318084932863712310791015625" lon="-2.35820562578737735748291015625">
        <ele>1179.800048828125</ele>
        <time>2022-04-17T11:50:54.000Z</time>
      </trkpt>
      <trkpt lat="42.96317632310092449188232421875" lon="-2.35818718560039997100830078125">
        <ele>1179.800048828125</ele>
        <time>2022-04-17T11:50:55.000Z</time>
      </trkpt>
      <trkpt lat="42.96317079104483127593994140625" lon="-2.3581718467175960540771484375">
        <ele>1180</ele>
        <time>2022-04-17T11:50:56.000Z</time>
      </trkpt>
      <trkpt lat="42.96316576190292835235595703125" lon="-2.35815592110157012939453125">
        <ele>1180</ele>
        <time>2022-04-17T11:50:57.000Z</time>
      </trkpt>
      <trkpt lat="42.96316827647387981414794921875" lon="-2.35813119448721408843994140625">
        <ele>1180</ele>
        <time>2022-04-17T11:50:58.000Z</time>
      </trkpt>
      <trkpt lat="42.96317012049257755279541015625" lon="-2.35809766687452793121337890625">
        <ele>1180</ele>
        <time>2022-04-17T11:50:59.000Z</time>
      </trkpt>
      <trkpt lat="42.9631759040057659149169921875" lon="-2.358075790107250213623046875">
        <ele>1180</ele>
        <time>2022-04-17T11:51:00.000Z</time>
      </trkpt>
      <trkpt lat="42.9631742276251316070556640625" lon="-2.35805927775800228118896484375">
        <ele>1180</ele>
        <time>2022-04-17T11:51:01.000Z</time>
      </trkpt>
      <trkpt lat="42.96316794119775295257568359375" lon="-2.35805022530257701873779296875">
        <ele>1180</ele>
        <time>2022-04-17T11:51:02.000Z</time>
      </trkpt>
      <trkpt lat="42.96316509135067462921142578125" lon="-2.3580431006848812103271484375">
        <ele>1180</ele>
        <time>2022-04-17T11:51:03.000Z</time>
      </trkpt>
      <trkpt lat="42.963164336979389190673828125" lon="-2.35803530551493167877197265625">
        <ele>1180</ele>
        <time>2022-04-17T11:51:04.000Z</time>
      </trkpt>
      <trkpt lat="42.96316760592162609100341796875" lon="-2.35802809707820415496826171875">
        <ele>1179.800048828125</ele>
        <time>2022-04-17T11:51:05.000Z</time>
      </trkpt>
      <trkpt lat="42.96317137777805328369140625" lon="-2.3580256663262844085693359375">
        <ele>1180</ele>
        <time>2022-04-17T11:51:06.000Z</time>
      </trkpt>
      <trkpt lat="42.9631742276251316070556640625" lon="-2.35802290029823780059814453125">
        <ele>1180</ele>
        <time>2022-04-17T11:51:07.000Z</time>
      </trkpt>
      <trkpt lat="42.963174395263195037841796875" lon="-2.35802055336534976959228515625">
        <ele>1180.199951171875</ele>
        <time>2022-04-17T11:51:08.000Z</time>
      </trkpt>
      <trkpt lat="42.96317213214933872222900390625" lon="-2.3580186255276203155517578125">
        <ele>1180.199951171875</ele>
        <time>2022-04-17T11:51:09.000Z</time>
      </trkpt>
      <trkpt lat="42.96316928230226039886474609375" lon="-2.3580139316618442535400390625">
        <ele>1180.4000244140625</ele>
        <time>2022-04-17T11:51:10.000Z</time>
      </trkpt>
      <trkpt lat="42.9631666839122772216796875" lon="-2.3580072261393070220947265625">
        <ele>1180.4000244140625</ele>
        <time>2022-04-17T11:51:11.000Z</time>
      </trkpt>
      <trkpt lat="42.9631640017032623291015625" lon="-2.3579988442361354827880859375">
        <ele>1180.4000244140625</ele>
        <time>2022-04-17T11:51:12.000Z</time>
      </trkpt>
      <trkpt lat="42.96316106803715229034423828125" lon="-2.35798752866685390472412109375">
        <ele>1180.4000244140625</ele>
        <time>2022-04-17T11:51:13.000Z</time>
      </trkpt>
      <trkpt lat="42.9631574638187885284423828125" lon="-2.35797964967787265777587890625">
        <ele>1180.4000244140625</ele>
        <time>2022-04-17T11:51:14.000Z</time>
      </trkpt>
      <trkpt lat="42.9631571285426616668701171875" lon="-2.3579679988324642181396484375">
        <ele>1180.199951171875</ele>
        <time>2022-04-17T11:51:15.000Z</time>
      </trkpt>
      <trkpt lat="42.96315939165651798248291015625" lon="-2.35795232467353343963623046875">
        <ele>1180.199951171875</ele>
        <time>2022-04-17T11:51:16.000Z</time>
      </trkpt>
      <trkpt lat="42.96316140331327915191650390625" lon="-2.3579411767423152923583984375">
        <ele>1180</ele>
        <time>2022-04-17T11:51:17.000Z</time>
      </trkpt>
      <trkpt lat="42.9631594754755496978759765625" lon="-2.3579284362494945526123046875">
        <ele>1180</ele>
        <time>2022-04-17T11:51:18.000Z</time>
      </trkpt>
      <trkpt lat="42.9631534405052661895751953125" lon="-2.3579234071075916290283203125">
        <ele>1180</ele>
        <time>2022-04-17T11:51:19.000Z</time>
      </trkpt>
      <trkpt lat="42.9631477408111095428466796875" lon="-2.35791276209056377410888671875">
        <ele>1180</ele>
        <time>2022-04-17T11:51:20.000Z</time>
      </trkpt>
      <trkpt lat="42.96313994564116001129150390625" lon="-2.35791024751961231231689453125">
        <ele>1179.800048828125</ele>
        <time>2022-04-17T11:51:21.000Z</time>
      </trkpt>
      <trkpt lat="42.96312720514833927154541015625" lon="-2.3579066433012485504150390625">
        <ele>1179.800048828125</ele>
        <time>2022-04-17T11:51:22.000Z</time>
      </trkpt>
      <trkpt lat="42.96312016434967517852783203125" lon="-2.35790220089256763458251953125">
        <ele>1179.800048828125</ele>
        <time>2022-04-17T11:51:23.000Z</time>
      </trkpt>
      <trkpt lat="42.9631034843623638153076171875" lon="-2.35789398662745952606201171875">
        <ele>1179.800048828125</ele>
        <time>2022-04-17T11:51:24.000Z</time>
      </trkpt>
      <trkpt lat="42.963095940649509429931640625" lon="-2.3578831739723682403564453125">
        <ele>1179.800048828125</ele>
        <time>2022-04-17T11:51:25.000Z</time>
      </trkpt>
      <trkpt lat="42.9630917496979236602783203125" lon="-2.3578939028084278106689453125">
        <ele>1179.800048828125</ele>
        <time>2022-04-17T11:51:26.000Z</time>
      </trkpt>
      <trkpt lat="42.96308864839375019073486328125" lon="-2.35790111124515533447265625">
        <ele>1179.800048828125</ele>
        <time>2022-04-17T11:51:27.000Z</time>
      </trkpt>
      <trkpt lat="42.9630873911082744598388671875" lon="-2.3578955791890621185302734375">
        <ele>1179.800048828125</ele>
        <time>2022-04-17T11:51:28.000Z</time>
      </trkpt>
      <trkpt lat="42.96308848075568675994873046875" lon="-2.35789063386619091033935546875">
        <ele>1179.800048828125</ele>
        <time>2022-04-17T11:51:29.000Z</time>
      </trkpt>
      <trkpt lat="42.9630883969366550445556640625" lon="-2.357878983020782470703125">
        <ele>1179.800048828125</ele>
        <time>2022-04-17T11:51:30.000Z</time>
      </trkpt>
      <trkpt lat="42.963091917335987091064453125" lon="-2.35786356031894683837890625">
        <ele>1179.800048828125</ele>
        <time>2022-04-17T11:51:31.000Z</time>
      </trkpt>
      <trkpt lat="42.963095605373382568359375" lon="-2.35784872435033321380615234375">
        <ele>1179.800048828125</ele>
        <time>2022-04-17T11:51:32.000Z</time>
      </trkpt>
      <trkpt lat="42.963095940649509429931640625" lon="-2.3578345589339733123779296875">
        <ele>1179.800048828125</ele>
        <time>2022-04-17T11:51:33.000Z</time>
      </trkpt>
      <trkpt lat="42.963093258440494537353515625" lon="-2.35782374627888202667236328125">
        <ele>1179.800048828125</ele>
        <time>2022-04-17T11:51:34.000Z</time>
      </trkpt>
      <trkpt lat="42.96309434808790683746337890625" lon="-2.35781217925250530242919921875">
        <ele>1179.5999755859375</ele>
        <time>2022-04-17T11:51:35.000Z</time>
      </trkpt>
      <trkpt lat="42.963094599545001983642578125" lon="-2.35780212096869945526123046875">
        <ele>1179.5999755859375</ele>
        <time>2022-04-17T11:51:36.000Z</time>
      </trkpt>
      <trkpt lat="42.9630887322127819061279296875" lon="-2.35778753645718097686767578125">
        <ele>1179.5999755859375</ele>
        <time>2022-04-17T11:51:37.000Z</time>
      </trkpt>
      <trkpt lat="42.9630835354328155517578125" lon="-2.35776959918439388275146484375">
        <ele>1179.5999755859375</ele>
        <time>2022-04-17T11:51:38.000Z</time>
      </trkpt>
      <trkpt lat="42.9630808532238006591796875" lon="-2.35775283537805080413818359375">
        <ele>1179.5999755859375</ele>
        <time>2022-04-17T11:51:39.000Z</time>
      </trkpt>
      <trkpt lat="42.96308479271829128265380859375" lon="-2.3577343113720417022705078125">
        <ele>1179.5999755859375</ele>
        <time>2022-04-17T11:51:40.000Z</time>
      </trkpt>
      <trkpt lat="42.96308697201311588287353515625" lon="-2.35772081650793552398681640625">
        <ele>1179.4000244140625</ele>
        <time>2022-04-17T11:51:41.000Z</time>
      </trkpt>
      <trkpt lat="42.963086552917957305908203125" lon="-2.35771511681377887725830078125">
        <ele>1179.199951171875</ele>
        <time>2022-04-17T11:51:42.000Z</time>
      </trkpt>
      <trkpt lat="42.96308529563248157501220703125" lon="-2.3577078245580196380615234375">
        <ele>1179</ele>
        <time>2022-04-17T11:51:43.000Z</time>
      </trkpt>
      <trkpt lat="42.9630883969366550445556640625" lon="-2.357697598636150360107421875">
        <ele>1178.800048828125</ele>
        <time>2022-04-17T11:51:44.000Z</time>
      </trkpt>
      <trkpt lat="42.96308931894600391387939453125" lon="-2.35767974518239498138427734375">
        <ele>1178.5999755859375</ele>
        <time>2022-04-17T11:51:45.000Z</time>
      </trkpt>
      <trkpt lat="42.96308931894600391387939453125" lon="-2.3576642386615276336669921875">
        <ele>1178.5999755859375</ele>
        <time>2022-04-17T11:51:46.000Z</time>
      </trkpt>
      <trkpt lat="42.96309367753565311431884765625" lon="-2.3576511628925800323486328125">
        <ele>1178.199951171875</ele>
        <time>2022-04-17T11:51:47.000Z</time>
      </trkpt>
      <trkpt lat="42.96309292316436767578125" lon="-2.3576407693326473236083984375">
        <ele>1178.199951171875</ele>
        <time>2022-04-17T11:51:48.000Z</time>
      </trkpt>
      <trkpt lat="42.9630900733172893524169921875" lon="-2.35762610100209712982177734375">
        <ele>1178</ele>
        <time>2022-04-17T11:51:49.000Z</time>
      </trkpt>
      <trkpt lat="42.96308043412864208221435546875" lon="-2.35760916955769062042236328125">
        <ele>1177.5999755859375</ele>
        <time>2022-04-17T11:51:50.000Z</time>
      </trkpt>
      <trkpt lat="42.9630716331303119659423828125" lon="-2.357597015798091888427734375">
        <ele>1177.5999755859375</ele>
        <time>2022-04-17T11:51:51.000Z</time>
      </trkpt>
      <trkpt lat="42.963065765798091888427734375" lon="-2.35758217982947826385498046875">
        <ele>1177.4000244140625</ele>
        <time>2022-04-17T11:51:52.000Z</time>
      </trkpt>
      <trkpt lat="42.96306048519909381866455078125" lon="-2.35756047070026397705078125">
        <ele>1177.4000244140625</ele>
        <time>2022-04-17T11:51:53.000Z</time>
      </trkpt>
      <trkpt lat="42.96305478550493717193603515625" lon="-2.3575477302074432373046875">
        <ele>1177.199951171875</ele>
        <time>2022-04-17T11:51:54.000Z</time>
      </trkpt>
      <trkpt lat="42.96304925344884395599365234375" lon="-2.3575370013713836669921875">
        <ele>1176.800048828125</ele>
        <time>2022-04-17T11:51:55.000Z</time>
      </trkpt>
      <trkpt lat="42.96304422430694103240966796875" lon="-2.357527948915958404541015625">
        <ele>1176.4000244140625</ele>
        <time>2022-04-17T11:51:56.000Z</time>
      </trkpt>
      <trkpt lat="42.9630427993834018707275390625" lon="-2.35751965083181858062744140625">
        <ele>1176.199951171875</ele>
        <time>2022-04-17T11:51:57.000Z</time>
      </trkpt>
      <trkpt lat="42.96304070390760898590087890625" lon="-2.35750992782413959503173828125">
        <ele>1175.800048828125</ele>
        <time>2022-04-17T11:51:58.000Z</time>
      </trkpt>
      <trkpt lat="42.96303835697472095489501953125" lon="-2.3575007915496826171875">
        <ele>1175.5999755859375</ele>
        <time>2022-04-17T11:51:59.000Z</time>
      </trkpt>
      <trkpt lat="42.963034920394420623779296875" lon="-2.3574959300458431243896484375">
        <ele>1175.5999755859375</ele>
        <time>2022-04-17T11:52:00.000Z</time>
      </trkpt>
      <trkpt lat="42.963028214871883392333984375" lon="-2.3574909009039402008056640625">
        <ele>1175.4000244140625</ele>
        <time>2022-04-17T11:52:01.000Z</time>
      </trkpt>
      <trkpt lat="42.9630218446254730224609375" lon="-2.35748461447656154632568359375">
        <ele>1175.199951171875</ele>
        <time>2022-04-17T11:52:02.000Z</time>
      </trkpt>
      <trkpt lat="42.9630179889500141143798828125" lon="-2.35747690312564373016357421875">
        <ele>1174.800048828125</ele>
        <time>2022-04-17T11:52:03.000Z</time>
      </trkpt>
      <trkpt lat="42.9630126245319843292236328125" lon="-2.35747271217405796051025390625">
        <ele>1174.5999755859375</ele>
        <time>2022-04-17T11:52:04.000Z</time>
      </trkpt>
      <trkpt lat="42.96300650574266910552978515625" lon="-2.3574654199182987213134765625">
        <ele>1174.4000244140625</ele>
        <time>2022-04-17T11:52:05.000Z</time>
      </trkpt>
      <trkpt lat="42.9630002193152904510498046875" lon="-2.35746013931930065155029296875">
        <ele>1174.199951171875</ele>
        <time>2022-04-17T11:52:06.000Z</time>
      </trkpt>
      <trkpt lat="42.96299309469759464263916015625" lon="-2.35745628364384174346923828125">
        <ele>1174</ele>
        <time>2022-04-17T11:52:07.000Z</time>
      </trkpt>
      <trkpt lat="42.96298521570861339569091796875" lon="-2.3574520088732242584228515625">
        <ele>1173.800048828125</ele>
        <time>2022-04-17T11:52:08.000Z</time>
      </trkpt>
      <trkpt lat="42.962983287870883941650390625" lon="-2.3574431240558624267578125">
        <ele>1173.800048828125</ele>
        <time>2022-04-17T11:52:09.000Z</time>
      </trkpt>
      <trkpt lat="42.96297918073832988739013671875" lon="-2.3574379272758960723876953125">
        <ele>1173.5999755859375</ele>
        <time>2022-04-17T11:52:10.000Z</time>
      </trkpt>
      <trkpt lat="42.96296794898808002471923828125" lon="-2.35742644406855106353759765625">
        <ele>1173.5999755859375</ele>
        <time>2022-04-17T11:52:11.000Z</time>
      </trkpt>
      <trkpt lat="42.96295621432363986968994140625" lon="-2.35741135664284229278564453125">
        <ele>1173.199951171875</ele>
        <time>2022-04-17T11:52:12.000Z</time>
      </trkpt>
      <trkpt lat="42.9629521071910858154296875" lon="-2.35740029253065586090087890625">
        <ele>1172.800048828125</ele>
        <time>2022-04-17T11:52:13.000Z</time>
      </trkpt>
      <trkpt lat="42.9629494249820709228515625" lon="-2.35738612711429595947265625">
        <ele>1172.5999755859375</ele>
        <time>2022-04-17T11:52:14.000Z</time>
      </trkpt>
      <trkpt lat="42.96294162981212139129638671875" lon="-2.3573728837072849273681640625">
        <ele>1172.4000244140625</ele>
        <time>2022-04-17T11:52:15.000Z</time>
      </trkpt>
      <trkpt lat="42.962928973138332366943359375" lon="-2.3573638312518596649169921875">
        <ele>1172.199951171875</ele>
        <time>2022-04-17T11:52:16.000Z</time>
      </trkpt>
      <trkpt lat="42.9629214294254779815673828125" lon="-2.3573524318635463714599609375">
        <ele>1172</ele>
        <time>2022-04-17T11:52:17.000Z</time>
      </trkpt>
      <trkpt lat="42.96291899867355823516845703125" lon="-2.357328124344348907470703125">
        <ele>1171.800048828125</ele>
        <time>2022-04-17T11:52:18.000Z</time>
      </trkpt>
      <trkpt lat="42.96291966922581195831298828125" lon="-2.35731245018541812896728515625">
        <ele>1171.5999755859375</ele>
        <time>2022-04-17T11:52:19.000Z</time>
      </trkpt>
      <trkpt lat="42.96291598118841648101806640625" lon="-2.35729635693132877349853515625">
        <ele>1171.199951171875</ele>
        <time>2022-04-17T11:52:20.000Z</time>
      </trkpt>
      <trkpt lat="42.9629065096378326416015625" lon="-2.357281856238842010498046875">
        <ele>1171.199951171875</ele>
        <time>2022-04-17T11:52:21.000Z</time>
      </trkpt>
      <trkpt lat="42.96289653517305850982666015625" lon="-2.3572686128318309783935546875">
        <ele>1170.800048828125</ele>
        <time>2022-04-17T11:52:22.000Z</time>
      </trkpt>
      <trkpt lat="42.9628875665366649627685546875" lon="-2.35725377686321735382080078125">
        <ele>1170.800048828125</ele>
        <time>2022-04-17T11:52:23.000Z</time>
      </trkpt>
      <trkpt lat="42.96288094483315944671630859375" lon="-2.3572434671223163604736328125">
        <ele>1170.5999755859375</ele>
        <time>2022-04-17T11:52:24.000Z</time>
      </trkpt>
      <trkpt lat="42.96287356875836849212646484375" lon="-2.35723600722849369049072265625">
        <ele>1170.4000244140625</ele>
        <time>2022-04-17T11:52:25.000Z</time>
      </trkpt>
      <trkpt lat="42.96286434866487979888916015625" lon="-2.35723164863884449005126953125">
        <ele>1170.4000244140625</ele>
        <time>2022-04-17T11:52:26.000Z</time>
      </trkpt>
      <trkpt lat="42.96285730786621570587158203125" lon="-2.357223518192768096923828125">
        <ele>1170</ele>
        <time>2022-04-17T11:52:27.000Z</time>
      </trkpt>
      <trkpt lat="42.9628530330955982208251953125" lon="-2.35720884986221790313720703125">
        <ele>1170</ele>
        <time>2022-04-17T11:52:28.000Z</time>
      </trkpt>
      <trkpt lat="42.96284875832498073577880859375" lon="-2.3571901582181453704833984375">
        <ele>1169.800048828125</ele>
        <time>2022-04-17T11:52:29.000Z</time>
      </trkpt>
      <trkpt lat="42.962843142449855804443359375" lon="-2.35717314295470714569091796875">
        <ele>1169.5999755859375</ele>
        <time>2022-04-17T11:52:30.000Z</time>
      </trkpt>
      <trkpt lat="42.962831072509288787841796875" lon="-2.357157804071903228759765625">
        <ele>1169.4000244140625</ele>
        <time>2022-04-17T11:52:31.000Z</time>
      </trkpt>
      <trkpt lat="42.96281958930194377899169921875" lon="-2.35714397393167018890380859375">
        <ele>1169.4000244140625</ele>
        <time>2022-04-17T11:52:32.000Z</time>
      </trkpt>
      <trkpt lat="42.962812297046184539794921875" lon="-2.3571267910301685333251953125">
        <ele>1169.199951171875</ele>
        <time>2022-04-17T11:52:33.000Z</time>
      </trkpt>
      <trkpt lat="42.96280735172331333160400390625" lon="-2.357109524309635162353515625">
        <ele>1169.199951171875</ele>
        <time>2022-04-17T11:52:34.000Z</time>
      </trkpt>
      <trkpt lat="42.96280114911496639251708984375" lon="-2.3570942692458629608154296875">
        <ele>1169</ele>
        <time>2022-04-17T11:52:35.000Z</time>
      </trkpt>
      <trkpt lat="42.96279259957373142242431640625" lon="-2.3570872284471988677978515625">
        <ele>1168.800048828125</ele>
        <time>2022-04-17T11:52:36.000Z</time>
      </trkpt>
      <trkpt lat="42.96279259957373142242431640625" lon="-2.35707775689661502838134765625">
        <ele>1168.4000244140625</ele>
        <time>2022-04-17T11:52:37.000Z</time>
      </trkpt>
      <trkpt lat="42.96278874389827251434326171875" lon="-2.35706753097474575042724609375">
        <ele>1168.199951171875</ele>
        <time>2022-04-17T11:52:38.000Z</time>
      </trkpt>
      <trkpt lat="42.9627858102321624755859375" lon="-2.3570540361106395721435546875">
        <ele>1168.199951171875</ele>
        <time>2022-04-17T11:52:39.000Z</time>
      </trkpt>
      <trkpt lat="42.9627812840044498443603515625" lon="-2.3570392839610576629638671875">
        <ele>1168</ele>
        <time>2022-04-17T11:52:40.000Z</time>
      </trkpt>
      <trkpt lat="42.96277684159576892852783203125" lon="-2.357026040554046630859375">
        <ele>1168</ele>
        <time>2022-04-17T11:52:41.000Z</time>
      </trkpt>
      <trkpt lat="42.9627695493400096893310546875" lon="-2.3570151440799236297607421875">
        <ele>1167.800048828125</ele>
        <time>2022-04-17T11:52:42.000Z</time>
      </trkpt>
      <trkpt lat="42.96275789849460124969482421875" lon="-2.3570010624825954437255859375">
        <ele>1167.800048828125</ele>
        <time>2022-04-17T11:52:43.000Z</time>
      </trkpt>
      <trkpt lat="42.962746918201446533203125" lon="-2.35698756761848926544189453125">
        <ele>1167.800048828125</ele>
        <time>2022-04-17T11:52:44.000Z</time>
      </trkpt>
      <trkpt lat="42.96273677609860897064208984375" lon="-2.356975078582763671875">
        <ele>1167.5999755859375</ele>
        <time>2022-04-17T11:52:45.000Z</time>
      </trkpt>
      <trkpt lat="42.9627273045480251312255859375" lon="-2.35695873387157917022705078125">
        <ele>1167.5999755859375</ele>
        <time>2022-04-17T11:52:46.000Z</time>
      </trkpt>
      <trkpt lat="42.96272101812064647674560546875" lon="-2.35694347880780696868896484375">
        <ele>1167.5999755859375</ele>
        <time>2022-04-17T11:52:47.000Z</time>
      </trkpt>
      <trkpt lat="42.962713055312633514404296875" lon="-2.3569326661527156829833984375">
        <ele>1167.4000244140625</ele>
        <time>2022-04-17T11:52:48.000Z</time>
      </trkpt>
      <trkpt lat="42.96270207501947879791259765625" lon="-2.3569252900779247283935546875">
        <ele>1167.4000244140625</ele>
        <time>2022-04-17T11:52:49.000Z</time>
      </trkpt>
      <trkpt lat="42.96268011443316936492919921875" lon="-2.35691162757575511932373046875">
        <ele>1167.199951171875</ele>
        <time>2022-04-17T11:52:50.000Z</time>
      </trkpt>
      <trkpt lat="42.96266972087323665618896484375" lon="-2.35690291039645671844482421875">
        <ele>1167</ele>
        <time>2022-04-17T11:52:51.000Z</time>
      </trkpt>
      <trkpt lat="42.962665446102619171142578125" lon="-2.356904335319995880126953125">
        <ele>1167</ele>
        <time>2022-04-17T11:52:52.000Z</time>
      </trkpt>
      <trkpt lat="42.96266376972198486328125" lon="-2.356913723051548004150390625">
        <ele>1166.800048828125</ele>
        <time>2022-04-17T11:52:53.000Z</time>
      </trkpt>
      <trkpt lat="42.9626686312258243560791015625" lon="-2.35691606998443603515625">
        <ele>1166.800048828125</ele>
        <time>2022-04-17T11:52:54.000Z</time>
      </trkpt>
      <trkpt lat="42.96267223544418811798095703125" lon="-2.35691648907959461212158203125">
        <ele>1166.5999755859375</ele>
        <time>2022-04-17T11:52:55.000Z</time>
      </trkpt>
      <trkpt lat="42.96266938559710979461669921875" lon="-2.356915064156055450439453125">
        <ele>1166.5999755859375</ele>
        <time>2022-04-17T11:52:56.000Z</time>
      </trkpt>
      <trkpt lat="42.962664775550365447998046875" lon="-2.35690693370997905731201171875">
        <ele>1166.5999755859375</ele>
        <time>2022-04-17T11:52:57.000Z</time>
      </trkpt>
      <trkpt lat="42.9626522026956081390380859375" lon="-2.35689905472099781036376953125">
        <ele>1166.4000244140625</ele>
        <time>2022-04-17T11:52:58.000Z</time>
      </trkpt>
      <trkpt lat="42.9626448266208171844482421875" lon="-2.35689620487391948699951171875">
        <ele>1166.4000244140625</ele>
        <time>2022-04-17T11:52:59.000Z</time>
      </trkpt>
      <trkpt lat="42.96264809556305408477783203125" lon="-2.35687860287725925445556640625">
        <ele>1166.5999755859375</ele>
        <time>2022-04-17T11:53:00.000Z</time>
      </trkpt>
      <trkpt lat="42.962650023400783538818359375" lon="-2.35687307082116603851318359375">
        <ele>1166.5999755859375</ele>
        <time>2022-04-17T11:53:01.000Z</time>
      </trkpt>
      <trkpt lat="42.9626552201807498931884765625" lon="-2.35686980187892913818359375">
        <ele>1166.5999755859375</ele>
        <time>2022-04-17T11:53:02.000Z</time>
      </trkpt>
      <trkpt lat="42.9626565612852573394775390625" lon="-2.35687139444053173065185546875">
        <ele>1166.800048828125</ele>
        <time>2022-04-17T11:53:03.000Z</time>
      </trkpt>
      <trkpt lat="42.96265396289527416229248046875" lon="-2.35687525011599063873291015625">
        <ele>1166.800048828125</ele>
        <time>2022-04-17T11:53:04.000Z</time>
      </trkpt>
      <trkpt lat="42.96265329234302043914794921875" lon="-2.35687315464019775390625">
        <ele>1166.800048828125</ele>
        <time>2022-04-17T11:53:05.000Z</time>
      </trkpt>
      <trkpt lat="42.9626444913446903228759765625" lon="-2.35687357373535633087158203125">
        <ele>1167</ele>
        <time>2022-04-17T11:53:06.000Z</time>
      </trkpt>
      <trkpt lat="42.96263493597507476806640625" lon="-2.3568756692111492156982421875">
        <ele>1167</ele>
        <time>2022-04-17T11:53:07.000Z</time>
      </trkpt>
      <trkpt lat="42.96263233758509159088134765625" lon="-2.35688027925789356231689453125">
        <ele>1167</ele>
        <time>2022-04-17T11:53:08.000Z</time>
      </trkpt>
      <trkpt lat="42.962633930146694183349609375" lon="-2.35688212327659130096435546875">
        <ele>1166.800048828125</ele>
        <time>2022-04-17T11:53:09.000Z</time>
      </trkpt>
      <trkpt lat="42.96263535507023334503173828125" lon="-2.35688245855271816253662109375">
        <ele>1166.800048828125</ele>
        <time>2022-04-17T11:53:10.000Z</time>
      </trkpt>
      <trkpt lat="42.962638624012470245361328125" lon="-2.35688044689595699310302734375">
        <ele>1166.5999755859375</ele>
        <time>2022-04-17T11:53:11.000Z</time>
      </trkpt>
      <trkpt lat="42.96264206059277057647705078125" lon="-2.35687927342951297760009765625">
        <ele>1166.5999755859375</ele>
        <time>2022-04-17T11:53:12.000Z</time>
      </trkpt>
      <trkpt lat="42.962646000087261199951171875" lon="-2.35687592066824436187744140625">
        <ele>1166.4000244140625</ele>
        <time>2022-04-17T11:53:13.000Z</time>
      </trkpt>
      <trkpt lat="42.96264943666756153106689453125" lon="-2.35687256790697574615478515625">
        <ele>1166.4000244140625</ele>
        <time>2022-04-17T11:53:14.000Z</time>
      </trkpt>
      <trkpt lat="42.962650023400783538818359375" lon="-2.35686779022216796875">
        <ele>1166.4000244140625</ele>
        <time>2022-04-17T11:53:15.000Z</time>
      </trkpt>
      <trkpt lat="42.9626501910388469696044921875" lon="-2.3568649403750896453857421875">
        <ele>1166.4000244140625</ele>
        <time>2022-04-17T11:53:16.000Z</time>
      </trkpt>
      <trkpt lat="42.9626508615911006927490234375" lon="-2.3568625934422016143798828125">
        <ele>1166.4000244140625</ele>
        <time>2022-04-17T11:53:17.000Z</time>
      </trkpt>
      <trkpt lat="42.96264725737273693084716796875" lon="-2.35686041414737701416015625">
        <ele>1166.4000244140625</ele>
        <time>2022-04-17T11:53:18.000Z</time>
      </trkpt>
      <trkpt lat="42.9626414738595485687255859375" lon="-2.35685781575739383697509765625">
        <ele>1166.4000244140625</ele>
        <time>2022-04-17T11:53:19.000Z</time>
      </trkpt>
      <trkpt lat="42.96263686381280422210693359375" lon="-2.356853373348712921142578125">
        <ele>1166.4000244140625</ele>
        <time>2022-04-17T11:53:20.000Z</time>
      </trkpt>
      <trkpt lat="42.9626344330608844757080078125" lon="-2.35684943385422229766845703125">
        <ele>1166.4000244140625</ele>
        <time>2022-04-17T11:53:21.000Z</time>
      </trkpt>
      <trkpt lat="42.96263149939477443695068359375" lon="-2.3568481765687465667724609375">
        <ele>1166.4000244140625</ele>
        <time>2022-04-17T11:53:22.000Z</time>
      </trkpt>
      <trkpt lat="42.96263066120445728302001953125" lon="-2.3568505235016345977783203125">
        <ele>1166.4000244140625</ele>
        <time>2022-04-17T11:53:23.000Z</time>
      </trkpt>
      <trkpt lat="42.962630577385425567626953125" lon="-2.35685504972934722900390625">
        <ele>1166.4000244140625</ele>
        <time>2022-04-17T11:53:24.000Z</time>
      </trkpt>
      <trkpt lat="42.9626330919563770294189453125" lon="-2.3568545468151569366455078125">
        <ele>1166.4000244140625</ele>
        <time>2022-04-17T11:53:25.000Z</time>
      </trkpt>
      <trkpt lat="42.96263493597507476806640625" lon="-2.35684306360781192779541015625">
        <ele>1166.199951171875</ele>
        <time>2022-04-17T11:53:26.000Z</time>
      </trkpt>
      <trkpt lat="42.96263200230896472930908203125" lon="-2.3568320833146572113037109375">
        <ele>1166.199951171875</ele>
        <time>2022-04-17T11:53:27.000Z</time>
      </trkpt>
      <trkpt lat="42.96262881718575954437255859375" lon="-2.35681909136474132537841796875">
        <ele>1166</ele>
        <time>2022-04-17T11:53:28.000Z</time>
      </trkpt>
      <trkpt lat="42.96262613497674465179443359375" lon="-2.35680769197642803192138671875">
        <ele>1166</ele>
        <time>2022-04-17T11:53:29.000Z</time>
      </trkpt>
      <trkpt lat="42.96262429095804691314697265625" lon="-2.35679696314036846160888671875">
        <ele>1166</ele>
        <time>2022-04-17T11:53:30.000Z</time>
      </trkpt>
      <trkpt lat="42.962623201310634613037109375" lon="-2.35679126344621181488037109375">
        <ele>1166</ele>
        <time>2022-04-17T11:53:31.000Z</time>
      </trkpt>
      <trkpt lat="42.9626193456351757049560546875" lon="-2.35678908415138721466064453125">
        <ele>1166</ele>
        <time>2022-04-17T11:53:32.000Z</time>
      </trkpt>
      <trkpt lat="42.96261322684586048126220703125" lon="-2.35678321681916713714599609375">
        <ele>1166</ele>
        <time>2022-04-17T11:53:33.000Z</time>
      </trkpt>
      <trkpt lat="42.962607108056545257568359375" lon="-2.356773912906646728515625">
        <ele>1166</ele>
        <time>2022-04-17T11:53:34.000Z</time>
      </trkpt>
      <trkpt lat="42.962600402534008026123046875" lon="-2.35676494427025318145751953125">
        <ele>1166</ele>
        <time>2022-04-17T11:53:35.000Z</time>
      </trkpt>
      <trkpt lat="42.9625928588211536407470703125" lon="-2.3567546345293521881103515625">
        <ele>1166</ele>
        <time>2022-04-17T11:53:36.000Z</time>
      </trkpt>
      <trkpt lat="42.96258975751698017120361328125" lon="-2.35673862509429454803466796875">
        <ele>1166</ele>
        <time>2022-04-17T11:53:37.000Z</time>
      </trkpt>
      <trkpt lat="42.96259193681180477142333984375" lon="-2.356726638972759246826171875">
        <ele>1166</ele>
        <time>2022-04-17T11:53:38.000Z</time>
      </trkpt>
      <trkpt lat="42.96258958987891674041748046875" lon="-2.35671649686992168426513671875">
        <ele>1166</ele>
        <time>2022-04-17T11:53:39.000Z</time>
      </trkpt>
      <trkpt lat="42.9625873267650604248046875" lon="-2.35670610330998897552490234375">
        <ele>1166</ele>
        <time>2022-04-17T11:53:40.000Z</time>
      </trkpt>
      <trkpt lat="42.96258439309895038604736328125" lon="-2.35669612884521484375">
        <ele>1166</ele>
        <time>2022-04-17T11:53:41.000Z</time>
      </trkpt>
      <trkpt lat="42.9625797830522060394287109375" lon="-2.35668766312301158905029296875">
        <ele>1166</ele>
        <time>2022-04-17T11:53:42.000Z</time>
      </trkpt>
      <trkpt lat="42.96257031150162220001220703125" lon="-2.356678359210491180419921875">
        <ele>1166</ele>
        <time>2022-04-17T11:53:43.000Z</time>
      </trkpt>
      <trkpt lat="42.96256595291197299957275390625" lon="-2.35666335560381412506103515625">
        <ele>1165.800048828125</ele>
        <time>2022-04-17T11:53:44.000Z</time>
      </trkpt>
      <trkpt lat="42.9625600017607212066650390625" lon="-2.356648184359073638916015625">
        <ele>1165.800048828125</ele>
        <time>2022-04-17T11:53:45.000Z</time>
      </trkpt>
      <trkpt lat="42.96255690045654773712158203125" lon="-2.3566329292953014373779296875">
        <ele>1165.800048828125</ele>
        <time>2022-04-17T11:53:46.000Z</time>
      </trkpt>
      <trkpt lat="42.96255438588559627532958984375" lon="-2.35661591403186321258544921875">
        <ele>1165.800048828125</ele>
        <time>2022-04-17T11:53:47.000Z</time>
      </trkpt>
      <trkpt lat="42.96255153603851795196533203125" lon="-2.35660032369196414947509765625">
        <ele>1165.800048828125</ele>
        <time>2022-04-17T11:53:48.000Z</time>
      </trkpt>
      <trkpt lat="42.96254508197307586669921875" lon="-2.35658858902752399444580078125">
        <ele>1165.800048828125</ele>
        <time>2022-04-17T11:53:49.000Z</time>
      </trkpt>
      <trkpt lat="42.96253728680312633514404296875" lon="-2.3565792851150035858154296875">
        <ele>1165.5999755859375</ele>
        <time>2022-04-17T11:53:50.000Z</time>
      </trkpt>
      <trkpt lat="42.9625318385660648345947265625" lon="-2.35656671226024627685546875">
        <ele>1165.5999755859375</ele>
        <time>2022-04-17T11:53:51.000Z</time>
      </trkpt>
      <trkpt lat="42.96253058128058910369873046875" lon="-2.35655506141483783721923828125">
        <ele>1165.5999755859375</ele>
        <time>2022-04-17T11:53:52.000Z</time>
      </trkpt>
      <trkpt lat="42.962527312338352203369140625" lon="-2.35654852353036403656005859375">
        <ele>1165.5999755859375</ele>
        <time>2022-04-17T11:53:53.000Z</time>
      </trkpt>
      <trkpt lat="42.9625258035957813262939453125" lon="-2.35654450021684169769287109375">
        <ele>1165.5999755859375</ele>
        <time>2022-04-17T11:53:54.000Z</time>
      </trkpt>
      <trkpt lat="42.96251985244452953338623046875" lon="-2.35653863288462162017822265625">
        <ele>1165.5999755859375</ele>
        <time>2022-04-17T11:53:55.000Z</time>
      </trkpt>
      <trkpt lat="42.96251096762716770172119140625" lon="-2.35652890987694263458251953125">
        <ele>1165.5999755859375</ele>
        <time>2022-04-17T11:53:56.000Z</time>
      </trkpt>
      <trkpt lat="42.96249655075371265411376953125" lon="-2.35652488656342029571533203125">
        <ele>1165.800048828125</ele>
        <time>2022-04-17T11:53:57.000Z</time>
      </trkpt>
      <trkpt lat="42.9624885879456996917724609375" lon="-2.35651818104088306427001953125">
        <ele>1165.800048828125</ele>
        <time>2022-04-17T11:53:58.000Z</time>
      </trkpt>
      <trkpt lat="42.96248129568994045257568359375" lon="-2.35650929622352123260498046875">
        <ele>1165.800048828125</ele>
        <time>2022-04-17T11:53:59.000Z</time>
      </trkpt>
      <trkpt lat="42.96247266232967376708984375" lon="-2.3564998246729373931884765625">
        <ele>1165.800048828125</ele>
        <time>2022-04-17T11:54:00.000Z</time>
      </trkpt>
      <trkpt lat="42.96246486715972423553466796875" lon="-2.35649026930332183837890625">
        <ele>1166</ele>
        <time>2022-04-17T11:54:01.000Z</time>
      </trkpt>
      <trkpt lat="42.9624574072659015655517578125" lon="-2.35647945664823055267333984375">
        <ele>1166</ele>
        <time>2022-04-17T11:54:02.000Z</time>
      </trkpt>
      <trkpt lat="42.96244877390563488006591796875" lon="-2.35647023655474185943603515625">
        <ele>1166</ele>
        <time>2022-04-17T11:54:03.000Z</time>
      </trkpt>
      <trkpt lat="42.96243854798376560211181640625" lon="-2.35646436922252178192138671875">
        <ele>1166.199951171875</ele>
        <time>2022-04-17T11:54:04.000Z</time>
      </trkpt>
      <trkpt lat="42.96242681331932544708251953125" lon="-2.3564595915377140045166015625">
        <ele>1166.199951171875</ele>
        <time>2022-04-17T11:54:05.000Z</time>
      </trkpt>
      <trkpt lat="42.962418012320995330810546875" lon="-2.3564555682241916656494140625">
        <ele>1166.199951171875</ele>
        <time>2022-04-17T11:54:06.000Z</time>
      </trkpt>
      <trkpt lat="42.962411977350711822509765625" lon="-2.3564491979777812957763671875">
        <ele>1166.199951171875</ele>
        <time>2022-04-17T11:54:07.000Z</time>
      </trkpt>
      <trkpt lat="42.9624051041901111602783203125" lon="-2.356441654264926910400390625">
        <ele>1166.4000244140625</ele>
        <time>2022-04-17T11:54:08.000Z</time>
      </trkpt>
      <trkpt lat="42.9623995721340179443359375" lon="-2.3564319312572479248046875">
        <ele>1166.4000244140625</ele>
        <time>2022-04-17T11:54:09.000Z</time>
      </trkpt>
      <trkpt lat="42.96239487826824188232421875" lon="-2.3564243875443935394287109375">
        <ele>1166.4000244140625</ele>
        <time>2022-04-17T11:54:10.000Z</time>
      </trkpt>
      <trkpt lat="42.962391860783100128173828125" lon="-2.3564136587083339691162109375">
        <ele>1166.4000244140625</ele>
        <time>2022-04-17T11:54:11.000Z</time>
      </trkpt>
      <trkpt lat="42.962387502193450927734375" lon="-2.356405444443225860595703125">
        <ele>1166.4000244140625</ele>
        <time>2022-04-17T11:54:12.000Z</time>
      </trkpt>
      <trkpt lat="42.96238481998443603515625" lon="-2.356394715607166290283203125">
        <ele>1166.4000244140625</ele>
        <time>2022-04-17T11:54:13.000Z</time>
      </trkpt>
      <trkpt lat="42.96238423325121402740478515625" lon="-2.35638440586626529693603515625">
        <ele>1166.4000244140625</ele>
        <time>2022-04-17T11:54:14.000Z</time>
      </trkpt>
      <trkpt lat="42.96238255687057971954345703125" lon="-2.35637166537344455718994140625">
        <ele>1166.5999755859375</ele>
        <time>2022-04-17T11:54:15.000Z</time>
      </trkpt>
      <trkpt lat="42.96237853355705738067626953125" lon="-2.3563596792519092559814453125">
        <ele>1166.5999755859375</ele>
        <time>2022-04-17T11:54:16.000Z</time>
      </trkpt>
      <trkpt lat="42.96237300150096416473388671875" lon="-2.35634584911167621612548828125">
        <ele>1166.5999755859375</ele>
        <time>2022-04-17T11:54:17.000Z</time>
      </trkpt>
      <trkpt lat="42.96236948110163211822509765625" lon="-2.3563341982662677764892578125">
        <ele>1166.5999755859375</ele>
        <time>2022-04-17T11:54:18.000Z</time>
      </trkpt>
      <trkpt lat="42.9623648710548877716064453125" lon="-2.35632531344890594482421875">
        <ele>1166.5999755859375</ele>
        <time>2022-04-17T11:54:19.000Z</time>
      </trkpt>
      <trkpt lat="42.96236042864620685577392578125" lon="-2.35632221214473247528076171875">
        <ele>1166.5999755859375</ele>
        <time>2022-04-17T11:54:20.000Z</time>
      </trkpt>
      <trkpt lat="42.96235372312366962432861328125" lon="-2.356314919888973236083984375">
        <ele>1166.5999755859375</ele>
        <time>2022-04-17T11:54:21.000Z</time>
      </trkpt>
      <trkpt lat="42.96234919689595699310302734375" lon="-2.35630477778613567352294921875">
        <ele>1166.5999755859375</ele>
        <time>2022-04-17T11:54:22.000Z</time>
      </trkpt>
      <trkpt lat="42.96233964152634143829345703125" lon="-2.35629237256944179534912109375">
        <ele>1166.4000244140625</ele>
        <time>2022-04-17T11:54:23.000Z</time>
      </trkpt>
      <trkpt lat="42.96233260072767734527587890625" lon="-2.35627971589565277099609375">
        <ele>1166.4000244140625</ele>
        <time>2022-04-17T11:54:24.000Z</time>
      </trkpt>
      <trkpt lat="42.962326146662235260009765625" lon="-2.35627166926860809326171875">
        <ele>1166.4000244140625</ele>
        <time>2022-04-17T11:54:25.000Z</time>
      </trkpt>
      <trkpt lat="42.96232086606323719024658203125" lon="-2.35626571811735630035400390625">
        <ele>1166.199951171875</ele>
        <time>2022-04-17T11:54:26.000Z</time>
      </trkpt>
      <trkpt lat="42.96231566928327083587646484375" lon="-2.35625951550900936126708984375">
        <ele>1166.199951171875</ele>
        <time>2022-04-17T11:54:27.000Z</time>
      </trkpt>
      <trkpt lat="42.96231633983552455902099609375" lon="-2.356248535215854644775390625">
        <ele>1166</ele>
        <time>2022-04-17T11:54:28.000Z</time>
      </trkpt>
      <trkpt lat="42.96230904757976531982421875" lon="-2.3562396503984928131103515625">
        <ele>1166</ele>
        <time>2022-04-17T11:54:29.000Z</time>
      </trkpt>
      <trkpt lat="42.9622934572398662567138671875" lon="-2.35623839311301708221435546875">
        <ele>1166</ele>
        <time>2022-04-17T11:54:30.000Z</time>
      </trkpt>
      <trkpt lat="42.96227543614804744720458984375" lon="-2.3562259040772914886474609375">
        <ele>1165.800048828125</ele>
        <time>2022-04-17T11:54:31.000Z</time>
      </trkpt>
      <trkpt lat="42.962267138063907623291015625" lon="-2.3562101460993289947509765625">
        <ele>1165.5999755859375</ele>
        <time>2022-04-17T11:54:32.000Z</time>
      </trkpt>
      <trkpt lat="42.962267138063907623291015625" lon="-2.35619765706360340118408203125">
        <ele>1165.5999755859375</ele>
        <time>2022-04-17T11:54:33.000Z</time>
      </trkpt>
      <trkpt lat="42.96226101927459239959716796875" lon="-2.356179468333721160888671875">
        <ele>1165.199951171875</ele>
        <time>2022-04-17T11:54:34.000Z</time>
      </trkpt>
      <trkpt lat="42.962258756160736083984375" lon="-2.35616278834640979766845703125">
        <ele>1165.199951171875</ele>
        <time>2022-04-17T11:54:35.000Z</time>
      </trkpt>
      <trkpt lat="42.96225406229496002197265625" lon="-2.35614652745425701141357421875">
        <ele>1165</ele>
        <time>2022-04-17T11:54:36.000Z</time>
      </trkpt>
      <trkpt lat="42.96225012280046939849853515625" lon="-2.35613479278981685638427734375">
        <ele>1164.800048828125</ele>
        <time>2022-04-17T11:54:37.000Z</time>
      </trkpt>
      <trkpt lat="42.96224492602050304412841796875" lon="-2.35612548887729644775390625">
        <ele>1164.5999755859375</ele>
        <time>2022-04-17T11:54:38.000Z</time>
      </trkpt>
      <trkpt lat="42.96223889105021953582763671875" lon="-2.3561125807464122772216796875">
        <ele>1164.5999755859375</ele>
        <time>2022-04-17T11:54:39.000Z</time>
      </trkpt>
      <trkpt lat="42.96223637647926807403564453125" lon="-2.356106378138065338134765625">
        <ele>1164.4000244140625</ele>
        <time>2022-04-17T11:54:40.000Z</time>
      </trkpt>
      <trkpt lat="42.96223235316574573516845703125" lon="-2.3560984991490840911865234375">
        <ele>1164.4000244140625</ele>
        <time>2022-04-17T11:54:41.000Z</time>
      </trkpt>
      <trkpt lat="42.96222858130931854248046875" lon="-2.356093637645244598388671875">
        <ele>1164.4000244140625</ele>
        <time>2022-04-17T11:54:42.000Z</time>
      </trkpt>
      <trkpt lat="42.962226569652557373046875" lon="-2.35608835704624652862548828125">
        <ele>1164.4000244140625</ele>
        <time>2022-04-17T11:54:43.000Z</time>
      </trkpt>
      <trkpt lat="42.9622240550816059112548828125" lon="-2.35608416609466075897216796875">
        <ele>1164.4000244140625</ele>
        <time>2022-04-17T11:54:44.000Z</time>
      </trkpt>
      <trkpt lat="42.962219528853893280029296875" lon="-2.35607410781085491180419921875">
        <ele>1164.4000244140625</ele>
        <time>2022-04-17T11:54:45.000Z</time>
      </trkpt>
      <trkpt lat="42.9622153379023075103759765625" lon="-2.3560646362602710723876953125">
        <ele>1164.4000244140625</ele>
        <time>2022-04-17T11:54:46.000Z</time>
      </trkpt>
      <trkpt lat="42.96220938675105571746826171875" lon="-2.3560559190809726715087890625">
        <ele>1164.199951171875</ele>
        <time>2022-04-17T11:54:47.000Z</time>
      </trkpt>
      <trkpt lat="42.96220351941883563995361328125" lon="-2.3560483753681182861328125">
        <ele>1164.199951171875</ele>
        <time>2022-04-17T11:54:48.000Z</time>
      </trkpt>
      <trkpt lat="42.96219714917242527008056640625" lon="-2.35604426823556423187255859375">
        <ele>1164.199951171875</ele>
        <time>2022-04-17T11:54:49.000Z</time>
      </trkpt>
      <trkpt lat="42.9621895216405391693115234375" lon="-2.356044352054595947265625">
        <ele>1164.199951171875</ele>
        <time>2022-04-17T11:54:50.000Z</time>
      </trkpt>
      <trkpt lat="42.96218105591833591461181640625" lon="-2.35604158602654933929443359375">
        <ele>1164</ele>
        <time>2022-04-17T11:54:51.000Z</time>
      </trkpt>
      <trkpt lat="42.9621737636625766754150390625" lon="-2.3560314439237117767333984375">
        <ele>1164</ele>
        <time>2022-04-17T11:54:52.000Z</time>
      </trkpt>
      <trkpt lat="42.96216378919780254364013671875" lon="-2.3560188710689544677734375">
        <ele>1164</ele>
        <time>2022-04-17T11:54:53.000Z</time>
      </trkpt>
      <trkpt lat="42.9621541500091552734375" lon="-2.35600772313773632049560546875">
        <ele>1163.800048828125</ele>
        <time>2022-04-17T11:54:54.000Z</time>
      </trkpt>
      <trkpt lat="42.962149120867252349853515625" lon="-2.355997748672962188720703125">
        <ele>1163.800048828125</ele>
        <time>2022-04-17T11:54:55.000Z</time>
      </trkpt>
      <trkpt lat="42.9621415771543979644775390625" lon="-2.3559868521988391876220703125">
        <ele>1163.800048828125</ele>
        <time>2022-04-17T11:54:56.000Z</time>
      </trkpt>
      <trkpt lat="42.96213294379413127899169921875" lon="-2.35597888939082622528076171875">
        <ele>1163.5999755859375</ele>
        <time>2022-04-17T11:54:57.000Z</time>
      </trkpt>
      <trkpt lat="42.96212523244321346282958984375" lon="-2.35596782527863979339599609375">
        <ele>1163.4000244140625</ele>
        <time>2022-04-17T11:54:58.000Z</time>
      </trkpt>
      <trkpt lat="42.9621197842061519622802734375" lon="-2.35595826990902423858642578125">
        <ele>1163.4000244140625</ele>
        <time>2022-04-17T11:54:59.000Z</time>
      </trkpt>
      <trkpt lat="42.962115593254566192626953125" lon="-2.35594888217747211456298828125">
        <ele>1163.4000244140625</ele>
        <time>2022-04-17T11:55:00.000Z</time>
      </trkpt>
      <trkpt lat="42.96211433596909046173095703125" lon="-2.35593966208398342132568359375">
        <ele>1163.199951171875</ele>
        <time>2022-04-17T11:55:01.000Z</time>
      </trkpt>
      <trkpt lat="42.96210712753236293792724609375" lon="-2.355930693447589874267578125">
        <ele>1163.199951171875</ele>
        <time>2022-04-17T11:55:02.000Z</time>
      </trkpt>
      <trkpt lat="42.96209908090531826019287109375" lon="-2.35591837204992771148681640625">
        <ele>1163.199951171875</ele>
        <time>2022-04-17T11:55:03.000Z</time>
      </trkpt>
      <trkpt lat="42.9620922915637493133544921875" lon="-2.355902530252933502197265625">
        <ele>1163.199951171875</ele>
        <time>2022-04-17T11:55:04.000Z</time>
      </trkpt>
      <trkpt lat="42.96208416111767292022705078125" lon="-2.3558866046369075775146484375">
        <ele>1163.199951171875</ele>
        <time>2022-04-17T11:55:05.000Z</time>
      </trkpt>
      <trkpt lat="42.96207359991967678070068359375" lon="-2.3558708466589450836181640625">
        <ele>1163.199951171875</ele>
        <time>2022-04-17T11:55:06.000Z</time>
      </trkpt>
      <trkpt lat="42.96206052415072917938232421875" lon="-2.3558584414422512054443359375">
        <ele>1163.199951171875</ele>
        <time>2022-04-17T11:55:07.000Z</time>
      </trkpt>
      <trkpt lat="42.96204887330532073974609375" lon="-2.35584947280585765838623046875">
        <ele>1163.199951171875</ele>
        <time>2022-04-17T11:55:08.000Z</time>
      </trkpt>
      <trkpt lat="42.96203906647861003875732421875" lon="-2.3558457009494304656982421875">
        <ele>1163</ele>
        <time>2022-04-17T11:55:09.000Z</time>
      </trkpt>
      <trkpt lat="42.96203001402318477630615234375" lon="-2.3558366484940052032470703125">
        <ele>1163</ele>
        <time>2022-04-17T11:55:10.000Z</time>
      </trkpt>
      <trkpt lat="42.96201911754906177520751953125" lon="-2.35582181252539157867431640625">
        <ele>1163</ele>
        <time>2022-04-17T11:55:11.000Z</time>
      </trkpt>
      <trkpt lat="42.96200520358979701995849609375" lon="-2.3558123409748077392578125">
        <ele>1163</ele>
        <time>2022-04-17T11:55:12.000Z</time>
      </trkpt>
      <trkpt lat="42.961996234953403472900390625" lon="-2.3558061383664608001708984375">
        <ele>1162.800048828125</ele>
        <time>2022-04-17T11:55:13.000Z</time>
      </trkpt>
      <trkpt lat="42.9619873501360416412353515625" lon="-2.3557994328439235687255859375">
        <ele>1162.800048828125</ele>
        <time>2022-04-17T11:55:14.000Z</time>
      </trkpt>
      <trkpt lat="42.9619779624044895172119140625" lon="-2.3557927273213863372802734375">
        <ele>1162.800048828125</ele>
        <time>2022-04-17T11:55:15.000Z</time>
      </trkpt>
      <trkpt lat="42.96196580864489078521728515625" lon="-2.3557890392839908599853515625">
        <ele>1163</ele>
        <time>2022-04-17T11:55:16.000Z</time>
      </trkpt>
      <trkpt lat="42.9619596898555755615234375" lon="-2.3557841777801513671875">
        <ele>1163</ele>
        <time>2022-04-17T11:55:17.000Z</time>
      </trkpt>
      <trkpt lat="42.961953319609165191650390625" lon="-2.3557809926569461822509765625">
        <ele>1163</ele>
        <time>2022-04-17T11:55:18.000Z</time>
      </trkpt>
      <trkpt lat="42.961945943534374237060546875" lon="-2.35577470622956752777099609375">
        <ele>1163</ele>
        <time>2022-04-17T11:55:19.000Z</time>
      </trkpt>
      <trkpt lat="42.96194351278245449066162109375" lon="-2.35576313920319080352783203125">
        <ele>1163</ele>
        <time>2022-04-17T11:55:20.000Z</time>
      </trkpt>
      <trkpt lat="42.96193932183086872100830078125" lon="-2.3557521589100360870361328125">
        <ele>1163.199951171875</ele>
        <time>2022-04-17T11:55:21.000Z</time>
      </trkpt>
      <trkpt lat="42.9619373939931392669677734375" lon="-2.35574704594910144805908203125">
        <ele>1163.199951171875</ele>
        <time>2022-04-17T11:55:22.000Z</time>
      </trkpt>
      <trkpt lat="42.9619424231350421905517578125" lon="-2.3557387478649616241455078125">
        <ele>1163.4000244140625</ele>
        <time>2022-04-17T11:55:23.000Z</time>
      </trkpt>
      <trkpt lat="42.9619424231350421905517578125" lon="-2.3557265102863311767578125">
        <ele>1163.4000244140625</ele>
        <time>2022-04-17T11:55:24.000Z</time>
      </trkpt>
      <trkpt lat="42.9619414173066616058349609375" lon="-2.35571913421154022216796875">
        <ele>1163.5999755859375</ele>
        <time>2022-04-17T11:55:25.000Z</time>
      </trkpt>
      <trkpt lat="42.9619397409260272979736328125" lon="-2.35571050085127353668212890625">
        <ele>1163.5999755859375</ele>
        <time>2022-04-17T11:55:26.000Z</time>
      </trkpt>
      <trkpt lat="42.96194150112569332122802734375" lon="-2.3557005263864994049072265625">
        <ele>1163.800048828125</ele>
        <time>2022-04-17T11:55:27.000Z</time>
      </trkpt>
      <trkpt lat="42.96194401569664478302001953125" lon="-2.3556928150355815887451171875">
        <ele>1163.800048828125</ele>
        <time>2022-04-17T11:55:28.000Z</time>
      </trkpt>
      <trkpt lat="42.96194066293537616729736328125" lon="-2.35568225383758544921875">
        <ele>1163.800048828125</ele>
        <time>2022-04-17T11:55:29.000Z</time>
      </trkpt>
      <trkpt lat="42.9619387350976467132568359375" lon="-2.35567278228700160980224609375">
        <ele>1164</ele>
        <time>2022-04-17T11:55:30.000Z</time>
      </trkpt>
      <trkpt lat="42.96193881891667842864990234375" lon="-2.35566808842122554779052734375">
        <ele>1164</ele>
        <time>2022-04-17T11:55:31.000Z</time>
      </trkpt>
      <trkpt lat="42.9619367234408855438232421875" lon="-2.35566758550703525543212890625">
        <ele>1164</ele>
        <time>2022-04-17T11:55:32.000Z</time>
      </trkpt>
      <trkpt lat="42.96193161047995090484619140625" lon="-2.35567395575344562530517578125">
        <ele>1164</ele>
        <time>2022-04-17T11:55:33.000Z</time>
      </trkpt>
      <trkpt lat="42.96193144284188747406005859375" lon="-2.35568024218082427978515625">
        <ele>1164</ele>
        <time>2022-04-17T11:55:34.000Z</time>
      </trkpt>
      <trkpt lat="42.96193496324121952056884765625" lon="-2.35567311756312847137451171875">
        <ele>1164.199951171875</ele>
        <time>2022-04-17T11:55:35.000Z</time>
      </trkpt>
      <trkpt lat="42.9619353823363780975341796875" lon="-2.35566280782222747802734375">
        <ele>1164.199951171875</ele>
        <time>2022-04-17T11:55:36.000Z</time>
      </trkpt>
      <trkpt lat="42.96193513087928295135498046875" lon="-2.35565476119518280029296875">
        <ele>1164.199951171875</ele>
        <time>2022-04-17T11:55:37.000Z</time>
      </trkpt>
      <trkpt lat="42.9619353823363780975341796875" lon="-2.35564964823424816131591796875">
        <ele>1164.199951171875</ele>
        <time>2022-04-17T11:55:38.000Z</time>
      </trkpt>
      <trkpt lat="42.96193496324121952056884765625" lon="-2.3556468822062015533447265625">
        <ele>1164.199951171875</ele>
        <time>2022-04-17T11:55:39.000Z</time>
      </trkpt>
      <trkpt lat="42.9619380645453929901123046875" lon="-2.355643697082996368408203125">
        <ele>1164.4000244140625</ele>
        <time>2022-04-17T11:55:40.000Z</time>
      </trkpt>
      <trkpt lat="42.96194150112569332122802734375" lon="-2.35564009286463260650634765625">
        <ele>1164.4000244140625</ele>
        <time>2022-04-17T11:55:41.000Z</time>
      </trkpt>
      <trkpt lat="42.9619395732879638671875" lon="-2.3556368239223957061767578125">
        <ele>1164.4000244140625</ele>
        <time>2022-04-17T11:55:42.000Z</time>
      </trkpt>
      <trkpt lat="42.9619430936872959136962890625" lon="-2.35561494715511798858642578125">
        <ele>1164.4000244140625</ele>
        <time>2022-04-17T11:55:43.000Z</time>
      </trkpt>
      <trkpt lat="42.96194703318178653717041015625" lon="-2.35559885390102863311767578125">
        <ele>1164.5999755859375</ele>
        <time>2022-04-17T11:55:44.000Z</time>
      </trkpt>
      <trkpt lat="42.961951307952404022216796875" lon="-2.35558544285595417022705078125">
        <ele>1164.5999755859375</ele>
        <time>2022-04-17T11:55:45.000Z</time>
      </trkpt>
      <trkpt lat="42.961956001818180084228515625" lon="-2.3555704392492771148681640625">
        <ele>1164.5999755859375</ele>
        <time>2022-04-17T11:55:46.000Z</time>
      </trkpt>
      <trkpt lat="42.96195658855140209197998046875" lon="-2.3555566929280757904052734375">
        <ele>1164.800048828125</ele>
        <time>2022-04-17T11:55:47.000Z</time>
      </trkpt>
      <trkpt lat="42.9619585163891315460205078125" lon="-2.35554353334009647369384765625">
        <ele>1164.800048828125</ele>
        <time>2022-04-17T11:55:48.000Z</time>
      </trkpt>
      <trkpt lat="42.961962036788463592529296875" lon="-2.3555281944572925567626953125">
        <ele>1164.800048828125</ele>
        <time>2022-04-17T11:55:49.000Z</time>
      </trkpt>
      <trkpt lat="42.96196572482585906982421875" lon="-2.35552207566797733306884765625">
        <ele>1164.800048828125</ele>
        <time>2022-04-17T11:55:50.000Z</time>
      </trkpt>
      <trkpt lat="42.9619692452251911163330078125" lon="-2.35551386140286922454833984375">
        <ele>1164.800048828125</ele>
        <time>2022-04-17T11:55:51.000Z</time>
      </trkpt>
      <trkpt lat="42.96196916140615940093994140625" lon="-2.35551184974610805511474609375">
        <ele>1165</ele>
        <time>2022-04-17T11:55:52.000Z</time>
      </trkpt>
      <trkpt lat="42.96196639537811279296875" lon="-2.35551503486931324005126953125">
        <ele>1165</ele>
        <time>2022-04-17T11:55:53.000Z</time>
      </trkpt>
      <trkpt lat="42.961962707340717315673828125" lon="-2.35551771707832813262939453125">
        <ele>1165</ele>
        <time>2022-04-17T11:55:54.000Z</time>
      </trkpt>
      <trkpt lat="42.9619635455310344696044921875" lon="-2.355517633259296417236328125">
        <ele>1165</ele>
        <time>2022-04-17T11:55:55.000Z</time>
      </trkpt>
      <trkpt lat="42.961963713169097900390625" lon="-2.35551721416413784027099609375">
        <ele>1164.800048828125</ele>
        <time>2022-04-17T11:55:56.000Z</time>
      </trkpt>
      <trkpt lat="42.9619628749787807464599609375" lon="-2.35551637597382068634033203125">
        <ele>1164.800048828125</ele>
        <time>2022-04-17T11:55:57.000Z</time>
      </trkpt>
      <trkpt lat="42.961966730654239654541015625" lon="-2.355516292154788970947265625">
        <ele>1164.5999755859375</ele>
        <time>2022-04-17T11:55:58.000Z</time>
      </trkpt>
      <trkpt lat="42.9619668982923030853271484375" lon="-2.3555172979831695556640625">
        <ele>1164.5999755859375</ele>
        <time>2022-04-17T11:55:59.000Z</time>
      </trkpt>
      <trkpt lat="42.961965389549732208251953125" lon="-2.35551469959318637847900390625">
        <ele>1164.5999755859375</ele>
        <time>2022-04-17T11:56:00.000Z</time>
      </trkpt>
      <trkpt lat="42.96196413226425647735595703125" lon="-2.35551419667899608612060546875">
        <ele>1164.5999755859375</ele>
        <time>2022-04-17T11:56:01.000Z</time>
      </trkpt>
      <trkpt lat="42.96196036040782928466796875" lon="-2.3555119335651397705078125">
        <ele>1164.800048828125</ele>
        <time>2022-04-17T11:56:02.000Z</time>
      </trkpt>
      <trkpt lat="42.96195407398045063018798828125" lon="-2.3555137775838375091552734375">
        <ele>1164.800048828125</ele>
        <time>2022-04-17T11:56:03.000Z</time>
      </trkpt>
      <trkpt lat="42.961953990161418914794921875" lon="-2.35551352612674236297607421875">
        <ele>1164.800048828125</ele>
        <time>2022-04-17T11:56:04.000Z</time>
      </trkpt>
      <trkpt lat="42.96195658855140209197998046875" lon="-2.35551302321255207061767578125">
        <ele>1164.800048828125</ele>
        <time>2022-04-17T11:56:05.000Z</time>
      </trkpt>
      <trkpt lat="42.9619578458368778228759765625" lon="-2.3555146157741546630859375">
        <ele>1165</ele>
        <time>2022-04-17T11:56:06.000Z</time>
      </trkpt>
      <trkpt lat="42.96195625327527523040771484375" lon="-2.35551687888801097869873046875">
        <ele>1165</ele>
        <time>2022-04-17T11:56:07.000Z</time>
      </trkpt>
      <trkpt lat="42.96195499598979949951171875" lon="-2.355521656572818756103515625">
        <ele>1165.199951171875</ele>
        <time>2022-04-17T11:56:08.000Z</time>
      </trkpt>
      <trkpt lat="42.9619551636278629302978515625" lon="-2.3555248416960239410400390625">
        <ele>1165.199951171875</ele>
        <time>2022-04-17T11:56:09.000Z</time>
      </trkpt>
      <trkpt lat="42.9619551636278629302978515625" lon="-2.3555248416960239410400390625">
        <ele>1165.199951171875</ele>
        <time>2022-04-17T11:56:10.000Z</time>
      </trkpt>
      <trkpt lat="42.9619551636278629302978515625" lon="-2.3555248416960239410400390625">
        <ele>1165.199951171875</ele>
        <time>2022-04-17T11:56:11.000Z</time>
      </trkpt>
      <trkpt lat="42.9619551636278629302978515625" lon="-2.3555248416960239410400390625">
        <ele>1165.199951171875</ele>
        <time>2022-04-17T11:56:12.000Z</time>
      </trkpt>
      <trkpt lat="42.9619551636278629302978515625" lon="-2.3555248416960239410400390625">
        <ele>1165</ele>
        <time>2022-04-17T11:56:13.000Z</time>
      </trkpt>
      <trkpt lat="42.9619551636278629302978515625" lon="-2.3555248416960239410400390625">
        <ele>1165</ele>
        <time>2022-04-17T11:56:14.000Z</time>
      </trkpt>
      <trkpt lat="42.9619551636278629302978515625" lon="-2.3555248416960239410400390625">
        <ele>1165</ele>
        <time>2022-04-17T11:56:15.000Z</time>
      </trkpt>
      <trkpt lat="42.9619551636278629302978515625" lon="-2.3555248416960239410400390625">
        <ele>1165</ele>
        <time>2022-04-17T11:56:16.000Z</time>
      </trkpt>
      <trkpt lat="42.9619551636278629302978515625" lon="-2.35552391968667507171630859375">
        <ele>1164.800048828125</ele>
        <time>2022-04-17T11:56:17.000Z</time>
      </trkpt>
      <trkpt lat="42.9619551636278629302978515625" lon="-2.3555238358676433563232421875">
        <ele>1164.800048828125</ele>
        <time>2022-04-17T11:56:18.000Z</time>
      </trkpt>
      <trkpt lat="42.9619551636278629302978515625" lon="-2.3555228300392627716064453125">
        <ele>1165</ele>
        <time>2022-04-17T11:56:19.000Z</time>
      </trkpt>
      <trkpt lat="42.9619551636278629302978515625" lon="-2.35552274622023105621337890625">
        <ele>1165.199951171875</ele>
        <time>2022-04-17T11:56:20.000Z</time>
      </trkpt>
      <trkpt lat="42.9619551636278629302978515625" lon="-2.355521656572818756103515625">
        <ele>1165.199951171875</ele>
        <time>2022-04-17T11:56:21.000Z</time>
      </trkpt>
      <trkpt lat="42.9619551636278629302978515625" lon="-2.35552140511572360992431640625">
        <ele>1165.199951171875</ele>
        <time>2022-04-17T11:56:22.000Z</time>
      </trkpt>
      <trkpt lat="42.9619551636278629302978515625" lon="-2.35552140511572360992431640625">
        <ele>1165.199951171875</ele>
        <time>2022-04-17T11:56:23.000Z</time>
      </trkpt>
      <trkpt lat="42.9619551636278629302978515625" lon="-2.3555211536586284637451171875">
        <ele>1165.199951171875</ele>
        <time>2022-04-17T11:56:24.000Z</time>
      </trkpt>
      <trkpt lat="42.96195524744689464569091796875" lon="-2.355520986020565032958984375">
        <ele>1165.199951171875</ele>
        <time>2022-04-17T11:56:25.000Z</time>
      </trkpt>
      <trkpt lat="42.9619554989039897918701171875" lon="-2.355520315468311309814453125">
        <ele>1165</ele>
        <time>2022-04-17T11:56:26.000Z</time>
      </trkpt>
      <trkpt lat="42.9619561694562435150146484375" lon="-2.35552023164927959442138671875">
        <ele>1165</ele>
        <time>2022-04-17T11:56:27.000Z</time>
      </trkpt>
      <trkpt lat="42.96195642091333866119384765625" lon="-2.3555198125541210174560546875">
        <ele>1165</ele>
        <time>2022-04-17T11:56:28.000Z</time>
      </trkpt>
      <trkpt lat="42.9619565047323703765869140625" lon="-2.3555171303451061248779296875">
        <ele>1165</ele>
        <time>2022-04-17T11:56:29.000Z</time>
      </trkpt>
      <trkpt lat="42.96195658855140209197998046875" lon="-2.35551486723124980926513671875">
        <ele>1165</ele>
        <time>2022-04-17T11:56:30.000Z</time>
      </trkpt>
      <trkpt lat="42.96195658855140209197998046875" lon="-2.35551469959318637847900390625">
        <ele>1165</ele>
        <time>2022-04-17T11:56:31.000Z</time>
      </trkpt>
      <trkpt lat="42.96195658855140209197998046875" lon="-2.3555146157741546630859375">
        <ele>1165</ele>
        <time>2022-04-17T11:56:32.000Z</time>
      </trkpt>
      <trkpt lat="42.961956672370433807373046875" lon="-2.3555146157741546630859375">
        <ele>1165</ele>
        <time>2022-04-17T11:56:33.000Z</time>
      </trkpt>
      <trkpt lat="42.961956672370433807373046875" lon="-2.3555146157741546630859375">
        <ele>1165</ele>
        <time>2022-04-17T11:56:34.000Z</time>
      </trkpt>
      <trkpt lat="42.961956672370433807373046875" lon="-2.3555146157741546630859375">
        <ele>1164.800048828125</ele>
        <time>2022-04-17T11:56:35.000Z</time>
      </trkpt>
      <trkpt lat="42.9619565047323703765869140625" lon="-2.35551319085061550140380859375">
        <ele>1164.800048828125</ele>
        <time>2022-04-17T11:56:36.000Z</time>
      </trkpt>
      <trkpt lat="42.9619565047323703765869140625" lon="-2.3555124364793300628662109375">
        <ele>1164.800048828125</ele>
        <time>2022-04-17T11:56:37.000Z</time>
      </trkpt>
      <trkpt lat="42.9619565047323703765869140625" lon="-2.35551184974610805511474609375">
        <ele>1164.800048828125</ele>
        <time>2022-04-17T11:56:38.000Z</time>
      </trkpt>
      <trkpt lat="42.9619565047323703765869140625" lon="-2.35551126301288604736328125">
        <ele>1164.800048828125</ele>
        <time>2022-04-17T11:56:39.000Z</time>
      </trkpt>
      <trkpt lat="42.96195642091333866119384765625" lon="-2.3555107600986957550048828125">
        <ele>1164.800048828125</ele>
        <time>2022-04-17T11:56:40.000Z</time>
      </trkpt>
      <trkpt lat="42.96195642091333866119384765625" lon="-2.35551067627966403961181640625">
        <ele>1164.800048828125</ele>
        <time>2022-04-17T11:56:41.000Z</time>
      </trkpt>
      <trkpt lat="42.96195541508495807647705078125" lon="-2.35550832934677600860595703125">
        <ele>1164.800048828125</ele>
        <time>2022-04-17T11:56:42.000Z</time>
      </trkpt>
      <trkpt lat="42.96195390634238719940185546875" lon="-2.35550765879452228546142578125">
        <ele>1164.800048828125</ele>
        <time>2022-04-17T11:56:43.000Z</time>
      </trkpt>
      <trkpt lat="42.961951978504657745361328125" lon="-2.35550749115645885467529296875">
        <ele>1164.800048828125</ele>
        <time>2022-04-17T11:56:44.000Z</time>
      </trkpt>
      <trkpt lat="42.9619516432285308837890625" lon="-2.35550749115645885467529296875">
        <ele>1164.800048828125</ele>
        <time>2022-04-17T11:56:45.000Z</time>
      </trkpt>
      <trkpt lat="42.96195122413337230682373046875" lon="-2.35550749115645885467529296875">
        <ele>1164.800048828125</ele>
        <time>2022-04-17T11:56:46.000Z</time>
      </trkpt>
      <trkpt lat="42.96195105649530887603759765625" lon="-2.35550732351839542388916015625">
        <ele>1164.800048828125</ele>
        <time>2022-04-17T11:56:47.000Z</time>
      </trkpt>
      <trkpt lat="42.96195088885724544525146484375" lon="-2.35550723969936370849609375">
        <ele>1164.800048828125</ele>
        <time>2022-04-17T11:56:48.000Z</time>
      </trkpt>
      <trkpt lat="42.96195088885724544525146484375" lon="-2.35550723969936370849609375">
        <ele>1164.800048828125</ele>
        <time>2022-04-17T11:56:49.000Z</time>
      </trkpt>
      <trkpt lat="42.96195088885724544525146484375" lon="-2.35550723969936370849609375">
        <ele>1165</ele>
        <time>2022-04-17T11:56:50.000Z</time>
      </trkpt>
      <trkpt lat="42.96195088885724544525146484375" lon="-2.35550723969936370849609375">
        <ele>1165</ele>
        <time>2022-04-17T11:56:51.000Z</time>
      </trkpt>
      <trkpt lat="42.9619504697620868682861328125" lon="-2.35550723969936370849609375">
        <ele>1165</ele>
        <time>2022-04-17T11:56:52.000Z</time>
      </trkpt>
      <trkpt lat="42.96195005066692829132080078125" lon="-2.35550723969936370849609375">
        <ele>1165</ele>
        <time>2022-04-17T11:56:53.000Z</time>
      </trkpt>
      <trkpt lat="42.96194988302886486053466796875" lon="-2.35550723969936370849609375">
        <ele>1165</ele>
        <time>2022-04-17T11:56:54.000Z</time>
      </trkpt>
      <trkpt lat="42.9619487933814525604248046875" lon="-2.35550723969936370849609375">
        <ele>1164.800048828125</ele>
        <time>2022-04-17T11:56:55.000Z</time>
      </trkpt>
      <trkpt lat="42.961947955191135406494140625" lon="-2.35550723969936370849609375">
        <ele>1164.800048828125</ele>
        <time>2022-04-17T11:56:56.000Z</time>
      </trkpt>
      <trkpt lat="42.9619477875530719757080078125" lon="-2.3555074073374271392822265625">
        <ele>1164.800048828125</ele>
        <time>2022-04-17T11:56:57.000Z</time>
      </trkpt>
      <trkpt lat="42.96194770373404026031494140625" lon="-2.35550749115645885467529296875">
        <ele>1164.800048828125</ele>
        <time>2022-04-17T11:56:58.000Z</time>
      </trkpt>
      <trkpt lat="42.96194770373404026031494140625" lon="-2.35550749115645885467529296875">
        <ele>1164.800048828125</ele>
        <time>2022-04-17T11:56:59.000Z</time>
      </trkpt>
      <trkpt lat="42.96194770373404026031494140625" lon="-2.3555077426135540008544921875">
        <ele>1164.800048828125</ele>
        <time>2022-04-17T11:57:00.000Z</time>
      </trkpt>
      <trkpt lat="42.96194694936275482177734375" lon="-2.35550816170871257781982421875">
        <ele>1164.800048828125</ele>
        <time>2022-04-17T11:57:01.000Z</time>
      </trkpt>
      <trkpt lat="42.96194669790565967559814453125" lon="-2.35550849698483943939208984375">
        <ele>1164.800048828125</ele>
        <time>2022-04-17T11:57:02.000Z</time>
      </trkpt>
      <trkpt lat="42.9619447700679302215576171875" lon="-2.35550899989902973175048828125">
        <ele>1164.800048828125</ele>
        <time>2022-04-17T11:57:03.000Z</time>
      </trkpt>
      <trkpt lat="42.96194351278245449066162109375" lon="-2.35550916753709316253662109375">
        <ele>1164.800048828125</ele>
        <time>2022-04-17T11:57:04.000Z</time>
      </trkpt>
      <trkpt lat="42.96194300986826419830322265625" lon="-2.35550916753709316253662109375">
        <ele>1165</ele>
        <time>2022-04-17T11:57:05.000Z</time>
      </trkpt>
      <trkpt lat="42.96194158494472503662109375" lon="-2.35550916753709316253662109375">
        <ele>1165</ele>
        <time>2022-04-17T11:57:06.000Z</time>
      </trkpt>
      <trkpt lat="42.9619409143924713134765625" lon="-2.35550916753709316253662109375">
        <ele>1165</ele>
        <time>2022-04-17T11:57:07.000Z</time>
      </trkpt>
      <trkpt lat="42.9619404114782810211181640625" lon="-2.35550916753709316253662109375">
        <ele>1165</ele>
        <time>2022-04-17T11:57:08.000Z</time>
      </trkpt>
      <trkpt lat="42.96193999238312244415283203125" lon="-2.35550916753709316253662109375">
        <ele>1165</ele>
        <time>2022-04-17T11:57:09.000Z</time>
      </trkpt>
      <trkpt lat="42.96193898655474185943603515625" lon="-2.35550916753709316253662109375">
        <ele>1165</ele>
        <time>2022-04-17T11:57:10.000Z</time>
      </trkpt>
      <trkpt lat="42.9619383998215198516845703125" lon="-2.35550916753709316253662109375">
        <ele>1165</ele>
        <time>2022-04-17T11:57:11.000Z</time>
      </trkpt>
      <trkpt lat="42.96204308979213237762451171875" lon="-2.3553474806249141693115234375">
        <ele>1094.5999755859375</ele>
        <time>2022-04-17T14:59:54.000Z</time>
      </trkpt>
      <trkpt lat="42.9620443470776081085205078125" lon="-2.35535996966063976287841796875">
        <ele>1094.800048828125</ele>
        <time>2022-04-17T14:59:55.000Z</time>
      </trkpt>
      <trkpt lat="42.9620383121073246002197265625" lon="-2.355378828942775726318359375">
        <ele>1094.800048828125</ele>
        <time>2022-04-17T14:59:56.000Z</time>
      </trkpt>
      <trkpt lat="42.96203504316508769989013671875" lon="-2.35539450310170650482177734375">
        <ele>1094.800048828125</ele>
        <time>2022-04-17T14:59:57.000Z</time>
      </trkpt>
      <trkpt lat="42.96203655190765857696533203125" lon="-2.35540439374744892120361328125">
        <ele>1094.800048828125</ele>
        <time>2022-04-17T14:59:58.000Z</time>
      </trkpt>
      <trkpt lat="42.9620319418609142303466796875" lon="-2.355411015450954437255859375">
        <ele>1094.800048828125</ele>
        <time>2022-04-17T14:59:59.000Z</time>
      </trkpt>
      <trkpt lat="42.9620279185473918914794921875" lon="-2.35542953945696353912353515625">
        <ele>1094.5999755859375</ele>
        <time>2022-04-17T15:00:00.000Z</time>
      </trkpt>
      <trkpt lat="42.9620262421667575836181640625" lon="-2.355443537235260009765625">
        <ele>1094.5999755859375</ele>
        <time>2022-04-17T15:00:01.000Z</time>
      </trkpt>
      <trkpt lat="42.96202205121517181396484375" lon="-2.35545493662357330322265625">
        <ele>1094.4000244140625</ele>
        <time>2022-04-17T15:00:02.000Z</time>
      </trkpt>
      <trkpt lat="42.96202003955841064453125" lon="-2.35546239651739597320556640625">
        <ele>1094.4000244140625</ele>
        <time>2022-04-17T15:00:03.000Z</time>
      </trkpt>
      <trkpt lat="42.96202003955841064453125" lon="-2.355470359325408935546875">
        <ele>1094.4000244140625</ele>
        <time>2022-04-17T15:00:04.000Z</time>
      </trkpt>
      <trkpt lat="42.96202045865356922149658203125" lon="-2.355475723743438720703125">
        <ele>1094.4000244140625</ele>
        <time>2022-04-17T15:00:05.000Z</time>
      </trkpt>
      <trkpt lat="42.96201928518712520599365234375" lon="-2.35547530464828014373779296875">
        <ele>1094.4000244140625</ele>
        <time>2022-04-17T15:00:06.000Z</time>
      </trkpt>
      <trkpt lat="42.96201777644455432891845703125" lon="-2.35547128133475780487060546875">
        <ele>1094.4000244140625</ele>
        <time>2022-04-17T15:00:07.000Z</time>
      </trkpt>
      <trkpt lat="42.96201643534004688262939453125" lon="-2.3554732091724872589111328125">
        <ele>1094.4000244140625</ele>
        <time>2022-04-17T15:00:08.000Z</time>
      </trkpt>
      <trkpt lat="42.96201878227293491363525390625" lon="-2.355478741228580474853515625">
        <ele>1094.4000244140625</ele>
        <time>2022-04-17T15:00:09.000Z</time>
      </trkpt>
      <trkpt lat="42.9620205424726009368896484375" lon="-2.35548846423625946044921875">
        <ele>1094.4000244140625</ele>
        <time>2022-04-17T15:00:10.000Z</time>
      </trkpt>
      <trkpt lat="42.96202280558645725250244140625" lon="-2.35549743287265300750732421875">
        <ele>1094.4000244140625</ele>
        <time>2022-04-17T15:00:11.000Z</time>
      </trkpt>
      <trkpt lat="42.96202607452869415283203125" lon="-2.35550564713776111602783203125">
        <ele>1094.4000244140625</ele>
        <time>2022-04-17T15:00:12.000Z</time>
      </trkpt>
      <trkpt lat="42.96202833764255046844482421875" lon="-2.35551436431705951690673828125">
        <ele>1094.4000244140625</ele>
        <time>2022-04-17T15:00:13.000Z</time>
      </trkpt>
      <trkpt lat="42.9620289243757724761962890625" lon="-2.3555295355618000030517578125">
        <ele>1094.4000244140625</ele>
        <time>2022-04-17T15:00:14.000Z</time>
      </trkpt>
      <trkpt lat="42.96203169040381908416748046875" lon="-2.35554353334009647369384765625">
        <ele>1094.4000244140625</ele>
        <time>2022-04-17T15:00:15.000Z</time>
      </trkpt>
      <trkpt lat="42.96203319914638996124267578125" lon="-2.355556525290012359619140625">
        <ele>1094.4000244140625</ele>
        <time>2022-04-17T15:00:16.000Z</time>
      </trkpt>
      <trkpt lat="42.96203386969864368438720703125" lon="-2.355571277439594268798828125">
        <ele>1094.4000244140625</ele>
        <time>2022-04-17T15:00:17.000Z</time>
      </trkpt>
      <trkpt lat="42.96203822828829288482666015625" lon="-2.35558410175144672393798828125">
        <ele>1094.4000244140625</ele>
        <time>2022-04-17T15:00:18.000Z</time>
      </trkpt>
      <trkpt lat="42.96204376034438610076904296875" lon="-2.3555982671678066253662109375">
        <ele>1094.4000244140625</ele>
        <time>2022-04-17T15:00:19.000Z</time>
      </trkpt>
      <trkpt lat="42.9620476998388767242431640625" lon="-2.35560891218483448028564453125">
        <ele>1094.4000244140625</ele>
        <time>2022-04-17T15:00:20.000Z</time>
      </trkpt>
      <trkpt lat="42.962047196924686431884765625" lon="-2.35561796464025974273681640625">
        <ele>1094.4000244140625</ele>
        <time>2022-04-17T15:00:21.000Z</time>
      </trkpt>
      <trkpt lat="42.96205046586692333221435546875" lon="-2.3556257598102092742919921875">
        <ele>1094.4000244140625</ele>
        <time>2022-04-17T15:00:22.000Z</time>
      </trkpt>
      <trkpt lat="42.96205767430365085601806640625" lon="-2.3556271009147167205810546875">
        <ele>1094.4000244140625</ele>
        <time>2022-04-17T15:00:23.000Z</time>
      </trkpt>
      <trkpt lat="42.96206630766391754150390625" lon="-2.35562986694276332855224609375">
        <ele>1094.4000244140625</ele>
        <time>2022-04-17T15:00:24.000Z</time>
      </trkpt>
      <trkpt lat="42.96207443810999393463134765625" lon="-2.355630956590175628662109375">
        <ele>1094</ele>
        <time>2022-04-17T15:00:25.000Z</time>
      </trkpt>
      <trkpt lat="42.96208751387894153594970703125" lon="-2.35563087277114391326904296875">
        <ele>1093.5999755859375</ele>
        <time>2022-04-17T15:00:26.000Z</time>
      </trkpt>
      <trkpt lat="42.96209807507693767547607421875" lon="-2.35563254915177822113037109375">
        <ele>1093.4000244140625</ele>
        <time>2022-04-17T15:00:27.000Z</time>
      </trkpt>
      <trkpt lat="42.96210142783820629119873046875" lon="-2.3556458763778209686279296875">
        <ele>1093.199951171875</ele>
        <time>2022-04-17T15:00:28.000Z</time>
      </trkpt>
      <trkpt lat="42.96210578642785549163818359375" lon="-2.3556539230048656463623046875">
        <ele>1093.199951171875</ele>
        <time>2022-04-17T15:00:29.000Z</time>
      </trkpt>
      <trkpt lat="42.9621112346649169921875" lon="-2.35566020943224430084228515625">
        <ele>1093.199951171875</ele>
        <time>2022-04-17T15:00:30.000Z</time>
      </trkpt>
      <trkpt lat="42.96211768873035907745361328125" lon="-2.35566892661154270172119140625">
        <ele>1093.199951171875</ele>
        <time>2022-04-17T15:00:31.000Z</time>
      </trkpt>
      <trkpt lat="42.9621241427958011627197265625" lon="-2.35567948780953884124755859375">
        <ele>1093.199951171875</ele>
        <time>2022-04-17T15:00:32.000Z</time>
      </trkpt>
      <trkpt lat="42.96213093213737010955810546875" lon="-2.35568828880786895751953125">
        <ele>1093.199951171875</ele>
        <time>2022-04-17T15:00:33.000Z</time>
      </trkpt>
      <trkpt lat="42.96213738620281219482421875" lon="-2.35569843091070652008056640625">
        <ele>1093.199951171875</ele>
        <time>2022-04-17T15:00:34.000Z</time>
      </trkpt>
      <trkpt lat="42.96214099042117595672607421875" lon="-2.3557055555284023284912109375">
        <ele>1093.199951171875</ele>
        <time>2022-04-17T15:00:35.000Z</time>
      </trkpt>
      <trkpt lat="42.96214677393436431884765625" lon="-2.35570681281387805938720703125">
        <ele>1093.199951171875</ele>
        <time>2022-04-17T15:00:36.000Z</time>
      </trkpt>
      <trkpt lat="42.96215440146625041961669921875" lon="-2.35571536235511302947998046875">
        <ele>1093.199951171875</ele>
        <time>2022-04-17T15:00:37.000Z</time>
      </trkpt>
      <trkpt lat="42.9621603526175022125244140625" lon="-2.35572491772472858428955078125">
        <ele>1093.199951171875</ele>
        <time>2022-04-17T15:00:38.000Z</time>
      </trkpt>
      <trkpt lat="42.96216244809329509735107421875" lon="-2.35574319027364253997802734375">
        <ele>1093</ele>
        <time>2022-04-17T15:00:39.000Z</time>
      </trkpt>
      <trkpt lat="42.96216420829296112060546875" lon="-2.355761043727397918701171875">
        <ele>1092.800048828125</ele>
        <time>2022-04-17T15:00:40.000Z</time>
      </trkpt>
      <trkpt lat="42.96216311864554882049560546875" lon="-2.355779819190502166748046875">
        <ele>1092.800048828125</ele>
        <time>2022-04-17T15:00:41.000Z</time>
      </trkpt>
      <trkpt lat="42.96216286718845367431640625" lon="-2.35580094158649444580078125">
        <ele>1092.800048828125</ele>
        <time>2022-04-17T15:00:42.000Z</time>
      </trkpt>
      <trkpt lat="42.9621742665767669677734375" lon="-2.35580898821353912353515625">
        <ele>1092.800048828125</ele>
        <time>2022-04-17T15:00:43.000Z</time>
      </trkpt>
      <trkpt lat="42.96217854134738445281982421875" lon="-2.35582164488732814788818359375">
        <ele>1092.800048828125</ele>
        <time>2022-04-17T15:00:44.000Z</time>
      </trkpt>
      <trkpt lat="42.96218239702284336090087890625" lon="-2.35583254136145114898681640625">
        <ele>1093</ele>
        <time>2022-04-17T15:00:45.000Z</time>
      </trkpt>
      <trkpt lat="42.9621841572225093841552734375" lon="-2.3558396659791469573974609375">
        <ele>1093.199951171875</ele>
        <time>2022-04-17T15:00:46.000Z</time>
      </trkpt>
      <trkpt lat="42.962192706763744354248046875" lon="-2.35584251582622528076171875">
        <ele>1093.199951171875</ele>
        <time>2022-04-17T15:00:47.000Z</time>
      </trkpt>
      <trkpt lat="42.9621992446482181549072265625" lon="-2.3558446951210498809814453125">
        <ele>1093.199951171875</ele>
        <time>2022-04-17T15:00:48.000Z</time>
      </trkpt>
      <trkpt lat="42.96220444142818450927734375" lon="-2.355850227177143096923828125">
        <ele>1093.4000244140625</ele>
        <time>2022-04-17T15:00:49.000Z</time>
      </trkpt>
      <trkpt lat="42.962207794189453125" lon="-2.35585601069033145904541015625">
        <ele>1093.4000244140625</ele>
        <time>2022-04-17T15:00:50.000Z</time>
      </trkpt>
      <trkpt lat="42.9622126556932926177978515625" lon="-2.355863638222217559814453125">
        <ele>1093.5999755859375</ele>
        <time>2022-04-17T15:00:51.000Z</time>
      </trkpt>
      <trkpt lat="42.96221693046391010284423828125" lon="-2.355871684849262237548828125">
        <ele>1093.5999755859375</ele>
        <time>2022-04-17T15:00:52.000Z</time>
      </trkpt>
      <trkpt lat="42.96222128905355930328369140625" lon="-2.35587830655276775360107421875">
        <ele>1093.5999755859375</ele>
        <time>2022-04-17T15:00:53.000Z</time>
      </trkpt>
      <trkpt lat="42.96222950331866741180419921875" lon="-2.35588283278048038482666015625">
        <ele>1093.800048828125</ele>
        <time>2022-04-17T15:00:54.000Z</time>
      </trkpt>
      <trkpt lat="42.96223637647926807403564453125" lon="-2.35588618554174900054931640625">
        <ele>1093.800048828125</ele>
        <time>2022-04-17T15:00:55.000Z</time>
      </trkpt>
      <trkpt lat="42.96224157325923442840576171875" lon="-2.35589406453073024749755859375">
        <ele>1094</ele>
        <time>2022-04-17T15:00:56.000Z</time>
      </trkpt>
      <trkpt lat="42.96224542893469333648681640625" lon="-2.3559030331671237945556640625">
        <ele>1094</ele>
        <time>2022-04-17T15:00:57.000Z</time>
      </trkpt>
      <trkpt lat="42.96225062571465969085693359375" lon="-2.35590948723256587982177734375">
        <ele>1094</ele>
        <time>2022-04-17T15:00:58.000Z</time>
      </trkpt>
      <trkpt lat="42.96225498430430889129638671875" lon="-2.3559134267270565032958984375">
        <ele>1094</ele>
        <time>2022-04-17T15:00:59.000Z</time>
      </trkpt>
      <trkpt lat="42.962258756160736083984375" lon="-2.35592206008732318878173828125">
        <ele>1094.199951171875</ele>
        <time>2022-04-17T15:01:00.000Z</time>
      </trkpt>
      <trkpt lat="42.96226353384554386138916015625" lon="-2.35593144781887531280517578125">
        <ele>1094.4000244140625</ele>
        <time>2022-04-17T15:01:01.000Z</time>
      </trkpt>
      <trkpt lat="42.96226856298744678497314453125" lon="-2.35594234429299831390380859375">
        <ele>1094.4000244140625</ele>
        <time>2022-04-17T15:01:02.000Z</time>
      </trkpt>
      <trkpt lat="42.9622730053961277008056640625" lon="-2.35595240257680416107177734375">
        <ele>1094.4000244140625</ele>
        <time>2022-04-17T15:01:03.000Z</time>
      </trkpt>
      <trkpt lat="42.96227577142417430877685546875" lon="-2.35596028156578540802001953125">
        <ele>1094.5999755859375</ele>
        <time>2022-04-17T15:01:04.000Z</time>
      </trkpt>
      <trkpt lat="42.96228088438510894775390625" lon="-2.35596866346895694732666015625">
        <ele>1094.5999755859375</ele>
        <time>2022-04-17T15:01:05.000Z</time>
      </trkpt>
      <trkpt lat="42.962285578250885009765625" lon="-2.35597788356244564056396484375">
        <ele>1094.5999755859375</ele>
        <time>2022-04-17T15:01:06.000Z</time>
      </trkpt>
      <trkpt lat="42.96229035593569278717041015625" lon="-2.3559861816465854644775390625">
        <ele>1094.800048828125</ele>
        <time>2022-04-17T15:01:07.000Z</time>
      </trkpt>
      <trkpt lat="42.96229521743953227996826171875" lon="-2.355995066463947296142578125">
        <ele>1094.800048828125</ele>
        <time>2022-04-17T15:01:08.000Z</time>
      </trkpt>
      <trkpt lat="42.96229823492467403411865234375" lon="-2.356002442538738250732421875">
        <ele>1094.800048828125</ele>
        <time>2022-04-17T15:01:09.000Z</time>
      </trkpt>
      <trkpt lat="42.96230108477175235748291015625" lon="-2.35600990243256092071533203125">
        <ele>1094.800048828125</ele>
        <time>2022-04-17T15:01:10.000Z</time>
      </trkpt>
      <trkpt lat="42.96230561099946498870849609375" lon="-2.35601845197379589080810546875">
        <ele>1094.800048828125</ele>
        <time>2022-04-17T15:01:11.000Z</time>
      </trkpt>
      <trkpt lat="42.962310053408145904541015625" lon="-2.35602683387696743011474609375">
        <ele>1095</ele>
        <time>2022-04-17T15:01:12.000Z</time>
      </trkpt>
      <trkpt lat="42.96231516636908054351806640625" lon="-2.35603387467563152313232421875">
        <ele>1095</ele>
        <time>2022-04-17T15:01:13.000Z</time>
      </trkpt>
      <trkpt lat="42.96231977641582489013671875" lon="-2.35603789798915386199951171875">
        <ele>1095</ele>
        <time>2022-04-17T15:01:14.000Z</time>
      </trkpt>
      <trkpt lat="42.9623239673674106597900390625" lon="-2.3560428433120250701904296875">
        <ele>1095.199951171875</ele>
        <time>2022-04-17T15:01:15.000Z</time>
      </trkpt>
      <trkpt lat="42.9623276554048061370849609375" lon="-2.35604996792972087860107421875">
        <ele>1095.199951171875</ele>
        <time>2022-04-17T15:01:16.000Z</time>
      </trkpt>
      <trkpt lat="42.96233109198510646820068359375" lon="-2.3560582660138607025146484375">
        <ele>1095.4000244140625</ele>
        <time>2022-04-17T15:01:17.000Z</time>
      </trkpt>
      <trkpt lat="42.96233461238443851470947265625" lon="-2.35606555826961994171142578125">
        <ele>1095.4000244140625</ele>
        <time>2022-04-17T15:01:18.000Z</time>
      </trkpt>
      <trkpt lat="42.9623393900692462921142578125" lon="-2.35607243143022060394287109375">
        <ele>1095.4000244140625</ele>
        <time>2022-04-17T15:01:19.000Z</time>
      </trkpt>
      <trkpt lat="42.96234383247792720794677734375" lon="-2.35608131624758243560791015625">
        <ele>1095.5999755859375</ele>
        <time>2022-04-17T15:01:20.000Z</time>
      </trkpt>
      <trkpt lat="42.9623501189053058624267578125" lon="-2.3560859262943267822265625">
        <ele>1095.5999755859375</ele>
        <time>2022-04-17T15:01:21.000Z</time>
      </trkpt>
      <trkpt lat="42.96235330402851104736328125" lon="-2.3560897819697856903076171875">
        <ele>1095.5999755859375</ele>
        <time>2022-04-17T15:01:22.000Z</time>
      </trkpt>
      <trkpt lat="42.96235573478043079376220703125" lon="-2.356091625988483428955078125">
        <ele>1095.800048828125</ele>
        <time>2022-04-17T15:01:23.000Z</time>
      </trkpt>
      <trkpt lat="42.9623581655323505401611328125" lon="-2.356091625988483428955078125">
        <ele>1095.800048828125</ele>
        <time>2022-04-17T15:01:24.000Z</time>
      </trkpt>
      <trkpt lat="42.96236227266490459442138671875" lon="-2.3560958169400691986083984375">
        <ele>1096</ele>
        <time>2022-04-17T15:01:25.000Z</time>
      </trkpt>
      <trkpt lat="42.96236378140747547149658203125" lon="-2.35610277391970157623291015625">
        <ele>1096.199951171875</ele>
        <time>2022-04-17T15:01:26.000Z</time>
      </trkpt>
      <trkpt lat="42.96236713416874408721923828125" lon="-2.3561100661754608154296875">
        <ele>1096.4000244140625</ele>
        <time>2022-04-17T15:01:27.000Z</time>
      </trkpt>
      <trkpt lat="42.96236981637775897979736328125" lon="-2.35611853189766407012939453125">
        <ele>1096.5999755859375</ele>
        <time>2022-04-17T15:01:28.000Z</time>
      </trkpt>
      <trkpt lat="42.96237518079578876495361328125" lon="-2.3561261594295501708984375">
        <ele>1096.5999755859375</ele>
        <time>2022-04-17T15:01:29.000Z</time>
      </trkpt>
      <trkpt lat="42.96238188631832599639892578125" lon="-2.35613479278981685638427734375">
        <ele>1096.800048828125</ele>
        <time>2022-04-17T15:01:30.000Z</time>
      </trkpt>
      <trkpt lat="42.9623859934508800506591796875" lon="-2.3561447672545909881591796875">
        <ele>1096.800048828125</ele>
        <time>2022-04-17T15:01:31.000Z</time>
      </trkpt>
      <trkpt lat="42.9623903520405292510986328125" lon="-2.35615390352904796600341796875">
        <ele>1096.800048828125</ele>
        <time>2022-04-17T15:01:32.000Z</time>
      </trkpt>
      <trkpt lat="42.962397225201129913330078125" lon="-2.3561618663370609283447265625">
        <ele>1096.800048828125</ele>
        <time>2022-04-17T15:01:33.000Z</time>
      </trkpt>
      <trkpt lat="42.962403595447540283203125" lon="-2.35617267899215221405029296875">
        <ele>1096.800048828125</ele>
        <time>2022-04-17T15:01:34.000Z</time>
      </trkpt>
      <trkpt lat="42.96240803785622119903564453125" lon="-2.3561850003898143768310546875">
        <ele>1097</ele>
        <time>2022-04-17T15:01:35.000Z</time>
      </trkpt>
      <trkpt lat="42.9624151624739170074462890625" lon="-2.35619329847395420074462890625">
        <ele>1097</ele>
        <time>2022-04-17T15:01:36.000Z</time>
      </trkpt>
      <trkpt lat="42.96242077834904193878173828125" lon="-2.35620335675776004791259765625">
        <ele>1097</ele>
        <time>2022-04-17T15:01:37.000Z</time>
      </trkpt>
      <trkpt lat="42.96242714859545230865478515625" lon="-2.35621131956577301025390625">
        <ele>1097</ele>
        <time>2022-04-17T15:01:38.000Z</time>
      </trkpt>
      <trkpt lat="42.96243201009929180145263671875" lon="-2.3562200367450714111328125">
        <ele>1097</ele>
        <time>2022-04-17T15:01:39.000Z</time>
      </trkpt>
      <trkpt lat="42.96243703924119472503662109375" lon="-2.356231100857257843017578125">
        <ele>1096.800048828125</ele>
        <time>2022-04-17T15:01:40.000Z</time>
      </trkpt>
      <trkpt lat="42.9624419845640659332275390625" lon="-2.3562388122081756591796875">
        <ele>1096.800048828125</ele>
        <time>2022-04-17T15:01:41.000Z</time>
      </trkpt>
      <trkpt lat="42.96244776807725429534912109375" lon="-2.35624752938747406005859375">
        <ele>1096.800048828125</ele>
        <time>2022-04-17T15:01:42.000Z</time>
      </trkpt>
      <trkpt lat="42.9624543897807598114013671875" lon="-2.3562574200332164764404296875">
        <ele>1096.800048828125</ele>
        <time>2022-04-17T15:01:43.000Z</time>
      </trkpt>
      <trkpt lat="42.96245967037975788116455078125" lon="-2.35626487992703914642333984375">
        <ele>1096.800048828125</ele>
        <time>2022-04-17T15:01:44.000Z</time>
      </trkpt>
      <trkpt lat="42.96246503479778766632080078125" lon="-2.3562725074589252471923828125">
        <ele>1096.800048828125</ele>
        <time>2022-04-17T15:01:45.000Z</time>
      </trkpt>
      <trkpt lat="42.962471656501293182373046875" lon="-2.35628114081919193267822265625">
        <ele>1096.800048828125</ele>
        <time>2022-04-17T15:01:46.000Z</time>
      </trkpt>
      <trkpt lat="42.96247928403317928314208984375" lon="-2.3562896065413951873779296875">
        <ele>1096.800048828125</ele>
        <time>2022-04-17T15:01:47.000Z</time>
      </trkpt>
      <trkpt lat="42.96248766593635082244873046875" lon="-2.35629580914974212646484375">
        <ele>1096.800048828125</ele>
        <time>2022-04-17T15:01:48.000Z</time>
      </trkpt>
      <trkpt lat="42.962495796382427215576171875" lon="-2.35629907809197902679443359375">
        <ele>1096.5999755859375</ele>
        <time>2022-04-17T15:01:49.000Z</time>
      </trkpt>
      <trkpt lat="42.9625040106475353240966796875" lon="-2.3563067056238651275634765625">
        <ele>1096.5999755859375</ele>
        <time>2022-04-17T15:01:50.000Z</time>
      </trkpt>
      <trkpt lat="42.96251163817942142486572265625" lon="-2.3563140816986560821533203125">
        <ele>1096.4000244140625</ele>
        <time>2022-04-17T15:01:51.000Z</time>
      </trkpt>
      <trkpt lat="42.9625204391777515411376953125" lon="-2.35632154159247875213623046875">
        <ele>1096.4000244140625</ele>
        <time>2022-04-17T15:01:52.000Z</time>
      </trkpt>
      <trkpt lat="42.9625274799764156341552734375" lon="-2.3563305102288722991943359375">
        <ele>1096.4000244140625</ele>
        <time>2022-04-17T15:01:53.000Z</time>
      </trkpt>
      <trkpt lat="42.96253426931798458099365234375" lon="-2.35633947886526584625244140625">
        <ele>1096.4000244140625</ele>
        <time>2022-04-17T15:01:54.000Z</time>
      </trkpt>
      <trkpt lat="42.96254265122115612030029296875" lon="-2.35634543001651763916015625">
        <ele>1096.4000244140625</ele>
        <time>2022-04-17T15:01:55.000Z</time>
      </trkpt>
      <trkpt lat="42.96254910528659820556640625" lon="-2.35635154880583286285400390625">
        <ele>1096.4000244140625</ele>
        <time>2022-04-17T15:01:56.000Z</time>
      </trkpt>
      <trkpt lat="42.9625551402568817138671875" lon="-2.3563606850802898406982421875">
        <ele>1096.4000244140625</ele>
        <time>2022-04-17T15:01:57.000Z</time>
      </trkpt>
      <trkpt lat="42.9625626839697360992431640625" lon="-2.3563734255731105804443359375">
        <ele>1096.4000244140625</ele>
        <time>2022-04-17T15:01:58.000Z</time>
      </trkpt>
      <trkpt lat="42.962572239339351654052734375" lon="-2.35638407059013843536376953125">
        <ele>1096.4000244140625</ele>
        <time>2022-04-17T15:01:59.000Z</time>
      </trkpt>
      <trkpt lat="42.9625807888805866241455078125" lon="-2.35639161430299282073974609375">
        <ele>1096.199951171875</ele>
        <time>2022-04-17T15:02:00.000Z</time>
      </trkpt>
      <trkpt lat="42.96258724294602870941162109375" lon="-2.3563997447490692138671875">
        <ele>1096.199951171875</ele>
        <time>2022-04-17T15:02:01.000Z</time>
      </trkpt>
      <trkpt lat="42.9625921882688999176025390625" lon="-2.3564103059470653533935546875">
        <ele>1096.199951171875</ele>
        <time>2022-04-17T15:02:02.000Z</time>
      </trkpt>
      <trkpt lat="42.96259596012532711029052734375" lon="-2.356419861316680908203125">
        <ele>1096.199951171875</ele>
        <time>2022-04-17T15:02:03.000Z</time>
      </trkpt>
      <trkpt lat="42.9626012407243251800537109375" lon="-2.3564314283430576324462890625">
        <ele>1096.199951171875</ele>
        <time>2022-04-17T15:02:04.000Z</time>
      </trkpt>
      <trkpt lat="42.9626072756946086883544921875" lon="-2.35643855296075344085693359375">
        <ele>1096.199951171875</ele>
        <time>2022-04-17T15:02:05.000Z</time>
      </trkpt>
      <trkpt lat="42.96261389739811420440673828125" lon="-2.3564471863210201263427734375">
        <ele>1096.199951171875</ele>
        <time>2022-04-17T15:02:06.000Z</time>
      </trkpt>
      <trkpt lat="42.962619848549365997314453125" lon="-2.35645749606192111968994140625">
        <ele>1096.199951171875</ele>
        <time>2022-04-17T15:02:07.000Z</time>
      </trkpt>
      <trkpt lat="42.9626280628144741058349609375" lon="-2.35646587796509265899658203125">
        <ele>1096.199951171875</ele>
        <time>2022-04-17T15:02:08.000Z</time>
      </trkpt>
      <trkpt lat="42.962631918489933013916015625" lon="-2.3564753495156764984130859375">
        <ele>1096.4000244140625</ele>
        <time>2022-04-17T15:02:09.000Z</time>
      </trkpt>
      <trkpt lat="42.96263384632766246795654296875" lon="-2.35648750327527523040771484375">
        <ele>1096.4000244140625</ele>
        <time>2022-04-17T15:02:10.000Z</time>
      </trkpt>
      <trkpt lat="42.9626354388892650604248046875" lon="-2.3564927838742733001708984375">
        <ele>1096.4000244140625</ele>
        <time>2022-04-17T15:02:11.000Z</time>
      </trkpt>
      <trkpt lat="42.96263786964118480682373046875" lon="-2.3564927838742733001708984375">
        <ele>1096.4000244140625</ele>
        <time>2022-04-17T15:02:12.000Z</time>
      </trkpt>
      <trkpt lat="42.962639965116977691650390625" lon="-2.3564921133220195770263671875">
        <ele>1096.4000244140625</ele>
        <time>2022-04-17T15:02:13.000Z</time>
      </trkpt>
      <trkpt lat="42.96264172531664371490478515625" lon="-2.35649420879781246185302734375">
        <ele>1096.4000244140625</ele>
        <time>2022-04-17T15:02:14.000Z</time>
      </trkpt>
      <trkpt lat="42.96264088712632656097412109375" lon="-2.3564964719116687774658203125">
        <ele>1096.4000244140625</ele>
        <time>2022-04-17T15:02:15.000Z</time>
      </trkpt>
      <trkpt lat="42.96263627707958221435546875" lon="-2.3564988188445568084716796875">
        <ele>1096.4000244140625</ele>
        <time>2022-04-17T15:02:16.000Z</time>
      </trkpt>
      <trkpt lat="42.9626320861279964447021484375" lon="-2.356503345072269439697265625">
        <ele>1096.4000244140625</ele>
        <time>2022-04-17T15:02:17.000Z</time>
      </trkpt>
      <trkpt lat="42.96263032592833042144775390625" lon="-2.35650862567126750946044921875">
        <ele>1096.4000244140625</ele>
        <time>2022-04-17T15:02:18.000Z</time>
      </trkpt>
      <trkpt lat="42.96263183467090129852294921875" lon="-2.35651097260415554046630859375">
        <ele>1096.4000244140625</ele>
        <time>2022-04-17T15:02:19.000Z</time>
      </trkpt>
      <trkpt lat="42.962634600698947906494140625" lon="-2.356510721147060394287109375">
        <ele>1096.4000244140625</ele>
        <time>2022-04-17T15:02:20.000Z</time>
      </trkpt>
      <trkpt lat="42.9626371152698993682861328125" lon="-2.35651365481317043304443359375">
        <ele>1096.4000244140625</ele>
        <time>2022-04-17T15:02:21.000Z</time>
      </trkpt>
      <trkpt lat="42.9626382887363433837890625" lon="-2.35651709139347076416015625">
        <ele>1096.4000244140625</ele>
        <time>2022-04-17T15:02:22.000Z</time>
      </trkpt>
      <trkpt lat="42.9626374505460262298583984375" lon="-2.35652019269764423370361328125">
        <ele>1096.4000244140625</ele>
        <time>2022-04-17T15:02:23.000Z</time>
      </trkpt>
      <trkpt lat="42.96263284049928188323974609375" lon="-2.3565219528973102569580078125">
        <ele>1096.4000244140625</ele>
        <time>2022-04-17T15:02:24.000Z</time>
      </trkpt>
      <trkpt lat="42.9626337625086307525634765625" lon="-2.35652337782084941864013671875">
        <ele>1096.4000244140625</ele>
        <time>2022-04-17T15:02:25.000Z</time>
      </trkpt>
      <trkpt lat="42.96263501979410648345947265625" lon="-2.35653108917176723480224609375">
        <ele>1096.199951171875</ele>
        <time>2022-04-17T15:02:26.000Z</time>
      </trkpt>
      <trkpt lat="42.96264139004051685333251953125" lon="-2.3565365374088287353515625">
        <ele>1096.4000244140625</ele>
        <time>2022-04-17T15:02:27.000Z</time>
      </trkpt>
      <trkpt lat="42.9626490175724029541015625" lon="-2.35654517076909542083740234375">
        <ele>1096.4000244140625</ele>
        <time>2022-04-17T15:02:28.000Z</time>
      </trkpt>
      <trkpt lat="42.9626565612852573394775390625" lon="-2.35656176693737506866455078125">
        <ele>1096.4000244140625</ele>
        <time>2022-04-17T15:02:29.000Z</time>
      </trkpt>
      <trkpt lat="42.9626622609794139862060546875" lon="-2.356573082506656646728515625">
        <ele>1096.4000244140625</ele>
        <time>2022-04-17T15:02:30.000Z</time>
      </trkpt>
      <trkpt lat="42.96267449855804443359375" lon="-2.3565843142569065093994140625">
        <ele>1096.4000244140625</ele>
        <time>2022-04-17T15:02:31.000Z</time>
      </trkpt>
      <trkpt lat="42.96267877332866191864013671875" lon="-2.356591857969760894775390625">
        <ele>1096.4000244140625</ele>
        <time>2022-04-17T15:02:32.000Z</time>
      </trkpt>
      <trkpt lat="42.962682880461215972900390625" lon="-2.356605269014835357666015625">
        <ele>1096.5999755859375</ele>
        <time>2022-04-17T15:02:33.000Z</time>
      </trkpt>
      <trkpt lat="42.9626857303082942962646484375" lon="-2.3566124774515628814697265625">
        <ele>1096.5999755859375</ele>
        <time>2022-04-17T15:02:34.000Z</time>
      </trkpt>
      <trkpt lat="42.9626884125173091888427734375" lon="-2.35661909915506839752197265625">
        <ele>1096.5999755859375</ele>
        <time>2022-04-17T15:02:35.000Z</time>
      </trkpt>
      <trkpt lat="42.96269050799310207366943359375" lon="-2.35662974417209625244140625">
        <ele>1096.5999755859375</ele>
        <time>2022-04-17T15:02:36.000Z</time>
      </trkpt>
      <trkpt lat="42.96269335784018039703369140625" lon="-2.35664189793169498443603515625">
        <ele>1096.5999755859375</ele>
        <time>2022-04-17T15:02:37.000Z</time>
      </trkpt>
      <trkpt lat="42.962701320648193359375" lon="-2.356654889881610870361328125">
        <ele>1096.800048828125</ele>
        <time>2022-04-17T15:02:38.000Z</time>
      </trkpt>
      <trkpt lat="42.96270911581814289093017578125" lon="-2.35666452907025814056396484375">
        <ele>1097</ele>
        <time>2022-04-17T15:02:39.000Z</time>
      </trkpt>
      <trkpt lat="42.96271531842648983001708984375" lon="-2.3566708154976367950439453125">
        <ele>1097.199951171875</ele>
        <time>2022-04-17T15:02:40.000Z</time>
      </trkpt>
      <trkpt lat="42.96272085048258304595947265625" lon="-2.35667659901082515716552734375">
        <ele>1097.199951171875</ele>
        <time>2022-04-17T15:02:41.000Z</time>
      </trkpt>
      <trkpt lat="42.96272688545286655426025390625" lon="-2.3566832207143306732177734375">
        <ele>1097.199951171875</ele>
        <time>2022-04-17T15:02:42.000Z</time>
      </trkpt>
      <trkpt lat="42.96273283660411834716796875" lon="-2.356688082218170166015625">
        <ele>1097.199951171875</ele>
        <time>2022-04-17T15:02:43.000Z</time>
      </trkpt>
      <trkpt lat="42.96273593790829181671142578125" lon="-2.35668967477977275848388671875">
        <ele>1097.199951171875</ele>
        <time>2022-04-17T15:02:44.000Z</time>
      </trkpt>
      <trkpt lat="42.9627397097647190093994140625" lon="-2.356689758598804473876953125">
        <ele>1097.199951171875</ele>
        <time>2022-04-17T15:02:45.000Z</time>
      </trkpt>
      <trkpt lat="42.96274197287857532501220703125" lon="-2.356694452464580535888671875">
        <ele>1097</ele>
        <time>2022-04-17T15:02:46.000Z</time>
      </trkpt>
      <trkpt lat="42.96274348162114620208740234375" lon="-2.35670207999646663665771484375">
        <ele>1097</ele>
        <time>2022-04-17T15:02:47.000Z</time>
      </trkpt>
      <trkpt lat="42.9627455770969390869140625" lon="-2.35671046189963817596435546875">
        <ele>1097</ele>
        <time>2022-04-17T15:02:48.000Z</time>
      </trkpt>
      <trkpt lat="42.96274951659142971038818359375" lon="-2.35671800561249256134033203125">
        <ele>1097</ele>
        <time>2022-04-17T15:02:49.000Z</time>
      </trkpt>
      <trkpt lat="42.96275337226688861846923828125" lon="-2.3567242920398712158203125">
        <ele>1097</ele>
        <time>2022-04-17T15:02:50.000Z</time>
      </trkpt>
      <trkpt lat="42.96275622211396694183349609375" lon="-2.3567325063049793243408203125">
        <ele>1097.199951171875</ele>
        <time>2022-04-17T15:02:51.000Z</time>
      </trkpt>
      <trkpt lat="42.96275689266622066497802734375" lon="-2.35674214549362659454345703125">
        <ele>1097.199951171875</ele>
        <time>2022-04-17T15:02:52.000Z</time>
      </trkpt>
      <trkpt lat="42.962760664522647857666015625" lon="-2.35675203613936901092529296875">
        <ele>1097.199951171875</ele>
        <time>2022-04-17T15:02:53.000Z</time>
      </trkpt>
      <trkpt lat="42.96276510693132877349853515625" lon="-2.35676092095673084259033203125">
        <ele>1097.199951171875</ele>
        <time>2022-04-17T15:02:54.000Z</time>
      </trkpt>
      <trkpt lat="42.9627692140638828277587890625" lon="-2.356771565973758697509765625">
        <ele>1097.5999755859375</ele>
        <time>2022-04-17T15:02:55.000Z</time>
      </trkpt>
      <trkpt lat="42.96277298592031002044677734375" lon="-2.3567797802388668060302734375">
        <ele>1097.800048828125</ele>
        <time>2022-04-17T15:02:56.000Z</time>
      </trkpt>
      <trkpt lat="42.96277617104351520538330078125" lon="-2.35678665339946746826171875">
        <ele>1097.800048828125</ele>
        <time>2022-04-17T15:02:57.000Z</time>
      </trkpt>
      <trkpt lat="42.96278421767055988311767578125" lon="-2.3567925207316875457763671875">
        <ele>1097.800048828125</ele>
        <time>2022-04-17T15:02:58.000Z</time>
      </trkpt>
      <trkpt lat="42.96278891153633594512939453125" lon="-2.35680551268160343170166015625">
        <ele>1097.800048828125</ele>
        <time>2022-04-17T15:02:59.000Z</time>
      </trkpt>
      <trkpt lat="42.96279695816338062286376953125" lon="-2.35681724734604358673095703125">
        <ele>1097.800048828125</ele>
        <time>2022-04-17T15:03:00.000Z</time>
      </trkpt>
      <trkpt lat="42.9628030769526958465576171875" lon="-2.35682596452534198760986328125">
        <ele>1097.800048828125</ele>
        <time>2022-04-17T15:03:01.000Z</time>
      </trkpt>
      <trkpt lat="42.96281087212264537811279296875" lon="-2.35683535225689411163330078125">
        <ele>1097.800048828125</ele>
        <time>2022-04-17T15:03:02.000Z</time>
      </trkpt>
      <trkpt lat="42.96281573362648487091064453125" lon="-2.3568396270275115966796875">
        <ele>1097.800048828125</ele>
        <time>2022-04-17T15:03:03.000Z</time>
      </trkpt>
      <trkpt lat="42.962819002568721771240234375" lon="-2.3568449914455413818359375">
        <ele>1097.800048828125</ele>
        <time>2022-04-17T15:03:04.000Z</time>
      </trkpt>
      <trkpt lat="42.962822355329990386962890625" lon="-2.3568548820912837982177734375">
        <ele>1097.800048828125</ele>
        <time>2022-04-17T15:03:05.000Z</time>
      </trkpt>
      <trkpt lat="42.9628265462815761566162109375" lon="-2.3568669520318508148193359375">
        <ele>1098</ele>
        <time>2022-04-17T15:03:06.000Z</time>
      </trkpt>
      <trkpt lat="42.962830066680908203125" lon="-2.3568790219724178314208984375">
        <ele>1098.199951171875</ele>
        <time>2022-04-17T15:03:07.000Z</time>
      </trkpt>
      <trkpt lat="42.96283568255603313446044921875" lon="-2.356889583170413970947265625">
        <ele>1098.199951171875</ele>
        <time>2022-04-17T15:03:08.000Z</time>
      </trkpt>
      <trkpt lat="42.96284087933599948883056640625" lon="-2.356899641454219818115234375">
        <ele>1098.199951171875</ele>
        <time>2022-04-17T15:03:09.000Z</time>
      </trkpt>
      <trkpt lat="42.96284280717372894287109375" lon="-2.35690659843385219573974609375">
        <ele>1098.4000244140625</ele>
        <time>2022-04-17T15:03:10.000Z</time>
      </trkpt>
      <trkpt lat="42.96284825541079044342041015625" lon="-2.35690944828093051910400390625">
        <ele>1098.4000244140625</ele>
        <time>2022-04-17T15:03:11.000Z</time>
      </trkpt>
      <trkpt lat="42.962854206562042236328125" lon="-2.356910370290279388427734375">
        <ele>1098.4000244140625</ele>
        <time>2022-04-17T15:03:12.000Z</time>
      </trkpt>
      <trkpt lat="42.96285982243716716766357421875" lon="-2.3569159023463726043701171875">
        <ele>1098.5999755859375</ele>
        <time>2022-04-17T15:03:13.000Z</time>
      </trkpt>
      <trkpt lat="42.96286082826554775238037109375" lon="-2.3569229431450366973876953125">
        <ele>1098.5999755859375</ele>
        <time>2022-04-17T15:03:14.000Z</time>
      </trkpt>
      <trkpt lat="42.962860576808452606201171875" lon="-2.35693107359111309051513671875">
        <ele>1098.800048828125</ele>
        <time>2022-04-17T15:03:15.000Z</time>
      </trkpt>
      <trkpt lat="42.9628614149987697601318359375" lon="-2.3569420538842678070068359375">
        <ele>1098.800048828125</ele>
        <time>2022-04-17T15:03:16.000Z</time>
      </trkpt>
      <trkpt lat="42.9628647677600383758544921875" lon="-2.356949262320995330810546875">
        <ele>1099</ele>
        <time>2022-04-17T15:03:17.000Z</time>
      </trkpt>
      <trkpt lat="42.9628708027303218841552734375" lon="-2.35695353709161281585693359375">
        <ele>1099</ele>
        <time>2022-04-17T15:03:18.000Z</time>
      </trkpt>
      <trkpt lat="42.96287558041512966156005859375" lon="-2.3569568060338497161865234375">
        <ele>1099.199951171875</ele>
        <time>2022-04-17T15:03:19.000Z</time>
      </trkpt>
      <trkpt lat="42.962882034480571746826171875" lon="-2.35696275718510150909423828125">
        <ele>1099.199951171875</ele>
        <time>2022-04-17T15:03:20.000Z</time>
      </trkpt>
      <trkpt lat="42.96288781799376010894775390625" lon="-2.3569702170789241790771484375">
        <ele>1099.199951171875</ele>
        <time>2022-04-17T15:03:21.000Z</time>
      </trkpt>
      <trkpt lat="42.96289351768791675567626953125" lon="-2.35697918571531772613525390625">
        <ele>1099.4000244140625</ele>
        <time>2022-04-17T15:03:22.000Z</time>
      </trkpt>
      <trkpt lat="42.96289754100143909454345703125" lon="-2.3569893278181552886962890625">
        <ele>1099.4000244140625</ele>
        <time>2022-04-17T15:03:23.000Z</time>
      </trkpt>
      <trkpt lat="42.96289837919175624847412109375" lon="-2.35699058510363101959228515625">
        <ele>1099.4000244140625</ele>
        <time>2022-04-17T15:03:24.000Z</time>
      </trkpt>
      <trkpt lat="42.96289519406855106353759765625" lon="-2.35699184238910675048828125">
        <ele>1099.5999755859375</ele>
        <time>2022-04-17T15:03:25.000Z</time>
      </trkpt>
      <trkpt lat="42.96289284713566303253173828125" lon="-2.35698790289461612701416015625">
        <ele>1099.5999755859375</ele>
        <time>2022-04-17T15:03:26.000Z</time>
      </trkpt>
      <trkpt lat="42.96288899146020412445068359375" lon="-2.3569866456091403961181640625">
        <ele>1099.5999755859375</ele>
        <time>2022-04-17T15:03:27.000Z</time>
      </trkpt>
      <trkpt lat="42.962886728346347808837890625" lon="-2.35698739998042583465576171875">
        <ele>1099.5999755859375</ele>
        <time>2022-04-17T15:03:28.000Z</time>
      </trkpt>
      <trkpt lat="42.9628868959844112396240234375" lon="-2.356990166008472442626953125">
        <ele>1099.5999755859375</ele>
        <time>2022-04-17T15:03:29.000Z</time>
      </trkpt>
      <trkpt lat="42.96288647688925266265869140625" lon="-2.3570064269006252288818359375">
        <ele>1099.5999755859375</ele>
        <time>2022-04-17T15:03:30.000Z</time>
      </trkpt>
      <trkpt lat="42.96289167366921901702880859375" lon="-2.35702578909695148468017578125">
        <ele>1099.5999755859375</ele>
        <time>2022-04-17T15:03:31.000Z</time>
      </trkpt>
      <trkpt lat="42.9629026539623737335205078125" lon="-2.3570407927036285400390625">
        <ele>1099.5999755859375</ele>
        <time>2022-04-17T15:03:32.000Z</time>
      </trkpt>
      <trkpt lat="42.96291044913232326507568359375" lon="-2.3570553772151470184326171875">
        <ele>1099.5999755859375</ele>
        <time>2022-04-17T15:03:33.000Z</time>
      </trkpt>
      <trkpt lat="42.962916903197765350341796875" lon="-2.3570671118795871734619140625">
        <ele>1099.5999755859375</ele>
        <time>2022-04-17T15:03:34.000Z</time>
      </trkpt>
      <trkpt lat="42.9629197530448436737060546875" lon="-2.35707473941147327423095703125">
        <ele>1099.800048828125</ele>
        <time>2022-04-17T15:03:35.000Z</time>
      </trkpt>
      <trkpt lat="42.96292235143482685089111328125" lon="-2.35708060674369335174560546875">
        <ele>1099.800048828125</ele>
        <time>2022-04-17T15:03:36.000Z</time>
      </trkpt>
      <trkpt lat="42.9629306495189666748046875" lon="-2.357086725533008575439453125">
        <ele>1099.800048828125</ele>
        <time>2022-04-17T15:03:37.000Z</time>
      </trkpt>
      <trkpt lat="42.96293802559375762939453125" lon="-2.35708974301815032958984375">
        <ele>1099.800048828125</ele>
        <time>2022-04-17T15:03:38.000Z</time>
      </trkpt>
      <trkpt lat="42.96294230036437511444091796875" lon="-2.35708982683718204498291015625">
        <ele>1100</ele>
        <time>2022-04-17T15:03:39.000Z</time>
      </trkpt>
      <trkpt lat="42.96294473111629486083984375" lon="-2.35709519125521183013916015625">
        <ele>1100.199951171875</ele>
        <time>2022-04-17T15:03:40.000Z</time>
      </trkpt>
      <trkpt lat="42.962949089705944061279296875" lon="-2.35710390843451023101806640625">
        <ele>1100.4000244140625</ele>
        <time>2022-04-17T15:03:41.000Z</time>
      </trkpt>
      <trkpt lat="42.9629549570381641387939453125" lon="-2.35710977576673030853271484375">
        <ele>1100.4000244140625</ele>
        <time>2022-04-17T15:03:42.000Z</time>
      </trkpt>
      <trkpt lat="42.96296074055135250091552734375" lon="-2.35711614601314067840576171875">
        <ele>1100.5999755859375</ele>
        <time>2022-04-17T15:03:43.000Z</time>
      </trkpt>
      <trkpt lat="42.96296660788357257843017578125" lon="-2.35712586902081966400146484375">
        <ele>1100.800048828125</ele>
        <time>2022-04-17T15:03:44.000Z</time>
      </trkpt>
      <trkpt lat="42.96297264285385608673095703125" lon="-2.35713391564786434173583984375">
        <ele>1101</ele>
        <time>2022-04-17T15:03:45.000Z</time>
      </trkpt>
      <trkpt lat="42.96297825872898101806640625" lon="-2.35714129172265529632568359375">
        <ele>1101.199951171875</ele>
        <time>2022-04-17T15:03:46.000Z</time>
      </trkpt>
      <trkpt lat="42.962983958423137664794921875" lon="-2.35715252347290515899658203125">
        <ele>1101.4000244140625</ele>
        <time>2022-04-17T15:03:47.000Z</time>
      </trkpt>
      <trkpt lat="42.962989322841167449951171875" lon="-2.357170544564723968505859375">
        <ele>1101.4000244140625</ele>
        <time>2022-04-17T15:03:48.000Z</time>
      </trkpt>
      <trkpt lat="42.96299225650727748870849609375" lon="-2.3571831174194812774658203125">
        <ele>1101.5999755859375</ele>
        <time>2022-04-17T15:03:49.000Z</time>
      </trkpt>
      <trkpt lat="42.96299703419208526611328125" lon="-2.35719208605587482452392578125">
        <ele>1101.800048828125</ele>
        <time>2022-04-17T15:03:50.000Z</time>
      </trkpt>
      <trkpt lat="42.9630015604197978973388671875" lon="-2.35718973912298679351806640625">
        <ele>1102</ele>
        <time>2022-04-17T15:03:51.000Z</time>
      </trkpt>
      <trkpt lat="42.96300684101879596710205078125" lon="-2.357197366654872894287109375">
        <ele>1102</ele>
        <time>2022-04-17T15:03:52.000Z</time>
      </trkpt>
      <trkpt lat="42.9630112834274768829345703125" lon="-2.357200719416141510009765625">
        <ele>1102.199951171875</ele>
        <time>2022-04-17T15:03:53.000Z</time>
      </trkpt>
      <trkpt lat="42.96301488764584064483642578125" lon="-2.35720600001513957977294921875">
        <ele>1102.4000244140625</ele>
        <time>2022-04-17T15:03:54.000Z</time>
      </trkpt>
      <trkpt lat="42.9630173183977603912353515625" lon="-2.35721203498542308807373046875">
        <ele>1102.4000244140625</ele>
        <time>2022-04-17T15:03:55.000Z</time>
      </trkpt>
      <trkpt lat="42.96302125789225101470947265625" lon="-2.35721639357507228851318359375">
        <ele>1102.5999755859375</ele>
        <time>2022-04-17T15:03:56.000Z</time>
      </trkpt>
      <trkpt lat="42.96302628703415393829345703125" lon="-2.35722159035503864288330078125">
        <ele>1102.5999755859375</ele>
        <time>2022-04-17T15:03:57.000Z</time>
      </trkpt>
      <trkpt lat="42.963031232357025146484375" lon="-2.357223518192768096923828125">
        <ele>1102.5999755859375</ele>
        <time>2022-04-17T15:03:58.000Z</time>
      </trkpt>
      <trkpt lat="42.96303533948957920074462890625" lon="-2.35722653567790985107421875">
        <ele>1102.800048828125</ele>
        <time>2022-04-17T15:03:59.000Z</time>
      </trkpt>
      <trkpt lat="42.963041961193084716796875" lon="-2.35723064281046390533447265625">
        <ele>1102.800048828125</ele>
        <time>2022-04-17T15:04:00.000Z</time>
      </trkpt>
      <trkpt lat="42.963045649230480194091796875" lon="-2.3572364263236522674560546875">
        <ele>1102.800048828125</ele>
        <time>2022-04-17T15:04:01.000Z</time>
      </trkpt>
      <trkpt lat="42.9630501754581928253173828125" lon="-2.35723734833300113677978515625">
        <ele>1102.800048828125</ele>
        <time>2022-04-17T15:04:02.000Z</time>
      </trkpt>
      <trkpt lat="42.9630538634955883026123046875" lon="-2.35724103637039661407470703125">
        <ele>1103</ele>
        <time>2022-04-17T15:04:03.000Z</time>
      </trkpt>
      <trkpt lat="42.96305897645652294158935546875" lon="-2.357246316969394683837890625">
        <ele>1103.199951171875</ele>
        <time>2022-04-17T15:04:04.000Z</time>
      </trkpt>
      <trkpt lat="42.963062413036823272705078125" lon="-2.3572484962642192840576171875">
        <ele>1103.4000244140625</ele>
        <time>2022-04-17T15:04:05.000Z</time>
      </trkpt>
      <trkpt lat="42.96306677162647247314453125" lon="-2.35725176520645618438720703125">
        <ele>1103.5999755859375</ele>
        <time>2022-04-17T15:04:06.000Z</time>
      </trkpt>
      <trkpt lat="42.96307347714900970458984375" lon="-2.35725545324385166168212890625">
        <ele>1103.800048828125</ele>
        <time>2022-04-17T15:04:07.000Z</time>
      </trkpt>
      <trkpt lat="42.96307641081511974334716796875" lon="-2.35725863836705684661865234375">
        <ele>1103.800048828125</ele>
        <time>2022-04-17T15:04:08.000Z</time>
      </trkpt>
      <trkpt lat="42.963079847395420074462890625" lon="-2.35725997947156429290771484375">
        <ele>1104</ele>
        <time>2022-04-17T15:04:09.000Z</time>
      </trkpt>
      <trkpt lat="42.9630835354328155517578125" lon="-2.35726433806121349334716796875">
        <ele>1104</ele>
        <time>2022-04-17T15:04:10.000Z</time>
      </trkpt>
      <trkpt lat="42.963086552917957305908203125" lon="-2.357271127402782440185546875">
        <ele>1104.199951171875</ele>
        <time>2022-04-17T15:04:11.000Z</time>
      </trkpt>
      <trkpt lat="42.96309091150760650634765625" lon="-2.35727590508759021759033203125">
        <ele>1104.5999755859375</ele>
        <time>2022-04-17T15:04:12.000Z</time>
      </trkpt>
      <trkpt lat="42.9630937613546848297119140625" lon="-2.35727925784885883331298828125">
        <ele>1104.800048828125</ele>
        <time>2022-04-17T15:04:13.000Z</time>
      </trkpt>
      <trkpt lat="42.96309870667755603790283203125" lon="-2.3572877235710620880126953125">
        <ele>1105</ele>
        <time>2022-04-17T15:04:14.000Z</time>
      </trkpt>
      <trkpt lat="42.9631023108959197998046875" lon="-2.3572981171309947967529296875">
        <ele>1105</ele>
        <time>2022-04-17T15:04:15.000Z</time>
      </trkpt>
      <trkpt lat="42.96310524456202983856201171875" lon="-2.357306666672229766845703125">
        <ele>1105.199951171875</ele>
        <time>2022-04-17T15:04:16.000Z</time>
      </trkpt>
      <trkpt lat="42.96311010606586933135986328125" lon="-2.35730834305286407470703125">
        <ele>1105.199951171875</ele>
        <time>2022-04-17T15:04:17.000Z</time>
      </trkpt>
      <trkpt lat="42.963115386664867401123046875" lon="-2.3573111928999423980712890625">
        <ele>1105.199951171875</ele>
        <time>2022-04-17T15:04:18.000Z</time>
      </trkpt>
      <trkpt lat="42.963118739426136016845703125" lon="-2.357314042747020721435546875">
        <ele>1105.4000244140625</ele>
        <time>2022-04-17T15:04:19.000Z</time>
      </trkpt>
      <trkpt lat="42.963121421635150909423828125" lon="-2.3573189042508602142333984375">
        <ele>1105.5999755859375</ele>
        <time>2022-04-17T15:04:20.000Z</time>
      </trkpt>
      <trkpt lat="42.9631209187209606170654296875" lon="-2.357331812381744384765625">
        <ele>1105.5999755859375</ele>
        <time>2022-04-17T15:04:21.000Z</time>
      </trkpt>
      <trkpt lat="42.96312536112964153289794921875" lon="-2.35734396614134311676025390625">
        <ele>1105.5999755859375</ele>
        <time>2022-04-17T15:04:22.000Z</time>
      </trkpt>
      <trkpt lat="42.9631262831389904022216796875" lon="-2.3573507554829120635986328125">
        <ele>1105.800048828125</ele>
        <time>2022-04-17T15:04:23.000Z</time>
      </trkpt>
      <trkpt lat="42.96313357539474964141845703125" lon="-2.35735670663416385650634765625">
        <ele>1106</ele>
        <time>2022-04-17T15:04:24.000Z</time>
      </trkpt>
      <trkpt lat="42.96313961036503314971923828125" lon="-2.357360981404781341552734375">
        <ele>1106.199951171875</ele>
        <time>2022-04-17T15:04:25.000Z</time>
      </trkpt>
      <trkpt lat="42.9631425440311431884765625" lon="-2.35736525617539882659912109375">
        <ele>1106.199951171875</ele>
        <time>2022-04-17T15:04:26.000Z</time>
      </trkpt>
      <trkpt lat="42.963144890964031219482421875" lon="-2.357371039688587188720703125">
        <ele>1106.199951171875</ele>
        <time>2022-04-17T15:04:27.000Z</time>
      </trkpt>
      <trkpt lat="42.9631479084491729736328125" lon="-2.3573755659162998199462890625">
        <ele>1106.4000244140625</ele>
        <time>2022-04-17T15:04:28.000Z</time>
      </trkpt>
      <trkpt lat="42.96315201558172702789306640625" lon="-2.3573792539536952972412109375">
        <ele>1106.4000244140625</ele>
        <time>2022-04-17T15:04:29.000Z</time>
      </trkpt>
      <trkpt lat="42.96315771527588367462158203125" lon="-2.357386462390422821044921875">
        <ele>1106.4000244140625</ele>
        <time>2022-04-17T15:04:30.000Z</time>
      </trkpt>
      <trkpt lat="42.9631618224084377288818359375" lon="-2.35739643685519695281982421875">
        <ele>1106.5999755859375</ele>
        <time>2022-04-17T15:04:31.000Z</time>
      </trkpt>
      <trkpt lat="42.96316601336002349853515625" lon="-2.35740222036838531494140625">
        <ele>1106.800048828125</ele>
        <time>2022-04-17T15:04:32.000Z</time>
      </trkpt>
      <trkpt lat="42.96317028813064098358154296875" lon="-2.3574067465960979461669921875">
        <ele>1107</ele>
        <time>2022-04-17T15:04:33.000Z</time>
      </trkpt>
      <trkpt lat="42.96317146159708499908447265625" lon="-2.35741236247122287750244140625">
        <ele>1107.199951171875</ele>
        <time>2022-04-17T15:04:34.000Z</time>
      </trkpt>
      <trkpt lat="42.96317246742546558380126953125" lon="-2.35741504468023777008056640625">
        <ele>1107.4000244140625</ele>
        <time>2022-04-17T15:04:35.000Z</time>
      </trkpt>
      <trkpt lat="42.963173724710941314697265625" lon="-2.3574204929172992706298828125">
        <ele>1107.4000244140625</ele>
        <time>2022-04-17T15:04:36.000Z</time>
      </trkpt>
      <trkpt lat="42.96317649073898792266845703125" lon="-2.35742845572531223297119140625">
        <ele>1107.5999755859375</ele>
        <time>2022-04-17T15:04:37.000Z</time>
      </trkpt>
      <trkpt lat="42.9631805978715419769287109375" lon="-2.357438765466213226318359375">
        <ele>1107.5999755859375</ele>
        <time>2022-04-17T15:04:38.000Z</time>
      </trkpt>
      <trkpt lat="42.96318420208990573883056640625" lon="-2.3574449680745601654052734375">
        <ele>1107.5999755859375</ele>
        <time>2022-04-17T15:04:39.000Z</time>
      </trkpt>
      <trkpt lat="42.96318587847054004669189453125" lon="-2.35745091922581195831298828125">
        <ele>1107.800048828125</ele>
        <time>2022-04-17T15:04:40.000Z</time>
      </trkpt>
      <trkpt lat="42.9631913267076015472412109375" lon="-2.35745410434901714324951171875">
        <ele>1108</ele>
        <time>2022-04-17T15:04:41.000Z</time>
      </trkpt>
      <trkpt lat="42.96319417655467987060546875" lon="-2.357452847063541412353515625">
        <ele>1108.199951171875</ele>
        <time>2022-04-17T15:04:42.000Z</time>
      </trkpt>
      <trkpt lat="42.963201887905597686767578125" lon="-2.3574567027390003204345703125">
        <ele>1108.199951171875</ele>
        <time>2022-04-17T15:04:43.000Z</time>
      </trkpt>
      <trkpt lat="42.96320565976202487945556640625" lon="-2.35746567137539386749267578125">
        <ele>1108.4000244140625</ele>
        <time>2022-04-17T15:04:44.000Z</time>
      </trkpt>
      <trkpt lat="42.96320088207721710205078125" lon="-2.35747287981212139129638671875">
        <ele>1108.4000244140625</ele>
        <time>2022-04-17T15:04:45.000Z</time>
      </trkpt>
      <trkpt lat="42.96320130117237567901611328125" lon="-2.3574768193066120147705078125">
        <ele>1108.5999755859375</ele>
        <time>2022-04-17T15:04:46.000Z</time>
      </trkpt>
      <trkpt lat="42.96320264227688312530517578125" lon="-2.3574821837246417999267578125">
        <ele>1108.5999755859375</ele>
        <time>2022-04-17T15:04:47.000Z</time>
      </trkpt>
      <trkpt lat="42.96320633031427860260009765625" lon="-2.35748746432363986968994140625">
        <ele>1108.800048828125</ele>
        <time>2022-04-17T15:04:48.000Z</time>
      </trkpt>
      <trkpt lat="42.96321052126586437225341796875" lon="-2.35749064944684505462646484375">
        <ele>1108.800048828125</ele>
        <time>2022-04-17T15:04:49.000Z</time>
      </trkpt>
      <trkpt lat="42.963213622570037841796875" lon="-2.35749400220811367034912109375">
        <ele>1109</ele>
        <time>2022-04-17T15:04:50.000Z</time>
      </trkpt>
      <trkpt lat="42.963213957846164703369140625" lon="-2.3575009591877460479736328125">
        <ele>1109</ele>
        <time>2022-04-17T15:04:51.000Z</time>
      </trkpt>
      <trkpt lat="42.96321672387421131134033203125" lon="-2.35750607214868068695068359375">
        <ele>1109</ele>
        <time>2022-04-17T15:04:52.000Z</time>
      </trkpt>
      <trkpt lat="42.96322175301611423492431640625" lon="-2.35751294530928134918212890625">
        <ele>1109.199951171875</ele>
        <time>2022-04-17T15:04:53.000Z</time>
      </trkpt>
      <trkpt lat="42.96322577632963657379150390625" lon="-2.35751696862280368804931640625">
        <ele>1109.199951171875</ele>
        <time>2022-04-17T15:04:54.000Z</time>
      </trkpt>
      <trkpt lat="42.96322896145284175872802734375" lon="-2.3575267754495143890380859375">
        <ele>1109.199951171875</ele>
        <time>2022-04-17T15:04:55.000Z</time>
      </trkpt>
      <trkpt lat="42.96323918737471103668212890625" lon="-2.3575364984571933746337890625">
        <ele>1109.4000244140625</ele>
        <time>2022-04-17T15:04:56.000Z</time>
      </trkpt>
      <trkpt lat="42.96324388124048709869384765625" lon="-2.3575472272932529449462890625">
        <ele>1109.4000244140625</ele>
        <time>2022-04-17T15:04:57.000Z</time>
      </trkpt>
      <trkpt lat="42.96324404887855052947998046875" lon="-2.35756306909024715423583984375">
        <ele>1109.5999755859375</ele>
        <time>2022-04-17T15:04:58.000Z</time>
      </trkpt>
      <trkpt lat="42.96324857510626316070556640625" lon="-2.35758192837238311767578125">
        <ele>1109.800048828125</ele>
        <time>2022-04-17T15:04:59.000Z</time>
      </trkpt>
      <trkpt lat="42.963249497115612030029296875" lon="-2.35760196112096309661865234375">
        <ele>1110</ele>
        <time>2022-04-17T15:05:00.000Z</time>
      </trkpt>
      <trkpt lat="42.963246814906597137451171875" lon="-2.35762308351695537567138671875">
        <ele>1110</ele>
        <time>2022-04-17T15:05:01.000Z</time>
      </trkpt>
      <trkpt lat="42.96325050294399261474609375" lon="-2.3576320521533489227294921875">
        <ele>1110.199951171875</ele>
        <time>2022-04-17T15:05:02.000Z</time>
      </trkpt>
      <trkpt lat="42.9632600583136081695556640625" lon="-2.35763691365718841552734375">
        <ele>1110.199951171875</ele>
        <time>2022-04-17T15:05:03.000Z</time>
      </trkpt>
      <trkpt lat="42.9632654227316379547119140625" lon="-2.3576461337506771087646484375">
        <ele>1110.199951171875</ele>
        <time>2022-04-17T15:05:04.000Z</time>
      </trkpt>
      <trkpt lat="42.963264919817447662353515625" lon="-2.357659041881561279296875">
        <ele>1110.199951171875</ele>
        <time>2022-04-17T15:05:05.000Z</time>
      </trkpt>
      <trkpt lat="42.9632647521793842315673828125" lon="-2.3576682619750499725341796875">
        <ele>1110.199951171875</ele>
        <time>2022-04-17T15:05:06.000Z</time>
      </trkpt>
      <trkpt lat="42.96326567418873310089111328125" lon="-2.35767689533531665802001953125">
        <ele>1110.199951171875</ele>
        <time>2022-04-17T15:05:07.000Z</time>
      </trkpt>
      <trkpt lat="42.96326517127454280853271484375" lon="-2.35768946819007396697998046875">
        <ele>1110.199951171875</ele>
        <time>2022-04-17T15:05:08.000Z</time>
      </trkpt>
      <trkpt lat="42.96326114796102046966552734375" lon="-2.357702963054180145263671875">
        <ele>1110.199951171875</ele>
        <time>2022-04-17T15:05:09.000Z</time>
      </trkpt>
      <trkpt lat="42.96325963921844959259033203125" lon="-2.35771360807120800018310546875">
        <ele>1110.199951171875</ele>
        <time>2022-04-17T15:05:10.000Z</time>
      </trkpt>
      <trkpt lat="42.96326014213263988494873046875" lon="-2.35772618092596530914306640625">
        <ele>1110.199951171875</ele>
        <time>2022-04-17T15:05:11.000Z</time>
      </trkpt>
      <trkpt lat="42.9632590524852275848388671875" lon="-2.3577368259429931640625">
        <ele>1110.199951171875</ele>
        <time>2022-04-17T15:05:12.000Z</time>
      </trkpt>
      <trkpt lat="42.963260896503925323486328125" lon="-2.35774730332195758819580078125">
        <ele>1110.199951171875</ele>
        <time>2022-04-17T15:05:13.000Z</time>
      </trkpt>
      <trkpt lat="42.963262908160686492919921875" lon="-2.35776037909090518951416015625">
        <ele>1110.199951171875</ele>
        <time>2022-04-17T15:05:14.000Z</time>
      </trkpt>
      <trkpt lat="42.9632637463510036468505859375" lon="-2.35777278430759906768798828125">
        <ele>1110.199951171875</ele>
        <time>2022-04-17T15:05:15.000Z</time>
      </trkpt>
      <trkpt lat="42.9632657580077648162841796875" lon="-2.35778418369591236114501953125">
        <ele>1110.199951171875</ele>
        <time>2022-04-17T15:05:16.000Z</time>
      </trkpt>
      <trkpt lat="42.96326818875968456268310546875" lon="-2.35779088921844959259033203125">
        <ele>1110.199951171875</ele>
        <time>2022-04-17T15:05:17.000Z</time>
      </trkpt>
      <trkpt lat="42.963270954787731170654296875" lon="-2.35780010931193828582763671875">
        <ele>1110.4000244140625</ele>
        <time>2022-04-17T15:05:18.000Z</time>
      </trkpt>
      <trkpt lat="42.96327464282512664794921875" lon="-2.35781150870025157928466796875">
        <ele>1110.4000244140625</ele>
        <time>2022-04-17T15:05:19.000Z</time>
      </trkpt>
      <trkpt lat="42.96328042633831501007080078125" lon="-2.357825003564357757568359375">
        <ele>1110.5999755859375</ele>
        <time>2022-04-17T15:05:20.000Z</time>
      </trkpt>
      <trkpt lat="42.96328344382345676422119140625" lon="-2.35783749260008335113525390625">
        <ele>1110.5999755859375</ele>
        <time>2022-04-17T15:05:21.000Z</time>
      </trkpt>
      <trkpt lat="42.963289059698581695556640625" lon="-2.357853166759014129638671875">
        <ele>1110.5999755859375</ele>
        <time>2022-04-17T15:05:22.000Z</time>
      </trkpt>
      <trkpt lat="42.9632972739636898040771484375" lon="-2.3578695952892303466796875">
        <ele>1110.5999755859375</ele>
        <time>2022-04-17T15:05:23.000Z</time>
      </trkpt>
      <trkpt lat="42.9632996208965778350830078125" lon="-2.35788309015333652496337890625">
        <ele>1110.5999755859375</ele>
        <time>2022-04-17T15:05:24.000Z</time>
      </trkpt>
      <trkpt lat="42.96330071054399013519287109375" lon="-2.35789951868355274200439453125">
        <ele>1110.800048828125</ele>
        <time>2022-04-17T15:05:25.000Z</time>
      </trkpt>
      <trkpt lat="42.9633029736578464508056640625" lon="-2.35791125334799289703369140625">
        <ele>1110.800048828125</ele>
        <time>2022-04-17T15:05:26.000Z</time>
      </trkpt>
      <trkpt lat="42.96330540440976619720458984375" lon="-2.35792449675500392913818359375">
        <ele>1110.800048828125</ele>
        <time>2022-04-17T15:05:27.000Z</time>
      </trkpt>
      <trkpt lat="42.96330557204782962799072265625" lon="-2.35793472267687320709228515625">
        <ele>1110.800048828125</ele>
        <time>2022-04-17T15:05:28.000Z</time>
      </trkpt>
      <trkpt lat="42.9633043147623538970947265625" lon="-2.3579554259777069091796875">
        <ele>1110.800048828125</ele>
        <time>2022-04-17T15:05:29.000Z</time>
      </trkpt>
      <trkpt lat="42.9633034765720367431640625" lon="-2.35796825028955936431884765625">
        <ele>1110.800048828125</ele>
        <time>2022-04-17T15:05:30.000Z</time>
      </trkpt>
      <trkpt lat="42.9633063264191150665283203125" lon="-2.35798216424882411956787109375">
        <ele>1110.800048828125</ele>
        <time>2022-04-17T15:05:31.000Z</time>
      </trkpt>
      <trkpt lat="42.9633069969713687896728515625" lon="-2.3580010235309600830078125">
        <ele>1110.800048828125</ele>
        <time>2022-04-17T15:05:32.000Z</time>
      </trkpt>
      <trkpt lat="42.96330506913363933563232421875" lon="-2.358016781508922576904296875">
        <ele>1110.800048828125</ele>
        <time>2022-04-17T15:05:33.000Z</time>
      </trkpt>
      <trkpt lat="42.963301129639148712158203125" lon="-2.3580290190875530242919921875">
        <ele>1110.800048828125</ele>
        <time>2022-04-17T15:05:34.000Z</time>
      </trkpt>
      <trkpt lat="42.9633009620010852813720703125" lon="-2.358048968017101287841796875">
        <ele>1110.800048828125</ele>
        <time>2022-04-17T15:05:35.000Z</time>
      </trkpt>
      <trkpt lat="42.9633043147623538970947265625" lon="-2.3580645583570003509521484375">
        <ele>1111</ele>
        <time>2022-04-17T15:05:36.000Z</time>
      </trkpt>
      <trkpt lat="42.963303811848163604736328125" lon="-2.3580814898014068603515625">
        <ele>1110.800048828125</ele>
        <time>2022-04-17T15:05:37.000Z</time>
      </trkpt>
      <trkpt lat="42.96330691315233707427978515625" lon="-2.3580967448651790618896484375">
        <ele>1110.800048828125</ele>
        <time>2022-04-17T15:05:38.000Z</time>
      </trkpt>
      <trkpt lat="42.963308505713939666748046875" lon="-2.3581083118915557861328125">
        <ele>1110.800048828125</ele>
        <time>2022-04-17T15:05:39.000Z</time>
      </trkpt>
      <trkpt lat="42.96331009827554225921630859375" lon="-2.3581195436418056488037109375">
        <ele>1110.5999755859375</ele>
        <time>2022-04-17T15:05:40.000Z</time>
      </trkpt>
      <trkpt lat="42.96331210993230342864990234375" lon="-2.3581306077539920806884765625">
        <ele>1110.4000244140625</ele>
        <time>2022-04-17T15:05:41.000Z</time>
      </trkpt>
      <trkpt lat="42.9633163847029209136962890625" lon="-2.35814125277101993560791015625">
        <ele>1110.199951171875</ele>
        <time>2022-04-17T15:05:42.000Z</time>
      </trkpt>
      <trkpt lat="42.96332267113029956817626953125" lon="-2.3581564240157604217529296875">
        <ele>1110.199951171875</ele>
        <time>2022-04-17T15:05:43.000Z</time>
      </trkpt>
      <trkpt lat="42.96332652680575847625732421875" lon="-2.358179725706577301025390625">
        <ele>1109.800048828125</ele>
        <time>2022-04-17T15:05:44.000Z</time>
      </trkpt>
      <trkpt lat="42.96333038248121738433837890625" lon="-2.3581956513226032257080078125">
        <ele>1109.800048828125</ele>
        <time>2022-04-17T15:05:45.000Z</time>
      </trkpt>
      <trkpt lat="42.96333541162312030792236328125" lon="-2.35820981673896312713623046875">
        <ele>1109.5999755859375</ele>
        <time>2022-04-17T15:05:46.000Z</time>
      </trkpt>
      <trkpt lat="42.96333775855600833892822265625" lon="-2.358221970498561859130859375">
        <ele>1109.5999755859375</ele>
        <time>2022-04-17T15:05:47.000Z</time>
      </trkpt>
      <trkpt lat="42.96334262005984783172607421875" lon="-2.3582375608384609222412109375">
        <ele>1109.5999755859375</ele>
        <time>2022-04-17T15:05:48.000Z</time>
      </trkpt>
      <trkpt lat="42.9633462242782115936279296875" lon="-2.3582506366074085235595703125">
        <ele>1109.5999755859375</ele>
        <time>2022-04-17T15:05:49.000Z</time>
      </trkpt>
      <trkpt lat="42.9633505828678607940673828125" lon="-2.3582650534808635711669921875">
        <ele>1109.5999755859375</ele>
        <time>2022-04-17T15:05:50.000Z</time>
      </trkpt>
      <trkpt lat="42.963355444371700286865234375" lon="-2.35828039236366748809814453125">
        <ele>1109.5999755859375</ele>
        <time>2022-04-17T15:05:51.000Z</time>
      </trkpt>
      <trkpt lat="42.96336759813129901885986328125" lon="-2.35829832963645458221435546875">
        <ele>1109.5999755859375</ele>
        <time>2022-04-17T15:05:52.000Z</time>
      </trkpt>
      <trkpt lat="42.96336910687386989593505859375" lon="-2.35832096077501773834228515625">
        <ele>1109.5999755859375</ele>
        <time>2022-04-17T15:05:53.000Z</time>
      </trkpt>
      <trkpt lat="42.96337665058672428131103515625" lon="-2.35834233462810516357421875">
        <ele>1109.5999755859375</ele>
        <time>2022-04-17T15:05:54.000Z</time>
      </trkpt>
      <trkpt lat="42.96337782405316829681396484375" lon="-2.35836219973862171173095703125">
        <ele>1109.5999755859375</ele>
        <time>2022-04-17T15:05:55.000Z</time>
      </trkpt>
      <trkpt lat="42.96337782405316829681396484375" lon="-2.358369491994380950927734375">
        <ele>1109.199951171875</ele>
        <time>2022-04-17T15:05:56.000Z</time>
      </trkpt>
      <trkpt lat="42.96337849460542201995849609375" lon="-2.35837896354496479034423828125">
        <ele>1109</ele>
        <time>2022-04-17T15:05:57.000Z</time>
      </trkpt>
      <trkpt lat="42.9633810929954051971435546875" lon="-2.35839019529521465301513671875">
        <ele>1108.800048828125</ele>
        <time>2022-04-17T15:05:58.000Z</time>
      </trkpt>
      <trkpt lat="42.96338603831827640533447265625" lon="-2.35839941538870334625244140625">
        <ele>1108.5999755859375</ele>
        <time>2022-04-17T15:05:59.000Z</time>
      </trkpt>
      <trkpt lat="42.963392324745655059814453125" lon="-2.35841810703277587890625">
        <ele>1108.4000244140625</ele>
        <time>2022-04-17T15:06:00.000Z</time>
      </trkpt>
      <trkpt lat="42.9634018801152706146240234375" lon="-2.35843512229621410369873046875">
        <ele>1108.4000244140625</ele>
        <time>2022-04-17T15:06:01.000Z</time>
      </trkpt>
      <trkpt lat="42.9634072445333003997802734375" lon="-2.358454652130603790283203125">
        <ele>1108.4000244140625</ele>
        <time>2022-04-17T15:06:02.000Z</time>
      </trkpt>
      <trkpt lat="42.963407747447490692138671875" lon="-2.35847267322242259979248046875">
        <ele>1108.4000244140625</ele>
        <time>2022-04-17T15:06:03.000Z</time>
      </trkpt>
      <trkpt lat="42.96340984292328357696533203125" lon="-2.3584860004484653472900390625">
        <ele>1108.4000244140625</ele>
        <time>2022-04-17T15:06:04.000Z</time>
      </trkpt>
      <trkpt lat="42.96340883709490299224853515625" lon="-2.3584960587322711944580078125">
        <ele>1108.5999755859375</ele>
        <time>2022-04-17T15:06:05.000Z</time>
      </trkpt>
      <trkpt lat="42.96340866945683956146240234375" lon="-2.35849832184612751007080078125">
        <ele>1108.5999755859375</ele>
        <time>2022-04-17T15:06:06.000Z</time>
      </trkpt>
      <trkpt lat="42.96341009438037872314453125" lon="-2.3584997467696666717529296875">
        <ele>1108.5999755859375</ele>
        <time>2022-04-17T15:06:07.000Z</time>
      </trkpt>
      <trkpt lat="42.9634099267423152923583984375" lon="-2.35850729048252105712890625">
        <ele>1108.5999755859375</ele>
        <time>2022-04-17T15:06:08.000Z</time>
      </trkpt>
      <trkpt lat="42.96340799890458583831787109375" lon="-2.35851801931858062744140625">
        <ele>1108.5999755859375</ele>
        <time>2022-04-17T15:06:09.000Z</time>
      </trkpt>
      <trkpt lat="42.96340716071426868438720703125" lon="-2.35852832905948162078857421875">
        <ele>1108.5999755859375</ele>
        <time>2022-04-17T15:06:10.000Z</time>
      </trkpt>
      <trkpt lat="42.963409759104251861572265625" lon="-2.35853838734328746795654296875">
        <ele>1108.800048828125</ele>
        <time>2022-04-17T15:06:11.000Z</time>
      </trkpt>
      <trkpt lat="42.96341302804648876190185546875" lon="-2.3585486970841884613037109375">
        <ele>1108.800048828125</ele>
        <time>2022-04-17T15:06:12.000Z</time>
      </trkpt>
      <trkpt lat="42.96341554261744022369384765625" lon="-2.3585634492337703704833984375">
        <ele>1108.800048828125</ele>
        <time>2022-04-17T15:06:13.000Z</time>
      </trkpt>
      <trkpt lat="42.96341906301677227020263671875" lon="-2.35857694409787654876708984375">
        <ele>1109</ele>
        <time>2022-04-17T15:06:14.000Z</time>
      </trkpt>
      <trkpt lat="42.96342107467353343963623046875" lon="-2.35858398489654064178466796875">
        <ele>1109</ele>
        <time>2022-04-17T15:06:15.000Z</time>
      </trkpt>
      <trkpt lat="42.96341822482645511627197265625" lon="-2.35859714448451995849609375">
        <ele>1109</ele>
        <time>2022-04-17T15:06:16.000Z</time>
      </trkpt>
      <trkpt lat="42.963413111865520477294921875" lon="-2.3586077056825160980224609375">
        <ele>1109.199951171875</ele>
        <time>2022-04-17T15:06:17.000Z</time>
      </trkpt>
      <trkpt lat="42.96341319568455219268798828125" lon="-2.35862270928919315338134765625">
        <ele>1109.199951171875</ele>
        <time>2022-04-17T15:06:18.000Z</time>
      </trkpt>
      <trkpt lat="42.96341755427420139312744140625" lon="-2.35864031128585338592529296875">
        <ele>1109.199951171875</ele>
        <time>2022-04-17T15:06:19.000Z</time>
      </trkpt>
      <trkpt lat="42.96342090703547000885009765625" lon="-2.35865741036832332611083984375">
        <ele>1109.199951171875</ele>
        <time>2022-04-17T15:06:20.000Z</time>
      </trkpt>
      <trkpt lat="42.9634276963770389556884765625" lon="-2.35867249779403209686279296875">
        <ele>1109.4000244140625</ele>
        <time>2022-04-17T15:06:21.000Z</time>
      </trkpt>
      <trkpt lat="42.96342945657670497894287109375" lon="-2.35868507064878940582275390625">
        <ele>1109.4000244140625</ele>
        <time>2022-04-17T15:06:22.000Z</time>
      </trkpt>
      <trkpt lat="42.96342543326318264007568359375" lon="-2.35869638621807098388671875">
        <ele>1109.5999755859375</ele>
        <time>2022-04-17T15:06:23.000Z</time>
      </trkpt>
      <trkpt lat="42.963422499597072601318359375" lon="-2.35870233736932277679443359375">
        <ele>1109.5999755859375</ele>
        <time>2022-04-17T15:06:24.000Z</time>
      </trkpt>
      <trkpt lat="42.96342208050191402435302734375" lon="-2.35871356911957263946533203125">
        <ele>1109.5999755859375</ele>
        <time>2022-04-17T15:06:25.000Z</time>
      </trkpt>
      <trkpt lat="42.9634226672351360321044921875" lon="-2.35872731544077396392822265625">
        <ele>1109.5999755859375</ele>
        <time>2022-04-17T15:06:26.000Z</time>
      </trkpt>
      <trkpt lat="42.96342442743480205535888671875" lon="-2.35873469151556491851806640625">
        <ele>1109.5999755859375</ele>
        <time>2022-04-17T15:06:27.000Z</time>
      </trkpt>
      <trkpt lat="42.96342752873897552490234375" lon="-2.35874357633292675018310546875">
        <ele>1109.800048828125</ele>
        <time>2022-04-17T15:06:28.000Z</time>
      </trkpt>
      <trkpt lat="42.96343197114765644073486328125" lon="-2.35875547863543033599853515625">
        <ele>1110</ele>
        <time>2022-04-17T15:06:29.000Z</time>
      </trkpt>
      <trkpt lat="42.9634340666234493255615234375" lon="-2.35877282917499542236328125">
        <ele>1110</ele>
        <time>2022-04-17T15:06:30.000Z</time>
      </trkpt>
      <trkpt lat="42.96342861838638782501220703125" lon="-2.35878950916230678558349609375">
        <ele>1110</ele>
        <time>2022-04-17T15:06:31.000Z</time>
      </trkpt>
      <trkpt lat="42.96342727728188037872314453125" lon="-2.3588031716644763946533203125">
        <ele>1110</ele>
        <time>2022-04-17T15:06:32.000Z</time>
      </trkpt>
      <trkpt lat="42.96342727728188037872314453125" lon="-2.3588169179856777191162109375">
        <ele>1110.199951171875</ele>
        <time>2022-04-17T15:06:33.000Z</time>
      </trkpt>
      <trkpt lat="42.963429875671863555908203125" lon="-2.3588271439075469970703125">
        <ele>1110.199951171875</ele>
        <time>2022-04-17T15:06:34.000Z</time>
      </trkpt>
      <trkpt lat="42.96342912130057811737060546875" lon="-2.3588420636951923370361328125">
        <ele>1110.4000244140625</ele>
        <time>2022-04-17T15:06:35.000Z</time>
      </trkpt>
      <trkpt lat="42.96343163587152957916259765625" lon="-2.3588539659976959228515625">
        <ele>1110.5999755859375</ele>
        <time>2022-04-17T15:06:36.000Z</time>
      </trkpt>
      <trkpt lat="42.96343314461410045623779296875" lon="-2.35886444337666034698486328125">
        <ele>1110.800048828125</ele>
        <time>2022-04-17T15:06:37.000Z</time>
      </trkpt>
      <trkpt lat="42.96343213878571987152099609375" lon="-2.3588708974421024322509765625">
        <ele>1110.800048828125</ele>
        <time>2022-04-17T15:06:38.000Z</time>
      </trkpt>
      <trkpt lat="42.9634303785860538482666015625" lon="-2.35888388939201831817626953125">
        <ele>1110.800048828125</ele>
        <time>2022-04-17T15:06:39.000Z</time>
      </trkpt>
      <trkpt lat="42.96343130059540271759033203125" lon="-2.35889755189418792724609375">
        <ele>1111</ele>
        <time>2022-04-17T15:06:40.000Z</time>
      </trkpt>
      <trkpt lat="42.9634303785860538482666015625" lon="-2.35891557298600673675537109375">
        <ele>1111</ele>
        <time>2022-04-17T15:06:41.000Z</time>
      </trkpt>
      <trkpt lat="42.9634293727576732635498046875" lon="-2.35892931930720806121826171875">
        <ele>1111</ele>
        <time>2022-04-17T15:06:42.000Z</time>
      </trkpt>
      <trkpt lat="42.9634273611009120941162109375" lon="-2.35894180834293365478515625">
        <ele>1111</ele>
        <time>2022-04-17T15:06:43.000Z</time>
      </trkpt>
      <trkpt lat="42.96342928893864154815673828125" lon="-2.35895865596830844879150390625">
        <ele>1111</ele>
        <time>2022-04-17T15:06:44.000Z</time>
      </trkpt>
      <trkpt lat="42.9634243436157703399658203125" lon="-2.35897801816463470458984375">
        <ele>1111</ele>
        <time>2022-04-17T15:06:45.000Z</time>
      </trkpt>
      <trkpt lat="42.96342308633029460906982421875" lon="-2.35898950137197971343994140625">
        <ele>1111</ele>
        <time>2022-04-17T15:06:46.000Z</time>
      </trkpt>
      <trkpt lat="42.96342375688254833221435546875" lon="-2.35899545252323150634765625">
        <ele>1111.4000244140625</ele>
        <time>2022-04-17T15:06:47.000Z</time>
      </trkpt>
      <trkpt lat="42.963425181806087493896484375" lon="-2.35900240950286388397216796875">
        <ele>1111.5999755859375</ele>
        <time>2022-04-17T15:06:48.000Z</time>
      </trkpt>
      <trkpt lat="42.9634250141680240631103515625" lon="-2.35901414416730403900146484375">
        <ele>1111.800048828125</ele>
        <time>2022-04-17T15:06:49.000Z</time>
      </trkpt>
      <trkpt lat="42.96342560090124607086181640625" lon="-2.35902219079434871673583984375">
        <ele>1111.800048828125</ele>
        <time>2022-04-17T15:06:50.000Z</time>
      </trkpt>
      <trkpt lat="42.96342912130057811737060546875" lon="-2.359025962650775909423828125">
        <ele>1112</ele>
        <time>2022-04-17T15:06:51.000Z</time>
      </trkpt>
      <trkpt lat="42.9634310491383075714111328125" lon="-2.35903568565845489501953125">
        <ele>1112</ele>
        <time>2022-04-17T15:06:52.000Z</time>
      </trkpt>
      <trkpt lat="42.96343331225216388702392578125" lon="-2.35904431901872158050537109375">
        <ele>1112</ele>
        <time>2022-04-17T15:06:53.000Z</time>
      </trkpt>
      <trkpt lat="42.9634307138621807098388671875" lon="-2.35905823297798633575439453125">
        <ele>1112.199951171875</ele>
        <time>2022-04-17T15:06:54.000Z</time>
      </trkpt>
      <trkpt lat="42.96343063004314899444580078125" lon="-2.3590740747749805450439453125">
        <ele>1112.199951171875</ele>
        <time>2022-04-17T15:06:55.000Z</time>
      </trkpt>
      <trkpt lat="42.96342928893864154815673828125" lon="-2.35908354632556438446044921875">
        <ele>1112.4000244140625</ele>
        <time>2022-04-17T15:06:56.000Z</time>
      </trkpt>
      <trkpt lat="42.9634300433099269866943359375" lon="-2.35909746028482913970947265625">
        <ele>1112.4000244140625</ele>
        <time>2022-04-17T15:06:57.000Z</time>
      </trkpt>
      <trkpt lat="42.9634333960711956024169921875" lon="-2.35912553966045379638671875">
        <ele>1112.5999755859375</ele>
        <time>2022-04-17T15:06:58.000Z</time>
      </trkpt>
      <trkpt lat="42.9634404368698596954345703125" lon="-2.3591407947242259979248046875">
        <ele>1112.5999755859375</ele>
        <time>2022-04-17T15:06:59.000Z</time>
      </trkpt>
      <trkpt lat="42.96344320289790630340576171875" lon="-2.35915646888315677642822265625">
        <ele>1112.800048828125</ele>
        <time>2022-04-17T15:07:00.000Z</time>
      </trkpt>
      <trkpt lat="42.9634421132504940032958984375" lon="-2.35917205922305583953857421875">
        <ele>1112.5999755859375</ele>
        <time>2022-04-17T15:07:01.000Z</time>
      </trkpt>
      <trkpt lat="42.96344093978404998779296875" lon="-2.35918882302939891815185546875">
        <ele>1112.800048828125</ele>
        <time>2022-04-17T15:07:02.000Z</time>
      </trkpt>
      <trkpt lat="42.9634390957653522491455078125" lon="-2.35920072533190250396728515625">
        <ele>1112.800048828125</ele>
        <time>2022-04-17T15:07:03.000Z</time>
      </trkpt>
      <trkpt lat="42.9634417779743671417236328125" lon="-2.35920692794024944305419921875">
        <ele>1113</ele>
        <time>2022-04-17T15:07:04.000Z</time>
      </trkpt>
      <trkpt lat="42.96344253234565258026123046875" lon="-2.35921681858599185943603515625">
        <ele>1113.199951171875</ele>
        <time>2022-04-17T15:07:05.000Z</time>
      </trkpt>
      <trkpt lat="42.9634431190788745880126953125" lon="-2.35923073254525661468505859375">
        <ele>1113.199951171875</ele>
        <time>2022-04-17T15:07:06.000Z</time>
      </trkpt>
      <trkpt lat="42.963445968925952911376953125" lon="-2.3592423833906650543212890625">
        <ele>1113.199951171875</ele>
        <time>2022-04-17T15:07:07.000Z</time>
      </trkpt>
      <trkpt lat="42.96345158480107784271240234375" lon="-2.359254620969295501708984375">
        <ele>1113.4000244140625</ele>
        <time>2022-04-17T15:07:08.000Z</time>
      </trkpt>
      <trkpt lat="42.9634525068104267120361328125" lon="-2.35927700065076351165771484375">
        <ele>1113.4000244140625</ele>
        <time>2022-04-17T15:07:09.000Z</time>
      </trkpt>
      <trkpt lat="42.96345678158104419708251953125" lon="-2.359297536313533782958984375">
        <ele>1113.4000244140625</ele>
        <time>2022-04-17T15:07:10.000Z</time>
      </trkpt>
      <trkpt lat="42.96346013434231281280517578125" lon="-2.3593097738921642303466796875">
        <ele>1113.5999755859375</ele>
        <time>2022-04-17T15:07:11.000Z</time>
      </trkpt>
      <trkpt lat="42.96345862559974193572998046875" lon="-2.35931907780468463897705078125">
        <ele>1113.5999755859375</ele>
        <time>2022-04-17T15:07:12.000Z</time>
      </trkpt>
      <trkpt lat="42.96346030198037624359130859375" lon="-2.35932997427880764007568359375">
        <ele>1113.800048828125</ele>
        <time>2022-04-17T15:07:13.000Z</time>
      </trkpt>
      <trkpt lat="42.96346549876034259796142578125" lon="-2.359335087239742279052734375">
        <ele>1113.800048828125</ele>
        <time>2022-04-17T15:07:14.000Z</time>
      </trkpt>
      <trkpt lat="42.96347354538738727569580078125" lon="-2.3593473248183727264404296875">
        <ele>1113.800048828125</ele>
        <time>2022-04-17T15:07:15.000Z</time>
      </trkpt>
      <trkpt lat="42.9634840227663516998291015625" lon="-2.35936132259666919708251953125">
        <ele>1113.800048828125</ele>
        <time>2022-04-17T15:07:16.000Z</time>
      </trkpt>
      <trkpt lat="42.96349382959306240081787109375" lon="-2.35937230288982391357421875">
        <ele>1113.800048828125</ele>
        <time>2022-04-17T15:07:17.000Z</time>
      </trkpt>
      <trkpt lat="42.96349994838237762451171875" lon="-2.3593838699162006378173828125">
        <ele>1113.5999755859375</ele>
        <time>2022-04-17T15:07:18.000Z</time>
      </trkpt>
      <trkpt lat="42.9635038040578365325927734375" lon="-2.35939937643706798553466796875">
        <ele>1113.5999755859375</ele>
        <time>2022-04-17T15:07:19.000Z</time>
      </trkpt>
      <trkpt lat="42.96350489370524883270263671875" lon="-2.3594163917005062103271484375">
        <ele>1113.4000244140625</ele>
        <time>2022-04-17T15:07:20.000Z</time>
      </trkpt>
      <trkpt lat="42.963506318628787994384765625" lon="-2.35942921601235866546630859375">
        <ele>1113.199951171875</ele>
        <time>2022-04-17T15:07:21.000Z</time>
      </trkpt>
      <trkpt lat="42.963508330285549163818359375" lon="-2.3594388552010059356689453125">
        <ele>1113.199951171875</ele>
        <time>2022-04-17T15:07:22.000Z</time>
      </trkpt>
      <trkpt lat="42.9635095037519931793212890625" lon="-2.3594440519809722900390625">
        <ele>1113</ele>
        <time>2022-04-17T15:07:23.000Z</time>
      </trkpt>
      <trkpt lat="42.9635095037519931793212890625" lon="-2.3594482429325580596923828125">
        <ele>1113</ele>
        <time>2022-04-17T15:07:24.000Z</time>
      </trkpt>
      <trkpt lat="42.963508665561676025390625" lon="-2.3594549484550952911376953125">
        <ele>1112.800048828125</ele>
        <time>2022-04-17T15:07:25.000Z</time>
      </trkpt>
      <trkpt lat="42.963508665561676025390625" lon="-2.3594606481492519378662109375">
        <ele>1112.5999755859375</ele>
        <time>2022-04-17T15:07:26.000Z</time>
      </trkpt>
      <trkpt lat="42.96350933611392974853515625" lon="-2.359467186033725738525390625">
        <ele>1112.5999755859375</ele>
        <time>2022-04-17T15:07:27.000Z</time>
      </trkpt>
      <trkpt lat="42.963511012494564056396484375" lon="-2.3594750650227069854736328125">
        <ele>1112.5999755859375</ele>
        <time>2022-04-17T15:07:28.000Z</time>
      </trkpt>
      <trkpt lat="42.96351277269423007965087890625" lon="-2.35948403365910053253173828125">
        <ele>1112.4000244140625</ele>
        <time>2022-04-17T15:07:29.000Z</time>
      </trkpt>
      <trkpt lat="42.96351176686584949493408203125" lon="-2.359495349228382110595703125">
        <ele>1112.4000244140625</ele>
        <time>2022-04-17T15:07:30.000Z</time>
      </trkpt>
      <trkpt lat="42.9635152034461498260498046875" lon="-2.35950146801769733428955078125">
        <ele>1112.4000244140625</ele>
        <time>2022-04-17T15:07:31.000Z</time>
      </trkpt>
      <trkpt lat="42.96352350153028964996337890625" lon="-2.359504401683807373046875">
        <ele>1112.4000244140625</ele>
        <time>2022-04-17T15:07:32.000Z</time>
      </trkpt>
      <trkpt lat="42.96353138051927089691162109375" lon="-2.3595149628818035125732421875">
        <ele>1112.4000244140625</ele>
        <time>2022-04-17T15:07:33.000Z</time>
      </trkpt>
      <trkpt lat="42.96353775076568126678466796875" lon="-2.3595287092030048370361328125">
        <ele>1112.4000244140625</ele>
        <time>2022-04-17T15:07:34.000Z</time>
      </trkpt>
      <trkpt lat="42.9635510779917240142822265625" lon="-2.35952996648848056793212890625">
        <ele>1112.4000244140625</ele>
        <time>2022-04-17T15:07:35.000Z</time>
      </trkpt>
      <trkpt lat="42.963558621704578399658203125" lon="-2.35954103060066699981689453125">
        <ele>1112.4000244140625</ele>
        <time>2022-04-17T15:07:36.000Z</time>
      </trkpt>
      <trkpt lat="42.96355753205716609954833984375" lon="-2.35955863259732723236083984375">
        <ele>1112.4000244140625</ele>
        <time>2022-04-17T15:07:37.000Z</time>
      </trkpt>
      <trkpt lat="42.9635527543723583221435546875" lon="-2.35957271419465541839599609375">
        <ele>1112.4000244140625</ele>
        <time>2022-04-17T15:07:38.000Z</time>
      </trkpt>
      <trkpt lat="42.96354630030691623687744140625" lon="-2.35958294011652469635009765625">
        <ele>1112.4000244140625</ele>
        <time>2022-04-17T15:07:39.000Z</time>
      </trkpt>
      <trkpt lat="42.96354579739272594451904296875" lon="-2.3595904000103473663330078125">
        <ele>1112.5999755859375</ele>
        <time>2022-04-17T15:07:40.000Z</time>
      </trkpt>
      <trkpt lat="42.96354831196367740631103515625" lon="-2.35960037447512149810791015625">
        <ele>1112.5999755859375</ele>
        <time>2022-04-17T15:07:41.000Z</time>
      </trkpt>
      <trkpt lat="42.9635520838201045989990234375" lon="-2.35961437225341796875">
        <ele>1112.5999755859375</ele>
        <time>2022-04-17T15:07:42.000Z</time>
      </trkpt>
      <trkpt lat="42.963555268943309783935546875" lon="-2.3596262745559215545654296875">
        <ele>1112.5999755859375</ele>
        <time>2022-04-17T15:07:43.000Z</time>
      </trkpt>
      <trkpt lat="42.96355501748621463775634765625" lon="-2.35963675193488597869873046875">
        <ele>1112.5999755859375</ele>
        <time>2022-04-17T15:07:44.000Z</time>
      </trkpt>
      <trkpt lat="42.9635527543723583221435546875" lon="-2.35964764840900897979736328125">
        <ele>1112.800048828125</ele>
        <time>2022-04-17T15:07:45.000Z</time>
      </trkpt>
      <trkpt lat="42.96354982070624828338623046875" lon="-2.35966105945408344268798828125">
        <ele>1112.800048828125</ele>
        <time>2022-04-17T15:07:46.000Z</time>
      </trkpt>
      <trkpt lat="42.96354680322110652923583984375" lon="-2.3596762306988239288330078125">
        <ele>1113</ele>
        <time>2022-04-17T15:07:47.000Z</time>
      </trkpt>
      <trkpt lat="42.9635420255362987518310546875" lon="-2.3596903122961521148681640625">
        <ele>1113</ele>
        <time>2022-04-17T15:07:48.000Z</time>
      </trkpt>
      <trkpt lat="42.963533140718936920166015625" lon="-2.35970749519765377044677734375">
        <ele>1113.199951171875</ele>
        <time>2022-04-17T15:07:49.000Z</time>
      </trkpt>
      <trkpt lat="42.96353456564247608184814453125" lon="-2.3597278632223606109619140625">
        <ele>1113.199951171875</ele>
        <time>2022-04-17T15:07:50.000Z</time>
      </trkpt>
      <trkpt lat="42.96353339217603206634521484375" lon="-2.35974756069481372833251953125">
        <ele>1113.199951171875</ele>
        <time>2022-04-17T15:07:51.000Z</time>
      </trkpt>
      <trkpt lat="42.96353121288120746612548828125" lon="-2.35976231284439563751220703125">
        <ele>1113.199951171875</ele>
        <time>2022-04-17T15:07:52.000Z</time>
      </trkpt>
      <trkpt lat="42.96353272162377834320068359375" lon="-2.3597815074026584625244140625">
        <ele>1113.199951171875</ele>
        <time>2022-04-17T15:07:53.000Z</time>
      </trkpt>
      <trkpt lat="42.96353280544281005859375" lon="-2.3598043061792850494384765625">
        <ele>1113.199951171875</ele>
        <time>2022-04-17T15:07:54.000Z</time>
      </trkpt>
      <trkpt lat="42.96353205107152462005615234375" lon="-2.359823249280452728271484375">
        <ele>1113.199951171875</ele>
        <time>2022-04-17T15:07:55.000Z</time>
      </trkpt>
      <trkpt lat="42.9635302908718585968017578125" lon="-2.359842695295810699462890625">
        <ele>1113.199951171875</ele>
        <time>2022-04-17T15:07:56.000Z</time>
      </trkpt>
      <trkpt lat="42.963524758815765380859375" lon="-2.35986046493053436279296875">
        <ele>1113.4000244140625</ele>
        <time>2022-04-17T15:07:57.000Z</time>
      </trkpt>
      <trkpt lat="42.96352366916835308074951171875" lon="-2.3598710261285305023193359375">
        <ele>1113.4000244140625</ele>
        <time>2022-04-17T15:07:58.000Z</time>
      </trkpt>
      <trkpt lat="42.96352551318705081939697265625" lon="-2.35987312160432338714599609375">
        <ele>1113.5999755859375</ele>
        <time>2022-04-17T15:07:59.000Z</time>
      </trkpt>
      <trkpt lat="42.963523752987384796142578125" lon="-2.35987882129848003387451171875">
        <ele>1113.4000244140625</ele>
        <time>2022-04-17T15:08:00.000Z</time>
      </trkpt>
      <trkpt lat="42.96352081932127475738525390625" lon="-2.35988887958228588104248046875">
        <ele>1113.4000244140625</ele>
        <time>2022-04-17T15:08:01.000Z</time>
      </trkpt>
      <trkpt lat="42.96351914294064044952392578125" lon="-2.35989977605640888214111328125">
        <ele>1113.5999755859375</ele>
        <time>2022-04-17T15:08:02.000Z</time>
      </trkpt>
      <trkpt lat="42.9635180532932281494140625" lon="-2.35991142690181732177734375">
        <ele>1113.5999755859375</ele>
        <time>2022-04-17T15:08:03.000Z</time>
      </trkpt>
      <trkpt lat="42.96351947821676731109619140625" lon="-2.35991922207176685333251953125">
        <ele>1113.5999755859375</ele>
        <time>2022-04-17T15:08:04.000Z</time>
      </trkpt>
      <trkpt lat="42.96352199278771877288818359375" lon="-2.35992617905139923095703125">
        <ele>1113.5999755859375</ele>
        <time>2022-04-17T15:08:05.000Z</time>
      </trkpt>
      <trkpt lat="42.9635239206254482269287109375" lon="-2.359937243163585662841796875">
        <ele>1113.5999755859375</ele>
        <time>2022-04-17T15:08:06.000Z</time>
      </trkpt>
      <trkpt lat="42.9635207355022430419921875" lon="-2.35995124094188213348388671875">
        <ele>1113.5999755859375</ele>
        <time>2022-04-17T15:08:07.000Z</time>
      </trkpt>
      <trkpt lat="42.963515706360340118408203125" lon="-2.3599776439368724822998046875">
        <ele>1113.5999755859375</ele>
        <time>2022-04-17T15:08:08.000Z</time>
      </trkpt>
      <trkpt lat="42.96351310797035694122314453125" lon="-2.35999784432351589202880859375">
        <ele>1113.5999755859375</ele>
        <time>2022-04-17T15:08:09.000Z</time>
      </trkpt>
      <trkpt lat="42.963516376912593841552734375" lon="-2.36000605858862400054931640625">
        <ele>1113.5999755859375</ele>
        <time>2022-04-17T15:08:10.000Z</time>
      </trkpt>
      <trkpt lat="42.96352668665349483489990234375" lon="-2.36000396311283111572265625">
        <ele>1113.5999755859375</ele>
        <time>2022-04-17T15:08:11.000Z</time>
      </trkpt>
      <trkpt lat="42.9635222442448139190673828125" lon="-2.36001561395823955535888671875">
        <ele>1113.5999755859375</ele>
        <time>2022-04-17T15:08:12.000Z</time>
      </trkpt>
      <trkpt lat="42.96351243741810321807861328125" lon="-2.360032461583614349365234375">
        <ele>1113.5999755859375</ele>
        <time>2022-04-17T15:08:13.000Z</time>
      </trkpt>
      <trkpt lat="42.963504306972026824951171875" lon="-2.3600433580577373504638671875">
        <ele>1113.5999755859375</ele>
        <time>2022-04-17T15:08:14.000Z</time>
      </trkpt>
      <trkpt lat="42.96350170858204364776611328125" lon="-2.36004997976124286651611328125">
        <ele>1113.5999755859375</ele>
        <time>2022-04-17T15:08:15.000Z</time>
      </trkpt>
      <trkpt lat="42.9634992778301239013671875" lon="-2.3600537516176700592041015625">
        <ele>1113.5999755859375</ele>
        <time>2022-04-17T15:08:16.000Z</time>
      </trkpt>
      <trkpt lat="42.963497601449489593505859375" lon="-2.3600542545318603515625">
        <ele>1113.5999755859375</ele>
        <time>2022-04-17T15:08:17.000Z</time>
      </trkpt>
      <trkpt lat="42.96349885873496532440185546875" lon="-2.3600567691028118133544921875">
        <ele>1113.5999755859375</ele>
        <time>2022-04-17T15:08:18.000Z</time>
      </trkpt>
      <trkpt lat="42.9635004512965679168701171875" lon="-2.36006808467209339141845703125">
        <ele>1113.800048828125</ele>
        <time>2022-04-17T15:08:19.000Z</time>
      </trkpt>
      <trkpt lat="42.963502295315265655517578125" lon="-2.36007847823202610015869140625">
        <ele>1113.800048828125</ele>
        <time>2022-04-17T15:08:20.000Z</time>
      </trkpt>
      <trkpt lat="42.96350187622010707855224609375" lon="-2.3600892908871173858642578125">
        <ele>1113.800048828125</ele>
        <time>2022-04-17T15:08:21.000Z</time>
      </trkpt>
      <trkpt lat="42.9635017924010753631591796875" lon="-2.36010052263736724853515625">
        <ele>1113.800048828125</ele>
        <time>2022-04-17T15:08:22.000Z</time>
      </trkpt>
      <trkpt lat="42.96350036747753620147705078125" lon="-2.36011116765439510345458984375">
        <ele>1113.800048828125</ele>
        <time>2022-04-17T15:08:23.000Z</time>
      </trkpt>
      <trkpt lat="42.963499613106250762939453125" lon="-2.36012022010982036590576171875">
        <ele>1113.800048828125</ele>
        <time>2022-04-17T15:08:24.000Z</time>
      </trkpt>
      <trkpt lat="42.96349869109690189361572265625" lon="-2.36012399196624755859375">
        <ele>1114</ele>
        <time>2022-04-17T15:08:25.000Z</time>
      </trkpt>
      <trkpt lat="42.963495589792728424072265625" lon="-2.36012273468077182769775390625">
        <ele>1114</ele>
        <time>2022-04-17T15:08:26.000Z</time>
      </trkpt>
      <trkpt lat="42.96349550597369670867919921875" lon="-2.36012809909880161285400390625">
        <ele>1114</ele>
        <time>2022-04-17T15:08:27.000Z</time>
      </trkpt>
      <trkpt lat="42.96349315904080867767333984375" lon="-2.3601419292390346527099609375">
        <ele>1114.199951171875</ele>
        <time>2022-04-17T15:08:28.000Z</time>
      </trkpt>
      <trkpt lat="42.96349399723112583160400390625" lon="-2.36015425063669681549072265625">
        <ele>1114.199951171875</ele>
        <time>2022-04-17T15:08:29.000Z</time>
      </trkpt>
      <trkpt lat="42.96350003220140933990478515625" lon="-2.36016816459596157073974609375">
        <ele>1114.199951171875</ele>
        <time>2022-04-17T15:08:30.000Z</time>
      </trkpt>
      <trkpt lat="42.96350070275366306304931640625" lon="-2.36018023453652858734130859375">
        <ele>1114.4000244140625</ele>
        <time>2022-04-17T15:08:31.000Z</time>
      </trkpt>
      <trkpt lat="42.96350154094398021697998046875" lon="-2.36018375493586063385009765625">
        <ele>1114.4000244140625</ele>
        <time>2022-04-17T15:08:32.000Z</time>
      </trkpt>
      <trkpt lat="42.9635007865726947784423828125" lon="-2.36018727533519268035888671875">
        <ele>1114.5999755859375</ele>
        <time>2022-04-17T15:08:33.000Z</time>
      </trkpt>
      <trkpt lat="42.963499613106250762939453125" lon="-2.36019431613385677337646484375">
        <ele>1114.5999755859375</ele>
        <time>2022-04-17T15:08:34.000Z</time>
      </trkpt>
      <trkpt lat="42.9634957574307918548583984375" lon="-2.36020487733185291290283203125">
        <ele>1114.800048828125</ele>
        <time>2022-04-17T15:08:35.000Z</time>
      </trkpt>
      <trkpt lat="42.963492907583713531494140625" lon="-2.36021518707275390625">
        <ele>1114.800048828125</ele>
        <time>2022-04-17T15:08:36.000Z</time>
      </trkpt>
      <trkpt lat="42.96349081210792064666748046875" lon="-2.360223568975925445556640625">
        <ele>1114.800048828125</ele>
        <time>2022-04-17T15:08:37.000Z</time>
      </trkpt>
      <trkpt lat="42.963491566479206085205078125" lon="-2.3602294363081455230712890625">
        <ele>1115</ele>
        <time>2022-04-17T15:08:38.000Z</time>
      </trkpt>
      <trkpt lat="42.96349332667887210845947265625" lon="-2.3602361418306827545166015625">
        <ele>1115.199951171875</ele>
        <time>2022-04-17T15:08:39.000Z</time>
      </trkpt>
      <trkpt lat="42.9634903930127620697021484375" lon="-2.36024376936256885528564453125">
        <ele>1115.199951171875</ele>
        <time>2022-04-17T15:08:40.000Z</time>
      </trkpt>
      <trkpt lat="42.9634853638708591461181640625" lon="-2.3602518998086452484130859375">
        <ele>1115.4000244140625</ele>
        <time>2022-04-17T15:08:41.000Z</time>
      </trkpt>
      <trkpt lat="42.9634786583483219146728515625" lon="-2.36026103608310222625732421875">
        <ele>1115.5999755859375</ele>
        <time>2022-04-17T15:08:42.000Z</time>
      </trkpt>
      <trkpt lat="42.96347304247319698333740234375" lon="-2.36027360893785953521728515625">
        <ele>1115.800048828125</ele>
        <time>2022-04-17T15:08:43.000Z</time>
      </trkpt>
      <trkpt lat="42.9634672589600086212158203125" lon="-2.360282242298126220703125">
        <ele>1116</ele>
        <time>2022-04-17T15:08:44.000Z</time>
      </trkpt>
      <trkpt lat="42.9634632356464862823486328125" lon="-2.3602907918393611907958984375">
        <ele>1116</ele>
        <time>2022-04-17T15:08:45.000Z</time>
      </trkpt>
      <trkpt lat="42.96346013434231281280517578125" lon="-2.3603048734366893768310546875">
        <ele>1116.199951171875</ele>
        <time>2022-04-17T15:08:46.000Z</time>
      </trkpt>
      <trkpt lat="42.963452674448490142822265625" lon="-2.360322140157222747802734375">
        <ele>1116.199951171875</ele>
        <time>2022-04-17T15:08:47.000Z</time>
      </trkpt>
      <trkpt lat="42.963444292545318603515625" lon="-2.36033798195421695709228515625">
        <ele>1116.199951171875</ele>
        <time>2022-04-17T15:08:48.000Z</time>
      </trkpt>
      <trkpt lat="42.963435910642147064208984375" lon="-2.360352315008640289306640625">
        <ele>1116.4000244140625</ele>
        <time>2022-04-17T15:08:49.000Z</time>
      </trkpt>
      <trkpt lat="42.96343716792762279510498046875" lon="-2.36035960726439952850341796875">
        <ele>1116.4000244140625</ele>
        <time>2022-04-17T15:08:50.000Z</time>
      </trkpt>
      <trkpt lat="42.96344052068889141082763671875" lon="-2.36036312766373157501220703125">
        <ele>1116.4000244140625</ele>
        <time>2022-04-17T15:08:51.000Z</time>
      </trkpt>
      <trkpt lat="42.9634360782802104949951171875" lon="-2.36037352122366428375244140625">
        <ele>1116.5999755859375</ele>
        <time>2022-04-17T15:08:52.000Z</time>
      </trkpt>
      <trkpt lat="42.96343448571860790252685546875" lon="-2.36038927920162677764892578125">
        <ele>1116.5999755859375</ele>
        <time>2022-04-17T15:08:53.000Z</time>
      </trkpt>
      <trkpt lat="42.96343850903213024139404296875" lon="-2.36040361225605010986328125">
        <ele>1116.5999755859375</ele>
        <time>2022-04-17T15:08:54.000Z</time>
      </trkpt>
      <trkpt lat="42.96344353817403316497802734375" lon="-2.3604205437004566192626953125">
        <ele>1116.5999755859375</ele>
        <time>2022-04-17T15:08:55.000Z</time>
      </trkpt>
      <trkpt lat="42.96343800611793994903564453125" lon="-2.36044585704803466796875">
        <ele>1116.5999755859375</ele>
        <time>2022-04-17T15:08:56.000Z</time>
      </trkpt>
      <trkpt lat="42.96343951486051082611083984375" lon="-2.360455580055713653564453125">
        <ele>1116.5999755859375</ele>
        <time>2022-04-17T15:08:57.000Z</time>
      </trkpt>
      <trkpt lat="42.9634377546608448028564453125" lon="-2.3604597710072994232177734375">
        <ele>1116.5999755859375</ele>
        <time>2022-04-17T15:08:58.000Z</time>
      </trkpt>
      <trkpt lat="42.9634273611009120941162109375" lon="-2.3604691587388515472412109375">
        <ele>1116.5999755859375</ele>
        <time>2022-04-17T15:08:59.000Z</time>
      </trkpt>
      <trkpt lat="42.96341788955032825469970703125" lon="-2.36047879792749881744384765625">
        <ele>1116.5999755859375</ele>
        <time>2022-04-17T15:09:00.000Z</time>
      </trkpt>
      <trkpt lat="42.96341487206518650054931640625" lon="-2.36049455590546131134033203125">
        <ele>1116.5999755859375</ele>
        <time>2022-04-17T15:09:01.000Z</time>
      </trkpt>
      <trkpt lat="42.9634179733693599700927734375" lon="-2.36051148734986782073974609375">
        <ele>1116.4000244140625</ele>
        <time>2022-04-17T15:09:02.000Z</time>
      </trkpt>
      <trkpt lat="42.963423840701580047607421875" lon="-2.3605214618146419525146484375">
        <ele>1116.4000244140625</ele>
        <time>2022-04-17T15:09:03.000Z</time>
      </trkpt>
      <trkpt lat="42.96342643909156322479248046875" lon="-2.3605308495461940765380859375">
        <ele>1116.4000244140625</ele>
        <time>2022-04-17T15:09:04.000Z</time>
      </trkpt>
      <trkpt lat="42.9634270258247852325439453125" lon="-2.360538057982921600341796875">
        <ele>1116.4000244140625</ele>
        <time>2022-04-17T15:09:05.000Z</time>
      </trkpt>
      <trkpt lat="42.96343096531927585601806640625" lon="-2.36054501496255397796630859375">
        <ele>1116.4000244140625</ele>
        <time>2022-04-17T15:09:06.000Z</time>
      </trkpt>
      <trkpt lat="42.9634347371757030487060546875" lon="-2.360554821789264678955078125">
        <ele>1116.4000244140625</ele>
        <time>2022-04-17T15:09:07.000Z</time>
      </trkpt>
      <trkpt lat="42.9634330607950687408447265625" lon="-2.360566221177577972412109375">
        <ele>1116.199951171875</ele>
        <time>2022-04-17T15:09:08.000Z</time>
      </trkpt>
      <trkpt lat="42.96342945657670497894287109375" lon="-2.360572256147861480712890625">
        <ele>1116.199951171875</ele>
        <time>2022-04-17T15:09:09.000Z</time>
      </trkpt>
      <trkpt lat="42.963432557880878448486328125" lon="-2.36057435162365436553955078125">
        <ele>1116</ele>
        <time>2022-04-17T15:09:10.000Z</time>
      </trkpt>
      <trkpt lat="42.96343901194632053375244140625" lon="-2.36057468689978122711181640625">
        <ele>1116</ele>
        <time>2022-04-17T15:09:11.000Z</time>
      </trkpt>
      <trkpt lat="42.9634417779743671417236328125" lon="-2.3605791293084621429443359375">
        <ele>1116</ele>
        <time>2022-04-17T15:09:12.000Z</time>
      </trkpt>
      <trkpt lat="42.9634421132504940032958984375" lon="-2.3605808056890964508056640625">
        <ele>1116</ele>
        <time>2022-04-17T15:09:13.000Z</time>
      </trkpt>
      <trkpt lat="42.9634484834969043731689453125" lon="-2.36058156006038188934326171875">
        <ele>1116</ele>
        <time>2022-04-17T15:09:14.000Z</time>
      </trkpt>
      <trkpt lat="42.9634563624858856201171875" lon="-2.3605885170400142669677734375">
        <ele>1116</ele>
        <time>2022-04-17T15:09:15.000Z</time>
      </trkpt>
      <trkpt lat="42.96345745213329792022705078125" lon="-2.360588014125823974609375">
        <ele>1116</ele>
        <time>2022-04-17T15:09:16.000Z</time>
      </trkpt>
      <trkpt lat="42.96345694921910762786865234375" lon="-2.36059044487774372100830078125">
        <ele>1116</ele>
        <time>2022-04-17T15:09:17.000Z</time>
      </trkpt>
      <trkpt lat="42.96345678158104419708251953125" lon="-2.36058994196355342864990234375">
        <ele>1116.199951171875</ele>
        <time>2022-04-17T15:09:18.000Z</time>
      </trkpt>
      <trkpt lat="42.96345778740942478179931640625" lon="-2.36058793030679225921630859375">
        <ele>1116.199951171875</ele>
        <time>2022-04-17T15:09:19.000Z</time>
      </trkpt>
      <trkpt lat="42.96346197836101055145263671875" lon="-2.3605854995548725128173828125">
        <ele>1116.4000244140625</ele>
        <time>2022-04-17T15:09:20.000Z</time>
      </trkpt>
      <trkpt lat="42.96346281655132770538330078125" lon="-2.36058642156422138214111328125">
        <ele>1116.4000244140625</ele>
        <time>2022-04-17T15:09:21.000Z</time>
      </trkpt>
      <trkpt lat="42.9634612239897251129150390625" lon="-2.3605821467936038970947265625">
        <ele>1116.4000244140625</ele>
        <time>2022-04-17T15:09:22.000Z</time>
      </trkpt>
      <trkpt lat="42.96345745213329792022705078125" lon="-2.36058063805103302001953125">
        <ele>1116.199951171875</ele>
        <time>2022-04-17T15:09:23.000Z</time>
      </trkpt>
      <trkpt lat="42.96345812268555164337158203125" lon="-2.36058893613517284393310546875">
        <ele>1116.199951171875</ele>
        <time>2022-04-17T15:09:24.000Z</time>
      </trkpt>
      <trkpt lat="42.9634630680084228515625" lon="-2.36060871742665767669677734375">
        <ele>1116</ele>
        <time>2022-04-17T15:09:25.000Z</time>
      </trkpt>
      <trkpt lat="42.9634675942361354827880859375" lon="-2.3606250621378421783447265625">
        <ele>1115.800048828125</ele>
        <time>2022-04-17T15:09:26.000Z</time>
      </trkpt>
      <trkpt lat="42.96346382237970829010009765625" lon="-2.36064090393483638763427734375">
        <ele>1115.5999755859375</ele>
        <time>2022-04-17T15:09:27.000Z</time>
      </trkpt>
      <trkpt lat="42.96346130780875682830810546875" lon="-2.36065515317022800445556640625">
        <ele>1115.5999755859375</ele>
        <time>2022-04-17T15:09:28.000Z</time>
      </trkpt>
      <trkpt lat="42.96346013434231281280517578125" lon="-2.3606686480343341827392578125">
        <ele>1115.5999755859375</ele>
        <time>2022-04-17T15:09:29.000Z</time>
      </trkpt>
      <trkpt lat="42.96346197836101055145263671875" lon="-2.3606793768703937530517578125">
        <ele>1115.5999755859375</ele>
        <time>2022-04-17T15:09:30.000Z</time>
      </trkpt>
      <trkpt lat="42.96346499584615230560302734375" lon="-2.36068985424935817718505859375">
        <ele>1115.5999755859375</ele>
        <time>2022-04-17T15:09:31.000Z</time>
      </trkpt>
      <trkpt lat="42.96346968971192836761474609375" lon="-2.36070142127573490142822265625">
        <ele>1115.5999755859375</ele>
        <time>2022-04-17T15:09:32.000Z</time>
      </trkpt>
      <trkpt lat="42.96347673051059246063232421875" lon="-2.36071147955954074859619140625">
        <ele>1115.5999755859375</ele>
        <time>2022-04-17T15:09:33.000Z</time>
      </trkpt>
      <trkpt lat="42.963480837643146514892578125" lon="-2.36072304658591747283935546875">
        <ele>1115.5999755859375</ele>
        <time>2022-04-17T15:09:34.000Z</time>
      </trkpt>
      <trkpt lat="42.96348544768989086151123046875" lon="-2.36073595471680164337158203125">
        <ele>1115.800048828125</ele>
        <time>2022-04-17T15:09:35.000Z</time>
      </trkpt>
      <trkpt lat="42.96348829753696918487548828125" lon="-2.36074852757155895233154296875">
        <ele>1115.800048828125</ele>
        <time>2022-04-17T15:09:36.000Z</time>
      </trkpt>
      <trkpt lat="42.9634903930127620697021484375" lon="-2.36076302826404571533203125">
        <ele>1115.800048828125</ele>
        <time>2022-04-17T15:09:37.000Z</time>
      </trkpt>
      <trkpt lat="42.96349315904080867767333984375" lon="-2.36077518202364444732666015625">
        <ele>1115.800048828125</ele>
        <time>2022-04-17T15:09:38.000Z</time>
      </trkpt>
      <trkpt lat="42.96349299140274524688720703125" lon="-2.36078582704067230224609375">
        <ele>1115.800048828125</ele>
        <time>2022-04-17T15:09:39.000Z</time>
      </trkpt>
      <trkpt lat="42.96348779462277889251708984375" lon="-2.36080116592347621917724609375">
        <ele>1116</ele>
        <time>2022-04-17T15:09:40.000Z</time>
      </trkpt>
      <trkpt lat="42.96348243020474910736083984375" lon="-2.3608195222914218902587890625">
        <ele>1116</ele>
        <time>2022-04-17T15:09:41.000Z</time>
      </trkpt>
      <trkpt lat="42.96347849071025848388671875" lon="-2.36084005795419216156005859375">
        <ele>1116</ele>
        <time>2022-04-17T15:09:42.000Z</time>
      </trkpt>
      <trkpt lat="42.9634778201580047607421875" lon="-2.36085514537990093231201171875">
        <ele>1115.800048828125</ele>
        <time>2022-04-17T15:09:43.000Z</time>
      </trkpt>
      <trkpt lat="42.963474132120609283447265625" lon="-2.360867969691753387451171875">
        <ele>1115.800048828125</ele>
        <time>2022-04-17T15:09:44.000Z</time>
      </trkpt>
      <trkpt lat="42.96347220428287982940673828125" lon="-2.3608835600316524505615234375">
        <ele>1115.800048828125</ele>
        <time>2022-04-17T15:09:45.000Z</time>
      </trkpt>
      <trkpt lat="42.96346650458872318267822265625" lon="-2.36090107820928096771240234375">
        <ele>1116</ele>
        <time>2022-04-17T15:09:46.000Z</time>
      </trkpt>
      <trkpt lat="42.9634659178555011749267578125" lon="-2.36090878956019878387451171875">
        <ele>1116</ele>
        <time>2022-04-17T15:09:47.000Z</time>
      </trkpt>
      <trkpt lat="42.96346642076969146728515625" lon="-2.36091448925435543060302734375">
        <ele>1116</ele>
        <time>2022-04-17T15:09:48.000Z</time>
      </trkpt>
      <trkpt lat="42.9634672589600086212158203125" lon="-2.36092261970043182373046875">
        <ele>1116</ele>
        <time>2022-04-17T15:09:49.000Z</time>
      </trkpt>
      <trkpt lat="42.963467426598072052001953125" lon="-2.36093427054584026336669921875">
        <ele>1116</ele>
        <time>2022-04-17T15:09:50.000Z</time>
      </trkpt>
      <trkpt lat="42.9634679295122623443603515625" lon="-2.360953800380229949951171875">
        <ele>1116</ele>
        <time>2022-04-17T15:09:51.000Z</time>
      </trkpt>
      <trkpt lat="42.96347052790224552154541015625" lon="-2.360973916947841644287109375">
        <ele>1116</ele>
        <time>2022-04-17T15:09:52.000Z</time>
      </trkpt>
      <trkpt lat="42.96347270719707012176513671875" lon="-2.361002750694751739501953125">
        <ele>1116</ele>
        <time>2022-04-17T15:09:53.000Z</time>
      </trkpt>
      <trkpt lat="42.9634776525199413299560546875" lon="-2.36103418283164501190185546875">
        <ele>1116</ele>
        <time>2022-04-17T15:09:54.000Z</time>
      </trkpt>
      <trkpt lat="42.963478825986385345458984375" lon="-2.36104994080960750579833984375">
        <ele>1116</ele>
        <time>2022-04-17T15:09:55.000Z</time>
      </trkpt>
      <trkpt lat="42.96347907744348049163818359375" lon="-2.36107475124299526214599609375">
        <ele>1116.199951171875</ele>
        <time>2022-04-17T15:09:56.000Z</time>
      </trkpt>
      <trkpt lat="42.96348259784281253814697265625" lon="-2.3610914312303066253662109375">
        <ele>1116.199951171875</ele>
        <time>2022-04-17T15:09:57.000Z</time>
      </trkpt>
      <trkpt lat="42.96348326839506626129150390625" lon="-2.3611048422753810882568359375">
        <ele>1116.199951171875</ele>
        <time>2022-04-17T15:09:58.000Z</time>
      </trkpt>
      <trkpt lat="42.963486872613430023193359375" lon="-2.36111842095851898193359375">
        <ele>1116.199951171875</ele>
        <time>2022-04-17T15:09:59.000Z</time>
      </trkpt>
      <trkpt lat="42.96349416486918926239013671875" lon="-2.36112822778522968292236328125">
        <ele>1116.4000244140625</ele>
        <time>2022-04-17T15:10:00.000Z</time>
      </trkpt>
      <trkpt lat="42.9635004512965679168701171875" lon="-2.36113308928906917572021484375">
        <ele>1116.4000244140625</ele>
        <time>2022-04-17T15:10:01.000Z</time>
      </trkpt>
      <trkpt lat="42.96350204385817050933837890625" lon="-2.36113912425935268402099609375">
        <ele>1116.4000244140625</ele>
        <time>2022-04-17T15:10:02.000Z</time>
      </trkpt>
      <trkpt lat="42.9634992778301239013671875" lon="-2.36115018837153911590576171875">
        <ele>1116.4000244140625</ele>
        <time>2022-04-17T15:10:03.000Z</time>
      </trkpt>
      <trkpt lat="42.96349458396434783935546875" lon="-2.36116594634950160980224609375">
        <ele>1116.4000244140625</ele>
        <time>2022-04-17T15:10:04.000Z</time>
      </trkpt>
      <trkpt lat="42.96349600888788700103759765625" lon="-2.3611806146800518035888671875">
        <ele>1116.4000244140625</ele>
        <time>2022-04-17T15:10:05.000Z</time>
      </trkpt>
      <trkpt lat="42.9634944163262844085693359375" lon="-2.361191846430301666259765625">
        <ele>1116.4000244140625</ele>
        <time>2022-04-17T15:10:06.000Z</time>
      </trkpt>
      <trkpt lat="42.9634903930127620697021484375" lon="-2.361203916370868682861328125">
        <ele>1116.5999755859375</ele>
        <time>2022-04-17T15:10:07.000Z</time>
      </trkpt>
      <trkpt lat="42.96348762698471546173095703125" lon="-2.361216656863689422607421875">
        <ele>1116.5999755859375</ele>
        <time>2022-04-17T15:10:08.000Z</time>
      </trkpt>
      <trkpt lat="42.9634927399456501007080078125" lon="-2.3612277209758758544921875">
        <ele>1116.5999755859375</ele>
        <time>2022-04-17T15:10:09.000Z</time>
      </trkpt>
      <trkpt lat="42.96350003220140933990478515625" lon="-2.36123233102262020111083984375">
        <ele>1116.5999755859375</ele>
        <time>2022-04-17T15:10:10.000Z</time>
      </trkpt>
      <trkpt lat="42.96350690536201000213623046875" lon="-2.361237443983554840087890625">
        <ele>1116.5999755859375</ele>
        <time>2022-04-17T15:10:11.000Z</time>
      </trkpt>
      <trkpt lat="42.96350858174264430999755859375" lon="-2.36124322749674320220947265625">
        <ele>1116.5999755859375</ele>
        <time>2022-04-17T15:10:12.000Z</time>
      </trkpt>
      <trkpt lat="42.96351042576134204864501953125" lon="-2.3612491786479949951171875">
        <ele>1116.5999755859375</ele>
        <time>2022-04-17T15:10:13.000Z</time>
      </trkpt>
      <trkpt lat="42.96351327560842037200927734375" lon="-2.36125512979924678802490234375">
        <ele>1116.5999755859375</ele>
        <time>2022-04-17T15:10:14.000Z</time>
      </trkpt>
      <trkpt lat="42.96351394616067409515380859375" lon="-2.361265607178211212158203125">
        <ele>1116.5999755859375</ele>
        <time>2022-04-17T15:10:15.000Z</time>
      </trkpt>
      <trkpt lat="42.96351361088454723358154296875" lon="-2.3612788505852222442626953125">
        <ele>1116.5999755859375</ele>
        <time>2022-04-17T15:10:16.000Z</time>
      </trkpt>
      <trkpt lat="42.9635148681700229644775390625" lon="-2.36129201017320156097412109375">
        <ele>1116.5999755859375</ele>
        <time>2022-04-17T15:10:17.000Z</time>
      </trkpt>
      <trkpt lat="42.963515035808086395263671875" lon="-2.36130483448505401611328125">
        <ele>1116.5999755859375</ele>
        <time>2022-04-17T15:10:18.000Z</time>
      </trkpt>
      <trkpt lat="42.96351335942745208740234375" lon="-2.36131464131176471710205078125">
        <ele>1116.5999755859375</ele>
        <time>2022-04-17T15:10:19.000Z</time>
      </trkpt>
      <trkpt lat="42.9635155387222766876220703125" lon="-2.36132905818521976470947265625">
        <ele>1116.800048828125</ele>
        <time>2022-04-17T15:10:20.000Z</time>
      </trkpt>
      <trkpt lat="42.96351880766451358795166015625" lon="-2.36134112812578678131103515625">
        <ele>1116.800048828125</ele>
        <time>2022-04-17T15:10:21.000Z</time>
      </trkpt>
      <trkpt lat="42.9635192267596721649169921875" lon="-2.36135034821927547454833984375">
        <ele>1116.800048828125</ele>
        <time>2022-04-17T15:10:22.000Z</time>
      </trkpt>
      <trkpt lat="42.96352199278771877288818359375" lon="-2.36135738901793956756591796875">
        <ele>1116.800048828125</ele>
        <time>2022-04-17T15:10:23.000Z</time>
      </trkpt>
      <trkpt lat="42.96352216042578220367431640625" lon="-2.361364848911762237548828125">
        <ele>1116.800048828125</ele>
        <time>2022-04-17T15:10:24.000Z</time>
      </trkpt>
      <trkpt lat="42.96351947821676731109619140625" lon="-2.36137683503329753875732421875">
        <ele>1117</ele>
        <time>2022-04-17T15:10:25.000Z</time>
      </trkpt>
      <trkpt lat="42.963517047464847564697265625" lon="-2.36138932406902313232421875">
        <ele>1117</ele>
        <time>2022-04-17T15:10:26.000Z</time>
      </trkpt>
      <trkpt lat="42.96351528726518154144287109375" lon="-2.36139946617186069488525390625">
        <ele>1117.199951171875</ele>
        <time>2022-04-17T15:10:27.000Z</time>
      </trkpt>
      <trkpt lat="42.963512353599071502685546875" lon="-2.361411117017269134521484375">
        <ele>1117.4000244140625</ele>
        <time>2022-04-17T15:10:28.000Z</time>
      </trkpt>
      <trkpt lat="42.96350874938070774078369140625" lon="-2.36142209731042385101318359375">
        <ele>1117.5999755859375</ele>
        <time>2022-04-17T15:10:29.000Z</time>
      </trkpt>
      <trkpt lat="42.9635074920952320098876953125" lon="-2.361433245241641998291015625">
        <ele>1117.5999755859375</ele>
        <time>2022-04-17T15:10:30.000Z</time>
      </trkpt>
      <trkpt lat="42.96350807882845401763916015625" lon="-2.36144271679222583770751953125">
        <ele>1117.5999755859375</ele>
        <time>2022-04-17T15:10:31.000Z</time>
      </trkpt>
      <trkpt lat="42.963509671390056610107421875" lon="-2.36145143397152423858642578125">
        <ele>1117.800048828125</ele>
        <time>2022-04-17T15:10:32.000Z</time>
      </trkpt>
      <trkpt lat="42.96351294033229351043701171875" lon="-2.3614622466266155242919921875">
        <ele>1117.800048828125</ele>
        <time>2022-04-17T15:10:33.000Z</time>
      </trkpt>
      <trkpt lat="42.96351428143680095672607421875" lon="-2.36147205345332622528076171875">
        <ele>1117.800048828125</ele>
        <time>2022-04-17T15:10:34.000Z</time>
      </trkpt>
      <trkpt lat="42.9635128565132617950439453125" lon="-2.3614798486232757568359375">
        <ele>1117.800048828125</ele>
        <time>2022-04-17T15:10:35.000Z</time>
      </trkpt>
      <trkpt lat="42.96351159922778606414794921875" lon="-2.3614870570600032806396484375">
        <ele>1117.800048828125</ele>
        <time>2022-04-17T15:10:36.000Z</time>
      </trkpt>
      <trkpt lat="42.96350925229489803314208984375" lon="-2.36149501986801624298095703125">
        <ele>1117.800048828125</ele>
        <time>2022-04-17T15:10:37.000Z</time>
      </trkpt>
      <trkpt lat="42.96350489370524883270263671875" lon="-2.36151211895048618316650390625">
        <ele>1117.800048828125</ele>
        <time>2022-04-17T15:10:38.000Z</time>
      </trkpt>
      <trkpt lat="42.963503636419773101806640625" lon="-2.361527122557163238525390625">
        <ele>1118</ele>
        <time>2022-04-17T15:10:39.000Z</time>
      </trkpt>
      <trkpt lat="42.963502965867519378662109375" lon="-2.3615348339080810546875">
        <ele>1118</ele>
        <time>2022-04-17T15:10:40.000Z</time>
      </trkpt>
      <trkpt lat="42.963500283658504486083984375" lon="-2.361539192497730255126953125">
        <ele>1118.199951171875</ele>
        <time>2022-04-17T15:10:41.000Z</time>
      </trkpt>
      <trkpt lat="42.96349860727787017822265625" lon="-2.36154279671609401702880859375">
        <ele>1118.199951171875</ele>
        <time>2022-04-17T15:10:42.000Z</time>
      </trkpt>
      <trkpt lat="42.96349081210792064666748046875" lon="-2.36154866404831409454345703125">
        <ele>1118.4000244140625</ele>
        <time>2022-04-17T15:10:43.000Z</time>
      </trkpt>
      <trkpt lat="42.9634833522140979766845703125" lon="-2.361553944647312164306640625">
        <ele>1118.4000244140625</ele>
        <time>2022-04-17T15:10:44.000Z</time>
      </trkpt>
      <trkpt lat="42.9634789936244487762451171875" lon="-2.3615635000169277191162109375">
        <ele>1118.4000244140625</ele>
        <time>2022-04-17T15:10:45.000Z</time>
      </trkpt>
      <trkpt lat="42.96347186900675296783447265625" lon="-2.3615765757858753204345703125">
        <ele>1118.4000244140625</ele>
        <time>2022-04-17T15:10:46.000Z</time>
      </trkpt>
      <trkpt lat="42.96346751041710376739501953125" lon="-2.36158286221325397491455078125">
        <ele>1118.4000244140625</ele>
        <time>2022-04-17T15:10:47.000Z</time>
      </trkpt>
      <trkpt lat="42.96346449293196201324462890625" lon="-2.361583448946475982666015625">
        <ele>1118.4000244140625</ele>
        <time>2022-04-17T15:10:48.000Z</time>
      </trkpt>
      <trkpt lat="42.963462062180042266845703125" lon="-2.36159090884029865264892578125">
        <ele>1118.5999755859375</ele>
        <time>2022-04-17T15:10:49.000Z</time>
      </trkpt>
      <trkpt lat="42.963462062180042266845703125" lon="-2.36160029657185077667236328125">
        <ele>1118.5999755859375</ele>
        <time>2022-04-17T15:10:50.000Z</time>
      </trkpt>
      <trkpt lat="42.963464744389057159423828125" lon="-2.36161102540791034698486328125">
        <ele>1118.5999755859375</ele>
        <time>2022-04-17T15:10:51.000Z</time>
      </trkpt>
      <trkpt lat="42.9634618945419788360595703125" lon="-2.36162410117685794830322265625">
        <ele>1118.5999755859375</ele>
        <time>2022-04-17T15:10:52.000Z</time>
      </trkpt>
      <trkpt lat="42.96345728449523448944091796875" lon="-2.36163449473679065704345703125">
        <ele>1118.800048828125</ele>
        <time>2022-04-17T15:10:53.000Z</time>
      </trkpt>
      <trkpt lat="42.96345527283847332000732421875" lon="-2.3616365902125835418701171875">
        <ele>1118.800048828125</ele>
        <time>2022-04-17T15:10:54.000Z</time>
      </trkpt>
      <trkpt lat="42.9634531773626804351806640625" lon="-2.361639440059661865234375">
        <ele>1118.800048828125</ele>
        <time>2022-04-17T15:10:55.000Z</time>
      </trkpt>
      <trkpt lat="42.9634483158588409423828125" lon="-2.3616503365337848663330078125">
        <ele>1119</ele>
        <time>2022-04-17T15:10:56.000Z</time>
      </trkpt>
      <trkpt lat="42.96344655565917491912841796875" lon="-2.3616620711982250213623046875">
        <ele>1119</ele>
        <time>2022-04-17T15:10:57.000Z</time>
      </trkpt>
      <trkpt lat="42.9634509980678558349609375" lon="-2.361671626567840576171875">
        <ele>1119.199951171875</ele>
        <time>2022-04-17T15:10:58.000Z</time>
      </trkpt>
      <trkpt lat="42.963454686105251312255859375" lon="-2.36168009229004383087158203125">
        <ele>1119.4000244140625</ele>
        <time>2022-04-17T15:10:59.000Z</time>
      </trkpt>
      <trkpt lat="42.96345409937202930450439453125" lon="-2.36169232986867427825927734375">
        <ele>1119.4000244140625</ele>
        <time>2022-04-17T15:11:00.000Z</time>
      </trkpt>
      <trkpt lat="42.96345409937202930450439453125" lon="-2.36170582473278045654296875">
        <ele>1119.5999755859375</ele>
        <time>2022-04-17T15:11:01.000Z</time>
      </trkpt>
      <trkpt lat="42.9634528420865535736083984375" lon="-2.36171814613044261932373046875">
        <ele>1119.800048828125</ele>
        <time>2022-04-17T15:11:02.000Z</time>
      </trkpt>
      <trkpt lat="42.96345208771526813507080078125" lon="-2.36172820441424846649169921875">
        <ele>1119.800048828125</ele>
        <time>2022-04-17T15:11:03.000Z</time>
      </trkpt>
      <trkpt lat="42.96344739384949207305908203125" lon="-2.3617371730506420135498046875">
        <ele>1120</ele>
        <time>2022-04-17T15:11:04.000Z</time>
      </trkpt>
      <trkpt lat="42.96344186179339885711669921875" lon="-2.36174739897251129150390625">
        <ele>1120.199951171875</ele>
        <time>2022-04-17T15:11:05.000Z</time>
      </trkpt>
      <trkpt lat="42.963435910642147064208984375" lon="-2.36175720579922199249267578125">
        <ele>1120.199951171875</ele>
        <time>2022-04-17T15:11:06.000Z</time>
      </trkpt>
      <trkpt lat="42.96343297697603702545166015625" lon="-2.3617670126259326934814453125">
        <ele>1120.4000244140625</ele>
        <time>2022-04-17T15:11:07.000Z</time>
      </trkpt>
      <trkpt lat="42.96343155205249786376953125" lon="-2.361776567995548248291015625">
        <ele>1120.4000244140625</ele>
        <time>2022-04-17T15:11:08.000Z</time>
      </trkpt>
      <trkpt lat="42.96342995949089527130126953125" lon="-2.36178888939321041107177734375">
        <ele>1120.4000244140625</ele>
        <time>2022-04-17T15:11:09.000Z</time>
      </trkpt>
      <trkpt lat="42.96342627145349979400634765625" lon="-2.361802048981189727783203125">
        <ele>1120.4000244140625</ele>
        <time>2022-04-17T15:11:10.000Z</time>
      </trkpt>
      <trkpt lat="42.96342442743480205535888671875" lon="-2.36181219108402729034423828125">
        <ele>1120.4000244140625</ele>
        <time>2022-04-17T15:11:11.000Z</time>
      </trkpt>
      <trkpt lat="42.96342425979673862457275390625" lon="-2.36182040534913539886474609375">
        <ele>1120.5999755859375</ele>
        <time>2022-04-17T15:11:12.000Z</time>
      </trkpt>
      <trkpt lat="42.9634223319590091705322265625" lon="-2.361828200519084930419921875">
        <ele>1120.5999755859375</ele>
        <time>2022-04-17T15:11:13.000Z</time>
      </trkpt>
      <trkpt lat="42.96341923065483570098876953125" lon="-2.36183783970773220062255859375">
        <ele>1120.800048828125</ele>
        <time>2022-04-17T15:11:14.000Z</time>
      </trkpt>
      <trkpt lat="42.96341805718839168548583984375" lon="-2.36185024492442607879638671875">
        <ele>1120.800048828125</ele>
        <time>2022-04-17T15:11:15.000Z</time>
      </trkpt>
      <trkpt lat="42.96342618763446807861328125" lon="-2.361875139176845550537109375">
        <ele>1120.800048828125</ele>
        <time>2022-04-17T15:11:16.000Z</time>
      </trkpt>
      <trkpt lat="42.96343582682311534881591796875" lon="-2.36189701594412326812744140625">
        <ele>1120.800048828125</ele>
        <time>2022-04-17T15:11:17.000Z</time>
      </trkpt>
      <trkpt lat="42.96343825757503509521484375" lon="-2.36190808005630970001220703125">
        <ele>1120.800048828125</ele>
        <time>2022-04-17T15:11:18.000Z</time>
      </trkpt>
      <trkpt lat="42.9634397663176059722900390625" lon="-2.3619192279875278472900390625">
        <ele>1121</ele>
        <time>2022-04-17T15:11:19.000Z</time>
      </trkpt>
      <trkpt lat="42.96343985013663768768310546875" lon="-2.36193104647099971771240234375">
        <ele>1121</ele>
        <time>2022-04-17T15:11:20.000Z</time>
      </trkpt>
      <trkpt lat="42.9634370841085910797119140625" lon="-2.361944206058979034423828125">
        <ele>1121</ele>
        <time>2022-04-17T15:11:21.000Z</time>
      </trkpt>
      <trkpt lat="42.963431216776371002197265625" lon="-2.361961640417575836181640625">
        <ele>1121</ele>
        <time>2022-04-17T15:11:22.000Z</time>
      </trkpt>
      <trkpt lat="42.963431887328624725341796875" lon="-2.36197278834879398345947265625">
        <ele>1121</ele>
        <time>2022-04-17T15:11:23.000Z</time>
      </trkpt>
      <trkpt lat="42.96343448571860790252685546875" lon="-2.36198418773710727691650390625">
        <ele>1121</ele>
        <time>2022-04-17T15:11:24.000Z</time>
      </trkpt>
      <trkpt lat="42.96343850903213024139404296875" lon="-2.3619913123548030853271484375">
        <ele>1121.199951171875</ele>
        <time>2022-04-17T15:11:25.000Z</time>
      </trkpt>
      <trkpt lat="42.96344236470758914947509765625" lon="-2.3620037175714969635009765625">
        <ele>1121.199951171875</ele>
        <time>2022-04-17T15:11:26.000Z</time>
      </trkpt>
      <trkpt lat="42.96343666501343250274658203125" lon="-2.36202039755880832672119140625">
        <ele>1121.199951171875</ele>
        <time>2022-04-17T15:11:27.000Z</time>
      </trkpt>
      <trkpt lat="42.96343532390892505645751953125" lon="-2.3620332218706607818603515625">
        <ele>1121.199951171875</ele>
        <time>2022-04-17T15:11:28.000Z</time>
      </trkpt>
      <trkpt lat="42.96343616209924221038818359375" lon="-2.3620431125164031982421875">
        <ele>1121.199951171875</ele>
        <time>2022-04-17T15:11:29.000Z</time>
      </trkpt>
      <trkpt lat="42.963437922298908233642578125" lon="-2.3620546795427799224853515625">
        <ele>1121.199951171875</ele>
        <time>2022-04-17T15:11:30.000Z</time>
      </trkpt>
      <trkpt lat="42.96343700028955936431884765625" lon="-2.3620667494833469390869140625">
        <ele>1121.199951171875</ele>
        <time>2022-04-17T15:11:31.000Z</time>
      </trkpt>
      <trkpt lat="42.96343733556568622589111328125" lon="-2.362077645957469940185546875">
        <ele>1121.199951171875</ele>
        <time>2022-04-17T15:11:32.000Z</time>
      </trkpt>
      <trkpt lat="42.96343691647052764892578125" lon="-2.36208963207900524139404296875">
        <ele>1121.199951171875</ele>
        <time>2022-04-17T15:11:33.000Z</time>
      </trkpt>
      <trkpt lat="42.96343934722244739532470703125" lon="-2.3621009476482868194580078125">
        <ele>1121.199951171875</ele>
        <time>2022-04-17T15:11:34.000Z</time>
      </trkpt>
      <trkpt lat="42.9634424485266208648681640625" lon="-2.36210857518017292022705078125">
        <ele>1121.4000244140625</ele>
        <time>2022-04-17T15:11:35.000Z</time>
      </trkpt>
      <trkpt lat="42.96344538219273090362548828125" lon="-2.36211494542658329010009765625">
        <ele>1121.4000244140625</ele>
        <time>2022-04-17T15:11:36.000Z</time>
      </trkpt>
      <trkpt lat="42.9634478129446506500244140625" lon="-2.36212282441556453704833984375">
        <ele>1121.5999755859375</ele>
        <time>2022-04-17T15:11:37.000Z</time>
      </trkpt>
      <trkpt lat="42.96344974078238010406494140625" lon="-2.3621314577758312225341796875">
        <ele>1121.5999755859375</ele>
        <time>2022-04-17T15:11:38.000Z</time>
      </trkpt>
      <trkpt lat="42.9634515009820461273193359375" lon="-2.3621395044028759002685546875">
        <ele>1121.5999755859375</ele>
        <time>2022-04-17T15:11:39.000Z</time>
      </trkpt>
      <trkpt lat="42.9634565301239490509033203125" lon="-2.36214780248701572418212890625">
        <ele>1121.5999755859375</ele>
        <time>2022-04-17T15:11:40.000Z</time>
      </trkpt>
      <trkpt lat="42.963456697762012481689453125" lon="-2.36215819604694843292236328125">
        <ele>1121.5999755859375</ele>
        <time>2022-04-17T15:11:41.000Z</time>
      </trkpt>
      <trkpt lat="42.963458709418773651123046875" lon="-2.3621664941310882568359375">
        <ele>1121.5999755859375</ele>
        <time>2022-04-17T15:11:42.000Z</time>
      </trkpt>
      <trkpt lat="42.96346164308488368988037109375" lon="-2.3621747083961963653564453125">
        <ele>1121.800048828125</ele>
        <time>2022-04-17T15:11:43.000Z</time>
      </trkpt>
      <trkpt lat="42.9634595476090908050537109375" lon="-2.36219440586864948272705078125">
        <ele>1121.800048828125</ele>
        <time>2022-04-17T15:11:44.000Z</time>
      </trkpt>
      <trkpt lat="42.963466756045818328857421875" lon="-2.36220228485763072967529296875">
        <ele>1122</ele>
        <time>2022-04-17T15:11:45.000Z</time>
      </trkpt>
      <trkpt lat="42.96346776187419891357421875" lon="-2.36221301369369029998779296875">
        <ele>1122</ele>
        <time>2022-04-17T15:11:46.000Z</time>
      </trkpt>
      <trkpt lat="42.96347002498805522918701171875" lon="-2.36221418716013431549072265625">
        <ele>1122</ele>
        <time>2022-04-17T15:11:47.000Z</time>
      </trkpt>
      <trkpt lat="42.963470779359340667724609375" lon="-2.36222223378717899322509765625">
        <ele>1122</ele>
        <time>2022-04-17T15:11:48.000Z</time>
      </trkpt>
      <trkpt lat="42.96346868388354778289794921875" lon="-2.36223480664193630218505859375">
        <ele>1122</ele>
        <time>2022-04-17T15:11:49.000Z</time>
      </trkpt>
      <trkpt lat="42.96346533112227916717529296875" lon="-2.36224905587732791900634765625">
        <ele>1122.199951171875</ele>
        <time>2022-04-17T15:11:50.000Z</time>
      </trkpt>
      <trkpt lat="42.96346432529389858245849609375" lon="-2.36226414330303668975830078125">
        <ele>1122.199951171875</ele>
        <time>2022-04-17T15:11:51.000Z</time>
      </trkpt>
      <trkpt lat="42.9634722881019115447998046875" lon="-2.36227302812039852142333984375">
        <ele>1122.199951171875</ele>
        <time>2022-04-17T15:11:52.000Z</time>
      </trkpt>
      <trkpt lat="42.96347890980541706085205078125" lon="-2.36228141002357006072998046875">
        <ele>1122.199951171875</ele>
        <time>2022-04-17T15:11:53.000Z</time>
      </trkpt>
      <trkpt lat="42.96348326839506626129150390625" lon="-2.362290881574153900146484375">
        <ele>1122.199951171875</ele>
        <time>2022-04-17T15:11:54.000Z</time>
      </trkpt>
      <trkpt lat="42.96348611824214458465576171875" lon="-2.36230689100921154022216796875">
        <ele>1122.199951171875</ele>
        <time>2022-04-17T15:11:55.000Z</time>
      </trkpt>
      <trkpt lat="42.96348544768989086151123046875" lon="-2.36232809722423553466796875">
        <ele>1122.199951171875</ele>
        <time>2022-04-17T15:11:56.000Z</time>
      </trkpt>
      <trkpt lat="42.963488213717937469482421875" lon="-2.36234611831605434417724609375">
        <ele>1122.199951171875</ele>
        <time>2022-04-17T15:11:57.000Z</time>
      </trkpt>
      <trkpt lat="42.96349483542144298553466796875" lon="-2.3623611219227313995361328125">
        <ele>1122.199951171875</ele>
        <time>2022-04-17T15:11:58.000Z</time>
      </trkpt>
      <trkpt lat="42.9635027982294559478759765625" lon="-2.36237042583525180816650390625">
        <ele>1122.199951171875</ele>
        <time>2022-04-17T15:11:59.000Z</time>
      </trkpt>
      <trkpt lat="42.96350807882845401763916015625" lon="-2.3623798973858356475830078125">
        <ele>1122.4000244140625</ele>
        <time>2022-04-17T15:12:00.000Z</time>
      </trkpt>
      <trkpt lat="42.9635095037519931793212890625" lon="-2.362393476068973541259765625">
        <ele>1122.4000244140625</ele>
        <time>2022-04-17T15:12:01.000Z</time>
      </trkpt>
      <trkpt lat="42.96351134777069091796875" lon="-2.3624090664088726043701171875">
        <ele>1122.5999755859375</ele>
        <time>2022-04-17T15:12:02.000Z</time>
      </trkpt>
      <trkpt lat="42.963514365255832672119140625" lon="-2.36242390237748622894287109375">
        <ele>1122.5999755859375</ele>
        <time>2022-04-17T15:12:03.000Z</time>
      </trkpt>
      <trkpt lat="42.963516712188720703125" lon="-2.36243848688900470733642578125">
        <ele>1122.5999755859375</ele>
        <time>2022-04-17T15:12:04.000Z</time>
      </trkpt>
      <trkpt lat="42.96351847238838672637939453125" lon="-2.36245038919150829315185546875">
        <ele>1122.5999755859375</ele>
        <time>2022-04-17T15:12:05.000Z</time>
      </trkpt>
      <trkpt lat="42.9635222442448139190673828125" lon="-2.36246086657047271728515625">
        <ele>1122.5999755859375</ele>
        <time>2022-04-17T15:12:06.000Z</time>
      </trkpt>
      <trkpt lat="42.9635266028344631195068359375" lon="-2.362473942339420318603515625">
        <ele>1122.800048828125</ele>
        <time>2022-04-17T15:12:07.000Z</time>
      </trkpt>
      <trkpt lat="42.96353003941476345062255859375" lon="-2.362491376698017120361328125">
        <ele>1122.800048828125</ele>
        <time>2022-04-17T15:12:08.000Z</time>
      </trkpt>
      <trkpt lat="42.96353825367987155914306640625" lon="-2.36250353045761585235595703125">
        <ele>1123</ele>
        <time>2022-04-17T15:12:09.000Z</time>
      </trkpt>
      <trkpt lat="42.96354562975466251373291015625" lon="-2.36251660622656345367431640625">
        <ele>1123.199951171875</ele>
        <time>2022-04-17T15:12:10.000Z</time>
      </trkpt>
      <trkpt lat="42.96354713849723339080810546875" lon="-2.3625285923480987548828125">
        <ele>1123.199951171875</ele>
        <time>2022-04-17T15:12:11.000Z</time>
      </trkpt>
      <trkpt lat="42.963547892868518829345703125" lon="-2.36254007555544376373291015625">
        <ele>1123.4000244140625</ele>
        <time>2022-04-17T15:12:12.000Z</time>
      </trkpt>
      <trkpt lat="42.963549233973026275634765625" lon="-2.3625488765537738800048828125">
        <ele>1123.4000244140625</ele>
        <time>2022-04-17T15:12:13.000Z</time>
      </trkpt>
      <trkpt lat="42.963553927838802337646484375" lon="-2.36255365423858165740966796875">
        <ele>1123.4000244140625</ele>
        <time>2022-04-17T15:12:14.000Z</time>
      </trkpt>
      <trkpt lat="42.96355837024748325347900390625" lon="-2.36256354488432407379150390625">
        <ele>1123.4000244140625</ele>
        <time>2022-04-17T15:12:15.000Z</time>
      </trkpt>
      <trkpt lat="42.96356205828487873077392578125" lon="-2.36257561482489109039306640625">
        <ele>1123.4000244140625</ele>
        <time>2022-04-17T15:12:16.000Z</time>
      </trkpt>
      <trkpt lat="42.96356608159840106964111328125" lon="-2.36258885823190212249755859375">
        <ele>1123.4000244140625</ele>
        <time>2022-04-17T15:12:17.000Z</time>
      </trkpt>
      <trkpt lat="42.9635688476264476776123046875" lon="-2.362600676715373992919921875">
        <ele>1123.5999755859375</ele>
        <time>2022-04-17T15:12:18.000Z</time>
      </trkpt>
      <trkpt lat="42.96357261948287487030029296875" lon="-2.36261283047497272491455078125">
        <ele>1123.5999755859375</ele>
        <time>2022-04-17T15:12:19.000Z</time>
      </trkpt>
      <trkpt lat="42.96357630752027034759521484375" lon="-2.36262339167296886444091796875">
        <ele>1123.5999755859375</ele>
        <time>2022-04-17T15:12:20.000Z</time>
      </trkpt>
      <trkpt lat="42.96357773244380950927734375" lon="-2.362637557089328765869140625">
        <ele>1123.5999755859375</ele>
        <time>2022-04-17T15:12:21.000Z</time>
      </trkpt>
      <trkpt lat="42.96357982791960239410400390625" lon="-2.36265138722956180572509765625">
        <ele>1123.800048828125</ele>
        <time>2022-04-17T15:12:22.000Z</time>
      </trkpt>
      <trkpt lat="42.96358443796634674072265625" lon="-2.36266379244625568389892578125">
        <ele>1123.800048828125</ele>
        <time>2022-04-17T15:12:23.000Z</time>
      </trkpt>
      <trkpt lat="42.9635909758508205413818359375" lon="-2.36267586238682270050048828125">
        <ele>1124</ele>
        <time>2022-04-17T15:12:24.000Z</time>
      </trkpt>
      <trkpt lat="42.9635976813733577728271484375" lon="-2.3626866750419139862060546875">
        <ele>1124</ele>
        <time>2022-04-17T15:12:25.000Z</time>
      </trkpt>
      <trkpt lat="42.96360631473362445831298828125" lon="-2.362696565687656402587890625">
        <ele>1124</ele>
        <time>2022-04-17T15:12:26.000Z</time>
      </trkpt>
      <trkpt lat="42.96361335553228855133056640625" lon="-2.362709976732730865478515625">
        <ele>1123.800048828125</ele>
        <time>2022-04-17T15:12:27.000Z</time>
      </trkpt>
      <trkpt lat="42.96361771412193775177001953125" lon="-2.36272011883556842803955078125">
        <ele>1123.800048828125</ele>
        <time>2022-04-17T15:12:28.000Z</time>
      </trkpt>
      <trkpt lat="42.9636238329112529754638671875" lon="-2.36273109912872314453125">
        <ele>1123.800048828125</ele>
        <time>2022-04-17T15:12:29.000Z</time>
      </trkpt>
      <trkpt lat="42.963628359138965606689453125" lon="-2.36274652183055877685546875">
        <ele>1123.5999755859375</ele>
        <time>2022-04-17T15:12:30.000Z</time>
      </trkpt>
      <trkpt lat="42.96363213099539279937744140625" lon="-2.36276303417980670928955078125">
        <ele>1123.5999755859375</ele>
        <time>2022-04-17T15:12:31.000Z</time>
      </trkpt>
      <trkpt lat="42.96363514848053455352783203125" lon="-2.3627793788909912109375">
        <ele>1123.800048828125</ele>
        <time>2022-04-17T15:12:32.000Z</time>
      </trkpt>
      <trkpt lat="42.9636387526988983154296875" lon="-2.362791113555431365966796875">
        <ele>1123.800048828125</ele>
        <time>2022-04-17T15:12:33.000Z</time>
      </trkpt>
      <trkpt lat="42.9636439494788646697998046875" lon="-2.3628043569624423980712890625">
        <ele>1123.800048828125</ele>
        <time>2022-04-17T15:12:34.000Z</time>
      </trkpt>
      <trkpt lat="42.9636496491730213165283203125" lon="-2.36281567253172397613525390625">
        <ele>1123.800048828125</ele>
        <time>2022-04-17T15:12:35.000Z</time>
      </trkpt>
      <trkpt lat="42.96365593560039997100830078125" lon="-2.3628263175487518310546875">
        <ele>1123.800048828125</ele>
        <time>2022-04-17T15:12:36.000Z</time>
      </trkpt>
      <trkpt lat="42.9636610485613346099853515625" lon="-2.36283847130835056304931640625">
        <ele>1123.800048828125</ele>
        <time>2022-04-17T15:12:37.000Z</time>
      </trkpt>
      <trkpt lat="42.96366431750357151031494140625" lon="-2.36285188235342502593994140625">
        <ele>1123.800048828125</ele>
        <time>2022-04-17T15:12:38.000Z</time>
      </trkpt>
      <trkpt lat="42.96366800554096698760986328125" lon="-2.36286512576043605804443359375">
        <ele>1123.800048828125</ele>
        <time>2022-04-17T15:12:39.000Z</time>
      </trkpt>
      <trkpt lat="42.9636711068451404571533203125" lon="-2.36287786625325679779052734375">
        <ele>1123.800048828125</ele>
        <time>2022-04-17T15:12:40.000Z</time>
      </trkpt>
      <trkpt lat="42.96367563307285308837890625" lon="-2.3628881759941577911376953125">
        <ele>1123.800048828125</ele>
        <time>2022-04-17T15:12:41.000Z</time>
      </trkpt>
      <trkpt lat="42.9636774770915508270263671875" lon="-2.36290234141051769256591796875">
        <ele>1123.800048828125</ele>
        <time>2022-04-17T15:12:42.000Z</time>
      </trkpt>
      <trkpt lat="42.96367965638637542724609375" lon="-2.36291742883622646331787109375">
        <ele>1123.800048828125</ele>
        <time>2022-04-17T15:12:43.000Z</time>
      </trkpt>
      <trkpt lat="42.963694743812084197998046875" lon="-2.362932600080966949462890625">
        <ele>1123.800048828125</ele>
        <time>2022-04-17T15:12:44.000Z</time>
      </trkpt>
      <trkpt lat="42.9637019522488117218017578125" lon="-2.36294676549732685089111328125">
        <ele>1124</ele>
        <time>2022-04-17T15:12:45.000Z</time>
      </trkpt>
      <trkpt lat="42.963705472648143768310546875" lon="-2.3629602603614330291748046875">
        <ele>1124</ele>
        <time>2022-04-17T15:12:46.000Z</time>
      </trkpt>
      <trkpt lat="42.963710837066173553466796875" lon="-2.3629736714065074920654296875">
        <ele>1124.199951171875</ele>
        <time>2022-04-17T15:12:47.000Z</time>
      </trkpt>
      <trkpt lat="42.96371293254196643829345703125" lon="-2.36298599280416965484619140625">
        <ele>1124.199951171875</ele>
        <time>2022-04-17T15:12:48.000Z</time>
      </trkpt>
      <trkpt lat="42.96371494419872760772705078125" lon="-2.36299940384924411773681640625">
        <ele>1124.199951171875</ele>
        <time>2022-04-17T15:12:49.000Z</time>
      </trkpt>
      <trkpt lat="42.9637167043983936309814453125" lon="-2.363013066351413726806640625">
        <ele>1124.199951171875</ele>
        <time>2022-04-17T15:12:50.000Z</time>
      </trkpt>
      <trkpt lat="42.9637192189693450927734375" lon="-2.36302857287228107452392578125">
        <ele>1124.199951171875</ele>
        <time>2022-04-17T15:12:51.000Z</time>
      </trkpt>
      <trkpt lat="42.963723577558994293212890625" lon="-2.36304047517478466033935546875">
        <ele>1124.199951171875</ele>
        <time>2022-04-17T15:12:52.000Z</time>
      </trkpt>
      <trkpt lat="42.96372793614864349365234375" lon="-2.36305003054440021514892578125">
        <ele>1124.199951171875</ele>
        <time>2022-04-17T15:12:53.000Z</time>
      </trkpt>
      <trkpt lat="42.96372952871024608612060546875" lon="-2.36306226812303066253662109375">
        <ele>1124</ele>
        <time>2022-04-17T15:12:54.000Z</time>
      </trkpt>
      <trkpt lat="42.96373204328119754791259765625" lon="-2.36307375133037567138671875">
        <ele>1124</ele>
        <time>2022-04-17T15:12:55.000Z</time>
      </trkpt>
      <trkpt lat="42.96373061835765838623046875" lon="-2.363092862069606781005859375">
        <ele>1124</ele>
        <time>2022-04-17T15:12:56.000Z</time>
      </trkpt>
      <trkpt lat="42.96373665332794189453125" lon="-2.3631025850772857666015625">
        <ele>1124</ele>
        <time>2022-04-17T15:12:57.000Z</time>
      </trkpt>
      <trkpt lat="42.963741011917591094970703125" lon="-2.3631185106933116912841796875">
        <ele>1124</ele>
        <time>2022-04-17T15:12:58.000Z</time>
      </trkpt>
      <trkpt lat="42.9637487232685089111328125" lon="-2.36313032917678356170654296875">
        <ele>1124</ele>
        <time>2022-04-17T15:12:59.000Z</time>
      </trkpt>
      <trkpt lat="42.9637498967349529266357421875" lon="-2.36315145157277584075927734375">
        <ele>1124</ele>
        <time>2022-04-17T15:13:00.000Z</time>
      </trkpt>
      <trkpt lat="42.96375081874430179595947265625" lon="-2.36316653899848461151123046875">
        <ele>1124</ele>
        <time>2022-04-17T15:13:01.000Z</time>
      </trkpt>
      <trkpt lat="42.9637552611529827117919921875" lon="-2.363179028034210205078125">
        <ele>1124</ele>
        <time>2022-04-17T15:13:02.000Z</time>
      </trkpt>
      <trkpt lat="42.9637592844665050506591796875" lon="-2.363191433250904083251953125">
        <ele>1124</ele>
        <time>2022-04-17T15:13:03.000Z</time>
      </trkpt>
      <trkpt lat="42.963762469589710235595703125" lon="-2.36320425756275653839111328125">
        <ele>1124</ele>
        <time>2022-04-17T15:13:04.000Z</time>
      </trkpt>
      <trkpt lat="42.9637659899890422821044921875" lon="-2.36321331001818180084228515625">
        <ele>1123.800048828125</ele>
        <time>2022-04-17T15:13:05.000Z</time>
      </trkpt>
      <trkpt lat="42.963771522045135498046875" lon="-2.36322387121617794036865234375">
        <ele>1123.800048828125</ele>
        <time>2022-04-17T15:13:06.000Z</time>
      </trkpt>
      <trkpt lat="42.96377613209187984466552734375" lon="-2.36323862336575984954833984375">
        <ele>1123.800048828125</ele>
        <time>2022-04-17T15:13:07.000Z</time>
      </trkpt>
      <trkpt lat="42.96378032304346561431884765625" lon="-2.363251782953739166259765625">
        <ele>1123.800048828125</ele>
        <time>2022-04-17T15:13:08.000Z</time>
      </trkpt>
      <trkpt lat="42.96378384344279766082763671875" lon="-2.3632650263607501983642578125">
        <ele>1123.800048828125</ele>
        <time>2022-04-17T15:13:09.000Z</time>
      </trkpt>
      <trkpt lat="42.9637877829372882843017578125" lon="-2.36327868886291980743408203125">
        <ele>1123.5999755859375</ele>
        <time>2022-04-17T15:13:10.000Z</time>
      </trkpt>
      <trkpt lat="42.96379021368920803070068359375" lon="-2.3632891662418842315673828125">
        <ele>1123.5999755859375</ele>
        <time>2022-04-17T15:13:11.000Z</time>
      </trkpt>
      <trkpt lat="42.96379339881241321563720703125" lon="-2.36330266110599040985107421875">
        <ele>1123.5999755859375</ele>
        <time>2022-04-17T15:13:12.000Z</time>
      </trkpt>
      <trkpt lat="42.963794656097888946533203125" lon="-2.36331858672201633453369140625">
        <ele>1123.4000244140625</ele>
        <time>2022-04-17T15:13:13.000Z</time>
      </trkpt>
      <trkpt lat="42.96379440464079380035400390625" lon="-2.36332680098712444305419921875">
        <ele>1123.4000244140625</ele>
        <time>2022-04-17T15:13:14.000Z</time>
      </trkpt>
      <trkpt lat="42.963791973888874053955078125" lon="-2.36333786509931087493896484375">
        <ele>1123.4000244140625</ele>
        <time>2022-04-17T15:13:15.000Z</time>
      </trkpt>
      <trkpt lat="42.96379138715565204620361328125" lon="-2.363347671926021575927734375">
        <ele>1123.199951171875</ele>
        <time>2022-04-17T15:13:16.000Z</time>
      </trkpt>
      <trkpt lat="42.96379306353628635406494140625" lon="-2.3633578978478908538818359375">
        <ele>1123.199951171875</ele>
        <time>2022-04-17T15:13:17.000Z</time>
      </trkpt>
      <trkpt lat="42.96379406936466693878173828125" lon="-2.3633716441690921783447265625">
        <ele>1123</ele>
        <time>2022-04-17T15:13:18.000Z</time>
      </trkpt>
      <trkpt lat="42.96379608102142810821533203125" lon="-2.36338078044354915618896484375">
        <ele>1122.800048828125</ele>
        <time>2022-04-17T15:13:19.000Z</time>
      </trkpt>
      <trkpt lat="42.96379440464079380035400390625" lon="-2.363394610583782196044921875">
        <ele>1122.5999755859375</ele>
        <time>2022-04-17T15:13:20.000Z</time>
      </trkpt>
      <trkpt lat="42.9637934826314449310302734375" lon="-2.36340223811566829681396484375">
        <ele>1122.5999755859375</ele>
        <time>2022-04-17T15:13:21.000Z</time>
      </trkpt>
      <trkpt lat="42.96379230916500091552734375" lon="-2.363410703837871551513671875">
        <ele>1122.4000244140625</ele>
        <time>2022-04-17T15:13:22.000Z</time>
      </trkpt>
      <trkpt lat="42.96378937549889087677001953125" lon="-2.363420426845550537109375">
        <ele>1122.4000244140625</ele>
        <time>2022-04-17T15:13:23.000Z</time>
      </trkpt>
      <trkpt lat="42.9637891240417957305908203125" lon="-2.36342939548194408416748046875">
        <ele>1122.4000244140625</ele>
        <time>2022-04-17T15:13:24.000Z</time>
      </trkpt>
      <trkpt lat="42.9637889564037322998046875" lon="-2.36343861557543277740478515625">
        <ele>1122</ele>
        <time>2022-04-17T15:13:25.000Z</time>
      </trkpt>
      <trkpt lat="42.96379004605114459991455078125" lon="-2.36344833858311176300048828125">
        <ele>1121.800048828125</ele>
        <time>2022-04-17T15:13:26.000Z</time>
      </trkpt>
      <trkpt lat="42.96378971077501773834228515625" lon="-2.36345789395272731781005859375">
        <ele>1121.5999755859375</ele>
        <time>2022-04-17T15:13:27.000Z</time>
      </trkpt>
      <trkpt lat="42.96378971077501773834228515625" lon="-2.3634685389697551727294921875">
        <ele>1121.4000244140625</ele>
        <time>2022-04-17T15:13:28.000Z</time>
      </trkpt>
      <trkpt lat="42.963790632784366607666015625" lon="-2.36348144710063934326171875">
        <ele>1121.199951171875</ele>
        <time>2022-04-17T15:13:29.000Z</time>
      </trkpt>
      <trkpt lat="42.96379096806049346923828125" lon="-2.36349376849830150604248046875">
        <ele>1121</ele>
        <time>2022-04-17T15:13:30.000Z</time>
      </trkpt>
      <trkpt lat="42.96379239298403263092041015625" lon="-2.36350500024855136871337890625">
        <ele>1120.800048828125</ele>
        <time>2022-04-17T15:13:31.000Z</time>
      </trkpt>
      <trkpt lat="42.9637961648404598236083984375" lon="-2.363517321646213531494140625">
        <ele>1120.800048828125</ele>
        <time>2022-04-17T15:13:32.000Z</time>
      </trkpt>
      <trkpt lat="42.96380111016333103179931640625" lon="-2.363528721034526824951171875">
        <ele>1120.5999755859375</ele>
        <time>2022-04-17T15:13:33.000Z</time>
      </trkpt>
      <trkpt lat="42.96380463056266307830810546875" lon="-2.363541461527347564697265625">
        <ele>1120.4000244140625</ele>
        <time>2022-04-17T15:13:34.000Z</time>
      </trkpt>
      <trkpt lat="42.9638065584003925323486328125" lon="-2.3635533638298511505126953125">
        <ele>1120.199951171875</ele>
        <time>2022-04-17T15:13:35.000Z</time>
      </trkpt>
      <trkpt lat="42.96380932442843914031982421875" lon="-2.3635644279420375823974609375">
        <ele>1120.199951171875</ele>
        <time>2022-04-17T15:13:36.000Z</time>
      </trkpt>
      <trkpt lat="42.9638102464377880096435546875" lon="-2.36358077265322208404541015625">
        <ele>1120</ele>
        <time>2022-04-17T15:13:37.000Z</time>
      </trkpt>
      <trkpt lat="42.96380764804780483245849609375" lon="-2.3635961115360260009765625">
        <ele>1120</ele>
        <time>2022-04-17T15:13:38.000Z</time>
      </trkpt>
      <trkpt lat="42.96381167136132717132568359375" lon="-2.36360541544854640960693359375">
        <ele>1119.800048828125</ele>
        <time>2022-04-17T15:13:39.000Z</time>
      </trkpt>
      <trkpt lat="42.96381519176065921783447265625" lon="-2.3636093549430370330810546875">
        <ele>1119.5999755859375</ele>
        <time>2022-04-17T15:13:40.000Z</time>
      </trkpt>
      <trkpt lat="42.9638226516544818878173828125" lon="-2.363611869513988494873046875">
        <ele>1119.4000244140625</ele>
        <time>2022-04-17T15:13:41.000Z</time>
      </trkpt>
      <trkpt lat="42.963825166225433349609375" lon="-2.36362301744520664215087890625">
        <ele>1119.4000244140625</ele>
        <time>2022-04-17T15:13:42.000Z</time>
      </trkpt>
      <trkpt lat="42.96382944099605083465576171875" lon="-2.36363223753869533538818359375">
        <ele>1119.4000244140625</ele>
        <time>2022-04-17T15:13:43.000Z</time>
      </trkpt>
      <trkpt lat="42.96383162029087543487548828125" lon="-2.36364531330764293670654296875">
        <ele>1119.199951171875</ele>
        <time>2022-04-17T15:13:44.000Z</time>
      </trkpt>
      <trkpt lat="42.96383178792893886566162109375" lon="-2.36366341821849346160888671875">
        <ele>1118.800048828125</ele>
        <time>2022-04-17T15:13:45.000Z</time>
      </trkpt>
      <trkpt lat="42.96383346430957317352294921875" lon="-2.363673560321331024169921875">
        <ele>1118.5999755859375</ele>
        <time>2022-04-17T15:13:46.000Z</time>
      </trkpt>
      <trkpt lat="42.963834889233112335205078125" lon="-2.36367951147258281707763671875">
        <ele>1118.4000244140625</ele>
        <time>2022-04-17T15:13:47.000Z</time>
      </trkpt>
      <trkpt lat="42.96383799053728580474853515625" lon="-2.363684289157390594482421875">
        <ele>1118</ele>
        <time>2022-04-17T15:13:48.000Z</time>
      </trkpt>
      <trkpt lat="42.96383815817534923553466796875" lon="-2.36369778402149677276611328125">
        <ele>1118</ele>
        <time>2022-04-17T15:13:49.000Z</time>
      </trkpt>
      <trkpt lat="42.96383832581341266632080078125" lon="-2.36370935104787349700927734375">
        <ele>1117.800048828125</ele>
        <time>2022-04-17T15:13:50.000Z</time>
      </trkpt>
      <trkpt lat="42.9638384096324443817138671875" lon="-2.363720498979091644287109375">
        <ele>1117.5999755859375</ele>
        <time>2022-04-17T15:13:51.000Z</time>
      </trkpt>
      <trkpt lat="42.9638384096324443817138671875" lon="-2.36372896470129489898681640625">
        <ele>1117</ele>
        <time>2022-04-17T15:13:52.000Z</time>
      </trkpt>
      <trkpt lat="42.9638372361660003662109375" lon="-2.36373650841414928436279296875">
        <ele>1116.800048828125</ele>
        <time>2022-04-17T15:13:53.000Z</time>
      </trkpt>
      <trkpt lat="42.9638357274234294891357421875" lon="-2.363747991621494293212890625">
        <ele>1116.5999755859375</ele>
        <time>2022-04-17T15:13:54.000Z</time>
      </trkpt>
      <trkpt lat="42.96383790671825408935546875" lon="-2.36375746317207813262939453125">
        <ele>1116.5999755859375</ele>
        <time>2022-04-17T15:13:55.000Z</time>
      </trkpt>
      <trkpt lat="42.96383924782276153564453125" lon="-2.3637669347226619720458984375">
        <ele>1116.4000244140625</ele>
        <time>2022-04-17T15:13:56.000Z</time>
      </trkpt>
      <trkpt lat="42.96384184621274471282958984375" lon="-2.36377791501581668853759765625">
        <ele>1116.4000244140625</ele>
        <time>2022-04-17T15:13:57.000Z</time>
      </trkpt>
      <trkpt lat="42.96384151093661785125732421875" lon="-2.36379032023251056671142578125">
        <ele>1116.4000244140625</ele>
        <time>2022-04-17T15:13:58.000Z</time>
      </trkpt>
      <trkpt lat="42.96384402550756931304931640625" lon="-2.3637964390218257904052734375">
        <ele>1116.199951171875</ele>
        <time>2022-04-17T15:13:59.000Z</time>
      </trkpt>
      <trkpt lat="42.96384486369788646697998046875" lon="-2.3638081736862659454345703125">
        <ele>1116</ele>
        <time>2022-04-17T15:14:00.000Z</time>
      </trkpt>
      <trkpt lat="42.96384394168853759765625" lon="-2.36381378956139087677001953125">
        <ele>1115.800048828125</ele>
        <time>2022-04-17T15:14:01.000Z</time>
      </trkpt>
      <trkpt lat="42.96384754590690135955810546875" lon="-2.3638209141790866851806640625">
        <ele>1115.5999755859375</ele>
        <time>2022-04-17T15:14:02.000Z</time>
      </trkpt>
      <trkpt lat="42.96385291032493114471435546875" lon="-2.3638272844254970550537109375">
        <ele>1115.5999755859375</ele>
        <time>2022-04-17T15:14:03.000Z</time>
      </trkpt>
      <trkpt lat="42.96385039575397968292236328125" lon="-2.36384161747992038726806640625">
        <ele>1115.4000244140625</ele>
        <time>2022-04-17T15:14:04.000Z</time>
      </trkpt>
      <trkpt lat="42.9638484679162502288818359375" lon="-2.36385293304920196533203125">
        <ele>1115.199951171875</ele>
        <time>2022-04-17T15:14:05.000Z</time>
      </trkpt>
      <trkpt lat="42.963848970830440521240234375" lon="-2.36386508680880069732666015625">
        <ele>1115</ele>
        <time>2022-04-17T15:14:06.000Z</time>
      </trkpt>
      <trkpt lat="42.96385274268686771392822265625" lon="-2.36387598328292369842529296875">
        <ele>1114.5999755859375</ele>
        <time>2022-04-17T15:14:07.000Z</time>
      </trkpt>
      <trkpt lat="42.9638533294200897216796875" lon="-2.363886795938014984130859375">
        <ele>1114.5999755859375</ele>
        <time>2022-04-17T15:14:08.000Z</time>
      </trkpt>
      <trkpt lat="42.9638551734387874603271484375" lon="-2.36389559693634510040283203125">
        <ele>1114.4000244140625</ele>
        <time>2022-04-17T15:14:09.000Z</time>
      </trkpt>
      <trkpt lat="42.963858358561992645263671875" lon="-2.3639043979346752166748046875">
        <ele>1114.199951171875</ele>
        <time>2022-04-17T15:14:10.000Z</time>
      </trkpt>
      <trkpt lat="42.9638642258942127227783203125" lon="-2.36391101963818073272705078125">
        <ele>1114</ele>
        <time>2022-04-17T15:14:11.000Z</time>
      </trkpt>
      <trkpt lat="42.96387168578803539276123046875" lon="-2.36391252838075160980224609375">
        <ele>1113.800048828125</ele>
        <time>2022-04-17T15:14:12.000Z</time>
      </trkpt>
      <trkpt lat="42.963878810405731201171875" lon="-2.3639147914946079254150390625">
        <ele>1113.4000244140625</ele>
        <time>2022-04-17T15:14:13.000Z</time>
      </trkpt>
      <trkpt lat="42.9638853482902050018310546875" lon="-2.36391873098909854888916015625">
        <ele>1113.4000244140625</ele>
        <time>2022-04-17T15:14:14.000Z</time>
      </trkpt>
      <trkpt lat="42.96388861723244190216064453125" lon="-2.36392493359744548797607421875">
        <ele>1113.199951171875</ele>
        <time>2022-04-17T15:14:15.000Z</time>
      </trkpt>
      <trkpt lat="42.9638913832604885101318359375" lon="-2.36393214203417301177978515625">
        <ele>1113.199951171875</ele>
        <time>2022-04-17T15:14:16.000Z</time>
      </trkpt>
      <trkpt lat="42.96389163471758365631103515625" lon="-2.3639416135847568511962890625">
        <ele>1112.800048828125</ele>
        <time>2022-04-17T15:14:17.000Z</time>
      </trkpt>
      <trkpt lat="42.9638930596411228179931640625" lon="-2.36395175568759441375732421875">
        <ele>1112.800048828125</ele>
        <time>2022-04-17T15:14:18.000Z</time>
      </trkpt>
      <trkpt lat="42.963899262249469757080078125" lon="-2.36395862884819507598876953125">
        <ele>1112.5999755859375</ele>
        <time>2022-04-17T15:14:19.000Z</time>
      </trkpt>
      <trkpt lat="42.9639058001339435577392578125" lon="-2.36396265216171741485595703125">
        <ele>1112.4000244140625</ele>
        <time>2022-04-17T15:14:20.000Z</time>
      </trkpt>
      <trkpt lat="42.96390990726649761199951171875" lon="-2.36396667547523975372314453125">
        <ele>1112.4000244140625</ele>
        <time>2022-04-17T15:14:21.000Z</time>
      </trkpt>
      <trkpt lat="42.9639165289700031280517578125" lon="-2.36397002823650836944580078125">
        <ele>1112.4000244140625</ele>
        <time>2022-04-17T15:14:22.000Z</time>
      </trkpt>
      <trkpt lat="42.96392239630222320556640625" lon="-2.363972961902618408203125">
        <ele>1112.4000244140625</ele>
        <time>2022-04-17T15:14:23.000Z</time>
      </trkpt>
      <trkpt lat="42.96392952091991901397705078125" lon="-2.36397438682615756988525390625">
        <ele>1112.4000244140625</ele>
        <time>2022-04-17T15:14:24.000Z</time>
      </trkpt>
      <trkpt lat="42.96393455006182193756103515625" lon="-2.36398377455770969390869140625">
        <ele>1112.199951171875</ele>
        <time>2022-04-17T15:14:25.000Z</time>
      </trkpt>
      <trkpt lat="42.9639359749853610992431640625" lon="-2.36400120891630649566650390625">
        <ele>1112</ele>
        <time>2022-04-17T15:14:26.000Z</time>
      </trkpt>
      <trkpt lat="42.96393287368118762969970703125" lon="-2.364016883075237274169921875">
        <ele>1111.800048828125</ele>
        <time>2022-04-17T15:14:27.000Z</time>
      </trkpt>
      <trkpt lat="42.96393455006182193756103515625" lon="-2.36401881091296672821044921875">
        <ele>1111.5999755859375</ele>
        <time>2022-04-17T15:14:28.000Z</time>
      </trkpt>
      <trkpt lat="42.9639299400150775909423828125" lon="-2.36402752809226512908935546875">
        <ele>1111.4000244140625</ele>
        <time>2022-04-17T15:14:29.000Z</time>
      </trkpt>
      <trkpt lat="42.9639346338808536529541015625" lon="-2.364034987986087799072265625">
        <ele>1111.199951171875</ele>
        <time>2022-04-17T15:14:30.000Z</time>
      </trkpt>
      <trkpt lat="42.9639369808137416839599609375" lon="-2.36404010094702243804931640625">
        <ele>1111</ele>
        <time>2022-04-17T15:14:31.000Z</time>
      </trkpt>
      <trkpt lat="42.9639416746795177459716796875" lon="-2.36404596827924251556396484375">
        <ele>1110.800048828125</ele>
        <time>2022-04-17T15:14:32.000Z</time>
      </trkpt>
      <trkpt lat="42.96394930221140384674072265625" lon="-2.36405351199209690093994140625">
        <ele>1110.5999755859375</ele>
        <time>2022-04-17T15:14:33.000Z</time>
      </trkpt>
      <trkpt lat="42.96395399607717990875244140625" lon="-2.36405678093433380126953125">
        <ele>1110.4000244140625</ele>
        <time>2022-04-17T15:14:34.000Z</time>
      </trkpt>
      <trkpt lat="42.963957600295543670654296875" lon="-2.3640633188188076019287109375">
        <ele>1110.4000244140625</ele>
        <time>2022-04-17T15:14:35.000Z</time>
      </trkpt>
      <trkpt lat="42.96395835466682910919189453125" lon="-2.36407530494034290313720703125">
        <ele>1110.199951171875</ele>
        <time>2022-04-17T15:14:36.000Z</time>
      </trkpt>
      <trkpt lat="42.96396321617066860198974609375" lon="-2.3640831001102924346923828125">
        <ele>1110</ele>
        <time>2022-04-17T15:14:37.000Z</time>
      </trkpt>
      <trkpt lat="42.9639691673219203948974609375" lon="-2.36408938653767108917236328125">
        <ele>1109.800048828125</ele>
        <time>2022-04-17T15:14:38.000Z</time>
      </trkpt>
      <trkpt lat="42.9639767110347747802734375" lon="-2.3641001991927623748779296875">
        <ele>1109.800048828125</ele>
        <time>2022-04-17T15:14:39.000Z</time>
      </trkpt>
      <trkpt lat="42.9639889486134052276611328125" lon="-2.36410380341112613677978515625">
        <ele>1109.4000244140625</ele>
        <time>2022-04-17T15:14:40.000Z</time>
      </trkpt>
      <trkpt lat="42.96399557031691074371337890625" lon="-2.3641112633049488067626953125">
        <ele>1109.199951171875</ele>
        <time>2022-04-17T15:14:41.000Z</time>
      </trkpt>
      <trkpt lat="42.96399406157433986663818359375" lon="-2.36412140540778636932373046875">
        <ele>1109</ele>
        <time>2022-04-17T15:14:42.000Z</time>
      </trkpt>
      <trkpt lat="42.9639976657927036285400390625" lon="-2.36412928439676761627197265625">
        <ele>1108.800048828125</ele>
        <time>2022-04-17T15:14:43.000Z</time>
      </trkpt>
      <trkpt lat="42.96400127001106739044189453125" lon="-2.3641397617757320404052734375">
        <ele>1108.5999755859375</ele>
        <time>2022-04-17T15:14:44.000Z</time>
      </trkpt>
      <trkpt lat="42.96400730498135089874267578125" lon="-2.3641457967460155487060546875">
        <ele>1108.4000244140625</ele>
        <time>2022-04-17T15:14:45.000Z</time>
      </trkpt>
      <trkpt lat="42.964014597237110137939453125" lon="-2.3641491495072841644287109375">
        <ele>1108.4000244140625</ele>
        <time>2022-04-17T15:14:46.000Z</time>
      </trkpt>
      <trkpt lat="42.96402239240705966949462890625" lon="-2.36415292136371135711669921875">
        <ele>1108.199951171875</ele>
        <time>2022-04-17T15:14:47.000Z</time>
      </trkpt>
      <trkpt lat="42.96402926556766033172607421875" lon="-2.36415443010628223419189453125">
        <ele>1108</ele>
        <time>2022-04-17T15:14:48.000Z</time>
      </trkpt>
      <trkpt lat="42.964035384356975555419921875" lon="-2.36416004598140716552734375">
        <ele>1107.800048828125</ele>
        <time>2022-04-17T15:14:49.000Z</time>
      </trkpt>
      <trkpt lat="42.96403898857533931732177734375" lon="-2.36416406929492950439453125">
        <ele>1107.4000244140625</ele>
        <time>2022-04-17T15:14:50.000Z</time>
      </trkpt>
      <trkpt lat="42.96404234133660793304443359375" lon="-2.36416800878942012786865234375">
        <ele>1107.199951171875</ele>
        <time>2022-04-17T15:14:51.000Z</time>
      </trkpt>
      <trkpt lat="42.9640492983162403106689453125" lon="-2.36417421139776706695556640625">
        <ele>1107</ele>
        <time>2022-04-17T15:14:52.000Z</time>
      </trkpt>
      <trkpt lat="42.96405675821006298065185546875" lon="-2.3641808331012725830078125">
        <ele>1107</ele>
        <time>2022-04-17T15:14:53.000Z</time>
      </trkpt>
      <trkpt lat="42.96406480483710765838623046875" lon="-2.364183850586414337158203125">
        <ele>1107</ele>
        <time>2022-04-17T15:14:54.000Z</time>
      </trkpt>
      <trkpt lat="42.96406983397901058197021484375" lon="-2.36418410204350948333740234375">
        <ele>1106.800048828125</ele>
        <time>2022-04-17T15:14:55.000Z</time>
      </trkpt>
      <trkpt lat="42.9640744440257549285888671875" lon="-2.364184856414794921875">
        <ele>1106.800048828125</ele>
        <time>2022-04-17T15:14:56.000Z</time>
      </trkpt>
      <trkpt lat="42.9640841670334339141845703125" lon="-2.36418745480477809906005859375">
        <ele>1106.5999755859375</ele>
        <time>2022-04-17T15:14:57.000Z</time>
      </trkpt>
      <trkpt lat="42.96409447677433490753173828125" lon="-2.36419600434601306915283203125">
        <ele>1106.4000244140625</ele>
        <time>2022-04-17T15:14:58.000Z</time>
      </trkpt>
      <trkpt lat="42.964104115962982177734375" lon="-2.36421109177172183990478515625">
        <ele>1106.199951171875</ele>
        <time>2022-04-17T15:14:59.000Z</time>
      </trkpt>
      <trkpt lat="42.96410721726715564727783203125" lon="-2.36422115005552768707275390625">
        <ele>1106</ele>
        <time>2022-04-17T15:15:00.000Z</time>
      </trkpt>
      <trkpt lat="42.964113838970661163330078125" lon="-2.3642237484455108642578125">
        <ele>1105.800048828125</ele>
        <time>2022-04-17T15:15:01.000Z</time>
      </trkpt>
      <trkpt lat="42.9641153477132320404052734375" lon="-2.3642292805016040802001953125">
        <ele>1105.5999755859375</ele>
        <time>2022-04-17T15:15:02.000Z</time>
      </trkpt>
      <trkpt lat="42.96412163414061069488525390625" lon="-2.3642413504421710968017578125">
        <ele>1105.4000244140625</ele>
        <time>2022-04-17T15:15:03.000Z</time>
      </trkpt>
      <trkpt lat="42.96412481926381587982177734375" lon="-2.3642534203827381134033203125">
        <ele>1105.199951171875</ele>
        <time>2022-04-17T15:15:04.000Z</time>
      </trkpt>
      <trkpt lat="42.9641354642808437347412109375" lon="-2.36426138319075107574462890625">
        <ele>1104.800048828125</ele>
        <time>2022-04-17T15:15:05.000Z</time>
      </trkpt>
      <trkpt lat="42.96414141543209552764892578125" lon="-2.36426657997071743011474609375">
        <ele>1104.5999755859375</ele>
        <time>2022-04-17T15:15:06.000Z</time>
      </trkpt>
      <trkpt lat="42.964147031307220458984375" lon="-2.36427311785519123077392578125">
        <ele>1104.5999755859375</ele>
        <time>2022-04-17T15:15:07.000Z</time>
      </trkpt>
      <trkpt lat="42.96415038406848907470703125" lon="-2.36427605152130126953125">
        <ele>1104.199951171875</ele>
        <time>2022-04-17T15:15:08.000Z</time>
      </trkpt>
      <trkpt lat="42.964154072105884552001953125" lon="-2.36427940428256988525390625">
        <ele>1104</ele>
        <time>2022-04-17T15:15:09.000Z</time>
      </trkpt>
      <trkpt lat="42.964157760143280029296875" lon="-2.36428267322480678558349609375">
        <ele>1103.5999755859375</ele>
        <time>2022-04-17T15:15:10.000Z</time>
      </trkpt>
      <trkpt lat="42.964169494807720184326171875" lon="-2.3642854392528533935546875">
        <ele>1103.4000244140625</ele>
        <time>2022-04-17T15:15:11.000Z</time>
      </trkpt>
      <trkpt lat="42.9641773737967014312744140625" lon="-2.36428468488156795501708984375">
        <ele>1103.4000244140625</ele>
        <time>2022-04-17T15:15:12.000Z</time>
      </trkpt>
      <trkpt lat="42.96418567188084125518798828125" lon="-2.364285774528980255126953125">
        <ele>1103.199951171875</ele>
        <time>2022-04-17T15:15:13.000Z</time>
      </trkpt>
      <trkpt lat="42.96419539488852024078369140625" lon="-2.3642899654805660247802734375">
        <ele>1103</ele>
        <time>2022-04-17T15:15:14.000Z</time>
      </trkpt>
      <trkpt lat="42.96421048231422901153564453125" lon="-2.36429289914667606353759765625">
        <ele>1102.800048828125</ele>
        <time>2022-04-17T15:15:15.000Z</time>
      </trkpt>
      <trkpt lat="42.96422054059803485870361328125" lon="-2.3643017001450061798095703125">
        <ele>1102.5999755859375</ele>
        <time>2022-04-17T15:15:16.000Z</time>
      </trkpt>
      <trkpt lat="42.96422590501606464385986328125" lon="-2.364302538335323333740234375">
        <ele>1102.4000244140625</ele>
        <time>2022-04-17T15:15:17.000Z</time>
      </trkpt>
      <trkpt lat="42.9642315208911895751953125" lon="-2.36430346034467220306396484375">
        <ele>1102.199951171875</ele>
        <time>2022-04-17T15:15:18.000Z</time>
      </trkpt>
      <trkpt lat="42.96423965133726596832275390625" lon="-2.36430714838206768035888671875">
        <ele>1101.800048828125</ele>
        <time>2022-04-17T15:15:19.000Z</time>
      </trkpt>
      <trkpt lat="42.964239902794361114501953125" lon="-2.36430966295301914215087890625">
        <ele>1101.5999755859375</ele>
        <time>2022-04-17T15:15:20.000Z</time>
      </trkpt>
      <trkpt lat="42.9642400704324245452880859375" lon="-2.36430882476270198822021484375">
        <ele>1101.4000244140625</ele>
        <time>2022-04-17T15:15:21.000Z</time>
      </trkpt>
      <trkpt lat="42.9642507992684841156005859375" lon="-2.36430731602013111114501953125">
        <ele>1101.199951171875</ele>
        <time>2022-04-17T15:15:22.000Z</time>
      </trkpt>
      <trkpt lat="42.96425809152424335479736328125" lon="-2.36431033350527286529541015625">
        <ele>1101</ele>
        <time>2022-04-17T15:15:23.000Z</time>
      </trkpt>
      <trkpt lat="42.9642645455896854400634765625" lon="-2.36431418918073177337646484375">
        <ele>1100.800048828125</ele>
        <time>2022-04-17T15:15:24.000Z</time>
      </trkpt>
      <trkpt lat="42.964273430407047271728515625" lon="-2.3643184639513492584228515625">
        <ele>1100.800048828125</ele>
        <time>2022-04-17T15:15:25.000Z</time>
      </trkpt>
      <trkpt lat="42.96428742818534374237060546875" lon="-2.36432055942714214324951171875">
        <ele>1100.5999755859375</ele>
        <time>2022-04-17T15:15:26.000Z</time>
      </trkpt>
      <trkpt lat="42.96429363079369068145751953125" lon="-2.36433246172964572906494140625">
        <ele>1100.5999755859375</ele>
        <time>2022-04-17T15:15:27.000Z</time>
      </trkpt>
      <trkpt lat="42.96429849229753017425537109375" lon="-2.364340759813785552978515625">
        <ele>1100.4000244140625</ele>
        <time>2022-04-17T15:15:28.000Z</time>
      </trkpt>
      <trkpt lat="42.96429731883108615875244140625" lon="-2.36435341648757457733154296875">
        <ele>1100.199951171875</ele>
        <time>2022-04-17T15:15:29.000Z</time>
      </trkpt>
      <trkpt lat="42.96429597772657871246337890625" lon="-2.36436649225652217864990234375">
        <ele>1100</ele>
        <time>2022-04-17T15:15:30.000Z</time>
      </trkpt>
      <trkpt lat="42.96430720947682857513427734375" lon="-2.3643632233142852783203125">
        <ele>1099.800048828125</ele>
        <time>2022-04-17T15:15:31.000Z</time>
      </trkpt>
      <trkpt lat="42.9643208719789981842041015625" lon="-2.3643498122692108154296875">
        <ele>1099.4000244140625</ele>
        <time>2022-04-17T15:15:32.000Z</time>
      </trkpt>
      <trkpt lat="42.9643269069492816925048828125" lon="-2.364337742328643798828125">
        <ele>1099.199951171875</ele>
        <time>2022-04-17T15:15:33.000Z</time>
      </trkpt>
      <trkpt lat="42.96433000825345516204833984375" lon="-2.36433011479675769805908203125">
        <ele>1099</ele>
        <time>2022-04-17T15:15:34.000Z</time>
      </trkpt>
      <trkpt lat="42.96433822251856327056884765625" lon="-2.36431787721812725067138671875">
        <ele>1098.800048828125</ele>
        <time>2022-04-17T15:15:35.000Z</time>
      </trkpt>
      <trkpt lat="42.96434476040303707122802734375" lon="-2.36430765129625797271728515625">
        <ele>1098.5999755859375</ele>
        <time>2022-04-17T15:15:36.000Z</time>
      </trkpt>
      <trkpt lat="42.96434945426881313323974609375" lon="-2.36430781893432140350341796875">
        <ele>1098.5999755859375</ele>
        <time>2022-04-17T15:15:37.000Z</time>
      </trkpt>
      <trkpt lat="42.9643523879349231719970703125" lon="-2.364303879439830780029296875">
        <ele>1098.5999755859375</ele>
        <time>2022-04-17T15:15:38.000Z</time>
      </trkpt>
      <trkpt lat="42.96435557305812835693359375" lon="-2.36430061049759387969970703125">
        <ele>1098.5999755859375</ele>
        <time>2022-04-17T15:15:39.000Z</time>
      </trkpt>
      <trkpt lat="42.9643564112484455108642578125" lon="-2.364297844469547271728515625">
        <ele>1098.5999755859375</ele>
        <time>2022-04-17T15:15:40.000Z</time>
      </trkpt>
      <trkpt lat="42.9643611051142215728759765625" lon="-2.364295162260532379150390625">
        <ele>1098.5999755859375</ele>
        <time>2022-04-17T15:15:41.000Z</time>
      </trkpt>
      <trkpt lat="42.96436873264610767364501953125" lon="-2.36428753472864627838134765625">
        <ele>1098.5999755859375</ele>
        <time>2022-04-17T15:15:42.000Z</time>
      </trkpt>
      <trkpt lat="42.9643718339502811431884765625" lon="-2.364283762872219085693359375">
        <ele>1098.5999755859375</ele>
        <time>2022-04-17T15:15:43.000Z</time>
      </trkpt>
      <trkpt lat="42.96437208540737628936767578125" lon="-2.36427848227322101593017578125">
        <ele>1098.5999755859375</ele>
        <time>2022-04-17T15:15:44.000Z</time>
      </trkpt>
      <trkpt lat="42.96437057666480541229248046875" lon="-2.3642718605697154998779296875">
        <ele>1098.800048828125</ele>
        <time>2022-04-17T15:15:45.000Z</time>
      </trkpt>
      <trkpt lat="42.9643731750547885894775390625" lon="-2.36426339484751224517822265625">
        <ele>1098.800048828125</ele>
        <time>2022-04-17T15:15:46.000Z</time>
      </trkpt>
      <trkpt lat="42.964373342692852020263671875" lon="-2.36425383947789669036865234375">
        <ele>1098.800048828125</ele>
        <time>2022-04-17T15:15:47.000Z</time>
      </trkpt>
      <trkpt lat="42.96436554752290248870849609375" lon="-2.36424428410828113555908203125">
        <ele>1098.800048828125</ele>
        <time>2022-04-17T15:15:48.000Z</time>
      </trkpt>
      <trkpt lat="42.96435951255261898040771484375" lon="-2.3642420209944248199462890625">
        <ele>1098.800048828125</ele>
        <time>2022-04-17T15:15:49.000Z</time>
      </trkpt>
      <trkpt lat="42.9643580876290798187255859375" lon="-2.36424763686954975128173828125">
        <ele>1098.800048828125</ele>
        <time>2022-04-17T15:15:50.000Z</time>
      </trkpt>
      <trkpt lat="42.9643600992858409881591796875" lon="-2.364252246916294097900390625">
        <ele>1098.800048828125</ele>
        <time>2022-04-17T15:15:51.000Z</time>
      </trkpt>
      <trkpt lat="42.9643604345619678497314453125" lon="-2.36424989998340606689453125">
        <ele>1098.800048828125</ele>
        <time>2022-04-17T15:15:52.000Z</time>
      </trkpt>
      <trkpt lat="42.96435096301138401031494140625" lon="-2.3642447032034397125244140625">
        <ele>1098.800048828125</ele>
        <time>2022-04-17T15:15:53.000Z</time>
      </trkpt>
      <trkpt lat="42.96434911899268627166748046875" lon="-2.36424378119409084320068359375">
        <ele>1098.800048828125</ele>
        <time>2022-04-17T15:15:54.000Z</time>
      </trkpt>
      <trkpt lat="42.96433956362307071685791015625" lon="-2.36424361355602741241455078125">
        <ele>1098.800048828125</ele>
        <time>2022-04-17T15:15:55.000Z</time>
      </trkpt>
      <trkpt lat="42.96433269046247005462646484375" lon="-2.3642390035092830657958984375">
        <ele>1098.800048828125</ele>
        <time>2022-04-17T15:15:56.000Z</time>
      </trkpt>
      <trkpt lat="42.96433269046247005462646484375" lon="-2.3642390035092830657958984375">
        <ele>1098.5999755859375</ele>
        <time>2022-04-17T15:15:57.000Z</time>
      </trkpt>
      <trkpt lat="42.96433269046247005462646484375" lon="-2.3642390035092830657958984375">
        <ele>1098.5999755859375</ele>
        <time>2022-04-17T15:15:58.000Z</time>
      </trkpt>
      <trkpt lat="42.96433269046247005462646484375" lon="-2.3642390035092830657958984375">
        <ele>1098.4000244140625</ele>
        <time>2022-04-17T15:15:59.000Z</time>
      </trkpt>
      <trkpt lat="42.96433269046247005462646484375" lon="-2.3642390035092830657958984375">
        <ele>1098.4000244140625</ele>
        <time>2022-04-17T15:16:00.000Z</time>
      </trkpt>
      <trkpt lat="42.96433269046247005462646484375" lon="-2.3642390035092830657958984375">
        <ele>1098.4000244140625</ele>
        <time>2022-04-17T15:16:01.000Z</time>
      </trkpt>
      <trkpt lat="42.96433269046247005462646484375" lon="-2.3642390035092830657958984375">
        <ele>1098.4000244140625</ele>
        <time>2022-04-17T15:16:02.000Z</time>
      </trkpt>
      <trkpt lat="42.96433269046247005462646484375" lon="-2.3642390035092830657958984375">
        <ele>1098.4000244140625</ele>
        <time>2022-04-17T15:16:03.000Z</time>
      </trkpt>
      <trkpt lat="42.96433269046247005462646484375" lon="-2.3642390035092830657958984375">
        <ele>1098.4000244140625</ele>
        <time>2022-04-17T15:16:04.000Z</time>
      </trkpt>
      <trkpt lat="42.96433269046247005462646484375" lon="-2.3642390035092830657958984375">
        <ele>1098.4000244140625</ele>
        <time>2022-04-17T15:16:05.000Z</time>
      </trkpt>
      <trkpt lat="42.96433269046247005462646484375" lon="-2.3642390035092830657958984375">
        <ele>1098.4000244140625</ele>
        <time>2022-04-17T15:16:06.000Z</time>
      </trkpt>
      <trkpt lat="42.96433269046247005462646484375" lon="-2.3642390035092830657958984375">
        <ele>1098.4000244140625</ele>
        <time>2022-04-17T15:16:07.000Z</time>
      </trkpt>
      <trkpt lat="42.96433269046247005462646484375" lon="-2.3642390035092830657958984375">
        <ele>1098.4000244140625</ele>
        <time>2022-04-17T15:16:08.000Z</time>
      </trkpt>
      <trkpt lat="42.96433269046247005462646484375" lon="-2.3642390035092830657958984375">
        <ele>1098.4000244140625</ele>
        <time>2022-04-17T15:16:09.000Z</time>
      </trkpt>
      <trkpt lat="42.96433269046247005462646484375" lon="-2.3642390035092830657958984375">
        <ele>1098.4000244140625</ele>
        <time>2022-04-17T15:16:10.000Z</time>
      </trkpt>
      <trkpt lat="42.96433269046247005462646484375" lon="-2.3642390035092830657958984375">
        <ele>1098.4000244140625</ele>
        <time>2022-04-17T15:16:11.000Z</time>
      </trkpt>
      <trkpt lat="42.96433269046247005462646484375" lon="-2.36423741094768047332763671875">
        <ele>1098.4000244140625</ele>
        <time>2022-04-17T15:16:12.000Z</time>
      </trkpt>
      <trkpt lat="42.96433554030954837799072265625" lon="-2.36423640511929988861083984375">
        <ele>1098.4000244140625</ele>
        <time>2022-04-17T15:16:13.000Z</time>
      </trkpt>
      <trkpt lat="42.96433922834694385528564453125" lon="-2.364234812557697296142578125">
        <ele>1098.4000244140625</ele>
        <time>2022-04-17T15:16:14.000Z</time>
      </trkpt>
      <trkpt lat="42.964339815080165863037109375" lon="-2.36423271708190441131591796875">
        <ele>1098.4000244140625</ele>
        <time>2022-04-17T15:16:15.000Z</time>
      </trkpt>
      <trkpt lat="42.96434082090854644775390625" lon="-2.36423246562480926513671875">
        <ele>1098.4000244140625</ele>
        <time>2022-04-17T15:16:16.000Z</time>
      </trkpt>
      <trkpt lat="42.96434140764176845550537109375" lon="-2.36422969959676265716552734375">
        <ele>1098.4000244140625</ele>
        <time>2022-04-17T15:16:17.000Z</time>
      </trkpt>
      <trkpt lat="42.9643414914608001708984375" lon="-2.3642276041209697723388671875">
        <ele>1098.4000244140625</ele>
        <time>2022-04-17T15:16:18.000Z</time>
      </trkpt>
      <trkpt lat="42.9643414914608001708984375" lon="-2.36422701738774776458740234375">
        <ele>1098.4000244140625</ele>
        <time>2022-04-17T15:16:19.000Z</time>
      </trkpt>
      <trkpt lat="42.9643414914608001708984375" lon="-2.3642255924642086029052734375">
        <ele>1098.4000244140625</ele>
        <time>2022-04-17T15:16:20.000Z</time>
      </trkpt>
      <trkpt lat="42.9643414914608001708984375" lon="-2.3642239160835742950439453125">
        <ele>1098.4000244140625</ele>
        <time>2022-04-17T15:16:21.000Z</time>
      </trkpt>
      <trkpt lat="42.9643414914608001708984375" lon="-2.3642225749790668487548828125">
        <ele>1098.4000244140625</ele>
        <time>2022-04-17T15:16:22.000Z</time>
      </trkpt>
      <trkpt lat="42.9643414914608001708984375" lon="-2.36422115005552768707275390625">
        <ele>1098.4000244140625</ele>
        <time>2022-04-17T15:16:23.000Z</time>
      </trkpt>
      <trkpt lat="42.9643414914608001708984375" lon="-2.36422047950327396392822265625">
        <ele>1098.4000244140625</ele>
        <time>2022-04-17T15:16:24.000Z</time>
      </trkpt>
      <trkpt lat="42.964341826736927032470703125" lon="-2.36421880312263965606689453125">
        <ele>1098.4000244140625</ele>
        <time>2022-04-17T15:16:25.000Z</time>
      </trkpt>
      <trkpt lat="42.96434216201305389404296875" lon="-2.36421310342848300933837890625">
        <ele>1098.4000244140625</ele>
        <time>2022-04-17T15:16:26.000Z</time>
      </trkpt>
      <trkpt lat="42.9643443413078784942626953125" lon="-2.3642081581056118011474609375">
        <ele>1098.4000244140625</ele>
        <time>2022-04-17T15:16:27.000Z</time>
      </trkpt>
      <trkpt lat="42.96434886753559112548828125" lon="-2.36420589499175548553466796875">
        <ele>1098.4000244140625</ele>
        <time>2022-04-17T15:16:28.000Z</time>
      </trkpt>
      <trkpt lat="42.964351214468479156494140625" lon="-2.36420555971562862396240234375">
        <ele>1098.4000244140625</ele>
        <time>2022-04-17T15:16:29.000Z</time>
      </trkpt>
      <trkpt lat="42.964353896677494049072265625" lon="-2.3642054758965969085693359375">
        <ele>1098.4000244140625</ele>
        <time>2022-04-17T15:16:30.000Z</time>
      </trkpt>
      <trkpt lat="42.96435481868684291839599609375" lon="-2.3642054758965969085693359375">
        <ele>1098.4000244140625</ele>
        <time>2022-04-17T15:16:31.000Z</time>
      </trkpt>
      <trkpt lat="42.96435632742941379547119140625" lon="-2.3642054758965969085693359375">
        <ele>1098.4000244140625</ele>
        <time>2022-04-17T15:16:32.000Z</time>
      </trkpt>
      <trkpt lat="42.96435783617198467254638671875" lon="-2.3642054758965969085693359375">
        <ele>1098.4000244140625</ele>
        <time>2022-04-17T15:16:33.000Z</time>
      </trkpt>
      <trkpt lat="42.964358590543270111083984375" lon="-2.3642054758965969085693359375">
        <ele>1098.4000244140625</ele>
        <time>2022-04-17T15:16:34.000Z</time>
      </trkpt>
      <trkpt lat="42.96435900963842868804931640625" lon="-2.3642054758965969085693359375">
        <ele>1098.4000244140625</ele>
        <time>2022-04-17T15:16:35.000Z</time>
      </trkpt>
      <trkpt lat="42.964359931647777557373046875" lon="-2.3642054758965969085693359375">
        <ele>1098.4000244140625</ele>
        <time>2022-04-17T15:16:36.000Z</time>
      </trkpt>
      <trkpt lat="42.9643637873232364654541015625" lon="-2.3642054758965969085693359375">
        <ele>1098.4000244140625</ele>
        <time>2022-04-17T15:16:37.000Z</time>
      </trkpt>
      <trkpt lat="42.96436973847448825836181640625" lon="-2.3642054758965969085693359375">
        <ele>1098.4000244140625</ele>
        <time>2022-04-17T15:16:38.000Z</time>
      </trkpt>
      <trkpt lat="42.96437543816864490509033203125" lon="-2.3642054758965969085693359375">
        <ele>1098.4000244140625</ele>
        <time>2022-04-17T15:16:39.000Z</time>
      </trkpt>
      <trkpt lat="42.96437912620604038238525390625" lon="-2.3642054758965969085693359375">
        <ele>1098.4000244140625</ele>
        <time>2022-04-17T15:16:40.000Z</time>
      </trkpt>
      <trkpt lat="42.96438482590019702911376953125" lon="-2.3642054758965969085693359375">
        <ele>1098.4000244140625</ele>
        <time>2022-04-17T15:16:41.000Z</time>
      </trkpt>
      <trkpt lat="42.96439404599368572235107421875" lon="-2.3642054758965969085693359375">
        <ele>1098.4000244140625</ele>
        <time>2022-04-17T15:16:42.000Z</time>
      </trkpt>
      <trkpt lat="42.96440175734460353851318359375" lon="-2.36420824192464351654052734375">
        <ele>1098.4000244140625</ele>
        <time>2022-04-17T15:16:43.000Z</time>
      </trkpt>
      <trkpt lat="42.96442237682640552520751953125" lon="-2.364211343228816986083984375">
        <ele>1098.4000244140625</ele>
        <time>2022-04-17T15:16:44.000Z</time>
      </trkpt>
      <trkpt lat="42.9644372127950191497802734375" lon="-2.36421637237071990966796875">
        <ele>1098.4000244140625</ele>
        <time>2022-04-17T15:16:45.000Z</time>
      </trkpt>
      <trkpt lat="42.9644492827355861663818359375" lon="-2.36423053778707981109619140625">
        <ele>1098.4000244140625</ele>
        <time>2022-04-17T15:16:46.000Z</time>
      </trkpt>
      <trkpt lat="42.96445858664810657501220703125" lon="-2.3642457090318202972412109375">
        <ele>1098.4000244140625</ele>
        <time>2022-04-17T15:16:47.000Z</time>
      </trkpt>
      <trkpt lat="42.9644675552845001220703125" lon="-2.364258952438831329345703125">
        <ele>1098.4000244140625</ele>
        <time>2022-04-17T15:16:48.000Z</time>
      </trkpt>
      <trkpt lat="42.9644811339676380157470703125" lon="-2.3642675019800662994384765625">
        <ele>1098.4000244140625</ele>
        <time>2022-04-17T15:16:49.000Z</time>
      </trkpt>
      <trkpt lat="42.96449848450720310211181640625" lon="-2.36427378840744495391845703125">
        <ele>1098.4000244140625</ele>
        <time>2022-04-17T15:16:50.000Z</time>
      </trkpt>
      <trkpt lat="42.96451591886579990386962890625" lon="-2.3642822541296482086181640625">
        <ele>1098.4000244140625</ele>
        <time>2022-04-17T15:16:51.000Z</time>
      </trkpt>
      <trkpt lat="42.96453486196696758270263671875" lon="-2.36429281532764434814453125">
        <ele>1098.4000244140625</ele>
        <time>2022-04-17T15:16:52.000Z</time>
      </trkpt>
      <trkpt lat="42.96454508788883686065673828125" lon="-2.36430195160210132598876953125">
        <ele>1098.4000244140625</ele>
        <time>2022-04-17T15:16:53.000Z</time>
      </trkpt>
      <trkpt lat="42.96455833129584789276123046875" lon="-2.36430815421044826507568359375">
        <ele>1098.4000244140625</ele>
        <time>2022-04-17T15:16:54.000Z</time>
      </trkpt>
      <trkpt lat="42.964571826159954071044921875" lon="-2.36431200988590717315673828125">
        <ele>1098.4000244140625</ele>
        <time>2022-04-17T15:16:55.000Z</time>
      </trkpt>
      <trkpt lat="42.96458213590085506439208984375" lon="-2.36431670375168323516845703125">
        <ele>1098.4000244140625</ele>
        <time>2022-04-17T15:16:56.000Z</time>
      </trkpt>
      <trkpt lat="42.9645914398133754730224609375" lon="-2.3643251694738864898681640625">
        <ele>1098.4000244140625</ele>
        <time>2022-04-17T15:16:57.000Z</time>
      </trkpt>
      <trkpt lat="42.96459437347948551177978515625" lon="-2.36433866433799266815185546875">
        <ele>1098.5999755859375</ele>
        <time>2022-04-17T15:16:58.000Z</time>
      </trkpt>
      <trkpt lat="42.9645951278507709503173828125" lon="-2.3643553443253040313720703125">
        <ele>1098.5999755859375</ele>
        <time>2022-04-17T15:16:59.000Z</time>
      </trkpt>
      <trkpt lat="42.96460560522973537445068359375" lon="-2.36436213366687297821044921875">
        <ele>1098.800048828125</ele>
        <time>2022-04-17T15:17:00.000Z</time>
      </trkpt>
      <trkpt lat="42.96461348421871662139892578125" lon="-2.36436364240944385528564453125">
        <ele>1098.800048828125</ele>
        <time>2022-04-17T15:17:01.000Z</time>
      </trkpt>
      <trkpt lat="42.9646226204931735992431640625" lon="-2.3643707670271396636962890625">
        <ele>1098.800048828125</ele>
        <time>2022-04-17T15:17:02.000Z</time>
      </trkpt>
      <trkpt lat="42.9646259732544422149658203125" lon="-2.36437604762613773345947265625">
        <ele>1098.800048828125</ele>
        <time>2022-04-17T15:17:03.000Z</time>
      </trkpt>
      <trkpt lat="42.96463812701404094696044921875" lon="-2.36438292078673839569091796875">
        <ele>1098.800048828125</ele>
        <time>2022-04-17T15:17:04.000Z</time>
      </trkpt>
      <trkpt lat="42.9646561481058597564697265625" lon="-2.3643851839005947113037109375">
        <ele>1098.5999755859375</ele>
        <time>2022-04-17T15:17:05.000Z</time>
      </trkpt>
      <trkpt lat="42.9646725766360759735107421875" lon="-2.3643873631954193115234375">
        <ele>1098.800048828125</ele>
        <time>2022-04-17T15:17:06.000Z</time>
      </trkpt>
      <trkpt lat="42.96468690969049930572509765625" lon="-2.3643918894231319427490234375">
        <ele>1098.800048828125</ele>
        <time>2022-04-17T15:17:07.000Z</time>
      </trkpt>
      <trkpt lat="42.9647044278681278228759765625" lon="-2.3643955774605274200439453125">
        <ele>1098.800048828125</ele>
        <time>2022-04-17T15:17:08.000Z</time>
      </trkpt>
      <trkpt lat="42.9647228680551052093505859375" lon="-2.36440488137304782867431640625">
        <ele>1098.800048828125</ele>
        <time>2022-04-17T15:17:09.000Z</time>
      </trkpt>
      <trkpt lat="42.96474072150886058807373046875" lon="-2.36441552639007568359375">
        <ele>1099</ele>
        <time>2022-04-17T15:17:10.000Z</time>
      </trkpt>
      <trkpt lat="42.96475547365844249725341796875" lon="-2.36442633904516696929931640625">
        <ele>1099</ele>
        <time>2022-04-17T15:17:11.000Z</time>
      </trkpt>
      <trkpt lat="42.964763604104518890380859375" lon="-2.36443187110126018524169921875">
        <ele>1099.199951171875</ele>
        <time>2022-04-17T15:17:12.000Z</time>
      </trkpt>
      <trkpt lat="42.96476804651319980621337890625" lon="-2.36443622969090938568115234375">
        <ele>1099.4000244140625</ele>
        <time>2022-04-17T15:17:13.000Z</time>
      </trkpt>
      <trkpt lat="42.964768968522548675537109375" lon="-2.36442684195935726165771484375">
        <ele>1099.4000244140625</ele>
        <time>2022-04-17T15:17:14.000Z</time>
      </trkpt>
      <trkpt lat="42.9647848941385746002197265625" lon="-2.36442566849291324615478515625">
        <ele>1099.5999755859375</ele>
        <time>2022-04-17T15:17:15.000Z</time>
      </trkpt>
      <trkpt lat="42.964795120060443878173828125" lon="-2.36443270929157733917236328125">
        <ele>1099.5999755859375</ele>
        <time>2022-04-17T15:17:16.000Z</time>
      </trkpt>
      <trkpt lat="42.96479905955493450164794921875" lon="-2.3644394986331462860107421875">
        <ele>1099.5999755859375</ele>
        <time>2022-04-17T15:17:17.000Z</time>
      </trkpt>
      <trkpt lat="42.964822947978973388671875" lon="-2.3644488863646984100341796875">
        <ele>1099.5999755859375</ele>
        <time>2022-04-17T15:17:18.000Z</time>
      </trkpt>
      <trkpt lat="42.964829988777637481689453125" lon="-2.36446053721010684967041015625">
        <ele>1099.5999755859375</ele>
        <time>2022-04-17T15:17:19.000Z</time>
      </trkpt>
      <trkpt lat="42.96483912505209445953369140625" lon="-2.3644629679620265960693359375">
        <ele>1099.199951171875</ele>
        <time>2022-04-17T15:17:20.000Z</time>
      </trkpt>
      <trkpt lat="42.96484172344207763671875" lon="-2.36447528935968875885009765625">
        <ele>1099</ele>
        <time>2022-04-17T15:17:21.000Z</time>
      </trkpt>
      <trkpt lat="42.96485421247780323028564453125" lon="-2.36447730101644992828369140625">
        <ele>1098.800048828125</ele>
        <time>2022-04-17T15:17:22.000Z</time>
      </trkpt>
      <trkpt lat="42.9648640193045139312744140625" lon="-2.36448149196803569793701171875">
        <ele>1098.5999755859375</ele>
        <time>2022-04-17T15:17:23.000Z</time>
      </trkpt>
      <trkpt lat="42.9648724012076854705810546875" lon="-2.3644897900521755218505859375">
        <ele>1098.199951171875</ele>
        <time>2022-04-17T15:17:24.000Z</time>
      </trkpt>
      <trkpt lat="42.96488136984407901763916015625" lon="-2.36450043506920337677001953125">
        <ele>1098</ele>
        <time>2022-04-17T15:17:25.000Z</time>
      </trkpt>
      <trkpt lat="42.96489159576594829559326171875" lon="-2.3645105771720409393310546875">
        <ele>1097.800048828125</ele>
        <time>2022-04-17T15:17:26.000Z</time>
      </trkpt>
      <trkpt lat="42.96490534208714962005615234375" lon="-2.3645179532468318939208984375">
        <ele>1097.800048828125</ele>
        <time>2022-04-17T15:17:27.000Z</time>
      </trkpt>
      <trkpt lat="42.9649190045893192291259765625" lon="-2.3645263351500034332275390625">
        <ele>1097.800048828125</ele>
        <time>2022-04-17T15:17:28.000Z</time>
      </trkpt>
      <trkpt lat="42.964929230511188507080078125" lon="-2.36453195102512836456298828125">
        <ele>1097.5999755859375</ele>
        <time>2022-04-17T15:17:29.000Z</time>
      </trkpt>
      <trkpt lat="42.96494021080434322357177734375" lon="-2.3645350523293018341064453125">
        <ele>1097.199951171875</ele>
        <time>2022-04-17T15:17:30.000Z</time>
      </trkpt>
      <trkpt lat="42.964950017631053924560546875" lon="-2.3645417578518390655517578125">
        <ele>1097</ele>
        <time>2022-04-17T15:17:31.000Z</time>
      </trkpt>
      <trkpt lat="42.96495211310684680938720703125" lon="-2.3645501397550106048583984375">
        <ele>1096.800048828125</ele>
        <time>2022-04-17T15:17:32.000Z</time>
      </trkpt>
      <trkpt lat="42.96495965681970119476318359375" lon="-2.36455835402011871337890625">
        <ele>1096.5999755859375</ele>
        <time>2022-04-17T15:17:33.000Z</time>
      </trkpt>
      <trkpt lat="42.96496577560901641845703125" lon="-2.36456246115267276763916015625">
        <ele>1096.5999755859375</ele>
        <time>2022-04-17T15:17:34.000Z</time>
      </trkpt>
      <trkpt lat="42.96497105620801448822021484375" lon="-2.364574782550334930419921875">
        <ele>1096.4000244140625</ele>
        <time>2022-04-17T15:17:35.000Z</time>
      </trkpt>
      <trkpt lat="42.96498044393956661224365234375" lon="-2.3645858466625213623046875">
        <ele>1096.4000244140625</ele>
        <time>2022-04-17T15:17:36.000Z</time>
      </trkpt>
      <trkpt lat="42.96499100513756275177001953125" lon="-2.364588864147663116455078125">
        <ele>1096.4000244140625</ele>
        <time>2022-04-17T15:17:37.000Z</time>
      </trkpt>
      <trkpt lat="42.965002320706844329833984375" lon="-2.3645938932895660400390625">
        <ele>1096.199951171875</ele>
        <time>2022-04-17T15:17:38.000Z</time>
      </trkpt>
      <trkpt lat="42.96500609256327152252197265625" lon="-2.3646094836294651031494140625">
        <ele>1096.199951171875</ele>
        <time>2022-04-17T15:17:39.000Z</time>
      </trkpt>
      <trkpt lat="42.965013720095157623291015625" lon="-2.3646282590925693511962890625">
        <ele>1096.199951171875</ele>
        <time>2022-04-17T15:17:40.000Z</time>
      </trkpt>
      <trkpt lat="42.96502386219799518585205078125" lon="-2.36463907174766063690185546875">
        <ele>1096.199951171875</ele>
        <time>2022-04-17T15:17:41.000Z</time>
      </trkpt>
      <trkpt lat="42.96503475867211818695068359375" lon="-2.364651896059513092041015625">
        <ele>1096.199951171875</ele>
        <time>2022-04-17T15:17:42.000Z</time>
      </trkpt>
      <trkpt lat="42.96504599042236804962158203125" lon="-2.36465482972562313079833984375">
        <ele>1096.199951171875</ele>
        <time>2022-04-17T15:17:43.000Z</time>
      </trkpt>
      <trkpt lat="42.96505336649715900421142578125" lon="-2.36465617083013057708740234375">
        <ele>1096</ele>
        <time>2022-04-17T15:17:44.000Z</time>
      </trkpt>
      <trkpt lat="42.96505521051585674285888671875" lon="-2.36466119997203350067138671875">
        <ele>1096</ele>
        <time>2022-04-17T15:17:45.000Z</time>
      </trkpt>
      <trkpt lat="42.965061664581298828125" lon="-2.36467192880809307098388671875">
        <ele>1095.800048828125</ele>
        <time>2022-04-17T15:17:46.000Z</time>
      </trkpt>
      <trkpt lat="42.96506945975124835968017578125" lon="-2.36467293463647365570068359375">
        <ele>1095.5999755859375</ele>
        <time>2022-04-17T15:17:47.000Z</time>
      </trkpt>
      <trkpt lat="42.96508203260600566864013671875" lon="-2.3646751977503299713134765625">
        <ele>1095.5999755859375</ele>
        <time>2022-04-17T15:17:48.000Z</time>
      </trkpt>
      <trkpt lat="42.9650930128991603851318359375" lon="-2.3646805621683597564697265625">
        <ele>1095.199951171875</ele>
        <time>2022-04-17T15:17:49.000Z</time>
      </trkpt>
      <trkpt lat="42.965096533298492431640625" lon="-2.3646891117095947265625">
        <ele>1095</ele>
        <time>2022-04-17T15:17:50.000Z</time>
      </trkpt>
      <trkpt lat="42.9650980420410633087158203125" lon="-2.36470310948789119720458984375">
        <ele>1094.800048828125</ele>
        <time>2022-04-17T15:17:51.000Z</time>
      </trkpt>
      <trkpt lat="42.9651017300784587860107421875" lon="-2.36471953801810741424560546875">
        <ele>1094.4000244140625</ele>
        <time>2022-04-17T15:17:52.000Z</time>
      </trkpt>
      <trkpt lat="42.965102232992649078369140625" lon="-2.3647318594157695770263671875">
        <ele>1094.4000244140625</ele>
        <time>2022-04-17T15:17:53.000Z</time>
      </trkpt>
      <trkpt lat="42.96510281972587108612060546875" lon="-2.36474853940308094024658203125">
        <ele>1094.199951171875</ele>
        <time>2022-04-17T15:17:54.000Z</time>
      </trkpt>
      <trkpt lat="42.96510902233421802520751953125" lon="-2.36476178281009197235107421875">
        <ele>1094.199951171875</ele>
        <time>2022-04-17T15:17:55.000Z</time>
      </trkpt>
      <trkpt lat="42.9651218466460704803466796875" lon="-2.36477318219840526580810546875">
        <ele>1094.199951171875</ele>
        <time>2022-04-17T15:17:56.000Z</time>
      </trkpt>
      <trkpt lat="42.96513450331985950469970703125" lon="-2.364781983196735382080078125">
        <ele>1094</ele>
        <time>2022-04-17T15:17:57.000Z</time>
      </trkpt>
      <trkpt lat="42.96514472924172878265380859375" lon="-2.36479028128087520599365234375">
        <ele>1094</ele>
        <time>2022-04-17T15:17:58.000Z</time>
      </trkpt>
      <trkpt lat="42.96516216360032558441162109375" lon="-2.36479707062244415283203125">
        <ele>1093.800048828125</ele>
        <time>2022-04-17T15:17:59.000Z</time>
      </trkpt>
      <trkpt lat="42.965181358158588409423828125" lon="-2.36478005535900592803955078125">
        <ele>1093.800048828125</ele>
        <time>2022-04-17T15:18:00.000Z</time>
      </trkpt>
      <trkpt lat="42.96520524658262729644775390625" lon="-2.364781312644481658935546875">
        <ele>1093.5999755859375</ele>
        <time>2022-04-17T15:18:01.000Z</time>
      </trkpt>
      <trkpt lat="42.965217567980289459228515625" lon="-2.36478365957736968994140625">
        <ele>1093.4000244140625</ele>
        <time>2022-04-17T15:18:02.000Z</time>
      </trkpt>
      <trkpt lat="42.96522486023604869842529296875" lon="-2.36479430459439754486083984375">
        <ele>1093.4000244140625</ele>
        <time>2022-04-17T15:18:03.000Z</time>
      </trkpt>
      <trkpt lat="42.96523760072886943817138671875" lon="-2.36480645835399627685546875">
        <ele>1093.4000244140625</ele>
        <time>2022-04-17T15:18:04.000Z</time>
      </trkpt>
      <trkpt lat="42.965246737003326416015625" lon="-2.36481559462845325469970703125">
        <ele>1093.199951171875</ele>
        <time>2022-04-17T15:18:05.000Z</time>
      </trkpt>
      <trkpt lat="42.965252436697483062744140625" lon="-2.36481986939907073974609375">
        <ele>1093.199951171875</ele>
        <time>2022-04-17T15:18:06.000Z</time>
      </trkpt>
      <trkpt lat="42.96526324935257434844970703125" lon="-2.364828586578369140625">
        <ele>1093</ele>
        <time>2022-04-17T15:18:07.000Z</time>
      </trkpt>
      <trkpt lat="42.96527020633220672607421875" lon="-2.36484811641275882720947265625">
        <ele>1093</ele>
        <time>2022-04-17T15:18:08.000Z</time>
      </trkpt>
      <trkpt lat="42.9652764089405536651611328125" lon="-2.3648646287620067596435546875">
        <ele>1092.800048828125</ele>
        <time>2022-04-17T15:18:09.000Z</time>
      </trkpt>
      <trkpt lat="42.96528370119631290435791015625" lon="-2.36488214693963527679443359375">
        <ele>1092.5999755859375</ele>
        <time>2022-04-17T15:18:10.000Z</time>
      </trkpt>
      <trkpt lat="42.96529032289981842041015625" lon="-2.36489304341375827789306640625">
        <ele>1092.199951171875</ele>
        <time>2022-04-17T15:18:11.000Z</time>
      </trkpt>
      <trkpt lat="42.96529702842235565185546875" lon="-2.36490109004080295562744140625">
        <ele>1091.800048828125</ele>
        <time>2022-04-17T15:18:12.000Z</time>
      </trkpt>
      <trkpt lat="42.96530515886843204498291015625" lon="-2.364912740886211395263671875">
        <ele>1091.5999755859375</ele>
        <time>2022-04-17T15:18:13.000Z</time>
      </trkpt>
      <trkpt lat="42.96530482359230518341064453125" lon="-2.36492405645549297332763671875">
        <ele>1091.199951171875</ele>
        <time>2022-04-17T15:18:14.000Z</time>
      </trkpt>
      <trkpt lat="42.96531136147677898406982421875" lon="-2.3649313487112522125244140625">
        <ele>1091</ele>
        <time>2022-04-17T15:18:15.000Z</time>
      </trkpt>
      <trkpt lat="42.96532091684639453887939453125" lon="-2.36493914388120174407958984375">
        <ele>1091</ele>
        <time>2022-04-17T15:18:16.000Z</time>
      </trkpt>
      <trkpt lat="42.965330891311168670654296875" lon="-2.3649484477937221527099609375">
        <ele>1090.800048828125</ele>
        <time>2022-04-17T15:18:17.000Z</time>
      </trkpt>
      <trkpt lat="42.9653424583375453948974609375" lon="-2.36495590768754482269287109375">
        <ele>1090.5999755859375</ele>
        <time>2022-04-17T15:18:18.000Z</time>
      </trkpt>
      <trkpt lat="42.96535058878362178802490234375" lon="-2.36496596597135066986083984375">
        <ele>1090</ele>
        <time>2022-04-17T15:18:19.000Z</time>
      </trkpt>
      <trkpt lat="42.965355701744556427001953125" lon="-2.3649786226451396942138671875">
        <ele>1089.5999755859375</ele>
        <time>2022-04-17T15:18:20.000Z</time>
      </trkpt>
      <trkpt lat="42.96536274254322052001953125" lon="-2.36499077640473842620849609375">
        <ele>1089.4000244140625</ele>
        <time>2022-04-17T15:18:21.000Z</time>
      </trkpt>
      <trkpt lat="42.9653672687709331512451171875" lon="-2.36500628292560577392578125">
        <ele>1089</ele>
        <time>2022-04-17T15:18:22.000Z</time>
      </trkpt>
      <trkpt lat="42.96537070535123348236083984375" lon="-2.36501893959939479827880859375">
        <ele>1089</ele>
        <time>2022-04-17T15:18:23.000Z</time>
      </trkpt>
      <trkpt lat="42.965371794998645782470703125" lon="-2.36503251828253269195556640625">
        <ele>1088.800048828125</ele>
        <time>2022-04-17T15:18:24.000Z</time>
      </trkpt>
      <trkpt lat="42.96537556685507297515869140625" lon="-2.3650419898331165313720703125">
        <ele>1088.800048828125</ele>
        <time>2022-04-17T15:18:25.000Z</time>
      </trkpt>
      <trkpt lat="42.96537506394088268280029296875" lon="-2.36505053937435150146484375">
        <ele>1088.800048828125</ele>
        <time>2022-04-17T15:18:26.000Z</time>
      </trkpt>
      <trkpt lat="42.96536986716091632843017578125" lon="-2.36505732871592044830322265625">
        <ele>1088.5999755859375</ele>
        <time>2022-04-17T15:18:27.000Z</time>
      </trkpt>
      <trkpt lat="42.9653642512857913970947265625" lon="-2.3650691471993923187255859375">
        <ele>1088.199951171875</ele>
        <time>2022-04-17T15:18:28.000Z</time>
      </trkpt>
      <trkpt lat="42.96536215580999851226806640625" lon="-2.36508415080606937408447265625">
        <ele>1088</ele>
        <time>2022-04-17T15:18:29.000Z</time>
      </trkpt>
      <trkpt lat="42.9653660953044891357421875" lon="-2.36509286798536777496337890625">
        <ele>1087.4000244140625</ele>
        <time>2022-04-17T15:18:30.000Z</time>
      </trkpt>
      <trkpt lat="42.96537053771317005157470703125" lon="-2.36509806476533412933349609375">
        <ele>1087</ele>
        <time>2022-04-17T15:18:31.000Z</time>
      </trkpt>
      <trkpt lat="42.96537741087377071380615234375" lon="-2.36510192044079303741455078125">
        <ele>1086.5999755859375</ele>
        <time>2022-04-17T15:18:32.000Z</time>
      </trkpt>
      <trkpt lat="42.96538244001567363739013671875" lon="-2.36511818133294582366943359375">
        <ele>1086.4000244140625</ele>
        <time>2022-04-17T15:18:33.000Z</time>
      </trkpt>
      <trkpt lat="42.9653830267488956451416015625" lon="-2.3651362024247646331787109375">
        <ele>1086.199951171875</ele>
        <time>2022-04-17T15:18:34.000Z</time>
      </trkpt>
      <trkpt lat="42.96538889408111572265625" lon="-2.3651506192982196807861328125">
        <ele>1086</ele>
        <time>2022-04-17T15:18:35.000Z</time>
      </trkpt>
      <trkpt lat="42.96539249829947948455810546875" lon="-2.36516243778169155120849609375">
        <ele>1086</ele>
        <time>2022-04-17T15:18:36.000Z</time>
      </trkpt>
      <trkpt lat="42.965395934879779815673828125" lon="-2.36517257988452911376953125">
        <ele>1085.800048828125</ele>
        <time>2022-04-17T15:18:37.000Z</time>
      </trkpt>
      <trkpt lat="42.9653961025178432464599609375" lon="-2.3651786148548126220703125">
        <ele>1085.800048828125</ele>
        <time>2022-04-17T15:18:38.000Z</time>
      </trkpt>
      <trkpt lat="42.965402305126190185546875" lon="-2.36517928540706634521484375">
        <ele>1085.4000244140625</ele>
        <time>2022-04-17T15:18:39.000Z</time>
      </trkpt>
      <trkpt lat="42.9654054902493953704833984375" lon="-2.36518909223377704620361328125">
        <ele>1085.199951171875</ele>
        <time>2022-04-17T15:18:40.000Z</time>
      </trkpt>
      <trkpt lat="42.96540708281099796295166015625" lon="-2.36520384438335895538330078125">
        <ele>1085</ele>
        <time>2022-04-17T15:18:41.000Z</time>
      </trkpt>
      <trkpt lat="42.96540976502001285552978515625" lon="-2.3652159981429576873779296875">
        <ele>1085</ele>
        <time>2022-04-17T15:18:42.000Z</time>
      </trkpt>
      <trkpt lat="42.96542418189346790313720703125" lon="-2.3652180097997188568115234375">
        <ele>1084.800048828125</ele>
        <time>2022-04-17T15:18:43.000Z</time>
      </trkpt>
      <trkpt lat="42.96543071977794170379638671875" lon="-2.36522479914128780364990234375">
        <ele>1084.800048828125</ele>
        <time>2022-04-17T15:18:44.000Z</time>
      </trkpt>
      <trkpt lat="42.96543742530047893524169921875" lon="-2.365231253206729888916015625">
        <ele>1084.4000244140625</ele>
        <time>2022-04-17T15:18:45.000Z</time>
      </trkpt>
      <trkpt lat="42.96544228680431842803955078125" lon="-2.36523770727217197418212890625">
        <ele>1084.199951171875</ele>
        <time>2022-04-17T15:18:46.000Z</time>
      </trkpt>
      <trkpt lat="42.965448237955570220947265625" lon="-2.365243323147296905517578125">
        <ele>1084</ele>
        <time>2022-04-17T15:18:47.000Z</time>
      </trkpt>
      <trkpt lat="42.96544949524104595184326171875" lon="-2.36525681801140308380126953125">
        <ele>1083.800048828125</ele>
        <time>2022-04-17T15:18:48.000Z</time>
      </trkpt>
      <trkpt lat="42.965448237955570220947265625" lon="-2.36527291126549243927001953125">
        <ele>1083.5999755859375</ele>
        <time>2022-04-17T15:18:49.000Z</time>
      </trkpt>
      <trkpt lat="42.96545133925974369049072265625" lon="-2.3652773536741733551025390625">
        <ele>1083.4000244140625</ele>
        <time>2022-04-17T15:18:50.000Z</time>
      </trkpt>
      <trkpt lat="42.9654551111161708831787109375" lon="-2.36528095789253711700439453125">
        <ele>1083.4000244140625</ele>
        <time>2022-04-17T15:18:51.000Z</time>
      </trkpt>
      <trkpt lat="42.96545569784939289093017578125" lon="-2.36528716050088405609130859375">
        <ele>1083.199951171875</ele>
        <time>2022-04-17T15:18:52.000Z</time>
      </trkpt>
      <trkpt lat="42.96545972116291522979736328125" lon="-2.36528850160539150238037109375">
        <ele>1083</ele>
        <time>2022-04-17T15:18:53.000Z</time>
      </trkpt>
      <trkpt lat="42.96546139754354953765869140625" lon="-2.365293614566326141357421875">
        <ele>1082.800048828125</ele>
        <time>2022-04-17T15:18:54.000Z</time>
      </trkpt>
      <trkpt lat="42.96546223573386669158935546875" lon="-2.3652971349656581878662109375">
        <ele>1082.5999755859375</ele>
        <time>2022-04-17T15:18:55.000Z</time>
      </trkpt>
      <trkpt lat="42.9654621519148349761962890625" lon="-2.36530400812625885009765625">
        <ele>1082.5999755859375</ele>
        <time>2022-04-17T15:18:56.000Z</time>
      </trkpt>
      <trkpt lat="42.96546399593353271484375" lon="-2.36531096510589122772216796875">
        <ele>1082.4000244140625</ele>
        <time>2022-04-17T15:18:57.000Z</time>
      </trkpt>
      <trkpt lat="42.9654658399522304534912109375" lon="-2.36532236449420452117919921875">
        <ele>1082.199951171875</ele>
        <time>2022-04-17T15:18:58.000Z</time>
      </trkpt>
      <trkpt lat="42.96547028236091136932373046875" lon="-2.3653299920260906219482421875">
        <ele>1082</ele>
        <time>2022-04-17T15:18:59.000Z</time>
      </trkpt>
      <trkpt lat="42.9654772393405437469482421875" lon="-2.3653370328247547149658203125">
        <ele>1081.800048828125</ele>
        <time>2022-04-17T15:19:00.000Z</time>
      </trkpt>
      <trkpt lat="42.96548335812985897064208984375" lon="-2.36533611081540584564208984375">
        <ele>1081.800048828125</ele>
        <time>2022-04-17T15:19:01.000Z</time>
      </trkpt>
      <trkpt lat="42.96548989601433277130126953125" lon="-2.3653323389589786529541015625">
        <ele>1081.5999755859375</ele>
        <time>2022-04-17T15:19:02.000Z</time>
      </trkpt>
      <trkpt lat="42.9654946736991405487060546875" lon="-2.36533644609153270721435546875">
        <ele>1081.4000244140625</ele>
        <time>2022-04-17T15:19:03.000Z</time>
      </trkpt>
      <trkpt lat="42.9655013792216777801513671875" lon="-2.36534063704311847686767578125">
        <ele>1081.4000244140625</ele>
        <time>2022-04-17T15:19:04.000Z</time>
      </trkpt>
      <trkpt lat="42.9655015468597412109375" lon="-2.3653487674891948699951171875">
        <ele>1081</ele>
        <time>2022-04-17T15:19:05.000Z</time>
      </trkpt>
      <trkpt lat="42.9655003733932971954345703125" lon="-2.36535790376365184783935546875">
        <ele>1080.800048828125</ele>
        <time>2022-04-17T15:19:06.000Z</time>
      </trkpt>
      <trkpt lat="42.96550489962100982666015625" lon="-2.36536377109587192535400390625">
        <ele>1080.5999755859375</ele>
        <time>2022-04-17T15:19:07.000Z</time>
      </trkpt>
      <trkpt lat="42.965510599315166473388671875" lon="-2.365368045866489410400390625">
        <ele>1080.4000244140625</ele>
        <time>2022-04-17T15:19:08.000Z</time>
      </trkpt>
      <trkpt lat="42.9655154608190059661865234375" lon="-2.365374751389026641845703125">
        <ele>1080.199951171875</ele>
        <time>2022-04-17T15:19:09.000Z</time>
      </trkpt>
      <trkpt lat="42.96551965177059173583984375" lon="-2.3653866536915302276611328125">
        <ele>1080</ele>
        <time>2022-04-17T15:19:10.000Z</time>
      </trkpt>
      <trkpt lat="42.96552208252251148223876953125" lon="-2.3653993941843509674072265625">
        <ele>1079.800048828125</ele>
        <time>2022-04-17T15:19:11.000Z</time>
      </trkpt>
      <trkpt lat="42.96552610583603382110595703125" lon="-2.3654148168861865997314453125">
        <ele>1079.800048828125</ele>
        <time>2022-04-17T15:19:12.000Z</time>
      </trkpt>
      <trkpt lat="42.96552794985473155975341796875" lon="-2.36542738974094390869140625">
        <ele>1079.4000244140625</ele>
        <time>2022-04-17T15:19:13.000Z</time>
      </trkpt>
      <trkpt lat="42.96553063206374645233154296875" lon="-2.36543552018702030181884765625">
        <ele>1079.199951171875</ele>
        <time>2022-04-17T15:19:14.000Z</time>
      </trkpt>
      <trkpt lat="42.96552996151149272918701171875" lon="-2.3654443211853504180908203125">
        <ele>1079.199951171875</ele>
        <time>2022-04-17T15:19:15.000Z</time>
      </trkpt>
      <trkpt lat="42.9655335657298564910888671875" lon="-2.36545111052691936492919921875">
        <ele>1079.199951171875</ele>
        <time>2022-04-17T15:19:16.000Z</time>
      </trkpt>
      <trkpt lat="42.965536080300807952880859375" lon="-2.36545949243009090423583984375">
        <ele>1079</ele>
        <time>2022-04-17T15:19:17.000Z</time>
      </trkpt>
      <trkpt lat="42.9655399359762668609619140625" lon="-2.36546762287616729736328125">
        <ele>1078.800048828125</ele>
        <time>2022-04-17T15:19:18.000Z</time>
      </trkpt>
      <trkpt lat="42.96554337255656719207763671875" lon="-2.36547776497900485992431640625">
        <ele>1078.5999755859375</ele>
        <time>2022-04-17T15:19:19.000Z</time>
      </trkpt>
      <trkpt lat="42.96554890461266040802001953125" lon="-2.36548949964344501495361328125">
        <ele>1078.4000244140625</ele>
        <time>2022-04-17T15:19:20.000Z</time>
      </trkpt>
      <trkpt lat="42.96555426903069019317626953125" lon="-2.3655009828507900238037109375">
        <ele>1078.4000244140625</ele>
        <time>2022-04-17T15:19:21.000Z</time>
      </trkpt>
      <trkpt lat="42.965557873249053955078125" lon="-2.36550894565880298614501953125">
        <ele>1078.199951171875</ele>
        <time>2022-04-17T15:19:22.000Z</time>
      </trkpt>
      <trkpt lat="42.96556147746741771697998046875" lon="-2.36551766283810138702392578125">
        <ele>1078</ele>
        <time>2022-04-17T15:19:23.000Z</time>
      </trkpt>
      <trkpt lat="42.96556332148611545562744140625" lon="-2.365530990064144134521484375">
        <ele>1078</ele>
        <time>2022-04-17T15:19:24.000Z</time>
      </trkpt>
      <trkpt lat="42.96556650660932064056396484375" lon="-2.36554247327148914337158203125">
        <ele>1077.5999755859375</ele>
        <time>2022-04-17T15:19:25.000Z</time>
      </trkpt>
      <trkpt lat="42.9655697755515575408935546875" lon="-2.3655489273369312286376953125">
        <ele>1077.5999755859375</ele>
        <time>2022-04-17T15:19:26.000Z</time>
      </trkpt>
      <trkpt lat="42.96557086519896984100341796875" lon="-2.36555756069719791412353515625">
        <ele>1077.4000244140625</ele>
        <time>2022-04-17T15:19:27.000Z</time>
      </trkpt>
      <trkpt lat="42.9655764810740947723388671875" lon="-2.3655620031058788299560546875">
        <ele>1077.199951171875</ele>
        <time>2022-04-17T15:19:28.000Z</time>
      </trkpt>
      <trkpt lat="42.96557757072150707244873046875" lon="-2.36556661315262317657470703125">
        <ele>1077</ele>
        <time>2022-04-17T15:19:29.000Z</time>
      </trkpt>
      <trkpt lat="42.96557723544538021087646484375" lon="-2.3655780963599681854248046875">
        <ele>1076.5999755859375</ele>
        <time>2022-04-17T15:19:30.000Z</time>
      </trkpt>
      <trkpt lat="42.9655801691114902496337890625" lon="-2.36558723263442516326904296875">
        <ele>1076.4000244140625</ele>
        <time>2022-04-17T15:19:31.000Z</time>
      </trkpt>
      <trkpt lat="42.9655848629772663116455078125" lon="-2.3655972070991992950439453125">
        <ele>1076.199951171875</ele>
        <time>2022-04-17T15:19:32.000Z</time>
      </trkpt>
      <trkpt lat="42.965592406690120697021484375" lon="-2.3656032420694828033447265625">
        <ele>1076</ele>
        <time>2022-04-17T15:19:33.000Z</time>
      </trkpt>
      <trkpt lat="42.9655994474887847900390625" lon="-2.36560919322073459625244140625">
        <ele>1075.800048828125</ele>
        <time>2022-04-17T15:19:34.000Z</time>
      </trkpt>
      <trkpt lat="42.965600453317165374755859375" lon="-2.36561514437198638916015625">
        <ele>1075.5999755859375</ele>
        <time>2022-04-17T15:19:35.000Z</time>
      </trkpt>
      <trkpt lat="42.96559986658394336700439453125" lon="-2.3656223528087139129638671875">
        <ele>1075.4000244140625</ele>
        <time>2022-04-17T15:19:36.000Z</time>
      </trkpt>
      <trkpt lat="42.96560120768845081329345703125" lon="-2.365630231797695159912109375">
        <ele>1075.4000244140625</ele>
        <time>2022-04-17T15:19:37.000Z</time>
      </trkpt>
      <trkpt lat="42.96560791321098804473876953125" lon="-2.36563366837799549102783203125">
        <ele>1075.199951171875</ele>
        <time>2022-04-17T15:19:38.000Z</time>
      </trkpt>
      <trkpt lat="42.96561428345739841461181640625" lon="-2.3656347580254077911376953125">
        <ele>1074.800048828125</ele>
        <time>2022-04-17T15:19:39.000Z</time>
      </trkpt>
      <trkpt lat="42.9656173847615718841552734375" lon="-2.36564037390053272247314453125">
        <ele>1074.5999755859375</ele>
        <time>2022-04-17T15:19:40.000Z</time>
      </trkpt>
      <trkpt lat="42.965615876019001007080078125" lon="-2.365648336708545684814453125">
        <ele>1074.5999755859375</ele>
        <time>2022-04-17T15:19:41.000Z</time>
      </trkpt>
      <trkpt lat="42.96561948023736476898193359375" lon="-2.36564992927014827728271484375">
        <ele>1074.4000244140625</ele>
        <time>2022-04-17T15:19:42.000Z</time>
      </trkpt>
      <trkpt lat="42.96562249772250652313232421875" lon="-2.36565277911722660064697265625">
        <ele>1074.4000244140625</ele>
        <time>2022-04-17T15:19:43.000Z</time>
      </trkpt>
      <trkpt lat="42.9656244255602359771728515625" lon="-2.36566434614360332489013671875">
        <ele>1074.199951171875</ele>
        <time>2022-04-17T15:19:44.000Z</time>
      </trkpt>
      <trkpt lat="42.96562383882701396942138671875" lon="-2.3656780086457729339599609375">
        <ele>1074.199951171875</ele>
        <time>2022-04-17T15:19:45.000Z</time>
      </trkpt>
      <trkpt lat="42.96561948023736476898193359375" lon="-2.36569334752857685089111328125">
        <ele>1074</ele>
        <time>2022-04-17T15:19:46.000Z</time>
      </trkpt>
      <trkpt lat="42.96562953852117061614990234375" lon="-2.36569938249886035919189453125">
        <ele>1073.800048828125</ele>
        <time>2022-04-17T15:19:47.000Z</time>
      </trkpt>
      <trkpt lat="42.965631298720836639404296875" lon="-2.36570340581238269805908203125">
        <ele>1073.5999755859375</ele>
        <time>2022-04-17T15:19:48.000Z</time>
      </trkpt>
      <trkpt lat="42.9656338132917881011962890625" lon="-2.36570633947849273681640625">
        <ele>1073.199951171875</ele>
        <time>2022-04-17T15:19:49.000Z</time>
      </trkpt>
      <trkpt lat="42.96563440002501010894775390625" lon="-2.36571111716330051422119140625">
        <ele>1073</ele>
        <time>2022-04-17T15:19:50.000Z</time>
      </trkpt>
      <trkpt lat="42.9656364955008029937744140625" lon="-2.3657162301242351531982421875">
        <ele>1073</ele>
        <time>2022-04-17T15:19:51.000Z</time>
      </trkpt>
      <trkpt lat="42.965640015900135040283203125" lon="-2.36572285182774066925048828125">
        <ele>1072.800048828125</ele>
        <time>2022-04-17T15:19:52.000Z</time>
      </trkpt>
      <trkpt lat="42.96563875861465930938720703125" lon="-2.36573458649218082427978515625">
        <ele>1072.4000244140625</ele>
        <time>2022-04-17T15:19:53.000Z</time>
      </trkpt>
      <trkpt lat="42.96563959680497646331787109375" lon="-2.3657467402517795562744140625">
        <ele>1072.199951171875</ele>
        <time>2022-04-17T15:19:54.000Z</time>
      </trkpt>
      <trkpt lat="42.96564035117626190185546875" lon="-2.365754954516887664794921875">
        <ele>1072.199951171875</ele>
        <time>2022-04-17T15:19:55.000Z</time>
      </trkpt>
      <trkpt lat="42.965643703937530517578125" lon="-2.3657638393342494964599609375">
        <ele>1071.800048828125</ele>
        <time>2022-04-17T15:19:56.000Z</time>
      </trkpt>
      <trkpt lat="42.965646721422672271728515625" lon="-2.36577146686613559722900390625">
        <ele>1071.5999755859375</ele>
        <time>2022-04-17T15:19:57.000Z</time>
      </trkpt>
      <trkpt lat="42.96564848162233829498291015625" lon="-2.3657816089689731597900390625">
        <ele>1071.4000244140625</ele>
        <time>2022-04-17T15:19:58.000Z</time>
      </trkpt>
      <trkpt lat="42.96564395539462566375732421875" lon="-2.36578948795795440673828125">
        <ele>1071.199951171875</ele>
        <time>2022-04-17T15:19:59.000Z</time>
      </trkpt>
      <trkpt lat="42.9656418599188327789306640625" lon="-2.365793846547603607177734375">
        <ele>1071.199951171875</ele>
        <time>2022-04-17T15:20:00.000Z</time>
      </trkpt>
      <trkpt lat="42.96564077027142047882080078125" lon="-2.36579946242272853851318359375">
        <ele>1071</ele>
        <time>2022-04-17T15:20:01.000Z</time>
      </trkpt>
      <trkpt lat="42.9656425304710865020751953125" lon="-2.3658080957829952239990234375">
        <ele>1071</ele>
        <time>2022-04-17T15:20:02.000Z</time>
      </trkpt>
      <trkpt lat="42.96564412303268909454345703125" lon="-2.3658194951713085174560546875">
        <ele>1070.800048828125</ele>
        <time>2022-04-17T15:20:03.000Z</time>
      </trkpt>
      <trkpt lat="42.9656458832323551177978515625" lon="-2.365830056369304656982421875">
        <ele>1070.4000244140625</ele>
        <time>2022-04-17T15:20:04.000Z</time>
      </trkpt>
      <trkpt lat="42.96565015800297260284423828125" lon="-2.365838102996349334716796875">
        <ele>1070.199951171875</ele>
        <time>2022-04-17T15:20:05.000Z</time>
      </trkpt>
      <trkpt lat="42.96565585769712924957275390625" lon="-2.36584858037531375885009765625">
        <ele>1070</ele>
        <time>2022-04-17T15:20:06.000Z</time>
      </trkpt>
      <trkpt lat="42.965659461915493011474609375" lon="-2.36585847102105617523193359375">
        <ele>1070</ele>
        <time>2022-04-17T15:20:07.000Z</time>
      </trkpt>
      <trkpt lat="42.965662814676761627197265625" lon="-2.365867607295513153076171875">
        <ele>1069.5999755859375</ele>
        <time>2022-04-17T15:20:08.000Z</time>
      </trkpt>
      <trkpt lat="42.96566943638026714324951171875" lon="-2.36587473191320896148681640625">
        <ele>1069.199951171875</ele>
        <time>2022-04-17T15:20:09.000Z</time>
      </trkpt>
      <trkpt lat="42.965672872960567474365234375" lon="-2.3658821918070316314697265625">
        <ele>1069</ele>
        <time>2022-04-17T15:20:10.000Z</time>
      </trkpt>
      <trkpt lat="42.9656763933598995208740234375" lon="-2.3658919148147106170654296875">
        <ele>1069</ele>
        <time>2022-04-17T15:20:11.000Z</time>
      </trkpt>
      <trkpt lat="42.965679578483104705810546875" lon="-2.3659063316881656646728515625">
        <ele>1068.5999755859375</ele>
        <time>2022-04-17T15:20:12.000Z</time>
      </trkpt>
      <trkpt lat="42.9656852781772613525390625" lon="-2.36591597087681293487548828125">
        <ele>1068.199951171875</ele>
        <time>2022-04-17T15:20:13.000Z</time>
      </trkpt>
      <trkpt lat="42.96568687073886394500732421875" lon="-2.36592653207480907440185546875">
        <ele>1068</ele>
        <time>2022-04-17T15:20:14.000Z</time>
      </trkpt>
      <trkpt lat="42.96568603254854679107666015625" lon="-2.36593759618699550628662109375">
        <ele>1067.800048828125</ele>
        <time>2022-04-17T15:20:15.000Z</time>
      </trkpt>
      <trkpt lat="42.96568594872951507568359375" lon="-2.365946732461452484130859375">
        <ele>1067.5999755859375</ele>
        <time>2022-04-17T15:20:16.000Z</time>
      </trkpt>
      <trkpt lat="42.9656867869198322296142578125" lon="-2.36595301888883113861083984375">
        <ele>1067.4000244140625</ele>
        <time>2022-04-17T15:20:17.000Z</time>
      </trkpt>
      <trkpt lat="42.9656851105391979217529296875" lon="-2.36595989204943180084228515625">
        <ele>1067.4000244140625</ele>
        <time>2022-04-17T15:20:18.000Z</time>
      </trkpt>
      <trkpt lat="42.96569156460464000701904296875" lon="-2.36596827395260334014892578125">
        <ele>1067.199951171875</ele>
        <time>2022-04-17T15:20:19.000Z</time>
      </trkpt>
      <trkpt lat="42.9656951688230037689208984375" lon="-2.3659777455031871795654296875">
        <ele>1067</ele>
        <time>2022-04-17T15:20:20.000Z</time>
      </trkpt>
      <trkpt lat="42.965708412230014801025390625" lon="-2.36598269082605838775634765625">
        <ele>1067</ele>
        <time>2022-04-17T15:20:21.000Z</time>
      </trkpt>
      <trkpt lat="42.96571545302867889404296875" lon="-2.365995012223720550537109375">
        <ele>1067</ele>
        <time>2022-04-17T15:20:22.000Z</time>
      </trkpt>
      <trkpt lat="42.96571754850447177886962890625" lon="-2.3660055734217166900634765625">
        <ele>1066.800048828125</ele>
        <time>2022-04-17T15:20:23.000Z</time>
      </trkpt>
      <trkpt lat="42.96572173945605754852294921875" lon="-2.36601470969617366790771484375">
        <ele>1066.5999755859375</ele>
        <time>2022-04-17T15:20:24.000Z</time>
      </trkpt>
      <trkpt lat="42.9657290317118167877197265625" lon="-2.3660226725041866302490234375">
        <ele>1066.4000244140625</ele>
        <time>2022-04-17T15:20:25.000Z</time>
      </trkpt>
      <trkpt lat="42.9657343961298465728759765625" lon="-2.36602895893156528472900390625">
        <ele>1066.199951171875</ele>
        <time>2022-04-17T15:20:26.000Z</time>
      </trkpt>
      <trkpt lat="42.96574034728109836578369140625" lon="-2.3660342395305633544921875">
        <ele>1066</ele>
        <time>2022-04-17T15:20:27.000Z</time>
      </trkpt>
      <trkpt lat="42.96574269421398639678955078125" lon="-2.36604019068181514739990234375">
        <ele>1065.800048828125</ele>
        <time>2022-04-17T15:20:28.000Z</time>
      </trkpt>
      <trkpt lat="42.965745963156223297119140625" lon="-2.3660501651465892791748046875">
        <ele>1065.5999755859375</ele>
        <time>2022-04-17T15:20:29.000Z</time>
      </trkpt>
      <trkpt lat="42.96575124375522136688232421875" lon="-2.36605712212622165679931640625">
        <ele>1065.199951171875</ele>
        <time>2022-04-17T15:20:30.000Z</time>
      </trkpt>
      <trkpt lat="42.9657565243542194366455078125" lon="-2.3660672642290592193603515625">
        <ele>1065.199951171875</ele>
        <time>2022-04-17T15:20:31.000Z</time>
      </trkpt>
      <trkpt lat="42.96576063148677349090576171875" lon="-2.36607522703707218170166015625">
        <ele>1065</ele>
        <time>2022-04-17T15:20:32.000Z</time>
      </trkpt>
      <trkpt lat="42.965764068067073822021484375" lon="-2.3660850338637828826904296875">
        <ele>1065</ele>
        <time>2022-04-17T15:20:33.000Z</time>
      </trkpt>
      <trkpt lat="42.96576918102800846099853515625" lon="-2.36609584651887416839599609375">
        <ele>1064.800048828125</ele>
        <time>2022-04-17T15:20:34.000Z</time>
      </trkpt>
      <trkpt lat="42.96577605418860912322998046875" lon="-2.3661101795732975006103515625">
        <ele>1064.5999755859375</ele>
        <time>2022-04-17T15:20:35.000Z</time>
      </trkpt>
      <trkpt lat="42.96578007750213146209716796875" lon="-2.36612099222838878631591796875">
        <ele>1064.4000244140625</ele>
        <time>2022-04-17T15:20:36.000Z</time>
      </trkpt>
      <trkpt lat="42.9657826758921146392822265625" lon="-2.36612769775092601776123046875">
        <ele>1064.199951171875</ele>
        <time>2022-04-17T15:20:37.000Z</time>
      </trkpt>
      <trkpt lat="42.96578519046306610107421875" lon="-2.3661339841783046722412109375">
        <ele>1064.199951171875</ele>
        <time>2022-04-17T15:20:38.000Z</time>
      </trkpt>
      <trkpt lat="42.9657853581011295318603515625" lon="-2.36614211462438106536865234375">
        <ele>1064</ele>
        <time>2022-04-17T15:20:39.000Z</time>
      </trkpt>
      <trkpt lat="42.96578460372984409332275390625" lon="-2.36615158617496490478515625">
        <ele>1063.800048828125</ele>
        <time>2022-04-17T15:20:40.000Z</time>
      </trkpt>
      <trkpt lat="42.96578711830079555511474609375" lon="-2.36615703441202640533447265625">
        <ele>1063.5999755859375</ele>
        <time>2022-04-17T15:20:41.000Z</time>
      </trkpt>
      <trkpt lat="42.96578996814787387847900390625" lon="-2.3661631532013416290283203125">
        <ele>1063.199951171875</ele>
        <time>2022-04-17T15:20:42.000Z</time>
      </trkpt>
      <trkpt lat="42.965793572366237640380859375" lon="-2.36617706716060638427734375">
        <ele>1063</ele>
        <time>2022-04-17T15:20:43.000Z</time>
      </trkpt>
      <trkpt lat="42.96579399146139621734619140625" lon="-2.36619450151920318603515625">
        <ele>1062.800048828125</ele>
        <time>2022-04-17T15:20:44.000Z</time>
      </trkpt>
      <trkpt lat="42.96579457819461822509765625" lon="-2.366211600601673126220703125">
        <ele>1062.800048828125</ele>
        <time>2022-04-17T15:20:45.000Z</time>
      </trkpt>
      <trkpt lat="42.965798266232013702392578125" lon="-2.3662224970757961273193359375">
        <ele>1062.5999755859375</ele>
        <time>2022-04-17T15:20:46.000Z</time>
      </trkpt>
      <trkpt lat="42.9658021219074726104736328125" lon="-2.36623012460768222808837890625">
        <ele>1062.199951171875</ele>
        <time>2022-04-17T15:20:47.000Z</time>
      </trkpt>
      <trkpt lat="42.96580472029745578765869140625" lon="-2.3662379197776317596435546875">
        <ele>1062</ele>
        <time>2022-04-17T15:20:48.000Z</time>
      </trkpt>
      <trkpt lat="42.96580673195421695709228515625" lon="-2.36624990589916706085205078125">
        <ele>1061.800048828125</ele>
        <time>2022-04-17T15:20:49.000Z</time>
      </trkpt>
      <trkpt lat="42.96581008471548557281494140625" lon="-2.366263568401336669921875">
        <ele>1061.5999755859375</ele>
        <time>2022-04-17T15:20:50.000Z</time>
      </trkpt>
      <trkpt lat="42.96581511385738849639892578125" lon="-2.36627303995192050933837890625">
        <ele>1061.4000244140625</ele>
        <time>2022-04-17T15:20:51.000Z</time>
      </trkpt>
      <trkpt lat="42.96581913717091083526611328125" lon="-2.36628125421702861785888671875">
        <ele>1061.199951171875</ele>
        <time>2022-04-17T15:20:52.000Z</time>
      </trkpt>
      <trkpt lat="42.9658229090273380279541015625" lon="-2.3662865348160266876220703125">
        <ele>1061.199951171875</ele>
        <time>2022-04-17T15:20:53.000Z</time>
      </trkpt>
      <trkpt lat="42.9658282734453678131103515625" lon="-2.36629634164273738861083984375">
        <ele>1061</ele>
        <time>2022-04-17T15:20:54.000Z</time>
      </trkpt>
      <trkpt lat="42.96583305113017559051513671875" lon="-2.36630572937428951263427734375">
        <ele>1060.5999755859375</ele>
        <time>2022-04-17T15:20:55.000Z</time>
      </trkpt>
      <trkpt lat="42.96583950519561767578125" lon="-2.36631679348647594451904296875">
        <ele>1060.4000244140625</ele>
        <time>2022-04-17T15:20:56.000Z</time>
      </trkpt>
      <trkpt lat="42.96584554016590118408203125" lon="-2.36632785759866237640380859375">
        <ele>1060.199951171875</ele>
        <time>2022-04-17T15:20:57.000Z</time>
      </trkpt>
      <trkpt lat="42.96585358679294586181640625" lon="-2.36633540131151676177978515625">
        <ele>1060</ele>
        <time>2022-04-17T15:20:58.000Z</time>
      </trkpt>
      <trkpt lat="42.96586289070546627044677734375" lon="-2.36634160391986370086669921875">
        <ele>1060</ele>
        <time>2022-04-17T15:20:59.000Z</time>
      </trkpt>
      <trkpt lat="42.965868674218654632568359375" lon="-2.3663480579853057861328125">
        <ele>1059.800048828125</ele>
        <time>2022-04-17T15:21:00.000Z</time>
      </trkpt>
      <trkpt lat="42.96587395481765270233154296875" lon="-2.36635333858430385589599609375">
        <ele>1059.800048828125</ele>
        <time>2022-04-17T15:21:01.000Z</time>
      </trkpt>
      <trkpt lat="42.965878061950206756591796875" lon="-2.36636574380099773406982421875">
        <ele>1059.5999755859375</ele>
        <time>2022-04-17T15:21:02.000Z</time>
      </trkpt>
      <trkpt lat="42.96588351018726825714111328125" lon="-2.3663763888180255889892578125">
        <ele>1059.5999755859375</ele>
        <time>2022-04-17T15:21:03.000Z</time>
      </trkpt>
      <trkpt lat="42.96588568948209285736083984375" lon="-2.36638921312987804412841796875">
        <ele>1059.4000244140625</ele>
        <time>2022-04-17T15:21:04.000Z</time>
      </trkpt>
      <trkpt lat="42.9658876173198223114013671875" lon="-2.36639860086143016815185546875">
        <ele>1059.199951171875</ele>
        <time>2022-04-17T15:21:05.000Z</time>
      </trkpt>
      <trkpt lat="42.965890802443027496337890625" lon="-2.36641150899231433868408203125">
        <ele>1059</ele>
        <time>2022-04-17T15:21:06.000Z</time>
      </trkpt>
      <trkpt lat="42.9658923111855983734130859375" lon="-2.366422824561595916748046875">
        <ele>1059</ele>
        <time>2022-04-17T15:21:07.000Z</time>
      </trkpt>
      <trkpt lat="42.965895831584930419921875" lon="-2.36643833108246326446533203125">
        <ele>1058.800048828125</ele>
        <time>2022-04-17T15:21:08.000Z</time>
      </trkpt>
      <trkpt lat="42.96590295620262622833251953125" lon="-2.3664555139839649200439453125">
        <ele>1058.5999755859375</ele>
        <time>2022-04-17T15:21:09.000Z</time>
      </trkpt>
      <trkpt lat="42.96590991318225860595703125" lon="-2.36647018231451511383056640625">
        <ele>1058.5999755859375</ele>
        <time>2022-04-17T15:21:10.000Z</time>
      </trkpt>
      <trkpt lat="42.965915612876415252685546875" lon="-2.36648325808346271514892578125">
        <ele>1058.5999755859375</ele>
        <time>2022-04-17T15:21:11.000Z</time>
      </trkpt>
      <trkpt lat="42.9659218154847621917724609375" lon="-2.366493903100490570068359375">
        <ele>1058.5999755859375</ele>
        <time>2022-04-17T15:21:12.000Z</time>
      </trkpt>
      <trkpt lat="42.96592625789344310760498046875" lon="-2.36650488339364528656005859375">
        <ele>1058.4000244140625</ele>
        <time>2022-04-17T15:21:13.000Z</time>
      </trkpt>
      <trkpt lat="42.96593095175921916961669921875" lon="-2.36651158891618251800537109375">
        <ele>1058.4000244140625</ele>
        <time>2022-04-17T15:21:14.000Z</time>
      </trkpt>
      <trkpt lat="42.96593807637691497802734375" lon="-2.3665198870003223419189453125">
        <ele>1058</ele>
        <time>2022-04-17T15:21:15.000Z</time>
      </trkpt>
      <trkpt lat="42.9659446142613887786865234375" lon="-2.36653371714055538177490234375">
        <ele>1057.800048828125</ele>
        <time>2022-04-17T15:21:16.000Z</time>
      </trkpt>
      <trkpt lat="42.96594821847975254058837890625" lon="-2.36654243431985378265380859375">
        <ele>1057.5999755859375</ele>
        <time>2022-04-17T15:21:17.000Z</time>
      </trkpt>
      <trkpt lat="42.9659496434032917022705078125" lon="-2.36654981039464473724365234375">
        <ele>1057.4000244140625</ele>
        <time>2022-04-17T15:21:18.000Z</time>
      </trkpt>
      <trkpt lat="42.96595274470746517181396484375" lon="-2.36655802465975284576416015625">
        <ele>1057.199951171875</ele>
        <time>2022-04-17T15:21:19.000Z</time>
      </trkpt>
      <trkpt lat="42.9659576900303363800048828125" lon="-2.36656758002936840057373046875">
        <ele>1057.199951171875</ele>
        <time>2022-04-17T15:21:20.000Z</time>
      </trkpt>
      <trkpt lat="42.96596179716289043426513671875" lon="-2.3665768839418888092041015625">
        <ele>1057</ele>
        <time>2022-04-17T15:21:21.000Z</time>
      </trkpt>
      <trkpt lat="42.96596246771514415740966796875" lon="-2.3665882833302021026611328125">
        <ele>1056.800048828125</ele>
        <time>2022-04-17T15:21:22.000Z</time>
      </trkpt>
      <trkpt lat="42.965964563190937042236328125" lon="-2.3666003532707691192626953125">
        <ele>1056.5999755859375</ele>
        <time>2022-04-17T15:21:23.000Z</time>
      </trkpt>
      <trkpt lat="42.965967915952205657958984375" lon="-2.36661116592586040496826171875">
        <ele>1056.4000244140625</ele>
        <time>2022-04-17T15:21:24.000Z</time>
      </trkpt>
      <trkpt lat="42.965971268713474273681640625" lon="-2.36662759445607662200927734375">
        <ele>1056.199951171875</ele>
        <time>2022-04-17T15:21:25.000Z</time>
      </trkpt>
      <trkpt lat="42.9659744538366794586181640625" lon="-2.36664100550115108489990234375">
        <ele>1056.199951171875</ele>
        <time>2022-04-17T15:21:26.000Z</time>
      </trkpt>
      <trkpt lat="42.96597621403634548187255859375" lon="-2.3666529916226863861083984375">
        <ele>1056</ele>
        <time>2022-04-17T15:21:27.000Z</time>
      </trkpt>
      <trkpt lat="42.96597805805504322052001953125" lon="-2.366660200059413909912109375">
        <ele>1055.800048828125</ele>
        <time>2022-04-17T15:21:28.000Z</time>
      </trkpt>
      <trkpt lat="42.96598392538726329803466796875" lon="-2.36666883341968059539794921875">
        <ele>1055.5999755859375</ele>
        <time>2022-04-17T15:21:29.000Z</time>
      </trkpt>
      <trkpt lat="42.96598794870078563690185546875" lon="-2.366674281656742095947265625">
        <ele>1055.4000244140625</ele>
        <time>2022-04-17T15:21:30.000Z</time>
      </trkpt>
      <trkpt lat="42.96598769724369049072265625" lon="-2.36667956225574016571044921875">
        <ele>1055.199951171875</ele>
        <time>2022-04-17T15:21:31.000Z</time>
      </trkpt>
      <trkpt lat="42.96599063090980052947998046875" lon="-2.3666861839592456817626953125">
        <ele>1055</ele>
        <time>2022-04-17T15:21:32.000Z</time>
      </trkpt>
      <trkpt lat="42.96599498949944972991943359375" lon="-2.3666915483772754669189453125">
        <ele>1055</ele>
        <time>2022-04-17T15:21:33.000Z</time>
      </trkpt>
      <trkpt lat="42.96600068919360637664794921875" lon="-2.366694398224353790283203125">
        <ele>1054.800048828125</ele>
        <time>2022-04-17T15:21:34.000Z</time>
      </trkpt>
      <trkpt lat="42.96600404195487499237060546875" lon="-2.36670085228979587554931640625">
        <ele>1054.800048828125</ele>
        <time>2022-04-17T15:21:35.000Z</time>
      </trkpt>
      <trkpt lat="42.96600722707808017730712890625" lon="-2.3667123354971408843994140625">
        <ele>1054.5999755859375</ele>
        <time>2022-04-17T15:21:36.000Z</time>
      </trkpt>
      <trkpt lat="42.9660099931061267852783203125" lon="-2.3667267523705959320068359375">
        <ele>1054.5999755859375</ele>
        <time>2022-04-17T15:21:37.000Z</time>
      </trkpt>
      <trkpt lat="42.96601116657257080078125" lon="-2.3667354695498943328857421875">
        <ele>1054.4000244140625</ele>
        <time>2022-04-17T15:21:38.000Z</time>
      </trkpt>
      <trkpt lat="42.96601443551480770111083984375" lon="-2.36674661748111248016357421875">
        <ele>1054.4000244140625</ele>
        <time>2022-04-17T15:21:39.000Z</time>
      </trkpt>
      <trkpt lat="42.9660160280764102935791015625" lon="-2.366754747927188873291015625">
        <ele>1054.199951171875</ele>
        <time>2022-04-17T15:21:40.000Z</time>
      </trkpt>
      <trkpt lat="42.96601929701864719390869140625" lon="-2.3667616210877895355224609375">
        <ele>1054</ele>
        <time>2022-04-17T15:21:41.000Z</time>
      </trkpt>
      <trkpt lat="42.96602197922766208648681640625" lon="-2.36677478067576885223388671875">
        <ele>1053.800048828125</ele>
        <time>2022-04-17T15:21:42.000Z</time>
      </trkpt>
      <trkpt lat="42.96602466143667697906494140625" lon="-2.366788275539875030517578125">
        <ele>1053.5999755859375</ele>
        <time>2022-04-17T15:21:43.000Z</time>
      </trkpt>
      <trkpt lat="42.96603036113083362579345703125" lon="-2.3668058775365352630615234375">
        <ele>1053.4000244140625</ele>
        <time>2022-04-17T15:21:44.000Z</time>
      </trkpt>
      <trkpt lat="42.9660361446440219879150390625" lon="-2.36682071350514888763427734375">
        <ele>1053.199951171875</ele>
        <time>2022-04-17T15:21:45.000Z</time>
      </trkpt>
      <trkpt lat="42.9660415090620517730712890625" lon="-2.36683144234120845794677734375">
        <ele>1053.199951171875</ele>
        <time>2022-04-17T15:21:46.000Z</time>
      </trkpt>
      <trkpt lat="42.9660441912710666656494140625" lon="-2.366847284138202667236328125">
        <ele>1053</ele>
        <time>2022-04-17T15:21:47.000Z</time>
      </trkpt>
      <trkpt lat="42.96604360453784465789794921875" lon="-2.36685507930815219879150390625">
        <ele>1052.800048828125</ele>
        <time>2022-04-17T15:21:48.000Z</time>
      </trkpt>
      <trkpt lat="42.96604762785136699676513671875" lon="-2.36687041819095611572265625">
        <ele>1052.800048828125</ele>
        <time>2022-04-17T15:21:49.000Z</time>
      </trkpt>
      <trkpt lat="42.96605131588876247406005859375" lon="-2.3668799735605716705322265625">
        <ele>1052.5999755859375</ele>
        <time>2022-04-17T15:21:50.000Z</time>
      </trkpt>
      <trkpt lat="42.96605232171714305877685546875" lon="-2.366885840892791748046875">
        <ele>1052.4000244140625</ele>
        <time>2022-04-17T15:21:51.000Z</time>
      </trkpt>
      <trkpt lat="42.96605064533650875091552734375" lon="-2.36689631827175617218017578125">
        <ele>1052</ele>
        <time>2022-04-17T15:21:52.000Z</time>
      </trkpt>
      <trkpt lat="42.96605567447841167449951171875" lon="-2.3669059574604034423828125">
        <ele>1051.800048828125</ele>
        <time>2022-04-17T15:21:53.000Z</time>
      </trkpt>
      <trkpt lat="42.96606053598225116729736328125" lon="-2.36691341735422611236572265625">
        <ele>1051.5999755859375</ele>
        <time>2022-04-17T15:21:54.000Z</time>
      </trkpt>
      <trkpt lat="42.96606573276221752166748046875" lon="-2.366923056542873382568359375">
        <ele>1051.4000244140625</ele>
        <time>2022-04-17T15:21:55.000Z</time>
      </trkpt>
      <trkpt lat="42.96606724150478839874267578125" lon="-2.3669376410543918609619140625">
        <ele>1051.199951171875</ele>
        <time>2022-04-17T15:21:56.000Z</time>
      </trkpt>
      <trkpt lat="42.96607084572315216064453125" lon="-2.366950549185276031494140625">
        <ele>1051.199951171875</ele>
        <time>2022-04-17T15:21:57.000Z</time>
      </trkpt>
      <trkpt lat="42.96607394702732563018798828125" lon="-2.36696303822100162506103515625">
        <ele>1051</ele>
        <time>2022-04-17T15:21:58.000Z</time>
      </trkpt>
      <trkpt lat="42.966077886521816253662109375" lon="-2.36697359941899776458740234375">
        <ele>1051</ele>
        <time>2022-04-17T15:21:59.000Z</time>
      </trkpt>
      <trkpt lat="42.9660810716450214385986328125" lon="-2.36698441207408905029296875">
        <ele>1050.5999755859375</ele>
        <time>2022-04-17T15:22:00.000Z</time>
      </trkpt>
      <trkpt lat="42.9660847596824169158935546875" lon="-2.366995476186275482177734375">
        <ele>1050.4000244140625</ele>
        <time>2022-04-17T15:22:01.000Z</time>
      </trkpt>
      <trkpt lat="42.9660876095294952392578125" lon="-2.3670046962797641754150390625">
        <ele>1050</ele>
        <time>2022-04-17T15:22:02.000Z</time>
      </trkpt>
      <trkpt lat="42.96609096229076385498046875" lon="-2.3670132458209991455078125">
        <ele>1049.800048828125</ele>
        <time>2022-04-17T15:22:03.000Z</time>
      </trkpt>
      <trkpt lat="42.96609573997557163238525390625" lon="-2.3670191131532192230224609375">
        <ele>1049.5999755859375</ele>
        <time>2022-04-17T15:22:04.000Z</time>
      </trkpt>
      <trkpt lat="42.966098003089427947998046875" lon="-2.36702238209545612335205078125">
        <ele>1049.4000244140625</ele>
        <time>2022-04-17T15:22:05.000Z</time>
      </trkpt>
      <trkpt lat="42.96610009856522083282470703125" lon="-2.3670288361608982086181640625">
        <ele>1049.199951171875</ele>
        <time>2022-04-17T15:22:06.000Z</time>
      </trkpt>
      <trkpt lat="42.96610437333583831787109375" lon="-2.36703696660697460174560546875">
        <ele>1049</ele>
        <time>2022-04-17T15:22:07.000Z</time>
      </trkpt>
      <trkpt lat="42.96610630117356777191162109375" lon="-2.36704786308109760284423828125">
        <ele>1048.800048828125</ele>
        <time>2022-04-17T15:22:08.000Z</time>
      </trkpt>
      <trkpt lat="42.9661092348396778106689453125" lon="-2.36705557443201541900634765625">
        <ele>1048.5999755859375</ele>
        <time>2022-04-17T15:22:09.000Z</time>
      </trkpt>
      <trkpt lat="42.96610982157289981842041015625" lon="-2.36706487834453582763671875">
        <ele>1048.4000244140625</ele>
        <time>2022-04-17T15:22:10.000Z</time>
      </trkpt>
      <trkpt lat="42.9661135934293270111083984375" lon="-2.367079965770244598388671875">
        <ele>1048.199951171875</ele>
        <time>2022-04-17T15:22:11.000Z</time>
      </trkpt>
      <trkpt lat="42.9661209695041179656982421875" lon="-2.3670923709869384765625">
        <ele>1048</ele>
        <time>2022-04-17T15:22:12.000Z</time>
      </trkpt>
      <trkpt lat="42.9661256633698940277099609375" lon="-2.3671052791178226470947265625">
        <ele>1047.800048828125</ele>
        <time>2022-04-17T15:22:13.000Z</time>
      </trkpt>
      <trkpt lat="42.96612842939794063568115234375" lon="-2.36711558885872364044189453125">
        <ele>1047.5999755859375</ele>
        <time>2022-04-17T15:22:14.000Z</time>
      </trkpt>
      <trkpt lat="42.96612926758825778961181640625" lon="-2.36712564714252948760986328125">
        <ele>1047.4000244140625</ele>
        <time>2022-04-17T15:22:15.000Z</time>
      </trkpt>
      <trkpt lat="42.96612851321697235107421875" lon="-2.3671331070363521575927734375">
        <ele>1047.199951171875</ele>
        <time>2022-04-17T15:22:16.000Z</time>
      </trkpt>
      <trkpt lat="42.96612985432147979736328125" lon="-2.36713939346373081207275390625">
        <ele>1047</ele>
        <time>2022-04-17T15:22:17.000Z</time>
      </trkpt>
      <trkpt lat="42.96613060869276523590087890625" lon="-2.36714626662433147430419921875">
        <ele>1046.800048828125</ele>
        <time>2022-04-17T15:22:18.000Z</time>
      </trkpt>
      <trkpt lat="42.96613111160695552825927734375" lon="-2.367149703204631805419921875">
        <ele>1046.5999755859375</ele>
        <time>2022-04-17T15:22:19.000Z</time>
      </trkpt>
      <trkpt lat="42.96613211743533611297607421875" lon="-2.36715699546039104461669921875">
        <ele>1046.199951171875</ele>
        <time>2022-04-17T15:22:20.000Z</time>
      </trkpt>
      <trkpt lat="42.966134883463382720947265625" lon="-2.36716185696423053741455078125">
        <ele>1046</ele>
        <time>2022-04-17T15:22:21.000Z</time>
      </trkpt>
      <trkpt lat="42.966140247881412506103515625" lon="-2.36717040650546550750732421875">
        <ele>1045.800048828125</ele>
        <time>2022-04-17T15:22:22.000Z</time>
      </trkpt>
      <trkpt lat="42.966141588985919952392578125" lon="-2.3671795427799224853515625">
        <ele>1045.5999755859375</ele>
        <time>2022-04-17T15:22:23.000Z</time>
      </trkpt>
      <trkpt lat="42.96613882295787334442138671875" lon="-2.36719002015888690948486328125">
        <ele>1045.4000244140625</ele>
        <time>2022-04-17T15:22:24.000Z</time>
      </trkpt>
      <trkpt lat="42.96613915823400020599365234375" lon="-2.36719228327274322509765625">
        <ele>1045.4000244140625</ele>
        <time>2022-04-17T15:22:25.000Z</time>
      </trkpt>
      <trkpt lat="42.96614016406238079071044921875" lon="-2.3671929538249969482421875">
        <ele>1045.199951171875</ele>
        <time>2022-04-17T15:22:26.000Z</time>
      </trkpt>
      <trkpt lat="42.96614133752882480621337890625" lon="-2.367195300757884979248046875">
        <ele>1045</ele>
        <time>2022-04-17T15:22:27.000Z</time>
      </trkpt>
      <trkpt lat="42.96614234335720539093017578125" lon="-2.367202676832675933837890625">
        <ele>1044.800048828125</ele>
        <time>2022-04-17T15:22:28.000Z</time>
      </trkpt>
      <trkpt lat="42.9661457799375057220458984375" lon="-2.36721080727875232696533203125">
        <ele>1044.4000244140625</ele>
        <time>2022-04-17T15:22:29.000Z</time>
      </trkpt>
      <trkpt lat="42.96614971943199634552001953125" lon="-2.36721784807741641998291015625">
        <ele>1044.199951171875</ele>
        <time>2022-04-17T15:22:30.000Z</time>
      </trkpt>
      <trkpt lat="42.9661501385271549224853515625" lon="-2.36722354777157306671142578125">
        <ele>1044.199951171875</ele>
        <time>2022-04-17T15:22:31.000Z</time>
      </trkpt>
      <trkpt lat="42.96614955179393291473388671875" lon="-2.367234528064727783203125">
        <ele>1044.199951171875</ele>
        <time>2022-04-17T15:22:32.000Z</time>
      </trkpt>
      <trkpt lat="42.96615022234618663787841796875" lon="-2.367249615490436553955078125">
        <ele>1044</ele>
        <time>2022-04-17T15:22:33.000Z</time>
      </trkpt>
      <trkpt lat="42.9661501385271549224853515625" lon="-2.36725891940295696258544921875">
        <ele>1044</ele>
        <time>2022-04-17T15:22:34.000Z</time>
      </trkpt>
      <trkpt lat="42.966147623956203460693359375" lon="-2.36727450974285602569580078125">
        <ele>1044</ele>
        <time>2022-04-17T15:22:35.000Z</time>
      </trkpt>
      <trkpt lat="42.96614971943199634552001953125" lon="-2.36728540621697902679443359375">
        <ele>1043.5999755859375</ele>
        <time>2022-04-17T15:22:36.000Z</time>
      </trkpt>
      <trkpt lat="42.9661518149077892303466796875" lon="-2.3672906868159770965576171875">
        <ele>1043.4000244140625</ele>
        <time>2022-04-17T15:22:37.000Z</time>
      </trkpt>
      <trkpt lat="42.966152988374233245849609375" lon="-2.36729881726205348968505859375">
        <ele>1043.4000244140625</ele>
        <time>2022-04-17T15:22:38.000Z</time>
      </trkpt>
      <trkpt lat="42.9661548323929309844970703125" lon="-2.36730501987040042877197265625">
        <ele>1043</ele>
        <time>2022-04-17T15:22:39.000Z</time>
      </trkpt>
      <trkpt lat="42.9661558382213115692138671875" lon="-2.367309629917144775390625">
        <ele>1042.800048828125</ele>
        <time>2022-04-17T15:22:40.000Z</time>
      </trkpt>
      <trkpt lat="42.966156005859375" lon="-2.36731231212615966796875">
        <ele>1042.199951171875</ele>
        <time>2022-04-17T15:22:41.000Z</time>
      </trkpt>
      <trkpt lat="42.96615676023066043853759765625" lon="-2.3673175089061260223388671875">
        <ele>1042</ele>
        <time>2022-04-17T15:22:42.000Z</time>
      </trkpt>
      <trkpt lat="42.96615726314485073089599609375" lon="-2.36732530407607555389404296875">
        <ele>1042</ele>
        <time>2022-04-17T15:22:43.000Z</time>
      </trkpt>
      <trkpt lat="42.96615977771580219268798828125" lon="-2.36733301542699337005615234375">
        <ele>1041.800048828125</ele>
        <time>2022-04-17T15:22:44.000Z</time>
      </trkpt>
      <trkpt lat="42.96616137027740478515625" lon="-2.36734491772949695587158203125">
        <ele>1041.5999755859375</ele>
        <time>2022-04-17T15:22:45.000Z</time>
      </trkpt>
      <trkpt lat="42.96616329811513423919677734375" lon="-2.36736151389777660369873046875">
        <ele>1041.4000244140625</ele>
        <time>2022-04-17T15:22:46.000Z</time>
      </trkpt>
      <trkpt lat="42.96616363339126110076904296875" lon="-2.36737693659961223602294921875">
        <ele>1041.199951171875</ele>
        <time>2022-04-17T15:22:47.000Z</time>
      </trkpt>
      <trkpt lat="42.96616715379059314727783203125" lon="-2.367390096187591552734375">
        <ele>1041</ele>
        <time>2022-04-17T15:22:48.000Z</time>
      </trkpt>
      <trkpt lat="42.96616832725703716278076171875" lon="-2.36740392632782459259033203125">
        <ele>1041</ele>
        <time>2022-04-17T15:22:49.000Z</time>
      </trkpt>
      <trkpt lat="42.96617335639894008636474609375" lon="-2.36742353998124599456787109375">
        <ele>1040.800048828125</ele>
        <time>2022-04-17T15:22:50.000Z</time>
      </trkpt>
      <trkpt lat="42.966174781322479248046875" lon="-2.36743192188441753387451171875">
        <ele>1040.800048828125</ele>
        <time>2022-04-17T15:22:51.000Z</time>
      </trkpt>
      <trkpt lat="42.96617855317890644073486328125" lon="-2.36744600348174571990966796875">
        <ele>1040.800048828125</ele>
        <time>2022-04-17T15:22:52.000Z</time>
      </trkpt>
      <trkpt lat="42.9661799781024456024169921875" lon="-2.367457486689090728759765625">
        <ele>1040.800048828125</ele>
        <time>2022-04-17T15:22:53.000Z</time>
      </trkpt>
      <trkpt lat="42.9661860130727291107177734375" lon="-2.3674626834690570831298828125">
        <ele>1040.800048828125</ele>
        <time>2022-04-17T15:22:54.000Z</time>
      </trkpt>
      <trkpt lat="42.9661903716623783111572265625" lon="-2.36747148446738719940185546875">
        <ele>1040.800048828125</ele>
        <time>2022-04-17T15:22:55.000Z</time>
      </trkpt>
      <trkpt lat="42.96619447879493236541748046875" lon="-2.36747751943767070770263671875">
        <ele>1040.5999755859375</ele>
        <time>2022-04-17T15:22:56.000Z</time>
      </trkpt>
      <trkpt lat="42.96619892120361328125" lon="-2.36748196184635162353515625">
        <ele>1040.5999755859375</ele>
        <time>2022-04-17T15:22:57.000Z</time>
      </trkpt>
      <trkpt lat="42.9662098176777362823486328125" lon="-2.3674898408353328704833984375">
        <ele>1040.4000244140625</ele>
        <time>2022-04-17T15:22:58.000Z</time>
      </trkpt>
      <trkpt lat="42.9662083089351654052734375" lon="-2.36750341951847076416015625">
        <ele>1040.199951171875</ele>
        <time>2022-04-17T15:22:59.000Z</time>
      </trkpt>
      <trkpt lat="42.96621057204902172088623046875" lon="-2.3675109632313251495361328125">
        <ele>1040.199951171875</ele>
        <time>2022-04-17T15:23:00.000Z</time>
      </trkpt>
      <trkpt lat="42.96621878631412982940673828125" lon="-2.3675220273435115814208984375">
        <ele>1040</ele>
        <time>2022-04-17T15:23:01.000Z</time>
      </trkpt>
      <trkpt lat="42.9662217199802398681640625" lon="-2.367535941302776336669921875">
        <ele>1040</ele>
        <time>2022-04-17T15:23:02.000Z</time>
      </trkpt>
      <trkpt lat="42.966224737465381622314453125" lon="-2.36755379475653171539306640625">
        <ele>1040</ele>
        <time>2022-04-17T15:23:03.000Z</time>
      </trkpt>
      <trkpt lat="42.9662275873124599456787109375" lon="-2.36757106147706508636474609375">
        <ele>1039.800048828125</ele>
        <time>2022-04-17T15:23:04.000Z</time>
      </trkpt>
      <trkpt lat="42.9662295989692211151123046875" lon="-2.3675874061882495880126953125">
        <ele>1039.800048828125</ele>
        <time>2022-04-17T15:23:05.000Z</time>
      </trkpt>
      <trkpt lat="42.96623471193015575408935546875" lon="-2.36760207451879978179931640625">
        <ele>1039.5999755859375</ele>
        <time>2022-04-17T15:23:06.000Z</time>
      </trkpt>
      <trkpt lat="42.9662418365478515625" lon="-2.36761162988841533660888671875">
        <ele>1039.5999755859375</ele>
        <time>2022-04-17T15:23:07.000Z</time>
      </trkpt>
      <trkpt lat="42.9662537388503551483154296875" lon="-2.3676189221441745758056640625">
        <ele>1039.4000244140625</ele>
        <time>2022-04-17T15:23:08.000Z</time>
      </trkpt>
      <trkpt lat="42.9662601090967655181884765625" lon="-2.36762621439993381500244140625">
        <ele>1039.4000244140625</ele>
        <time>2022-04-17T15:23:09.000Z</time>
      </trkpt>
      <trkpt lat="42.96626622788608074188232421875" lon="-2.36763426102697849273681640625">
        <ele>1039.199951171875</ele>
        <time>2022-04-17T15:23:10.000Z</time>
      </trkpt>
      <trkpt lat="42.96627662144601345062255859375" lon="-2.3676440678536891937255859375">
        <ele>1039.199951171875</ele>
        <time>2022-04-17T15:23:11.000Z</time>
      </trkpt>
      <trkpt lat="42.96628131531178951263427734375" lon="-2.36765085719525814056396484375">
        <ele>1039</ele>
        <time>2022-04-17T15:23:12.000Z</time>
      </trkpt>
      <trkpt lat="42.96628466807305812835693359375" lon="-2.36765605397522449493408203125">
        <ele>1039</ele>
        <time>2022-04-17T15:23:13.000Z</time>
      </trkpt>
      <trkpt lat="42.96628852374851703643798828125" lon="-2.36766493879258632659912109375">
        <ele>1038.800048828125</ele>
        <time>2022-04-17T15:23:14.000Z</time>
      </trkpt>
      <trkpt lat="42.966294474899768829345703125" lon="-2.36767382360994815826416015625">
        <ele>1038.800048828125</ele>
        <time>2022-04-17T15:23:15.000Z</time>
      </trkpt>
      <trkpt lat="42.9663013480603694915771484375" lon="-2.36768002621829509735107421875">
        <ele>1038.5999755859375</ele>
        <time>2022-04-17T15:23:16.000Z</time>
      </trkpt>
      <trkpt lat="42.96630931086838245391845703125" lon="-2.36768388189375400543212890625">
        <ele>1038.5999755859375</ele>
        <time>2022-04-17T15:23:17.000Z</time>
      </trkpt>
      <trkpt lat="42.96631157398223876953125" lon="-2.367687486112117767333984375">
        <ele>1038.4000244140625</ele>
        <time>2022-04-17T15:23:18.000Z</time>
      </trkpt>
      <trkpt lat="42.96631434001028537750244140625" lon="-2.3676920123398303985595703125">
        <ele>1038.4000244140625</ele>
        <time>2022-04-17T15:23:19.000Z</time>
      </trkpt>
      <trkpt lat="42.9663169384002685546875" lon="-2.36769746057689189910888671875">
        <ele>1038.199951171875</ele>
        <time>2022-04-17T15:23:20.000Z</time>
      </trkpt>
      <trkpt lat="42.96631802804768085479736328125" lon="-2.36770131625235080718994140625">
        <ele>1038.199951171875</ele>
        <time>2022-04-17T15:23:21.000Z</time>
      </trkpt>
      <trkpt lat="42.96631920151412487030029296875" lon="-2.36770802177488803863525390625">
        <ele>1038.199951171875</ele>
        <time>2022-04-17T15:23:22.000Z</time>
      </trkpt>
      <trkpt lat="42.96632188372313976287841796875" lon="-2.3677134700119495391845703125">
        <ele>1038</ele>
        <time>2022-04-17T15:23:23.000Z</time>
      </trkpt>
      <trkpt lat="42.966324985027313232421875" lon="-2.36771992407739162445068359375">
        <ele>1038</ele>
        <time>2022-04-17T15:23:24.000Z</time>
      </trkpt>
      <trkpt lat="42.96633236110210418701171875" lon="-2.36772478558123111724853515625">
        <ele>1038</ele>
        <time>2022-04-17T15:23:25.000Z</time>
      </trkpt>
      <trkpt lat="42.96633948571979999542236328125" lon="-2.367727048695087432861328125">
        <ele>1038</ele>
        <time>2022-04-17T15:23:26.000Z</time>
      </trkpt>
      <trkpt lat="42.96634300611913204193115234375" lon="-2.3677366040647029876708984375">
        <ele>1037.800048828125</ele>
        <time>2022-04-17T15:23:27.000Z</time>
      </trkpt>
      <trkpt lat="42.96634711325168609619140625" lon="-2.367750518023967742919921875">
        <ele>1037.4000244140625</ele>
        <time>2022-04-17T15:23:28.000Z</time>
      </trkpt>
      <trkpt lat="42.96635189093649387359619140625" lon="-2.36776267178356647491455078125">
        <ele>1037.199951171875</ele>
        <time>2022-04-17T15:23:29.000Z</time>
      </trkpt>
      <trkpt lat="42.96635675244033336639404296875" lon="-2.36777708865702152252197265625">
        <ele>1037</ele>
        <time>2022-04-17T15:23:30.000Z</time>
      </trkpt>
      <trkpt lat="42.96636161394417285919189453125" lon="-2.367791421711444854736328125">
        <ele>1036.800048828125</ele>
        <time>2022-04-17T15:23:31.000Z</time>
      </trkpt>
      <trkpt lat="42.96636027283966541290283203125" lon="-2.36780374310910701751708984375">
        <ele>1036.5999755859375</ele>
        <time>2022-04-17T15:23:32.000Z</time>
      </trkpt>
      <trkpt lat="42.96635826118290424346923828125" lon="-2.36781128682196140289306640625">
        <ele>1036.4000244140625</ele>
        <time>2022-04-17T15:23:33.000Z</time>
      </trkpt>
      <trkpt lat="42.966357506811618804931640625" lon="-2.3678197525441646575927734375">
        <ele>1036.199951171875</ele>
        <time>2022-04-17T15:23:34.000Z</time>
      </trkpt>
      <trkpt lat="42.96635842882096767425537109375" lon="-2.3678261227905750274658203125">
        <ele>1036</ele>
        <time>2022-04-17T15:23:35.000Z</time>
      </trkpt>
      <trkpt lat="42.9663643799722194671630859375" lon="-2.3678294755518436431884765625">
        <ele>1036</ele>
        <time>2022-04-17T15:23:36.000Z</time>
      </trkpt>
      <trkpt lat="42.96637527644634246826171875" lon="-2.3678301461040973663330078125">
        <ele>1035.800048828125</ele>
        <time>2022-04-17T15:23:37.000Z</time>
      </trkpt>
      <trkpt lat="42.96637753956019878387451171875" lon="-2.36784129403531551361083984375">
        <ele>1035.5999755859375</ele>
        <time>2022-04-17T15:23:38.000Z</time>
      </trkpt>
      <trkpt lat="42.96638810075819492340087890625" lon="-2.36784665845334529876708984375">
        <ele>1035.199951171875</ele>
        <time>2022-04-17T15:23:39.000Z</time>
      </trkpt>
      <trkpt lat="42.96639463864266872406005859375" lon="-2.36784531734883785247802734375">
        <ele>1035.199951171875</ele>
        <time>2022-04-17T15:23:40.000Z</time>
      </trkpt>
      <trkpt lat="42.9663891904056072235107421875" lon="-2.367857806384563446044921875">
        <ele>1035</ele>
        <time>2022-04-17T15:23:41.000Z</time>
      </trkpt>
      <trkpt lat="42.96638843603432178497314453125" lon="-2.36786828376352787017822265625">
        <ele>1034.800048828125</ele>
        <time>2022-04-17T15:23:42.000Z</time>
      </trkpt>
      <trkpt lat="42.9663922078907489776611328125" lon="-2.36787834204733371734619140625">
        <ele>1034.5999755859375</ele>
        <time>2022-04-17T15:23:43.000Z</time>
      </trkpt>
      <trkpt lat="42.9663992486894130706787109375" lon="-2.3678888194262981414794921875">
        <ele>1034.5999755859375</ele>
        <time>2022-04-17T15:23:44.000Z</time>
      </trkpt>
      <trkpt lat="42.96640469692647457122802734375" lon="-2.3678951896727085113525390625">
        <ele>1034.199951171875</ele>
        <time>2022-04-17T15:23:45.000Z</time>
      </trkpt>
      <trkpt lat="42.9664076305925846099853515625" lon="-2.3679065890610218048095703125">
        <ele>1033.800048828125</ele>
        <time>2022-04-17T15:23:46.000Z</time>
      </trkpt>
      <trkpt lat="42.96640880405902862548828125" lon="-2.36791974864900112152099609375">
        <ele>1033.5999755859375</ele>
        <time>2022-04-17T15:23:47.000Z</time>
      </trkpt>
      <trkpt lat="42.96640704385936260223388671875" lon="-2.36793265677988529205322265625">
        <ele>1033.5999755859375</ele>
        <time>2022-04-17T15:23:48.000Z</time>
      </trkpt>
      <trkpt lat="42.9664103128015995025634765625" lon="-2.36794137395918369293212890625">
        <ele>1033.4000244140625</ele>
        <time>2022-04-17T15:23:49.000Z</time>
      </trkpt>
      <trkpt lat="42.96641944907605648040771484375" lon="-2.36795092932879924774169921875">
        <ele>1033.199951171875</ele>
        <time>2022-04-17T15:23:50.000Z</time>
      </trkpt>
      <trkpt lat="42.96642062254250049591064453125" lon="-2.3679622448980808258056640625">
        <ele>1033</ele>
        <time>2022-04-17T15:23:51.000Z</time>
      </trkpt>
      <trkpt lat="42.96641953289508819580078125" lon="-2.3679761588573455810546875">
        <ele>1032.800048828125</ele>
        <time>2022-04-17T15:23:52.000Z</time>
      </trkpt>
      <trkpt lat="42.9664207063615322113037109375" lon="-2.36798211000859737396240234375">
        <ele>1032.5999755859375</ele>
        <time>2022-04-17T15:23:53.000Z</time>
      </trkpt>
      <trkpt lat="42.966421879827976226806640625" lon="-2.3679873906075954437255859375">
        <ele>1032.4000244140625</ele>
        <time>2022-04-17T15:23:54.000Z</time>
      </trkpt>
      <trkpt lat="42.9664255678653717041015625" lon="-2.3679971136152744293212890625">
        <ele>1032.199951171875</ele>
        <time>2022-04-17T15:23:55.000Z</time>
      </trkpt>
      <trkpt lat="42.966426573693752288818359375" lon="-2.36800633370876312255859375">
        <ele>1032</ele>
        <time>2022-04-17T15:23:56.000Z</time>
      </trkpt>
      <trkpt lat="42.966424562036991119384765625" lon="-2.368023097515106201171875">
        <ele>1031.800048828125</ele>
        <time>2022-04-17T15:23:57.000Z</time>
      </trkpt>
      <trkpt lat="42.96642623841762542724609375" lon="-2.36803173087537288665771484375">
        <ele>1031.5999755859375</ele>
        <time>2022-04-17T15:23:58.000Z</time>
      </trkpt>
      <trkpt lat="42.96643068082630634307861328125" lon="-2.3680470697581768035888671875">
        <ele>1031.199951171875</ele>
        <time>2022-04-17T15:23:59.000Z</time>
      </trkpt>
      <trkpt lat="42.96644493006169795989990234375" lon="-2.36805721186101436614990234375">
        <ele>1031.199951171875</ele>
        <time>2022-04-17T15:24:00.000Z</time>
      </trkpt>
      <trkpt lat="42.9664542339742183685302734375" lon="-2.36806274391710758209228515625">
        <ele>1031</ele>
        <time>2022-04-17T15:24:01.000Z</time>
      </trkpt>
      <trkpt lat="42.9664579220116138458251953125" lon="-2.36807665787637233734130859375">
        <ele>1031</ele>
        <time>2022-04-17T15:24:02.000Z</time>
      </trkpt>
      <trkpt lat="42.96646370552480220794677734375" lon="-2.3680842854082584381103515625">
        <ele>1031</ele>
        <time>2022-04-17T15:24:03.000Z</time>
      </trkpt>
      <trkpt lat="42.9664706625044345855712890625" lon="-2.36808923073112964630126953125">
        <ele>1030.800048828125</ele>
        <time>2022-04-17T15:24:04.000Z</time>
      </trkpt>
      <trkpt lat="42.9664766974747180938720703125" lon="-2.36809291876852512359619140625">
        <ele>1030.800048828125</ele>
        <time>2022-04-17T15:24:05.000Z</time>
      </trkpt>
      <trkpt lat="42.96648583374917507171630859375" lon="-2.36810046248137950897216796875">
        <ele>1030.4000244140625</ele>
        <time>2022-04-17T15:24:06.000Z</time>
      </trkpt>
      <trkpt lat="42.9664926230907440185546875" lon="-2.368106581270694732666015625">
        <ele>1030.199951171875</ele>
        <time>2022-04-17T15:24:07.000Z</time>
      </trkpt>
      <trkpt lat="42.9664934612810611724853515625" lon="-2.368123345077037811279296875">
        <ele>1030</ele>
        <time>2022-04-17T15:24:08.000Z</time>
      </trkpt>
      <trkpt lat="42.96648792922496795654296875" lon="-2.36814002506434917449951171875">
        <ele>1029.5999755859375</ele>
        <time>2022-04-17T15:24:09.000Z</time>
      </trkpt>
      <trkpt lat="42.96648197807371616363525390625" lon="-2.36815393902361392974853515625">
        <ele>1029.4000244140625</ele>
        <time>2022-04-17T15:24:10.000Z</time>
      </trkpt>
      <trkpt lat="42.966479547321796417236328125" lon="-2.36816248856484889984130859375">
        <ele>1029</ele>
        <time>2022-04-17T15:24:11.000Z</time>
      </trkpt>
      <trkpt lat="42.96648214571177959442138671875" lon="-2.36815729178488254547119140625">
        <ele>1028.800048828125</ele>
        <time>2022-04-17T15:24:12.000Z</time>
      </trkpt>
      <trkpt lat="42.966482900083065032958984375" lon="-2.3681613989174365997314453125">
        <ele>1028.5999755859375</ele>
        <time>2022-04-17T15:24:13.000Z</time>
      </trkpt>
      <trkpt lat="42.9664813913404941558837890625" lon="-2.36816458404064178466796875">
        <ele>1028.4000244140625</ele>
        <time>2022-04-17T15:24:14.000Z</time>
      </trkpt>
      <trkpt lat="42.9664813913404941558837890625" lon="-2.36816919408738613128662109375">
        <ele>1028.4000244140625</ele>
        <time>2022-04-17T15:24:15.000Z</time>
      </trkpt>
      <trkpt lat="42.96648248098790645599365234375" lon="-2.36817237921059131622314453125">
        <ele>1028.199951171875</ele>
        <time>2022-04-17T15:24:16.000Z</time>
      </trkpt>
      <trkpt lat="42.9664904437959194183349609375" lon="-2.36817858181893825531005859375">
        <ele>1028.199951171875</ele>
        <time>2022-04-17T15:24:17.000Z</time>
      </trkpt>
      <trkpt lat="42.9664934612810611724853515625" lon="-2.36818470060825347900390625">
        <ele>1028</ele>
        <time>2022-04-17T15:24:18.000Z</time>
      </trkpt>
      <trkpt lat="42.9664914496243000030517578125" lon="-2.3681966029107570648193359375">
        <ele>1028</ele>
        <time>2022-04-17T15:24:19.000Z</time>
      </trkpt>
      <trkpt lat="42.9664927907288074493408203125" lon="-2.36820272170007228851318359375">
        <ele>1027.800048828125</ele>
        <time>2022-04-17T15:24:20.000Z</time>
      </trkpt>
      <trkpt lat="42.96649396419525146484375" lon="-2.368202470242977142333984375">
        <ele>1027.5999755859375</ele>
        <time>2022-04-17T15:24:21.000Z</time>
      </trkpt>
      <trkpt lat="42.96649958007037639617919921875" lon="-2.36820624209940433502197265625">
        <ele>1027.5999755859375</ele>
        <time>2022-04-17T15:24:22.000Z</time>
      </trkpt>
      <trkpt lat="42.96650293283164501190185546875" lon="-2.36821227706968784332275390625">
        <ele>1027.4000244140625</ele>
        <time>2022-04-17T15:24:23.000Z</time>
      </trkpt>
      <trkpt lat="42.9665028490126132965087890625" lon="-2.36822032369673252105712890625">
        <ele>1027.4000244140625</ele>
        <time>2022-04-17T15:24:24.000Z</time>
      </trkpt>
      <trkpt lat="42.96650896780192852020263671875" lon="-2.3682227544486522674560546875">
        <ele>1027.199951171875</ele>
        <time>2022-04-17T15:24:25.000Z</time>
      </trkpt>
      <trkpt lat="42.96651282347738742828369140625" lon="-2.36823163926601409912109375">
        <ele>1027</ele>
        <time>2022-04-17T15:24:26.000Z</time>
      </trkpt>
      <trkpt lat="42.96651743352413177490234375" lon="-2.3682388477027416229248046875">
        <ele>1027</ele>
        <time>2022-04-17T15:24:27.000Z</time>
      </trkpt>
      <trkpt lat="42.966520786285400390625" lon="-2.368240691721439361572265625">
        <ele>1026.5999755859375</ele>
        <time>2022-04-17T15:24:28.000Z</time>
      </trkpt>
      <trkpt lat="42.96652422286570072174072265625" lon="-2.36824144609272480010986328125">
        <ele>1026.4000244140625</ele>
        <time>2022-04-17T15:24:29.000Z</time>
      </trkpt>
      <trkpt lat="42.96652791090309619903564453125" lon="-2.3682443797588348388671875">
        <ele>1026.4000244140625</ele>
        <time>2022-04-17T15:24:30.000Z</time>
      </trkpt>
      <trkpt lat="42.96653092838823795318603515625" lon="-2.3682475648820400238037109375">
        <ele>1026.199951171875</ele>
        <time>2022-04-17T15:24:31.000Z</time>
      </trkpt>
      <trkpt lat="42.9665353707969188690185546875" lon="-2.3682525940239429473876953125">
        <ele>1025.800048828125</ele>
        <time>2022-04-17T15:24:32.000Z</time>
      </trkpt>
      <trkpt lat="42.9665414057672023773193359375" lon="-2.3682589642703533172607421875">
        <ele>1025.5999755859375</ele>
        <time>2022-04-17T15:24:33.000Z</time>
      </trkpt>
      <trkpt lat="42.96654584817588329315185546875" lon="-2.36826793290674686431884765625">
        <ele>1025.5999755859375</ele>
        <time>2022-04-17T15:24:34.000Z</time>
      </trkpt>
      <trkpt lat="42.966547273099422454833984375" lon="-2.36827698536217212677001953125">
        <ele>1025.4000244140625</ele>
        <time>2022-04-17T15:24:35.000Z</time>
      </trkpt>
      <trkpt lat="42.96654760837554931640625" lon="-2.36828603781759738922119140625">
        <ele>1025</ele>
        <time>2022-04-17T15:24:36.000Z</time>
      </trkpt>
      <trkpt lat="42.9665471054613590240478515625" lon="-2.3682975210249423980712890625">
        <ele>1024.800048828125</ele>
        <time>2022-04-17T15:24:37.000Z</time>
      </trkpt>
      <trkpt lat="42.9665435850620269775390625" lon="-2.3683079145848751068115234375">
        <ele>1024.800048828125</ele>
        <time>2022-04-17T15:24:38.000Z</time>
      </trkpt>
      <trkpt lat="42.96654199250042438507080078125" lon="-2.3683154582977294921875">
        <ele>1024.5999755859375</ele>
        <time>2022-04-17T15:24:39.000Z</time>
      </trkpt>
      <trkpt lat="42.96654023230075836181640625" lon="-2.36831755377352237701416015625">
        <ele>1024.4000244140625</ele>
        <time>2022-04-17T15:24:40.000Z</time>
      </trkpt>
      <trkpt lat="42.9665367119014263153076171875" lon="-2.36832258291542530059814453125">
        <ele>1024.4000244140625</ele>
        <time>2022-04-17T15:24:41.000Z</time>
      </trkpt>
      <trkpt lat="42.966535873711109161376953125" lon="-2.368327192962169647216796875">
        <ele>1024.199951171875</ele>
        <time>2022-04-17T15:24:42.000Z</time>
      </trkpt>
      <trkpt lat="42.9665360413491725921630859375" lon="-2.36833213828504085540771484375">
        <ele>1024.199951171875</ele>
        <time>2022-04-17T15:24:43.000Z</time>
      </trkpt>
      <trkpt lat="42.9665350355207920074462890625" lon="-2.3683330602943897247314453125">
        <ele>1024.199951171875</ele>
        <time>2022-04-17T15:24:44.000Z</time>
      </trkpt>
      <trkpt lat="42.966541238129138946533203125" lon="-2.36833096481859683990478515625">
        <ele>1024.199951171875</ele>
        <time>2022-04-17T15:24:45.000Z</time>
      </trkpt>
      <trkpt lat="42.96654500998556613922119140625" lon="-2.36834152601659297943115234375">
        <ele>1024.199951171875</ele>
        <time>2022-04-17T15:24:46.000Z</time>
      </trkpt>
      <trkpt lat="42.96654366888105869293212890625" lon="-2.3683474771678447723388671875">
        <ele>1024.199951171875</ele>
        <time>2022-04-17T15:24:47.000Z</time>
      </trkpt>
      <trkpt lat="42.96654031611979007720947265625" lon="-2.36835409887135028839111328125">
        <ele>1024</ele>
        <time>2022-04-17T15:24:48.000Z</time>
      </trkpt>
      <trkpt lat="42.96653729863464832305908203125" lon="-2.36836281605064868927001953125">
        <ele>1024</ele>
        <time>2022-04-17T15:24:49.000Z</time>
      </trkpt>
      <trkpt lat="42.9665310122072696685791015625" lon="-2.36836700700223445892333984375">
        <ele>1024</ele>
        <time>2022-04-17T15:24:50.000Z</time>
      </trkpt>
      <trkpt lat="42.9665303416550159454345703125" lon="-2.36836281605064868927001953125">
        <ele>1024</ele>
        <time>2022-04-17T15:24:51.000Z</time>
      </trkpt>
      <trkpt lat="42.9665355384349822998046875" lon="-2.36837019212543964385986328125">
        <ele>1024</ele>
        <time>2022-04-17T15:24:52.000Z</time>
      </trkpt>
      <trkpt lat="42.96653796918690204620361328125" lon="-2.36837446689605712890625">
        <ele>1024</ele>
        <time>2022-04-17T15:24:53.000Z</time>
      </trkpt>
      <trkpt lat="42.96653796918690204620361328125" lon="-2.36837446689605712890625">
        <ele>1024</ele>
        <time>2022-04-17T15:24:54.000Z</time>
      </trkpt>
      <trkpt lat="42.96653796918690204620361328125" lon="-2.36837446689605712890625">
        <ele>1024.199951171875</ele>
        <time>2022-04-17T15:24:55.000Z</time>
      </trkpt>
      <trkpt lat="42.96653796918690204620361328125" lon="-2.36837446689605712890625">
        <ele>1024.199951171875</ele>
        <time>2022-04-17T15:24:56.000Z</time>
      </trkpt>
      <trkpt lat="42.96653796918690204620361328125" lon="-2.36837446689605712890625">
        <ele>1024.199951171875</ele>
        <time>2022-04-17T15:24:57.000Z</time>
      </trkpt>
      <trkpt lat="42.96653796918690204620361328125" lon="-2.36837446689605712890625">
        <ele>1024.199951171875</ele>
        <time>2022-04-17T15:24:58.000Z</time>
      </trkpt>
      <trkpt lat="42.96653796918690204620361328125" lon="-2.36837446689605712890625">
        <ele>1024</ele>
        <time>2022-04-17T15:24:59.000Z</time>
      </trkpt>
      <trkpt lat="42.96653796918690204620361328125" lon="-2.36837446689605712890625">
        <ele>1024</ele>
        <time>2022-04-17T15:25:00.000Z</time>
      </trkpt>
      <trkpt lat="42.96653796918690204620361328125" lon="-2.368373461067676544189453125">
        <ele>1023.79998779296875</ele>
        <time>2022-04-17T15:25:01.000Z</time>
      </trkpt>
      <trkpt lat="42.96653796918690204620361328125" lon="-2.36837337724864482879638671875">
        <ele>1023.79998779296875</ele>
        <time>2022-04-17T15:25:02.000Z</time>
      </trkpt>
      <trkpt lat="42.96653796918690204620361328125" lon="-2.36837337724864482879638671875">
        <ele>1023.79998779296875</ele>
        <time>2022-04-17T15:25:03.000Z</time>
      </trkpt>
      <trkpt lat="42.96653796918690204620361328125" lon="-2.36837337724864482879638671875">
        <ele>1023.79998779296875</ele>
        <time>2022-04-17T15:25:04.000Z</time>
      </trkpt>
      <trkpt lat="42.96654014848172664642333984375" lon="-2.36837337724864482879638671875">
        <ele>1023.79998779296875</ele>
        <time>2022-04-17T15:25:05.000Z</time>
      </trkpt>
      <trkpt lat="42.96654115431010723114013671875" lon="-2.36837337724864482879638671875">
        <ele>1023.79998779296875</ele>
        <time>2022-04-17T15:25:06.000Z</time>
      </trkpt>
      <trkpt lat="42.96654350124299526214599609375" lon="-2.36837337724864482879638671875">
        <ele>1023.5999755859375</ele>
        <time>2022-04-17T15:25:07.000Z</time>
      </trkpt>
      <trkpt lat="42.96654467470943927764892578125" lon="-2.36837337724864482879638671875">
        <ele>1023.5999755859375</ele>
        <time>2022-04-17T15:25:08.000Z</time>
      </trkpt>
      <trkpt lat="42.96654500998556613922119140625" lon="-2.36837337724864482879638671875">
        <ele>1023.4000244140625</ele>
        <time>2022-04-17T15:25:09.000Z</time>
      </trkpt>
      <trkpt lat="42.96654559671878814697265625" lon="-2.36837337724864482879638671875">
        <ele>1023.4000244140625</ele>
        <time>2022-04-17T15:25:10.000Z</time>
      </trkpt>
      <trkpt lat="42.96654618345201015472412109375" lon="-2.36837337724864482879638671875">
        <ele>1023.4000244140625</ele>
        <time>2022-04-17T15:25:11.000Z</time>
      </trkpt>
      <trkpt lat="42.96654735691845417022705078125" lon="-2.36837337724864482879638671875">
        <ele>1023.4000244140625</ele>
        <time>2022-04-17T15:25:12.000Z</time>
      </trkpt>
      <trkpt lat="42.96654836274683475494384765625" lon="-2.36837337724864482879638671875">
        <ele>1023.4000244140625</ele>
        <time>2022-04-17T15:25:13.000Z</time>
      </trkpt>
      <trkpt lat="42.9665517993271350860595703125" lon="-2.36837337724864482879638671875">
        <ele>1023.4000244140625</ele>
        <time>2022-04-17T15:25:14.000Z</time>
      </trkpt>
      <trkpt lat="42.96655607409775257110595703125" lon="-2.36837438307702541351318359375">
        <ele>1023.4000244140625</ele>
        <time>2022-04-17T15:25:15.000Z</time>
      </trkpt>
      <trkpt lat="42.96656437218189239501953125" lon="-2.368374802172183990478515625">
        <ele>1023.4000244140625</ele>
        <time>2022-04-17T15:25:16.000Z</time>
      </trkpt>
      <trkpt lat="42.96656881459057331085205078125" lon="-2.36837723292410373687744140625">
        <ele>1023.5999755859375</ele>
        <time>2022-04-17T15:25:17.000Z</time>
      </trkpt>
      <trkpt lat="42.9665695689618587493896484375" lon="-2.3683796636760234832763671875">
        <ele>1023.5999755859375</ele>
        <time>2022-04-17T15:25:18.000Z</time>
      </trkpt>
      <trkpt lat="42.96656982041895389556884765625" lon="-2.36838092096149921417236328125">
        <ele>1023.5999755859375</ele>
        <time>2022-04-17T15:25:19.000Z</time>
      </trkpt>
      <trkpt lat="42.966572083532810211181640625" lon="-2.36838343553245067596435546875">
        <ele>1023.5999755859375</ele>
        <time>2022-04-17T15:25:20.000Z</time>
      </trkpt>
      <trkpt lat="42.96657535247504711151123046875" lon="-2.36838544718921184539794921875">
        <ele>1023.5999755859375</ele>
        <time>2022-04-17T15:25:21.000Z</time>
      </trkpt>
      <trkpt lat="42.96658121980726718902587890625" lon="-2.36839014105498790740966796875">
        <ele>1023.5999755859375</ele>
        <time>2022-04-17T15:25:22.000Z</time>
      </trkpt>
      <trkpt lat="42.9665826447308063507080078125" lon="-2.368393242359161376953125">
        <ele>1023.5999755859375</ele>
        <time>2022-04-17T15:25:23.000Z</time>
      </trkpt>
      <trkpt lat="42.96658289618790149688720703125" lon="-2.368396930396556854248046875">
        <ele>1023.4000244140625</ele>
        <time>2022-04-17T15:25:24.000Z</time>
      </trkpt>
      <trkpt lat="42.96658373437821865081787109375" lon="-2.36840137280523777008056640625">
        <ele>1023.20001220703125</ele>
        <time>2022-04-17T15:25:25.000Z</time>
      </trkpt>
      <trkpt lat="42.9665843211114406585693359375" lon="-2.36840556375682353973388671875">
        <ele>1023.20001220703125</ele>
        <time>2022-04-17T15:25:26.000Z</time>
      </trkpt>
      <trkpt lat="42.9665846563875675201416015625" lon="-2.36840874888002872467041015625">
        <ele>1023</ele>
        <time>2022-04-17T15:25:27.000Z</time>
      </trkpt>
      <trkpt lat="42.96658507548272609710693359375" lon="-2.3684105090796947479248046875">
        <ele>1023</ele>
        <time>2022-04-17T15:25:28.000Z</time>
      </trkpt>
      <trkpt lat="42.9665853269398212432861328125" lon="-2.36841109581291675567626953125">
        <ele>1022.79998779296875</ele>
        <time>2022-04-17T15:25:29.000Z</time>
      </trkpt>
      <trkpt lat="42.96658608131110668182373046875" lon="-2.36841268837451934814453125">
        <ele>1022.5999755859375</ele>
        <time>2022-04-17T15:25:30.000Z</time>
      </trkpt>
      <trkpt lat="42.96658658422529697418212890625" lon="-2.3684131912887096405029296875">
        <ele>1022.5999755859375</ele>
        <time>2022-04-17T15:25:31.000Z</time>
      </trkpt>
      <trkpt lat="42.9665873385965824127197265625" lon="-2.368414700031280517578125">
        <ele>1022.5999755859375</ele>
        <time>2022-04-17T15:25:32.000Z</time>
      </trkpt>
      <trkpt lat="42.9665876738727092742919921875" lon="-2.36841595731675624847412109375">
        <ele>1022.5999755859375</ele>
        <time>2022-04-17T15:25:33.000Z</time>
      </trkpt>
      <trkpt lat="42.96658876352012157440185546875" lon="-2.3684178851544857025146484375">
        <ele>1022.5999755859375</ele>
        <time>2022-04-17T15:25:34.000Z</time>
      </trkpt>
      <trkpt lat="42.9665896855294704437255859375" lon="-2.3684209026396274566650390625">
        <ele>1022.4000244140625</ele>
        <time>2022-04-17T15:25:35.000Z</time>
      </trkpt>
      <trkpt lat="42.96659010462462902069091796875" lon="-2.36842182464897632598876953125">
        <ele>1022.20001220703125</ele>
        <time>2022-04-17T15:25:36.000Z</time>
      </trkpt>
      <trkpt lat="42.9665916971862316131591796875" lon="-2.36842417158186435699462890625">
        <ele>1022</ele>
        <time>2022-04-17T15:25:37.000Z</time>
      </trkpt>
      <trkpt lat="42.966592870652675628662109375" lon="-2.36842635087668895721435546875">
        <ele>1022</ele>
        <time>2022-04-17T15:25:38.000Z</time>
      </trkpt>
      <trkpt lat="42.9665937088429927825927734375" lon="-2.3684323020279407501220703125">
        <ele>1021.79998779296875</ele>
        <time>2022-04-17T15:25:39.000Z</time>
      </trkpt>
      <trkpt lat="42.966594882309436798095703125" lon="-2.3684396781027317047119140625">
        <ele>1021.79998779296875</ele>
        <time>2022-04-17T15:25:40.000Z</time>
      </trkpt>
      <trkpt lat="42.96659613959491252899169921875" lon="-2.368447221815586090087890625">
        <ele>1021.4000244140625</ele>
        <time>2022-04-17T15:25:41.000Z</time>
      </trkpt>
      <trkpt lat="42.9665970616042613983154296875" lon="-2.3684561066329479217529296875">
        <ele>1021.4000244140625</ele>
        <time>2022-04-17T15:25:42.000Z</time>
      </trkpt>
      <trkpt lat="42.96659731306135654449462890625" lon="-2.3684597946703433990478515625">
        <ele>1021.20001220703125</ele>
        <time>2022-04-17T15:25:43.000Z</time>
      </trkpt>
      <trkpt lat="42.9665973968803882598876953125" lon="-2.36846155487000942230224609375">
        <ele>1020.79998779296875</ele>
        <time>2022-04-17T15:25:44.000Z</time>
      </trkpt>
      <trkpt lat="42.9665973968803882598876953125" lon="-2.368462979793548583984375">
        <ele>1020.5999755859375</ele>
        <time>2022-04-17T15:25:45.000Z</time>
      </trkpt>
      <trkpt lat="42.9665973968803882598876953125" lon="-2.36846339888870716094970703125">
        <ele>1020.4000244140625</ele>
        <time>2022-04-17T15:25:46.000Z</time>
      </trkpt>
      <trkpt lat="42.9665973968803882598876953125" lon="-2.3684634827077388763427734375">
        <ele>1020.20001220703125</ele>
        <time>2022-04-17T15:25:47.000Z</time>
      </trkpt>
      <trkpt lat="42.9665973968803882598876953125" lon="-2.3684634827077388763427734375">
        <ele>1020.20001220703125</ele>
        <time>2022-04-17T15:25:48.000Z</time>
      </trkpt>
      <trkpt lat="42.9665973968803882598876953125" lon="-2.3684634827077388763427734375">
        <ele>1020.20001220703125</ele>
        <time>2022-04-17T15:25:49.000Z</time>
      </trkpt>
      <trkpt lat="42.9665973968803882598876953125" lon="-2.3684634827077388763427734375">
        <ele>1020.20001220703125</ele>
        <time>2022-04-17T15:25:50.000Z</time>
      </trkpt>
      <trkpt lat="42.9665973968803882598876953125" lon="-2.3684634827077388763427734375">
        <ele>1020</ele>
        <time>2022-04-17T15:25:51.000Z</time>
      </trkpt>
      <trkpt lat="42.9665973968803882598876953125" lon="-2.3684634827077388763427734375">
        <ele>1020</ele>
        <time>2022-04-17T15:25:52.000Z</time>
      </trkpt>
      <trkpt lat="42.9665893502533435821533203125" lon="-2.36845954321324825286865234375">
        <ele>1019.79998779296875</ele>
        <time>2022-04-17T15:25:53.000Z</time>
      </trkpt>
      <trkpt lat="42.96657602302730083465576171875" lon="-2.3684524185955524444580078125">
        <ele>1019.79998779296875</ele>
        <time>2022-04-17T15:25:54.000Z</time>
      </trkpt>
      <trkpt lat="42.966562695801258087158203125" lon="-2.36844127066433429718017578125">
        <ele>1019.5999755859375</ele>
        <time>2022-04-17T15:25:55.000Z</time>
      </trkpt>
      <trkpt lat="42.966551966965198516845703125" lon="-2.36843280494213104248046875">
        <ele>1019.4000244140625</ele>
        <time>2022-04-17T15:25:56.000Z</time>
      </trkpt>
      <trkpt lat="42.966541238129138946533203125" lon="-2.36842769198119640350341796875">
        <ele>1019.20001220703125</ele>
        <time>2022-04-17T15:25:57.000Z</time>
      </trkpt>
      <trkpt lat="42.96653377823531627655029296875" lon="-2.3684215731918811798095703125">
        <ele>1018.79998779296875</ele>
        <time>2022-04-17T15:25:58.000Z</time>
      </trkpt>
      <trkpt lat="42.96651768498122692108154296875" lon="-2.3684133589267730712890625">
        <ele>1018.79998779296875</ele>
        <time>2022-04-17T15:25:59.000Z</time>
      </trkpt>
      <trkpt lat="42.96649287454783916473388671875" lon="-2.36841478385031223297119140625">
        <ele>1018.5999755859375</ele>
        <time>2022-04-17T15:26:00.000Z</time>
      </trkpt>
      <trkpt lat="42.966471500694751739501953125" lon="-2.36841562204062938690185546875">
        <ele>1018.4000244140625</ele>
        <time>2022-04-17T15:26:01.000Z</time>
      </trkpt>
      <trkpt lat="42.96644995920360088348388671875" lon="-2.36840908415615558624267578125">
        <ele>1018</ele>
        <time>2022-04-17T15:26:02.000Z</time>
      </trkpt>
      <trkpt lat="42.966437637805938720703125" lon="-2.36840539611876010894775390625">
        <ele>1017.79998779296875</ele>
        <time>2022-04-17T15:26:03.000Z</time>
      </trkpt>
      <trkpt lat="42.96642464585602283477783203125" lon="-2.36839366145431995391845703125">
        <ele>1017.5999755859375</ele>
        <time>2022-04-17T15:26:04.000Z</time>
      </trkpt>
      <trkpt lat="42.96641911379992961883544921875" lon="-2.36838662065565586090087890625">
        <ele>1017.4000244140625</ele>
        <time>2022-04-17T15:26:05.000Z</time>
      </trkpt>
      <trkpt lat="42.96642028726637363433837890625" lon="-2.36837907694280147552490234375">
        <ele>1017.20001220703125</ele>
        <time>2022-04-17T15:26:06.000Z</time>
      </trkpt>
      <trkpt lat="42.96641659922897815704345703125" lon="-2.36837253905832767486572265625">
        <ele>1017.20001220703125</ele>
        <time>2022-04-17T15:26:07.000Z</time>
      </trkpt>
      <trkpt lat="42.9664109833538532257080078125" lon="-2.36836868338286876678466796875">
        <ele>1017</ele>
        <time>2022-04-17T15:26:08.000Z</time>
      </trkpt>
      <trkpt lat="42.9664096422493457794189453125" lon="-2.3683662526309490203857421875">
        <ele>1017</ele>
        <time>2022-04-17T15:26:09.000Z</time>
      </trkpt>
      <trkpt lat="42.966410480439662933349609375" lon="-2.368364743888378143310546875">
        <ele>1016.79998779296875</ele>
        <time>2022-04-17T15:26:10.000Z</time>
      </trkpt>
      <trkpt lat="42.96641509048640727996826171875" lon="-2.368358708918094635009765625">
        <ele>1016.5999755859375</ele>
        <time>2022-04-17T15:26:11.000Z</time>
      </trkpt>
      <trkpt lat="42.96640989370644092559814453125" lon="-2.3683565296232700347900390625">
        <ele>1016.4000244140625</ele>
        <time>2022-04-17T15:26:12.000Z</time>
      </trkpt>
      <trkpt lat="42.9664005897939205169677734375" lon="-2.36835627816617488861083984375">
        <ele>1016.20001220703125</ele>
        <time>2022-04-17T15:26:13.000Z</time>
      </trkpt>
      <trkpt lat="42.9663972370326519012451171875" lon="-2.3683531768620014190673828125">
        <ele>1015.79998779296875</ele>
        <time>2022-04-17T15:26:14.000Z</time>
      </trkpt>
      <trkpt lat="42.96639011241495609283447265625" lon="-2.36835041083395481109619140625">
        <ele>1015.5999755859375</ele>
        <time>2022-04-17T15:26:15.000Z</time>
      </trkpt>
      <trkpt lat="42.96638466417789459228515625" lon="-2.36834990791976451873779296875">
        <ele>1015.4000244140625</ele>
        <time>2022-04-17T15:26:16.000Z</time>
      </trkpt>
      <trkpt lat="42.9663677327334880828857421875" lon="-2.36834571696817874908447265625">
        <ele>1015.4000244140625</ele>
        <time>2022-04-17T15:26:17.000Z</time>
      </trkpt>
      <trkpt lat="42.96635675244033336639404296875" lon="-2.3683501593768596649169921875">
        <ele>1015.4000244140625</ele>
        <time>2022-04-17T15:26:18.000Z</time>
      </trkpt>
      <trkpt lat="42.96635021455585956573486328125" lon="-2.3683615587651729583740234375">
        <ele>1015.20001220703125</ele>
        <time>2022-04-17T15:26:19.000Z</time>
      </trkpt>
      <trkpt lat="42.96634870581328868865966796875" lon="-2.3683677613735198974609375">
        <ele>1015.20001220703125</ele>
        <time>2022-04-17T15:26:20.000Z</time>
      </trkpt>
      <trkpt lat="42.966344766318798065185546875" lon="-2.36837103031575679779052734375">
        <ele>1015</ele>
        <time>2022-04-17T15:26:21.000Z</time>
      </trkpt>
      <trkpt lat="42.96634468249976634979248046875" lon="-2.36837924458086490631103515625">
        <ele>1014.79998779296875</ele>
        <time>2022-04-17T15:26:22.000Z</time>
      </trkpt>
      <trkpt lat="42.966348119080066680908203125" lon="-2.36838863231241703033447265625">
        <ele>1014.5999755859375</ele>
        <time>2022-04-17T15:26:23.000Z</time>
      </trkpt>
      <trkpt lat="42.96635138802230358123779296875" lon="-2.36840070225298404693603515625">
        <ele>1014.4000244140625</ele>
        <time>2022-04-17T15:26:24.000Z</time>
      </trkpt>
      <trkpt lat="42.96635373495519161224365234375" lon="-2.36841000616550445556640625">
        <ele>1014.20001220703125</ele>
        <time>2022-04-17T15:26:25.000Z</time>
      </trkpt>
      <trkpt lat="42.966356165707111358642578125" lon="-2.36842618323862552642822265625">
        <ele>1014</ele>
        <time>2022-04-17T15:26:26.000Z</time>
      </trkpt>
      <trkpt lat="42.966352142393589019775390625" lon="-2.3684410192072391510009765625">
        <ele>1013.79998779296875</ele>
        <time>2022-04-17T15:26:27.000Z</time>
      </trkpt>
      <trkpt lat="42.9663499630987644195556640625" lon="-2.36844747327268123626708984375">
        <ele>1013.5999755859375</ele>
        <time>2022-04-17T15:26:28.000Z</time>
      </trkpt>
      <trkpt lat="42.966349124908447265625" lon="-2.36845484934747219085693359375">
        <ele>1013.4000244140625</ele>
        <time>2022-04-17T15:26:29.000Z</time>
      </trkpt>
      <trkpt lat="42.96634753234684467315673828125" lon="-2.36846633255481719970703125">
        <ele>1013.4000244140625</ele>
        <time>2022-04-17T15:26:30.000Z</time>
      </trkpt>
      <trkpt lat="42.96635222621262073516845703125" lon="-2.36847697757184505462646484375">
        <ele>1013.20001220703125</ele>
        <time>2022-04-17T15:26:31.000Z</time>
      </trkpt>
      <trkpt lat="42.966353483498096466064453125" lon="-2.36848502419888973236083984375">
        <ele>1013</ele>
        <time>2022-04-17T15:26:32.000Z</time>
      </trkpt>
      <trkpt lat="42.96635381877422332763671875" lon="-2.3684923164546489715576171875">
        <ele>1013</ele>
        <time>2022-04-17T15:26:33.000Z</time>
      </trkpt>
      <trkpt lat="42.96635976992547512054443359375" lon="-2.3684919811785221099853515625">
        <ele>1012.79998779296875</ele>
        <time>2022-04-17T15:26:34.000Z</time>
      </trkpt>
      <trkpt lat="42.96636882238090038299560546875" lon="-2.36849558539688587188720703125">
        <ele>1012.79998779296875</ele>
        <time>2022-04-17T15:26:35.000Z</time>
      </trkpt>
      <trkpt lat="42.966376282274723052978515625" lon="-2.3684938251972198486328125">
        <ele>1012.5999755859375</ele>
        <time>2022-04-17T15:26:36.000Z</time>
      </trkpt>
      <trkpt lat="42.9663794673979282379150390625" lon="-2.36850363202393054962158203125">
        <ele>1012.5999755859375</ele>
        <time>2022-04-17T15:26:37.000Z</time>
      </trkpt>
      <trkpt lat="42.966374941170215606689453125" lon="-2.36851436085999011993408203125">
        <ele>1012.4000244140625</ele>
        <time>2022-04-17T15:26:38.000Z</time>
      </trkpt>
      <trkpt lat="42.96637267805635929107666015625" lon="-2.368527688086032867431640625">
        <ele>1012.20001220703125</ele>
        <time>2022-04-17T15:26:39.000Z</time>
      </trkpt>
      <trkpt lat="42.9663821496069431304931640625" lon="-2.368531040847301483154296875">
        <ele>1012</ele>
        <time>2022-04-17T15:26:40.000Z</time>
      </trkpt>
      <trkpt lat="42.96639539301395416259765625" lon="-2.36853699199855327606201171875">
        <ele>1011.79998779296875</ele>
        <time>2022-04-17T15:26:41.000Z</time>
      </trkpt>
      <trkpt lat="42.966405116021633148193359375" lon="-2.36853648908436298370361328125">
        <ele>1011.5999755859375</ele>
        <time>2022-04-17T15:26:42.000Z</time>
      </trkpt>
      <trkpt lat="42.96641089953482151031494140625" lon="-2.368537746369838714599609375">
        <ele>1011.5999755859375</ele>
        <time>2022-04-17T15:26:43.000Z</time>
      </trkpt>
      <trkpt lat="42.96641324646770954132080078125" lon="-2.36854302696883678436279296875">
        <ele>1011.4000244140625</ele>
        <time>2022-04-17T15:26:44.000Z</time>
      </trkpt>
      <trkpt lat="42.9664170183241367340087890625" lon="-2.36854503862559795379638671875">
        <ele>1011.4000244140625</ele>
        <time>2022-04-17T15:26:45.000Z</time>
      </trkpt>
      <trkpt lat="42.96642028726637363433837890625" lon="-2.36855124123394489288330078125">
        <ele>1011.20001220703125</ele>
        <time>2022-04-17T15:26:46.000Z</time>
      </trkpt>
      <trkpt lat="42.966425903141498565673828125" lon="-2.36855828203260898590087890625">
        <ele>1011.20001220703125</ele>
        <time>2022-04-17T15:26:47.000Z</time>
      </trkpt>
      <trkpt lat="42.96642900444567203521728515625" lon="-2.36856959760189056396484375">
        <ele>1011</ele>
        <time>2022-04-17T15:26:48.000Z</time>
      </trkpt>
      <trkpt lat="42.9664297588169574737548828125" lon="-2.36858208663761615753173828125">
        <ele>1011</ele>
        <time>2022-04-17T15:26:49.000Z</time>
      </trkpt>
      <trkpt lat="42.9664282500743865966796875" lon="-2.368596754968166351318359375">
        <ele>1010.79998779296875</ele>
        <time>2022-04-17T15:26:50.000Z</time>
      </trkpt>
      <trkpt lat="42.96642900444567203521728515625" lon="-2.3686145246028900146484375">
        <ele>1010.79998779296875</ele>
        <time>2022-04-17T15:26:51.000Z</time>
      </trkpt>
      <trkpt lat="42.9664287529885768890380859375" lon="-2.3686311207711696624755859375">
        <ele>1010.79998779296875</ele>
        <time>2022-04-17T15:26:52.000Z</time>
      </trkpt>
      <trkpt lat="42.9664367996156215667724609375" lon="-2.3686438612639904022216796875">
        <ele>1010.5999755859375</ele>
        <time>2022-04-17T15:26:53.000Z</time>
      </trkpt>
      <trkpt lat="42.9664448462426662445068359375" lon="-2.36865400336682796478271484375">
        <ele>1010.5999755859375</ele>
        <time>2022-04-17T15:26:54.000Z</time>
      </trkpt>
      <trkpt lat="42.96643956564366817474365234375" lon="-2.3686646483838558197021484375">
        <ele>1010.5999755859375</ele>
        <time>2022-04-17T15:26:55.000Z</time>
      </trkpt>
      <trkpt lat="42.9664416611194610595703125" lon="-2.36867018043994903564453125">
        <ele>1010.5999755859375</ele>
        <time>2022-04-17T15:26:56.000Z</time>
      </trkpt>
      <trkpt lat="42.96644861809909343719482421875" lon="-2.36867596395313739776611328125">
        <ele>1010.5999755859375</ele>
        <time>2022-04-17T15:26:57.000Z</time>
      </trkpt>
      <trkpt lat="42.9664502106606960296630859375" lon="-2.368687950074672698974609375">
        <ele>1010.4000244140625</ele>
        <time>2022-04-17T15:26:58.000Z</time>
      </trkpt>
      <trkpt lat="42.96645306050777435302734375" lon="-2.36869775690138339996337890625">
        <ele>1010.4000244140625</ele>
        <time>2022-04-17T15:26:59.000Z</time>
      </trkpt>
      <trkpt lat="42.966448701918125152587890625" lon="-2.3687122575938701629638671875">
        <ele>1010.20001220703125</ele>
        <time>2022-04-17T15:27:00.000Z</time>
      </trkpt>
      <trkpt lat="42.96644610352814197540283203125" lon="-2.3687216453254222869873046875">
        <ele>1010</ele>
        <time>2022-04-17T15:27:01.000Z</time>
      </trkpt>
      <trkpt lat="42.9664458520710468292236328125" lon="-2.36873027868568897247314453125">
        <ele>1009.79998779296875</ele>
        <time>2022-04-17T15:27:02.000Z</time>
      </trkpt>
      <trkpt lat="42.96645079739391803741455078125" lon="-2.3687420971691608428955078125">
        <ele>1009.5999755859375</ele>
        <time>2022-04-17T15:27:03.000Z</time>
      </trkpt>
      <trkpt lat="42.96646018512547016143798828125" lon="-2.36876179464161396026611328125">
        <ele>1009.4000244140625</ele>
        <time>2022-04-17T15:27:04.000Z</time>
      </trkpt>
      <trkpt lat="42.9664639569818973541259765625" lon="-2.3687776364386081695556640625">
        <ele>1009</ele>
        <time>2022-04-17T15:27:05.000Z</time>
      </trkpt>
      <trkpt lat="42.96646772883832454681396484375" lon="-2.36878794617950916290283203125">
        <ele>1009</ele>
        <time>2022-04-17T15:27:06.000Z</time>
      </trkpt>
      <trkpt lat="42.96646647155284881591796875" lon="-2.36879498697817325592041015625">
        <ele>1008.79998779296875</ele>
        <time>2022-04-17T15:27:07.000Z</time>
      </trkpt>
      <trkpt lat="42.96646471135318279266357421875" lon="-2.36880470998585224151611328125">
        <ele>1008.79998779296875</ele>
        <time>2022-04-17T15:27:08.000Z</time>
      </trkpt>
      <trkpt lat="42.96646588481962680816650390625" lon="-2.36880688928067684173583984375">
        <ele>1008.79998779296875</ele>
        <time>2022-04-17T15:27:09.000Z</time>
      </trkpt>
      <trkpt lat="42.96647585928440093994140625" lon="-2.368803955614566802978515625">
        <ele>1008.5999755859375</ele>
        <time>2022-04-17T15:27:10.000Z</time>
      </trkpt>
      <trkpt lat="42.96648315154016017913818359375" lon="-2.36881761811673641204833984375">
        <ele>1008.5999755859375</ele>
        <time>2022-04-17T15:27:11.000Z</time>
      </trkpt>
      <trkpt lat="42.96649337746202945709228515625" lon="-2.3688237369060516357421875">
        <ele>1008.5999755859375</ele>
        <time>2022-04-17T15:27:12.000Z</time>
      </trkpt>
      <trkpt lat="42.966496311128139495849609375" lon="-2.36882432363927364349365234375">
        <ele>1008.4000244140625</ele>
        <time>2022-04-17T15:27:13.000Z</time>
      </trkpt>
      <trkpt lat="42.966498993337154388427734375" lon="-2.368822060525417327880859375">
        <ele>1008.4000244140625</ele>
        <time>2022-04-17T15:27:14.000Z</time>
      </trkpt>
      <trkpt lat="42.96650310046970844268798828125" lon="-2.3688212223351001739501953125">
        <ele>1008.4000244140625</ele>
        <time>2022-04-17T15:27:15.000Z</time>
      </trkpt>
      <trkpt lat="42.9665011726319789886474609375" lon="-2.3688222281634807586669921875">
        <ele>1008.4000244140625</ele>
        <time>2022-04-17T15:27:16.000Z</time>
      </trkpt>
      <trkpt lat="42.966502010822296142578125" lon="-2.3688299395143985748291015625">
        <ele>1008.4000244140625</ele>
        <time>2022-04-17T15:27:17.000Z</time>
      </trkpt>
      <trkpt lat="42.96650469303131103515625" lon="-2.368833459913730621337890625">
        <ele>1008.4000244140625</ele>
        <time>2022-04-17T15:27:18.000Z</time>
      </trkpt>
      <trkpt lat="42.966505028307437896728515625" lon="-2.36883924342691898345947265625">
        <ele>1008.4000244140625</ele>
        <time>2022-04-17T15:27:19.000Z</time>
      </trkpt>
      <trkpt lat="42.9665072076022624969482421875" lon="-2.36884661950170993804931640625">
        <ele>1008.4000244140625</ele>
        <time>2022-04-17T15:27:20.000Z</time>
      </trkpt>
      <trkpt lat="42.96651265583932399749755859375" lon="-2.368850223720073699951171875">
        <ele>1008.4000244140625</ele>
        <time>2022-04-17T15:27:21.000Z</time>
      </trkpt>
      <trkpt lat="42.9665162600576877593994140625" lon="-2.36885684542357921600341796875">
        <ele>1008.4000244140625</ele>
        <time>2022-04-17T15:27:22.000Z</time>
      </trkpt>
      <trkpt lat="42.96652321703732013702392578125" lon="-2.3688661493360996246337890625">
        <ele>1008</ele>
        <time>2022-04-17T15:27:23.000Z</time>
      </trkpt>
      <trkpt lat="42.9665283299982547760009765625" lon="-2.36886958591639995574951171875">
        <ele>1007.79998779296875</ele>
        <time>2022-04-17T15:27:24.000Z</time>
      </trkpt>
      <trkpt lat="42.96653528697788715362548828125" lon="-2.3688728548586368560791015625">
        <ele>1007.79998779296875</ele>
        <time>2022-04-17T15:27:25.000Z</time>
      </trkpt>
      <trkpt lat="42.966537214815616607666015625" lon="-2.36887478269636631011962890625">
        <ele>1007.5999755859375</ele>
        <time>2022-04-17T15:27:26.000Z</time>
      </trkpt>
      <trkpt lat="42.966537214815616607666015625" lon="-2.36887478269636631011962890625">
        <ele>1007.4000244140625</ele>
        <time>2022-04-17T15:27:27.000Z</time>
      </trkpt>
      <trkpt lat="42.966537214815616607666015625" lon="-2.36887478269636631011962890625">
        <ele>1007.4000244140625</ele>
        <time>2022-04-17T15:27:28.000Z</time>
      </trkpt>
      <trkpt lat="42.966537214815616607666015625" lon="-2.36887478269636631011962890625">
        <ele>1007.20001220703125</ele>
        <time>2022-04-17T15:27:29.000Z</time>
      </trkpt>
      <trkpt lat="42.966537214815616607666015625" lon="-2.36887478269636631011962890625">
        <ele>1007.20001220703125</ele>
        <time>2022-04-17T15:27:30.000Z</time>
      </trkpt>
      <trkpt lat="42.966537214815616607666015625" lon="-2.36887478269636631011962890625">
        <ele>1007.20001220703125</ele>
        <time>2022-04-17T15:27:31.000Z</time>
      </trkpt>
      <trkpt lat="42.96653931029140949249267578125" lon="-2.36888031475245952606201171875">
        <ele>1007</ele>
        <time>2022-04-17T15:27:32.000Z</time>
      </trkpt>
      <trkpt lat="42.96654869802296161651611328125" lon="-2.368907891213893890380859375">
        <ele>1007</ele>
        <time>2022-04-17T15:27:33.000Z</time>
      </trkpt>
      <trkpt lat="42.96655632555484771728515625" lon="-2.36893571913242340087890625">
        <ele>1007</ele>
        <time>2022-04-17T15:27:34.000Z</time>
      </trkpt>
      <trkpt lat="42.96656294725835323333740234375" lon="-2.3689623735845088958740234375">
        <ele>1006.79998779296875</ele>
        <time>2022-04-17T15:27:35.000Z</time>
      </trkpt>
      <trkpt lat="42.96657669357955455780029296875" lon="-2.36899011768400669097900390625">
        <ele>1006.79998779296875</ele>
        <time>2022-04-17T15:27:36.000Z</time>
      </trkpt>
      <trkpt lat="42.96658717095851898193359375" lon="-2.3690156824886798858642578125">
        <ele>1006.79998779296875</ele>
        <time>2022-04-17T15:27:37.000Z</time>
      </trkpt>
      <trkpt lat="42.966594882309436798095703125" lon="-2.3690401576459407806396484375">
        <ele>1006.79998779296875</ele>
        <time>2022-04-17T15:27:38.000Z</time>
      </trkpt>
      <trkpt lat="42.9666024260222911834716796875" lon="-2.36906270496547222137451171875">
        <ele>1006.79998779296875</ele>
        <time>2022-04-17T15:27:39.000Z</time>
      </trkpt>
      <trkpt lat="42.96661558561027050018310546875" lon="-2.36907410435378551483154296875">
        <ele>1006.79998779296875</ele>
        <time>2022-04-17T15:27:40.000Z</time>
      </trkpt>
      <trkpt lat="42.966630756855010986328125" lon="-2.3690887726843357086181640625">
        <ele>1006.79998779296875</ele>
        <time>2022-04-17T15:27:41.000Z</time>
      </trkpt>
      <trkpt lat="42.9666409827768802642822265625" lon="-2.36910494975745677947998046875">
        <ele>1006.79998779296875</ele>
        <time>2022-04-17T15:27:42.000Z</time>
      </trkpt>
      <trkpt lat="42.96664492227137088775634765625" lon="-2.36911249347031116485595703125">
        <ele>1006.79998779296875</ele>
        <time>2022-04-17T15:27:43.000Z</time>
      </trkpt>
      <trkpt lat="42.96664861030876636505126953125" lon="-2.36911836080253124237060546875">
        <ele>1006.5999755859375</ele>
        <time>2022-04-17T15:27:44.000Z</time>
      </trkpt>
      <trkpt lat="42.9666510410606861114501953125" lon="-2.36912238411605358123779296875">
        <ele>1006.5999755859375</ele>
        <time>2022-04-17T15:27:45.000Z</time>
      </trkpt>
      <trkpt lat="42.96665690839290618896484375" lon="-2.369126491248607635498046875">
        <ele>1006.5999755859375</ele>
        <time>2022-04-17T15:27:46.000Z</time>
      </trkpt>
      <trkpt lat="42.96665866859257221221923828125" lon="-2.36913210712373256683349609375">
        <ele>1006.4000244140625</ele>
        <time>2022-04-17T15:27:47.000Z</time>
      </trkpt>
      <trkpt lat="42.96665665693581104278564453125" lon="-2.36913680098950862884521484375">
        <ele>1006.4000244140625</ele>
        <time>2022-04-17T15:27:48.000Z</time>
      </trkpt>
      <trkpt lat="42.96665783040225505828857421875" lon="-2.36915431916713714599609375">
        <ele>1006.20001220703125</ele>
        <time>2022-04-17T15:27:49.000Z</time>
      </trkpt>
      <trkpt lat="42.96666369773447513580322265625" lon="-2.369166053831577301025390625">
        <ele>1006</ele>
        <time>2022-04-17T15:27:50.000Z</time>
      </trkpt>
      <trkpt lat="42.96667409129440784454345703125" lon="-2.36917720176279544830322265625">
        <ele>1005.5999755859375</ele>
        <time>2022-04-17T15:27:51.000Z</time>
      </trkpt>
      <trkpt lat="42.96668012626469135284423828125" lon="-2.36918457783758640289306640625">
        <ele>1005.4000244140625</ele>
        <time>2022-04-17T15:27:52.000Z</time>
      </trkpt>
      <trkpt lat="42.96667526476085186004638671875" lon="-2.36919664777815341949462890625">
        <ele>1005.20001220703125</ele>
        <time>2022-04-17T15:27:53.000Z</time>
      </trkpt>
      <trkpt lat="42.96667568385601043701171875" lon="-2.369216345250606536865234375">
        <ele>1005.20001220703125</ele>
        <time>2022-04-17T15:27:54.000Z</time>
      </trkpt>
      <trkpt lat="42.96667509712278842926025390625" lon="-2.3692289181053638458251953125">
        <ele>1005</ele>
        <time>2022-04-17T15:27:55.000Z</time>
      </trkpt>
      <trkpt lat="42.966679371893405914306640625" lon="-2.36923302523791790008544921875">
        <ele>1004.79998779296875</ele>
        <time>2022-04-17T15:27:56.000Z</time>
      </trkpt>
      <trkpt lat="42.9666849039494991302490234375" lon="-2.36923302523791790008544921875">
        <ele>1004.5999755859375</ele>
        <time>2022-04-17T15:27:57.000Z</time>
      </trkpt>
      <trkpt lat="42.96670108102262020111083984375" lon="-2.3692292533814907073974609375">
        <ele>1004.5999755859375</ele>
        <time>2022-04-17T15:27:58.000Z</time>
      </trkpt>
      <trkpt lat="42.96670694835484027862548828125" lon="-2.3692272417247295379638671875">
        <ele>1004.4000244140625</ele>
        <time>2022-04-17T15:27:59.000Z</time>
      </trkpt>
      <trkpt lat="42.966706864535808563232421875" lon="-2.36923352815210819244384765625">
        <ele>1004.20001220703125</ele>
        <time>2022-04-17T15:28:00.000Z</time>
      </trkpt>
      <trkpt lat="42.9667060263454914093017578125" lon="-2.3692389763891696929931640625">
        <ele>1004.20001220703125</ele>
        <time>2022-04-17T15:28:01.000Z</time>
      </trkpt>
      <trkpt lat="42.96670795418322086334228515625" lon="-2.36924123950302600860595703125">
        <ele>1004.20001220703125</ele>
        <time>2022-04-17T15:28:02.000Z</time>
      </trkpt>
      <trkpt lat="42.966714911162853240966796875" lon="-2.36924593336880207061767578125">
        <ele>1004</ele>
        <time>2022-04-17T15:28:03.000Z</time>
      </trkpt>
      <trkpt lat="42.96672186814248561859130859375" lon="-2.369254566729068756103515625">
        <ele>1004</ele>
        <time>2022-04-17T15:28:04.000Z</time>
      </trkpt>
      <trkpt lat="42.966727316379547119140625" lon="-2.3692631162703037261962890625">
        <ele>1004</ele>
        <time>2022-04-17T15:28:05.000Z</time>
      </trkpt>
      <trkpt lat="42.96673309989273548126220703125" lon="-2.36926923505961894989013671875">
        <ele>1004</ele>
        <time>2022-04-17T15:28:06.000Z</time>
      </trkpt>
      <trkpt lat="42.966738045215606689453125" lon="-2.36927929334342479705810546875">
        <ele>1003.79998779296875</ele>
        <time>2022-04-17T15:28:07.000Z</time>
      </trkpt>
      <trkpt lat="42.966747097671031951904296875" lon="-2.3692810535430908203125">
        <ele>1003.79998779296875</ele>
        <time>2022-04-17T15:28:08.000Z</time>
      </trkpt>
      <trkpt lat="42.9667496122419834136962890625" lon="-2.36928164027631282806396484375">
        <ele>1003.79998779296875</ele>
        <time>2022-04-17T15:28:09.000Z</time>
      </trkpt>
      <trkpt lat="42.96675606630742549896240234375" lon="-2.36928482539951801300048828125">
        <ele>1003.5999755859375</ele>
        <time>2022-04-17T15:28:10.000Z</time>
      </trkpt>
      <trkpt lat="42.96676143072545528411865234375" lon="-2.36929186619818210601806640625">
        <ele>1003.5999755859375</ele>
        <time>2022-04-17T15:28:11.000Z</time>
      </trkpt>
      <trkpt lat="42.96676612459123134613037109375" lon="-2.36929806880652904510498046875">
        <ele>1003.4000244140625</ele>
        <time>2022-04-17T15:28:12.000Z</time>
      </trkpt>
      <trkpt lat="42.96677031554281711578369140625" lon="-2.36930184066295623779296875">
        <ele>1003.4000244140625</ele>
        <time>2022-04-17T15:28:13.000Z</time>
      </trkpt>
      <trkpt lat="42.96677350066602230072021484375" lon="-2.369310222566127777099609375">
        <ele>1003.4000244140625</ele>
        <time>2022-04-17T15:28:14.000Z</time>
      </trkpt>
      <trkpt lat="42.96678439714014530181884765625" lon="-2.36932438798248767852783203125">
        <ele>1003.4000244140625</ele>
        <time>2022-04-17T15:28:15.000Z</time>
      </trkpt>
      <trkpt lat="42.96680250205099582672119140625" lon="-2.36933394335210323333740234375">
        <ele>1003.4000244140625</ele>
        <time>2022-04-17T15:28:16.000Z</time>
      </trkpt>
      <trkpt lat="42.96681138686835765838623046875" lon="-2.3693405650556087493896484375">
        <ele>1003.4000244140625</ele>
        <time>2022-04-17T15:28:17.000Z</time>
      </trkpt>
      <trkpt lat="42.96682228334248065948486328125" lon="-2.36934718675911426544189453125">
        <ele>1003.4000244140625</ele>
        <time>2022-04-17T15:28:18.000Z</time>
      </trkpt>
      <trkpt lat="42.966823875904083251953125" lon="-2.369354479014873504638671875">
        <ele>1003.20001220703125</ele>
        <time>2022-04-17T15:28:19.000Z</time>
      </trkpt>
      <trkpt lat="42.96683527529239654541015625" lon="-2.36936177127063274383544921875">
        <ele>1003.20001220703125</ele>
        <time>2022-04-17T15:28:20.000Z</time>
      </trkpt>
      <trkpt lat="42.9668377898633480072021484375" lon="-2.3693737573921680450439453125">
        <ele>1003.20001220703125</ele>
        <time>2022-04-17T15:28:21.000Z</time>
      </trkpt>
      <trkpt lat="42.96683854423463344573974609375" lon="-2.36939077265560626983642578125">
        <ele>1003</ele>
        <time>2022-04-17T15:28:22.000Z</time>
      </trkpt>
      <trkpt lat="42.96684156171977519989013671875" lon="-2.36940351314842700958251953125">
        <ele>1003</ele>
        <time>2022-04-17T15:28:23.000Z</time>
      </trkpt>
      <trkpt lat="42.96684726141393184661865234375" lon="-2.3694143258035182952880859375">
        <ele>1003</ele>
        <time>2022-04-17T15:28:24.000Z</time>
      </trkpt>
      <trkpt lat="42.96684826724231243133544921875" lon="-2.36942128278315067291259765625">
        <ele>1003.20001220703125</ele>
        <time>2022-04-17T15:28:25.000Z</time>
      </trkpt>
      <trkpt lat="42.9668572358787059783935546875" lon="-2.369428910315036773681640625">
        <ele>1003.20001220703125</ele>
        <time>2022-04-17T15:28:26.000Z</time>
      </trkpt>
      <trkpt lat="42.96686477959156036376953125" lon="-2.3694317601621150970458984375">
        <ele>1003.20001220703125</ele>
        <time>2022-04-17T15:28:27.000Z</time>
      </trkpt>
      <trkpt lat="42.96687291003763675689697265625" lon="-2.36943871714174747467041015625">
        <ele>1003</ele>
        <time>2022-04-17T15:28:28.000Z</time>
      </trkpt>
      <trkpt lat="42.966883219778537750244140625" lon="-2.36944357864558696746826171875">
        <ele>1003</ele>
        <time>2022-04-17T15:28:29.000Z</time>
      </trkpt>
      <trkpt lat="42.96689369715750217437744140625" lon="-2.36944793723523616790771484375">
        <ele>1003</ele>
        <time>2022-04-17T15:28:30.000Z</time>
      </trkpt>
      <trkpt lat="42.96690157614648342132568359375" lon="-2.369455397129058837890625">
        <ele>1003</ele>
        <time>2022-04-17T15:28:31.000Z</time>
      </trkpt>
      <trkpt lat="42.96691171824932098388671875" lon="-2.36945799551904201507568359375">
        <ele>1003</ele>
        <time>2022-04-17T15:28:32.000Z</time>
      </trkpt>
      <trkpt lat="42.96692018397152423858642578125" lon="-2.36945212818682193756103515625">
        <ele>1003</ele>
        <time>2022-04-17T15:28:33.000Z</time>
      </trkpt>
      <trkpt lat="42.96692487783730030059814453125" lon="-2.3694461770355701446533203125">
        <ele>1003</ele>
        <time>2022-04-17T15:28:34.000Z</time>
      </trkpt>
      <trkpt lat="42.96692471019923686981201171875" lon="-2.3694404773414134979248046875">
        <ele>1003</ele>
        <time>2022-04-17T15:28:35.000Z</time>
      </trkpt>
      <trkpt lat="42.966926135122776031494140625" lon="-2.36943662166595458984375">
        <ele>1003</ele>
        <time>2022-04-17T15:28:36.000Z</time>
      </trkpt>
      <trkpt lat="42.96692647039890289306640625" lon="-2.3694331012666225433349609375">
        <ele>1003</ele>
        <time>2022-04-17T15:28:37.000Z</time>
      </trkpt>
      <trkpt lat="42.9669296555221080780029296875" lon="-2.36943058669567108154296875">
        <ele>1003.20001220703125</ele>
        <time>2022-04-17T15:28:38.000Z</time>
      </trkpt>
      <trkpt lat="42.96693124808371067047119140625" lon="-2.36942748539149761199951171875">
        <ele>1003.20001220703125</ele>
        <time>2022-04-17T15:28:39.000Z</time>
      </trkpt>
      <trkpt lat="42.9669356904923915863037109375" lon="-2.369423545897006988525390625">
        <ele>1003.20001220703125</ele>
        <time>2022-04-17T15:28:40.000Z</time>
      </trkpt>
      <trkpt lat="42.96694214455783367156982421875" lon="-2.36941357143223285675048828125">
        <ele>1003</ele>
        <time>2022-04-17T15:28:41.000Z</time>
      </trkpt>
      <trkpt lat="42.96694784425199031829833984375" lon="-2.36940032802522182464599609375">
        <ele>1003</ele>
        <time>2022-04-17T15:28:42.000Z</time>
      </trkpt>
      <trkpt lat="42.96695639379322528839111328125" lon="-2.36939161084592342376708984375">
        <ele>1003</ele>
        <time>2022-04-17T15:28:43.000Z</time>
      </trkpt>
      <trkpt lat="42.96696192584931850433349609375" lon="-2.36938901245594024658203125">
        <ele>1003</ele>
        <time>2022-04-17T15:28:44.000Z</time>
      </trkpt>
      <trkpt lat="42.96695974655449390411376953125" lon="-2.36938758753240108489990234375">
        <ele>1003</ele>
        <time>2022-04-17T15:28:45.000Z</time>
      </trkpt>
      <trkpt lat="42.96695957891643047332763671875" lon="-2.369387336075305938720703125">
        <ele>1003</ele>
        <time>2022-04-17T15:28:46.000Z</time>
      </trkpt>
      <trkpt lat="42.96695790253579616546630859375" lon="-2.36938792280852794647216796875">
        <ele>1003</ele>
        <time>2022-04-17T15:28:47.000Z</time>
      </trkpt>
      <trkpt lat="42.96695304103195667266845703125" lon="-2.3693870007991790771484375">
        <ele>1003</ele>
        <time>2022-04-17T15:28:48.000Z</time>
      </trkpt>
      <trkpt lat="42.9669566452503204345703125" lon="-2.3693811334669589996337890625">
        <ele>1003.20001220703125</ele>
        <time>2022-04-17T15:28:49.000Z</time>
      </trkpt>
      <trkpt lat="42.96695639379322528839111328125" lon="-2.3693771101534366607666015625">
        <ele>1003.20001220703125</ele>
        <time>2022-04-17T15:28:50.000Z</time>
      </trkpt>
      <trkpt lat="42.966956980526447296142578125" lon="-2.36937082372605800628662109375">
        <ele>1003.20001220703125</ele>
        <time>2022-04-17T15:28:51.000Z</time>
      </trkpt>
      <trkpt lat="42.96696125529706478118896484375" lon="-2.3693690635263919830322265625">
        <ele>1003.20001220703125</ele>
        <time>2022-04-17T15:28:52.000Z</time>
      </trkpt>
      <trkpt lat="42.96695974655449390411376953125" lon="-2.36937065608799457550048828125">
        <ele>1003.20001220703125</ele>
        <time>2022-04-17T15:28:53.000Z</time>
      </trkpt>
      <trkpt lat="42.9669584892690181732177734375" lon="-2.3693757690489292144775390625">
        <ele>1003.20001220703125</ele>
        <time>2022-04-17T15:28:54.000Z</time>
      </trkpt>
      <trkpt lat="42.96696075238287448883056640625" lon="-2.36937803216278553009033203125">
        <ele>1003.20001220703125</ele>
        <time>2022-04-17T15:28:55.000Z</time>
      </trkpt>
      <trkpt lat="42.9669621773064136505126953125" lon="-2.36937870271503925323486328125">
        <ele>1003</ele>
        <time>2022-04-17T15:28:56.000Z</time>
      </trkpt>
      <trkpt lat="42.96696661971509456634521484375" lon="-2.369381971657276153564453125">
        <ele>1003</ele>
        <time>2022-04-17T15:28:57.000Z</time>
      </trkpt>
      <trkpt lat="42.966968715190887451171875" lon="-2.369382642209529876708984375">
        <ele>1003</ele>
        <time>2022-04-17T15:28:58.000Z</time>
      </trkpt>
      <trkpt lat="42.966968715190887451171875" lon="-2.369382642209529876708984375">
        <ele>1003</ele>
        <time>2022-04-17T15:28:59.000Z</time>
      </trkpt>
      <trkpt lat="42.966968715190887451171875" lon="-2.369382642209529876708984375">
        <ele>1003</ele>
        <time>2022-04-17T15:29:00.000Z</time>
      </trkpt>
      <trkpt lat="42.966968715190887451171875" lon="-2.369382642209529876708984375">
        <ele>1003.20001220703125</ele>
        <time>2022-04-17T15:29:01.000Z</time>
      </trkpt>
      <trkpt lat="42.966968715190887451171875" lon="-2.369382642209529876708984375">
        <ele>1003</ele>
        <time>2022-04-17T15:29:02.000Z</time>
      </trkpt>
      <trkpt lat="42.966968715190887451171875" lon="-2.369382642209529876708984375">
        <ele>1003</ele>
        <time>2022-04-17T15:29:03.000Z</time>
      </trkpt>
      <trkpt lat="42.966968715190887451171875" lon="-2.369382642209529876708984375">
        <ele>1002.79998779296875</ele>
        <time>2022-04-17T15:29:04.000Z</time>
      </trkpt>
      <trkpt lat="42.966968715190887451171875" lon="-2.369382642209529876708984375">
        <ele>1002.79998779296875</ele>
        <time>2022-04-17T15:29:05.000Z</time>
      </trkpt>
      <trkpt lat="42.966968715190887451171875" lon="-2.369382642209529876708984375">
        <ele>1002.79998779296875</ele>
        <time>2022-04-17T15:29:06.000Z</time>
      </trkpt>
      <trkpt lat="42.966968715190887451171875" lon="-2.369381971657276153564453125">
        <ele>1002.79998779296875</ele>
        <time>2022-04-17T15:29:07.000Z</time>
      </trkpt>
      <trkpt lat="42.966968715190887451171875" lon="-2.3693814687430858612060546875">
        <ele>1002.79998779296875</ele>
        <time>2022-04-17T15:29:08.000Z</time>
      </trkpt>
      <trkpt lat="42.966968715190887451171875" lon="-2.36938138492405414581298828125">
        <ele>1002.79998779296875</ele>
        <time>2022-04-17T15:29:09.000Z</time>
      </trkpt>
      <trkpt lat="42.966968715190887451171875" lon="-2.36938138492405414581298828125">
        <ele>1002.79998779296875</ele>
        <time>2022-04-17T15:29:10.000Z</time>
      </trkpt>
      <trkpt lat="42.966968715190887451171875" lon="-2.36938138492405414581298828125">
        <ele>1002.5999755859375</ele>
        <time>2022-04-17T15:29:11.000Z</time>
      </trkpt>
      <trkpt lat="42.966968715190887451171875" lon="-2.36938138492405414581298828125">
        <ele>1002.5999755859375</ele>
        <time>2022-04-17T15:29:12.000Z</time>
      </trkpt>
      <trkpt lat="42.966968715190887451171875" lon="-2.36938138492405414581298828125">
        <ele>1002.4000244140625</ele>
        <time>2022-04-17T15:29:13.000Z</time>
      </trkpt>
      <trkpt lat="42.96697072684764862060546875" lon="-2.36938138492405414581298828125">
        <ele>1002.4000244140625</ele>
        <time>2022-04-17T15:29:14.000Z</time>
      </trkpt>
      <trkpt lat="42.96697617508471012115478515625" lon="-2.36938138492405414581298828125">
        <ele>1002.4000244140625</ele>
        <time>2022-04-17T15:29:15.000Z</time>
      </trkpt>
      <trkpt lat="42.96697667799890041351318359375" lon="-2.36938138492405414581298828125">
        <ele>1002.4000244140625</ele>
        <time>2022-04-17T15:29:16.000Z</time>
      </trkpt>
      <trkpt lat="42.9669779352843761444091796875" lon="-2.36938138492405414581298828125">
        <ele>1002.4000244140625</ele>
        <time>2022-04-17T15:29:17.000Z</time>
      </trkpt>
      <trkpt lat="42.966978438198566436767578125" lon="-2.36938138492405414581298828125">
        <ele>1002.4000244140625</ele>
        <time>2022-04-17T15:29:18.000Z</time>
      </trkpt>
      <trkpt lat="42.96697936020791530609130859375" lon="-2.36938138492405414581298828125">
        <ele>1002.20001220703125</ele>
        <time>2022-04-17T15:29:19.000Z</time>
      </trkpt>
      <trkpt lat="42.96697969548404216766357421875" lon="-2.36938172020018100738525390625">
        <ele>1002.20001220703125</ele>
        <time>2022-04-17T15:29:20.000Z</time>
      </trkpt>
      <trkpt lat="42.966980449855327606201171875" lon="-2.36938188783824443817138671875">
        <ele>1002.20001220703125</ele>
        <time>2022-04-17T15:29:21.000Z</time>
      </trkpt>
      <trkpt lat="42.9669812880456447601318359375" lon="-2.36938255839049816131591796875">
        <ele>1002.20001220703125</ele>
        <time>2022-04-17T15:29:22.000Z</time>
      </trkpt>
      <trkpt lat="42.96698304824531078338623046875" lon="-2.3693831451237201690673828125">
        <ele>1002.20001220703125</ele>
        <time>2022-04-17T15:29:23.000Z</time>
      </trkpt>
      <trkpt lat="42.9669836349785327911376953125" lon="-2.36938423477113246917724609375">
        <ele>1002.20001220703125</ele>
        <time>2022-04-17T15:29:24.000Z</time>
      </trkpt>
      <trkpt lat="42.96698472462594509124755859375" lon="-2.3693864978849887847900390625">
        <ele>1002.20001220703125</ele>
        <time>2022-04-17T15:29:25.000Z</time>
      </trkpt>
      <trkpt lat="42.96698505990207195281982421875" lon="-2.3693896830081939697265625">
        <ele>1002</ele>
        <time>2022-04-17T15:29:26.000Z</time>
      </trkpt>
      <trkpt lat="42.9669853113591670989990234375" lon="-2.3693921975791454315185546875">
        <ele>1002</ele>
        <time>2022-04-17T15:29:27.000Z</time>
      </trkpt>
      <trkpt lat="42.96698723919689655303955078125" lon="-2.3693999089300632476806640625">
        <ele>1002</ele>
        <time>2022-04-17T15:29:28.000Z</time>
      </trkpt>
      <trkpt lat="42.966995872557163238525390625" lon="-2.3694223724305629730224609375">
        <ele>1002</ele>
        <time>2022-04-17T15:29:29.000Z</time>
      </trkpt>
      <trkpt lat="42.966995872557163238525390625" lon="-2.36944592557847499847412109375">
        <ele>1002</ele>
        <time>2022-04-17T15:29:30.000Z</time>
      </trkpt>
      <trkpt lat="42.966999895870685577392578125" lon="-2.36946805380284786224365234375">
        <ele>1002</ele>
        <time>2022-04-17T15:29:31.000Z</time>
      </trkpt>
      <trkpt lat="42.9669983871281147003173828125" lon="-2.36949470825493335723876953125">
        <ele>1001.79998779296875</ele>
        <time>2022-04-17T15:29:32.000Z</time>
      </trkpt>
      <trkpt lat="42.96699889004230499267578125" lon="-2.36950878985226154327392578125">
        <ele>1001.79998779296875</ele>
        <time>2022-04-17T15:29:33.000Z</time>
      </trkpt>
      <trkpt lat="42.96699562110006809234619140625" lon="-2.3695179261267185211181640625">
        <ele>1001.79998779296875</ele>
        <time>2022-04-17T15:29:34.000Z</time>
      </trkpt>
      <trkpt lat="42.9669946990907192230224609375" lon="-2.3695236258208751678466796875">
        <ele>1001.5999755859375</ele>
        <time>2022-04-17T15:29:35.000Z</time>
      </trkpt>
      <trkpt lat="42.96699620783329010009765625" lon="-2.36952446401119232177734375">
        <ele>1001.4000244140625</ele>
        <time>2022-04-17T15:29:36.000Z</time>
      </trkpt>
      <trkpt lat="42.966998554766178131103515625" lon="-2.3695226199924945831298828125">
        <ele>1001.4000244140625</ele>
        <time>2022-04-17T15:29:37.000Z</time>
      </trkpt>
      <trkpt lat="42.96699712984263896942138671875" lon="-2.36950895749032497406005859375">
        <ele>1001.20001220703125</ele>
        <time>2022-04-17T15:29:38.000Z</time>
      </trkpt>
      <trkpt lat="42.9669946990907192230224609375" lon="-2.369505353271961212158203125">
        <ele>1001.20001220703125</ele>
        <time>2022-04-17T15:29:39.000Z</time>
      </trkpt>
      <trkpt lat="42.96699360944330692291259765625" lon="-2.369505353271961212158203125">
        <ele>1001.20001220703125</ele>
        <time>2022-04-17T15:29:40.000Z</time>
      </trkpt>
      <trkpt lat="42.966992855072021484375" lon="-2.36950644291937351226806640625">
        <ele>1001</ele>
        <time>2022-04-17T15:29:41.000Z</time>
      </trkpt>
      <trkpt lat="42.9669923521578311920166015625" lon="-2.36951130442321300506591796875">
        <ele>1001</ele>
        <time>2022-04-17T15:29:42.000Z</time>
      </trkpt>
      <trkpt lat="42.96699059195816516876220703125" lon="-2.369520775973796844482421875">
        <ele>1001</ele>
        <time>2022-04-17T15:29:43.000Z</time>
      </trkpt>
      <trkpt lat="42.96699578873813152313232421875" lon="-2.36952823586761951446533203125">
        <ele>1001</ele>
        <time>2022-04-17T15:29:44.000Z</time>
      </trkpt>
      <trkpt lat="42.96700081788003444671630859375" lon="-2.36953343264758586883544921875">
        <ele>1001</ele>
        <time>2022-04-17T15:29:45.000Z</time>
      </trkpt>
      <trkpt lat="42.9670017398893833160400390625" lon="-2.36953745596110820770263671875">
        <ele>1001</ele>
        <time>2022-04-17T15:29:46.000Z</time>
      </trkpt>
      <trkpt lat="42.96700316481292247772216796875" lon="-2.3695434071123600006103515625">
        <ele>1001</ele>
        <time>2022-04-17T15:29:47.000Z</time>
      </trkpt>
      <trkpt lat="42.96700333245098590850830078125" lon="-2.36955053173005580902099609375">
        <ele>1001</ele>
        <time>2022-04-17T15:29:48.000Z</time>
      </trkpt>
      <trkpt lat="42.96700316481292247772216796875" lon="-2.369556315243244171142578125">
        <ele>1000.79998779296875</ele>
        <time>2022-04-17T15:29:49.000Z</time>
      </trkpt>
      <trkpt lat="42.96700534410774707794189453125" lon="-2.3695605061948299407958984375">
        <ele>1000.79998779296875</ele>
        <time>2022-04-17T15:29:50.000Z</time>
      </trkpt>
      <trkpt lat="42.96700752340257167816162109375" lon="-2.36956964246928691864013671875">
        <ele>1000.79998779296875</ele>
        <time>2022-04-17T15:29:51.000Z</time>
      </trkpt>
      <trkpt lat="42.9670094512403011322021484375" lon="-2.369577772915363311767578125">
        <ele>1000.79998779296875</ele>
        <time>2022-04-17T15:29:52.000Z</time>
      </trkpt>
      <trkpt lat="42.96701230108737945556640625" lon="-2.369587160646915435791015625">
        <ele>1000.5999755859375</ele>
        <time>2022-04-17T15:29:53.000Z</time>
      </trkpt>
      <trkpt lat="42.96701674349606037139892578125" lon="-2.36959177069365978240966796875">
        <ele>1000.5999755859375</ele>
        <time>2022-04-17T15:29:54.000Z</time>
      </trkpt>
      <trkpt lat="42.9670228622853755950927734375" lon="-2.3695950396358966827392578125">
        <ele>1000.5999755859375</ele>
        <time>2022-04-17T15:29:55.000Z</time>
      </trkpt>
      <trkpt lat="42.9670218564569950103759765625" lon="-2.3696014098823070526123046875">
        <ele>1000.5999755859375</ele>
        <time>2022-04-17T15:29:56.000Z</time>
      </trkpt>
      <trkpt lat="42.9670263826847076416015625" lon="-2.36960182897746562957763671875">
        <ele>1000.5999755859375</ele>
        <time>2022-04-17T15:29:57.000Z</time>
      </trkpt>
      <trkpt lat="42.96702998690307140350341796875" lon="-2.36959696747362613677978515625">
        <ele>1000.5999755859375</ele>
        <time>2022-04-17T15:29:58.000Z</time>
      </trkpt>
      <trkpt lat="42.9670345969498157501220703125" lon="-2.36959981732070446014404296875">
        <ele>1000.5999755859375</ele>
        <time>2022-04-17T15:29:59.000Z</time>
      </trkpt>
      <trkpt lat="42.9670382849872112274169921875" lon="-2.36959755420684814453125">
        <ele>1000.5999755859375</ele>
        <time>2022-04-17T15:30:00.000Z</time>
      </trkpt>
      <trkpt lat="42.96703970991075038909912109375" lon="-2.369599230587482452392578125">
        <ele>1000.5999755859375</ele>
        <time>2022-04-17T15:30:01.000Z</time>
      </trkpt>
      <trkpt lat="42.967044152319431304931640625" lon="-2.369600571691989898681640625">
        <ele>1000.5999755859375</ele>
        <time>2022-04-17T15:30:02.000Z</time>
      </trkpt>
      <trkpt lat="42.967043481767177581787109375" lon="-2.36960166133940219879150390625">
        <ele>1000.5999755859375</ele>
        <time>2022-04-17T15:30:03.000Z</time>
      </trkpt>
      <trkpt lat="42.9670399613678455352783203125" lon="-2.36960233189165592193603515625">
        <ele>1000.5999755859375</ele>
        <time>2022-04-17T15:30:04.000Z</time>
      </trkpt>
      <trkpt lat="42.96704306267201900482177734375" lon="-2.36960870213806629180908203125">
        <ele>1000.5999755859375</ele>
        <time>2022-04-17T15:30:05.000Z</time>
      </trkpt>
      <trkpt lat="42.96705077402293682098388671875" lon="-2.36961725167930126190185546875">
        <ele>1000.5999755859375</ele>
        <time>2022-04-17T15:30:06.000Z</time>
      </trkpt>
      <trkpt lat="42.96705328859388828277587890625" lon="-2.3696258850395679473876953125">
        <ele>1000.5999755859375</ele>
        <time>2022-04-17T15:30:07.000Z</time>
      </trkpt>
      <trkpt lat="42.96705328859388828277587890625" lon="-2.3696258850395679473876953125">
        <ele>1000.79998779296875</ele>
        <time>2022-04-17T15:30:08.000Z</time>
      </trkpt>
      <trkpt lat="42.96705328859388828277587890625" lon="-2.3696258850395679473876953125">
        <ele>1000.79998779296875</ele>
        <time>2022-04-17T15:30:09.000Z</time>
      </trkpt>
      <trkpt lat="42.96705328859388828277587890625" lon="-2.3696258850395679473876953125">
        <ele>1000.79998779296875</ele>
        <time>2022-04-17T15:30:10.000Z</time>
      </trkpt>
      <trkpt lat="42.96705328859388828277587890625" lon="-2.3696258850395679473876953125">
        <ele>1000.79998779296875</ele>
        <time>2022-04-17T15:30:11.000Z</time>
      </trkpt>
      <trkpt lat="42.96705328859388828277587890625" lon="-2.3696258850395679473876953125">
        <ele>1000.79998779296875</ele>
        <time>2022-04-17T15:30:12.000Z</time>
      </trkpt>
      <trkpt lat="42.96705328859388828277587890625" lon="-2.3696258850395679473876953125">
        <ele>1000.79998779296875</ele>
        <time>2022-04-17T15:30:13.000Z</time>
      </trkpt>
      <trkpt lat="42.96705328859388828277587890625" lon="-2.3696258850395679473876953125">
        <ele>1000.79998779296875</ele>
        <time>2022-04-17T15:30:14.000Z</time>
      </trkpt>
      <trkpt lat="42.96705328859388828277587890625" lon="-2.3696258850395679473876953125">
        <ele>1000.79998779296875</ele>
        <time>2022-04-17T15:30:15.000Z</time>
      </trkpt>
      <trkpt lat="42.96705328859388828277587890625" lon="-2.3696258850395679473876953125">
        <ele>1000.79998779296875</ele>
        <time>2022-04-17T15:30:16.000Z</time>
      </trkpt>
      <trkpt lat="42.96705328859388828277587890625" lon="-2.3696258850395679473876953125">
        <ele>1000.79998779296875</ele>
        <time>2022-04-17T15:30:17.000Z</time>
      </trkpt>
      <trkpt lat="42.9670516960322856903076171875" lon="-2.3696258850395679473876953125">
        <ele>1001</ele>
        <time>2022-04-17T15:30:18.000Z</time>
      </trkpt>
      <trkpt lat="42.96705110929906368255615234375" lon="-2.3696258850395679473876953125">
        <ele>1001</ele>
        <time>2022-04-17T15:30:19.000Z</time>
      </trkpt>
      <trkpt lat="42.96705077402293682098388671875" lon="-2.3696258850395679473876953125">
        <ele>1000.79998779296875</ele>
        <time>2022-04-17T15:30:20.000Z</time>
      </trkpt>
      <trkpt lat="42.9670505225658416748046875" lon="-2.3696258850395679473876953125">
        <ele>1001</ele>
        <time>2022-04-17T15:30:21.000Z</time>
      </trkpt>
      <trkpt lat="42.9670505225658416748046875" lon="-2.3696258850395679473876953125">
        <ele>1001</ele>
        <time>2022-04-17T15:30:22.000Z</time>
      </trkpt>
      <trkpt lat="42.9670505225658416748046875" lon="-2.36963099800050258636474609375">
        <ele>1001</ele>
        <time>2022-04-17T15:30:23.000Z</time>
      </trkpt>
      <trkpt lat="42.9670505225658416748046875" lon="-2.3696352727711200714111328125">
        <ele>1001</ele>
        <time>2022-04-17T15:30:24.000Z</time>
      </trkpt>
      <trkpt lat="42.9670505225658416748046875" lon="-2.36963787116110324859619140625">
        <ele>1001</ele>
        <time>2022-04-17T15:30:25.000Z</time>
      </trkpt>
      <trkpt lat="42.9670505225658416748046875" lon="-2.369638793170452117919921875">
        <ele>1001</ele>
        <time>2022-04-17T15:30:26.000Z</time>
      </trkpt>
      <trkpt lat="42.9670505225658416748046875" lon="-2.369639463722705841064453125">
        <ele>1001</ele>
        <time>2022-04-17T15:30:27.000Z</time>
      </trkpt>
      <trkpt lat="42.9670505225658416748046875" lon="-2.36964516341686248779296875">
        <ele>1001</ele>
        <time>2022-04-17T15:30:28.000Z</time>
      </trkpt>
      <trkpt lat="42.9670506902039051055908203125" lon="-2.3696458339691162109375">
        <ele>1001</ele>
        <time>2022-04-17T15:30:29.000Z</time>
      </trkpt>
      <trkpt lat="42.9670510254800319671630859375" lon="-2.36964910291135311126708984375">
        <ele>1001</ele>
        <time>2022-04-17T15:30:30.000Z</time>
      </trkpt>
      <trkpt lat="42.967051528394222259521484375" lon="-2.36965279094874858856201171875">
        <ele>1000.79998779296875</ele>
        <time>2022-04-17T15:30:31.000Z</time>
      </trkpt>
      <trkpt lat="42.96705722808837890625" lon="-2.36965983174741268157958984375">
        <ele>1000.79998779296875</ele>
        <time>2022-04-17T15:30:32.000Z</time>
      </trkpt>
      <trkpt lat="42.96706535853445529937744140625" lon="-2.369669973850250244140625">
        <ele>1000.79998779296875</ele>
        <time>2022-04-17T15:30:33.000Z</time>
      </trkpt>
      <trkpt lat="42.9670800268650054931640625" lon="-2.36968078650534152984619140625">
        <ele>1000.79998779296875</ele>
        <time>2022-04-17T15:30:34.000Z</time>
      </trkpt>
      <trkpt lat="42.96709268353879451751708984375" lon="-2.3696919344365596771240234375">
        <ele>1001</ele>
        <time>2022-04-17T15:30:35.000Z</time>
      </trkpt>
      <trkpt lat="42.9671023227274417877197265625" lon="-2.36970283091068267822265625">
        <ele>1001</ele>
        <time>2022-04-17T15:30:36.000Z</time>
      </trkpt>
      <trkpt lat="42.96711162663996219635009765625" lon="-2.3697115480899810791015625">
        <ele>1001</ele>
        <time>2022-04-17T15:30:37.000Z</time>
      </trkpt>
      <trkpt lat="42.9671217687427997589111328125" lon="-2.36972160637378692626953125">
        <ele>1001</ele>
        <time>2022-04-17T15:30:38.000Z</time>
      </trkpt>
      <trkpt lat="42.9671328328549861907958984375" lon="-2.36973007209599018096923828125">
        <ele>1001</ele>
        <time>2022-04-17T15:30:39.000Z</time>
      </trkpt>
      <trkpt lat="42.96714213676750659942626953125" lon="-2.3697425611317157745361328125">
        <ele>1001</ele>
        <time>2022-04-17T15:30:40.000Z</time>
      </trkpt>
      <trkpt lat="42.96715403907001018524169921875" lon="-2.3697539605200290679931640625">
        <ele>1000.79998779296875</ele>
        <time>2022-04-17T15:30:41.000Z</time>
      </trkpt>
      <trkpt lat="42.96716007404029369354248046875" lon="-2.36975706182420253753662109375">
        <ele>1000.79998779296875</ele>
        <time>2022-04-17T15:30:42.000Z</time>
      </trkpt>
      <trkpt lat="42.96716627664864063262939453125" lon="-2.36976058222353458404541015625">
        <ele>1000.79998779296875</ele>
        <time>2022-04-17T15:30:43.000Z</time>
      </trkpt>
      <trkpt lat="42.967170216143131256103515625" lon="-2.36976343207061290740966796875">
        <ele>1000.79998779296875</ele>
        <time>2022-04-17T15:30:44.000Z</time>
      </trkpt>
      <trkpt lat="42.96717398799955844879150390625" lon="-2.36975437961518764495849609375">
        <ele>1000.79998779296875</ele>
        <time>2022-04-17T15:30:45.000Z</time>
      </trkpt>
      <trkpt lat="42.96718530356884002685546875" lon="-2.369745410978794097900390625">
        <ele>1000.79998779296875</ele>
        <time>2022-04-17T15:30:46.000Z</time>
      </trkpt>
      <trkpt lat="42.96719326637685298919677734375" lon="-2.3697392083704471588134765625">
        <ele>1000.79998779296875</ele>
        <time>2022-04-17T15:30:47.000Z</time>
      </trkpt>
      <trkpt lat="42.96720097772777080535888671875" lon="-2.36973023973405361175537109375">
        <ele>1000.79998779296875</ele>
        <time>2022-04-17T15:30:48.000Z</time>
      </trkpt>
      <trkpt lat="42.96720852144062519073486328125" lon="-2.36972571350634098052978515625">
        <ele>1000.79998779296875</ele>
        <time>2022-04-17T15:30:49.000Z</time>
      </trkpt>
      <trkpt lat="42.96721556223928928375244140625" lon="-2.3697328381240367889404296875">
        <ele>1000.79998779296875</ele>
        <time>2022-04-17T15:30:50.000Z</time>
      </trkpt>
      <trkpt lat="42.9672183282673358917236328125" lon="-2.3697402141988277435302734375">
        <ele>1000.79998779296875</ele>
        <time>2022-04-17T15:30:51.000Z</time>
      </trkpt>
      <trkpt lat="42.9672195017337799072265625" lon="-2.36974775791168212890625">
        <ele>1000.79998779296875</ele>
        <time>2022-04-17T15:30:52.000Z</time>
      </trkpt>
      <trkpt lat="42.967223189771175384521484375" lon="-2.36975085921585559844970703125">
        <ele>1000.79998779296875</ele>
        <time>2022-04-17T15:30:53.000Z</time>
      </trkpt>
      <trkpt lat="42.9672277159988880157470703125" lon="-2.3697532899677753448486328125">
        <ele>1001</ele>
        <time>2022-04-17T15:30:54.000Z</time>
      </trkpt>
      <trkpt lat="42.9672302305698394775390625" lon="-2.3697526194155216217041015625">
        <ele>1001</ele>
        <time>2022-04-17T15:30:55.000Z</time>
      </trkpt>
      <trkpt lat="42.96723366715013980865478515625" lon="-2.36974968574941158294677734375">
        <ele>1001</ele>
        <time>2022-04-17T15:30:56.000Z</time>
      </trkpt>
      <trkpt lat="42.96723634935915470123291015625" lon="-2.36975002102553844451904296875">
        <ele>1001</ele>
        <time>2022-04-17T15:30:57.000Z</time>
      </trkpt>
      <trkpt lat="42.96723936684429645538330078125" lon="-2.369751445949077606201171875">
        <ele>1001</ele>
        <time>2022-04-17T15:30:58.000Z</time>
      </trkpt>
      <trkpt lat="42.96723785810172557830810546875" lon="-2.36975873820483684539794921875">
        <ele>1001</ele>
        <time>2022-04-17T15:30:59.000Z</time>
      </trkpt>
      <trkpt lat="42.96723986975848674774169921875" lon="-2.369760833680629730224609375">
        <ele>1001</ele>
        <time>2022-04-17T15:31:00.000Z</time>
      </trkpt>
      <trkpt lat="42.96724137850105762481689453125" lon="-2.369763851165771484375">
        <ele>1001</ele>
        <time>2022-04-17T15:31:01.000Z</time>
      </trkpt>
      <trkpt lat="42.96724121086299419403076171875" lon="-2.3697653599083423614501953125">
        <ele>1001</ele>
        <time>2022-04-17T15:31:02.000Z</time>
      </trkpt>
      <trkpt lat="42.96724003739655017852783203125" lon="-2.36976896412670612335205078125">
        <ele>1001</ele>
        <time>2022-04-17T15:31:03.000Z</time>
      </trkpt>
      <trkpt lat="42.96724439598619937896728515625" lon="-2.36977349035441875457763671875">
        <ele>1001</ele>
        <time>2022-04-17T15:31:04.000Z</time>
      </trkpt>
      <trkpt lat="42.9672516882419586181640625" lon="-2.3697710596024990081787109375">
        <ele>1001</ele>
        <time>2022-04-17T15:31:05.000Z</time>
      </trkpt>
      <trkpt lat="42.96725948341190814971923828125" lon="-2.36978136934340000152587890625">
        <ele>1001</ele>
        <time>2022-04-17T15:31:06.000Z</time>
      </trkpt>
      <trkpt lat="42.96725906431674957275390625" lon="-2.36978505738079547882080078125">
        <ele>1001</ele>
        <time>2022-04-17T15:31:07.000Z</time>
      </trkpt>
      <trkpt lat="42.9672605730593204498291015625" lon="-2.36978287808597087860107421875">
        <ele>1001</ele>
        <time>2022-04-17T15:31:08.000Z</time>
      </trkpt>
      <trkpt lat="42.96725948341190814971923828125" lon="-2.3697777651250362396240234375">
        <ele>1001</ele>
        <time>2022-04-17T15:31:09.000Z</time>
      </trkpt>
      <trkpt lat="42.96726174652576446533203125" lon="-2.3697707243263721466064453125">
        <ele>1001</ele>
        <time>2022-04-17T15:31:10.000Z</time>
      </trkpt>
      <trkpt lat="42.96725948341190814971923828125" lon="-2.36975991167128086090087890625">
        <ele>1001</ele>
        <time>2022-04-17T15:31:11.000Z</time>
      </trkpt>
      <trkpt lat="42.96725948341190814971923828125" lon="-2.36975991167128086090087890625">
        <ele>1001</ele>
        <time>2022-04-17T15:31:12.000Z</time>
      </trkpt>
      <trkpt lat="42.96725948341190814971923828125" lon="-2.36975991167128086090087890625">
        <ele>1001</ele>
        <time>2022-04-17T15:31:13.000Z</time>
      </trkpt>
      <trkpt lat="42.96725948341190814971923828125" lon="-2.36975991167128086090087890625">
        <ele>1001</ele>
        <time>2022-04-17T15:31:14.000Z</time>
      </trkpt>
      <trkpt lat="42.96725948341190814971923828125" lon="-2.36975991167128086090087890625">
        <ele>1001</ele>
        <time>2022-04-17T15:31:15.000Z</time>
      </trkpt>
      <trkpt lat="42.96725948341190814971923828125" lon="-2.36975991167128086090087890625">
        <ele>1001</ele>
        <time>2022-04-17T15:31:16.000Z</time>
      </trkpt>
      <trkpt lat="42.96725948341190814971923828125" lon="-2.36975991167128086090087890625">
        <ele>1001</ele>
        <time>2022-04-17T15:31:17.000Z</time>
      </trkpt>
      <trkpt lat="42.96725948341190814971923828125" lon="-2.36975991167128086090087890625">
        <ele>1001</ele>
        <time>2022-04-17T15:31:18.000Z</time>
      </trkpt>
      <trkpt lat="42.96725948341190814971923828125" lon="-2.36975991167128086090087890625">
        <ele>1001</ele>
        <time>2022-04-17T15:31:19.000Z</time>
      </trkpt>
      <trkpt lat="42.96725948341190814971923828125" lon="-2.36975991167128086090087890625">
        <ele>1001</ele>
        <time>2022-04-17T15:31:20.000Z</time>
      </trkpt>
      <trkpt lat="42.96725948341190814971923828125" lon="-2.36975991167128086090087890625">
        <ele>1001</ele>
        <time>2022-04-17T15:31:21.000Z</time>
      </trkpt>
      <trkpt lat="42.96725948341190814971923828125" lon="-2.36975991167128086090087890625">
        <ele>1001</ele>
        <time>2022-04-17T15:31:22.000Z</time>
      </trkpt>
      <trkpt lat="42.96725948341190814971923828125" lon="-2.36975991167128086090087890625">
        <ele>1001</ele>
        <time>2022-04-17T15:31:23.000Z</time>
      </trkpt>
      <trkpt lat="42.96725948341190814971923828125" lon="-2.36975991167128086090087890625">
        <ele>1001</ele>
        <time>2022-04-17T15:31:24.000Z</time>
      </trkpt>
      <trkpt lat="42.96725906431674957275390625" lon="-2.36975991167128086090087890625">
        <ele>1001</ele>
        <time>2022-04-17T15:31:25.000Z</time>
      </trkpt>
      <trkpt lat="42.96725613065063953399658203125" lon="-2.36975991167128086090087890625">
        <ele>1001</ele>
        <time>2022-04-17T15:31:26.000Z</time>
      </trkpt>
      <trkpt lat="42.967252023518085479736328125" lon="-2.3697531223297119140625">
        <ele>1001</ele>
        <time>2022-04-17T15:31:27.000Z</time>
      </trkpt>
      <trkpt lat="42.96725160442292690277099609375" lon="-2.3697485961019992828369140625">
        <ele>1001</ele>
        <time>2022-04-17T15:31:28.000Z</time>
      </trkpt>
      <trkpt lat="42.96724741347134113311767578125" lon="-2.36974230967462062835693359375">
        <ele>1001</ele>
        <time>2022-04-17T15:31:29.000Z</time>
      </trkpt>
      <trkpt lat="42.96724624000489711761474609375" lon="-2.36973610706627368927001953125">
        <ele>1001</ele>
        <time>2022-04-17T15:31:30.000Z</time>
      </trkpt>
      <trkpt lat="42.9672461561858654022216796875" lon="-2.3697264678776264190673828125">
        <ele>1001</ele>
        <time>2022-04-17T15:31:31.000Z</time>
      </trkpt>
      <trkpt lat="42.9672461561858654022216796875" lon="-2.36972537823021411895751953125">
        <ele>1001</ele>
        <time>2022-04-17T15:31:32.000Z</time>
      </trkpt>
      <trkpt lat="42.96724691055715084075927734375" lon="-2.3697224445641040802001953125">
        <ele>1001</ele>
        <time>2022-04-17T15:31:33.000Z</time>
      </trkpt>
      <trkpt lat="42.967248670756816864013671875" lon="-2.36972018145024776458740234375">
        <ele>1001</ele>
        <time>2022-04-17T15:31:34.000Z</time>
      </trkpt>
      <trkpt lat="42.9672488383948802947998046875" lon="-2.3697194270789623260498046875">
        <ele>1001</ele>
        <time>2022-04-17T15:31:35.000Z</time>
      </trkpt>
      <trkpt lat="42.96724892221391201019287109375" lon="-2.369718253612518310546875">
        <ele>1001</ele>
        <time>2022-04-17T15:31:36.000Z</time>
      </trkpt>
      <trkpt lat="42.96724892221391201019287109375" lon="-2.3697164095938205718994140625">
        <ele>1001</ele>
        <time>2022-04-17T15:31:37.000Z</time>
      </trkpt>
      <trkpt lat="42.96724724583327770233154296875" lon="-2.369715236127376556396484375">
        <ele>1001</ele>
        <time>2022-04-17T15:31:38.000Z</time>
      </trkpt>
      <trkpt lat="42.96724699437618255615234375" lon="-2.3697137273848056793212890625">
        <ele>1001</ele>
        <time>2022-04-17T15:31:39.000Z</time>
      </trkpt>
      <trkpt lat="42.96724674291908740997314453125" lon="-2.36971079371869564056396484375">
        <ele>1001</ele>
        <time>2022-04-17T15:31:40.000Z</time>
      </trkpt>
      <trkpt lat="42.96724674291908740997314453125" lon="-2.36971045844256877899169921875">
        <ele>1001</ele>
        <time>2022-04-17T15:31:41.000Z</time>
      </trkpt>
      <trkpt lat="42.96724640764296054840087890625" lon="-2.3697103746235370635986328125">
        <ele>1001</ele>
        <time>2022-04-17T15:31:42.000Z</time>
      </trkpt>
      <trkpt lat="42.9672461561858654022216796875" lon="-2.3697103746235370635986328125">
        <ele>1001</ele>
        <time>2022-04-17T15:31:43.000Z</time>
      </trkpt>
      <trkpt lat="42.96724590472877025604248046875" lon="-2.3697103746235370635986328125">
        <ele>1001</ele>
        <time>2022-04-17T15:31:44.000Z</time>
      </trkpt>
      <trkpt lat="42.96724590472877025604248046875" lon="-2.3697103746235370635986328125">
        <ele>1001</ele>
        <time>2022-04-17T15:31:45.000Z</time>
      </trkpt>
      <trkpt lat="42.96724590472877025604248046875" lon="-2.3697103746235370635986328125">
        <ele>1001</ele>
        <time>2022-04-17T15:31:46.000Z</time>
      </trkpt>
      <trkpt lat="42.96724607236683368682861328125" lon="-2.3697103746235370635986328125">
        <ele>1001</ele>
        <time>2022-04-17T15:31:47.000Z</time>
      </trkpt>
      <trkpt lat="42.96724624000489711761474609375" lon="-2.3697103746235370635986328125">
        <ele>1001</ele>
        <time>2022-04-17T15:31:48.000Z</time>
      </trkpt>
      <trkpt lat="42.967246659100055694580078125" lon="-2.3697133921086788177490234375">
        <ele>1001</ele>
        <time>2022-04-17T15:31:49.000Z</time>
      </trkpt>
      <trkpt lat="42.96724707819521427154541015625" lon="-2.3697147332131862640380859375">
        <ele>1001</ele>
        <time>2022-04-17T15:31:50.000Z</time>
      </trkpt>
      <trkpt lat="42.96724808402359485626220703125" lon="-2.369715906679630279541015625">
        <ele>1001</ele>
        <time>2022-04-17T15:31:51.000Z</time>
      </trkpt>
      <trkpt lat="42.9672485031187534332275390625" lon="-2.36971766687929630279541015625">
        <ele>1001</ele>
        <time>2022-04-17T15:31:52.000Z</time>
      </trkpt>
      <trkpt lat="42.9672488383948802947998046875" lon="-2.3697180859744548797607421875">
        <ele>1001</ele>
        <time>2022-04-17T15:31:53.000Z</time>
      </trkpt>
      <trkpt lat="42.9672491736710071563720703125" lon="-2.36971951089799404144287109375">
        <ele>1001</ele>
        <time>2022-04-17T15:31:54.000Z</time>
      </trkpt>
      <trkpt lat="42.96724967658519744873046875" lon="-2.36971984617412090301513671875">
        <ele>1001</ele>
        <time>2022-04-17T15:31:55.000Z</time>
      </trkpt>
      <trkpt lat="42.96725043095648288726806640625" lon="-2.3697214387357234954833984375">
        <ele>1001</ele>
        <time>2022-04-17T15:31:56.000Z</time>
      </trkpt>
      <trkpt lat="42.9672521911561489105224609375" lon="-2.369721941649913787841796875">
        <ele>1001</ele>
        <time>2022-04-17T15:31:57.000Z</time>
      </trkpt>
      <trkpt lat="42.96725261025130748748779296875" lon="-2.3697244562208652496337890625">
        <ele>1001</ele>
        <time>2022-04-17T15:31:58.000Z</time>
      </trkpt>
      <trkpt lat="42.96725378371775150299072265625" lon="-2.3697274737060070037841796875">
        <ele>1001</ele>
        <time>2022-04-17T15:31:59.000Z</time>
      </trkpt>
      <trkpt lat="42.96725411899387836456298828125" lon="-2.3697330057621002197265625">
        <ele>1001</ele>
        <time>2022-04-17T15:32:00.000Z</time>
      </trkpt>
      <trkpt lat="42.967254705727100372314453125" lon="-2.36973501741886138916015625">
        <ele>1001</ele>
        <time>2022-04-17T15:32:01.000Z</time>
      </trkpt>
      <trkpt lat="42.967256046831607818603515625" lon="-2.36973711289465427398681640625">
        <ele>1001</ele>
        <time>2022-04-17T15:32:02.000Z</time>
      </trkpt>
      <trkpt lat="42.967256717383861541748046875" lon="-2.36973795108497142791748046875">
        <ele>1001</ele>
        <time>2022-04-17T15:32:03.000Z</time>
      </trkpt>
      <trkpt lat="42.9672568850219249725341796875" lon="-2.36974113620817661285400390625">
        <ele>1001</ele>
        <time>2022-04-17T15:32:04.000Z</time>
      </trkpt>
      <trkpt lat="42.96725906431674957275390625" lon="-2.369742728769779205322265625">
        <ele>1001</ele>
        <time>2022-04-17T15:32:05.000Z</time>
      </trkpt>
      <trkpt lat="42.9672629199922084808349609375" lon="-2.36974314786493778228759765625">
        <ele>1001</ele>
        <time>2022-04-17T15:32:06.000Z</time>
      </trkpt>
      <trkpt lat="42.96726618893444538116455078125" lon="-2.3697442375123500823974609375">
        <ele>1001</ele>
        <time>2022-04-17T15:32:07.000Z</time>
      </trkpt>
      <trkpt lat="42.96726719476282596588134765625" lon="-2.36974574625492095947265625">
        <ele>1001</ele>
        <time>2022-04-17T15:32:08.000Z</time>
      </trkpt>
      <trkpt lat="42.96726836822926998138427734375" lon="-2.36974717117846012115478515625">
        <ele>1001</ele>
        <time>2022-04-17T15:32:09.000Z</time>
      </trkpt>
      <trkpt lat="42.9672689549624919891357421875" lon="-2.3697482608258724212646484375">
        <ele>1001</ele>
        <time>2022-04-17T15:32:10.000Z</time>
      </trkpt>
      <trkpt lat="42.96727390028536319732666015625" lon="-2.3697532899677753448486328125">
        <ele>1001</ele>
        <time>2022-04-17T15:32:11.000Z</time>
      </trkpt>
      <trkpt lat="42.9672850482165813446044921875" lon="-2.36976561136543750762939453125">
        <ele>1001</ele>
        <time>2022-04-17T15:32:12.000Z</time>
      </trkpt>
      <trkpt lat="42.9672919213771820068359375" lon="-2.369777262210845947265625">
        <ele>1001</ele>
        <time>2022-04-17T15:32:13.000Z</time>
      </trkpt>
      <trkpt lat="42.96730038709938526153564453125" lon="-2.36978857778012752532958984375">
        <ele>1001</ele>
        <time>2022-04-17T15:32:14.000Z</time>
      </trkpt>
      <trkpt lat="42.96730776317417621612548828125" lon="-2.36980031244456768035888671875">
        <ele>1001</ele>
        <time>2022-04-17T15:32:15.000Z</time>
      </trkpt>
      <trkpt lat="42.96731430105865001678466796875" lon="-2.3698161542415618896484375">
        <ele>1001</ele>
        <time>2022-04-17T15:32:16.000Z</time>
      </trkpt>
      <trkpt lat="42.96731966547667980194091796875" lon="-2.3698350973427295684814453125">
        <ele>1001</ele>
        <time>2022-04-17T15:32:17.000Z</time>
      </trkpt>
      <trkpt lat="42.9673225991427898406982421875" lon="-2.369852364063262939453125">
        <ele>1001</ele>
        <time>2022-04-17T15:32:18.000Z</time>
      </trkpt>
      <trkpt lat="42.96732301823794841766357421875" lon="-2.3698635958135128021240234375">
        <ele>1001</ele>
        <time>2022-04-17T15:32:19.000Z</time>
      </trkpt>
      <trkpt lat="42.9673326574265956878662109375" lon="-2.36988849006593227386474609375">
        <ele>1001</ele>
        <time>2022-04-17T15:32:20.000Z</time>
      </trkpt>
      <trkpt lat="42.96733726747334003448486328125" lon="-2.36990760080516338348388671875">
        <ele>1001</ele>
        <time>2022-04-17T15:32:21.000Z</time>
      </trkpt>
      <trkpt lat="42.9673373512923717498779296875" lon="-2.36992218531668186187744140625">
        <ele>1001</ele>
        <time>2022-04-17T15:32:22.000Z</time>
      </trkpt>
      <trkpt lat="42.96733827330172061920166015625" lon="-2.36993475817143917083740234375">
        <ele>1001</ele>
        <time>2022-04-17T15:32:23.000Z</time>
      </trkpt>
      <trkpt lat="42.9673428833484649658203125" lon="-2.36994422972202301025390625">
        <ele>1001</ele>
        <time>2022-04-17T15:32:24.000Z</time>
      </trkpt>
      <trkpt lat="42.96735000796616077423095703125" lon="-2.36995370127260684967041015625">
        <ele>1001</ele>
        <time>2022-04-17T15:32:25.000Z</time>
      </trkpt>
      <trkpt lat="42.96735570766031742095947265625" lon="-2.3699648492038249969482421875">
        <ele>1001</ele>
        <time>2022-04-17T15:32:26.000Z</time>
      </trkpt>
      <trkpt lat="42.9673616588115692138671875" lon="-2.36998035572469234466552734375">
        <ele>1001</ele>
        <time>2022-04-17T15:32:27.000Z</time>
      </trkpt>
      <trkpt lat="42.9673641733825206756591796875" lon="-2.36999091692268848419189453125">
        <ele>1001</ele>
        <time>2022-04-17T15:32:28.000Z</time>
      </trkpt>
      <trkpt lat="42.9673618264496326446533203125" lon="-2.3699960298836231231689453125">
        <ele>1001</ele>
        <time>2022-04-17T15:32:29.000Z</time>
      </trkpt>
      <trkpt lat="42.96736828051507472991943359375" lon="-2.36999980174005031585693359375">
        <ele>1000.79998779296875</ele>
        <time>2022-04-17T15:32:30.000Z</time>
      </trkpt>
      <trkpt lat="42.96737666241824626922607421875" lon="-2.37000281922519207000732421875">
        <ele>1000.79998779296875</ele>
        <time>2022-04-17T15:32:31.000Z</time>
      </trkpt>
      <trkpt lat="42.96737800352275371551513671875" lon="-2.3700092732906341552734375">
        <ele>1000.5999755859375</ele>
        <time>2022-04-17T15:32:32.000Z</time>
      </trkpt>
      <trkpt lat="42.967370711266994476318359375" lon="-2.37001874484121799468994140625">
        <ele>1000.5999755859375</ele>
        <time>2022-04-17T15:32:33.000Z</time>
      </trkpt>
      <trkpt lat="42.967362664639949798583984375" lon="-2.3700332455337047576904296875">
        <ele>1000.5999755859375</ele>
        <time>2022-04-17T15:32:34.000Z</time>
      </trkpt>
      <trkpt lat="42.96735788695514202117919921875" lon="-2.3700429685413837432861328125">
        <ele>1000.4000244140625</ele>
        <time>2022-04-17T15:32:35.000Z</time>
      </trkpt>
      <trkpt lat="42.9673581384122371673583984375" lon="-2.37005017697811126708984375">
        <ele>1000.4000244140625</ele>
        <time>2022-04-17T15:32:36.000Z</time>
      </trkpt>
      <trkpt lat="42.967355288565158843994140625" lon="-2.3700548708438873291015625">
        <ele>1000.4000244140625</ele>
        <time>2022-04-17T15:32:37.000Z</time>
      </trkpt>
      <trkpt lat="42.967354953289031982421875" lon="-2.37006601877510547637939453125">
        <ele>1000.5999755859375</ele>
        <time>2022-04-17T15:32:38.000Z</time>
      </trkpt>
      <trkpt lat="42.96735436655580997467041015625" lon="-2.37008026801049709320068359375">
        <ele>1000.5999755859375</ele>
        <time>2022-04-17T15:32:39.000Z</time>
      </trkpt>
      <trkpt lat="42.96735587529838085174560546875" lon="-2.3701009713113307952880859375">
        <ele>1000.5999755859375</ele>
        <time>2022-04-17T15:32:40.000Z</time>
      </trkpt>
      <trkpt lat="42.96736023388803005218505859375" lon="-2.37011295743286609649658203125">
        <ele>1000.5999755859375</ele>
        <time>2022-04-17T15:32:41.000Z</time>
      </trkpt>
      <trkpt lat="42.9673631675541400909423828125" lon="-2.3701334930956363677978515625">
        <ele>1000.5999755859375</ele>
        <time>2022-04-17T15:32:42.000Z</time>
      </trkpt>
      <trkpt lat="42.96735788695514202117919921875" lon="-2.37014581449329853057861328125">
        <ele>1000.4000244140625</ele>
        <time>2022-04-17T15:32:43.000Z</time>
      </trkpt>
      <trkpt lat="42.96735294163227081298828125" lon="-2.370158135890960693359375">
        <ele>1000.20001220703125</ele>
        <time>2022-04-17T15:32:44.000Z</time>
      </trkpt>
      <trkpt lat="42.96735671348869800567626953125" lon="-2.3701723851263523101806640625">
        <ele>1000.20001220703125</ele>
        <time>2022-04-17T15:32:45.000Z</time>
      </trkpt>
      <trkpt lat="42.96736232936382293701171875" lon="-2.37018428742885589599609375">
        <ele>1000</ele>
        <time>2022-04-17T15:32:46.000Z</time>
      </trkpt>
      <trkpt lat="42.96736777760088443756103515625" lon="-2.37019543536007404327392578125">
        <ele>1000</ele>
        <time>2022-04-17T15:32:47.000Z</time>
      </trkpt>
      <trkpt lat="42.96737314201891422271728515625" lon="-2.37020415253937244415283203125">
        <ele>999.79998779296875</ele>
        <time>2022-04-17T15:32:48.000Z</time>
      </trkpt>
      <trkpt lat="42.967378757894039154052734375" lon="-2.3702136240899562835693359375">
        <ele>999.79998779296875</ele>
        <time>2022-04-17T15:32:49.000Z</time>
      </trkpt>
      <trkpt lat="42.96738722361624240875244140625" lon="-2.37021907232701778411865234375">
        <ele>999.5999755859375</ele>
        <time>2022-04-17T15:32:50.000Z</time>
      </trkpt>
      <trkpt lat="42.96739409677684307098388671875" lon="-2.37022661603987216949462890625">
        <ele>999.4000244140625</ele>
        <time>2022-04-17T15:32:51.000Z</time>
      </trkpt>
      <trkpt lat="42.96740247868001461029052734375" lon="-2.3702350817620754241943359375">
        <ele>999.4000244140625</ele>
        <time>2022-04-17T15:32:52.000Z</time>
      </trkpt>
      <trkpt lat="42.96741169877350330352783203125" lon="-2.37024061381816864013671875">
        <ele>999.20001220703125</ele>
        <time>2022-04-17T15:32:53.000Z</time>
      </trkpt>
      <trkpt lat="42.96742175705730915069580078125" lon="-2.37024824135005474090576171875">
        <ele>999</ele>
        <time>2022-04-17T15:32:54.000Z</time>
      </trkpt>
      <trkpt lat="42.96743449755012989044189453125" lon="-2.3702598921954631805419921875">
        <ele>999</ele>
        <time>2022-04-17T15:32:55.000Z</time>
      </trkpt>
      <trkpt lat="42.967443801462650299072265625" lon="-2.37027539871633052825927734375">
        <ele>999</ele>
        <time>2022-04-17T15:32:56.000Z</time>
      </trkpt>
      <trkpt lat="42.96744891442358493804931640625" lon="-2.37029518000781536102294921875">
        <ele>998.79998779296875</ele>
        <time>2022-04-17T15:32:57.000Z</time>
      </trkpt>
      <trkpt lat="42.9674546979367733001708984375" lon="-2.370316050946712493896484375">
        <ele>998.79998779296875</ele>
        <time>2022-04-17T15:32:58.000Z</time>
      </trkpt>
      <trkpt lat="42.96747322194278240203857421875" lon="-2.37033155746757984161376953125">
        <ele>998.79998779296875</ele>
        <time>2022-04-17T15:32:59.000Z</time>
      </trkpt>
      <trkpt lat="42.9674768261611461639404296875" lon="-2.37033558078110218048095703125">
        <ele>998.79998779296875</ele>
        <time>2022-04-17T15:33:00.000Z</time>
      </trkpt>
      <trkpt lat="42.9674805141985416412353515625" lon="-2.37034262157976627349853515625">
        <ele>998.79998779296875</ele>
        <time>2022-04-17T15:33:01.000Z</time>
      </trkpt>
      <trkpt lat="42.96748965047299861907958984375" lon="-2.37034924328327178955078125">
        <ele>998.79998779296875</ele>
        <time>2022-04-17T15:33:02.000Z</time>
      </trkpt>
      <trkpt lat="42.96749685890972614288330078125" lon="-2.37035770900547504425048828125">
        <ele>998.79998779296875</ele>
        <time>2022-04-17T15:33:03.000Z</time>
      </trkpt>
      <trkpt lat="42.96749903820455074310302734375" lon="-2.370372712612152099609375">
        <ele>998.79998779296875</ele>
        <time>2022-04-17T15:33:04.000Z</time>
      </trkpt>
      <trkpt lat="42.9675016365945339202880859375" lon="-2.370383441448211669921875">
        <ele>998.5999755859375</ele>
        <time>2022-04-17T15:33:05.000Z</time>
      </trkpt>
      <trkpt lat="42.96750322915613651275634765625" lon="-2.37039442174136638641357421875">
        <ele>998.5999755859375</ele>
        <time>2022-04-17T15:33:06.000Z</time>
      </trkpt>
      <trkpt lat="42.96750716865062713623046875" lon="-2.37040330655872821807861328125">
        <ele>998.5999755859375</ele>
        <time>2022-04-17T15:33:07.000Z</time>
      </trkpt>
      <trkpt lat="42.9675110243260860443115234375" lon="-2.37040900625288486480712890625">
        <ele>998.5999755859375</ele>
        <time>2022-04-17T15:33:08.000Z</time>
      </trkpt>
      <trkpt lat="42.96751647256314754486083984375" lon="-2.37041621468961238861083984375">
        <ele>998.4000244140625</ele>
        <time>2022-04-17T15:33:09.000Z</time>
      </trkpt>
      <trkpt lat="42.96752451919019222259521484375" lon="-2.3704188130795955657958984375">
        <ele>998.4000244140625</ele>
        <time>2022-04-17T15:33:10.000Z</time>
      </trkpt>
      <trkpt lat="42.96753692440688610076904296875" lon="-2.370415627956390380859375">
        <ele>998.20001220703125</ele>
        <time>2022-04-17T15:33:11.000Z</time>
      </trkpt>
      <trkpt lat="42.96754698269069194793701171875" lon="-2.370411269366741180419921875">
        <ele>998.20001220703125</ele>
        <time>2022-04-17T15:33:12.000Z</time>
      </trkpt>
      <trkpt lat="42.96754983253777027130126953125" lon="-2.37040515057742595672607421875">
        <ele>998.20001220703125</ele>
        <time>2022-04-17T15:33:13.000Z</time>
      </trkpt>
      <trkpt lat="42.96755947172641754150390625" lon="-2.37041302956640720367431640625">
        <ele>998</ele>
        <time>2022-04-17T15:33:14.000Z</time>
      </trkpt>
      <trkpt lat="42.96756190247833728790283203125" lon="-2.37042526714503765106201171875">
        <ele>997.79998779296875</ele>
        <time>2022-04-17T15:33:15.000Z</time>
      </trkpt>
      <trkpt lat="42.9675639979541301727294921875" lon="-2.3704362474381923675537109375">
        <ele>997.5999755859375</ele>
        <time>2022-04-17T15:33:16.000Z</time>
      </trkpt>
      <trkpt lat="42.96756525523960590362548828125" lon="-2.37044823355972766876220703125">
        <ele>997.4000244140625</ele>
        <time>2022-04-17T15:33:17.000Z</time>
      </trkpt>
      <trkpt lat="42.96756894327700138092041015625" lon="-2.37045745365321636199951171875">
        <ele>997.20001220703125</ele>
        <time>2022-04-17T15:33:18.000Z</time>
      </trkpt>
      <trkpt lat="42.96757514588534832000732421875" lon="-2.37046726047992706298828125">
        <ele>997</ele>
        <time>2022-04-17T15:33:19.000Z</time>
      </trkpt>
      <trkpt lat="42.96757732518017292022705078125" lon="-2.3704791627824306488037109375">
        <ele>996.5999755859375</ele>
        <time>2022-04-17T15:33:20.000Z</time>
      </trkpt>
      <trkpt lat="42.967579923570156097412109375" lon="-2.370491735637187957763671875">
        <ele>996.4000244140625</ele>
        <time>2022-04-17T15:33:21.000Z</time>
      </trkpt>
      <trkpt lat="42.96758118085563182830810546875" lon="-2.3705027997493743896484375">
        <ele>996.4000244140625</ele>
        <time>2022-04-17T15:33:22.000Z</time>
      </trkpt>
      <trkpt lat="42.967583276331424713134765625" lon="-2.37051009200513362884521484375">
        <ele>996.20001220703125</ele>
        <time>2022-04-17T15:33:23.000Z</time>
      </trkpt>
      <trkpt lat="42.9675874672830104827880859375" lon="-2.37051528878509998321533203125">
        <ele>996</ele>
        <time>2022-04-17T15:33:24.000Z</time>
      </trkpt>
      <trkpt lat="42.9675904847681522369384765625" lon="-2.37051486968994140625">
        <ele>995.5999755859375</ele>
        <time>2022-04-17T15:33:25.000Z</time>
      </trkpt>
      <trkpt lat="42.9675924964249134063720703125" lon="-2.37051730044186115264892578125">
        <ele>995.4000244140625</ele>
        <time>2022-04-17T15:33:26.000Z</time>
      </trkpt>
      <trkpt lat="42.967595346271991729736328125" lon="-2.3705242574214935302734375">
        <ele>995.4000244140625</ele>
        <time>2022-04-17T15:33:27.000Z</time>
      </trkpt>
      <trkpt lat="42.967594675719738006591796875" lon="-2.3705381713807582855224609375">
        <ele>995.20001220703125</ele>
        <time>2022-04-17T15:33:28.000Z</time>
      </trkpt>
      <trkpt lat="42.96759660355746746063232421875" lon="-2.37054906785488128662109375">
        <ele>995</ele>
        <time>2022-04-17T15:33:29.000Z</time>
      </trkpt>
      <trkpt lat="42.96760465018451213836669921875" lon="-2.37055443227291107177734375">
        <ele>994.79998779296875</ele>
        <time>2022-04-17T15:33:30.000Z</time>
      </trkpt>
      <trkpt lat="42.96761353500187397003173828125" lon="-2.37056457437574863433837890625">
        <ele>994.5999755859375</ele>
        <time>2022-04-17T15:33:31.000Z</time>
      </trkpt>
      <trkpt lat="42.96762040816247463226318359375" lon="-2.3705743812024593353271484375">
        <ele>994.5999755859375</ele>
        <time>2022-04-17T15:33:32.000Z</time>
      </trkpt>
      <trkpt lat="42.96762309037148952484130859375" lon="-2.37057949416339397430419921875">
        <ele>994.4000244140625</ele>
        <time>2022-04-17T15:33:33.000Z</time>
      </trkpt>
      <trkpt lat="42.96762191690504550933837890625" lon="-2.37058150582015514373779296875">
        <ele>994.20001220703125</ele>
        <time>2022-04-17T15:33:34.000Z</time>
      </trkpt>
      <trkpt lat="42.967623509466648101806640625" lon="-2.37058402039110660552978515625">
        <ele>994</ele>
        <time>2022-04-17T15:33:35.000Z</time>
      </trkpt>
      <trkpt lat="42.96762493439018726348876953125" lon="-2.37058888189494609832763671875">
        <ele>993.79998779296875</ele>
        <time>2022-04-17T15:33:36.000Z</time>
      </trkpt>
      <trkpt lat="42.96763197518885135650634765625" lon="-2.3705928213894367218017578125">
        <ele>993.79998779296875</ele>
        <time>2022-04-17T15:33:37.000Z</time>
      </trkpt>
      <trkpt lat="42.9676380939781665802001953125" lon="-2.3705911450088024139404296875">
        <ele>993.5999755859375</ele>
        <time>2022-04-17T15:33:38.000Z</time>
      </trkpt>
      <trkpt lat="42.96764639206230640411376953125" lon="-2.3705966770648956298828125">
        <ele>993.5999755859375</ele>
        <time>2022-04-17T15:33:39.000Z</time>
      </trkpt>
      <trkpt lat="42.96765175648033618927001953125" lon="-2.3706047236919403076171875">
        <ele>993.4000244140625</ele>
        <time>2022-04-17T15:33:40.000Z</time>
      </trkpt>
      <trkpt lat="42.967651672661304473876953125" lon="-2.37062416970729827880859375">
        <ele>993.4000244140625</ele>
        <time>2022-04-17T15:33:41.000Z</time>
      </trkpt>
      <trkpt lat="42.967658378183841705322265625" lon="-2.37063867039978504180908203125">
        <ele>993.20001220703125</ele>
        <time>2022-04-17T15:33:42.000Z</time>
      </trkpt>
      <trkpt lat="42.967665083706378936767578125" lon="-2.3706504888832569122314453125">
        <ele>993</ele>
        <time>2022-04-17T15:33:43.000Z</time>
      </trkpt>
      <trkpt lat="42.96766868792474269866943359375" lon="-2.37067085690796375274658203125">
        <ele>992.79998779296875</ele>
        <time>2022-04-17T15:33:44.000Z</time>
      </trkpt>
      <trkpt lat="42.96766868792474269866943359375" lon="-2.37069097347557544708251953125">
        <ele>992.79998779296875</ele>
        <time>2022-04-17T15:33:45.000Z</time>
      </trkpt>
      <trkpt lat="42.9676729626953601837158203125" lon="-2.37070639617741107940673828125">
        <ele>992.5999755859375</ele>
        <time>2022-04-17T15:33:46.000Z</time>
      </trkpt>
      <trkpt lat="42.96767388470470905303955078125" lon="-2.3707187175750732421875">
        <ele>992.5999755859375</ele>
        <time>2022-04-17T15:33:47.000Z</time>
      </trkpt>
      <trkpt lat="42.96767489053308963775634765625" lon="-2.3707359842956066131591796875">
        <ele>992.4000244140625</ele>
        <time>2022-04-17T15:33:48.000Z</time>
      </trkpt>
      <trkpt lat="42.96767614781856536865234375" lon="-2.37074847333133220672607421875">
        <ele>992.20001220703125</ele>
        <time>2022-04-17T15:33:49.000Z</time>
      </trkpt>
      <trkpt lat="42.96768008731305599212646484375" lon="-2.37075417302548885345458984375">
        <ele>992.20001220703125</ele>
        <time>2022-04-17T15:33:50.000Z</time>
      </trkpt>
      <trkpt lat="42.96768528409302234649658203125" lon="-2.37075836397707462310791015625">
        <ele>992</ele>
        <time>2022-04-17T15:33:51.000Z</time>
      </trkpt>
      <trkpt lat="42.9676862061023712158203125" lon="-2.37076540477573871612548828125">
        <ele>991.79998779296875</ele>
        <time>2022-04-17T15:33:52.000Z</time>
      </trkpt>
      <trkpt lat="42.96768595464527606964111328125" lon="-2.37078267149627208709716796875">
        <ele>991.5999755859375</ele>
        <time>2022-04-17T15:33:53.000Z</time>
      </trkpt>
      <trkpt lat="42.96768276952207088470458984375" lon="-2.3707973398268222808837890625">
        <ele>991.4000244140625</ele>
        <time>2022-04-17T15:33:54.000Z</time>
      </trkpt>
      <trkpt lat="42.9676820151507854461669921875" lon="-2.3708100803196430206298828125">
        <ele>991.20001220703125</ele>
        <time>2022-04-17T15:33:55.000Z</time>
      </trkpt>
      <trkpt lat="42.967687547206878662109375" lon="-2.370820976793766021728515625">
        <ele>991</ele>
        <time>2022-04-17T15:33:56.000Z</time>
      </trkpt>
      <trkpt lat="42.9677021317183971405029296875" lon="-2.3708301968872547149658203125">
        <ele>991</ele>
        <time>2022-04-17T15:33:57.000Z</time>
      </trkpt>
      <trkpt lat="42.96771277673542499542236328125" lon="-2.37083547748625278472900390625">
        <ele>990.79998779296875</ele>
        <time>2022-04-17T15:33:58.000Z</time>
      </trkpt>
      <trkpt lat="42.967719733715057373046875" lon="-2.3708456195890903472900390625">
        <ele>990.79998779296875</ele>
        <time>2022-04-17T15:33:59.000Z</time>
      </trkpt>
      <trkpt lat="42.96771931461989879608154296875" lon="-2.370857857167720794677734375">
        <ele>990.4000244140625</ele>
        <time>2022-04-17T15:34:00.000Z</time>
      </trkpt>
      <trkpt lat="42.96772384084761142730712890625" lon="-2.37086565233767032623291015625">
        <ele>990.20001220703125</ele>
        <time>2022-04-17T15:34:01.000Z</time>
      </trkpt>
      <trkpt lat="42.96773037873208522796630859375" lon="-2.37086196430027484893798828125">
        <ele>990</ele>
        <time>2022-04-17T15:34:02.000Z</time>
      </trkpt>
      <trkpt lat="42.96774613671004772186279296875" lon="-2.37087755464017391204833984375">
        <ele>989.79998779296875</ele>
        <time>2022-04-17T15:34:03.000Z</time>
      </trkpt>
      <trkpt lat="42.9677559435367584228515625" lon="-2.37089331261813640594482421875">
        <ele>989.5999755859375</ele>
        <time>2022-04-17T15:34:04.000Z</time>
      </trkpt>
      <trkpt lat="42.9677567817270755767822265625" lon="-2.37090890295803546905517578125">
        <ele>989.20001220703125</ele>
        <time>2022-04-17T15:34:05.000Z</time>
      </trkpt>
      <trkpt lat="42.9677604697644710540771484375" lon="-2.37092533148825168609619140625">
        <ele>989</ele>
        <time>2022-04-17T15:34:06.000Z</time>
      </trkpt>
      <trkpt lat="42.96776373870670795440673828125" lon="-2.37093840725719928741455078125">
        <ele>988.79998779296875</ele>
        <time>2022-04-17T15:34:07.000Z</time>
      </trkpt>
      <trkpt lat="42.9677621461451053619384765625" lon="-2.37095667980611324310302734375">
        <ele>988.79998779296875</ele>
        <time>2022-04-17T15:34:08.000Z</time>
      </trkpt>
      <trkpt lat="42.96776122413575649261474609375" lon="-2.3709693364799022674560546875">
        <ele>988.5999755859375</ele>
        <time>2022-04-17T15:34:09.000Z</time>
      </trkpt>
      <trkpt lat="42.96776256524026393890380859375" lon="-2.37098434008657932281494140625">
        <ele>988.4000244140625</ele>
        <time>2022-04-17T15:34:10.000Z</time>
      </trkpt>
      <trkpt lat="42.96777128241956233978271484375" lon="-2.3709991760551929473876953125">
        <ele>988.20001220703125</ele>
        <time>2022-04-17T15:34:11.000Z</time>
      </trkpt>
      <trkpt lat="42.967785112559795379638671875" lon="-2.37101518549025058746337890625">
        <ele>988</ele>
        <time>2022-04-17T15:34:12.000Z</time>
      </trkpt>
      <trkpt lat="42.9677975177764892578125" lon="-2.371037900447845458984375">
        <ele>987.79998779296875</ele>
        <time>2022-04-17T15:34:13.000Z</time>
      </trkpt>
      <trkpt lat="42.9678149521350860595703125" lon="-2.37105726264417171478271484375">
        <ele>987.79998779296875</ele>
        <time>2022-04-17T15:34:14.000Z</time>
      </trkpt>
      <trkpt lat="42.967830710113048553466796875" lon="-2.3710736073553562164306640625">
        <ele>987.5999755859375</ele>
        <time>2022-04-17T15:34:15.000Z</time>
      </trkpt>
      <trkpt lat="42.96783984638750553131103515625" lon="-2.371087856590747833251953125">
        <ele>987.4000244140625</ele>
        <time>2022-04-17T15:34:16.000Z</time>
      </trkpt>
      <trkpt lat="42.9678412713110446929931640625" lon="-2.371101267635822296142578125">
        <ele>987.4000244140625</ele>
        <time>2022-04-17T15:34:17.000Z</time>
      </trkpt>
      <trkpt lat="42.96784202568233013153076171875" lon="-2.3711192049086093902587890625">
        <ele>987.4000244140625</ele>
        <time>2022-04-17T15:34:18.000Z</time>
      </trkpt>
      <trkpt lat="42.96784319914877414703369140625" lon="-2.3711302690207958221435546875">
        <ele>987</ele>
        <time>2022-04-17T15:34:19.000Z</time>
      </trkpt>
      <trkpt lat="42.96784638427197933197021484375" lon="-2.37113856710493564605712890625">
        <ele>987</ele>
        <time>2022-04-17T15:34:20.000Z</time>
      </trkpt>
      <trkpt lat="42.9678493179380893707275390625" lon="-2.371145188808441162109375">
        <ele>986.79998779296875</ele>
        <time>2022-04-17T15:34:21.000Z</time>
      </trkpt>
      <trkpt lat="42.96785443089902400970458984375" lon="-2.37114778719842433929443359375">
        <ele>986.5999755859375</ele>
        <time>2022-04-17T15:34:22.000Z</time>
      </trkpt>
      <trkpt lat="42.9678573645651340484619140625" lon="-2.37115331925451755523681640625">
        <ele>986.5999755859375</ele>
        <time>2022-04-17T15:34:23.000Z</time>
      </trkpt>
      <trkpt lat="42.96785761602222919464111328125" lon="-2.37115927040576934814453125">
        <ele>986.5999755859375</ele>
        <time>2022-04-17T15:34:24.000Z</time>
      </trkpt>
      <trkpt lat="42.96785895712673664093017578125" lon="-2.37116656266152858734130859375">
        <ele>986.5999755859375</ele>
        <time>2022-04-17T15:34:25.000Z</time>
      </trkpt>
      <trkpt lat="42.96786230988800525665283203125" lon="-2.37117410637438297271728515625">
        <ele>986.4000244140625</ele>
        <time>2022-04-17T15:34:26.000Z</time>
      </trkpt>
      <trkpt lat="42.96786767430603504180908203125" lon="-2.37118483521044254302978515625">
        <ele>986.4000244140625</ele>
        <time>2022-04-17T15:34:27.000Z</time>
      </trkpt>
      <trkpt lat="42.96787437982857227325439453125" lon="-2.3711929656565189361572265625">
        <ele>986.20001220703125</ele>
        <time>2022-04-17T15:34:28.000Z</time>
      </trkpt>
      <trkpt lat="42.96788209117949008941650390625" lon="-2.37119958736002445220947265625">
        <ele>986</ele>
        <time>2022-04-17T15:34:29.000Z</time>
      </trkpt>
      <trkpt lat="42.96788259409368038177490234375" lon="-2.3712010122835636138916015625">
        <ele>985.79998779296875</ele>
        <time>2022-04-17T15:34:30.000Z</time>
      </trkpt>
      <trkpt lat="42.9678838513791561126708984375" lon="-2.37119271419942378997802734375">
        <ele>985.79998779296875</ele>
        <time>2022-04-17T15:34:31.000Z</time>
      </trkpt>
      <trkpt lat="42.967884354293346405029296875" lon="-2.37118986435234546661376953125">
        <ele>985.5999755859375</ele>
        <time>2022-04-17T15:34:32.000Z</time>
      </trkpt>
      <trkpt lat="42.96789214946329593658447265625" lon="-2.3711929656565189361572265625">
        <ele>985.5999755859375</ele>
        <time>2022-04-17T15:34:33.000Z</time>
      </trkpt>
      <trkpt lat="42.96789801679551601409912109375" lon="-2.37119975499808788299560546875">
        <ele>985.4000244140625</ele>
        <time>2022-04-17T15:34:34.000Z</time>
      </trkpt>
      <trkpt lat="42.96790103428065776824951171875" lon="-2.3712090589106082916259765625">
        <ele>985</ele>
        <time>2022-04-17T15:34:35.000Z</time>
      </trkpt>
      <trkpt lat="42.96790069900453090667724609375" lon="-2.37121987156569957733154296875">
        <ele>984.79998779296875</ele>
        <time>2022-04-17T15:34:36.000Z</time>
      </trkpt>
      <trkpt lat="42.96789986081421375274658203125" lon="-2.37122766673564910888671875">
        <ele>984.79998779296875</ele>
        <time>2022-04-17T15:34:37.000Z</time>
      </trkpt>
      <trkpt lat="42.9678999446332454681396484375" lon="-2.37123462371528148651123046875">
        <ele>984.5999755859375</ele>
        <time>2022-04-17T15:34:38.000Z</time>
      </trkpt>
      <trkpt lat="42.9678989388048648834228515625" lon="-2.37124267034232616424560546875">
        <ele>984.20001220703125</ele>
        <time>2022-04-17T15:34:39.000Z</time>
      </trkpt>
      <trkpt lat="42.967902459204196929931640625" lon="-2.37125314772129058837890625">
        <ele>984</ele>
        <time>2022-04-17T15:34:40.000Z</time>
      </trkpt>
      <trkpt lat="42.96790304593741893768310546875" lon="-2.371268570423126220703125">
        <ele>983.79998779296875</ele>
        <time>2022-04-17T15:34:41.000Z</time>
      </trkpt>
      <trkpt lat="42.96790421940386295318603515625" lon="-2.37127192318439483642578125">
        <ele>983.5999755859375</ele>
        <time>2022-04-17T15:34:42.000Z</time>
      </trkpt>
      <trkpt lat="42.9679056443274021148681640625" lon="-2.37127318046987056732177734375">
        <ele>983.5999755859375</ele>
        <time>2022-04-17T15:34:43.000Z</time>
      </trkpt>
      <trkpt lat="42.96790304593741893768310546875" lon="-2.37127485685050487518310546875">
        <ele>983.20001220703125</ele>
        <time>2022-04-17T15:34:44.000Z</time>
      </trkpt>
      <trkpt lat="42.96790321357548236846923828125" lon="-2.37127150408923625946044921875">
        <ele>983.20001220703125</ele>
        <time>2022-04-17T15:34:45.000Z</time>
      </trkpt>
      <trkpt lat="42.96790488995611667633056640625" lon="-2.37126982770860195159912109375">
        <ele>983</ele>
        <time>2022-04-17T15:34:46.000Z</time>
      </trkpt>
      <trkpt lat="42.9679110087454319000244140625" lon="-2.3712781257927417755126953125">
        <ele>982.79998779296875</ele>
        <time>2022-04-17T15:34:47.000Z</time>
      </trkpt>
      <trkpt lat="42.96791142784059047698974609375" lon="-2.37129061482846736907958984375">
        <ele>982.79998779296875</ele>
        <time>2022-04-17T15:34:48.000Z</time>
      </trkpt>
      <trkpt lat="42.96791084110736846923828125" lon="-2.37130972556769847869873046875">
        <ele>982.5999755859375</ele>
        <time>2022-04-17T15:34:49.000Z</time>
      </trkpt>
      <trkpt lat="42.967911846935749053955078125" lon="-2.3713217116892337799072265625">
        <ele>982.5999755859375</ele>
        <time>2022-04-17T15:34:50.000Z</time>
      </trkpt>
      <trkpt lat="42.96791327185928821563720703125" lon="-2.37132615409791469573974609375">
        <ele>982.4000244140625</ele>
        <time>2022-04-17T15:34:51.000Z</time>
      </trkpt>
      <trkpt lat="42.9679130204021930694580078125" lon="-2.3713344521820545196533203125">
        <ele>982</ele>
        <time>2022-04-17T15:34:52.000Z</time>
      </trkpt>
      <trkpt lat="42.96791553497314453125" lon="-2.37134392373263835906982421875">
        <ele>981.79998779296875</ele>
        <time>2022-04-17T15:34:53.000Z</time>
      </trkpt>
      <trkpt lat="42.967916540801525115966796875" lon="-2.371350042521953582763671875">
        <ele>981.5999755859375</ele>
        <time>2022-04-17T15:34:54.000Z</time>
      </trkpt>
      <trkpt lat="42.96792249195277690887451171875" lon="-2.37135632894933223724365234375">
        <ele>981.4000244140625</ele>
        <time>2022-04-17T15:34:55.000Z</time>
      </trkpt>
      <trkpt lat="42.96792852692306041717529296875" lon="-2.3713624477386474609375">
        <ele>981.20001220703125</ele>
        <time>2022-04-17T15:34:56.000Z</time>
      </trkpt>
      <trkpt lat="42.967930622398853302001953125" lon="-2.3713713325560092926025390625">
        <ele>981</ele>
        <time>2022-04-17T15:34:57.000Z</time>
      </trkpt>
      <trkpt lat="42.9679351486265659332275390625" lon="-2.37137929536402225494384765625">
        <ele>980.5999755859375</ele>
        <time>2022-04-17T15:34:58.000Z</time>
      </trkpt>
      <trkpt lat="42.967938669025897979736328125" lon="-2.37139304168522357940673828125">
        <ele>980.4000244140625</ele>
        <time>2022-04-17T15:34:59.000Z</time>
      </trkpt>
      <trkpt lat="42.96794495545327663421630859375" lon="-2.37140611745417118072509765625">
        <ele>980.20001220703125</ele>
        <time>2022-04-17T15:35:00.000Z</time>
      </trkpt>
      <trkpt lat="42.96794705092906951904296875" lon="-2.3714202828705310821533203125">
        <ele>980.20001220703125</ele>
        <time>2022-04-17T15:35:01.000Z</time>
      </trkpt>
      <trkpt lat="42.9679485596716403961181640625" lon="-2.3714300058782100677490234375">
        <ele>980</ele>
        <time>2022-04-17T15:35:02.000Z</time>
      </trkpt>
      <trkpt lat="42.96795115806162357330322265625" lon="-2.37143687903881072998046875">
        <ele>979.79998779296875</ele>
        <time>2022-04-17T15:35:03.000Z</time>
      </trkpt>
      <trkpt lat="42.9679509066045284271240234375" lon="-2.37144090235233306884765625">
        <ele>979.5999755859375</ele>
        <time>2022-04-17T15:35:04.000Z</time>
      </trkpt>
      <trkpt lat="42.9679488949477672576904296875" lon="-2.3714511282742023468017578125">
        <ele>979.20001220703125</ele>
        <time>2022-04-17T15:35:05.000Z</time>
      </trkpt>
      <trkpt lat="42.96794747002422809600830078125" lon="-2.37146370112895965576171875">
        <ele>979</ele>
        <time>2022-04-17T15:35:06.000Z</time>
      </trkpt>
      <trkpt lat="42.96794629655778408050537109375" lon="-2.37147568725049495697021484375">
        <ele>978.79998779296875</ele>
        <time>2022-04-17T15:35:07.000Z</time>
      </trkpt>
      <trkpt lat="42.9679472185671329498291015625" lon="-2.37148440442979335784912109375">
        <ele>978.79998779296875</ele>
        <time>2022-04-17T15:35:08.000Z</time>
      </trkpt>
      <trkpt lat="42.9679495655000209808349609375" lon="-2.37148893065750598907470703125">
        <ele>978.5999755859375</ele>
        <time>2022-04-17T15:35:09.000Z</time>
      </trkpt>
      <trkpt lat="42.96794881112873554229736328125" lon="-2.3714950494468212127685546875">
        <ele>978.20001220703125</ele>
        <time>2022-04-17T15:35:10.000Z</time>
      </trkpt>
      <trkpt lat="42.96794411726295948028564453125" lon="-2.3715024255216121673583984375">
        <ele>977.79998779296875</ele>
        <time>2022-04-17T15:35:11.000Z</time>
      </trkpt>
      <trkpt lat="42.9679371602833271026611328125" lon="-2.37151022069156169891357421875">
        <ele>977.5999755859375</ele>
        <time>2022-04-17T15:35:12.000Z</time>
      </trkpt>
      <trkpt lat="42.96793372370302677154541015625" lon="-2.3715148307383060455322265625">
        <ele>977.4000244140625</ele>
        <time>2022-04-17T15:35:13.000Z</time>
      </trkpt>
      <trkpt lat="42.9679317958652973175048828125" lon="-2.3715165071189403533935546875">
        <ele>977.20001220703125</ele>
        <time>2022-04-17T15:35:14.000Z</time>
      </trkpt>
      <trkpt lat="42.96793372370302677154541015625" lon="-2.371521703898906707763671875">
        <ele>977</ele>
        <time>2022-04-17T15:35:15.000Z</time>
      </trkpt>
      <trkpt lat="42.96793288551270961761474609375" lon="-2.37153084017336368560791015625">
        <ele>976.79998779296875</ele>
        <time>2022-04-17T15:35:16.000Z</time>
      </trkpt>
      <trkpt lat="42.96793187968432903289794921875" lon="-2.3715460114181041717529296875">
        <ele>976.5999755859375</ele>
        <time>2022-04-17T15:35:17.000Z</time>
      </trkpt>
      <trkpt lat="42.96793204732239246368408203125" lon="-2.371559925377368927001953125">
        <ele>976.5999755859375</ele>
        <time>2022-04-17T15:35:18.000Z</time>
      </trkpt>
      <trkpt lat="42.9679331369698047637939453125" lon="-2.37156738527119159698486328125">
        <ele>976.4000244140625</ele>
        <time>2022-04-17T15:35:19.000Z</time>
      </trkpt>
      <trkpt lat="42.96793003566563129425048828125" lon="-2.37157124094665050506591796875">
        <ele>976.20001220703125</ele>
        <time>2022-04-17T15:35:20.000Z</time>
      </trkpt>
      <trkpt lat="42.96792534179985523223876953125" lon="-2.37157878465950489044189453125">
        <ele>976</ele>
        <time>2022-04-17T15:35:21.000Z</time>
      </trkpt>
      <trkpt lat="42.96792165376245975494384765625" lon="-2.3715926147997379302978515625">
        <ele>975.79998779296875</ele>
        <time>2022-04-17T15:35:22.000Z</time>
      </trkpt>
      <trkpt lat="42.967918552458286285400390625" lon="-2.3716070316731929779052734375">
        <ele>975.5999755859375</ele>
        <time>2022-04-17T15:35:23.000Z</time>
      </trkpt>
      <trkpt lat="42.9679180495440959930419921875" lon="-2.37161801196634769439697265625">
        <ele>975.5999755859375</ele>
        <time>2022-04-17T15:35:24.000Z</time>
      </trkpt>
      <trkpt lat="42.9679170437157154083251953125" lon="-2.37162329256534576416015625">
        <ele>975.20001220703125</ele>
        <time>2022-04-17T15:35:25.000Z</time>
      </trkpt>
      <trkpt lat="42.96791553497314453125" lon="-2.37162957899272441864013671875">
        <ele>975</ele>
        <time>2022-04-17T15:35:26.000Z</time>
      </trkpt>
      <trkpt lat="42.96791595406830310821533203125" lon="-2.37164701335132122039794921875">
        <ele>974.79998779296875</ele>
        <time>2022-04-17T15:35:27.000Z</time>
      </trkpt>
      <trkpt lat="42.96791360713541507720947265625" lon="-2.37168255262076854705810546875">
        <ele>974.5999755859375</ele>
        <time>2022-04-17T15:35:28.000Z</time>
      </trkpt>
      <trkpt lat="42.96791561879217624664306640625" lon="-2.37169663421809673309326171875">
        <ele>974.4000244140625</ele>
        <time>2022-04-17T15:35:29.000Z</time>
      </trkpt>
      <trkpt lat="42.96791763044893741607666015625" lon="-2.37170568667352199554443359375">
        <ele>974.20001220703125</ele>
        <time>2022-04-17T15:35:30.000Z</time>
      </trkpt>
      <trkpt lat="42.96791830100119113922119140625" lon="-2.371710129082202911376953125">
        <ele>974.20001220703125</ele>
        <time>2022-04-17T15:35:31.000Z</time>
      </trkpt>
      <trkpt lat="42.96791553497314453125" lon="-2.371713817119598388671875">
        <ele>974</ele>
        <time>2022-04-17T15:35:32.000Z</time>
      </trkpt>
      <trkpt lat="42.967911176383495330810546875" lon="-2.37171507440507411956787109375">
        <ele>974</ele>
        <time>2022-04-17T15:35:33.000Z</time>
      </trkpt>
      <trkpt lat="42.9679096676409244537353515625" lon="-2.371717505156993865966796875">
        <ele>974</ele>
        <time>2022-04-17T15:35:34.000Z</time>
      </trkpt>
      <trkpt lat="42.96790505759418010711669921875" lon="-2.37172278575599193572998046875">
        <ele>974</ele>
        <time>2022-04-17T15:35:35.000Z</time>
      </trkpt>
      <trkpt lat="42.96790522523224353790283203125" lon="-2.371728904545307159423828125">
        <ele>974</ele>
        <time>2022-04-17T15:35:36.000Z</time>
      </trkpt>
      <trkpt lat="42.96790673397481441497802734375" lon="-2.37173250876367092132568359375">
        <ele>973.79998779296875</ele>
        <time>2022-04-17T15:35:37.000Z</time>
      </trkpt>
      <trkpt lat="42.96789751388132572174072265625" lon="-2.3717448301613330841064453125">
        <ele>973.79998779296875</ele>
        <time>2022-04-17T15:35:38.000Z</time>
      </trkpt>
      <trkpt lat="42.96787505038082599639892578125" lon="-2.37174994312226772308349609375">
        <ele>973.79998779296875</ele>
        <time>2022-04-17T15:35:39.000Z</time>
      </trkpt>
      <trkpt lat="42.96786633320152759552001953125" lon="-2.37175346352159976959228515625">
        <ele>973.79998779296875</ele>
        <time>2022-04-17T15:35:40.000Z</time>
      </trkpt>
      <trkpt lat="42.96785325743257999420166015625" lon="-2.37175698392093181610107421875">
        <ele>973.79998779296875</ele>
        <time>2022-04-17T15:35:41.000Z</time>
      </trkpt>
      <trkpt lat="42.96783967874944210052490234375" lon="-2.37176972441375255584716796875">
        <ele>973.79998779296875</ele>
        <time>2022-04-17T15:35:42.000Z</time>
      </trkpt>
      <trkpt lat="42.96783666126430034637451171875" lon="-2.37177860923111438751220703125">
        <ele>973.79998779296875</ele>
        <time>2022-04-17T15:35:43.000Z</time>
      </trkpt>
      <trkpt lat="42.96784244477748870849609375" lon="-2.371784560382366180419921875">
        <ele>973.79998779296875</ele>
        <time>2022-04-17T15:35:44.000Z</time>
      </trkpt>
      <trkpt lat="42.96784688718616962432861328125" lon="-2.371782548725605010986328125">
        <ele>973.79998779296875</ele>
        <time>2022-04-17T15:35:45.000Z</time>
      </trkpt>
      <trkpt lat="42.9678513295948505401611328125" lon="-2.3717786930501461029052734375">
        <ele>973.79998779296875</ele>
        <time>2022-04-17T15:35:46.000Z</time>
      </trkpt>
      <trkpt lat="42.96785560436546802520751953125" lon="-2.37177592702209949493408203125">
        <ele>973.5999755859375</ele>
        <time>2022-04-17T15:35:47.000Z</time>
      </trkpt>
      <trkpt lat="42.9678583703935146331787109375" lon="-2.37177793867886066436767578125">
        <ele>973.5999755859375</ele>
        <time>2022-04-17T15:35:48.000Z</time>
      </trkpt>
      <trkpt lat="42.96785912476480007171630859375" lon="-2.3717850632965564727783203125">
        <ele>973.4000244140625</ele>
        <time>2022-04-17T15:35:49.000Z</time>
      </trkpt>
      <trkpt lat="42.9678623937070369720458984375" lon="-2.37179654650390148162841796875">
        <ele>973.20001220703125</ele>
        <time>2022-04-17T15:35:50.000Z</time>
      </trkpt>
      <trkpt lat="42.96786650083959102630615234375" lon="-2.3718061856925487518310546875">
        <ele>973</ele>
        <time>2022-04-17T15:35:51.000Z</time>
      </trkpt>
      <trkpt lat="42.96786926686763763427734375" lon="-2.371816076338291168212890625">
        <ele>972.79998779296875</ele>
        <time>2022-04-17T15:35:52.000Z</time>
      </trkpt>
      <trkpt lat="42.9678714461624622344970703125" lon="-2.37182755954563617706298828125">
        <ele>972.5999755859375</ele>
        <time>2022-04-17T15:35:53.000Z</time>
      </trkpt>
      <trkpt lat="42.96787840314209461212158203125" lon="-2.37184164114296436309814453125">
        <ele>972.4000244140625</ele>
        <time>2022-04-17T15:35:54.000Z</time>
      </trkpt>
      <trkpt lat="42.96788276173174381256103515625" lon="-2.371852956712245941162109375">
        <ele>972.20001220703125</ele>
        <time>2022-04-17T15:35:55.000Z</time>
      </trkpt>
      <trkpt lat="42.9678888805210590362548828125" lon="-2.37186024896800518035888671875">
        <ele>972</ele>
        <time>2022-04-17T15:35:56.000Z</time>
      </trkpt>
      <trkpt lat="42.96789516694843769073486328125" lon="-2.37187005579471588134765625">
        <ele>971.79998779296875</ele>
        <time>2022-04-17T15:35:57.000Z</time>
      </trkpt>
      <trkpt lat="42.9678979329764842987060546875" lon="-2.3718755878508090972900390625">
        <ele>971.79998779296875</ele>
        <time>2022-04-17T15:35:58.000Z</time>
      </trkpt>
      <trkpt lat="42.9678992740809917449951171875" lon="-2.37188346683979034423828125">
        <ele>971.5999755859375</ele>
        <time>2022-04-17T15:35:59.000Z</time>
      </trkpt>
      <trkpt lat="42.96790405176579952239990234375" lon="-2.37189478240907192230224609375">
        <ele>971.4000244140625</ele>
        <time>2022-04-17T15:36:00.000Z</time>
      </trkpt>
      <trkpt lat="42.9679079912602901458740234375" lon="-2.37190266139805316925048828125">
        <ele>971.4000244140625</ele>
        <time>2022-04-17T15:36:01.000Z</time>
      </trkpt>
      <trkpt lat="42.9679120145738124847412109375" lon="-2.37190785817801952362060546875">
        <ele>971.20001220703125</ele>
        <time>2022-04-17T15:36:02.000Z</time>
      </trkpt>
      <trkpt lat="42.96791679225862026214599609375" lon="-2.3719161562621593475341796875">
        <ele>971</ele>
        <time>2022-04-17T15:36:03.000Z</time>
      </trkpt>
      <trkpt lat="42.96792265959084033966064453125" lon="-2.37192126922309398651123046875">
        <ele>971</ele>
        <time>2022-04-17T15:36:04.000Z</time>
      </trkpt>
      <trkpt lat="42.9679307900369167327880859375" lon="-2.37192629836499691009521484375">
        <ele>970.79998779296875</ele>
        <time>2022-04-17T15:36:05.000Z</time>
      </trkpt>
      <trkpt lat="42.967942692339420318603515625" lon="-2.37193568609654903411865234375">
        <ele>970.5999755859375</ele>
        <time>2022-04-17T15:36:06.000Z</time>
      </trkpt>
      <trkpt lat="42.96795367263257503509521484375" lon="-2.37194859422743320465087890625">
        <ele>970.4000244140625</ele>
        <time>2022-04-17T15:36:07.000Z</time>
      </trkpt>
      <trkpt lat="42.96796373091638088226318359375" lon="-2.37196267582476139068603515625">
        <ele>970.4000244140625</ele>
        <time>2022-04-17T15:36:08.000Z</time>
      </trkpt>
      <trkpt lat="42.96797177754342555999755859375" lon="-2.37197290174663066864013671875">
        <ele>970</ele>
        <time>2022-04-17T15:36:09.000Z</time>
      </trkpt>
      <trkpt lat="42.96798468567430973052978515625" lon="-2.37198664806783199310302734375">
        <ele>969.79998779296875</ele>
        <time>2022-04-17T15:36:10.000Z</time>
      </trkpt>
      <trkpt lat="42.96799021773040294647216796875" lon="-2.3719993047416210174560546875">
        <ele>969.5999755859375</ele>
        <time>2022-04-17T15:36:11.000Z</time>
      </trkpt>
      <trkpt lat="42.967993654310703277587890625" lon="-2.37200953066349029541015625">
        <ele>969.5999755859375</ele>
        <time>2022-04-17T15:36:12.000Z</time>
      </trkpt>
      <trkpt lat="42.96800044365227222442626953125" lon="-2.3720207624137401580810546875">
        <ele>969.4000244140625</ele>
        <time>2022-04-17T15:36:13.000Z</time>
      </trkpt>
      <trkpt lat="42.968002371490001678466796875" lon="-2.37203090451657772064208984375">
        <ele>969.20001220703125</ele>
        <time>2022-04-17T15:36:14.000Z</time>
      </trkpt>
      <trkpt lat="42.968002371490001678466796875" lon="-2.37204163335263729095458984375">
        <ele>969.20001220703125</ele>
        <time>2022-04-17T15:36:15.000Z</time>
      </trkpt>
      <trkpt lat="42.96800069510936737060546875" lon="-2.37204984761774539947509765625">
        <ele>969</ele>
        <time>2022-04-17T15:36:16.000Z</time>
      </trkpt>
      <trkpt lat="42.96799600124359130859375" lon="-2.372069545090198516845703125">
        <ele>968.79998779296875</ele>
        <time>2022-04-17T15:36:17.000Z</time>
      </trkpt>
      <trkpt lat="42.9680062271654605865478515625" lon="-2.3720665276050567626953125">
        <ele>968.5999755859375</ele>
        <time>2022-04-17T15:36:18.000Z</time>
      </trkpt>
      <trkpt lat="42.9680268466472625732421875" lon="-2.37206208519637584686279296875">
        <ele>968.5999755859375</ele>
        <time>2022-04-17T15:36:19.000Z</time>
      </trkpt>
      <trkpt lat="42.96803430654108524322509765625" lon="-2.37206812016665935516357421875">
        <ele>968.5999755859375</ele>
        <time>2022-04-17T15:36:20.000Z</time>
      </trkpt>
      <trkpt lat="42.96803916804492473602294921875" lon="-2.3720643483102321624755859375">
        <ele>968.4000244140625</ele>
        <time>2022-04-17T15:36:21.000Z</time>
      </trkpt>
      <trkpt lat="42.96803832985460758209228515625" lon="-2.37207532860338687896728515625">
        <ele>968.4000244140625</ele>
        <time>2022-04-17T15:36:22.000Z</time>
      </trkpt>
      <trkpt lat="42.96803698875010013580322265625" lon="-2.372080944478511810302734375">
        <ele>968.4000244140625</ele>
        <time>2022-04-17T15:36:23.000Z</time>
      </trkpt>
      <trkpt lat="42.96803581528365612030029296875" lon="-2.37208756618201732635498046875">
        <ele>968.20001220703125</ele>
        <time>2022-04-17T15:36:24.000Z</time>
      </trkpt>
      <trkpt lat="42.96803615055978298187255859375" lon="-2.37209343351423740386962890625">
        <ele>968</ele>
        <time>2022-04-17T15:36:25.000Z</time>
      </trkpt>
      <trkpt lat="42.968037910759449005126953125" lon="-2.37209938466548919677734375">
        <ele>967.79998779296875</ele>
        <time>2022-04-17T15:36:26.000Z</time>
      </trkpt>
      <trkpt lat="42.96803782694041728973388671875" lon="-2.37210617400705814361572265625">
        <ele>967.79998779296875</ele>
        <time>2022-04-17T15:36:27.000Z</time>
      </trkpt>
      <trkpt lat="42.96803799457848072052001953125" lon="-2.3721166513860225677490234375">
        <ele>967.5999755859375</ele>
        <time>2022-04-17T15:36:28.000Z</time>
      </trkpt>
      <trkpt lat="42.96803916804492473602294921875" lon="-2.3721303977072238922119140625">
        <ele>967.4000244140625</ele>
        <time>2022-04-17T15:36:29.000Z</time>
      </trkpt>
      <trkpt lat="42.96803732402622699737548828125" lon="-2.372141294181346893310546875">
        <ele>967.20001220703125</ele>
        <time>2022-04-17T15:36:30.000Z</time>
      </trkpt>
      <trkpt lat="42.96803615055978298187255859375" lon="-2.37215076573193073272705078125">
        <ele>967</ele>
        <time>2022-04-17T15:36:31.000Z</time>
      </trkpt>
      <trkpt lat="42.96803891658782958984375" lon="-2.37215629778802394866943359375">
        <ele>966.79998779296875</ele>
        <time>2022-04-17T15:36:32.000Z</time>
      </trkpt>
      <trkpt lat="42.9680424369871616363525390625" lon="-2.37215948291122913360595703125">
        <ele>966.79998779296875</ele>
        <time>2022-04-17T15:36:33.000Z</time>
      </trkpt>
      <trkpt lat="42.96805006451904773712158203125" lon="-2.37216333858668804168701171875">
        <ele>966.5999755859375</ele>
        <time>2022-04-17T15:36:34.000Z</time>
      </trkpt>
      <trkpt lat="42.9680509865283966064453125" lon="-2.3721639253199100494384765625">
        <ele>966.4000244140625</ele>
        <time>2022-04-17T15:36:35.000Z</time>
      </trkpt>
      <trkpt lat="42.96805157326161861419677734375" lon="-2.3721692897379398345947265625">
        <ele>966.4000244140625</ele>
        <time>2022-04-17T15:36:36.000Z</time>
      </trkpt>
      <trkpt lat="42.968053333461284637451171875" lon="-2.3721753247082233428955078125">
        <ele>966.4000244140625</ele>
        <time>2022-04-17T15:36:37.000Z</time>
      </trkpt>
      <trkpt lat="42.9680531658232212066650390625" lon="-2.37218479625880718231201171875">
        <ele>966.20001220703125</ele>
        <time>2022-04-17T15:36:38.000Z</time>
      </trkpt>
      <trkpt lat="42.96805836260318756103515625" lon="-2.372196614742279052734375">
        <ele>966.20001220703125</ele>
        <time>2022-04-17T15:36:39.000Z</time>
      </trkpt>
      <trkpt lat="42.9680595360696315765380859375" lon="-2.3721994645893573760986328125">
        <ele>966</ele>
        <time>2022-04-17T15:36:40.000Z</time>
      </trkpt>
      <trkpt lat="42.96806297264993190765380859375" lon="-2.37220256589353084564208984375">
        <ele>966</ele>
        <time>2022-04-17T15:36:41.000Z</time>
      </trkpt>
      <trkpt lat="42.9680628888309001922607421875" lon="-2.37220466136932373046875">
        <ele>966</ele>
        <time>2022-04-17T15:36:42.000Z</time>
      </trkpt>
      <trkpt lat="42.968068085610866546630859375" lon="-2.37221480347216129302978515625">
        <ele>966</ele>
        <time>2022-04-17T15:36:43.000Z</time>
      </trkpt>
      <trkpt lat="42.96807638369500637054443359375" lon="-2.37223081290721893310546875">
        <ele>965.79998779296875</ele>
        <time>2022-04-17T15:36:44.000Z</time>
      </trkpt>
      <trkpt lat="42.96807655133306980133056640625" lon="-2.37224414013326168060302734375">
        <ele>965.5999755859375</ele>
        <time>2022-04-17T15:36:45.000Z</time>
      </trkpt>
      <trkpt lat="42.9680764675140380859375" lon="-2.37226241268217563629150390625">
        <ele>965.4000244140625</ele>
        <time>2022-04-17T15:36:46.000Z</time>
      </trkpt>
      <trkpt lat="42.9680789820849895477294921875" lon="-2.3722725547850131988525390625">
        <ele>965.20001220703125</ele>
        <time>2022-04-17T15:36:47.000Z</time>
      </trkpt>
      <trkpt lat="42.96808426268398761749267578125" lon="-2.37228672020137310028076171875">
        <ele>965</ele>
        <time>2022-04-17T15:36:48.000Z</time>
      </trkpt>
      <trkpt lat="42.96808929182589054107666015625" lon="-2.37230264581739902496337890625">
        <ele>964.79998779296875</ele>
        <time>2022-04-17T15:36:49.000Z</time>
      </trkpt>
      <trkpt lat="42.96809457242488861083984375" lon="-2.372318990528583526611328125">
        <ele>964.79998779296875</ele>
        <time>2022-04-17T15:36:50.000Z</time>
      </trkpt>
      <trkpt lat="42.96810236759483814239501953125" lon="-2.3723329044878482818603515625">
        <ele>964.4000244140625</ele>
        <time>2022-04-17T15:36:51.000Z</time>
      </trkpt>
      <trkpt lat="42.96811024658381938934326171875" lon="-2.37234287895262241363525390625">
        <ele>964.20001220703125</ele>
        <time>2022-04-17T15:36:52.000Z</time>
      </trkpt>
      <trkpt lat="42.96812416054308414459228515625" lon="-2.37235075794160366058349609375">
        <ele>964</ele>
        <time>2022-04-17T15:36:53.000Z</time>
      </trkpt>
      <trkpt lat="42.96813254244625568389892578125" lon="-2.3723577149212360382080078125">
        <ele>963.79998779296875</ele>
        <time>2022-04-17T15:36:54.000Z</time>
      </trkpt>
      <trkpt lat="42.9681373201310634613037109375" lon="-2.3723664321005344390869140625">
        <ele>963.5999755859375</ele>
        <time>2022-04-17T15:36:55.000Z</time>
      </trkpt>
      <trkpt lat="42.9681393317878246307373046875" lon="-2.37237473018467426300048828125">
        <ele>963.4000244140625</ele>
        <time>2022-04-17T15:36:56.000Z</time>
      </trkpt>
      <trkpt lat="42.9681413434445858001708984375" lon="-2.37238830886781215667724609375">
        <ele>963.20001220703125</ele>
        <time>2022-04-17T15:36:57.000Z</time>
      </trkpt>
      <trkpt lat="42.968145199120044708251953125" lon="-2.37240188755095005035400390625">
        <ele>963</ele>
        <time>2022-04-17T15:36:58.000Z</time>
      </trkpt>
      <trkpt lat="42.96814796514809131622314453125" lon="-2.372416220605373382568359375">
        <ele>962.79998779296875</ele>
        <time>2022-04-17T15:36:59.000Z</time>
      </trkpt>
      <trkpt lat="42.96814695931971073150634765625" lon="-2.3724331520497798919677734375">
        <ele>962.79998779296875</ele>
        <time>2022-04-17T15:37:00.000Z</time>
      </trkpt>
      <trkpt lat="42.968143187463283538818359375" lon="-2.37244463525712490081787109375">
        <ele>962.5999755859375</ele>
        <time>2022-04-17T15:37:01.000Z</time>
      </trkpt>
      <trkpt lat="42.9681421816349029541015625" lon="-2.37245435826480388641357421875">
        <ele>962.4000244140625</ele>
        <time>2022-04-17T15:37:02.000Z</time>
      </trkpt>
      <trkpt lat="42.96814142726361751556396484375" lon="-2.3724643327295780181884765625">
        <ele>962.4000244140625</ele>
        <time>2022-04-17T15:37:03.000Z</time>
      </trkpt>
      <trkpt lat="42.9681406728923320770263671875" lon="-2.37247112207114696502685546875">
        <ele>962.20001220703125</ele>
        <time>2022-04-17T15:37:04.000Z</time>
      </trkpt>
      <trkpt lat="42.96814377419650554656982421875" lon="-2.37247665412724018096923828125">
        <ele>962</ele>
        <time>2022-04-17T15:37:05.000Z</time>
      </trkpt>
      <trkpt lat="42.96814964152872562408447265625" lon="-2.37248050980269908905029296875">
        <ele>962</ele>
        <time>2022-04-17T15:37:06.000Z</time>
      </trkpt>
      <trkpt lat="42.96815450303256511688232421875" lon="-2.37250029109418392181396484375">
        <ele>961.79998779296875</ele>
        <time>2022-04-17T15:37:07.000Z</time>
      </trkpt>
      <trkpt lat="42.96815869398415088653564453125" lon="-2.37252191640436649322509765625">
        <ele>961.79998779296875</ele>
        <time>2022-04-17T15:37:08.000Z</time>
      </trkpt>
      <trkpt lat="42.96815869398415088653564453125" lon="-2.37252828665077686309814453125">
        <ele>961.5999755859375</ele>
        <time>2022-04-17T15:37:09.000Z</time>
      </trkpt>
      <trkpt lat="42.9681571014225482940673828125" lon="-2.3725313879549503326416015625">
        <ele>961.4000244140625</ele>
        <time>2022-04-17T15:37:10.000Z</time>
      </trkpt>
      <trkpt lat="42.96815760433673858642578125" lon="-2.37253784202039241790771484375">
        <ele>961.20001220703125</ele>
        <time>2022-04-17T15:37:11.000Z</time>
      </trkpt>
      <trkpt lat="42.9681678302586078643798828125" lon="-2.3725535161793231964111328125">
        <ele>961</ele>
        <time>2022-04-17T15:37:12.000Z</time>
      </trkpt>
      <trkpt lat="42.96817637979984283447265625" lon="-2.372565083205699920654296875">
        <ele>960.79998779296875</ele>
        <time>2022-04-17T15:37:13.000Z</time>
      </trkpt>
      <trkpt lat="42.96818308532238006591796875" lon="-2.37256743013858795166015625">
        <ele>960.4000244140625</ele>
        <time>2022-04-17T15:37:14.000Z</time>
      </trkpt>
      <trkpt lat="42.96819624491035938262939453125" lon="-2.37257757224142551422119140625">
        <ele>960.4000244140625</ele>
        <time>2022-04-17T15:37:15.000Z</time>
      </trkpt>
      <trkpt lat="42.968200854957103729248046875" lon="-2.37259157001972198486328125">
        <ele>960.20001220703125</ele>
        <time>2022-04-17T15:37:16.000Z</time>
      </trkpt>
      <trkpt lat="42.9682026989758014678955078125" lon="-2.3726017959415912628173828125">
        <ele>960</ele>
        <time>2022-04-17T15:37:17.000Z</time>
      </trkpt>
      <trkpt lat="42.96820663847029209136962890625" lon="-2.3726142011582851409912109375">
        <ele>960</ele>
        <time>2022-04-17T15:37:18.000Z</time>
      </trkpt>
      <trkpt lat="42.96821367926895618438720703125" lon="-2.372626103460788726806640625">
        <ele>959.79998779296875</ele>
        <time>2022-04-17T15:37:19.000Z</time>
      </trkpt>
      <trkpt lat="42.96822558157145977020263671875" lon="-2.37263238988816738128662109375">
        <ele>959.5999755859375</ele>
        <time>2022-04-17T15:37:20.000Z</time>
      </trkpt>
      <trkpt lat="42.9682278446853160858154296875" lon="-2.372632808983325958251953125">
        <ele>959.4000244140625</ele>
        <time>2022-04-17T15:37:21.000Z</time>
      </trkpt>
      <trkpt lat="42.968231029808521270751953125" lon="-2.3726383410394191741943359375">
        <ele>959</ele>
        <time>2022-04-17T15:37:22.000Z</time>
      </trkpt>
      <trkpt lat="42.96823396347463130950927734375" lon="-2.37264932133257389068603515625">
        <ele>958.79998779296875</ele>
        <time>2022-04-17T15:37:23.000Z</time>
      </trkpt>
      <trkpt lat="42.9682360589504241943359375" lon="-2.3726534284651279449462890625">
        <ele>958.79998779296875</ele>
        <time>2022-04-17T15:37:24.000Z</time>
      </trkpt>
      <trkpt lat="42.96823882497847080230712890625" lon="-2.37266130745410919189453125">
        <ele>958.5999755859375</ele>
        <time>2022-04-17T15:37:25.000Z</time>
      </trkpt>
      <trkpt lat="42.96824217773973941802978515625" lon="-2.37267094664275646209716796875">
        <ele>958.20001220703125</ele>
        <time>2022-04-17T15:37:26.000Z</time>
      </trkpt>
      <trkpt lat="42.96824234537780284881591796875" lon="-2.37268284894526004791259765625">
        <ele>958</ele>
        <time>2022-04-17T15:37:27.000Z</time>
      </trkpt>
      <trkpt lat="42.96824603341519832611083984375" lon="-2.372694499790668487548828125">
        <ele>958</ele>
        <time>2022-04-17T15:37:28.000Z</time>
      </trkpt>
      <trkpt lat="42.968247793614864349365234375" lon="-2.37271092832088470458984375">
        <ele>957.79998779296875</ele>
        <time>2022-04-17T15:37:29.000Z</time>
      </trkpt>
      <trkpt lat="42.968249134719371795654296875" lon="-2.3727218247950077056884765625">
        <ele>957.4000244140625</ele>
        <time>2022-04-17T15:37:30.000Z</time>
      </trkpt>
      <trkpt lat="42.96825148165225982666015625" lon="-2.372734062373638153076171875">
        <ele>957.20001220703125</ele>
        <time>2022-04-17T15:37:31.000Z</time>
      </trkpt>
      <trkpt lat="42.968251146376132965087890625" lon="-2.37274437211453914642333984375">
        <ele>956.79998779296875</ele>
        <time>2022-04-17T15:37:32.000Z</time>
      </trkpt>
      <trkpt lat="42.96825282275676727294921875" lon="-2.372751496732234954833984375">
        <ele>956.5999755859375</ele>
        <time>2022-04-17T15:37:33.000Z</time>
      </trkpt>
      <trkpt lat="42.9682536609470844268798828125" lon="-2.37275694496929645538330078125">
        <ele>956.4000244140625</ele>
        <time>2022-04-17T15:37:34.000Z</time>
      </trkpt>
      <trkpt lat="42.96825625933706760406494140625" lon="-2.37276591360569000244140625">
        <ele>956.20001220703125</ele>
        <time>2022-04-17T15:37:35.000Z</time>
      </trkpt>
      <trkpt lat="42.9682601988315582275390625" lon="-2.372777648270130157470703125">
        <ele>956</ele>
        <time>2022-04-17T15:37:36.000Z</time>
      </trkpt>
      <trkpt lat="42.9682650603353977203369140625" lon="-2.37278603017330169677734375">
        <ele>955.79998779296875</ele>
        <time>2022-04-17T15:37:37.000Z</time>
      </trkpt>
      <trkpt lat="42.9682704247534275054931640625" lon="-2.37279298715293407440185546875">
        <ele>955.5999755859375</ele>
        <time>2022-04-17T15:37:38.000Z</time>
      </trkpt>
      <trkpt lat="42.96827704645693302154541015625" lon="-2.37279935739934444427490234375">
        <ele>955.4000244140625</ele>
        <time>2022-04-17T15:37:39.000Z</time>
      </trkpt>
      <trkpt lat="42.9682950675487518310546875" lon="-2.3728110082447528839111328125">
        <ele>955</ele>
        <time>2022-04-17T15:37:40.000Z</time>
      </trkpt>
      <trkpt lat="42.96831811778247356414794921875" lon="-2.37282383255660533905029296875">
        <ele>955</ele>
        <time>2022-04-17T15:37:41.000Z</time>
      </trkpt>
      <trkpt lat="42.96832968480885028839111328125" lon="-2.37283824943006038665771484375">
        <ele>954.79998779296875</ele>
        <time>2022-04-17T15:37:42.000Z</time>
      </trkpt>
      <trkpt lat="42.9683401621878147125244140625" lon="-2.3728555999696254730224609375">
        <ele>954.5999755859375</ele>
        <time>2022-04-17T15:37:43.000Z</time>
      </trkpt>
      <trkpt lat="42.96834829263389110565185546875" lon="-2.37287496216595172882080078125">
        <ele>954.4000244140625</ele>
        <time>2022-04-17T15:37:44.000Z</time>
      </trkpt>
      <trkpt lat="42.9683522321283817291259765625" lon="-2.37289608456194400787353515625">
        <ele>954</ele>
        <time>2022-04-17T15:37:45.000Z</time>
      </trkpt>
      <trkpt lat="42.96835298649966716766357421875" lon="-2.3729159496724605560302734375">
        <ele>953.79998779296875</ele>
        <time>2022-04-17T15:37:46.000Z</time>
      </trkpt>
      <trkpt lat="42.96835851855576038360595703125" lon="-2.37292944453656673431396484375">
        <ele>953.5999755859375</ele>
        <time>2022-04-17T15:37:47.000Z</time>
      </trkpt>
      <trkpt lat="42.96836505644023418426513671875" lon="-2.37294587306678295135498046875">
        <ele>953.20001220703125</ele>
        <time>2022-04-17T15:37:48.000Z</time>
      </trkpt>
      <trkpt lat="42.96836690045893192291259765625" lon="-2.372959367930889129638671875">
        <ele>953.20001220703125</ele>
        <time>2022-04-17T15:37:49.000Z</time>
      </trkpt>
      <trkpt lat="42.968365140259265899658203125" lon="-2.37296883948147296905517578125">
        <ele>952.79998779296875</ele>
        <time>2022-04-17T15:37:50.000Z</time>
      </trkpt>
      <trkpt lat="42.96836740337312221527099609375" lon="-2.37297269515693187713623046875">
        <ele>952.5999755859375</ele>
        <time>2022-04-17T15:37:51.000Z</time>
      </trkpt>
      <trkpt lat="42.96837042085826396942138671875" lon="-2.372976802289485931396484375">
        <ele>952.5999755859375</ele>
        <time>2022-04-17T15:37:52.000Z</time>
      </trkpt>
      <trkpt lat="42.96837025322020053863525390625" lon="-2.3729838430881500244140625">
        <ele>952.20001220703125</ele>
        <time>2022-04-17T15:37:53.000Z</time>
      </trkpt>
      <trkpt lat="42.96836773864924907684326171875" lon="-2.37299499101936817169189453125">
        <ele>951.79998779296875</ele>
        <time>2022-04-17T15:37:54.000Z</time>
      </trkpt>
      <trkpt lat="42.9683736898005008697509765625" lon="-2.3730289377272129058837890625">
        <ele>951.5999755859375</ele>
        <time>2022-04-17T15:37:55.000Z</time>
      </trkpt>
      <trkpt lat="42.9683753661811351776123046875" lon="-2.37305182032287120819091796875">
        <ele>951.4000244140625</ele>
        <time>2022-04-17T15:37:56.000Z</time>
      </trkpt>
      <trkpt lat="42.9683700017631053924560546875" lon="-2.37306858412921428680419921875">
        <ele>951.20001220703125</ele>
        <time>2022-04-17T15:37:57.000Z</time>
      </trkpt>
      <trkpt lat="42.96836413443088531494140625" lon="-2.37308132462203502655029296875">
        <ele>950.79998779296875</ele>
        <time>2022-04-17T15:37:58.000Z</time>
      </trkpt>
      <trkpt lat="42.968366481363773345947265625" lon="-2.37309607677161693572998046875">
        <ele>950.5999755859375</ele>
        <time>2022-04-17T15:37:59.000Z</time>
      </trkpt>
      <trkpt lat="42.9683683253824710845947265625" lon="-2.3731073923408985137939453125">
        <ele>950.5999755859375</ele>
        <time>2022-04-17T15:38:00.000Z</time>
      </trkpt>
      <trkpt lat="42.96836522407829761505126953125" lon="-2.37311200238764286041259765625">
        <ele>950.4000244140625</ele>
        <time>2022-04-17T15:38:01.000Z</time>
      </trkpt>
      <trkpt lat="42.9683649726212024688720703125" lon="-2.3731201328337192535400390625">
        <ele>950.20001220703125</ele>
        <time>2022-04-17T15:38:02.000Z</time>
      </trkpt>
      <trkpt lat="42.96836891211569309234619140625" lon="-2.3731311969459056854248046875">
        <ele>950</ele>
        <time>2022-04-17T15:38:03.000Z</time>
      </trkpt>
      <trkpt lat="42.9683686606585979461669921875" lon="-2.3731395788490772247314453125">
        <ele>949.79998779296875</ele>
        <time>2022-04-17T15:38:04.000Z</time>
      </trkpt>
      <trkpt lat="42.96836187131702899932861328125" lon="-2.37315357662737369537353515625">
        <ele>949.5999755859375</ele>
        <time>2022-04-17T15:38:05.000Z</time>
      </trkpt>
      <trkpt lat="42.96836053021252155303955078125" lon="-2.37316581420600414276123046875">
        <ele>949.4000244140625</ele>
        <time>2022-04-17T15:38:06.000Z</time>
      </trkpt>
      <trkpt lat="42.9683649726212024688720703125" lon="-2.37317151390016078948974609375">
        <ele>949.20001220703125</ele>
        <time>2022-04-17T15:38:07.000Z</time>
      </trkpt>
      <trkpt lat="42.96837762929499149322509765625" lon="-2.37317151390016078948974609375">
        <ele>949</ele>
        <time>2022-04-17T15:38:08.000Z</time>
      </trkpt>
      <trkpt lat="42.96838249079883098602294921875" lon="-2.3731742799282073974609375">
        <ele>948.79998779296875</ele>
        <time>2022-04-17T15:38:09.000Z</time>
      </trkpt>
      <trkpt lat="42.9683871008455753326416015625" lon="-2.37317805178463459014892578125">
        <ele>948.79998779296875</ele>
        <time>2022-04-17T15:38:10.000Z</time>
      </trkpt>
      <trkpt lat="42.96839497983455657958984375" lon="-2.37319213338196277618408203125">
        <ele>948.5999755859375</ele>
        <time>2022-04-17T15:38:11.000Z</time>
      </trkpt>
      <trkpt lat="42.96840260736644268035888671875" lon="-2.373215854167938232421875">
        <ele>948.5999755859375</ele>
        <time>2022-04-17T15:38:12.000Z</time>
      </trkpt>
      <trkpt lat="42.96841165982186794281005859375" lon="-2.3732458613812923431396484375">
        <ele>948.5999755859375</ele>
        <time>2022-04-17T15:38:13.000Z</time>
      </trkpt>
      <trkpt lat="42.96842272393405437469482421875" lon="-2.37325499765574932098388671875">
        <ele>948.4000244140625</ele>
        <time>2022-04-17T15:38:14.000Z</time>
      </trkpt>
      <trkpt lat="42.968434877693653106689453125" lon="-2.37326455302536487579345703125">
        <ele>948.4000244140625</ele>
        <time>2022-04-17T15:38:15.000Z</time>
      </trkpt>
      <trkpt lat="42.96844569034874439239501953125" lon="-2.37326790578663349151611328125">
        <ele>948.4000244140625</ele>
        <time>2022-04-17T15:38:16.000Z</time>
      </trkpt>
      <trkpt lat="42.9684524796903133392333984375" lon="-2.37327310256659984588623046875">
        <ele>948.20001220703125</ele>
        <time>2022-04-17T15:38:17.000Z</time>
      </trkpt>
      <trkpt lat="42.96845189295709133148193359375" lon="-2.37327544949948787689208984375">
        <ele>948.20001220703125</ele>
        <time>2022-04-17T15:38:18.000Z</time>
      </trkpt>
      <trkpt lat="42.9684521444141864776611328125" lon="-2.3732830770313739776611328125">
        <ele>948</ele>
        <time>2022-04-17T15:38:19.000Z</time>
      </trkpt>
      <trkpt lat="42.96845323406159877777099609375" lon="-2.3732968233525753021240234375">
        <ele>947.79998779296875</ele>
        <time>2022-04-17T15:38:20.000Z</time>
      </trkpt>
      <trkpt lat="42.96845926903188228607177734375" lon="-2.37331031821668148040771484375">
        <ele>947.79998779296875</ele>
        <time>2022-04-17T15:38:21.000Z</time>
      </trkpt>
      <trkpt lat="42.96846605837345123291015625" lon="-2.37332741729915142059326171875">
        <ele>947.5999755859375</ele>
        <time>2022-04-17T15:38:22.000Z</time>
      </trkpt>
      <trkpt lat="42.96847787685692310333251953125" lon="-2.37334929406642913818359375">
        <ele>947.20001220703125</ele>
        <time>2022-04-17T15:38:23.000Z</time>
      </trkpt>
      <trkpt lat="42.9684855043888092041015625" lon="-2.37336413003504276275634765625">
        <ele>947.20001220703125</ele>
        <time>2022-04-17T15:38:24.000Z</time>
      </trkpt>
      <trkpt lat="42.96849648468196392059326171875" lon="-2.373376451432704925537109375">
        <ele>947</ele>
        <time>2022-04-17T15:38:25.000Z</time>
      </trkpt>
      <trkpt lat="42.96850604005157947540283203125" lon="-2.37338860519230365753173828125">
        <ele>947</ele>
        <time>2022-04-17T15:38:26.000Z</time>
      </trkpt>
      <trkpt lat="42.9685084708034992218017578125" lon="-2.37339011393487453460693359375">
        <ele>946.79998779296875</ele>
        <time>2022-04-17T15:38:27.000Z</time>
      </trkpt>
      <trkpt lat="42.96851173974573612213134765625" lon="-2.3733920417726039886474609375">
        <ele>946.79998779296875</ele>
        <time>2022-04-17T15:38:28.000Z</time>
      </trkpt>
      <trkpt lat="42.96850838698446750640869140625" lon="-2.37339531071484088897705078125">
        <ele>946.5999755859375</ele>
        <time>2022-04-17T15:38:29.000Z</time>
      </trkpt>
      <trkpt lat="42.96850402839481830596923828125" lon="-2.37340134568512439727783203125">
        <ele>946.5999755859375</ele>
        <time>2022-04-17T15:38:30.000Z</time>
      </trkpt>
      <trkpt lat="42.96850201673805713653564453125" lon="-2.37340587191283702850341796875">
        <ele>946.4000244140625</ele>
        <time>2022-04-17T15:38:31.000Z</time>
      </trkpt>
      <trkpt lat="42.9685042798519134521484375" lon="-2.37340704537928104400634765625">
        <ele>946.4000244140625</ele>
        <time>2022-04-17T15:38:32.000Z</time>
      </trkpt>
      <trkpt lat="42.96851358376443386077880859375" lon="-2.37341341562569141387939453125">
        <ele>946.4000244140625</ele>
        <time>2022-04-17T15:38:33.000Z</time>
      </trkpt>
      <trkpt lat="42.96851777471601963043212890625" lon="-2.37341525964438915252685546875">
        <ele>946.4000244140625</ele>
        <time>2022-04-17T15:38:34.000Z</time>
      </trkpt>
      <trkpt lat="42.9685175232589244842529296875" lon="-2.3734218813478946685791015625">
        <ele>946.4000244140625</ele>
        <time>2022-04-17T15:38:35.000Z</time>
      </trkpt>
      <trkpt lat="42.96851442195475101470947265625" lon="-2.37343202345073223114013671875">
        <ele>946.4000244140625</ele>
        <time>2022-04-17T15:38:36.000Z</time>
      </trkpt>
      <trkpt lat="42.96851358376443386077880859375" lon="-2.3734483681619167327880859375">
        <ele>946.4000244140625</ele>
        <time>2022-04-17T15:38:37.000Z</time>
      </trkpt>
      <trkpt lat="42.968518696725368499755859375" lon="-2.37345465458929538726806640625">
        <ele>946.4000244140625</ele>
        <time>2022-04-17T15:38:38.000Z</time>
      </trkpt>
      <trkpt lat="42.96852397732436656951904296875" lon="-2.37345901317894458770751953125">
        <ele>946.4000244140625</ele>
        <time>2022-04-17T15:38:39.000Z</time>
      </trkpt>
      <trkpt lat="42.9685295931994915008544921875" lon="-2.37346328794956207275390625">
        <ele>946.4000244140625</ele>
        <time>2022-04-17T15:38:40.000Z</time>
      </trkpt>
      <trkpt lat="42.9685386456549167633056640625" lon="-2.37346337176859378814697265625">
        <ele>946.20001220703125</ele>
        <time>2022-04-17T15:38:41.000Z</time>
      </trkpt>
      <trkpt lat="42.9685520566999912261962890625" lon="-2.3734634555876255035400390625">
        <ele>946.20001220703125</ele>
        <time>2022-04-17T15:38:42.000Z</time>
      </trkpt>
      <trkpt lat="42.96855817548930644989013671875" lon="-2.3734684847295284271240234375">
        <ele>946.20001220703125</ele>
        <time>2022-04-17T15:38:43.000Z</time>
      </trkpt>
      <trkpt lat="42.968561947345733642578125" lon="-2.37347460351884365081787109375">
        <ele>946.20001220703125</ele>
        <time>2022-04-17T15:38:44.000Z</time>
      </trkpt>
      <trkpt lat="42.9685641266405582427978515625" lon="-2.373476363718509674072265625">
        <ele>945.79998779296875</ele>
        <time>2022-04-17T15:38:45.000Z</time>
      </trkpt>
      <trkpt lat="42.9685651324689388275146484375" lon="-2.37347996793687343597412109375">
        <ele>945.79998779296875</ele>
        <time>2022-04-17T15:38:46.000Z</time>
      </trkpt>
      <trkpt lat="42.96856521628797054290771484375" lon="-2.3734929598867893218994140625">
        <ele>945.5999755859375</ele>
        <time>2022-04-17T15:38:47.000Z</time>
      </trkpt>
      <trkpt lat="42.96856387518346309661865234375" lon="-2.37350913695991039276123046875">
        <ele>945.5999755859375</ele>
        <time>2022-04-17T15:38:48.000Z</time>
      </trkpt>
      <trkpt lat="42.968567311763763427734375" lon="-2.37352707423269748687744140625">
        <ele>945.5999755859375</ele>
        <time>2022-04-17T15:38:49.000Z</time>
      </trkpt>
      <trkpt lat="42.968572340905666351318359375" lon="-2.37353830598294734954833984375">
        <ele>945.4000244140625</ele>
        <time>2022-04-17T15:38:50.000Z</time>
      </trkpt>
      <trkpt lat="42.96857929788529872894287109375" lon="-2.3735459335148334503173828125">
        <ele>945.4000244140625</ele>
        <time>2022-04-17T15:38:51.000Z</time>
      </trkpt>
      <trkpt lat="42.9685835726559162139892578125" lon="-2.3735472746193408966064453125">
        <ele>945.4000244140625</ele>
        <time>2022-04-17T15:38:52.000Z</time>
      </trkpt>
      <trkpt lat="42.9685902781784534454345703125" lon="-2.37355926074087619781494140625">
        <ele>945.20001220703125</ele>
        <time>2022-04-17T15:38:53.000Z</time>
      </trkpt>
      <trkpt lat="42.9685979895293712615966796875" lon="-2.37356831319630146026611328125">
        <ele>945.20001220703125</ele>
        <time>2022-04-17T15:38:54.000Z</time>
      </trkpt>
      <trkpt lat="42.9686043597757816314697265625" lon="-2.37357728183269500732421875">
        <ele>945</ele>
        <time>2022-04-17T15:38:55.000Z</time>
      </trkpt>
      <trkpt lat="42.96861114911735057830810546875" lon="-2.37358105368912220001220703125">
        <ele>944.79998779296875</ele>
        <time>2022-04-17T15:38:56.000Z</time>
      </trkpt>
      <trkpt lat="42.96862305141985416412353515625" lon="-2.3735881783068180084228515625">
        <ele>944.79998779296875</ele>
        <time>2022-04-17T15:38:57.000Z</time>
      </trkpt>
      <trkpt lat="42.9686368815600872039794921875" lon="-2.373599074780941009521484375">
        <ele>944.79998779296875</ele>
        <time>2022-04-17T15:38:58.000Z</time>
      </trkpt>
      <trkpt lat="42.96865247189998626708984375" lon="-2.373617179691791534423828125">
        <ele>944.5999755859375</ele>
        <time>2022-04-17T15:38:59.000Z</time>
      </trkpt>
      <trkpt lat="42.96865590848028659820556640625" lon="-2.37364006228744983673095703125">
        <ele>944.4000244140625</ele>
        <time>2022-04-17T15:39:00.000Z</time>
      </trkpt>
      <trkpt lat="42.9686580039560794830322265625" lon="-2.3736545629799365997314453125">
        <ele>944.4000244140625</ele>
        <time>2022-04-17T15:39:01.000Z</time>
      </trkpt>
      <trkpt lat="42.9686663858592510223388671875" lon="-2.373671494424343109130859375">
        <ele>944.20001220703125</ele>
        <time>2022-04-17T15:39:02.000Z</time>
      </trkpt>
      <trkpt lat="42.96867753379046916961669921875" lon="-2.37368515692651271820068359375">
        <ele>944.20001220703125</ele>
        <time>2022-04-17T15:39:03.000Z</time>
      </trkpt>
      <trkpt lat="42.9686891846358776092529296875" lon="-2.37369538284838199615478515625">
        <ele>944.20001220703125</ele>
        <time>2022-04-17T15:39:04.000Z</time>
      </trkpt>
      <trkpt lat="42.9686938785016536712646484375" lon="-2.373707033693790435791015625">
        <ele>944</ele>
        <time>2022-04-17T15:39:05.000Z</time>
      </trkpt>
      <trkpt lat="42.96869563870131969451904296875" lon="-2.373715080320835113525390625">
        <ele>944</ele>
        <time>2022-04-17T15:39:06.000Z</time>
      </trkpt>
      <trkpt lat="42.96869614161550998687744140625" lon="-2.37372069619596004486083984375">
        <ele>943.79998779296875</ele>
        <time>2022-04-17T15:39:07.000Z</time>
      </trkpt>
      <trkpt lat="42.9686958901584148406982421875" lon="-2.37371918745338916778564453125">
        <ele>943.79998779296875</ele>
        <time>2022-04-17T15:39:08.000Z</time>
      </trkpt>
      <trkpt lat="42.968696393072605133056640625" lon="-2.37372480332851409912109375">
        <ele>943.5999755859375</ele>
        <time>2022-04-17T15:39:09.000Z</time>
      </trkpt>
      <trkpt lat="42.96869530342519283294677734375" lon="-2.37372974865138530731201171875">
        <ele>943.5999755859375</ele>
        <time>2022-04-17T15:39:10.000Z</time>
      </trkpt>
      <trkpt lat="42.96870150603353977203369140625" lon="-2.37373963929712772369384765625">
        <ele>943.5999755859375</ele>
        <time>2022-04-17T15:39:11.000Z</time>
      </trkpt>
      <trkpt lat="42.9687116481363773345947265625" lon="-2.37375070340931415557861328125">
        <ele>943.5999755859375</ele>
        <time>2022-04-17T15:39:12.000Z</time>
      </trkpt>
      <trkpt lat="42.968721203505992889404296875" lon="-2.37376864068210124969482421875">
        <ele>943.4000244140625</ele>
        <time>2022-04-17T15:39:13.000Z</time>
      </trkpt>
      <trkpt lat="42.9687284119427204132080078125" lon="-2.37378590740263462066650390625">
        <ele>943.20001220703125</ele>
        <time>2022-04-17T15:39:14.000Z</time>
      </trkpt>
      <trkpt lat="42.96873302198946475982666015625" lon="-2.3738051019608974456787109375">
        <ele>943.20001220703125</ele>
        <time>2022-04-17T15:39:15.000Z</time>
      </trkpt>
      <trkpt lat="42.96873520128428936004638671875" lon="-2.37381541170179843902587890625">
        <ele>943</ele>
        <time>2022-04-17T15:39:16.000Z</time>
      </trkpt>
      <trkpt lat="42.96873888932168483734130859375" lon="-2.37382136285305023193359375">
        <ele>942.79998779296875</ele>
        <time>2022-04-17T15:39:17.000Z</time>
      </trkpt>
      <trkpt lat="42.968744002282619476318359375" lon="-2.37383150495588779449462890625">
        <ele>942.5999755859375</ele>
        <time>2022-04-17T15:39:18.000Z</time>
      </trkpt>
      <trkpt lat="42.96874760650098323822021484375" lon="-2.37384608946740627288818359375">
        <ele>942.20001220703125</ele>
        <time>2022-04-17T15:39:19.000Z</time>
      </trkpt>
      <trkpt lat="42.96875028870999813079833984375" lon="-2.3738574050366878509521484375">
        <ele>942</ele>
        <time>2022-04-17T15:39:20.000Z</time>
      </trkpt>
      <trkpt lat="42.96875062398612499237060546875" lon="-2.3738681338727474212646484375">
        <ele>941.79998779296875</ele>
        <time>2022-04-17T15:39:21.000Z</time>
      </trkpt>
      <trkpt lat="42.96874576248228549957275390625" lon="-2.37387592904269695281982421875">
        <ele>941.5999755859375</ele>
        <time>2022-04-17T15:39:22.000Z</time>
      </trkpt>
      <trkpt lat="42.96874928288161754608154296875" lon="-2.3738808743655681610107421875">
        <ele>941.4000244140625</ele>
        <time>2022-04-17T15:39:23.000Z</time>
      </trkpt>
      <trkpt lat="42.96875347383320331573486328125" lon="-2.3738889209926128387451171875">
        <ele>941.4000244140625</ele>
        <time>2022-04-17T15:39:24.000Z</time>
      </trkpt>
      <trkpt lat="42.9687548987567424774169921875" lon="-2.37390526570379734039306640625">
        <ele>941.20001220703125</ele>
        <time>2022-04-17T15:39:25.000Z</time>
      </trkpt>
      <trkpt lat="42.96875732950866222381591796875" lon="-2.37391917966306209564208984375">
        <ele>941.20001220703125</ele>
        <time>2022-04-17T15:39:26.000Z</time>
      </trkpt>
      <trkpt lat="42.96876034699380397796630859375" lon="-2.3739204369485378265380859375">
        <ele>941</ele>
        <time>2022-04-17T15:39:27.000Z</time>
      </trkpt>
      <trkpt lat="42.9687642864882946014404296875" lon="-2.37392471171915531158447265625">
        <ele>941</ele>
        <time>2022-04-17T15:39:28.000Z</time>
      </trkpt>
      <trkpt lat="42.96876923181116580963134765625" lon="-2.373930998146533966064453125">
        <ele>940.79998779296875</ele>
        <time>2022-04-17T15:39:29.000Z</time>
      </trkpt>
      <trkpt lat="42.96877224929630756378173828125" lon="-2.3739378713071346282958984375">
        <ele>940.79998779296875</ele>
        <time>2022-04-17T15:39:30.000Z</time>
      </trkpt>
      <trkpt lat="42.96877727843821048736572265625" lon="-2.37394482828676700592041015625">
        <ele>940.79998779296875</ele>
        <time>2022-04-17T15:39:31.000Z</time>
      </trkpt>
      <trkpt lat="42.96878524124622344970703125" lon="-2.37395471893250942230224609375">
        <ele>940.5999755859375</ele>
        <time>2022-04-17T15:39:32.000Z</time>
      </trkpt>
      <trkpt lat="42.968794964253902435302734375" lon="-2.373963855206966400146484375">
        <ele>940.4000244140625</ele>
        <time>2022-04-17T15:39:33.000Z</time>
      </trkpt>
      <trkpt lat="42.9687974788248538970947265625" lon="-2.3739700578153133392333984375">
        <ele>940.20001220703125</ele>
        <time>2022-04-17T15:39:34.000Z</time>
      </trkpt>
      <trkpt lat="42.96879957430064678192138671875" lon="-2.37397902645170688629150390625">
        <ele>940.20001220703125</ele>
        <time>2022-04-17T15:39:35.000Z</time>
      </trkpt>
      <trkpt lat="42.9688020050525665283203125" lon="-2.37398807890713214874267578125">
        <ele>940</ele>
        <time>2022-04-17T15:39:36.000Z</time>
      </trkpt>
      <trkpt lat="42.96880795620381832122802734375" lon="-2.3739978857338428497314453125">
        <ele>940</ele>
        <time>2022-04-17T15:39:37.000Z</time>
      </trkpt>
      <trkpt lat="42.9688135720789432525634765625" lon="-2.3740146495401859283447265625">
        <ele>939.79998779296875</ele>
        <time>2022-04-17T15:39:38.000Z</time>
      </trkpt>
      <trkpt lat="42.96881315298378467559814453125" lon="-2.3740230314433574676513671875">
        <ele>939.79998779296875</ele>
        <time>2022-04-17T15:39:39.000Z</time>
      </trkpt>
      <trkpt lat="42.9688145779073238372802734375" lon="-2.37403350882232189178466796875">
        <ele>939.5999755859375</ele>
        <time>2022-04-17T15:39:40.000Z</time>
      </trkpt>
      <trkpt lat="42.96881902031600475311279296875" lon="-2.3740377835929393768310546875">
        <ele>939.4000244140625</ele>
        <time>2022-04-17T15:39:41.000Z</time>
      </trkpt>
      <trkpt lat="42.96882203780114650726318359375" lon="-2.37404189072549343109130859375">
        <ele>939.20001220703125</ele>
        <time>2022-04-17T15:39:42.000Z</time>
      </trkpt>
      <trkpt lat="42.96883083879947662353515625" lon="-2.37406049855053424835205078125">
        <ele>939.20001220703125</ele>
        <time>2022-04-17T15:39:43.000Z</time>
      </trkpt>
      <trkpt lat="42.96884533949196338653564453125" lon="-2.37407759763300418853759765625">
        <ele>939.20001220703125</ele>
        <time>2022-04-17T15:39:44.000Z</time>
      </trkpt>
      <trkpt lat="42.96886025927960872650146484375" lon="-2.37408799119293689727783203125">
        <ele>939</ele>
        <time>2022-04-17T15:39:45.000Z</time>
      </trkpt>
      <trkpt lat="42.96886612661182880401611328125" lon="-2.37409218214452266693115234375">
        <ele>939</ele>
        <time>2022-04-17T15:39:46.000Z</time>
      </trkpt>
      <trkpt lat="42.9688712395727634429931640625" lon="-2.37409285269677639007568359375">
        <ele>938.79998779296875</ele>
        <time>2022-04-17T15:39:47.000Z</time>
      </trkpt>
      <trkpt lat="42.968874759972095489501953125" lon="-2.37409302033483982086181640625">
        <ele>938.79998779296875</ele>
        <time>2022-04-17T15:39:48.000Z</time>
      </trkpt>
      <trkpt lat="42.9688809625804424285888671875" lon="-2.3740961216390132904052734375">
        <ele>938.79998779296875</ele>
        <time>2022-04-17T15:39:49.000Z</time>
      </trkpt>
      <trkpt lat="42.96888984739780426025390625" lon="-2.3741024918854236602783203125">
        <ele>938.5999755859375</ele>
        <time>2022-04-17T15:39:50.000Z</time>
      </trkpt>
      <trkpt lat="42.9688916914165019989013671875" lon="-2.3741105385124683380126953125">
        <ele>938.5999755859375</ele>
        <time>2022-04-17T15:39:51.000Z</time>
      </trkpt>
      <trkpt lat="42.96889311634004116058349609375" lon="-2.3741157352924346923828125">
        <ele>938.5999755859375</ele>
        <time>2022-04-17T15:39:52.000Z</time>
      </trkpt>
      <trkpt lat="42.9688940383493900299072265625" lon="-2.37412285991013050079345703125">
        <ele>938.5999755859375</ele>
        <time>2022-04-17T15:39:53.000Z</time>
      </trkpt>
      <trkpt lat="42.96889781020581722259521484375" lon="-2.37412788905203342437744140625">
        <ele>938.4000244140625</ele>
        <time>2022-04-17T15:39:54.000Z</time>
      </trkpt>
      <trkpt lat="42.9689010791480541229248046875" lon="-2.37413409166038036346435546875">
        <ele>938.20001220703125</ele>
        <time>2022-04-17T15:39:55.000Z</time>
      </trkpt>
      <trkpt lat="42.96890233643352985382080078125" lon="-2.37414750270545482635498046875">
        <ele>938</ele>
        <time>2022-04-17T15:39:56.000Z</time>
      </trkpt>
      <trkpt lat="42.968904934823513031005859375" lon="-2.37416158430278301239013671875">
        <ele>937.5999755859375</ele>
        <time>2022-04-17T15:39:57.000Z</time>
      </trkpt>
      <trkpt lat="42.9689074493944644927978515625" lon="-2.37417331896722316741943359375">
        <ele>937.4000244140625</ele>
        <time>2022-04-17T15:39:58.000Z</time>
      </trkpt>
      <trkpt lat="42.96891323290765285491943359375" lon="-2.37418572418391704559326171875">
        <ele>937.20001220703125</ele>
        <time>2022-04-17T15:39:59.000Z</time>
      </trkpt>
      <trkpt lat="42.96891708858311176300048828125" lon="-2.37419812940061092376708984375">
        <ele>937</ele>
        <time>2022-04-17T15:40:00.000Z</time>
      </trkpt>
      <trkpt lat="42.96892471611499786376953125" lon="-2.3742134682834148406982421875">
        <ele>936.79998779296875</ele>
        <time>2022-04-17T15:40:01.000Z</time>
      </trkpt>
      <trkpt lat="42.9689295776188373565673828125" lon="-2.3742310702800750732421875">
        <ele>936.5999755859375</ele>
        <time>2022-04-17T15:40:02.000Z</time>
      </trkpt>
      <trkpt lat="42.96893686987459659576416015625" lon="-2.3742389492690563201904296875">
        <ele>936.5999755859375</ele>
        <time>2022-04-17T15:40:03.000Z</time>
      </trkpt>
      <trkpt lat="42.96894508413970470428466796875" lon="-2.3742530308663845062255859375">
        <ele>936.4000244140625</ele>
        <time>2022-04-17T15:40:04.000Z</time>
      </trkpt>
      <trkpt lat="42.9689503647387027740478515625" lon="-2.374267615377902984619140625">
        <ele>936.4000244140625</ele>
        <time>2022-04-17T15:40:05.000Z</time>
      </trkpt>
      <trkpt lat="42.9689533822238445281982421875" lon="-2.37428295426070690155029296875">
        <ele>936.20001220703125</ele>
        <time>2022-04-17T15:40:06.000Z</time>
      </trkpt>
      <trkpt lat="42.96895547769963741302490234375" lon="-2.37429988570511341094970703125">
        <ele>935.79998779296875</ele>
        <time>2022-04-17T15:40:07.000Z</time>
      </trkpt>
      <trkpt lat="42.96895380131900310516357421875" lon="-2.3743142187595367431640625">
        <ele>935.79998779296875</ele>
        <time>2022-04-17T15:40:08.000Z</time>
      </trkpt>
      <trkpt lat="42.96895497478544712066650390625" lon="-2.3743284679949283599853515625">
        <ele>935.5999755859375</ele>
        <time>2022-04-17T15:40:09.000Z</time>
      </trkpt>
      <trkpt lat="42.968959249556064605712890625" lon="-2.37434699200093746185302734375">
        <ele>935.20001220703125</ele>
        <time>2022-04-17T15:40:10.000Z</time>
      </trkpt>
      <trkpt lat="42.968966960906982421875" lon="-2.3743593133985996246337890625">
        <ele>935</ele>
        <time>2022-04-17T15:40:11.000Z</time>
      </trkpt>
      <trkpt lat="42.968967296183109283447265625" lon="-2.374376915395259857177734375">
        <ele>934.79998779296875</ele>
        <time>2022-04-17T15:40:12.000Z</time>
      </trkpt>
      <trkpt lat="42.96896872110664844512939453125" lon="-2.37438102252781391143798828125">
        <ele>934.5999755859375</ele>
        <time>2022-04-17T15:40:13.000Z</time>
      </trkpt>
      <trkpt lat="42.96897291205823421478271484375" lon="-2.3743871413171291351318359375">
        <ele>934.4000244140625</ele>
        <time>2022-04-17T15:40:14.000Z</time>
      </trkpt>
      <trkpt lat="42.96897643245756626129150390625" lon="-2.3744008876383304595947265625">
        <ele>934.20001220703125</ele>
        <time>2022-04-17T15:40:15.000Z</time>
      </trkpt>
      <trkpt lat="42.9689859040081501007080078125" lon="-2.3744156397879123687744140625">
        <ele>934</ele>
        <time>2022-04-17T15:40:16.000Z</time>
      </trkpt>
      <trkpt lat="42.9689892567694187164306640625" lon="-2.37442712299525737762451171875">
        <ele>934</ele>
        <time>2022-04-17T15:40:17.000Z</time>
      </trkpt>
      <trkpt lat="42.96899654902517795562744140625" lon="-2.37443869002163410186767578125">
        <ele>933.79998779296875</ele>
        <time>2022-04-17T15:40:18.000Z</time>
      </trkpt>
      <trkpt lat="42.96900593675673007965087890625" lon="-2.3744535259902477264404296875">
        <ele>933.5999755859375</ele>
        <time>2022-04-17T15:40:19.000Z</time>
      </trkpt>
      <trkpt lat="42.96901431865990161895751953125" lon="-2.3744602315127849578857421875">
        <ele>933.4000244140625</ele>
        <time>2022-04-17T15:40:20.000Z</time>
      </trkpt>
      <trkpt lat="42.9690219461917877197265625" lon="-2.37446802668273448944091796875">
        <ele>933.20001220703125</ele>
        <time>2022-04-17T15:40:21.000Z</time>
      </trkpt>
      <trkpt lat="42.96902471221983432769775390625" lon="-2.37447573803365230560302734375">
        <ele>933</ele>
        <time>2022-04-17T15:40:22.000Z</time>
      </trkpt>
      <trkpt lat="42.96902772970497608184814453125" lon="-2.37448386847972869873046875">
        <ele>932.79998779296875</ele>
        <time>2022-04-17T15:40:23.000Z</time>
      </trkpt>
      <trkpt lat="42.9690325073897838592529296875" lon="-2.3745028115808963775634765625">
        <ele>932.79998779296875</ele>
        <time>2022-04-17T15:40:24.000Z</time>
      </trkpt>
      <trkpt lat="42.96903694979846477508544921875" lon="-2.3745155520737171173095703125">
        <ele>932.5999755859375</ele>
        <time>2022-04-17T15:40:25.000Z</time>
      </trkpt>
      <trkpt lat="42.96904549933969974517822265625" lon="-2.37452820874750614166259765625">
        <ele>932.5999755859375</ele>
        <time>2022-04-17T15:40:26.000Z</time>
      </trkpt>
      <trkpt lat="42.9690529592335224151611328125" lon="-2.3745343275368213653564453125">
        <ele>932.4000244140625</ele>
        <time>2022-04-17T15:40:27.000Z</time>
      </trkpt>
      <trkpt lat="42.969061173498630523681640625" lon="-2.3745395243167877197265625">
        <ele>932</ele>
        <time>2022-04-17T15:40:28.000Z</time>
      </trkpt>
      <trkpt lat="42.9690757580101490020751953125" lon="-2.3745507560670375823974609375">
        <ele>932</ele>
        <time>2022-04-17T15:40:29.000Z</time>
      </trkpt>
      <trkpt lat="42.969090007245540618896484375" lon="-2.37457112409174442291259765625">
        <ele>931.79998779296875</ele>
        <time>2022-04-17T15:40:30.000Z</time>
      </trkpt>
      <trkpt lat="42.96909495256841182708740234375" lon="-2.374583445489406585693359375">
        <ele>931.5999755859375</ele>
        <time>2022-04-17T15:40:31.000Z</time>
      </trkpt>
      <trkpt lat="42.96910081990063190460205078125" lon="-2.37459761090576648712158203125">
        <ele>931.4000244140625</ele>
        <time>2022-04-17T15:40:32.000Z</time>
      </trkpt>
      <trkpt lat="42.96910216100513935089111328125" lon="-2.37461051903665065765380859375">
        <ele>931.20001220703125</ele>
        <time>2022-04-17T15:40:33.000Z</time>
      </trkpt>
      <trkpt lat="42.96910953707993030548095703125" lon="-2.3746245168149471282958984375">
        <ele>931.20001220703125</ele>
        <time>2022-04-17T15:40:34.000Z</time>
      </trkpt>
      <trkpt lat="42.96911791898310184478759765625" lon="-2.37464119680225849151611328125">
        <ele>930.79998779296875</ele>
        <time>2022-04-17T15:40:35.000Z</time>
      </trkpt>
      <trkpt lat="42.969121523201465606689453125" lon="-2.37464345991611480712890625">
        <ele>930.5999755859375</ele>
        <time>2022-04-17T15:40:36.000Z</time>
      </trkpt>
      <trkpt lat="42.96913116239011287689208984375" lon="-2.374657206237316131591796875">
        <ele>930.20001220703125</ele>
        <time>2022-04-17T15:40:37.000Z</time>
      </trkpt>
      <trkpt lat="42.9691424779593944549560546875" lon="-2.374669946730136871337890625">
        <ele>930</ele>
        <time>2022-04-17T15:40:38.000Z</time>
      </trkpt>
      <trkpt lat="42.96914071775972843170166015625" lon="-2.374682016670703887939453125">
        <ele>929.79998779296875</ele>
        <time>2022-04-17T15:40:39.000Z</time>
      </trkpt>
      <trkpt lat="42.96914289705455303192138671875" lon="-2.37469517625868320465087890625">
        <ele>929.5999755859375</ele>
        <time>2022-04-17T15:40:40.000Z</time>
      </trkpt>
      <trkpt lat="42.96914909966289997100830078125" lon="-2.374697439372539520263671875">
        <ele>929.4000244140625</ele>
        <time>2022-04-17T15:40:41.000Z</time>
      </trkpt>
      <trkpt lat="42.9691538773477077484130859375" lon="-2.37469836138188838958740234375">
        <ele>929.4000244140625</ele>
        <time>2022-04-17T15:40:42.000Z</time>
      </trkpt>
      <trkpt lat="42.96915949322283267974853515625" lon="-2.374705485999584197998046875">
        <ele>929.20001220703125</ele>
        <time>2022-04-17T15:40:43.000Z</time>
      </trkpt>
      <trkpt lat="42.9691636003553867340087890625" lon="-2.37471261061728000640869140625">
        <ele>929</ele>
        <time>2022-04-17T15:40:44.000Z</time>
      </trkpt>
      <trkpt lat="42.96916837804019451141357421875" lon="-2.37472057342529296875">
        <ele>928.79998779296875</ele>
        <time>2022-04-17T15:40:45.000Z</time>
      </trkpt>
      <trkpt lat="42.969175837934017181396484375" lon="-2.37473976798355579376220703125">
        <ele>928.79998779296875</ele>
        <time>2022-04-17T15:40:46.000Z</time>
      </trkpt>
      <trkpt lat="42.9691830463707447052001953125" lon="-2.37475552596151828765869140625">
        <ele>928.79998779296875</ele>
        <time>2022-04-17T15:40:47.000Z</time>
      </trkpt>
      <trkpt lat="42.96918631531298160552978515625" lon="-2.37476256676018238067626953125">
        <ele>928.79998779296875</ele>
        <time>2022-04-17T15:40:48.000Z</time>
      </trkpt>
      <trkpt lat="42.9691887460649013519287109375" lon="-2.37476826645433902740478515625">
        <ele>928.4000244140625</ele>
        <time>2022-04-17T15:40:49.000Z</time>
      </trkpt>
      <trkpt lat="42.96919503249228000640869140625" lon="-2.37477815710008144378662109375">
        <ele>928.4000244140625</ele>
        <time>2022-04-17T15:40:50.000Z</time>
      </trkpt>
      <trkpt lat="42.9691967926919460296630859375" lon="-2.3747951723635196685791015625">
        <ele>928.20001220703125</ele>
        <time>2022-04-17T15:40:51.000Z</time>
      </trkpt>
      <trkpt lat="42.9691954515874385833740234375" lon="-2.3748092539608478546142578125">
        <ele>928</ele>
        <time>2022-04-17T15:40:52.000Z</time>
      </trkpt>
      <trkpt lat="42.969200648367404937744140625" lon="-2.37482341937720775604248046875">
        <ele>927.79998779296875</ele>
        <time>2022-04-17T15:40:53.000Z</time>
      </trkpt>
      <trkpt lat="42.96920978464186191558837890625" lon="-2.3748300410807132720947265625">
        <ele>927.4000244140625</ele>
        <time>2022-04-17T15:40:54.000Z</time>
      </trkpt>
      <trkpt lat="42.9692185856401920318603515625" lon="-2.3748293705284595489501953125">
        <ele>927.20001220703125</ele>
        <time>2022-04-17T15:40:55.000Z</time>
      </trkpt>
      <trkpt lat="42.96922554261982440948486328125" lon="-2.37483389675617218017578125">
        <ele>927</ele>
        <time>2022-04-17T15:40:56.000Z</time>
      </trkpt>
      <trkpt lat="42.969229482114315032958984375" lon="-2.37484856508672237396240234375">
        <ele>926.79998779296875</ele>
        <time>2022-04-17T15:40:57.000Z</time>
      </trkpt>
      <trkpt lat="42.96922671608626842498779296875" lon="-2.3748645745217800140380859375">
        <ele>926.79998779296875</ele>
        <time>2022-04-17T15:40:58.000Z</time>
      </trkpt>
      <trkpt lat="42.96923182904720306396484375" lon="-2.3748753033578395843505859375">
        <ele>926.5999755859375</ele>
        <time>2022-04-17T15:40:59.000Z</time>
      </trkpt>
      <trkpt lat="42.96923526562750339508056640625" lon="-2.3748850263655185699462890625">
        <ele>926.4000244140625</ele>
        <time>2022-04-17T15:41:00.000Z</time>
      </trkpt>
      <trkpt lat="42.9692376963794231414794921875" lon="-2.3748910613358020782470703125">
        <ele>926.4000244140625</ele>
        <time>2022-04-17T15:41:01.000Z</time>
      </trkpt>
      <trkpt lat="42.9692433960735797882080078125" lon="-2.37489852122962474822998046875">
        <ele>926.20001220703125</ele>
        <time>2022-04-17T15:41:02.000Z</time>
      </trkpt>
      <trkpt lat="42.969245575368404388427734375" lon="-2.37490807659924030303955078125">
        <ele>926</ele>
        <time>2022-04-17T15:41:03.000Z</time>
      </trkpt>
      <trkpt lat="42.96924448572099208831787109375" lon="-2.37491838634014129638671875">
        <ele>925.79998779296875</ele>
        <time>2022-04-17T15:41:04.000Z</time>
      </trkpt>
      <trkpt lat="42.96924113295972347259521484375" lon="-2.37492936663329601287841796875">
        <ele>925.5999755859375</ele>
        <time>2022-04-17T15:41:05.000Z</time>
      </trkpt>
      <trkpt lat="42.96923828311264514923095703125" lon="-2.3749433644115924835205078125">
        <ele>925.4000244140625</ele>
        <time>2022-04-17T15:41:06.000Z</time>
      </trkpt>
      <trkpt lat="42.96923425979912281036376953125" lon="-2.3749520815908908843994140625">
        <ele>925.20001220703125</ele>
        <time>2022-04-17T15:41:07.000Z</time>
      </trkpt>
      <trkpt lat="42.9692353494465351104736328125" lon="-2.3749606311321258544921875">
        <ele>924.79998779296875</ele>
        <time>2022-04-17T15:41:08.000Z</time>
      </trkpt>
      <trkpt lat="42.9692392051219940185546875" lon="-2.37496775574982166290283203125">
        <ele>924.5999755859375</ele>
        <time>2022-04-17T15:41:09.000Z</time>
      </trkpt>
      <trkpt lat="42.96924280934035778045654296875" lon="-2.37497999332845211029052734375">
        <ele>924.5999755859375</ele>
        <time>2022-04-17T15:41:10.000Z</time>
      </trkpt>
      <trkpt lat="42.96924515627324581146240234375" lon="-2.3749820888042449951171875">
        <ele>924.4000244140625</ele>
        <time>2022-04-17T15:41:11.000Z</time>
      </trkpt>
      <trkpt lat="42.969252951443195343017578125" lon="-2.37499072216451168060302734375">
        <ele>924.20001220703125</ele>
        <time>2022-04-17T15:41:12.000Z</time>
      </trkpt>
      <trkpt lat="42.96925705857574939727783203125" lon="-2.3749933205544948577880859375">
        <ele>924</ele>
        <time>2022-04-17T15:41:13.000Z</time>
      </trkpt>
      <trkpt lat="42.96926476992666721343994140625" lon="-2.37500128336250782012939453125">
        <ele>924</ele>
        <time>2022-04-17T15:41:14.000Z</time>
      </trkpt>
      <trkpt lat="42.969267033040523529052734375" lon="-2.37500153481960296630859375">
        <ele>923.79998779296875</ele>
        <time>2022-04-17T15:41:15.000Z</time>
      </trkpt>
      <trkpt lat="42.9692692123353481292724609375" lon="-2.37500329501926898956298828125">
        <ele>923.79998779296875</ele>
        <time>2022-04-17T15:41:16.000Z</time>
      </trkpt>
      <trkpt lat="42.96927616931498050689697265625" lon="-2.37500832416117191314697265625">
        <ele>923.79998779296875</ele>
        <time>2022-04-17T15:41:17.000Z</time>
      </trkpt>
      <trkpt lat="42.96928170137107372283935546875" lon="-2.3750114254653453826904296875">
        <ele>923.5999755859375</ele>
        <time>2022-04-17T15:41:18.000Z</time>
      </trkpt>
      <trkpt lat="42.969284467399120330810546875" lon="-2.37502022646367549896240234375">
        <ele>923.5999755859375</ele>
        <time>2022-04-17T15:41:19.000Z</time>
      </trkpt>
      <trkpt lat="42.96928689815104007720947265625" lon="-2.3750265128910541534423828125">
        <ele>923.5999755859375</ele>
        <time>2022-04-17T15:41:20.000Z</time>
      </trkpt>
      <trkpt lat="42.96929142437875270843505859375" lon="-2.37503464333713054656982421875">
        <ele>923.5999755859375</ele>
        <time>2022-04-17T15:41:21.000Z</time>
      </trkpt>
      <trkpt lat="42.96929930336773395538330078125" lon="-2.37504319287836551666259765625">
        <ele>923.4000244140625</ele>
        <time>2022-04-17T15:41:22.000Z</time>
      </trkpt>
      <trkpt lat="42.96931187622249126434326171875" lon="-2.3750491440296173095703125">
        <ele>923.20001220703125</ele>
        <time>2022-04-17T15:41:23.000Z</time>
      </trkpt>
      <trkpt lat="42.969319336116313934326171875" lon="-2.3750580288469791412353515625">
        <ele>923</ele>
        <time>2022-04-17T15:41:24.000Z</time>
      </trkpt>
      <trkpt lat="42.96932998113334178924560546875" lon="-2.3750727809965610504150390625">
        <ele>923</ele>
        <time>2022-04-17T15:41:25.000Z</time>
      </trkpt>
      <trkpt lat="42.96933375298976898193359375" lon="-2.37507822923362255096435546875">
        <ele>922.79998779296875</ele>
        <time>2022-04-17T15:41:26.000Z</time>
      </trkpt>
      <trkpt lat="42.969338782131671905517578125" lon="-2.3750905506312847137451171875">
        <ele>922.5999755859375</ele>
        <time>2022-04-17T15:41:27.000Z</time>
      </trkpt>
      <trkpt lat="42.96933987177908420562744140625" lon="-2.375107146799564361572265625">
        <ele>922.5999755859375</ele>
        <time>2022-04-17T15:41:28.000Z</time>
      </trkpt>
      <trkpt lat="42.96934054233133792877197265625" lon="-2.37512298859655857086181640625">
        <ele>922.4000244140625</ele>
        <time>2022-04-17T15:41:29.000Z</time>
      </trkpt>
      <trkpt lat="42.96934758313000202178955078125" lon="-2.3751378245651721954345703125">
        <ele>922.4000244140625</ele>
        <time>2022-04-17T15:41:30.000Z</time>
      </trkpt>
      <trkpt lat="42.9693543724715709686279296875" lon="-2.37514796666800975799560546875">
        <ele>922.4000244140625</ele>
        <time>2022-04-17T15:41:31.000Z</time>
      </trkpt>
      <trkpt lat="42.9693624190986156463623046875" lon="-2.37515266053378582000732421875">
        <ele>922.20001220703125</ele>
        <time>2022-04-17T15:41:32.000Z</time>
      </trkpt>
      <trkpt lat="42.96936593949794769287109375" lon="-2.37515768967568874359130859375">
        <ele>922.20001220703125</ele>
        <time>2022-04-17T15:41:33.000Z</time>
      </trkpt>
      <trkpt lat="42.96937239356338977813720703125" lon="-2.37517193891108036041259765625">
        <ele>922.20001220703125</ele>
        <time>2022-04-17T15:41:34.000Z</time>
      </trkpt>
      <trkpt lat="42.9693768359720706939697265625" lon="-2.37518727779388427734375">
        <ele>922</ele>
        <time>2022-04-17T15:41:35.000Z</time>
      </trkpt>
      <trkpt lat="42.96939049847424030303955078125" lon="-2.37519540823996067047119140625">
        <ele>922</ele>
        <time>2022-04-17T15:41:36.000Z</time>
      </trkpt>
      <trkpt lat="42.9694113694131374359130859375" lon="-2.37520429305732250213623046875">
        <ele>922</ele>
        <time>2022-04-17T15:41:37.000Z</time>
      </trkpt>
      <trkpt lat="42.96942536719143390655517578125" lon="-2.37521183677017688751220703125">
        <ele>922</ele>
        <time>2022-04-17T15:41:38.000Z</time>
      </trkpt>
      <trkpt lat="42.9694323241710662841796875" lon="-2.3752166144549846649169921875">
        <ele>922.20001220703125</ele>
        <time>2022-04-17T15:41:39.000Z</time>
      </trkpt>
      <trkpt lat="42.96943492256104946136474609375" lon="-2.3752239905297756195068359375">
        <ele>922.20001220703125</ele>
        <time>2022-04-17T15:41:40.000Z</time>
      </trkpt>
      <trkpt lat="42.969439364969730377197265625" lon="-2.37522273324429988861083984375">
        <ele>922.20001220703125</ele>
        <time>2022-04-17T15:41:41.000Z</time>
      </trkpt>
      <trkpt lat="42.96944716013967990875244140625" lon="-2.37522147595882415771484375">
        <ele>922.4000244140625</ele>
        <time>2022-04-17T15:41:42.000Z</time>
      </trkpt>
      <trkpt lat="42.96945503912866115570068359375" lon="-2.375216446816921234130859375">
        <ele>922.4000244140625</ele>
        <time>2022-04-17T15:41:43.000Z</time>
      </trkpt>
      <trkpt lat="42.969461493194103240966796875" lon="-2.3752149380743503570556640625">
        <ele>922.4000244140625</ele>
        <time>2022-04-17T15:41:44.000Z</time>
      </trkpt>
      <trkpt lat="42.969468533992767333984375" lon="-2.3752206377685070037841796875">
        <ele>922.20001220703125</ele>
        <time>2022-04-17T15:41:45.000Z</time>
      </trkpt>
      <trkpt lat="42.9694744013249874114990234375" lon="-2.37522591836750507354736328125">
        <ele>922.20001220703125</ele>
        <time>2022-04-17T15:41:46.000Z</time>
      </trkpt>
      <trkpt lat="42.96948135830461978912353515625" lon="-2.375233881175518035888671875">
        <ele>922</ele>
        <time>2022-04-17T15:41:47.000Z</time>
      </trkpt>
      <trkpt lat="42.969491668045520782470703125" lon="-2.3752434365451335906982421875">
        <ele>922</ele>
        <time>2022-04-17T15:41:48.000Z</time>
      </trkpt>
      <trkpt lat="42.9694982059299945831298828125" lon="-2.37525441683828830718994140625">
        <ele>922</ele>
        <time>2022-04-17T15:41:49.000Z</time>
      </trkpt>
      <trkpt lat="42.9695022292435169219970703125" lon="-2.375259362161159515380859375">
        <ele>922</ele>
        <time>2022-04-17T15:41:50.000Z</time>
      </trkpt>
      <trkpt lat="42.96950801275670528411865234375" lon="-2.37526548095047473907470703125">
        <ele>922</ele>
        <time>2022-04-17T15:41:51.000Z</time>
      </trkpt>
      <trkpt lat="42.969516813755035400390625" lon="-2.3752726055681705474853515625">
        <ele>922</ele>
        <time>2022-04-17T15:41:52.000Z</time>
      </trkpt>
      <trkpt lat="42.9695288836956024169921875" lon="-2.37527973018586635589599609375">
        <ele>922</ele>
        <time>2022-04-17T15:41:53.000Z</time>
      </trkpt>
      <trkpt lat="42.969536595046520233154296875" lon="-2.37528811208903789520263671875">
        <ele>922</ele>
        <time>2022-04-17T15:41:54.000Z</time>
      </trkpt>
      <trkpt lat="42.969541959464550018310546875" lon="-2.37529079429805278778076171875">
        <ele>922</ele>
        <time>2022-04-17T15:41:55.000Z</time>
      </trkpt>
      <trkpt lat="42.969550006091594696044921875" lon="-2.37529682926833629608154296875">
        <ele>922</ele>
        <time>2022-04-17T15:41:56.000Z</time>
      </trkpt>
      <trkpt lat="42.96956132166087627410888671875" lon="-2.37530286423861980438232421875">
        <ele>922.20001220703125</ele>
        <time>2022-04-17T15:41:57.000Z</time>
      </trkpt>
      <trkpt lat="42.969575487077236175537109375" lon="-2.37530571408569812774658203125">
        <ele>922.20001220703125</ele>
        <time>2022-04-17T15:41:58.000Z</time>
      </trkpt>
      <trkpt lat="42.969589568674564361572265625" lon="-2.37529850564897060394287109375">
        <ele>922.4000244140625</ele>
        <time>2022-04-17T15:41:59.000Z</time>
      </trkpt>
      <trkpt lat="42.96960197389125823974609375" lon="-2.37528861500322818756103515625">
        <ele>922.4000244140625</ele>
        <time>2022-04-17T15:42:00.000Z</time>
      </trkpt>
      <trkpt lat="42.969628460705280303955078125" lon="-2.37528056837618350982666015625">
        <ele>922.5999755859375</ele>
        <time>2022-04-17T15:42:01.000Z</time>
      </trkpt>
      <trkpt lat="42.96963726170361042022705078125" lon="-2.37527780234813690185546875">
        <ele>922.5999755859375</ele>
        <time>2022-04-17T15:42:02.000Z</time>
      </trkpt>
      <trkpt lat="42.969647906720638275146484375" lon="-2.3752880282700061798095703125">
        <ele>922.5999755859375</ele>
        <time>2022-04-17T15:42:03.000Z</time>
      </trkpt>
      <trkpt lat="42.9696524329483509063720703125" lon="-2.37529900856316089630126953125">
        <ele>922.5999755859375</ele>
        <time>2022-04-17T15:42:04.000Z</time>
      </trkpt>
      <trkpt lat="42.96966374851763248443603515625" lon="-2.375302612781524658203125">
        <ele>922.79998779296875</ele>
        <time>2022-04-17T15:42:05.000Z</time>
      </trkpt>
      <trkpt lat="42.96967095695436000823974609375" lon="-2.37531225197017192840576171875">
        <ele>922.79998779296875</ele>
        <time>2022-04-17T15:42:06.000Z</time>
      </trkpt>
      <trkpt lat="42.96968017704784870147705078125" lon="-2.37531811930239200592041015625">
        <ele>922.79998779296875</ele>
        <time>2022-04-17T15:42:07.000Z</time>
      </trkpt>
      <trkpt lat="42.96969006769359111785888671875" lon="-2.37532264553010463714599609375">
        <ele>922.5999755859375</ele>
        <time>2022-04-17T15:42:08.000Z</time>
      </trkpt>
      <trkpt lat="42.969704568386077880859375" lon="-2.37532800994813442230224609375">
        <ele>922.5999755859375</ele>
        <time>2022-04-17T15:42:09.000Z</time>
      </trkpt>
      <trkpt lat="42.9697188176214694976806640625" lon="-2.3753334581851959228515625">
        <ele>922.5999755859375</ele>
        <time>2022-04-17T15:42:10.000Z</time>
      </trkpt>
      <trkpt lat="42.96973164193332195281982421875" lon="-2.3753373138606548309326171875">
        <ele>922.5999755859375</ele>
        <time>2022-04-17T15:42:11.000Z</time>
      </trkpt>
      <trkpt lat="42.96974438242614269256591796875" lon="-2.37534309737384319305419921875">
        <ele>922.4000244140625</ele>
        <time>2022-04-17T15:42:12.000Z</time>
      </trkpt>
      <trkpt lat="42.9697583802044391632080078125" lon="-2.37534946762025356292724609375">
        <ele>922.20001220703125</ele>
        <time>2022-04-17T15:42:13.000Z</time>
      </trkpt>
      <trkpt lat="42.96976835466921329498291015625" lon="-2.375352568924427032470703125">
        <ele>922.20001220703125</ele>
        <time>2022-04-17T15:42:14.000Z</time>
      </trkpt>
      <trkpt lat="42.96977422200143337249755859375" lon="-2.3753549158573150634765625">
        <ele>922.20001220703125</ele>
        <time>2022-04-17T15:42:15.000Z</time>
      </trkpt>
      <trkpt lat="42.96978310681879520416259765625" lon="-2.3753574304282665252685546875">
        <ele>922</ele>
        <time>2022-04-17T15:42:16.000Z</time>
      </trkpt>
      <trkpt lat="42.96978897415101528167724609375" lon="-2.375361286103725433349609375">
        <ele>922</ele>
        <time>2022-04-17T15:42:17.000Z</time>
      </trkpt>
      <trkpt lat="42.9697966016829013824462890625" lon="-2.37536631524562835693359375">
        <ele>922</ele>
        <time>2022-04-17T15:42:18.000Z</time>
      </trkpt>
      <trkpt lat="42.96980489976704120635986328125" lon="-2.37537042237818241119384765625">
        <ele>921.79998779296875</ele>
        <time>2022-04-17T15:42:19.000Z</time>
      </trkpt>
      <trkpt lat="42.96981210820376873016357421875" lon="-2.3753750324249267578125">
        <ele>921.79998779296875</ele>
        <time>2022-04-17T15:42:20.000Z</time>
      </trkpt>
      <trkpt lat="42.96982116065919399261474609375" lon="-2.375379391014575958251953125">
        <ele>921.79998779296875</ele>
        <time>2022-04-17T15:42:21.000Z</time>
      </trkpt>
      <trkpt lat="42.96982996165752410888671875" lon="-2.375383079051971435546875">
        <ele>922</ele>
        <time>2022-04-17T15:42:22.000Z</time>
      </trkpt>
      <trkpt lat="42.96984060667455196380615234375" lon="-2.3753829114139080047607421875">
        <ele>922</ele>
        <time>2022-04-17T15:42:23.000Z</time>
      </trkpt>
      <trkpt lat="42.96985007822513580322265625" lon="-2.37537964247167110443115234375">
        <ele>922</ele>
        <time>2022-04-17T15:42:24.000Z</time>
      </trkpt>
      <trkpt lat="42.96986457891762256622314453125" lon="-2.375374026596546173095703125">
        <ele>922.20001220703125</ele>
        <time>2022-04-17T15:42:25.000Z</time>
      </trkpt>
      <trkpt lat="42.96987958252429962158203125" lon="-2.37536824308335781097412109375">
        <ele>922.20001220703125</ele>
        <time>2022-04-17T15:42:26.000Z</time>
      </trkpt>
      <trkpt lat="42.96988838352262973785400390625" lon="-2.37536874599754810333251953125">
        <ele>922.20001220703125</ele>
        <time>2022-04-17T15:42:27.000Z</time>
      </trkpt>
      <trkpt lat="42.9698968492448329925537109375" lon="-2.37536631524562835693359375">
        <ele>922.20001220703125</ele>
        <time>2022-04-17T15:42:28.000Z</time>
      </trkpt>
      <trkpt lat="42.9698998667299747467041015625" lon="-2.3753629624843597412109375">
        <ele>922.20001220703125</ele>
        <time>2022-04-17T15:42:29.000Z</time>
      </trkpt>
      <trkpt lat="42.96989726833999156951904296875" lon="-2.375363297760486602783203125">
        <ele>922.20001220703125</ele>
        <time>2022-04-17T15:42:30.000Z</time>
      </trkpt>
      <trkpt lat="42.96989710070192813873291015625" lon="-2.375366650521755218505859375">
        <ele>922.20001220703125</ele>
        <time>2022-04-17T15:42:31.000Z</time>
      </trkpt>
      <trkpt lat="42.96990129165351390838623046875" lon="-2.37537243403494358062744140625">
        <ele>922</ele>
        <time>2022-04-17T15:42:32.000Z</time>
      </trkpt>
      <trkpt lat="42.969911433756351470947265625" lon="-2.37537830136716365814208984375">
        <ele>922</ele>
        <time>2022-04-17T15:42:33.000Z</time>
      </trkpt>
      <trkpt lat="42.9699142836034297943115234375" lon="-2.37538534216582775115966796875">
        <ele>921.79998779296875</ele>
        <time>2022-04-17T15:42:34.000Z</time>
      </trkpt>
      <trkpt lat="42.96991906128823757171630859375" lon="-2.37538986839354038238525390625">
        <ele>921.79998779296875</ele>
        <time>2022-04-17T15:42:35.000Z</time>
      </trkpt>
      <trkpt lat="42.96992459334433078765869140625" lon="-2.3753922991454601287841796875">
        <ele>921.5999755859375</ele>
        <time>2022-04-17T15:42:36.000Z</time>
      </trkpt>
      <trkpt lat="42.96993054449558258056640625" lon="-2.37538651563227176666259765625">
        <ele>921.4000244140625</ele>
        <time>2022-04-17T15:42:37.000Z</time>
      </trkpt>
      <trkpt lat="42.96993297524750232696533203125" lon="-2.37538182176649570465087890625">
        <ele>921.4000244140625</ele>
        <time>2022-04-17T15:42:38.000Z</time>
      </trkpt>
      <trkpt lat="42.9699367471039295196533203125" lon="-2.37538081593811511993408203125">
        <ele>921.4000244140625</ele>
        <time>2022-04-17T15:42:39.000Z</time>
      </trkpt>
      <trkpt lat="42.9699427820742130279541015625" lon="-2.3753842525184154510498046875">
        <ele>921.4000244140625</ele>
        <time>2022-04-17T15:42:40.000Z</time>
      </trkpt>
      <trkpt lat="42.96994638629257678985595703125" lon="-2.3753872700035572052001953125">
        <ele>921.20001220703125</ele>
        <time>2022-04-17T15:42:41.000Z</time>
      </trkpt>
      <trkpt lat="42.9699498228728771209716796875" lon="-2.3753882758319377899169921875">
        <ele>921.20001220703125</ele>
        <time>2022-04-17T15:42:42.000Z</time>
      </trkpt>
      <trkpt lat="42.9699494875967502593994140625" lon="-2.37538852728903293609619140625">
        <ele>921.20001220703125</ele>
        <time>2022-04-17T15:42:43.000Z</time>
      </trkpt>
      <trkpt lat="42.96994990669190883636474609375" lon="-2.37538165412843227386474609375">
        <ele>921.20001220703125</ele>
        <time>2022-04-17T15:42:44.000Z</time>
      </trkpt>
      <trkpt lat="42.96996943652629852294921875" lon="-2.3753614537417888641357421875">
        <ele>921.4000244140625</ele>
        <time>2022-04-17T15:42:45.000Z</time>
      </trkpt>
      <trkpt lat="42.96997169964015483856201171875" lon="-2.37534745596349239349365234375">
        <ele>921.4000244140625</ele>
        <time>2022-04-17T15:42:46.000Z</time>
      </trkpt>
      <trkpt lat="42.9699843563139438629150390625" lon="-2.37533991225063800811767578125">
        <ele>921.4000244140625</ele>
        <time>2022-04-17T15:42:47.000Z</time>
      </trkpt>
      <trkpt lat="42.96999248676002025604248046875" lon="-2.37533278763294219970703125">
        <ele>921.4000244140625</ele>
        <time>2022-04-17T15:42:48.000Z</time>
      </trkpt>
      <trkpt lat="42.96999701298773288726806640625" lon="-2.37533588893711566925048828125">
        <ele>921.4000244140625</ele>
        <time>2022-04-17T15:42:49.000Z</time>
      </trkpt>
      <trkpt lat="42.97000304795801639556884765625" lon="-2.37534619867801666259765625">
        <ele>921.4000244140625</ele>
        <time>2022-04-17T15:42:50.000Z</time>
      </trkpt>
      <trkpt lat="42.97001075930893421173095703125" lon="-2.375353239476680755615234375">
        <ele>921.4000244140625</ele>
        <time>2022-04-17T15:42:51.000Z</time>
      </trkpt>
      <trkpt lat="42.97001528553664684295654296875" lon="-2.37535097636282444000244140625">
        <ele>921.4000244140625</ele>
        <time>2022-04-17T15:42:52.000Z</time>
      </trkpt>
      <trkpt lat="42.9700155369937419891357421875" lon="-2.37535248510539531707763671875">
        <ele>921.4000244140625</ele>
        <time>2022-04-17T15:42:53.000Z</time>
      </trkpt>
      <trkpt lat="42.97001712955534458160400390625" lon="-2.37535298801958560943603515625">
        <ele>921.4000244140625</ele>
        <time>2022-04-17T15:42:54.000Z</time>
      </trkpt>
      <trkpt lat="42.97001981176435947418212890625" lon="-2.37535600550472736358642578125">
        <ele>921.4000244140625</ele>
        <time>2022-04-17T15:42:55.000Z</time>
      </trkpt>
      <trkpt lat="42.970022745430469512939453125" lon="-2.37535533495247364044189453125">
        <ele>921.4000244140625</ele>
        <time>2022-04-17T15:42:56.000Z</time>
      </trkpt>
      <trkpt lat="42.97002752311527729034423828125" lon="-2.3753547482192516326904296875">
        <ele>921.4000244140625</ele>
        <time>2022-04-17T15:42:57.000Z</time>
      </trkpt>
      <trkpt lat="42.97003238461911678314208984375" lon="-2.375355251133441925048828125">
        <ele>921.4000244140625</ele>
        <time>2022-04-17T15:42:58.000Z</time>
      </trkpt>
      <trkpt lat="42.97003573738038539886474609375" lon="-2.3753557540476322174072265625">
        <ele>921.4000244140625</ele>
        <time>2022-04-17T15:42:59.000Z</time>
      </trkpt>
      <trkpt lat="42.970040850341320037841796875" lon="-2.37535483203828334808349609375">
        <ele>921.20001220703125</ele>
        <time>2022-04-17T15:43:00.000Z</time>
      </trkpt>
      <trkpt lat="42.9700500704348087310791015625" lon="-2.37535131163895130157470703125">
        <ele>921.20001220703125</ele>
        <time>2022-04-17T15:43:01.000Z</time>
      </trkpt>
      <trkpt lat="42.97005719505250453948974609375" lon="-2.3753359727561473846435546875">
        <ele>921.20001220703125</ele>
        <time>2022-04-17T15:43:02.000Z</time>
      </trkpt>
      <trkpt lat="42.97006289474666118621826171875" lon="-2.3753138445317745208740234375">
        <ele>921.20001220703125</ele>
        <time>2022-04-17T15:43:03.000Z</time>
      </trkpt>
      <trkpt lat="42.97007270157337188720703125" lon="-2.375311665236949920654296875">
        <ele>921.20001220703125</ele>
        <time>2022-04-17T15:43:04.000Z</time>
      </trkpt>
      <trkpt lat="42.97006892971694469451904296875" lon="-2.37530889920890331268310546875">
        <ele>921.20001220703125</ele>
        <time>2022-04-17T15:43:05.000Z</time>
      </trkpt>
      <trkpt lat="42.9700584523379802703857421875" lon="-2.37530688755214214324951171875">
        <ele>921.20001220703125</ele>
        <time>2022-04-17T15:43:06.000Z</time>
      </trkpt>
      <trkpt lat="42.9700550995767116546630859375" lon="-2.3753039538860321044921875">
        <ele>921.20001220703125</ele>
        <time>2022-04-17T15:43:07.000Z</time>
      </trkpt>
      <trkpt lat="42.9700544290244579315185546875" lon="-2.3753021098673343658447265625">
        <ele>921.20001220703125</ele>
        <time>2022-04-17T15:43:08.000Z</time>
      </trkpt>
      <trkpt lat="42.9700545966625213623046875" lon="-2.37530102021992206573486328125">
        <ele>921.20001220703125</ele>
        <time>2022-04-17T15:43:09.000Z</time>
      </trkpt>
      <trkpt lat="42.97005048952996730804443359375" lon="-2.3752985894680023193359375">
        <ele>921.20001220703125</ele>
        <time>2022-04-17T15:43:10.000Z</time>
      </trkpt>
      <trkpt lat="42.9700470529496669769287109375" lon="-2.3753011040389537811279296875">
        <ele>921.20001220703125</ele>
        <time>2022-04-17T15:43:11.000Z</time>
      </trkpt>
      <trkpt lat="42.97004344873130321502685546875" lon="-2.37530973739922046661376953125">
        <ele>921.20001220703125</ele>
        <time>2022-04-17T15:43:12.000Z</time>
      </trkpt>
      <trkpt lat="42.97004009597003459930419921875" lon="-2.37531937658786773681640625">
        <ele>921.20001220703125</ele>
        <time>2022-04-17T15:43:13.000Z</time>
      </trkpt>
      <trkpt lat="42.97004026360809803009033203125" lon="-2.3753235675394535064697265625">
        <ele>921.20001220703125</ele>
        <time>2022-04-17T15:43:14.000Z</time>
      </trkpt>
      <trkpt lat="42.9700440354645252227783203125" lon="-2.37532231025397777557373046875">
        <ele>921.20001220703125</ele>
        <time>2022-04-17T15:43:15.000Z</time>
      </trkpt>
      <trkpt lat="42.97004814259707927703857421875" lon="-2.375321723520755767822265625">
        <ele>921.20001220703125</ele>
        <time>2022-04-17T15:43:16.000Z</time>
      </trkpt>
      <trkpt lat="42.9700527526438236236572265625" lon="-2.3753232322633266448974609375">
        <ele>921.20001220703125</ele>
        <time>2022-04-17T15:43:17.000Z</time>
      </trkpt>
      <trkpt lat="42.9700540937483310699462890625" lon="-2.37532381899654865264892578125">
        <ele>921.20001220703125</ele>
        <time>2022-04-17T15:43:18.000Z</time>
      </trkpt>
      <trkpt lat="42.9700524173676967620849609375" lon="-2.3753235675394535064697265625">
        <ele>921.20001220703125</ele>
        <time>2022-04-17T15:43:19.000Z</time>
      </trkpt>
      <trkpt lat="42.9700524173676967620849609375" lon="-2.3753235675394535064697265625">
        <ele>921.20001220703125</ele>
        <time>2022-04-17T15:43:20.000Z</time>
      </trkpt>
      <trkpt lat="42.9700524173676967620849609375" lon="-2.3753235675394535064697265625">
        <ele>921.20001220703125</ele>
        <time>2022-04-17T15:43:21.000Z</time>
      </trkpt>
      <trkpt lat="42.9700524173676967620849609375" lon="-2.3753235675394535064697265625">
        <ele>921.20001220703125</ele>
        <time>2022-04-17T15:43:22.000Z</time>
      </trkpt>
      <trkpt lat="42.9700524173676967620849609375" lon="-2.3753235675394535064697265625">
        <ele>921.20001220703125</ele>
        <time>2022-04-17T15:43:23.000Z</time>
      </trkpt>
      <trkpt lat="42.9700524173676967620849609375" lon="-2.3753235675394535064697265625">
        <ele>921.20001220703125</ele>
        <time>2022-04-17T15:43:24.000Z</time>
      </trkpt>
      <trkpt lat="42.9700524173676967620849609375" lon="-2.3753235675394535064697265625">
        <ele>921.20001220703125</ele>
        <time>2022-04-17T15:43:25.000Z</time>
      </trkpt>
      <trkpt lat="42.9700524173676967620849609375" lon="-2.3753235675394535064697265625">
        <ele>921.20001220703125</ele>
        <time>2022-04-17T15:43:26.000Z</time>
      </trkpt>
      <trkpt lat="42.9700524173676967620849609375" lon="-2.3753235675394535064697265625">
        <ele>921.20001220703125</ele>
        <time>2022-04-17T15:43:27.000Z</time>
      </trkpt>
      <trkpt lat="42.9700524173676967620849609375" lon="-2.3753235675394535064697265625">
        <ele>921</ele>
        <time>2022-04-17T15:43:28.000Z</time>
      </trkpt>
      <trkpt lat="42.97004881314933300018310546875" lon="-2.3753235675394535064697265625">
        <ele>921</ele>
        <time>2022-04-17T15:43:29.000Z</time>
      </trkpt>
      <trkpt lat="42.97004814259707927703857421875" lon="-2.3753235675394535064697265625">
        <ele>921</ele>
        <time>2022-04-17T15:43:30.000Z</time>
      </trkpt>
      <trkpt lat="42.97004713676869869232177734375" lon="-2.3753235675394535064697265625">
        <ele>921</ele>
        <time>2022-04-17T15:43:31.000Z</time>
      </trkpt>
      <trkpt lat="42.97004663385450839996337890625" lon="-2.3753235675394535064697265625">
        <ele>921</ele>
        <time>2022-04-17T15:43:32.000Z</time>
      </trkpt>
      <trkpt lat="42.9700463823974132537841796875" lon="-2.3753235675394535064697265625">
        <ele>921</ele>
        <time>2022-04-17T15:43:33.000Z</time>
      </trkpt>
      <trkpt lat="42.9700457118451595306396484375" lon="-2.3753235675394535064697265625">
        <ele>921</ele>
        <time>2022-04-17T15:43:34.000Z</time>
      </trkpt>
      <trkpt lat="42.97004512511193752288818359375" lon="-2.375323735177516937255859375">
        <ele>921</ele>
        <time>2022-04-17T15:43:35.000Z</time>
      </trkpt>
      <trkpt lat="42.97004411928355693817138671875" lon="-2.37532381899654865264892578125">
        <ele>920.79998779296875</ele>
        <time>2022-04-17T15:43:36.000Z</time>
      </trkpt>
      <trkpt lat="42.9700440354645252227783203125" lon="-2.37532599829137325286865234375">
        <ele>920.79998779296875</ele>
        <time>2022-04-17T15:43:37.000Z</time>
      </trkpt>
      <trkpt lat="42.970043532550334930419921875" lon="-2.37533521838486194610595703125">
        <ele>920.79998779296875</ele>
        <time>2022-04-17T15:43:38.000Z</time>
      </trkpt>
      <trkpt lat="42.97004344873130321502685546875" lon="-2.375342510640621185302734375">
        <ele>920.79998779296875</ele>
        <time>2022-04-17T15:43:39.000Z</time>
      </trkpt>
      <trkpt lat="42.9700433649122714996337890625" lon="-2.375343181192874908447265625">
        <ele>920.79998779296875</ele>
        <time>2022-04-17T15:43:40.000Z</time>
      </trkpt>
      <trkpt lat="42.9700423590838909149169921875" lon="-2.37534410320222377777099609375">
        <ele>920.79998779296875</ele>
        <time>2022-04-17T15:43:41.000Z</time>
      </trkpt>
      <trkpt lat="42.9700410179793834686279296875" lon="-2.37534561194479465484619140625">
        <ele>920.5999755859375</ele>
        <time>2022-04-17T15:43:42.000Z</time>
      </trkpt>
      <trkpt lat="42.97004093416035175323486328125" lon="-2.3753463663160800933837890625">
        <ele>920.5999755859375</ele>
        <time>2022-04-17T15:43:43.000Z</time>
      </trkpt>
      <trkpt lat="42.970040850341320037841796875" lon="-2.37534728832542896270751953125">
        <ele>920.5999755859375</ele>
        <time>2022-04-17T15:43:44.000Z</time>
      </trkpt>
      <trkpt lat="42.97003917396068572998046875" lon="-2.37534762360155582427978515625">
        <ele>920.4000244140625</ele>
        <time>2022-04-17T15:43:45.000Z</time>
      </trkpt>
      <trkpt lat="42.9700373299419879913330078125" lon="-2.375347875058650970458984375">
        <ele>920.20001220703125</ele>
        <time>2022-04-17T15:43:46.000Z</time>
      </trkpt>
      <trkpt lat="42.97003707848489284515380859375" lon="-2.375347875058650970458984375">
        <ele>920</ele>
        <time>2022-04-17T15:43:47.000Z</time>
      </trkpt>
      <trkpt lat="42.97003707848489284515380859375" lon="-2.3753480426967144012451171875">
        <ele>919.79998779296875</ele>
        <time>2022-04-17T15:43:48.000Z</time>
      </trkpt>
      <trkpt lat="42.97003707848489284515380859375" lon="-2.3753483779728412628173828125">
        <ele>919.79998779296875</ele>
        <time>2022-04-17T15:43:49.000Z</time>
      </trkpt>
      <trkpt lat="42.97003707848489284515380859375" lon="-2.3753517307341098785400390625">
        <ele>919.79998779296875</ele>
        <time>2022-04-17T15:43:50.000Z</time>
      </trkpt>
      <trkpt lat="42.97003707848489284515380859375" lon="-2.37535349093377590179443359375">
        <ele>919.79998779296875</ele>
        <time>2022-04-17T15:43:51.000Z</time>
      </trkpt>
      <trkpt lat="42.97003707848489284515380859375" lon="-2.37535533495247364044189453125">
        <ele>919.5999755859375</ele>
        <time>2022-04-17T15:43:52.000Z</time>
      </trkpt>
      <trkpt lat="42.97003707848489284515380859375" lon="-2.3753574304282665252685546875">
        <ele>919.5999755859375</ele>
        <time>2022-04-17T15:43:53.000Z</time>
      </trkpt>
      <trkpt lat="42.97003707848489284515380859375" lon="-2.37536053173243999481201171875">
        <ele>919.4000244140625</ele>
        <time>2022-04-17T15:43:54.000Z</time>
      </trkpt>
      <trkpt lat="42.97003707848489284515380859375" lon="-2.37536388449370861053466796875">
        <ele>919.20001220703125</ele>
        <time>2022-04-17T15:43:55.000Z</time>
      </trkpt>
      <trkpt lat="42.97003707848489284515380859375" lon="-2.3753644712269306182861328125">
        <ele>919.20001220703125</ele>
        <time>2022-04-17T15:43:56.000Z</time>
      </trkpt>
      <trkpt lat="42.97003707848489284515380859375" lon="-2.37536455504596233367919921875">
        <ele>919</ele>
        <time>2022-04-17T15:43:57.000Z</time>
      </trkpt>
      <trkpt lat="42.97003707848489284515380859375" lon="-2.375364638864994049072265625">
        <ele>919.20001220703125</ele>
        <time>2022-04-17T15:43:58.000Z</time>
      </trkpt>
      <trkpt lat="42.97003707848489284515380859375" lon="-2.375364638864994049072265625">
        <ele>919.20001220703125</ele>
        <time>2022-04-17T15:43:59.000Z</time>
      </trkpt>
      <trkpt lat="42.97003707848489284515380859375" lon="-2.37536606378853321075439453125">
        <ele>919.20001220703125</ele>
        <time>2022-04-17T15:44:00.000Z</time>
      </trkpt>
      <trkpt lat="42.97004193998873233795166015625" lon="-2.37537142820656299591064453125">
        <ele>919</ele>
        <time>2022-04-17T15:44:01.000Z</time>
      </trkpt>
      <trkpt lat="42.9700477235019207000732421875" lon="-2.375376708805561065673828125">
        <ele>919</ele>
        <time>2022-04-17T15:44:02.000Z</time>
      </trkpt>
      <trkpt lat="42.9700557701289653778076171875" lon="-2.3753842525184154510498046875">
        <ele>919</ele>
        <time>2022-04-17T15:44:03.000Z</time>
      </trkpt>
      <trkpt lat="42.97005937434732913970947265625" lon="-2.37538819201290607452392578125">
        <ele>919</ele>
        <time>2022-04-17T15:44:04.000Z</time>
      </trkpt>
      <trkpt lat="42.970062978565692901611328125" lon="-2.375390119850635528564453125">
        <ele>919</ele>
        <time>2022-04-17T15:44:05.000Z</time>
      </trkpt>
      <trkpt lat="42.9700648225843906402587890625" lon="-2.3753916285932064056396484375">
        <ele>918.79998779296875</ele>
        <time>2022-04-17T15:44:06.000Z</time>
      </trkpt>
      <trkpt lat="42.970074377954006195068359375" lon="-2.375392802059650421142578125">
        <ele>918.79998779296875</ele>
        <time>2022-04-17T15:44:07.000Z</time>
      </trkpt>
      <trkpt lat="42.9700906388461589813232421875" lon="-2.37539841793477535247802734375">
        <ele>918.79998779296875</ele>
        <time>2022-04-17T15:44:08.000Z</time>
      </trkpt>
      <trkpt lat="42.97010413371026515960693359375" lon="-2.3754013516008853912353515625">
        <ele>918.79998779296875</ele>
        <time>2022-04-17T15:44:09.000Z</time>
      </trkpt>
      <trkpt lat="42.97011754475533962249755859375" lon="-2.37540713511407375335693359375">
        <ele>918.5999755859375</ele>
        <time>2022-04-17T15:44:10.000Z</time>
      </trkpt>
      <trkpt lat="42.970130704343318939208984375" lon="-2.37541434355080127716064453125">
        <ele>918.5999755859375</ele>
        <time>2022-04-17T15:44:11.000Z</time>
      </trkpt>
      <trkpt lat="42.9701431095600128173828125" lon="-2.37542054615914821624755859375">
        <ele>918.5999755859375</ele>
        <time>2022-04-17T15:44:12.000Z</time>
      </trkpt>
      <trkpt lat="42.97016079537570476531982421875" lon="-2.375430352985858917236328125">
        <ele>918.5999755859375</ele>
        <time>2022-04-17T15:44:13.000Z</time>
      </trkpt>
      <trkpt lat="42.97017772682011127471923828125" lon="-2.37543328665196895599365234375">
        <ele>918.5999755859375</ele>
        <time>2022-04-17T15:44:14.000Z</time>
      </trkpt>
      <trkpt lat="42.970193065702915191650390625" lon="-2.3754342086613178253173828125">
        <ele>918.5999755859375</ele>
        <time>2022-04-17T15:44:15.000Z</time>
      </trkpt>
      <trkpt lat="42.97021376900374889373779296875" lon="-2.3754353821277618408203125">
        <ele>918.5999755859375</ele>
        <time>2022-04-17T15:44:16.000Z</time>
      </trkpt>
      <trkpt lat="42.97022567130625247955322265625" lon="-2.375440411269664764404296875">
        <ele>918.79998779296875</ele>
        <time>2022-04-17T15:44:17.000Z</time>
      </trkpt>
      <trkpt lat="42.970240004360675811767578125" lon="-2.37544435076415538787841796875">
        <ele>918.79998779296875</ele>
        <time>2022-04-17T15:44:18.000Z</time>
      </trkpt>
      <trkpt lat="42.970257103443145751953125" lon="-2.375449128448963165283203125">
        <ele>919</ele>
        <time>2022-04-17T15:44:19.000Z</time>
      </trkpt>
      <trkpt lat="42.97026716172695159912109375" lon="-2.37544820643961429595947265625">
        <ele>919.20001220703125</ele>
        <time>2022-04-17T15:44:20.000Z</time>
      </trkpt>
      <trkpt lat="42.97028082422912120819091796875" lon="-2.3754492960870265960693359375">
        <ele>919.20001220703125</ele>
        <time>2022-04-17T15:44:21.000Z</time>
      </trkpt>
      <trkpt lat="42.970292307436466217041015625" lon="-2.37544116564095020294189453125">
        <ele>919.4000244140625</ele>
        <time>2022-04-17T15:44:22.000Z</time>
      </trkpt>
      <trkpt lat="42.970301695168018341064453125" lon="-2.37542892806231975555419921875">
        <ele>919.5999755859375</ele>
        <time>2022-04-17T15:44:23.000Z</time>
      </trkpt>
      <trkpt lat="42.97031217254698276519775390625" lon="-2.37542909570038318634033203125">
        <ele>919.5999755859375</ele>
        <time>2022-04-17T15:44:24.000Z</time>
      </trkpt>
      <trkpt lat="42.970319800078868865966796875" lon="-2.3754300177097320556640625">
        <ele>919.5999755859375</ele>
        <time>2022-04-17T15:44:25.000Z</time>
      </trkpt>
      <trkpt lat="42.97032658942043781280517578125" lon="-2.37543144263327121734619140625">
        <ele>919.79998779296875</ele>
        <time>2022-04-17T15:44:26.000Z</time>
      </trkpt>
      <trkpt lat="42.970334552228450775146484375" lon="-2.37542825751006603240966796875">
        <ele>919.79998779296875</ele>
        <time>2022-04-17T15:44:27.000Z</time>
      </trkpt>
      <trkpt lat="42.97034402377903461456298828125" lon="-2.375429011881351470947265625">
        <ele>919.79998779296875</ele>
        <time>2022-04-17T15:44:28.000Z</time>
      </trkpt>
      <trkpt lat="42.97035458497703075408935546875" lon="-2.37542758695781230926513671875">
        <ele>920</ele>
        <time>2022-04-17T15:44:29.000Z</time>
      </trkpt>
      <trkpt lat="42.97036263160407543182373046875" lon="-2.37542356364428997039794921875">
        <ele>920</ele>
        <time>2022-04-17T15:44:30.000Z</time>
      </trkpt>
      <trkpt lat="42.97036598436534404754638671875" lon="-2.375412248075008392333984375">
        <ele>920</ele>
        <time>2022-04-17T15:44:31.000Z</time>
      </trkpt>
      <trkpt lat="42.9703657329082489013671875" lon="-2.375408224761486053466796875">
        <ele>920</ele>
        <time>2022-04-17T15:44:32.000Z</time>
      </trkpt>
      <trkpt lat="42.970371432602405548095703125" lon="-2.3754026927053928375244140625">
        <ele>920</ele>
        <time>2022-04-17T15:44:33.000Z</time>
      </trkpt>
      <trkpt lat="42.97039330936968326568603515625" lon="-2.3753808997571468353271484375">
        <ele>920</ele>
        <time>2022-04-17T15:44:34.000Z</time>
      </trkpt>
      <trkpt lat="42.9704068042337894439697265625" lon="-2.37536740489304065704345703125">
        <ele>920</ele>
        <time>2022-04-17T15:44:35.000Z</time>
      </trkpt>
      <trkpt lat="42.9704215563833713531494140625" lon="-2.3753587715327739715576171875">
        <ele>920</ele>
        <time>2022-04-17T15:44:36.000Z</time>
      </trkpt>
      <trkpt lat="42.97043438069522380828857421875" lon="-2.37535013817250728607177734375">
        <ele>920</ele>
        <time>2022-04-17T15:44:37.000Z</time>
      </trkpt>
      <trkpt lat="42.97043907456099987030029296875" lon="-2.375345863401889801025390625">
        <ele>920</ele>
        <time>2022-04-17T15:44:38.000Z</time>
      </trkpt>
      <trkpt lat="42.97044041566550731658935546875" lon="-2.37534083425998687744140625">
        <ele>919.79998779296875</ele>
        <time>2022-04-17T15:44:39.000Z</time>
      </trkpt>
      <trkpt lat="42.97044175677001476287841796875" lon="-2.3753423430025577545166015625">
        <ele>919.79998779296875</ele>
        <time>2022-04-17T15:44:40.000Z</time>
      </trkpt>
      <trkpt lat="42.97043974511325359344482421875" lon="-2.37534209154546260833740234375">
        <ele>919.5999755859375</ele>
        <time>2022-04-17T15:44:41.000Z</time>
      </trkpt>
      <trkpt lat="42.97044217586517333984375" lon="-2.37533790059387683868408203125">
        <ele>919.4000244140625</ele>
        <time>2022-04-17T15:44:42.000Z</time>
      </trkpt>
      <trkpt lat="42.9704443551599979400634765625" lon="-2.375336475670337677001953125">
        <ele>919.20001220703125</ele>
        <time>2022-04-17T15:44:43.000Z</time>
      </trkpt>
      <trkpt lat="42.9704443551599979400634765625" lon="-2.37533236853778362274169921875">
        <ele>919</ele>
        <time>2022-04-17T15:44:44.000Z</time>
      </trkpt>
      <trkpt lat="42.97044821083545684814453125" lon="-2.3753282614052295684814453125">
        <ele>918.79998779296875</ele>
        <time>2022-04-17T15:44:45.000Z</time>
      </trkpt>
      <trkpt lat="42.9704530723392963409423828125" lon="-2.3753228969871997833251953125">
        <ele>918.79998779296875</ele>
        <time>2022-04-17T15:44:46.000Z</time>
      </trkpt>
      <trkpt lat="42.97045533545315265655517578125" lon="-2.37531669437885284423828125">
        <ele>918.5999755859375</ele>
        <time>2022-04-17T15:44:47.000Z</time>
      </trkpt>
      <trkpt lat="42.9704587720334529876708984375" lon="-2.375314347445964813232421875">
        <ele>918.4000244140625</ele>
        <time>2022-04-17T15:44:48.000Z</time>
      </trkpt>
      <trkpt lat="42.9704624600708484649658203125" lon="-2.37531543709337711334228515625">
        <ele>918.20001220703125</ele>
        <time>2022-04-17T15:44:49.000Z</time>
      </trkpt>
      <trkpt lat="42.97046363353729248046875" lon="-2.37531493417918682098388671875">
        <ele>918</ele>
        <time>2022-04-17T15:44:50.000Z</time>
      </trkpt>
      <trkpt lat="42.97046354971826076507568359375" lon="-2.3753121681511402130126953125">
        <ele>917.79998779296875</ele>
        <time>2022-04-17T15:44:51.000Z</time>
      </trkpt>
      <trkpt lat="42.97046153806149959564208984375" lon="-2.3753141798079013824462890625">
        <ele>917.5999755859375</ele>
        <time>2022-04-17T15:44:52.000Z</time>
      </trkpt>
      <trkpt lat="42.970465309917926788330078125" lon="-2.37532339990139007568359375">
        <ele>917.5999755859375</ele>
        <time>2022-04-17T15:44:53.000Z</time>
      </trkpt>
      <trkpt lat="42.97047042287886142730712890625" lon="-2.37532474100589752197265625">
        <ele>917.4000244140625</ele>
        <time>2022-04-17T15:44:54.000Z</time>
      </trkpt>
      <trkpt lat="42.97047696076333522796630859375" lon="-2.37532180733978748321533203125">
        <ele>917</ele>
        <time>2022-04-17T15:44:55.000Z</time>
      </trkpt>
      <trkpt lat="42.9704809002578258514404296875" lon="-2.3753249086439609527587890625">
        <ele>916.5999755859375</ele>
        <time>2022-04-17T15:44:56.000Z</time>
      </trkpt>
      <trkpt lat="42.97048986889421939849853515625" lon="-2.37532331608235836029052734375">
        <ele>916.4000244140625</ele>
        <time>2022-04-17T15:44:57.000Z</time>
      </trkpt>
      <trkpt lat="42.9705025255680084228515625" lon="-2.37531627528369426727294921875">
        <ele>916.20001220703125</ele>
        <time>2022-04-17T15:44:58.000Z</time>
      </trkpt>
      <trkpt lat="42.970498502254486083984375" lon="-2.375315688550472259521484375">
        <ele>916</ele>
        <time>2022-04-17T15:44:59.000Z</time>
      </trkpt>
      <trkpt lat="42.97050612978637218475341796875" lon="-2.37532214261591434478759765625">
        <ele>915.79998779296875</ele>
        <time>2022-04-17T15:45:00.000Z</time>
      </trkpt>
      <trkpt lat="42.9705184511840343475341796875" lon="-2.37533236853778362274169921875">
        <ele>915.79998779296875</ele>
        <time>2022-04-17T15:45:01.000Z</time>
      </trkpt>
      <trkpt lat="42.97052289359271526336669921875" lon="-2.3753423430025577545166015625">
        <ele>915.5999755859375</ele>
        <time>2022-04-17T15:45:02.000Z</time>
      </trkpt>
      <trkpt lat="42.97052809037268161773681640625" lon="-2.37534946762025356292724609375">
        <ele>915.4000244140625</ele>
        <time>2022-04-17T15:45:03.000Z</time>
      </trkpt>
      <trkpt lat="42.97053596936166286468505859375" lon="-2.37535902298986911773681640625">
        <ele>915.20001220703125</ele>
        <time>2022-04-17T15:45:04.000Z</time>
      </trkpt>
      <trkpt lat="42.970538400113582611083984375" lon="-2.37535952590405941009521484375">
        <ele>915</ele>
        <time>2022-04-17T15:45:05.000Z</time>
      </trkpt>
      <trkpt lat="42.9705479554831981658935546875" lon="-2.37535499967634677886962890625">
        <ele>914.79998779296875</ele>
        <time>2022-04-17T15:45:06.000Z</time>
      </trkpt>
      <trkpt lat="42.97055675648152828216552734375" lon="-2.37534779123961925506591796875">
        <ele>914.79998779296875</ele>
        <time>2022-04-17T15:45:07.000Z</time>
      </trkpt>
      <trkpt lat="42.97056647948920726776123046875" lon="-2.3753399960696697235107421875">
        <ele>914.4000244140625</ele>
        <time>2022-04-17T15:45:08.000Z</time>
      </trkpt>
      <trkpt lat="42.97058098018169403076171875" lon="-2.37532516010105609893798828125">
        <ele>914.20001220703125</ele>
        <time>2022-04-17T15:45:09.000Z</time>
      </trkpt>
      <trkpt lat="42.97059497795999050140380859375" lon="-2.37531795166432857513427734375">
        <ele>914</ele>
        <time>2022-04-17T15:45:10.000Z</time>
      </trkpt>
      <trkpt lat="42.97060570679605007171630859375" lon="-2.375313006341457366943359375">
        <ele>913.79998779296875</ele>
        <time>2022-04-17T15:45:11.000Z</time>
      </trkpt>
      <trkpt lat="42.97061450779438018798828125" lon="-2.3753111623227596282958984375">
        <ele>913.5999755859375</ele>
        <time>2022-04-17T15:45:12.000Z</time>
      </trkpt>
      <trkpt lat="42.97061811201274394989013671875" lon="-2.37531401216983795166015625">
        <ele>913.4000244140625</ele>
        <time>2022-04-17T15:45:13.000Z</time>
      </trkpt>
      <trkpt lat="42.97062163241207599639892578125" lon="-2.375318370759487152099609375">
        <ele>913.4000244140625</ele>
        <time>2022-04-17T15:45:14.000Z</time>
      </trkpt>
      <trkpt lat="42.9706277512013912200927734375" lon="-2.375317700207233428955078125">
        <ele>913.20001220703125</ele>
        <time>2022-04-17T15:45:15.000Z</time>
      </trkpt>
      <trkpt lat="42.97063571400940418243408203125" lon="-2.375319041311740875244140625">
        <ele>913</ele>
        <time>2022-04-17T15:45:16.000Z</time>
      </trkpt>
      <trkpt lat="42.9706431739032268524169921875" lon="-2.3753188736736774444580078125">
        <ele>913</ele>
        <time>2022-04-17T15:45:17.000Z</time>
      </trkpt>
      <trkpt lat="42.97064493410289287567138671875" lon="-2.37531811930239200592041015625">
        <ele>913</ele>
        <time>2022-04-17T15:45:18.000Z</time>
      </trkpt>
      <trkpt lat="42.97064661048352718353271484375" lon="-2.37531602382659912109375">
        <ele>912.79998779296875</ele>
        <time>2022-04-17T15:45:19.000Z</time>
      </trkpt>
      <trkpt lat="42.9706518910825252532958984375" lon="-2.3753158561885356903076171875">
        <ele>912.79998779296875</ele>
        <time>2022-04-17T15:45:20.000Z</time>
      </trkpt>
      <trkpt lat="42.970660440623760223388671875" lon="-2.37531610764563083648681640625">
        <ele>912.5999755859375</ele>
        <time>2022-04-17T15:45:21.000Z</time>
      </trkpt>
      <trkpt lat="42.970664799213409423828125" lon="-2.375326417386531829833984375">
        <ele>912.5999755859375</ele>
        <time>2022-04-17T15:45:22.000Z</time>
      </trkpt>
      <trkpt lat="42.9706688225269317626953125" lon="-2.3753336258232593536376953125">
        <ele>912.5999755859375</ele>
        <time>2022-04-17T15:45:23.000Z</time>
      </trkpt>
      <trkpt lat="42.97067309729754924774169921875" lon="-2.375347204506397247314453125">
        <ele>912.5999755859375</ele>
        <time>2022-04-17T15:45:24.000Z</time>
      </trkpt>
      <trkpt lat="42.97066823579370975494384765625" lon="-2.3753534071147441864013671875">
        <ele>912.5999755859375</ele>
        <time>2022-04-17T15:45:25.000Z</time>
      </trkpt>
      <trkpt lat="42.97066203318536281585693359375" lon="-2.3753641359508037567138671875">
        <ele>912.5999755859375</ele>
        <time>2022-04-17T15:45:26.000Z</time>
      </trkpt>
      <trkpt lat="42.97066354192793369293212890625" lon="-2.3753812350332736968994140625">
        <ele>912.79998779296875</ele>
        <time>2022-04-17T15:45:27.000Z</time>
      </trkpt>
      <trkpt lat="42.97066220082342624664306640625" lon="-2.3753943108022212982177734375">
        <ele>912.79998779296875</ele>
        <time>2022-04-17T15:45:28.000Z</time>
      </trkpt>
      <trkpt lat="42.97065918333828449249267578125" lon="-2.37539556808769702911376953125">
        <ele>912.79998779296875</ele>
        <time>2022-04-17T15:45:29.000Z</time>
      </trkpt>
      <trkpt lat="42.97065733931958675384521484375" lon="-2.37539992667734622955322265625">
        <ele>912.79998779296875</ele>
        <time>2022-04-17T15:45:30.000Z</time>
      </trkpt>
      <trkpt lat="42.97065474092960357666015625" lon="-2.37540042959153652191162109375">
        <ele>912.79998779296875</ele>
        <time>2022-04-17T15:45:31.000Z</time>
      </trkpt>
      <trkpt lat="42.97065298072993755340576171875" lon="-2.3754073865711688995361328125">
        <ele>912.79998779296875</ele>
        <time>2022-04-17T15:45:32.000Z</time>
      </trkpt>
      <trkpt lat="42.97064795158803462982177734375" lon="-2.37541635520756244659423828125">
        <ele>912.79998779296875</ele>
        <time>2022-04-17T15:45:33.000Z</time>
      </trkpt>
      <trkpt lat="42.970646359026432037353515625" lon="-2.375420965254306793212890625">
        <ele>912.79998779296875</ele>
        <time>2022-04-17T15:45:34.000Z</time>
      </trkpt>
      <trkpt lat="42.97064309008419513702392578125" lon="-2.3754140920937061309814453125">
        <ele>912.79998779296875</ele>
        <time>2022-04-17T15:45:35.000Z</time>
      </trkpt>
      <trkpt lat="42.97063537873327732086181640625" lon="-2.37541182897984981536865234375">
        <ele>912.79998779296875</ele>
        <time>2022-04-17T15:45:36.000Z</time>
      </trkpt>
      <trkpt lat="42.97062967903912067413330078125" lon="-2.3754224739968776702880859375">
        <ele>912.79998779296875</ele>
        <time>2022-04-17T15:45:37.000Z</time>
      </trkpt>
      <trkpt lat="42.970630265772342681884765625" lon="-2.375442087650299072265625">
        <ele>912.79998779296875</ele>
        <time>2022-04-17T15:45:38.000Z</time>
      </trkpt>
      <trkpt lat="42.9706314392387866973876953125" lon="-2.375463210046291351318359375">
        <ele>912.79998779296875</ele>
        <time>2022-04-17T15:45:39.000Z</time>
      </trkpt>
      <trkpt lat="42.97063739039003849029541015625" lon="-2.3754782974720001220703125">
        <ele>912.79998779296875</ele>
        <time>2022-04-17T15:45:40.000Z</time>
      </trkpt>
      <trkpt lat="42.97064510174095630645751953125" lon="-2.375492043793201446533203125">
        <ele>912.4000244140625</ele>
        <time>2022-04-17T15:45:41.000Z</time>
      </trkpt>
      <trkpt lat="42.97065650112926959991455078125" lon="-2.3755046166479587554931640625">
        <ele>912.4000244140625</ele>
        <time>2022-04-17T15:45:42.000Z</time>
      </trkpt>
      <trkpt lat="42.9706622846424579620361328125" lon="-2.37551710568368434906005859375">
        <ele>912</ele>
        <time>2022-04-17T15:45:43.000Z</time>
      </trkpt>
      <trkpt lat="42.97066605649888515472412109375" lon="-2.37553286366164684295654296875">
        <ele>911.79998779296875</ele>
        <time>2022-04-17T15:45:44.000Z</time>
      </trkpt>
      <trkpt lat="42.97066857106983661651611328125" lon="-2.37554644234478473663330078125">
        <ele>911.5999755859375</ele>
        <time>2022-04-17T15:45:45.000Z</time>
      </trkpt>
      <trkpt lat="42.9706716723740100860595703125" lon="-2.37555666826665401458740234375">
        <ele>911.4000244140625</ele>
        <time>2022-04-17T15:45:46.000Z</time>
      </trkpt>
      <trkpt lat="42.97067619860172271728515625" lon="-2.37557259388267993927001953125">
        <ele>911</ele>
        <time>2022-04-17T15:45:47.000Z</time>
      </trkpt>
      <trkpt lat="42.9706844128668308258056640625" lon="-2.37558013759553432464599609375">
        <ele>911</ele>
        <time>2022-04-17T15:45:48.000Z</time>
      </trkpt>
      <trkpt lat="42.97069589607417583465576171875" lon="-2.37558952532708644866943359375">
        <ele>910.79998779296875</ele>
        <time>2022-04-17T15:45:49.000Z</time>
      </trkpt>
      <trkpt lat="42.9706981591880321502685546875" lon="-2.37559338100254535675048828125">
        <ele>910.5999755859375</ele>
        <time>2022-04-17T15:45:50.000Z</time>
      </trkpt>
      <trkpt lat="42.97069958411157131195068359375" lon="-2.3756108991801738739013671875">
        <ele>910.5999755859375</ele>
        <time>2022-04-17T15:45:51.000Z</time>
      </trkpt>
      <trkpt lat="42.97070310451090335845947265625" lon="-2.3756263218820095062255859375">
        <ele>910.4000244140625</ele>
        <time>2022-04-17T15:45:52.000Z</time>
      </trkpt>
      <trkpt lat="42.97070528380572795867919921875" lon="-2.37563160248100757598876953125">
        <ele>910.4000244140625</ele>
        <time>2022-04-17T15:45:53.000Z</time>
      </trkpt>
      <trkpt lat="42.97070846892893314361572265625" lon="-2.37563914619386196136474609375">
        <ele>910.20001220703125</ele>
        <time>2022-04-17T15:45:54.000Z</time>
      </trkpt>
      <trkpt lat="42.970711402595043182373046875" lon="-2.3756481148302555084228515625">
        <ele>910</ele>
        <time>2022-04-17T15:45:55.000Z</time>
      </trkpt>
      <trkpt lat="42.97071634791791439056396484375" lon="-2.37565875984728336334228515625">
        <ele>909.79998779296875</ele>
        <time>2022-04-17T15:45:56.000Z</time>
      </trkpt>
      <trkpt lat="42.9707206226885318756103515625" lon="-2.37566865049302577972412109375">
        <ele>909.5999755859375</ele>
        <time>2022-04-17T15:45:57.000Z</time>
      </trkpt>
      <trkpt lat="42.9707233048975467681884765625" lon="-2.375678122043609619140625">
        <ele>909.5999755859375</ele>
        <time>2022-04-17T15:45:58.000Z</time>
      </trkpt>
      <trkpt lat="42.9707286693155765533447265625" lon="-2.37568591721355915069580078125">
        <ele>909.4000244140625</ele>
        <time>2022-04-17T15:45:59.000Z</time>
      </trkpt>
      <trkpt lat="42.97073445282876491546630859375" lon="-2.375689856708049774169921875">
        <ele>909.20001220703125</ele>
        <time>2022-04-17T15:46:00.000Z</time>
      </trkpt>
      <trkpt lat="42.97073394991457462310791015625" lon="-2.37570938654243946075439453125">
        <ele>909.20001220703125</ele>
        <time>2022-04-17T15:46:01.000Z</time>
      </trkpt>
      <trkpt lat="42.970736883580684661865234375" lon="-2.375729084014892578125">
        <ele>909</ele>
        <time>2022-04-17T15:46:02.000Z</time>
      </trkpt>
      <trkpt lat="42.97074057161808013916015625" lon="-2.3757295869290828704833984375">
        <ele>908.79998779296875</ele>
        <time>2022-04-17T15:46:03.000Z</time>
      </trkpt>
      <trkpt lat="42.97074417583644390106201171875" lon="-2.37572883255779743194580078125">
        <ele>908.79998779296875</ele>
        <time>2022-04-17T15:46:04.000Z</time>
      </trkpt>
      <trkpt lat="42.97074325382709503173828125" lon="-2.375729419291019439697265625">
        <ele>908.5999755859375</ele>
        <time>2022-04-17T15:46:05.000Z</time>
      </trkpt>
      <trkpt lat="42.97074459493160247802734375" lon="-2.37573201768100261688232421875">
        <ele>908.4000244140625</ele>
        <time>2022-04-17T15:46:06.000Z</time>
      </trkpt>
      <trkpt lat="42.970745265483856201171875" lon="-2.37574274651706218719482421875">
        <ele>908.20001220703125</ele>
        <time>2022-04-17T15:46:07.000Z</time>
      </trkpt>
      <trkpt lat="42.97074652276933193206787109375" lon="-2.3757523857057094573974609375">
        <ele>908.20001220703125</ele>
        <time>2022-04-17T15:46:08.000Z</time>
      </trkpt>
      <trkpt lat="42.97074970789253711700439453125" lon="-2.37575850449502468109130859375">
        <ele>908</ele>
        <time>2022-04-17T15:46:09.000Z</time>
      </trkpt>
      <trkpt lat="42.9707507975399494171142578125" lon="-2.3757652938365936279296875">
        <ele>907.79998779296875</ele>
        <time>2022-04-17T15:46:10.000Z</time>
      </trkpt>
      <trkpt lat="42.970746941864490509033203125" lon="-2.37578784115612506866455078125">
        <ele>907.4000244140625</ele>
        <time>2022-04-17T15:46:11.000Z</time>
      </trkpt>
      <trkpt lat="42.97074333764612674713134765625" lon="-2.3758016712963581085205078125">
        <ele>907.4000244140625</ele>
        <time>2022-04-17T15:46:12.000Z</time>
      </trkpt>
      <trkpt lat="42.97074702568352222442626953125" lon="-2.375813908874988555908203125">
        <ele>907.20001220703125</ele>
        <time>2022-04-17T15:46:13.000Z</time>
      </trkpt>
      <trkpt lat="42.97075088135898113250732421875" lon="-2.37582002766430377960205078125">
        <ele>907.20001220703125</ele>
        <time>2022-04-17T15:46:14.000Z</time>
      </trkpt>
      <trkpt lat="42.970750965178012847900390625" lon="-2.37582421861588954925537109375">
        <ele>906.79998779296875</ele>
        <time>2022-04-17T15:46:15.000Z</time>
      </trkpt>
      <trkpt lat="42.97075054608285427093505859375" lon="-2.37583595328032970428466796875">
        <ele>906.5999755859375</ele>
        <time>2022-04-17T15:46:16.000Z</time>
      </trkpt>
      <trkpt lat="42.9707544855773448944091796875" lon="-2.3758509568870067596435546875">
        <ele>906.4000244140625</ele>
        <time>2022-04-17T15:46:17.000Z</time>
      </trkpt>
      <trkpt lat="42.97075473703444004058837890625" lon="-2.3758740909397602081298828125">
        <ele>906.20001220703125</ele>
        <time>2022-04-17T15:46:18.000Z</time>
      </trkpt>
      <trkpt lat="42.97074970789253711700439453125" lon="-2.375887669622898101806640625">
        <ele>906</ele>
        <time>2022-04-17T15:46:19.000Z</time>
      </trkpt>
      <trkpt lat="42.97074635513126850128173828125" lon="-2.37589647062122821807861328125">
        <ele>905.79998779296875</ele>
        <time>2022-04-17T15:46:20.000Z</time>
      </trkpt>
      <trkpt lat="42.970743589103221893310546875" lon="-2.37590937875211238861083984375">
        <ele>905.5999755859375</ele>
        <time>2022-04-17T15:46:21.000Z</time>
      </trkpt>
      <trkpt lat="42.97074325382709503173828125" lon="-2.375927232205867767333984375">
        <ele>905.5999755859375</ele>
        <time>2022-04-17T15:46:22.000Z</time>
      </trkpt>
      <trkpt lat="42.97074384056031703948974609375" lon="-2.375941313803195953369140625">
        <ele>905.4000244140625</ele>
        <time>2022-04-17T15:46:23.000Z</time>
      </trkpt>
      <trkpt lat="42.97074451111257076263427734375" lon="-2.37595011480152606964111328125">
        <ele>905.4000244140625</ele>
        <time>2022-04-17T15:46:24.000Z</time>
      </trkpt>
      <trkpt lat="42.97074258327484130859375" lon="-2.37595581449568271636962890625">
        <ele>905.4000244140625</ele>
        <time>2022-04-17T15:46:25.000Z</time>
      </trkpt>
      <trkpt lat="42.97074384056031703948974609375" lon="-2.375954724848270416259765625">
        <ele>905.20001220703125</ele>
        <time>2022-04-17T15:46:26.000Z</time>
      </trkpt>
      <trkpt lat="42.9707404039800167083740234375" lon="-2.37595849670469760894775390625">
        <ele>905.20001220703125</ele>
        <time>2022-04-17T15:46:27.000Z</time>
      </trkpt>
      <trkpt lat="42.9707310162484645843505859375" lon="-2.3759659565985202789306640625">
        <ele>905.20001220703125</ele>
        <time>2022-04-17T15:46:28.000Z</time>
      </trkpt>
      <trkpt lat="42.9707259871065616607666015625" lon="-2.3759689740836620330810546875">
        <ele>905</ele>
        <time>2022-04-17T15:46:29.000Z</time>
      </trkpt>
      <trkpt lat="42.97072640620172023773193359375" lon="-2.37597559578716754913330078125">
        <ele>905</ele>
        <time>2022-04-17T15:46:30.000Z</time>
      </trkpt>
      <trkpt lat="42.97073026187717914581298828125" lon="-2.3759807087481021881103515625">
        <ele>905</ele>
        <time>2022-04-17T15:46:31.000Z</time>
      </trkpt>
      <trkpt lat="42.97073931433260440826416015625" lon="-2.3759897612035274505615234375">
        <ele>904.79998779296875</ele>
        <time>2022-04-17T15:46:32.000Z</time>
      </trkpt>
      <trkpt lat="42.97073747031390666961669921875" lon="-2.37600359134376049041748046875">
        <ele>904.79998779296875</ele>
        <time>2022-04-17T15:46:33.000Z</time>
      </trkpt>
      <trkpt lat="42.970736883580684661865234375" lon="-2.3760187625885009765625">
        <ele>904.5999755859375</ele>
        <time>2022-04-17T15:46:34.000Z</time>
      </trkpt>
      <trkpt lat="42.97073763795197010040283203125" lon="-2.3760162480175495147705078125">
        <ele>904.5999755859375</ele>
        <time>2022-04-17T15:46:35.000Z</time>
      </trkpt>
      <trkpt lat="42.9707385599613189697265625" lon="-2.37601666711270809173583984375">
        <ele>904.4000244140625</ele>
        <time>2022-04-17T15:46:36.000Z</time>
      </trkpt>
      <trkpt lat="42.9707387275993824005126953125" lon="-2.3760246299207210540771484375">
        <ele>904.4000244140625</ele>
        <time>2022-04-17T15:46:37.000Z</time>
      </trkpt>
      <trkpt lat="42.9707306809723377227783203125" lon="-2.3760306648910045623779296875">
        <ele>904.4000244140625</ele>
        <time>2022-04-17T15:46:38.000Z</time>
      </trkpt>
      <trkpt lat="42.97072271816432476043701171875" lon="-2.376031838357448577880859375">
        <ele>904.4000244140625</ele>
        <time>2022-04-17T15:46:39.000Z</time>
      </trkpt>
      <trkpt lat="42.97071333043277263641357421875" lon="-2.376039884984493255615234375">
        <ele>904</ele>
        <time>2022-04-17T15:46:40.000Z</time>
      </trkpt>
      <trkpt lat="42.970707379281520843505859375" lon="-2.37605086527764797210693359375">
        <ele>903.79998779296875</ele>
        <time>2022-04-17T15:46:41.000Z</time>
      </trkpt>
      <trkpt lat="42.97070360742509365081787109375" lon="-2.3760631866753101348876953125">
        <ele>903.5999755859375</ele>
        <time>2022-04-17T15:46:42.000Z</time>
      </trkpt>
      <trkpt lat="42.9707015119493007659912109375" lon="-2.3760745860636234283447265625">
        <ele>903.5999755859375</ele>
        <time>2022-04-17T15:46:43.000Z</time>
      </trkpt>
      <trkpt lat="42.97069807536900043487548828125" lon="-2.37608246505260467529296875">
        <ele>903.4000244140625</ele>
        <time>2022-04-17T15:46:44.000Z</time>
      </trkpt>
      <trkpt lat="42.970694638788700103759765625" lon="-2.37608690746128559112548828125">
        <ele>903.4000244140625</ele>
        <time>2022-04-17T15:46:45.000Z</time>
      </trkpt>
      <trkpt lat="42.9706964828073978424072265625" lon="-2.37609361298382282257080078125">
        <ele>903.20001220703125</ele>
        <time>2022-04-17T15:46:46.000Z</time>
      </trkpt>
      <trkpt lat="42.97070343978703022003173828125" lon="-2.37610685639083385467529296875">
        <ele>903.20001220703125</ele>
        <time>2022-04-17T15:46:47.000Z</time>
      </trkpt>
      <trkpt lat="42.9707125760614871978759765625" lon="-2.37611976452171802520751953125">
        <ele>903.20001220703125</ele>
        <time>2022-04-17T15:46:48.000Z</time>
      </trkpt>
      <trkpt lat="42.97071911394596099853515625" lon="-2.37612915225327014923095703125">
        <ele>903.20001220703125</ele>
        <time>2022-04-17T15:46:49.000Z</time>
      </trkpt>
      <trkpt lat="42.9707243107259273529052734375" lon="-2.37613736651837825775146484375">
        <ele>903.20001220703125</ele>
        <time>2022-04-17T15:46:50.000Z</time>
      </trkpt>
      <trkpt lat="42.97073110006749629974365234375" lon="-2.376143150031566619873046875">
        <ele>903.20001220703125</ele>
        <time>2022-04-17T15:46:51.000Z</time>
      </trkpt>
      <trkpt lat="42.970736213028430938720703125" lon="-2.3761557228863239288330078125">
        <ele>903.20001220703125</ele>
        <time>2022-04-17T15:46:52.000Z</time>
      </trkpt>
      <trkpt lat="42.97073679976165294647216796875" lon="-2.3761661164462566375732421875">
        <ele>903.20001220703125</ele>
        <time>2022-04-17T15:46:53.000Z</time>
      </trkpt>
      <trkpt lat="42.97073663212358951568603515625" lon="-2.37617458216845989227294921875">
        <ele>903.20001220703125</ele>
        <time>2022-04-17T15:46:54.000Z</time>
      </trkpt>
      <trkpt lat="42.970732189714908599853515625" lon="-2.37617961131036281585693359375">
        <ele>903.20001220703125</ele>
        <time>2022-04-17T15:46:55.000Z</time>
      </trkpt>
      <trkpt lat="42.97072757966816425323486328125" lon="-2.376182712614536285400390625">
        <ele>903.20001220703125</ele>
        <time>2022-04-17T15:46:56.000Z</time>
      </trkpt>
      <trkpt lat="42.97072204761207103729248046875" lon="-2.37619109451770782470703125">
        <ele>903.20001220703125</ele>
        <time>2022-04-17T15:46:57.000Z</time>
      </trkpt>
      <trkpt lat="42.970718443393707275390625" lon="-2.376198135316371917724609375">
        <ele>903.20001220703125</ele>
        <time>2022-04-17T15:46:58.000Z</time>
      </trkpt>
      <trkpt lat="42.97071634791791439056396484375" lon="-2.3762033320963382720947265625">
        <ele>903.20001220703125</ele>
        <time>2022-04-17T15:46:59.000Z</time>
      </trkpt>
      <trkpt lat="42.97071685083210468292236328125" lon="-2.3762073554098606109619140625">
        <ele>903.20001220703125</ele>
        <time>2022-04-17T15:47:00.000Z</time>
      </trkpt>
      <trkpt lat="42.97071735374629497528076171875" lon="-2.37621263600885868072509765625">
        <ele>903.20001220703125</ele>
        <time>2022-04-17T15:47:01.000Z</time>
      </trkpt>
      <trkpt lat="42.9707171022891998291015625" lon="-2.376217581331729888916015625">
        <ele>903.20001220703125</ele>
        <time>2022-04-17T15:47:02.000Z</time>
      </trkpt>
      <trkpt lat="42.97071852721273899078369140625" lon="-2.37622302956879138946533203125">
        <ele>903</ele>
        <time>2022-04-17T15:47:03.000Z</time>
      </trkpt>
      <trkpt lat="42.97072053886950016021728515625" lon="-2.3762311600148677825927734375">
        <ele>903</ele>
        <time>2022-04-17T15:47:04.000Z</time>
      </trkpt>
      <trkpt lat="42.9707229696214199066162109375" lon="-2.37623878754675388336181640625">
        <ele>903</ele>
        <time>2022-04-17T15:47:05.000Z</time>
      </trkpt>
      <trkpt lat="42.97072456218302249908447265625" lon="-2.37624398432672023773193359375">
        <ele>903</ele>
        <time>2022-04-17T15:47:06.000Z</time>
      </trkpt>
      <trkpt lat="42.97072288580238819122314453125" lon="-2.3762547969818115234375">
        <ele>902.79998779296875</ele>
        <time>2022-04-17T15:47:07.000Z</time>
      </trkpt>
      <trkpt lat="42.9707199521362781524658203125" lon="-2.37626259215176105499267578125">
        <ele>902.79998779296875</ele>
        <time>2022-04-17T15:47:08.000Z</time>
      </trkpt>
      <trkpt lat="42.9707189463078975677490234375" lon="-2.37627030350267887115478515625">
        <ele>902.79998779296875</ele>
        <time>2022-04-17T15:47:09.000Z</time>
      </trkpt>
      <trkpt lat="42.97072439454495906829833984375" lon="-2.37627550028264522552490234375">
        <ele>902.79998779296875</ele>
        <time>2022-04-17T15:47:10.000Z</time>
      </trkpt>
      <trkpt lat="42.97073059715330600738525390625" lon="-2.3762737400829792022705078125">
        <ele>902.5999755859375</ele>
        <time>2022-04-17T15:47:11.000Z</time>
      </trkpt>
      <trkpt lat="42.9707336984574794769287109375" lon="-2.37627466209232807159423828125">
        <ele>902.5999755859375</ele>
        <time>2022-04-17T15:47:12.000Z</time>
      </trkpt>
      <trkpt lat="42.97073646448552608489990234375" lon="-2.37628287635743618011474609375">
        <ele>902.5999755859375</ele>
        <time>2022-04-17T15:47:13.000Z</time>
      </trkpt>
      <trkpt lat="42.9707387275993824005126953125" lon="-2.3762883245944976806640625">
        <ele>902.5999755859375</ele>
        <time>2022-04-17T15:47:14.000Z</time>
      </trkpt>
      <trkpt lat="42.97074115835130214691162109375" lon="-2.37629611976444721221923828125">
        <ele>902.4000244140625</ele>
        <time>2022-04-17T15:47:15.000Z</time>
      </trkpt>
      <trkpt lat="42.9707427509129047393798828125" lon="-2.37630240619182586669921875">
        <ele>902.20001220703125</ele>
        <time>2022-04-17T15:47:16.000Z</time>
      </trkpt>
      <trkpt lat="42.97074233181774616241455078125" lon="-2.37630165182054042816162109375">
        <ele>902.20001220703125</ele>
        <time>2022-04-17T15:47:17.000Z</time>
      </trkpt>
      <trkpt lat="42.970744259655475616455078125" lon="-2.37630617804825305938720703125">
        <ele>902.20001220703125</ele>
        <time>2022-04-17T15:47:18.000Z</time>
      </trkpt>
      <trkpt lat="42.97074283473193645477294921875" lon="-2.3763126321136951446533203125">
        <ele>902</ele>
        <time>2022-04-17T15:47:19.000Z</time>
      </trkpt>
      <trkpt lat="42.97074191272258758544921875" lon="-2.37631187774240970611572265625">
        <ele>902</ele>
        <time>2022-04-17T15:47:20.000Z</time>
      </trkpt>
      <trkpt lat="42.9707404039800167083740234375" lon="-2.3763200081884860992431640625">
        <ele>902.20001220703125</ele>
        <time>2022-04-17T15:47:21.000Z</time>
      </trkpt>
      <trkpt lat="42.97073914669454097747802734375" lon="-2.37632964737713336944580078125">
        <ele>902.20001220703125</ele>
        <time>2022-04-17T15:47:22.000Z</time>
      </trkpt>
      <trkpt lat="42.97073244117200374603271484375" lon="-2.37634205259382724761962890625">
        <ele>902.20001220703125</ele>
        <time>2022-04-17T15:47:23.000Z</time>
      </trkpt>
      <trkpt lat="42.970724143087863922119140625" lon="-2.37635160796344280242919921875">
        <ele>902.20001220703125</ele>
        <time>2022-04-17T15:47:24.000Z</time>
      </trkpt>
      <trkpt lat="42.97072238288819789886474609375" lon="-2.3763578943908214569091796875">
        <ele>902.20001220703125</ele>
        <time>2022-04-17T15:47:25.000Z</time>
      </trkpt>
      <trkpt lat="42.97071785666048526763916015625" lon="-2.37637289799749851226806640625">
        <ele>902.20001220703125</ele>
        <time>2022-04-17T15:47:26.000Z</time>
      </trkpt>
      <trkpt lat="42.97070830129086971282958984375" lon="-2.37638329155743122100830078125">
        <ele>902</ele>
        <time>2022-04-17T15:47:27.000Z</time>
      </trkpt>
      <trkpt lat="42.97070838510990142822265625" lon="-2.37639117054641246795654296875">
        <ele>901.79998779296875</ele>
        <time>2022-04-17T15:47:28.000Z</time>
      </trkpt>
      <trkpt lat="42.97071316279470920562744140625" lon="-2.37640256993472576141357421875">
        <ele>901.5999755859375</ele>
        <time>2022-04-17T15:47:29.000Z</time>
      </trkpt>
      <trkpt lat="42.970720119774341583251953125" lon="-2.37641371786594390869140625">
        <ele>901.5999755859375</ele>
        <time>2022-04-17T15:47:30.000Z</time>
      </trkpt>
      <trkpt lat="42.97074233181774616241455078125" lon="-2.37642981112003326416015625">
        <ele>901.5999755859375</ele>
        <time>2022-04-17T15:47:31.000Z</time>
      </trkpt>
      <trkpt lat="42.9707484506070613861083984375" lon="-2.37643861211836338043212890625">
        <ele>901.5999755859375</ele>
        <time>2022-04-17T15:47:32.000Z</time>
      </trkpt>
      <trkpt lat="42.97074669040739536285400390625" lon="-2.3764484189450740814208984375">
        <ele>901.5999755859375</ele>
        <time>2022-04-17T15:47:33.000Z</time>
      </trkpt>
      <trkpt lat="42.97074082307517528533935546875" lon="-2.376459650695323944091796875">
        <ele>901.5999755859375</ele>
        <time>2022-04-17T15:47:34.000Z</time>
      </trkpt>
      <trkpt lat="42.97074082307517528533935546875" lon="-2.37646845169365406036376953125">
        <ele>901.5999755859375</ele>
        <time>2022-04-17T15:47:35.000Z</time>
      </trkpt>
      <trkpt lat="42.97074057161808013916015625" lon="-2.37647498957812786102294921875">
        <ele>901.5999755859375</ele>
        <time>2022-04-17T15:47:36.000Z</time>
      </trkpt>
      <trkpt lat="42.97073612920939922332763671875" lon="-2.3764812760055065155029296875">
        <ele>901.4000244140625</ele>
        <time>2022-04-17T15:47:37.000Z</time>
      </trkpt>
      <trkpt lat="42.97072757966816425323486328125" lon="-2.3764886520802974700927734375">
        <ele>901.4000244140625</ele>
        <time>2022-04-17T15:47:38.000Z</time>
      </trkpt>
      <trkpt lat="42.97071953304111957550048828125" lon="-2.37649795599281787872314453125">
        <ele>901.4000244140625</ele>
        <time>2022-04-17T15:47:39.000Z</time>
      </trkpt>
      <trkpt lat="42.97071299515664577484130859375" lon="-2.37650868482887744903564453125">
        <ele>901.20001220703125</ele>
        <time>2022-04-17T15:47:40.000Z</time>
      </trkpt>
      <trkpt lat="42.97070838510990142822265625" lon="-2.3765181563794612884521484375">
        <ele>901</ele>
        <time>2022-04-17T15:47:41.000Z</time>
      </trkpt>
      <trkpt lat="42.970703355967998504638671875" lon="-2.37652712501585483551025390625">
        <ele>900.79998779296875</ele>
        <time>2022-04-17T15:47:42.000Z</time>
      </trkpt>
      <trkpt lat="42.9707035236060619354248046875" lon="-2.37653399817645549774169921875">
        <ele>900.79998779296875</ele>
        <time>2022-04-17T15:47:43.000Z</time>
      </trkpt>
      <trkpt lat="42.97070704400539398193359375" lon="-2.37654506228864192962646484375">
        <ele>900.5999755859375</ele>
        <time>2022-04-17T15:47:44.000Z</time>
      </trkpt>
      <trkpt lat="42.97070763073861598968505859375" lon="-2.37654858268797397613525390625">
        <ele>900.5999755859375</ele>
        <time>2022-04-17T15:47:45.000Z</time>
      </trkpt>
      <trkpt lat="42.9707031883299350738525390625" lon="-2.37655746750533580780029296875">
        <ele>900.5999755859375</ele>
        <time>2022-04-17T15:47:46.000Z</time>
      </trkpt>
      <trkpt lat="42.9707021825015544891357421875" lon="-2.37657205201685428619384765625">
        <ele>900.5999755859375</ele>
        <time>2022-04-17T15:47:47.000Z</time>
      </trkpt>
      <trkpt lat="42.97069631516933441162109375" lon="-2.37658529542386531829833984375">
        <ele>900.5999755859375</ele>
        <time>2022-04-17T15:47:48.000Z</time>
      </trkpt>
      <trkpt lat="42.97068902291357517242431640625" lon="-2.3765939287841320037841796875">
        <ele>900.4000244140625</ele>
        <time>2022-04-17T15:47:49.000Z</time>
      </trkpt>
      <trkpt lat="42.9706854186952114105224609375" lon="-2.376606501638889312744140625">
        <ele>900.20001220703125</ele>
        <time>2022-04-17T15:47:50.000Z</time>
      </trkpt>
      <trkpt lat="42.9706813953816890716552734375" lon="-2.37661614082753658294677734375">
        <ele>900.20001220703125</ele>
        <time>2022-04-17T15:47:51.000Z</time>
      </trkpt>
      <trkpt lat="42.9706767015159130096435546875" lon="-2.3766271211206912994384765625">
        <ele>900</ele>
        <time>2022-04-17T15:47:52.000Z</time>
      </trkpt>
      <trkpt lat="42.97067460604012012481689453125" lon="-2.3766425438225269317626953125">
        <ele>900</ele>
        <time>2022-04-17T15:47:53.000Z</time>
      </trkpt>
      <trkpt lat="42.9706741869449615478515625" lon="-2.37665737979114055633544921875">
        <ele>900</ele>
        <time>2022-04-17T15:47:54.000Z</time>
      </trkpt>
      <trkpt lat="42.97067007981240749359130859375" lon="-2.3766723833978176116943359375">
        <ele>900</ele>
        <time>2022-04-17T15:47:55.000Z</time>
      </trkpt>
      <trkpt lat="42.9706656374037265777587890625" lon="-2.3766928352415561676025390625">
        <ele>900</ele>
        <time>2022-04-17T15:47:56.000Z</time>
      </trkpt>
      <trkpt lat="42.9706582613289356231689453125" lon="-2.376707084476947784423828125">
        <ele>900</ele>
        <time>2022-04-17T15:47:57.000Z</time>
      </trkpt>
      <trkpt lat="42.97065482474863529205322265625" lon="-2.3767280392348766326904296875">
        <ele>900</ele>
        <time>2022-04-17T15:47:58.000Z</time>
      </trkpt>
      <trkpt lat="42.97065465711057186126708984375" lon="-2.37675544805824756622314453125">
        <ele>900</ele>
        <time>2022-04-17T15:47:59.000Z</time>
      </trkpt>
      <trkpt lat="42.9706580936908721923828125" lon="-2.3767818510532379150390625">
        <ele>900</ele>
        <time>2022-04-17T15:48:00.000Z</time>
      </trkpt>
      <trkpt lat="42.9706619493663311004638671875" lon="-2.37679316662251949310302734375">
        <ele>899.79998779296875</ele>
        <time>2022-04-17T15:48:01.000Z</time>
      </trkpt>
      <trkpt lat="42.970661781728267669677734375" lon="-2.37680255435407161712646484375">
        <ele>899.79998779296875</ele>
        <time>2022-04-17T15:48:02.000Z</time>
      </trkpt>
      <trkpt lat="42.970658428966999053955078125" lon="-2.37681093625724315643310546875">
        <ele>899.5999755859375</ele>
        <time>2022-04-17T15:48:03.000Z</time>
      </trkpt>
      <trkpt lat="42.97066153027117252349853515625" lon="-2.37681831233203411102294921875">
        <ele>899.5999755859375</ele>
        <time>2022-04-17T15:48:04.000Z</time>
      </trkpt>
      <trkpt lat="42.97066370956599712371826171875" lon="-2.3768262751400470733642578125">
        <ele>899.4000244140625</ele>
        <time>2022-04-17T15:48:05.000Z</time>
      </trkpt>
      <trkpt lat="42.9706656374037265777587890625" lon="-2.3768373392522335052490234375">
        <ele>899.20001220703125</ele>
        <time>2022-04-17T15:48:06.000Z</time>
      </trkpt>
      <trkpt lat="42.9706629551947116851806640625" lon="-2.3768435418605804443359375">
        <ele>899</ele>
        <time>2022-04-17T15:48:07.000Z</time>
      </trkpt>
      <trkpt lat="42.9706649668514728546142578125" lon="-2.37685150466859340667724609375">
        <ele>898.79998779296875</ele>
        <time>2022-04-17T15:48:08.000Z</time>
      </trkpt>
      <trkpt lat="42.97067577950656414031982421875" lon="-2.3768648318946361541748046875">
        <ele>898.5999755859375</ele>
        <time>2022-04-17T15:48:09.000Z</time>
      </trkpt>
      <trkpt lat="42.97068030573427677154541015625" lon="-2.3768765665590763092041015625">
        <ele>898.5999755859375</ele>
        <time>2022-04-17T15:48:10.000Z</time>
      </trkpt>
      <trkpt lat="42.97068198211491107940673828125" lon="-2.37689056433737277984619140625">
        <ele>898.5999755859375</ele>
        <time>2022-04-17T15:48:11.000Z</time>
      </trkpt>
      <trkpt lat="42.97067963518202304840087890625" lon="-2.37691084854304790496826171875">
        <ele>898.4000244140625</ele>
        <time>2022-04-17T15:48:12.000Z</time>
      </trkpt>
      <trkpt lat="42.97067862935364246368408203125" lon="-2.37692023627460002899169921875">
        <ele>898.4000244140625</ele>
        <time>2022-04-17T15:48:13.000Z</time>
      </trkpt>
      <trkpt lat="42.97067695297300815582275390625" lon="-2.376928031444549560546875">
        <ele>898.4000244140625</ele>
        <time>2022-04-17T15:48:14.000Z</time>
      </trkpt>
      <trkpt lat="42.97067343257367610931396484375" lon="-2.3769362457096576690673828125">
        <ele>898.20001220703125</ele>
        <time>2022-04-17T15:48:15.000Z</time>
      </trkpt>
      <trkpt lat="42.9706699959933757781982421875" lon="-2.37694211304187774658203125">
        <ele>898.20001220703125</ele>
        <time>2022-04-17T15:48:16.000Z</time>
      </trkpt>
      <trkpt lat="42.97066438011825084686279296875" lon="-2.3769603855907917022705078125">
        <ele>898.20001220703125</ele>
        <time>2022-04-17T15:48:17.000Z</time>
      </trkpt>
      <trkpt lat="42.97066153027117252349853515625" lon="-2.37697429955005645751953125">
        <ele>898.20001220703125</ele>
        <time>2022-04-17T15:48:18.000Z</time>
      </trkpt>
      <trkpt lat="42.9706629551947116851806640625" lon="-2.37698259763419628143310546875">
        <ele>898.4000244140625</ele>
        <time>2022-04-17T15:48:19.000Z</time>
      </trkpt>
      <trkpt lat="42.97066438011825084686279296875" lon="-2.37699441611766815185546875">
        <ele>898.4000244140625</ele>
        <time>2022-04-17T15:48:20.000Z</time>
      </trkpt>
      <trkpt lat="42.97066890634596347808837890625" lon="-2.37700724042952060699462890625">
        <ele>898.5999755859375</ele>
        <time>2022-04-17T15:48:21.000Z</time>
      </trkpt>
      <trkpt lat="42.9706622846424579620361328125" lon="-2.3770160414278507232666015625">
        <ele>898.5999755859375</ele>
        <time>2022-04-17T15:48:22.000Z</time>
      </trkpt>
      <trkpt lat="42.970652393996715545654296875" lon="-2.377024590969085693359375">
        <ele>898.5999755859375</ele>
        <time>2022-04-17T15:48:23.000Z</time>
      </trkpt>
      <trkpt lat="42.97065205872058868408203125" lon="-2.3770317994058132171630859375">
        <ele>898.5999755859375</ele>
        <time>2022-04-17T15:48:24.000Z</time>
      </trkpt>
      <trkpt lat="42.97065608203411102294921875" lon="-2.3770371638238430023193359375">
        <ele>898.79998779296875</ele>
        <time>2022-04-17T15:48:25.000Z</time>
      </trkpt>
      <trkpt lat="42.9706589318811893463134765625" lon="-2.3770448751747608184814453125">
        <ele>898.79998779296875</ele>
        <time>2022-04-17T15:48:26.000Z</time>
      </trkpt>
      <trkpt lat="42.9706612788140773773193359375" lon="-2.37705082632601261138916015625">
        <ele>898.79998779296875</ele>
        <time>2022-04-17T15:48:27.000Z</time>
      </trkpt>
      <trkpt lat="42.9706569202244281768798828125" lon="-2.3770592920482158660888671875">
        <ele>898.79998779296875</ele>
        <time>2022-04-17T15:48:28.000Z</time>
      </trkpt>
      <trkpt lat="42.97065205872058868408203125" lon="-2.37706859596073627471923828125">
        <ele>898.79998779296875</ele>
        <time>2022-04-17T15:48:29.000Z</time>
      </trkpt>
      <trkpt lat="42.97064443118870258331298828125" lon="-2.37708217464387416839599609375">
        <ele>898.79998779296875</ele>
        <time>2022-04-17T15:48:30.000Z</time>
      </trkpt>
      <trkpt lat="42.97063990496098995208740234375" lon="-2.3770921491086483001708984375">
        <ele>898.79998779296875</ele>
        <time>2022-04-17T15:48:31.000Z</time>
      </trkpt>
      <trkpt lat="42.9706388153135776519775390625" lon="-2.37710027955472469329833984375">
        <ele>898.79998779296875</ele>
        <time>2022-04-17T15:48:32.000Z</time>
      </trkpt>
      <trkpt lat="42.9706393182277679443359375" lon="-2.37712173722684383392333984375">
        <ele>898.79998779296875</ele>
        <time>2022-04-17T15:48:33.000Z</time>
      </trkpt>
      <trkpt lat="42.970636300742626190185546875" lon="-2.37713791429996490478515625">
        <ele>898.79998779296875</ele>
        <time>2022-04-17T15:48:34.000Z</time>
      </trkpt>
      <trkpt lat="42.97063604928553104400634765625" lon="-2.3771598748862743377685546875">
        <ele>898.79998779296875</ele>
        <time>2022-04-17T15:48:35.000Z</time>
      </trkpt>
      <trkpt lat="42.97063722275197505950927734375" lon="-2.37717454321682453155517578125">
        <ele>898.79998779296875</ele>
        <time>2022-04-17T15:48:36.000Z</time>
      </trkpt>
      <trkpt lat="42.97063739039003849029541015625" lon="-2.3771836794912815093994140625">
        <ele>898.79998779296875</ele>
        <time>2022-04-17T15:48:37.000Z</time>
      </trkpt>
      <trkpt lat="42.970642335712909698486328125" lon="-2.37719499506056308746337890625">
        <ele>898.79998779296875</ele>
        <time>2022-04-17T15:48:38.000Z</time>
      </trkpt>
      <trkpt lat="42.9706458561122417449951171875" lon="-2.37720253877341747283935546875">
        <ele>898.79998779296875</ele>
        <time>2022-04-17T15:48:39.000Z</time>
      </trkpt>
      <trkpt lat="42.9706448502838611602783203125" lon="-2.377209998667240142822265625">
        <ele>899</ele>
        <time>2022-04-17T15:48:40.000Z</time>
      </trkpt>
      <trkpt lat="42.97064593993127346038818359375" lon="-2.3772208951413631439208984375">
        <ele>898.79998779296875</ele>
        <time>2022-04-17T15:48:41.000Z</time>
      </trkpt>
      <trkpt lat="42.97063956968486309051513671875" lon="-2.3772326298058032989501953125">
        <ele>899</ele>
        <time>2022-04-17T15:48:42.000Z</time>
      </trkpt>
      <trkpt lat="42.9706431739032268524169921875" lon="-2.37723908387124538421630859375">
        <ele>898.79998779296875</ele>
        <time>2022-04-17T15:48:43.000Z</time>
      </trkpt>
      <trkpt lat="42.97064845450222492218017578125" lon="-2.3772378265857696533203125">
        <ele>898.79998779296875</ele>
        <time>2022-04-17T15:48:44.000Z</time>
      </trkpt>
      <trkpt lat="42.97065339982509613037109375" lon="-2.3772453702986240386962890625">
        <ele>898.79998779296875</ele>
        <time>2022-04-17T15:48:45.000Z</time>
      </trkpt>
      <trkpt lat="42.97065968625247478485107421875" lon="-2.3772611282765865325927734375">
        <ele>899</ele>
        <time>2022-04-17T15:48:46.000Z</time>
      </trkpt>
      <trkpt lat="42.97066722996532917022705078125" lon="-2.3772731982171535491943359375">
        <ele>899</ele>
        <time>2022-04-17T15:48:47.000Z</time>
      </trkpt>
      <trkpt lat="42.970661111176013946533203125" lon="-2.37729256041347980499267578125">
        <ele>899</ele>
        <time>2022-04-17T15:48:48.000Z</time>
      </trkpt>
      <trkpt lat="42.97066169790923595428466796875" lon="-2.37729976885020732879638671875">
        <ele>899.20001220703125</ele>
        <time>2022-04-17T15:48:49.000Z</time>
      </trkpt>
      <trkpt lat="42.970663122832775115966796875" lon="-2.3773094080388545989990234375">
        <ele>899.20001220703125</ele>
        <time>2022-04-17T15:48:50.000Z</time>
      </trkpt>
      <trkpt lat="42.97067024745047092437744140625" lon="-2.37732239998877048492431640625">
        <ele>899.4000244140625</ele>
        <time>2022-04-17T15:48:51.000Z</time>
      </trkpt>
      <trkpt lat="42.9706753604114055633544921875" lon="-2.37733162008225917816162109375">
        <ele>899.4000244140625</ele>
        <time>2022-04-17T15:48:52.000Z</time>
      </trkpt>
      <trkpt lat="42.97068315558135509490966796875" lon="-2.37734972499310970306396484375">
        <ele>899.5999755859375</ele>
        <time>2022-04-17T15:48:53.000Z</time>
      </trkpt>
      <trkpt lat="42.970687933266162872314453125" lon="-2.3773630522191524505615234375">
        <ele>899.5999755859375</ele>
        <time>2022-04-17T15:48:54.000Z</time>
      </trkpt>
      <trkpt lat="42.970693968236446380615234375" lon="-2.3773808218538761138916015625">
        <ele>899.5999755859375</ele>
        <time>2022-04-17T15:48:55.000Z</time>
      </trkpt>
      <trkpt lat="42.9707008413970470428466796875" lon="-2.37739733420312404632568359375">
        <ele>899.5999755859375</ele>
        <time>2022-04-17T15:48:56.000Z</time>
      </trkpt>
      <trkpt lat="42.97070142813026905059814453125" lon="-2.377410493791103363037109375">
        <ele>899.5999755859375</ele>
        <time>2022-04-17T15:48:57.000Z</time>
      </trkpt>
      <trkpt lat="42.97070167958736419677734375" lon="-2.377416193485260009765625">
        <ele>899.5999755859375</ele>
        <time>2022-04-17T15:48:58.000Z</time>
      </trkpt>
      <trkpt lat="42.9707065410912036895751953125" lon="-2.3774260841310024261474609375">
        <ele>899.5999755859375</ele>
        <time>2022-04-17T15:48:59.000Z</time>
      </trkpt>
      <trkpt lat="42.97070704400539398193359375" lon="-2.377437651157379150390625">
        <ele>899.4000244140625</ele>
        <time>2022-04-17T15:49:00.000Z</time>
      </trkpt>
      <trkpt lat="42.97071198932826519012451171875" lon="-2.3774555884301662445068359375">
        <ele>899.4000244140625</ele>
        <time>2022-04-17T15:49:01.000Z</time>
      </trkpt>
      <trkpt lat="42.97071953304111957550048828125" lon="-2.3774746991693973541259765625">
        <ele>899.4000244140625</ele>
        <time>2022-04-17T15:49:02.000Z</time>
      </trkpt>
      <trkpt lat="42.97072607092559337615966796875" lon="-2.37747495062649250030517578125">
        <ele>899.4000244140625</ele>
        <time>2022-04-17T15:49:03.000Z</time>
      </trkpt>
      <trkpt lat="42.9707286693155765533447265625" lon="-2.37748526036739349365234375">
        <ele>899.4000244140625</ele>
        <time>2022-04-17T15:49:04.000Z</time>
      </trkpt>
      <trkpt lat="42.9707336984574794769287109375" lon="-2.3774951510131359100341796875">
        <ele>899.4000244140625</ele>
        <time>2022-04-17T15:49:05.000Z</time>
      </trkpt>
      <trkpt lat="42.97073445282876491546630859375" lon="-2.3775025270879268646240234375">
        <ele>899.4000244140625</ele>
        <time>2022-04-17T15:49:06.000Z</time>
      </trkpt>
      <trkpt lat="42.97073411755263805389404296875" lon="-2.37750470638275146484375">
        <ele>899.4000244140625</ele>
        <time>2022-04-17T15:49:07.000Z</time>
      </trkpt>
      <trkpt lat="42.97073864378035068511962890625" lon="-2.37750579603016376495361328125">
        <ele>899.4000244140625</ele>
        <time>2022-04-17T15:49:08.000Z</time>
      </trkpt>
      <trkpt lat="42.97074350528419017791748046875" lon="-2.37751250155270099639892578125">
        <ele>899.4000244140625</ele>
        <time>2022-04-17T15:49:09.000Z</time>
      </trkpt>
      <trkpt lat="42.9707410745322704315185546875" lon="-2.3775199614465236663818359375">
        <ele>899.4000244140625</ele>
        <time>2022-04-17T15:49:10.000Z</time>
      </trkpt>
      <trkpt lat="42.97073931433260440826416015625" lon="-2.3775226436555385589599609375">
        <ele>899.4000244140625</ele>
        <time>2022-04-17T15:49:11.000Z</time>
      </trkpt>
      <trkpt lat="42.970742918550968170166015625" lon="-2.37751635722815990447998046875">
        <ele>899.4000244140625</ele>
        <time>2022-04-17T15:49:12.000Z</time>
      </trkpt>
      <trkpt lat="42.970743589103221893310546875" lon="-2.37751015461981296539306640625">
        <ele>899.4000244140625</ele>
        <time>2022-04-17T15:49:13.000Z</time>
      </trkpt>
      <trkpt lat="42.97074166126549243927001953125" lon="-2.37751233391463756561279296875">
        <ele>899.4000244140625</ele>
        <time>2022-04-17T15:49:14.000Z</time>
      </trkpt>
      <trkpt lat="42.97075222246348857879638671875" lon="-2.37752071581780910491943359375">
        <ele>899.4000244140625</ele>
        <time>2022-04-17T15:49:15.000Z</time>
      </trkpt>
      <trkpt lat="42.9707585088908672332763671875" lon="-2.3775202967226505279541015625">
        <ele>899.4000244140625</ele>
        <time>2022-04-17T15:49:16.000Z</time>
      </trkpt>
      <trkpt lat="42.970762364566326141357421875" lon="-2.37752054817974567413330078125">
        <ele>899.4000244140625</ele>
        <time>2022-04-17T15:49:17.000Z</time>
      </trkpt>
      <trkpt lat="42.97076798044145107269287109375" lon="-2.3775192908942699432373046875">
        <ele>899.4000244140625</ele>
        <time>2022-04-17T15:49:18.000Z</time>
      </trkpt>
      <trkpt lat="42.97076848335564136505126953125" lon="-2.3775152675807476043701171875">
        <ele>899.20001220703125</ele>
        <time>2022-04-17T15:49:19.000Z</time>
      </trkpt>
      <trkpt lat="42.97076278366148471832275390625" lon="-2.37752255983650684356689453125">
        <ele>899.20001220703125</ele>
        <time>2022-04-17T15:49:20.000Z</time>
      </trkpt>
      <trkpt lat="42.97076228074729442596435546875" lon="-2.37752641551196575164794921875">
        <ele>899.20001220703125</ele>
        <time>2022-04-17T15:49:21.000Z</time>
      </trkpt>
      <trkpt lat="42.97076228074729442596435546875" lon="-2.37752641551196575164794921875">
        <ele>899.20001220703125</ele>
        <time>2022-04-17T15:49:22.000Z</time>
      </trkpt>
      <trkpt lat="42.97076228074729442596435546875" lon="-2.37752641551196575164794921875">
        <ele>899.20001220703125</ele>
        <time>2022-04-17T15:49:23.000Z</time>
      </trkpt>
      <trkpt lat="42.97076228074729442596435546875" lon="-2.37752641551196575164794921875">
        <ele>899.20001220703125</ele>
        <time>2022-04-17T15:49:24.000Z</time>
      </trkpt>
      <trkpt lat="42.97076228074729442596435546875" lon="-2.37752641551196575164794921875">
        <ele>899.20001220703125</ele>
        <time>2022-04-17T15:49:25.000Z</time>
      </trkpt>
      <trkpt lat="42.97076228074729442596435546875" lon="-2.37752641551196575164794921875">
        <ele>899</ele>
        <time>2022-04-17T15:49:26.000Z</time>
      </trkpt>
      <trkpt lat="42.97076228074729442596435546875" lon="-2.37752641551196575164794921875">
        <ele>899</ele>
        <time>2022-04-17T15:49:27.000Z</time>
      </trkpt>
      <trkpt lat="42.97076228074729442596435546875" lon="-2.37752641551196575164794921875">
        <ele>899</ele>
        <time>2022-04-17T15:49:28.000Z</time>
      </trkpt>
      <trkpt lat="42.97076228074729442596435546875" lon="-2.37752641551196575164794921875">
        <ele>898.79998779296875</ele>
        <time>2022-04-17T15:49:29.000Z</time>
      </trkpt>
      <trkpt lat="42.97076228074729442596435546875" lon="-2.37752641551196575164794921875">
        <ele>898.79998779296875</ele>
        <time>2022-04-17T15:49:30.000Z</time>
      </trkpt>
      <trkpt lat="42.97076228074729442596435546875" lon="-2.37752641551196575164794921875">
        <ele>898.79998779296875</ele>
        <time>2022-04-17T15:49:31.000Z</time>
      </trkpt>
      <trkpt lat="42.97076228074729442596435546875" lon="-2.37752641551196575164794921875">
        <ele>898.79998779296875</ele>
        <time>2022-04-17T15:49:32.000Z</time>
      </trkpt>
      <trkpt lat="42.97076060436666011810302734375" lon="-2.37752641551196575164794921875">
        <ele>898.79998779296875</ele>
        <time>2022-04-17T15:49:33.000Z</time>
      </trkpt>
      <trkpt lat="42.970759682357311248779296875" lon="-2.37752641551196575164794921875">
        <ele>898.79998779296875</ele>
        <time>2022-04-17T15:49:34.000Z</time>
      </trkpt>
      <trkpt lat="42.97075859270989894866943359375" lon="-2.37752641551196575164794921875">
        <ele>898.79998779296875</ele>
        <time>2022-04-17T15:49:35.000Z</time>
      </trkpt>
      <trkpt lat="42.97075666487216949462890625" lon="-2.37752641551196575164794921875">
        <ele>898.79998779296875</ele>
        <time>2022-04-17T15:49:36.000Z</time>
      </trkpt>
      <trkpt lat="42.9707564972341060638427734375" lon="-2.37752641551196575164794921875">
        <ele>898.79998779296875</ele>
        <time>2022-04-17T15:49:37.000Z</time>
      </trkpt>
      <trkpt lat="42.9707564972341060638427734375" lon="-2.37752641551196575164794921875">
        <ele>898.79998779296875</ele>
        <time>2022-04-17T15:49:38.000Z</time>
      </trkpt>
      <trkpt lat="42.97075473703444004058837890625" lon="-2.37752641551196575164794921875">
        <ele>898.5999755859375</ele>
        <time>2022-04-17T15:49:39.000Z</time>
      </trkpt>
      <trkpt lat="42.97075331211090087890625" lon="-2.37752641551196575164794921875">
        <ele>898.5999755859375</ele>
        <time>2022-04-17T15:49:40.000Z</time>
      </trkpt>
      <trkpt lat="42.9707528091967105865478515625" lon="-2.3775280080735683441162109375">
        <ele>898.5999755859375</ele>
        <time>2022-04-17T15:49:41.000Z</time>
      </trkpt>
      <trkpt lat="42.97075272537767887115478515625" lon="-2.377533204853534698486328125">
        <ele>898.4000244140625</ele>
        <time>2022-04-17T15:49:42.000Z</time>
      </trkpt>
      <trkpt lat="42.97075272537767887115478515625" lon="-2.37753530032932758331298828125">
        <ele>898.4000244140625</ele>
        <time>2022-04-17T15:49:43.000Z</time>
      </trkpt>
      <trkpt lat="42.97075272537767887115478515625" lon="-2.37753714434802532196044921875">
        <ele>898.4000244140625</ele>
        <time>2022-04-17T15:49:44.000Z</time>
      </trkpt>
      <trkpt lat="42.97075272537767887115478515625" lon="-2.3775384016335010528564453125">
        <ele>898.4000244140625</ele>
        <time>2022-04-17T15:49:45.000Z</time>
      </trkpt>
      <trkpt lat="42.97074853442609310150146484375" lon="-2.377543263137340545654296875">
        <ele>898.20001220703125</ele>
        <time>2022-04-17T15:49:46.000Z</time>
      </trkpt>
      <trkpt lat="42.9707440920174121856689453125" lon="-2.377547286450862884521484375">
        <ele>898.20001220703125</ele>
        <time>2022-04-17T15:49:47.000Z</time>
      </trkpt>
      <trkpt lat="42.9707410745322704315185546875" lon="-2.37754804082214832305908203125">
        <ele>898</ele>
        <time>2022-04-17T15:49:48.000Z</time>
      </trkpt>
      <trkpt lat="42.9707347042858600616455078125" lon="-2.377549968659877777099609375">
        <ele>897.79998779296875</ele>
        <time>2022-04-17T15:49:49.000Z</time>
      </trkpt>
      <trkpt lat="42.970729172229766845703125" lon="-2.3775578476488590240478515625">
        <ele>897.79998779296875</ele>
        <time>2022-04-17T15:49:50.000Z</time>
      </trkpt>
      <trkpt lat="42.97072741203010082244873046875" lon="-2.37756329588592052459716796875">
        <ele>897.5999755859375</ele>
        <time>2022-04-17T15:49:51.000Z</time>
      </trkpt>
      <trkpt lat="42.9707266576588153839111328125" lon="-2.37756463699042797088623046875">
        <ele>897.4000244140625</ele>
        <time>2022-04-17T15:49:52.000Z</time>
      </trkpt>
      <trkpt lat="42.97072607092559337615966796875" lon="-2.377572096884250640869140625">
        <ele>897.4000244140625</ele>
        <time>2022-04-17T15:49:53.000Z</time>
      </trkpt>
      <trkpt lat="42.970724813640117645263671875" lon="-2.37757670693099498748779296875">
        <ele>897.20001220703125</ele>
        <time>2022-04-17T15:49:54.000Z</time>
      </trkpt>
      <trkpt lat="42.9707246460020542144775390625" lon="-2.37758542411029338836669921875">
        <ele>897</ele>
        <time>2022-04-17T15:49:55.000Z</time>
      </trkpt>
      <trkpt lat="42.9707251489162445068359375" lon="-2.377602271735668182373046875">
        <ele>896.79998779296875</ele>
        <time>2022-04-17T15:49:56.000Z</time>
      </trkpt>
      <trkpt lat="42.97072908841073513031005859375" lon="-2.377625741064548492431640625">
        <ele>896.5999755859375</ele>
        <time>2022-04-17T15:49:57.000Z</time>
      </trkpt>
      <trkpt lat="42.9707276634871959686279296875" lon="-2.37765365280210971832275390625">
        <ele>896.5999755859375</ele>
        <time>2022-04-17T15:49:58.000Z</time>
      </trkpt>
      <trkpt lat="42.97072581946849822998046875" lon="-2.3776886053383350372314453125">
        <ele>896.4000244140625</ele>
        <time>2022-04-17T15:49:59.000Z</time>
      </trkpt>
      <trkpt lat="42.97072757966816425323486328125" lon="-2.37772422842681407928466796875">
        <ele>896.20001220703125</ele>
        <time>2022-04-17T15:50:00.000Z</time>
      </trkpt>
      <trkpt lat="42.97072942368686199188232421875" lon="-2.3777519725263118743896484375">
        <ele>896</ele>
        <time>2022-04-17T15:50:01.000Z</time>
      </trkpt>
      <trkpt lat="42.9707276634871959686279296875" lon="-2.37778038717806339263916015625">
        <ele>896</ele>
        <time>2022-04-17T15:50:02.000Z</time>
      </trkpt>
      <trkpt lat="42.97072791494429111480712890625" lon="-2.37780821509659290313720703125">
        <ele>895.79998779296875</ele>
        <time>2022-04-17T15:50:03.000Z</time>
      </trkpt>
      <trkpt lat="42.97072640620172023773193359375" lon="-2.37783554010093212127685546875">
        <ele>895.5999755859375</ele>
        <time>2022-04-17T15:50:04.000Z</time>
      </trkpt>
      <trkpt lat="42.97072707675397396087646484375" lon="-2.37786345183849334716796875">
        <ele>895.4000244140625</ele>
        <time>2022-04-17T15:50:05.000Z</time>
      </trkpt>
      <trkpt lat="42.97072707675397396087646484375" lon="-2.3778797127306461334228515625">
        <ele>895.4000244140625</ele>
        <time>2022-04-17T15:50:06.000Z</time>
      </trkpt>
      <trkpt lat="42.97072791494429111480712890625" lon="-2.37789605744183063507080078125">
        <ele>895.20001220703125</ele>
        <time>2022-04-17T15:50:07.000Z</time>
      </trkpt>
      <trkpt lat="42.97072942368686199188232421875" lon="-2.37791231833398342132568359375">
        <ele>895</ele>
        <time>2022-04-17T15:50:08.000Z</time>
      </trkpt>
      <trkpt lat="42.97072892077267169952392578125" lon="-2.3779273219406604766845703125">
        <ele>895</ele>
        <time>2022-04-17T15:50:09.000Z</time>
      </trkpt>
      <trkpt lat="42.9707353748381137847900390625" lon="-2.37794249318540096282958984375">
        <ele>894.79998779296875</ele>
        <time>2022-04-17T15:50:10.000Z</time>
      </trkpt>
      <trkpt lat="42.97073931433260440826416015625" lon="-2.3779568262398242950439453125">
        <ele>894.79998779296875</ele>
        <time>2022-04-17T15:50:11.000Z</time>
      </trkpt>
      <trkpt lat="42.97074970789253711700439453125" lon="-2.37796814180910587310791015625">
        <ele>895</ele>
        <time>2022-04-17T15:50:12.000Z</time>
      </trkpt>
      <trkpt lat="42.97075708396732807159423828125" lon="-2.37798012793064117431640625">
        <ele>895</ele>
        <time>2022-04-17T15:50:13.000Z</time>
      </trkpt>
      <trkpt lat="42.9707595147192478179931640625" lon="-2.37799077294766902923583984375">
        <ele>895</ele>
        <time>2022-04-17T15:50:14.000Z</time>
      </trkpt>
      <trkpt lat="42.9707628674805164337158203125" lon="-2.3779990710318088531494140625">
        <ele>895</ele>
        <time>2022-04-17T15:50:15.000Z</time>
      </trkpt>
      <trkpt lat="42.97076404094696044921875" lon="-2.3780074529349803924560546875">
        <ele>895</ele>
        <time>2022-04-17T15:50:16.000Z</time>
      </trkpt>
      <trkpt lat="42.9707665555179119110107421875" lon="-2.37802010960876941680908203125">
        <ele>895</ele>
        <time>2022-04-17T15:50:17.000Z</time>
      </trkpt>
      <trkpt lat="42.97076932154595851898193359375" lon="-2.378034107387065887451171875">
        <ele>894.79998779296875</ele>
        <time>2022-04-17T15:50:18.000Z</time>
      </trkpt>
      <trkpt lat="42.97076948918402194976806640625" lon="-2.3780483566224575042724609375">
        <ele>894.4000244140625</ele>
        <time>2022-04-17T15:50:19.000Z</time>
      </trkpt>
      <trkpt lat="42.97076915390789508819580078125" lon="-2.3780585825443267822265625">
        <ele>894.20001220703125</ele>
        <time>2022-04-17T15:50:20.000Z</time>
      </trkpt>
      <trkpt lat="42.97077166847884654998779296875" lon="-2.37807408906519412994384765625">
        <ele>894</ele>
        <time>2022-04-17T15:50:21.000Z</time>
      </trkpt>
      <trkpt lat="42.970768399536609649658203125" lon="-2.378078363835811614990234375">
        <ele>893.79998779296875</ele>
        <time>2022-04-17T15:50:22.000Z</time>
      </trkpt>
      <trkpt lat="42.970765717327594757080078125" lon="-2.37808548845350742340087890625">
        <ele>893.79998779296875</ele>
        <time>2022-04-17T15:50:23.000Z</time>
      </trkpt>
      <trkpt lat="42.97076596878468990325927734375" lon="-2.37809437327086925506591796875">
        <ele>893.5999755859375</ele>
        <time>2022-04-17T15:50:24.000Z</time>
      </trkpt>
      <trkpt lat="42.9707709141075611114501953125" lon="-2.378107197582721710205078125">
        <ele>893.4000244140625</ele>
        <time>2022-04-17T15:50:25.000Z</time>
      </trkpt>
      <trkpt lat="42.97078306786715984344482421875" lon="-2.37812303937971591949462890625">
        <ele>893.20001220703125</ele>
        <time>2022-04-17T15:50:26.000Z</time>
      </trkpt>
      <trkpt lat="42.9707868397235870361328125" lon="-2.3781439103186130523681640625">
        <ele>893.20001220703125</ele>
        <time>2022-04-17T15:50:27.000Z</time>
      </trkpt>
      <trkpt lat="42.9707943834364414215087890625" lon="-2.37815036438405513763427734375">
        <ele>893</ele>
        <time>2022-04-17T15:50:28.000Z</time>
      </trkpt>
      <trkpt lat="42.9708027653396129608154296875" lon="-2.37816662527620792388916015625">
        <ele>893</ele>
        <time>2022-04-17T15:50:29.000Z</time>
      </trkpt>
      <trkpt lat="42.97080871649086475372314453125" lon="-2.37818271853029727935791015625">
        <ele>893</ele>
        <time>2022-04-17T15:50:30.000Z</time>
      </trkpt>
      <trkpt lat="42.970807291567325592041015625" lon="-2.3782087862491607666015625">
        <ele>893</ele>
        <time>2022-04-17T15:50:31.000Z</time>
      </trkpt>
      <trkpt lat="42.970806621015071868896484375" lon="-2.3782290704548358917236328125">
        <ele>893</ele>
        <time>2022-04-17T15:50:32.000Z</time>
      </trkpt>
      <trkpt lat="42.9708067886531352996826171875" lon="-2.37823954783380031585693359375">
        <ele>892.79998779296875</ele>
        <time>2022-04-17T15:50:33.000Z</time>
      </trkpt>
      <trkpt lat="42.97080318443477153778076171875" lon="-2.378242649137973785400390625">
        <ele>892.79998779296875</ele>
        <time>2022-04-17T15:50:34.000Z</time>
      </trkpt>
      <trkpt lat="42.9708010889589786529541015625" lon="-2.37824658863246440887451171875">
        <ele>892.5999755859375</ele>
        <time>2022-04-17T15:50:35.000Z</time>
      </trkpt>
      <trkpt lat="42.97079782001674175262451171875" lon="-2.37825513817369937896728515625">
        <ele>892.20001220703125</ele>
        <time>2022-04-17T15:50:36.000Z</time>
      </trkpt>
      <trkpt lat="42.97079731710255146026611328125" lon="-2.37826905213296413421630859375">
        <ele>892</ele>
        <time>2022-04-17T15:50:37.000Z</time>
      </trkpt>
      <trkpt lat="42.9707984067499637603759765625" lon="-2.3782817088067531585693359375">
        <ele>891.79998779296875</ele>
        <time>2022-04-17T15:50:38.000Z</time>
      </trkpt>
      <trkpt lat="42.9707990773022174835205078125" lon="-2.3783031664788722991943359375">
        <ele>891.79998779296875</ele>
        <time>2022-04-17T15:50:39.000Z</time>
      </trkpt>
      <trkpt lat="42.97080351971089839935302734375" lon="-2.378323115408420562744140625">
        <ele>891.5999755859375</ele>
        <time>2022-04-17T15:50:40.000Z</time>
      </trkpt>
      <trkpt lat="42.97079899348318576812744140625" lon="-2.37833895720541477203369140625">
        <ele>891.4000244140625</ele>
        <time>2022-04-17T15:50:41.000Z</time>
      </trkpt>
      <trkpt lat="42.97079128213226795196533203125" lon="-2.3783598281443119049072265625">
        <ele>891.20001220703125</ele>
        <time>2022-04-17T15:50:42.000Z</time>
      </trkpt>
      <trkpt lat="42.97079597599804401397705078125" lon="-2.37836846150457859039306640625">
        <ele>891</ele>
        <time>2022-04-17T15:50:43.000Z</time>
      </trkpt>
      <trkpt lat="42.9707933776080608367919921875" lon="-2.378377430140972137451171875">
        <ele>891</ele>
        <time>2022-04-17T15:50:44.000Z</time>
      </trkpt>
      <trkpt lat="42.97079027630388736724853515625" lon="-2.37838472239673137664794921875">
        <ele>891</ele>
        <time>2022-04-17T15:50:45.000Z</time>
      </trkpt>
      <trkpt lat="42.9707950539886951446533203125" lon="-2.37839763052761554718017578125">
        <ele>890.79998779296875</ele>
        <time>2022-04-17T15:50:46.000Z</time>
      </trkpt>
      <trkpt lat="42.970798909664154052734375" lon="-2.3784020729362964630126953125">
        <ele>890.5999755859375</ele>
        <time>2022-04-17T15:50:47.000Z</time>
      </trkpt>
      <trkpt lat="42.9708047769963741302490234375" lon="-2.3784099519252777099609375">
        <ele>890.5999755859375</ele>
        <time>2022-04-17T15:50:48.000Z</time>
      </trkpt>
      <trkpt lat="42.97080854885280132293701171875" lon="-2.37841472961008548736572265625">
        <ele>890.4000244140625</ele>
        <time>2022-04-17T15:50:49.000Z</time>
      </trkpt>
      <trkpt lat="42.9708124883472919464111328125" lon="-2.378422357141971588134765625">
        <ele>890.20001220703125</ele>
        <time>2022-04-17T15:50:50.000Z</time>
      </trkpt>
      <trkpt lat="42.970818690955638885498046875" lon="-2.37843635492026805877685546875">
        <ele>890</ele>
        <time>2022-04-17T15:50:51.000Z</time>
      </trkpt>
      <trkpt lat="42.9708225466310977935791015625" lon="-2.37844926305115222930908203125">
        <ele>889.79998779296875</ele>
        <time>2022-04-17T15:50:52.000Z</time>
      </trkpt>
      <trkpt lat="42.970831096172332763671875" lon="-2.37846351228654384613037109375">
        <ele>889.79998779296875</ele>
        <time>2022-04-17T15:50:53.000Z</time>
      </trkpt>
      <trkpt lat="42.970840148627758026123046875" lon="-2.37847859971225261688232421875">
        <ele>889.5999755859375</ele>
        <time>2022-04-17T15:50:54.000Z</time>
      </trkpt>
      <trkpt lat="42.9708483628928661346435546875" lon="-2.37850257195532321929931640625">
        <ele>889.5999755859375</ele>
        <time>2022-04-17T15:50:55.000Z</time>
      </trkpt>
      <trkpt lat="42.97085096128284931182861328125" lon="-2.37852461636066436767578125">
        <ele>889.4000244140625</ele>
        <time>2022-04-17T15:50:56.000Z</time>
      </trkpt>
      <trkpt lat="42.97085716389119625091552734375" lon="-2.37853375263512134552001953125">
        <ele>889.20001220703125</ele>
        <time>2022-04-17T15:50:57.000Z</time>
      </trkpt>
      <trkpt lat="42.9708604328334331512451171875" lon="-2.3785375244915485382080078125">
        <ele>889.20001220703125</ele>
        <time>2022-04-17T15:50:58.000Z</time>
      </trkpt>
      <trkpt lat="42.97086537815630435943603515625" lon="-2.37854196690022945404052734375">
        <ele>889</ele>
        <time>2022-04-17T15:50:59.000Z</time>
      </trkpt>
      <trkpt lat="42.970868982374668121337890625" lon="-2.37855638377368450164794921875">
        <ele>888.79998779296875</ele>
        <time>2022-04-17T15:51:00.000Z</time>
      </trkpt>
      <trkpt lat="42.97087023966014385223388671875" lon="-2.3785673640668392181396484375">
        <ele>888.5999755859375</ele>
        <time>2022-04-17T15:51:01.000Z</time>
      </trkpt>
      <trkpt lat="42.9708728380501270294189453125" lon="-2.37857717089354991912841796875">
        <ele>888.4000244140625</ele>
        <time>2022-04-17T15:51:02.000Z</time>
      </trkpt>
      <trkpt lat="42.97087493352591991424560546875" lon="-2.37859292887151241302490234375">
        <ele>888.4000244140625</ele>
        <time>2022-04-17T15:51:03.000Z</time>
      </trkpt>
      <trkpt lat="42.9708788730204105377197265625" lon="-2.37860365770757198333740234375">
        <ele>888.20001220703125</ele>
        <time>2022-04-17T15:51:04.000Z</time>
      </trkpt>
      <trkpt lat="42.97088448889553546905517578125" lon="-2.37861447036266326904296875">
        <ele>888.20001220703125</ele>
        <time>2022-04-17T15:51:05.000Z</time>
      </trkpt>
      <trkpt lat="42.97089136205613613128662109375" lon="-2.37862645648419857025146484375">
        <ele>888</ele>
        <time>2022-04-17T15:51:06.000Z</time>
      </trkpt>
      <trkpt lat="42.97089873813092708587646484375" lon="-2.3786327429115772247314453125">
        <ele>887.79998779296875</ele>
        <time>2022-04-17T15:51:07.000Z</time>
      </trkpt>
      <trkpt lat="42.97091491520404815673828125" lon="-2.378640286624431610107421875">
        <ele>887.79998779296875</ele>
        <time>2022-04-17T15:51:08.000Z</time>
      </trkpt>
      <trkpt lat="42.97092505730688571929931640625" lon="-2.37864305265247821807861328125">
        <ele>887.79998779296875</ele>
        <time>2022-04-17T15:51:09.000Z</time>
      </trkpt>
      <trkpt lat="42.9709351994097232818603515625" lon="-2.37865176983177661895751953125">
        <ele>887.79998779296875</ele>
        <time>2022-04-17T15:51:10.000Z</time>
      </trkpt>
      <trkpt lat="42.97094643115997314453125" lon="-2.37867037765681743621826171875">
        <ele>887.5999755859375</ele>
        <time>2022-04-17T15:51:11.000Z</time>
      </trkpt>
      <trkpt lat="42.97095975838601589202880859375" lon="-2.37868261523544788360595703125">
        <ele>887.5999755859375</ele>
        <time>2022-04-17T15:51:12.000Z</time>
      </trkpt>
      <trkpt lat="42.970969565212726593017578125" lon="-2.378694601356983184814453125">
        <ele>887.5999755859375</ele>
        <time>2022-04-17T15:51:13.000Z</time>
      </trkpt>
      <trkpt lat="42.970976270735263824462890625" lon="-2.37870340235531330108642578125">
        <ele>887.5999755859375</ele>
        <time>2022-04-17T15:51:14.000Z</time>
      </trkpt>
      <trkpt lat="42.97098071314394474029541015625" lon="-2.37871639430522918701171875">
        <ele>887.5999755859375</ele>
        <time>2022-04-17T15:51:15.000Z</time>
      </trkpt>
      <trkpt lat="42.970978282392024993896484375" lon="-2.378731481730937957763671875">
        <ele>887.5999755859375</ele>
        <time>2022-04-17T15:51:16.000Z</time>
      </trkpt>
      <trkpt lat="42.97097861766815185546875" lon="-2.378761656582355499267578125">
        <ele>887.5999755859375</ele>
        <time>2022-04-17T15:51:17.000Z</time>
      </trkpt>
      <trkpt lat="42.97098725102841854095458984375" lon="-2.3787836171686649322509765625">
        <ele>887.4000244140625</ele>
        <time>2022-04-17T15:51:18.000Z</time>
      </trkpt>
      <trkpt lat="42.97099295072257518768310546875" lon="-2.37880348227918148040771484375">
        <ele>887.4000244140625</ele>
        <time>2022-04-17T15:51:19.000Z</time>
      </trkpt>
      <trkpt lat="42.97100250609219074249267578125" lon="-2.37881605513393878936767578125">
        <ele>887.4000244140625</ele>
        <time>2022-04-17T15:51:20.000Z</time>
      </trkpt>
      <trkpt lat="42.971008121967315673828125" lon="-2.37882913090288639068603515625">
        <ele>887.20001220703125</ele>
        <time>2022-04-17T15:51:21.000Z</time>
      </trkpt>
      <trkpt lat="42.971015162765979766845703125" lon="-2.3788422904908657073974609375">
        <ele>887.4000244140625</ele>
        <time>2022-04-17T15:51:22.000Z</time>
      </trkpt>
      <trkpt lat="42.9710180126130580902099609375" lon="-2.37885327078402042388916015625">
        <ele>887.20001220703125</ele>
        <time>2022-04-17T15:51:23.000Z</time>
      </trkpt>
      <trkpt lat="42.97102346085011959075927734375" lon="-2.3788632452487945556640625">
        <ele>887.20001220703125</ele>
        <time>2022-04-17T15:51:24.000Z</time>
      </trkpt>
      <trkpt lat="42.97103335149586200714111328125" lon="-2.37887808121740818023681640625">
        <ele>887</ele>
        <time>2022-04-17T15:51:25.000Z</time>
      </trkpt>
      <trkpt lat="42.97103804536163806915283203125" lon="-2.37888746894896030426025390625">
        <ele>887</ele>
        <time>2022-04-17T15:51:26.000Z</time>
      </trkpt>
      <trkpt lat="42.97104500234127044677734375" lon="-2.37890440039336681365966796875">
        <ele>887</ele>
        <time>2022-04-17T15:51:27.000Z</time>
      </trkpt>
      <trkpt lat="42.97104877419769763946533203125" lon="-2.37891328521072864532470703125">
        <ele>886.79998779296875</ele>
        <time>2022-04-17T15:51:28.000Z</time>
      </trkpt>
      <trkpt lat="42.97104843892157077789306640625" lon="-2.37892158329486846923828125">
        <ele>886.79998779296875</ele>
        <time>2022-04-17T15:51:29.000Z</time>
      </trkpt>
      <trkpt lat="42.97104877419769763946533203125" lon="-2.37892820499837398529052734375">
        <ele>886.5999755859375</ele>
        <time>2022-04-17T15:51:30.000Z</time>
      </trkpt>
      <trkpt lat="42.97105045057833194732666015625" lon="-2.37893231213092803955078125">
        <ele>886.5999755859375</ele>
        <time>2022-04-17T15:51:31.000Z</time>
      </trkpt>
      <trkpt lat="42.97105782665312290191650390625" lon="-2.37893164157867431640625">
        <ele>886.5999755859375</ele>
        <time>2022-04-17T15:51:32.000Z</time>
      </trkpt>
      <trkpt lat="42.9710662923753261566162109375" lon="-2.3789365030825138092041015625">
        <ele>886.4000244140625</ele>
        <time>2022-04-17T15:51:33.000Z</time>
      </trkpt>
      <trkpt lat="42.97107257880270481109619140625" lon="-2.37894027493894100189208984375">
        <ele>886.4000244140625</ele>
        <time>2022-04-17T15:51:34.000Z</time>
      </trkpt>
      <trkpt lat="42.971076183021068572998046875" lon="-2.37894463352859020233154296875">
        <ele>886.4000244140625</ele>
        <time>2022-04-17T15:51:35.000Z</time>
      </trkpt>
      <trkpt lat="42.97108112834393978118896484375" lon="-2.3789502494037151336669921875">
        <ele>886.4000244140625</ele>
        <time>2022-04-17T15:51:36.000Z</time>
      </trkpt>
      <trkpt lat="42.97108213417232036590576171875" lon="-2.37895586527884006500244140625">
        <ele>886.4000244140625</ele>
        <time>2022-04-17T15:51:37.000Z</time>
      </trkpt>
      <trkpt lat="42.97108112834393978118896484375" lon="-2.3789619840681552886962890625">
        <ele>886.4000244140625</ele>
        <time>2022-04-17T15:51:38.000Z</time>
      </trkpt>
      <trkpt lat="42.97108179889619350433349609375" lon="-2.3789663426578044891357421875">
        <ele>886.20001220703125</ele>
        <time>2022-04-17T15:51:39.000Z</time>
      </trkpt>
      <trkpt lat="42.9710880853235721588134765625" lon="-2.37897765822708606719970703125">
        <ele>886.20001220703125</ele>
        <time>2022-04-17T15:51:40.000Z</time>
      </trkpt>
      <trkpt lat="42.97109437175095081329345703125" lon="-2.3789891414344310760498046875">
        <ele>886.4000244140625</ele>
        <time>2022-04-17T15:51:41.000Z</time>
      </trkpt>
      <trkpt lat="42.9711011610925197601318359375" lon="-2.37899995408952236175537109375">
        <ele>886.20001220703125</ele>
        <time>2022-04-17T15:51:42.000Z</time>
      </trkpt>
      <trkpt lat="42.97110493294894695281982421875" lon="-2.37900867126882076263427734375">
        <ele>886.4000244140625</ele>
        <time>2022-04-17T15:51:43.000Z</time>
      </trkpt>
      <trkpt lat="42.97110811807215213775634765625" lon="-2.379034571349620819091796875">
        <ele>886.4000244140625</ele>
        <time>2022-04-17T15:51:44.000Z</time>
      </trkpt>
      <trkpt lat="42.97111448831856250762939453125" lon="-2.3790411092340946197509765625">
        <ele>886.4000244140625</ele>
        <time>2022-04-17T15:51:45.000Z</time>
      </trkpt>
      <trkpt lat="42.97111683525145053863525390625" lon="-2.37904991023242473602294921875">
        <ele>886.4000244140625</ele>
        <time>2022-04-17T15:51:46.000Z</time>
      </trkpt>
      <trkpt lat="42.97112387605011463165283203125" lon="-2.379062734544277191162109375">
        <ele>886.20001220703125</ele>
        <time>2022-04-17T15:51:47.000Z</time>
      </trkpt>
      <trkpt lat="42.97112957574427127838134765625" lon="-2.37907354719936847686767578125">
        <ele>886.20001220703125</ele>
        <time>2022-04-17T15:51:48.000Z</time>
      </trkpt>
      <trkpt lat="42.971140556037425994873046875" lon="-2.3790858685970306396484375">
        <ele>886.20001220703125</ele>
        <time>2022-04-17T15:51:49.000Z</time>
      </trkpt>
      <trkpt lat="42.97114692628383636474609375" lon="-2.3791031353175640106201171875">
        <ele>886.20001220703125</ele>
        <time>2022-04-17T15:51:50.000Z</time>
      </trkpt>
      <trkpt lat="42.97114902175962924957275390625" lon="-2.3791158758103847503662109375">
        <ele>886.20001220703125</ele>
        <time>2022-04-17T15:51:51.000Z</time>
      </trkpt>
      <trkpt lat="42.971152625977993011474609375" lon="-2.3791276104748249053955078125">
        <ele>886.20001220703125</ele>
        <time>2022-04-17T15:51:52.000Z</time>
      </trkpt>
      <trkpt lat="42.97115891240537166595458984375" lon="-2.37913750112056732177734375">
        <ele>886</ele>
        <time>2022-04-17T15:51:53.000Z</time>
      </trkpt>
      <trkpt lat="42.97116796486079692840576171875" lon="-2.37914395518600940704345703125">
        <ele>886</ele>
        <time>2022-04-17T15:51:54.000Z</time>
      </trkpt>
      <trkpt lat="42.9711755923926830291748046875" lon="-2.37915082834661006927490234375">
        <ele>885.79998779296875</ele>
        <time>2022-04-17T15:51:55.000Z</time>
      </trkpt>
      <trkpt lat="42.97118254937231540679931640625" lon="-2.37916574813425540924072265625">
        <ele>885.79998779296875</ele>
        <time>2022-04-17T15:51:56.000Z</time>
      </trkpt>
      <trkpt lat="42.9711926914751529693603515625" lon="-2.3791842721402645111083984375">
        <ele>885.5999755859375</ele>
        <time>2022-04-17T15:51:57.000Z</time>
      </trkpt>
      <trkpt lat="42.97120518051087856292724609375" lon="-2.3791970126330852508544921875">
        <ele>885.5999755859375</ele>
        <time>2022-04-17T15:51:58.000Z</time>
      </trkpt>
      <trkpt lat="42.97121389769017696380615234375" lon="-2.379210256040096282958984375">
        <ele>885.4000244140625</ele>
        <time>2022-04-17T15:51:59.000Z</time>
      </trkpt>
      <trkpt lat="42.97121657989919185638427734375" lon="-2.3792201466858386993408203125">
        <ele>885.4000244140625</ele>
        <time>2022-04-17T15:52:00.000Z</time>
      </trkpt>
      <trkpt lat="42.97122596763074398040771484375" lon="-2.37922601401805877685546875">
        <ele>885.4000244140625</ele>
        <time>2022-04-17T15:52:01.000Z</time>
      </trkpt>
      <trkpt lat="42.9712285660207271575927734375" lon="-2.37923682667315006256103515625">
        <ele>885.4000244140625</ele>
        <time>2022-04-17T15:52:02.000Z</time>
      </trkpt>
      <trkpt lat="42.9712305776774883270263671875" lon="-2.37924302928149700164794921875">
        <ele>885.4000244140625</ele>
        <time>2022-04-17T15:52:03.000Z</time>
      </trkpt>
      <trkpt lat="42.971239127218723297119140625" lon="-2.37924571149051189422607421875">
        <ele>885.4000244140625</ele>
        <time>2022-04-17T15:52:04.000Z</time>
      </trkpt>
      <trkpt lat="42.9712453298270702362060546875" lon="-2.37925015389919281005859375">
        <ele>885.4000244140625</ele>
        <time>2022-04-17T15:52:05.000Z</time>
      </trkpt>
      <trkpt lat="42.97125413082540035247802734375" lon="-2.379254512488842010498046875">
        <ele>885.4000244140625</ele>
        <time>2022-04-17T15:52:06.000Z</time>
      </trkpt>
      <trkpt lat="42.9712614230811595916748046875" lon="-2.3792640678584575653076171875">
        <ele>885.20001220703125</ele>
        <time>2022-04-17T15:52:07.000Z</time>
      </trkpt>
      <trkpt lat="42.97126092016696929931640625" lon="-2.3792764730751514434814453125">
        <ele>885.20001220703125</ele>
        <time>2022-04-17T15:52:08.000Z</time>
      </trkpt>
      <trkpt lat="42.971265614032745361328125" lon="-2.37929181195795536041259765625">
        <ele>885.20001220703125</ele>
        <time>2022-04-17T15:52:09.000Z</time>
      </trkpt>
      <trkpt lat="42.97127173282206058502197265625" lon="-2.3792996071279048919677734375">
        <ele>885.20001220703125</ele>
        <time>2022-04-17T15:52:10.000Z</time>
      </trkpt>
      <trkpt lat="42.97128262929618358612060546875" lon="-2.379311509430408477783203125">
        <ele>885.20001220703125</ele>
        <time>2022-04-17T15:52:11.000Z</time>
      </trkpt>
      <trkpt lat="42.97129134647548198699951171875" lon="-2.37931410782039165496826171875">
        <ele>885.4000244140625</ele>
        <time>2022-04-17T15:52:12.000Z</time>
      </trkpt>
      <trkpt lat="42.971300818026065826416015625" lon="-2.37931762821972370147705078125">
        <ele>885.4000244140625</ele>
        <time>2022-04-17T15:52:13.000Z</time>
      </trkpt>
      <trkpt lat="42.97130727209150791168212890625" lon="-2.3793232440948486328125">
        <ele>885.4000244140625</ele>
        <time>2022-04-17T15:52:14.000Z</time>
      </trkpt>
      <trkpt lat="42.971316240727901458740234375" lon="-2.37932684831321239471435546875">
        <ele>885.4000244140625</ele>
        <time>2022-04-17T15:52:15.000Z</time>
      </trkpt>
      <trkpt lat="42.971324287354946136474609375" lon="-2.37933271564543247222900390625">
        <ele>885.4000244140625</ele>
        <time>2022-04-17T15:52:16.000Z</time>
      </trkpt>
      <trkpt lat="42.97133057378232479095458984375" lon="-2.37933598458766937255859375">
        <ele>885.4000244140625</ele>
        <time>2022-04-17T15:52:17.000Z</time>
      </trkpt>
      <trkpt lat="42.97133392654359340667724609375" lon="-2.3793433606624603271484375">
        <ele>885.4000244140625</ele>
        <time>2022-04-17T15:52:18.000Z</time>
      </trkpt>
      <trkpt lat="42.97133711166679859161376953125" lon="-2.379352748394012451171875">
        <ele>885.4000244140625</ele>
        <time>2022-04-17T15:52:19.000Z</time>
      </trkpt>
      <trkpt lat="42.97134549356997013092041015625" lon="-2.37936339341104030609130859375">
        <ele>885.4000244140625</ele>
        <time>2022-04-17T15:52:20.000Z</time>
      </trkpt>
      <trkpt lat="42.9713485948741436004638671875" lon="-2.379376552999019622802734375">
        <ele>885.4000244140625</ele>
        <time>2022-04-17T15:52:21.000Z</time>
      </trkpt>
      <trkpt lat="42.971353121101856231689453125" lon="-2.37939138896763324737548828125">
        <ele>885.20001220703125</ele>
        <time>2022-04-17T15:52:22.000Z</time>
      </trkpt>
      <trkpt lat="42.97135957516729831695556640625" lon="-2.37940463237464427947998046875">
        <ele>885.20001220703125</ele>
        <time>2022-04-17T15:52:23.000Z</time>
      </trkpt>
      <trkpt lat="42.97136259265244007110595703125" lon="-2.37941510975360870361328125">
        <ele>885</ele>
        <time>2022-04-17T15:52:24.000Z</time>
      </trkpt>
      <trkpt lat="42.97136954963207244873046875" lon="-2.3794266767799854278564453125">
        <ele>884.79998779296875</ele>
        <time>2022-04-17T15:52:25.000Z</time>
      </trkpt>
      <trkpt lat="42.9713796079158782958984375" lon="-2.37943262793123722076416015625">
        <ele>884.5999755859375</ele>
        <time>2022-04-17T15:52:26.000Z</time>
      </trkpt>
      <trkpt lat="42.971388660371303558349609375" lon="-2.37944168038666248321533203125">
        <ele>884.5999755859375</ele>
        <time>2022-04-17T15:52:27.000Z</time>
      </trkpt>
      <trkpt lat="42.9714035801589488983154296875" lon="-2.37944997847080230712890625">
        <ele>884.4000244140625</ele>
        <time>2022-04-17T15:52:28.000Z</time>
      </trkpt>
      <trkpt lat="42.9714159853756427764892578125" lon="-2.37945710308849811553955078125">
        <ele>884.4000244140625</ele>
        <time>2022-04-17T15:52:29.000Z</time>
      </trkpt>
      <trkpt lat="42.9714203439652919769287109375" lon="-2.37947554327547550201416015625">
        <ele>884.4000244140625</ele>
        <time>2022-04-17T15:52:30.000Z</time>
      </trkpt>
      <trkpt lat="42.97143065370619297027587890625" lon="-2.3794974200427532196044921875">
        <ele>884.4000244140625</ele>
        <time>2022-04-17T15:52:31.000Z</time>
      </trkpt>
      <trkpt lat="42.9714384488761425018310546875" lon="-2.37950605340301990509033203125">
        <ele>884.20001220703125</ele>
        <time>2022-04-17T15:52:32.000Z</time>
      </trkpt>
      <trkpt lat="42.97144507057964801788330078125" lon="-2.379513680934906005859375">
        <ele>884.20001220703125</ele>
        <time>2022-04-17T15:52:33.000Z</time>
      </trkpt>
      <trkpt lat="42.97145144082605838775634765625" lon="-2.37952047027647495269775390625">
        <ele>884.20001220703125</ele>
        <time>2022-04-17T15:52:34.000Z</time>
      </trkpt>
      <trkpt lat="42.9714582301676273345947265625" lon="-2.3795269243419170379638671875">
        <ele>884.20001220703125</ele>
        <time>2022-04-17T15:52:35.000Z</time>
      </trkpt>
      <trkpt lat="42.971461080014705657958984375" lon="-2.3795311152935028076171875">
        <ele>884</ele>
        <time>2022-04-17T15:52:36.000Z</time>
      </trkpt>
      <trkpt lat="42.9714679531753063201904296875" lon="-2.3795339651405811309814453125">
        <ele>883.79998779296875</ele>
        <time>2022-04-17T15:52:37.000Z</time>
      </trkpt>
      <trkpt lat="42.97147675417363643646240234375" lon="-2.37954142503440380096435546875">
        <ele>883.5999755859375</ele>
        <time>2022-04-17T15:52:38.000Z</time>
      </trkpt>
      <trkpt lat="42.971483208239078521728515625" lon="-2.37955030985176563262939453125">
        <ele>883.4000244140625</ele>
        <time>2022-04-17T15:52:39.000Z</time>
      </trkpt>
      <trkpt lat="42.97148999758064746856689453125" lon="-2.3795537464320659637451171875">
        <ele>883.4000244140625</ele>
        <time>2022-04-17T15:52:40.000Z</time>
      </trkpt>
      <trkpt lat="42.97149670310318470001220703125" lon="-2.37955399788916110992431640625">
        <ele>883.20001220703125</ele>
        <time>2022-04-17T15:52:41.000Z</time>
      </trkpt>
      <trkpt lat="42.97150122933089733123779296875" lon="-2.3795513994991779327392578125">
        <ele>883.20001220703125</ele>
        <time>2022-04-17T15:52:42.000Z</time>
      </trkpt>
      <trkpt lat="42.9715058393776416778564453125" lon="-2.37955030985176563262939453125">
        <ele>883.20001220703125</ele>
        <time>2022-04-17T15:52:43.000Z</time>
      </trkpt>
      <trkpt lat="42.97151128761470317840576171875" lon="-2.3795537464320659637451171875">
        <ele>883.20001220703125</ele>
        <time>2022-04-17T15:52:44.000Z</time>
      </trkpt>
      <trkpt lat="42.9715172387659549713134765625" lon="-2.37956020049750804901123046875">
        <ele>883</ele>
        <time>2022-04-17T15:52:45.000Z</time>
      </trkpt>
      <trkpt lat="42.97151983715593814849853515625" lon="-2.37956506200134754180908203125">
        <ele>883</ele>
        <time>2022-04-17T15:52:46.000Z</time>
      </trkpt>
      <trkpt lat="42.97152972780168056488037109375" lon="-2.3795809037983417510986328125">
        <ele>882.79998779296875</ele>
        <time>2022-04-17T15:52:47.000Z</time>
      </trkpt>
      <trkpt lat="42.9715350084006786346435546875" lon="-2.379588447511196136474609375">
        <ele>882.79998779296875</ele>
        <time>2022-04-17T15:52:48.000Z</time>
      </trkpt>
      <trkpt lat="42.97154246829450130462646484375" lon="-2.37959171645343303680419921875">
        <ele>882.4000244140625</ele>
        <time>2022-04-17T15:52:49.000Z</time>
      </trkpt>
      <trkpt lat="42.971550263464450836181640625" lon="-2.37960755825042724609375">
        <ele>882.4000244140625</ele>
        <time>2022-04-17T15:52:50.000Z</time>
      </trkpt>
      <trkpt lat="42.97155654989182949066162109375" lon="-2.37962155602872371673583984375">
        <ele>882.20001220703125</ele>
        <time>2022-04-17T15:52:51.000Z</time>
      </trkpt>
      <trkpt lat="42.97156258486211299896240234375" lon="-2.37963664345443248748779296875">
        <ele>882</ele>
        <time>2022-04-17T15:52:52.000Z</time>
      </trkpt>
      <trkpt lat="42.97157297842204570770263671875" lon="-2.3796466179192066192626953125">
        <ele>881.79998779296875</ele>
        <time>2022-04-17T15:52:53.000Z</time>
      </trkpt>
      <trkpt lat="42.9715856350958347320556640625" lon="-2.37965374253690242767333984375">
        <ele>881.79998779296875</ele>
        <time>2022-04-17T15:52:54.000Z</time>
      </trkpt>
      <trkpt lat="42.9715926758944988250732421875" lon="-2.37966698594391345977783203125">
        <ele>881.4000244140625</ele>
        <time>2022-04-17T15:52:55.000Z</time>
      </trkpt>
      <trkpt lat="42.9715953581035137176513671875" lon="-2.37967788241803646087646484375">
        <ele>881</ele>
        <time>2022-04-17T15:52:56.000Z</time>
      </trkpt>
      <trkpt lat="42.9716003872454166412353515625" lon="-2.37969213165342807769775390625">
        <ele>880.79998779296875</ele>
        <time>2022-04-17T15:52:57.000Z</time>
      </trkpt>
      <trkpt lat="42.971604578197002410888671875" lon="-2.37970353104174137115478515625">
        <ele>880.4000244140625</ele>
        <time>2022-04-17T15:52:58.000Z</time>
      </trkpt>
      <trkpt lat="42.97160935588181018829345703125" lon="-2.3797123320400714874267578125">
        <ele>880.20001220703125</ele>
        <time>2022-04-17T15:52:59.000Z</time>
      </trkpt>
      <trkpt lat="42.971615307033061981201171875" lon="-2.37971861846745014190673828125">
        <ele>879.79998779296875</ele>
        <time>2022-04-17T15:53:00.000Z</time>
      </trkpt>
      <trkpt lat="42.971620000898838043212890625" lon="-2.37972297705709934234619140625">
        <ele>879.5999755859375</ele>
        <time>2022-04-17T15:53:01.000Z</time>
      </trkpt>
      <trkpt lat="42.9716218449175357818603515625" lon="-2.3797269165515899658203125">
        <ele>879.5999755859375</ele>
        <time>2022-04-17T15:53:02.000Z</time>
      </trkpt>
      <trkpt lat="42.97162427566945552825927734375" lon="-2.3797401599586009979248046875">
        <ele>879.4000244140625</ele>
        <time>2022-04-17T15:53:03.000Z</time>
      </trkpt>
      <trkpt lat="42.97162511385977268218994140625" lon="-2.37974208779633045196533203125">
        <ele>879.20001220703125</ele>
        <time>2022-04-17T15:53:04.000Z</time>
      </trkpt>
      <trkpt lat="42.97163818962872028350830078125" lon="-2.37974057905375957489013671875">
        <ele>879.20001220703125</ele>
        <time>2022-04-17T15:53:05.000Z</time>
      </trkpt>
      <trkpt lat="42.9716399498283863067626953125" lon="-2.3797404952347278594970703125">
        <ele>879</ele>
        <time>2022-04-17T15:53:06.000Z</time>
      </trkpt>
      <trkpt lat="42.9716392792761325836181640625" lon="-2.37974275834858417510986328125">
        <ele>879</ele>
        <time>2022-04-17T15:53:07.000Z</time>
      </trkpt>
      <trkpt lat="42.97163500450551509857177734375" lon="-2.37974761985242366790771484375">
        <ele>879.20001220703125</ele>
        <time>2022-04-17T15:53:08.000Z</time>
      </trkpt>
      <trkpt lat="42.971633411943912506103515625" lon="-2.3797535710036754608154296875">
        <ele>879.20001220703125</ele>
        <time>2022-04-17T15:53:09.000Z</time>
      </trkpt>
      <trkpt lat="42.97163316048681735992431640625" lon="-2.37976572476327419281005859375">
        <ele>879</ele>
        <time>2022-04-17T15:53:10.000Z</time>
      </trkpt>
      <trkpt lat="42.97163374722003936767578125" lon="-2.379773519933223724365234375">
        <ele>879</ele>
        <time>2022-04-17T15:53:11.000Z</time>
      </trkpt>
      <trkpt lat="42.9716359265148639678955078125" lon="-2.37977947108447551727294921875">
        <ele>878.79998779296875</ele>
        <time>2022-04-17T15:53:12.000Z</time>
      </trkpt>
      <trkpt lat="42.971641123294830322265625" lon="-2.3797840811312198638916015625">
        <ele>878.79998779296875</ele>
        <time>2022-04-17T15:53:13.000Z</time>
      </trkpt>
      <trkpt lat="42.971650175750255584716796875" lon="-2.37979539670050144195556640625">
        <ele>878.79998779296875</ele>
        <time>2022-04-17T15:53:14.000Z</time>
      </trkpt>
      <trkpt lat="42.9716590605676174163818359375" lon="-2.37980193458497524261474609375">
        <ele>878.5999755859375</ele>
        <time>2022-04-17T15:53:15.000Z</time>
      </trkpt>
      <trkpt lat="42.971666269004344940185546875" lon="-2.379808723926544189453125">
        <ele>878.5999755859375</ele>
        <time>2022-04-17T15:53:16.000Z</time>
      </trkpt>
      <trkpt lat="42.9716701246798038482666015625" lon="-2.379819788038730621337890625">
        <ele>878.4000244140625</ele>
        <time>2022-04-17T15:53:17.000Z</time>
      </trkpt>
      <trkpt lat="42.97167641110718250274658203125" lon="-2.3798315227031707763671875">
        <ele>878.20001220703125</ele>
        <time>2022-04-17T15:53:18.000Z</time>
      </trkpt>
      <trkpt lat="42.97168496064841747283935546875" lon="-2.37985633313655853271484375">
        <ele>878.20001220703125</ele>
        <time>2022-04-17T15:53:19.000Z</time>
      </trkpt>
      <trkpt lat="42.97168730758130550384521484375" lon="-2.37987267784774303436279296875">
        <ele>878</ele>
        <time>2022-04-17T15:53:20.000Z</time>
      </trkpt>
      <trkpt lat="42.97169803641736507415771484375" lon="-2.379884161055088043212890625">
        <ele>878</ele>
        <time>2022-04-17T15:53:21.000Z</time>
      </trkpt>
      <trkpt lat="42.97169954515993595123291015625" lon="-2.37989631481468677520751953125">
        <ele>877.79998779296875</ele>
        <time>2022-04-17T15:53:22.000Z</time>
      </trkpt>
      <trkpt lat="42.97170273028314113616943359375" lon="-2.3799014277756214141845703125">
        <ele>877.79998779296875</ele>
        <time>2022-04-17T15:53:23.000Z</time>
      </trkpt>
      <trkpt lat="42.97170742414891719818115234375" lon="-2.379906959831714630126953125">
        <ele>877.79998779296875</ele>
        <time>2022-04-17T15:53:24.000Z</time>
      </trkpt>
      <trkpt lat="42.97171010635793209075927734375" lon="-2.37991131842136383056640625">
        <ele>877.5999755859375</ele>
        <time>2022-04-17T15:53:25.000Z</time>
      </trkpt>
      <trkpt lat="42.97171161510050296783447265625" lon="-2.37991509027779102325439453125">
        <ele>877.5999755859375</ele>
        <time>2022-04-17T15:53:26.000Z</time>
      </trkpt>
      <trkpt lat="42.97171630896627902984619140625" lon="-2.379920370876789093017578125">
        <ele>877.5999755859375</ele>
        <time>2022-04-17T15:53:27.000Z</time>
      </trkpt>
      <trkpt lat="42.9717227630317211151123046875" lon="-2.3799245618283748626708984375">
        <ele>877.5999755859375</ele>
        <time>2022-04-17T15:53:28.000Z</time>
      </trkpt>
      <trkpt lat="42.97172896564006805419921875" lon="-2.37992682494223117828369140625">
        <ele>877.4000244140625</ele>
        <time>2022-04-17T15:53:29.000Z</time>
      </trkpt>
      <trkpt lat="42.97172837890684604644775390625" lon="-2.37993009388446807861328125">
        <ele>877.4000244140625</ele>
        <time>2022-04-17T15:53:30.000Z</time>
      </trkpt>
      <trkpt lat="42.97173433005809783935546875" lon="-2.3799349553883075714111328125">
        <ele>877.4000244140625</ele>
        <time>2022-04-17T15:53:31.000Z</time>
      </trkpt>
      <trkpt lat="42.97174329869449138641357421875" lon="-2.3799362964928150177001953125">
        <ele>877.4000244140625</ele>
        <time>2022-04-17T15:53:32.000Z</time>
      </trkpt>
      <trkpt lat="42.97174715436995029449462890625" lon="-2.379933781921863555908203125">
        <ele>877.20001220703125</ele>
        <time>2022-04-17T15:53:33.000Z</time>
      </trkpt>
      <trkpt lat="42.97175419516861438751220703125" lon="-2.37993621267378330230712890625">
        <ele>877.20001220703125</ele>
        <time>2022-04-17T15:53:34.000Z</time>
      </trkpt>
      <trkpt lat="42.97176341526210308074951171875" lon="-2.37994015216827392578125">
        <ele>877.20001220703125</ele>
        <time>2022-04-17T15:53:35.000Z</time>
      </trkpt>
      <trkpt lat="42.97177397646009922027587890625" lon="-2.37994610331952571868896484375">
        <ele>877</ele>
        <time>2022-04-17T15:53:36.000Z</time>
      </trkpt>
      <trkpt lat="42.97178529202938079833984375" lon="-2.37994979135692119598388671875">
        <ele>877</ele>
        <time>2022-04-17T15:53:37.000Z</time>
      </trkpt>
      <trkpt lat="42.97179308719933032989501953125" lon="-2.37995867617428302764892578125">
        <ele>876.79998779296875</ele>
        <time>2022-04-17T15:53:38.000Z</time>
      </trkpt>
      <trkpt lat="42.9718002118170261383056640625" lon="-2.379962615668773651123046875">
        <ele>876.5999755859375</ele>
        <time>2022-04-17T15:53:39.000Z</time>
      </trkpt>
      <trkpt lat="42.97180398367345333099365234375" lon="-2.37996621988713741302490234375">
        <ele>876.4000244140625</ele>
        <time>2022-04-17T15:53:40.000Z</time>
      </trkpt>
      <trkpt lat="42.97181135974824428558349609375" lon="-2.37996689043939113616943359375">
        <ele>876.4000244140625</ele>
        <time>2022-04-17T15:53:41.000Z</time>
      </trkpt>
      <trkpt lat="42.97181940637528896331787109375" lon="-2.3799621127545833587646484375">
        <ele>876.4000244140625</ele>
        <time>2022-04-17T15:53:42.000Z</time>
      </trkpt>
      <trkpt lat="42.97182912938296794891357421875" lon="-2.3799567483365535736083984375">
        <ele>876.20001220703125</ele>
        <time>2022-04-17T15:53:43.000Z</time>
      </trkpt>
      <trkpt lat="42.97184002585709095001220703125" lon="-2.3799522221088409423828125">
        <ele>876.20001220703125</ele>
        <time>2022-04-17T15:53:44.000Z</time>
      </trkpt>
      <trkpt lat="42.97185234725475311279296875" lon="-2.37995247356593608856201171875">
        <ele>876</ele>
        <time>2022-04-17T15:53:45.000Z</time>
      </trkpt>
      <trkpt lat="42.97186349518597126007080078125" lon="-2.37995448522269725799560546875">
        <ele>875.79998779296875</ele>
        <time>2022-04-17T15:53:46.000Z</time>
      </trkpt>
      <trkpt lat="42.9718733020126819610595703125" lon="-2.37995297648012638092041015625">
        <ele>875.5999755859375</ele>
        <time>2022-04-17T15:53:47.000Z</time>
      </trkpt>
      <trkpt lat="42.97188193537294864654541015625" lon="-2.3799460195004940032958984375">
        <ele>875.5999755859375</ele>
        <time>2022-04-17T15:53:48.000Z</time>
      </trkpt>
      <trkpt lat="42.97188880853354930877685546875" lon="-2.37993906252086162567138671875">
        <ele>875.4000244140625</ele>
        <time>2022-04-17T15:53:49.000Z</time>
      </trkpt>
      <trkpt lat="42.9718934185802936553955078125" lon="-2.37993638031184673309326171875">
        <ele>875.4000244140625</ele>
        <time>2022-04-17T15:53:50.000Z</time>
      </trkpt>
      <trkpt lat="42.97190037555992603302001953125" lon="-2.3799352906644344329833984375">
        <ele>875.20001220703125</ele>
        <time>2022-04-17T15:53:51.000Z</time>
      </trkpt>
      <trkpt lat="42.97190942801535129547119140625" lon="-2.37993453629314899444580078125">
        <ele>875.20001220703125</ele>
        <time>2022-04-17T15:53:52.000Z</time>
      </trkpt>
      <trkpt lat="42.9719239287078380584716796875" lon="-2.37993814051151275634765625">
        <ele>875.20001220703125</ele>
        <time>2022-04-17T15:53:53.000Z</time>
      </trkpt>
      <trkpt lat="42.9719309695065021514892578125" lon="-2.37993956543505191802978515625">
        <ele>875</ele>
        <time>2022-04-17T15:53:54.000Z</time>
      </trkpt>
      <trkpt lat="42.97193951904773712158203125" lon="-2.37994015216827392578125">
        <ele>875</ele>
        <time>2022-04-17T15:53:55.000Z</time>
      </trkpt>
      <trkpt lat="42.97195200808346271514892578125" lon="-2.37994409166276454925537109375">
        <ele>874.79998779296875</ele>
        <time>2022-04-17T15:53:56.000Z</time>
      </trkpt>
      <trkpt lat="42.97196541912853717803955078125" lon="-2.37995197065174579620361328125">
        <ele>874.5999755859375</ele>
        <time>2022-04-17T15:53:57.000Z</time>
      </trkpt>
      <trkpt lat="42.97197304666042327880859375" lon="-2.37995213828980922698974609375">
        <ele>874.4000244140625</ele>
        <time>2022-04-17T15:53:58.000Z</time>
      </trkpt>
      <trkpt lat="42.97199106775224208831787109375" lon="-2.3799495398998260498046875">
        <ele>874.20001220703125</ele>
        <time>2022-04-17T15:53:59.000Z</time>
      </trkpt>
      <trkpt lat="42.97200095839798450469970703125" lon="-2.37994962371885776519775390625">
        <ele>874.20001220703125</ele>
        <time>2022-04-17T15:54:00.000Z</time>
      </trkpt>
      <trkpt lat="42.97201034612953662872314453125" lon="-2.37995155155658721923828125">
        <ele>874</ele>
        <time>2022-04-17T15:54:01.000Z</time>
      </trkpt>
      <trkpt lat="42.97201705165207386016845703125" lon="-2.37995666451752185821533203125">
        <ele>874</ele>
        <time>2022-04-17T15:54:02.000Z</time>
      </trkpt>
      <trkpt lat="42.9720342345535755157470703125" lon="-2.3799590952694416046142578125">
        <ele>874</ele>
        <time>2022-04-17T15:54:03.000Z</time>
      </trkpt>
      <trkpt lat="42.9720409400761127471923828125" lon="-2.37997141666710376739501953125">
        <ele>874</ele>
        <time>2022-04-17T15:54:04.000Z</time>
      </trkpt>
      <trkpt lat="42.972047813236713409423828125" lon="-2.3799852468073368072509765625">
        <ele>874</ele>
        <time>2022-04-17T15:54:05.000Z</time>
      </trkpt>
      <trkpt lat="42.972051165997982025146484375" lon="-2.3799926228821277618408203125">
        <ele>874</ele>
        <time>2022-04-17T15:54:06.000Z</time>
      </trkpt>
      <trkpt lat="42.97205359674990177154541015625" lon="-2.37999572418630123138427734375">
        <ele>874</ele>
        <time>2022-04-17T15:54:07.000Z</time>
      </trkpt>
      <trkpt lat="42.97204705886542797088623046875" lon="-2.37999522127211093902587890625">
        <ele>874</ele>
        <time>2022-04-17T15:54:08.000Z</time>
      </trkpt>
      <trkpt lat="42.97204655595123767852783203125" lon="-2.3799936287105083465576171875">
        <ele>873.79998779296875</ele>
        <time>2022-04-17T15:54:09.000Z</time>
      </trkpt>
      <trkpt lat="42.972046472132205963134765625" lon="-2.37999639473855495452880859375">
        <ele>873.79998779296875</ele>
        <time>2022-04-17T15:54:10.000Z</time>
      </trkpt>
      <trkpt lat="42.97204253263771533966064453125" lon="-2.3800033517181873321533203125">
        <ele>873.79998779296875</ele>
        <time>2022-04-17T15:54:11.000Z</time>
      </trkpt>
      <trkpt lat="42.97203683294355869293212890625" lon="-2.3800134100019931793212890625">
        <ele>873.79998779296875</ele>
        <time>2022-04-17T15:54:12.000Z</time>
      </trkpt>
      <trkpt lat="42.97203582711517810821533203125" lon="-2.38001584075391292572021484375">
        <ele>873.79998779296875</ele>
        <time>2022-04-17T15:54:13.000Z</time>
      </trkpt>
      <trkpt lat="42.9720332287251949310302734375" lon="-2.38000930286943912506103515625">
        <ele>873.5999755859375</ele>
        <time>2022-04-17T15:54:14.000Z</time>
      </trkpt>
      <trkpt lat="42.97202828340232372283935546875" lon="-2.3800006695091724395751953125">
        <ele>873.79998779296875</ele>
        <time>2022-04-17T15:54:15.000Z</time>
      </trkpt>
      <trkpt lat="42.97202669084072113037109375" lon="-2.3799996636807918548583984375">
        <ele>873.79998779296875</ele>
        <time>2022-04-17T15:54:16.000Z</time>
      </trkpt>
      <trkpt lat="42.9720312170684337615966796875" lon="-2.38000511191785335540771484375">
        <ele>873.79998779296875</ele>
        <time>2022-04-17T15:54:17.000Z</time>
      </trkpt>
      <trkpt lat="42.97203473746776580810546875" lon="-2.38001399673521518707275390625">
        <ele>874</ele>
        <time>2022-04-17T15:54:18.000Z</time>
      </trkpt>
      <trkpt lat="42.97203968279063701629638671875" lon="-2.3800224624574184417724609375">
        <ele>874</ele>
        <time>2022-04-17T15:54:19.000Z</time>
      </trkpt>
      <trkpt lat="42.97204471193253993988037109375" lon="-2.38003260456025600433349609375">
        <ele>874</ele>
        <time>2022-04-17T15:54:20.000Z</time>
      </trkpt>
      <trkpt lat="42.972048483788967132568359375" lon="-2.3800432495772838592529296875">
        <ele>874</ele>
        <time>2022-04-17T15:54:21.000Z</time>
      </trkpt>
      <trkpt lat="42.97205007635056972503662109375" lon="-2.3800506256520748138427734375">
        <ele>874</ele>
        <time>2022-04-17T15:54:22.000Z</time>
      </trkpt>
      <trkpt lat="42.97205644659698009490966796875" lon="-2.38006629981100559234619140625">
        <ele>873.79998779296875</ele>
        <time>2022-04-17T15:54:23.000Z</time>
      </trkpt>
      <trkpt lat="42.97205728478729724884033203125" lon="-2.380078621208667755126953125">
        <ele>873.79998779296875</ele>
        <time>2022-04-17T15:54:24.000Z</time>
      </trkpt>
      <trkpt lat="42.97206046991050243377685546875" lon="-2.38009429536759853363037109375">
        <ele>873.79998779296875</ele>
        <time>2022-04-17T15:54:25.000Z</time>
      </trkpt>
      <trkpt lat="42.9720660857856273651123046875" lon="-2.3801089636981487274169921875">
        <ele>873.5999755859375</ele>
        <time>2022-04-17T15:54:26.000Z</time>
      </trkpt>
      <trkpt lat="42.9720727913081645965576171875" lon="-2.38012111745774745941162109375">
        <ele>873.4000244140625</ele>
        <time>2022-04-17T15:54:27.000Z</time>
      </trkpt>
      <trkpt lat="42.97207505442202091217041015625" lon="-2.380128912627696990966796875">
        <ele>873.4000244140625</ele>
        <time>2022-04-17T15:54:28.000Z</time>
      </trkpt>
      <trkpt lat="42.9720774851739406585693359375" lon="-2.38014508970081806182861328125">
        <ele>873.4000244140625</ele>
        <time>2022-04-17T15:54:29.000Z</time>
      </trkpt>
      <trkpt lat="42.97207606025040149688720703125" lon="-2.380157746374607086181640625">
        <ele>873.20001220703125</ele>
        <time>2022-04-17T15:54:30.000Z</time>
      </trkpt>
      <trkpt lat="42.97207857482135295867919921875" lon="-2.38017878495156764984130859375">
        <ele>873.20001220703125</ele>
        <time>2022-04-17T15:54:31.000Z</time>
      </trkpt>
      <trkpt lat="42.97207765281200408935546875" lon="-2.3801954649388790130615234375">
        <ele>873.20001220703125</ele>
        <time>2022-04-17T15:54:32.000Z</time>
      </trkpt>
      <trkpt lat="42.97208259813487529754638671875" lon="-2.38021038472652435302734375">
        <ele>873.20001220703125</ele>
        <time>2022-04-17T15:54:33.000Z</time>
      </trkpt>
      <trkpt lat="42.97209081239998340606689453125" lon="-2.380227483808994293212890625">
        <ele>873.20001220703125</ele>
        <time>2022-04-17T15:54:34.000Z</time>
      </trkpt>
      <trkpt lat="42.9720935784280300140380859375" lon="-2.3802467621862888336181640625">
        <ele>873</ele>
        <time>2022-04-17T15:54:35.000Z</time>
      </trkpt>
      <trkpt lat="42.97209131531417369842529296875" lon="-2.38026578910648822784423828125">
        <ele>873</ele>
        <time>2022-04-17T15:54:36.000Z</time>
      </trkpt>
      <trkpt lat="42.97208377160131931304931640625" lon="-2.3802789486944675445556640625">
        <ele>873</ele>
        <time>2022-04-17T15:54:37.000Z</time>
      </trkpt>
      <trkpt lat="42.97208393923938274383544921875" lon="-2.38028372637927532196044921875">
        <ele>873</ele>
        <time>2022-04-17T15:54:38.000Z</time>
      </trkpt>
      <trkpt lat="42.972083352506160736083984375" lon="-2.38028624095022678375244140625">
        <ele>873</ele>
        <time>2022-04-17T15:54:39.000Z</time>
      </trkpt>
      <trkpt lat="42.97208167612552642822265625" lon="-2.38030149601399898529052734375">
        <ele>873</ele>
        <time>2022-04-17T15:54:40.000Z</time>
      </trkpt>
      <trkpt lat="42.97208595089614391326904296875" lon="-2.3803178407251834869384765625">
        <ele>873</ele>
        <time>2022-04-17T15:54:41.000Z</time>
      </trkpt>
      <trkpt lat="42.972086369991302490234375" lon="-2.3803292401134967803955078125">
        <ele>872.79998779296875</ele>
        <time>2022-04-17T15:54:42.000Z</time>
      </trkpt>
      <trkpt lat="42.97208569943904876708984375" lon="-2.3803436569869518280029296875">
        <ele>872.79998779296875</ele>
        <time>2022-04-17T15:54:43.000Z</time>
      </trkpt>
      <trkpt lat="42.972084693610668182373046875" lon="-2.3803594149649143218994140625">
        <ele>872.5999755859375</ele>
        <time>2022-04-17T15:54:44.000Z</time>
      </trkpt>
      <trkpt lat="42.97208209522068500518798828125" lon="-2.38037626259028911590576171875">
        <ele>872.5999755859375</ele>
        <time>2022-04-17T15:54:45.000Z</time>
      </trkpt>
      <trkpt lat="42.97208343632519245147705078125" lon="-2.38038782961666584014892578125">
        <ele>872.4000244140625</ele>
        <time>2022-04-17T15:54:46.000Z</time>
      </trkpt>
      <trkpt lat="42.97208528034389019012451171875" lon="-2.38039738498628139495849609375">
        <ele>872.4000244140625</ele>
        <time>2022-04-17T15:54:47.000Z</time>
      </trkpt>
      <trkpt lat="42.97208662144839763641357421875" lon="-2.38041498698294162750244140625">
        <ele>872.4000244140625</ele>
        <time>2022-04-17T15:54:48.000Z</time>
      </trkpt>
      <trkpt lat="42.97208762727677822113037109375" lon="-2.38043158315122127532958984375">
        <ele>872.20001220703125</ele>
        <time>2022-04-17T15:54:49.000Z</time>
      </trkpt>
      <trkpt lat="42.97209064476191997528076171875" lon="-2.380441725254058837890625">
        <ele>872.20001220703125</ele>
        <time>2022-04-17T15:54:50.000Z</time>
      </trkpt>
      <trkpt lat="42.97209374606609344482421875" lon="-2.38045035861432552337646484375">
        <ele>872</ele>
        <time>2022-04-17T15:54:51.000Z</time>
      </trkpt>
      <trkpt lat="42.9720949195325374603271484375" lon="-2.38046385347843170166015625">
        <ele>871.79998779296875</ele>
        <time>2022-04-17T15:54:52.000Z</time>
      </trkpt>
      <trkpt lat="42.97209634445607662200927734375" lon="-2.38047860562801361083984375">
        <ele>871.5999755859375</ele>
        <time>2022-04-17T15:54:53.000Z</time>
      </trkpt>
      <trkpt lat="42.9720959253609180450439453125" lon="-2.38049025647342205047607421875">
        <ele>871.5999755859375</ele>
        <time>2022-04-17T15:54:54.000Z</time>
      </trkpt>
      <trkpt lat="42.9720992781221866607666015625" lon="-2.38050282932817935943603515625">
        <ele>871.4000244140625</ele>
        <time>2022-04-17T15:54:55.000Z</time>
      </trkpt>
      <trkpt lat="42.97210237942636013031005859375" lon="-2.38051171414554119110107421875">
        <ele>871.20001220703125</ele>
        <time>2022-04-17T15:54:56.000Z</time>
      </trkpt>
      <trkpt lat="42.97211059369146823883056640625" lon="-2.38052663393318653106689453125">
        <ele>871.20001220703125</ele>
        <time>2022-04-17T15:54:57.000Z</time>
      </trkpt>
      <trkpt lat="42.97211595810949802398681640625" lon="-2.38054490648210048675537109375">
        <ele>871</ele>
        <time>2022-04-17T15:54:58.000Z</time>
      </trkpt>
      <trkpt lat="42.972122915089130401611328125" lon="-2.38056602887809276580810546875">
        <ele>871</ele>
        <time>2022-04-17T15:54:59.000Z</time>
      </trkpt>
      <trkpt lat="42.9721261002123355865478515625" lon="-2.38058145157992839813232421875">
        <ele>870.79998779296875</ele>
        <time>2022-04-17T15:55:00.000Z</time>
      </trkpt>
      <trkpt lat="42.97212869860231876373291015625" lon="-2.38058983348309993743896484375">
        <ele>870.79998779296875</ele>
        <time>2022-04-17T15:55:01.000Z</time>
      </trkpt>
      <trkpt lat="42.9721274413168430328369140625" lon="-2.3806055076420307159423828125">
        <ele>870.79998779296875</ele>
        <time>2022-04-17T15:55:02.000Z</time>
      </trkpt>
      <trkpt lat="42.97212995588779449462890625" lon="-2.38062134943902492523193359375">
        <ele>870.79998779296875</ele>
        <time>2022-04-17T15:55:03.000Z</time>
      </trkpt>
      <trkpt lat="42.9721307940781116485595703125" lon="-2.3806283064186573028564453125">
        <ele>870.79998779296875</ele>
        <time>2022-04-17T15:55:04.000Z</time>
      </trkpt>
      <trkpt lat="42.97213288955390453338623046875" lon="-2.38063543103635311126708984375">
        <ele>870.79998779296875</ele>
        <time>2022-04-17T15:55:05.000Z</time>
      </trkpt>
      <trkpt lat="42.97213506884872913360595703125" lon="-2.380640543997287750244140625">
        <ele>870.5999755859375</ele>
        <time>2022-04-17T15:55:06.000Z</time>
      </trkpt>
      <trkpt lat="42.972133643925189971923828125" lon="-2.3806437291204929351806640625">
        <ele>870.5999755859375</ele>
        <time>2022-04-17T15:55:07.000Z</time>
      </trkpt>
      <trkpt lat="42.97213389538228511810302734375" lon="-2.3806511051952838897705078125">
        <ele>870.5999755859375</ele>
        <time>2022-04-17T15:55:08.000Z</time>
      </trkpt>
      <trkpt lat="42.97213490121066570281982421875" lon="-2.38066610880196094512939453125">
        <ele>870.5999755859375</ele>
        <time>2022-04-17T15:55:09.000Z</time>
      </trkpt>
      <trkpt lat="42.972138337790966033935546875" lon="-2.38067734055221080780029296875">
        <ele>870.5999755859375</ele>
        <time>2022-04-17T15:55:10.000Z</time>
      </trkpt>
      <trkpt lat="42.972139678895473480224609375" lon="-2.3806903325021266937255859375">
        <ele>870.4000244140625</ele>
        <time>2022-04-17T15:55:11.000Z</time>
      </trkpt>
      <trkpt lat="42.9721442051231861114501953125" lon="-2.38070449791848659515380859375">
        <ele>870.4000244140625</ele>
        <time>2022-04-17T15:55:12.000Z</time>
      </trkpt>
      <trkpt lat="42.972144372761249542236328125" lon="-2.38071723841130733489990234375">
        <ele>870.4000244140625</ele>
        <time>2022-04-17T15:55:13.000Z</time>
      </trkpt>
      <trkpt lat="42.97214546240866184234619140625" lon="-2.38073073327541351318359375">
        <ele>870.20001220703125</ele>
        <time>2022-04-17T15:55:14.000Z</time>
      </trkpt>
      <trkpt lat="42.972148396074771881103515625" lon="-2.38074154593050479888916015625">
        <ele>870.20001220703125</ele>
        <time>2022-04-17T15:55:15.000Z</time>
      </trkpt>
      <trkpt lat="42.972150743007659912109375" lon="-2.38075378350913524627685546875">
        <ele>870.20001220703125</ele>
        <time>2022-04-17T15:55:16.000Z</time>
      </trkpt>
      <trkpt lat="42.97215451486408710479736328125" lon="-2.38076560199260711669921875">
        <ele>870.20001220703125</ele>
        <time>2022-04-17T15:55:17.000Z</time>
      </trkpt>
      <trkpt lat="42.97215837053954601287841796875" lon="-2.380775995552539825439453125">
        <ele>870.20001220703125</ele>
        <time>2022-04-17T15:55:18.000Z</time>
      </trkpt>
      <trkpt lat="42.97215878963470458984375" lon="-2.38078278489410877227783203125">
        <ele>870.20001220703125</ele>
        <time>2022-04-17T15:55:19.000Z</time>
      </trkpt>
      <trkpt lat="42.9721616394817829132080078125" lon="-2.38079720176756381988525390625">
        <ele>870.20001220703125</ele>
        <time>2022-04-17T15:55:20.000Z</time>
      </trkpt>
      <trkpt lat="42.9721653275191783905029296875" lon="-2.38080759532749652862548828125">
        <ele>870.20001220703125</ele>
        <time>2022-04-17T15:55:21.000Z</time>
      </trkpt>
      <trkpt lat="42.972166836261749267578125" lon="-2.3808123730123043060302734375">
        <ele>870.20001220703125</ele>
        <time>2022-04-17T15:55:22.000Z</time>
      </trkpt>
      <trkpt lat="42.97216641716659069061279296875" lon="-2.380814217031002044677734375">
        <ele>870.20001220703125</ele>
        <time>2022-04-17T15:55:23.000Z</time>
      </trkpt>
      <trkpt lat="42.97216742299497127532958984375" lon="-2.380812205374240875244140625">
        <ele>870.20001220703125</ele>
        <time>2022-04-17T15:55:24.000Z</time>
      </trkpt>
      <trkpt lat="42.9721643216907978057861328125" lon="-2.38081765361130237579345703125">
        <ele>870.20001220703125</ele>
        <time>2022-04-17T15:55:25.000Z</time>
      </trkpt>
      <trkpt lat="42.97216214239597320556640625" lon="-2.380822263658046722412109375">
        <ele>870.20001220703125</ele>
        <time>2022-04-17T15:55:26.000Z</time>
      </trkpt>
      <trkpt lat="42.97215753234922885894775390625" lon="-2.38082637079060077667236328125">
        <ele>870.20001220703125</ele>
        <time>2022-04-17T15:55:27.000Z</time>
      </trkpt>
      <trkpt lat="42.972151748836040496826171875" lon="-2.3808435536921024322509765625">
        <ele>870</ele>
        <time>2022-04-17T15:55:28.000Z</time>
      </trkpt>
      <trkpt lat="42.9721547663211822509765625" lon="-2.380851097404956817626953125">
        <ele>870</ele>
        <time>2022-04-17T15:55:29.000Z</time>
      </trkpt>
      <trkpt lat="42.9721586219966411590576171875" lon="-2.38086593337357044219970703125">
        <ele>870</ele>
        <time>2022-04-17T15:55:30.000Z</time>
      </trkpt>
      <trkpt lat="42.97216189093887805938720703125" lon="-2.38087632693350315093994140625">
        <ele>870</ele>
        <time>2022-04-17T15:55:31.000Z</time>
      </trkpt>
      <trkpt lat="42.97216524370014667510986328125" lon="-2.38088420592248439788818359375">
        <ele>870</ele>
        <time>2022-04-17T15:55:32.000Z</time>
      </trkpt>
      <trkpt lat="42.97216909937560558319091796875" lon="-2.3808975331485271453857421875">
        <ele>870</ele>
        <time>2022-04-17T15:55:33.000Z</time>
      </trkpt>
      <trkpt lat="42.97217312268912792205810546875" lon="-2.380912117660045623779296875">
        <ele>869.79998779296875</ele>
        <time>2022-04-17T15:55:34.000Z</time>
      </trkpt>
      <trkpt lat="42.972179912030696868896484375" lon="-2.38092762418091297149658203125">
        <ele>869.79998779296875</ele>
        <time>2022-04-17T15:55:35.000Z</time>
      </trkpt>
      <trkpt lat="42.972188293933868408203125" lon="-2.3809431307017803192138671875">
        <ele>869.5999755859375</ele>
        <time>2022-04-17T15:55:36.000Z</time>
      </trkpt>
      <trkpt lat="42.9721965081989765167236328125" lon="-2.38095914013683795928955078125">
        <ele>869.5999755859375</ele>
        <time>2022-04-17T15:55:37.000Z</time>
      </trkpt>
      <trkpt lat="42.9722030460834503173828125" lon="-2.38097238354384899139404296875">
        <ele>869.5999755859375</ele>
        <time>2022-04-17T15:55:38.000Z</time>
      </trkpt>
      <trkpt lat="42.9722084105014801025390625" lon="-2.380989901721477508544921875">
        <ele>869.5999755859375</ele>
        <time>2022-04-17T15:55:39.000Z</time>
      </trkpt>
      <trkpt lat="42.9722085781395435333251953125" lon="-2.38100741989910602569580078125">
        <ele>869.4000244140625</ele>
        <time>2022-04-17T15:55:40.000Z</time>
      </trkpt>
      <trkpt lat="42.97221033833920955657958984375" lon="-2.38101144321262836456298828125">
        <ele>869.20001220703125</ele>
        <time>2022-04-17T15:55:41.000Z</time>
      </trkpt>
      <trkpt lat="42.9722109250724315643310546875" lon="-2.381020747125148773193359375">
        <ele>869</ele>
        <time>2022-04-17T15:55:42.000Z</time>
      </trkpt>
      <trkpt lat="42.97221251763403415679931640625" lon="-2.38103491254150867462158203125">
        <ele>868.79998779296875</ele>
        <time>2022-04-17T15:55:43.000Z</time>
      </trkpt>
      <trkpt lat="42.972216121852397918701171875" lon="-2.3810557834804058074951171875">
        <ele>868.79998779296875</ele>
        <time>2022-04-17T15:55:44.000Z</time>
      </trkpt>
      <trkpt lat="42.97222517430782318115234375" lon="-2.38107397221028804779052734375">
        <ele>868.79998779296875</ele>
        <time>2022-04-17T15:55:45.000Z</time>
      </trkpt>
      <trkpt lat="42.97223347239196300506591796875" lon="-2.381089814007282257080078125">
        <ele>868.79998779296875</ele>
        <time>2022-04-17T15:55:46.000Z</time>
      </trkpt>
      <trkpt lat="42.97223162837326526641845703125" lon="-2.38109509460628032684326171875">
        <ele>868.79998779296875</ele>
        <time>2022-04-17T15:55:47.000Z</time>
      </trkpt>
      <trkpt lat="42.97223858535289764404296875" lon="-2.38110783509910106658935546875">
        <ele>868.5999755859375</ele>
        <time>2022-04-17T15:55:48.000Z</time>
      </trkpt>
      <trkpt lat="42.9722467996180057525634765625" lon="-2.381117977201938629150390625">
        <ele>868.79998779296875</ele>
        <time>2022-04-17T15:55:49.000Z</time>
      </trkpt>
      <trkpt lat="42.97225006856024265289306640625" lon="-2.3811278678476810455322265625">
        <ele>868.5999755859375</ele>
        <time>2022-04-17T15:55:50.000Z</time>
      </trkpt>
      <trkpt lat="42.97225275076925754547119140625" lon="-2.38113968633115291595458984375">
        <ele>868.5999755859375</ele>
        <time>2022-04-17T15:55:51.000Z</time>
      </trkpt>
      <trkpt lat="42.9722555167973041534423828125" lon="-2.3811543546617031097412109375">
        <ele>868.5999755859375</ele>
        <time>2022-04-17T15:55:52.000Z</time>
      </trkpt>
      <trkpt lat="42.97225392423570156097412109375" lon="-2.38116265274584293365478515625">
        <ele>868.5999755859375</ele>
        <time>2022-04-17T15:55:53.000Z</time>
      </trkpt>
      <trkpt lat="42.97225442714989185333251953125" lon="-2.381172962486743927001953125">
        <ele>868.5999755859375</ele>
        <time>2022-04-17T15:55:54.000Z</time>
      </trkpt>
      <trkpt lat="42.97225995920598506927490234375" lon="-2.38118260167539119720458984375">
        <ele>868.4000244140625</ele>
        <time>2022-04-17T15:55:55.000Z</time>
      </trkpt>
      <trkpt lat="42.9722625575959682464599609375" lon="-2.38118897192180156707763671875">
        <ele>868.4000244140625</ele>
        <time>2022-04-17T15:55:56.000Z</time>
      </trkpt>
      <trkpt lat="42.9722689278423786163330078125" lon="-2.3811929114162921905517578125">
        <ele>868.4000244140625</ele>
        <time>2022-04-17T15:55:57.000Z</time>
      </trkpt>
      <trkpt lat="42.97227705828845500946044921875" lon="-2.3811925761401653289794921875">
        <ele>868.4000244140625</ele>
        <time>2022-04-17T15:55:58.000Z</time>
      </trkpt>
      <trkpt lat="42.9722835123538970947265625" lon="-2.38120271824300289154052734375">
        <ele>868.4000244140625</ele>
        <time>2022-04-17T15:55:59.000Z</time>
      </trkpt>
      <trkpt lat="42.97228259034454822540283203125" lon="-2.381214536726474761962890625">
        <ele>868.4000244140625</ele>
        <time>2022-04-17T15:56:00.000Z</time>
      </trkpt>
      <trkpt lat="42.97227638773620128631591796875" lon="-2.38122082315385341644287109375">
        <ele>868.4000244140625</ele>
        <time>2022-04-17T15:56:01.000Z</time>
      </trkpt>
      <trkpt lat="42.972271777689456939697265625" lon="-2.381227277219295501708984375">
        <ele>868.20001220703125</ele>
        <time>2022-04-17T15:56:02.000Z</time>
      </trkpt>
      <trkpt lat="42.97227077186107635498046875" lon="-2.38123171962797641754150390625">
        <ele>868.20001220703125</ele>
        <time>2022-04-17T15:56:03.000Z</time>
      </trkpt>
      <trkpt lat="42.9722739569842815399169921875" lon="-2.38124546594917774200439453125">
        <ele>868.20001220703125</ele>
        <time>2022-04-17T15:56:04.000Z</time>
      </trkpt>
      <trkpt lat="42.97227521426975727081298828125" lon="-2.38126457668840885162353515625">
        <ele>868.20001220703125</ele>
        <time>2022-04-17T15:56:05.000Z</time>
      </trkpt>
      <trkpt lat="42.97228627838194370269775390625" lon="-2.38127681426703929901123046875">
        <ele>868.20001220703125</ele>
        <time>2022-04-17T15:56:06.000Z</time>
      </trkpt>
      <trkpt lat="42.97229499556124210357666015625" lon="-2.38128754310309886932373046875">
        <ele>868.20001220703125</ele>
        <time>2022-04-17T15:56:07.000Z</time>
      </trkpt>
      <trkpt lat="42.9723068140447139739990234375" lon="-2.3812981881201267242431640625">
        <ele>868.20001220703125</ele>
        <time>2022-04-17T15:56:08.000Z</time>
      </trkpt>
      <trkpt lat="42.972313351929187774658203125" lon="-2.3813092522323131561279296875">
        <ele>868.20001220703125</ele>
        <time>2022-04-17T15:56:09.000Z</time>
      </trkpt>
      <trkpt lat="42.97232416458427906036376953125" lon="-2.38132643513381481170654296875">
        <ele>868</ele>
        <time>2022-04-17T15:56:10.000Z</time>
      </trkpt>
      <trkpt lat="42.97233673743903636932373046875" lon="-2.38134353421628475189208984375">
        <ele>867.79998779296875</ele>
        <time>2022-04-17T15:56:11.000Z</time>
      </trkpt>
      <trkpt lat="42.97234310768544673919677734375" lon="-2.381355352699756622314453125">
        <ele>867.79998779296875</ele>
        <time>2022-04-17T15:56:12.000Z</time>
      </trkpt>
      <trkpt lat="42.9723487235605716705322265625" lon="-2.3813685961067676544189453125">
        <ele>867.79998779296875</ele>
        <time>2022-04-17T15:56:13.000Z</time>
      </trkpt>
      <trkpt lat="42.97235283069312572479248046875" lon="-2.3813779838383197784423828125">
        <ele>867.5999755859375</ele>
        <time>2022-04-17T15:56:14.000Z</time>
      </trkpt>
      <trkpt lat="42.97236020676791667938232421875" lon="-2.381400950253009796142578125">
        <ele>867.5999755859375</ele>
        <time>2022-04-17T15:56:15.000Z</time>
      </trkpt>
      <trkpt lat="42.972362972795963287353515625" lon="-2.38141545094549655914306640625">
        <ele>867.5999755859375</ele>
        <time>2022-04-17T15:56:16.000Z</time>
      </trkpt>
      <trkpt lat="42.972364984452724456787109375" lon="-2.3814269341528415679931640625">
        <ele>867.5999755859375</ele>
        <time>2022-04-17T15:56:17.000Z</time>
      </trkpt>
      <trkpt lat="42.97236959449946880340576171875" lon="-2.381439507007598876953125">
        <ele>867.5999755859375</ele>
        <time>2022-04-17T15:56:18.000Z</time>
      </trkpt>
      <trkpt lat="42.9723755456507205963134765625" lon="-2.38145451061427593231201171875">
        <ele>867.5999755859375</ele>
        <time>2022-04-17T15:56:19.000Z</time>
      </trkpt>
      <trkpt lat="42.9723795689642429351806640625" lon="-2.38146892748773097991943359375">
        <ele>867.5999755859375</ele>
        <time>2022-04-17T15:56:20.000Z</time>
      </trkpt>
      <trkpt lat="42.97238267026841640472412109375" lon="-2.38148317672312259674072265625">
        <ele>867.79998779296875</ele>
        <time>2022-04-17T15:56:21.000Z</time>
      </trkpt>
      <trkpt lat="42.97238585539162158966064453125" lon="-2.381494157016277313232421875">
        <ele>867.5999755859375</ele>
        <time>2022-04-17T15:56:22.000Z</time>
      </trkpt>
      <trkpt lat="42.97238836996257305145263671875" lon="-2.38150463439524173736572265625">
        <ele>867.5999755859375</ele>
        <time>2022-04-17T15:56:23.000Z</time>
      </trkpt>
      <trkpt lat="42.97239004634320735931396484375" lon="-2.38151653669774532318115234375">
        <ele>867.5999755859375</ele>
        <time>2022-04-17T15:56:24.000Z</time>
      </trkpt>
      <trkpt lat="42.97239138744771480560302734375" lon="-2.38152625970542430877685546875">
        <ele>867.5999755859375</ele>
        <time>2022-04-17T15:56:25.000Z</time>
      </trkpt>
      <trkpt lat="42.972392477095127105712890625" lon="-2.3815318755805492401123046875">
        <ele>867.4000244140625</ele>
        <time>2022-04-17T15:56:26.000Z</time>
      </trkpt>
      <trkpt lat="42.972397506237030029296875" lon="-2.38154000602662563323974609375">
        <ele>867.4000244140625</ele>
        <time>2022-04-17T15:56:27.000Z</time>
      </trkpt>
      <trkpt lat="42.97239691950380802154541015625" lon="-2.3815479688346385955810546875">
        <ele>867.4000244140625</ele>
        <time>2022-04-17T15:56:28.000Z</time>
      </trkpt>
      <trkpt lat="42.972394488751888275146484375" lon="-2.38156079314649105072021484375">
        <ele>867.4000244140625</ele>
        <time>2022-04-17T15:56:29.000Z</time>
      </trkpt>
      <trkpt lat="42.97239507548511028289794921875" lon="-2.38157403655350208282470703125">
        <ele>867.4000244140625</ele>
        <time>2022-04-17T15:56:30.000Z</time>
      </trkpt>
      <trkpt lat="42.97239658422768115997314453125" lon="-2.38158493302762508392333984375">
        <ele>867.4000244140625</ele>
        <time>2022-04-17T15:56:31.000Z</time>
      </trkpt>
      <trkpt lat="42.9723909683525562286376953125" lon="-2.38159297965466976165771484375">
        <ele>867.4000244140625</ele>
        <time>2022-04-17T15:56:32.000Z</time>
      </trkpt>
      <trkpt lat="42.9723862744867801666259765625" lon="-2.381602115929126739501953125">
        <ele>867.4000244140625</ele>
        <time>2022-04-17T15:56:33.000Z</time>
      </trkpt>
      <trkpt lat="42.97238820232450962066650390625" lon="-2.38161225803196430206298828125">
        <ele>867.4000244140625</ele>
        <time>2022-04-17T15:56:34.000Z</time>
      </trkpt>
      <trkpt lat="42.97239071689546108245849609375" lon="-2.38162198103964328765869140625">
        <ele>867.4000244140625</ele>
        <time>2022-04-17T15:56:35.000Z</time>
      </trkpt>
      <trkpt lat="42.97239222563803195953369140625" lon="-2.38163136877119541168212890625">
        <ele>867.4000244140625</ele>
        <time>2022-04-17T15:56:36.000Z</time>
      </trkpt>
      <trkpt lat="42.972391806542873382568359375" lon="-2.381643019616603851318359375">
        <ele>867.4000244140625</ele>
        <time>2022-04-17T15:56:37.000Z</time>
      </trkpt>
      <trkpt lat="42.97238744795322418212890625" lon="-2.381655089557170867919921875">
        <ele>867.4000244140625</ele>
        <time>2022-04-17T15:56:38.000Z</time>
      </trkpt>
      <trkpt lat="42.97238384373486042022705078125" lon="-2.3816669918596744537353515625">
        <ele>867.4000244140625</ele>
        <time>2022-04-17T15:56:39.000Z</time>
      </trkpt>
      <trkpt lat="42.9723835922777652740478515625" lon="-2.38167713396251201629638671875">
        <ele>867.4000244140625</ele>
        <time>2022-04-17T15:56:40.000Z</time>
      </trkpt>
      <trkpt lat="42.972382418811321258544921875" lon="-2.38169205375015735626220703125">
        <ele>867.4000244140625</ele>
        <time>2022-04-17T15:56:41.000Z</time>
      </trkpt>
      <trkpt lat="42.97237940132617950439453125" lon="-2.381706051528453826904296875">
        <ele>867.4000244140625</ele>
        <time>2022-04-17T15:56:42.000Z</time>
      </trkpt>
      <trkpt lat="42.97237663529813289642333984375" lon="-2.38171904347836971282958984375">
        <ele>867.4000244140625</ele>
        <time>2022-04-17T15:56:43.000Z</time>
      </trkpt>
      <trkpt lat="42.9723745398223400115966796875" lon="-2.381732203066349029541015625">
        <ele>867.20001220703125</ele>
        <time>2022-04-17T15:56:44.000Z</time>
      </trkpt>
      <trkpt lat="42.9723728634417057037353515625" lon="-2.3817430995404720306396484375">
        <ele>867.20001220703125</ele>
        <time>2022-04-17T15:56:45.000Z</time>
      </trkpt>
      <trkpt lat="42.97237403690814971923828125" lon="-2.38175458274781703948974609375">
        <ele>867.20001220703125</ele>
        <time>2022-04-17T15:56:46.000Z</time>
      </trkpt>
      <trkpt lat="42.972372360527515411376953125" lon="-2.3817652277648448944091796875">
        <ele>867.20001220703125</ele>
        <time>2022-04-17T15:56:47.000Z</time>
      </trkpt>
      <trkpt lat="42.97237269580364227294921875" lon="-2.38177151419222354888916015625">
        <ele>867.20001220703125</ele>
        <time>2022-04-17T15:56:48.000Z</time>
      </trkpt>
      <trkpt lat="42.97237160615622997283935546875" lon="-2.38178542815148830413818359375">
        <ele>867.20001220703125</ele>
        <time>2022-04-17T15:56:49.000Z</time>
      </trkpt>
      <trkpt lat="42.97237009741365909576416015625" lon="-2.38180361688137054443359375">
        <ele>867.20001220703125</ele>
        <time>2022-04-17T15:56:50.000Z</time>
      </trkpt>
      <trkpt lat="42.97236791811883449554443359375" lon="-2.38181660883128643035888671875">
        <ele>867.4000244140625</ele>
        <time>2022-04-17T15:56:51.000Z</time>
      </trkpt>
      <trkpt lat="42.97237026505172252655029296875" lon="-2.3818356357514858245849609375">
        <ele>867.4000244140625</ele>
        <time>2022-04-17T15:56:52.000Z</time>
      </trkpt>
      <trkpt lat="42.9723731987178325653076171875" lon="-2.38184929825365543365478515625">
        <ele>867.4000244140625</ele>
        <time>2022-04-17T15:56:53.000Z</time>
      </trkpt>
      <trkpt lat="42.97238015569746494293212890625" lon="-2.3818762041628360748291015625">
        <ele>867.4000244140625</ele>
        <time>2022-04-17T15:56:54.000Z</time>
      </trkpt>
      <trkpt lat="42.9723933152854442596435546875" lon="-2.381901182234287261962890625">
        <ele>867.4000244140625</ele>
        <time>2022-04-17T15:56:55.000Z</time>
      </trkpt>
      <trkpt lat="42.9723902978003025054931640625" lon="-2.3819187842309474945068359375">
        <ele>867.4000244140625</ele>
        <time>2022-04-17T15:56:56.000Z</time>
      </trkpt>
      <trkpt lat="42.97238074243068695068359375" lon="-2.38192808814346790313720703125">
        <ele>867.20001220703125</ele>
        <time>2022-04-17T15:56:57.000Z</time>
      </trkpt>
      <trkpt lat="42.97237361781299114227294921875" lon="-2.3819352127611637115478515625">
        <ele>867.20001220703125</ele>
        <time>2022-04-17T15:56:58.000Z</time>
      </trkpt>
      <trkpt lat="42.9723685048520565032958984375" lon="-2.381944097578525543212890625">
        <ele>867.20001220703125</ele>
        <time>2022-04-17T15:56:59.000Z</time>
      </trkpt>
      <trkpt lat="42.972373031079769134521484375" lon="-2.38194753415882587432861328125">
        <ele>867.20001220703125</ele>
        <time>2022-04-17T15:57:00.000Z</time>
      </trkpt>
      <trkpt lat="42.97237311489880084991455078125" lon="-2.3819536529481410980224609375">
        <ele>866.79998779296875</ele>
        <time>2022-04-17T15:57:01.000Z</time>
      </trkpt>
      <trkpt lat="42.9723725281655788421630859375" lon="-2.3819627054035663604736328125">
        <ele>866.79998779296875</ele>
        <time>2022-04-17T15:57:02.000Z</time>
      </trkpt>
      <trkpt lat="42.97237127088010311126708984375" lon="-2.381985001266002655029296875">
        <ele>866.5999755859375</ele>
        <time>2022-04-17T15:57:03.000Z</time>
      </trkpt>
      <trkpt lat="42.9723680019378662109375" lon="-2.38200553692877292633056640625">
        <ele>866.5999755859375</ele>
        <time>2022-04-17T15:57:04.000Z</time>
      </trkpt>
      <trkpt lat="42.97236657701432704925537109375" lon="-2.38202758133411407470703125">
        <ele>866.4000244140625</ele>
        <time>2022-04-17T15:57:05.000Z</time>
      </trkpt>
      <trkpt lat="42.97236808575689792633056640625" lon="-2.3820482008159160614013671875">
        <ele>866.4000244140625</ele>
        <time>2022-04-17T15:57:06.000Z</time>
      </trkpt>
      <trkpt lat="42.972368337213993072509765625" lon="-2.38206068985164165496826171875">
        <ele>866.4000244140625</ele>
        <time>2022-04-17T15:57:07.000Z</time>
      </trkpt>
      <trkpt lat="42.97236942686140537261962890625" lon="-2.38207410089671611785888671875">
        <ele>866.4000244140625</ele>
        <time>2022-04-17T15:57:08.000Z</time>
      </trkpt>
      <trkpt lat="42.97237043268978595733642578125" lon="-2.38208390772342681884765625">
        <ele>866.4000244140625</ele>
        <time>2022-04-17T15:57:09.000Z</time>
      </trkpt>
      <trkpt lat="42.9723715223371982574462890625" lon="-2.3820968158543109893798828125">
        <ele>866.4000244140625</ele>
        <time>2022-04-17T15:57:10.000Z</time>
      </trkpt>
      <trkpt lat="42.97237026505172252655029296875" lon="-2.38211986608803272247314453125">
        <ele>866.4000244140625</ele>
        <time>2022-04-17T15:57:11.000Z</time>
      </trkpt>
      <trkpt lat="42.972368337213993072509765625" lon="-2.38212523050606250762939453125">
        <ele>866.4000244140625</ele>
        <time>2022-04-17T15:57:12.000Z</time>
      </trkpt>
      <trkpt lat="42.97236808575689792633056640625" lon="-2.3821293376386165618896484375">
        <ele>866.4000244140625</ele>
        <time>2022-04-17T15:57:13.000Z</time>
      </trkpt>
      <trkpt lat="42.97236875630915164947509765625" lon="-2.38213310949504375457763671875">
        <ele>866.4000244140625</ele>
        <time>2022-04-17T15:57:14.000Z</time>
      </trkpt>
      <trkpt lat="42.9723711870610713958740234375" lon="-2.38213830627501010894775390625">
        <ele>866.20001220703125</ele>
        <time>2022-04-17T15:57:15.000Z</time>
      </trkpt>
      <trkpt lat="42.9723765514791011810302734375" lon="-2.3821474425494670867919921875">
        <ele>866.20001220703125</ele>
        <time>2022-04-17T15:57:16.000Z</time>
      </trkpt>
      <trkpt lat="42.9723792336881160736083984375" lon="-2.38215624354779720306396484375">
        <ele>866</ele>
        <time>2022-04-17T15:57:17.000Z</time>
      </trkpt>
      <trkpt lat="42.972381077706813812255859375" lon="-2.38215708173811435699462890625">
        <ele>866</ele>
        <time>2022-04-17T15:57:18.000Z</time>
      </trkpt>
      <trkpt lat="42.97238350845873355865478515625" lon="-2.38216026686131954193115234375">
        <ele>865.79998779296875</ele>
        <time>2022-04-17T15:57:19.000Z</time>
      </trkpt>
      <trkpt lat="42.9723862744867801666259765625" lon="-2.38216965459287166595458984375">
        <ele>865.79998779296875</ele>
        <time>2022-04-17T15:57:20.000Z</time>
      </trkpt>
      <trkpt lat="42.97238971106708049774169921875" lon="-2.38218692131340503692626953125">
        <ele>865.5999755859375</ele>
        <time>2022-04-17T15:57:21.000Z</time>
      </trkpt>
      <trkpt lat="42.97239406965672969818115234375" lon="-2.382203601300716400146484375">
        <ele>865.4000244140625</ele>
        <time>2022-04-17T15:57:22.000Z</time>
      </trkpt>
      <trkpt lat="42.97239641658961772918701171875" lon="-2.38221961073577404022216796875">
        <ele>865</ele>
        <time>2022-04-17T15:57:23.000Z</time>
      </trkpt>
      <trkpt lat="42.972397506237030029296875" lon="-2.382229752838611602783203125">
        <ele>865</ele>
        <time>2022-04-17T15:57:24.000Z</time>
      </trkpt>
      <trkpt lat="42.97240085899829864501953125" lon="-2.38223754800856113433837890625">
        <ele>864.79998779296875</ele>
        <time>2022-04-17T15:57:25.000Z</time>
      </trkpt>
      <trkpt lat="42.97240211628377437591552734375" lon="-2.3822455108165740966796875">
        <ele>864.5999755859375</ele>
        <time>2022-04-17T15:57:26.000Z</time>
      </trkpt>
      <trkpt lat="42.97240127809345722198486328125" lon="-2.382253222167491912841796875">
        <ele>864.5999755859375</ele>
        <time>2022-04-17T15:57:27.000Z</time>
      </trkpt>
      <trkpt lat="42.972400523722171783447265625" lon="-2.3822604306042194366455078125">
        <ele>864.4000244140625</ele>
        <time>2022-04-17T15:57:28.000Z</time>
      </trkpt>
      <trkpt lat="42.972403205931186676025390625" lon="-2.3822688125073909759521484375">
        <ele>864.4000244140625</ele>
        <time>2022-04-17T15:57:29.000Z</time>
      </trkpt>
      <trkpt lat="42.9724100790917873382568359375" lon="-2.382275350391864776611328125">
        <ele>864.4000244140625</ele>
        <time>2022-04-17T15:57:30.000Z</time>
      </trkpt>
      <trkpt lat="42.97241318039596080780029296875" lon="-2.382278032600879669189453125">
        <ele>864.20001220703125</ele>
        <time>2022-04-17T15:57:31.000Z</time>
      </trkpt>
      <trkpt lat="42.97241603024303913116455078125" lon="-2.3822771944105625152587890625">
        <ele>864</ele>
        <time>2022-04-17T15:57:32.000Z</time>
      </trkpt>
      <trkpt lat="42.97242022119462490081787109375" lon="-2.38228046335279941558837890625">
        <ele>864</ele>
        <time>2022-04-17T15:57:33.000Z</time>
      </trkpt>
      <trkpt lat="42.97242659144103527069091796875" lon="-2.38228549249470233917236328125">
        <ele>863.79998779296875</ele>
        <time>2022-04-17T15:57:34.000Z</time>
      </trkpt>
      <trkpt lat="42.97243530862033367156982421875" lon="-2.382292449474334716796875">
        <ele>863.79998779296875</ele>
        <time>2022-04-17T15:57:35.000Z</time>
      </trkpt>
      <trkpt lat="42.97244201414287090301513671875" lon="-2.38230208866298198699951171875">
        <ele>863.5999755859375</ele>
        <time>2022-04-17T15:57:36.000Z</time>
      </trkpt>
      <trkpt lat="42.97245307825505733489990234375" lon="-2.38231633789837360382080078125">
        <ele>863.5999755859375</ele>
        <time>2022-04-17T15:57:37.000Z</time>
      </trkpt>
      <trkpt lat="42.97245626337826251983642578125" lon="-2.38232958130538463592529296875">
        <ele>863.4000244140625</ele>
        <time>2022-04-17T15:57:38.000Z</time>
      </trkpt>
      <trkpt lat="42.97246045432984828948974609375" lon="-2.3823455907404422760009765625">
        <ele>863.4000244140625</ele>
        <time>2022-04-17T15:57:39.000Z</time>
      </trkpt>
      <trkpt lat="42.97246523201465606689453125" lon="-2.38235958851873874664306640625">
        <ele>863.20001220703125</ele>
        <time>2022-04-17T15:57:40.000Z</time>
      </trkpt>
      <trkpt lat="42.97246791422367095947265625" lon="-2.38237014971673488616943359375">
        <ele>863</ele>
        <time>2022-04-17T15:57:41.000Z</time>
      </trkpt>
      <trkpt lat="42.97247671522200107574462890625" lon="-2.38238004036247730255126953125">
        <ele>862.79998779296875</ele>
        <time>2022-04-17T15:57:42.000Z</time>
      </trkpt>
      <trkpt lat="42.97248761169612407684326171875" lon="-2.382392026484012603759765625">
        <ele>862.5999755859375</ele>
        <time>2022-04-17T15:57:43.000Z</time>
      </trkpt>
      <trkpt lat="42.97249867580831050872802734375" lon="-2.38240837119519710540771484375">
        <ele>862.5999755859375</ele>
        <time>2022-04-17T15:57:44.000Z</time>
      </trkpt>
      <trkpt lat="42.9725049622356891632080078125" lon="-2.38241306506097316741943359375">
        <ele>862.4000244140625</ele>
        <time>2022-04-17T15:57:45.000Z</time>
      </trkpt>
      <trkpt lat="42.9725106619298458099365234375" lon="-2.38241792656481266021728515625">
        <ele>862.4000244140625</ele>
        <time>2022-04-17T15:57:46.000Z</time>
      </trkpt>
      <trkpt lat="42.97251694835722446441650390625" lon="-2.38241977058351039886474609375">
        <ele>862.4000244140625</ele>
        <time>2022-04-17T15:57:47.000Z</time>
      </trkpt>
      <trkpt lat="42.97252298332750797271728515625" lon="-2.382422201335430145263671875">
        <ele>862.20001220703125</ele>
        <time>2022-04-17T15:57:48.000Z</time>
      </trkpt>
      <trkpt lat="42.972527258098125457763671875" lon="-2.38242714665830135345458984375">
        <ele>862</ele>
        <time>2022-04-17T15:57:49.000Z</time>
      </trkpt>
      <trkpt lat="42.97253069467842578887939453125" lon="-2.38243385218083858489990234375">
        <ele>861.79998779296875</ele>
        <time>2022-04-17T15:57:50.000Z</time>
      </trkpt>
      <trkpt lat="42.97253438271582126617431640625" lon="-2.38243401981890201568603515625">
        <ele>861.79998779296875</ele>
        <time>2022-04-17T15:57:51.000Z</time>
      </trkpt>
      <trkpt lat="42.97253823839128017425537109375" lon="-2.3824351094663143157958984375">
        <ele>861.79998779296875</ele>
        <time>2022-04-17T15:57:52.000Z</time>
      </trkpt>
      <trkpt lat="42.97254226170480251312255859375" lon="-2.38243636675179004669189453125">
        <ele>861.79998779296875</ele>
        <time>2022-04-17T15:57:53.000Z</time>
      </trkpt>
      <trkpt lat="42.97254896722733974456787109375" lon="-2.382437288761138916015625">
        <ele>861.5999755859375</ele>
        <time>2022-04-17T15:57:54.000Z</time>
      </trkpt>
      <trkpt lat="42.9725570976734161376953125" lon="-2.38243720494210720062255859375">
        <ele>861.5999755859375</ele>
        <time>2022-04-17T15:57:55.000Z</time>
      </trkpt>
      <trkpt lat="42.9725629650056362152099609375" lon="-2.3824404738843441009521484375">
        <ele>861.5999755859375</ele>
        <time>2022-04-17T15:57:56.000Z</time>
      </trkpt>
      <trkpt lat="42.9725731909275054931640625" lon="-2.3824434913694858551025390625">
        <ele>861.5999755859375</ele>
        <time>2022-04-17T15:57:57.000Z</time>
      </trkpt>
      <trkpt lat="42.97257830388844013214111328125" lon="-2.38244089297950267791748046875">
        <ele>861.4000244140625</ele>
        <time>2022-04-17T15:57:58.000Z</time>
      </trkpt>
      <trkpt lat="42.97258299775421619415283203125" lon="-2.382437288761138916015625">
        <ele>861.20001220703125</ele>
        <time>2022-04-17T15:57:59.000Z</time>
      </trkpt>
      <trkpt lat="42.97258852981030941009521484375" lon="-2.38243284635245800018310546875">
        <ele>861</ele>
        <time>2022-04-17T15:58:00.000Z</time>
      </trkpt>
      <trkpt lat="42.97259456478059291839599609375" lon="-2.382433600723743438720703125">
        <ele>861</ele>
        <time>2022-04-17T15:58:01.000Z</time>
      </trkpt>
      <trkpt lat="42.97260143794119358062744140625" lon="-2.38243653438985347747802734375">
        <ele>860.79998779296875</ele>
        <time>2022-04-17T15:58:02.000Z</time>
      </trkpt>
      <trkpt lat="42.9726099036633968353271484375" lon="-2.38244156353175640106201171875">
        <ele>860.79998779296875</ele>
        <time>2022-04-17T15:58:03.000Z</time>
      </trkpt>
      <trkpt lat="42.97261409461498260498046875" lon="-2.38244466483592987060546875">
        <ele>860.5999755859375</ele>
        <time>2022-04-17T15:58:04.000Z</time>
      </trkpt>
      <trkpt lat="42.97261543571949005126953125" lon="-2.38244608975946903228759765625">
        <ele>860.5999755859375</ele>
        <time>2022-04-17T15:58:05.000Z</time>
      </trkpt>
      <trkpt lat="42.97261736355721950531005859375" lon="-2.38245246000587940216064453125">
        <ele>860.4000244140625</ele>
        <time>2022-04-17T15:58:06.000Z</time>
      </trkpt>
      <trkpt lat="42.97261686064302921295166015625" lon="-2.3824535496532917022705078125">
        <ele>860.4000244140625</ele>
        <time>2022-04-17T15:58:07.000Z</time>
      </trkpt>
      <trkpt lat="42.97261568717658519744873046875" lon="-2.3824528791010379791259765625">
        <ele>860.20001220703125</ele>
        <time>2022-04-17T15:58:08.000Z</time>
      </trkpt>
      <trkpt lat="42.97261719591915607452392578125" lon="-2.38245279528200626373291015625">
        <ele>860.20001220703125</ele>
        <time>2022-04-17T15:58:09.000Z</time>
      </trkpt>
      <trkpt lat="42.972619123756885528564453125" lon="-2.38245313055813312530517578125">
        <ele>860.20001220703125</ele>
        <time>2022-04-17T15:58:10.000Z</time>
      </trkpt>
      <trkpt lat="42.97262071631848812103271484375" lon="-2.38245363347232341766357421875">
        <ele>860</ele>
        <time>2022-04-17T15:58:11.000Z</time>
      </trkpt>
      <trkpt lat="42.972619794309139251708984375" lon="-2.38245313055813312530517578125">
        <ele>860</ele>
        <time>2022-04-17T15:58:12.000Z</time>
      </trkpt>
      <trkpt lat="42.97261945903301239013671875" lon="-2.38244726322591304779052734375">
        <ele>860</ele>
        <time>2022-04-17T15:58:13.000Z</time>
      </trkpt>
      <trkpt lat="42.97262239269912242889404296875" lon="-2.38244600594043731689453125">
        <ele>860</ele>
        <time>2022-04-17T15:58:14.000Z</time>
      </trkpt>
      <trkpt lat="42.9726243205368518829345703125" lon="-2.38244533538818359375">
        <ele>860</ele>
        <time>2022-04-17T15:58:15.000Z</time>
      </trkpt>
      <trkpt lat="42.9726243205368518829345703125" lon="-2.38244533538818359375">
        <ele>860</ele>
        <time>2022-04-17T15:58:16.000Z</time>
      </trkpt>
      <trkpt lat="42.9726243205368518829345703125" lon="-2.38244533538818359375">
        <ele>860</ele>
        <time>2022-04-17T15:58:17.000Z</time>
      </trkpt>
      <trkpt lat="42.9726243205368518829345703125" lon="-2.38244533538818359375">
        <ele>860</ele>
        <time>2022-04-17T15:58:18.000Z</time>
      </trkpt>
      <trkpt lat="42.9726243205368518829345703125" lon="-2.38244533538818359375">
        <ele>860</ele>
        <time>2022-04-17T15:58:19.000Z</time>
      </trkpt>
      <trkpt lat="42.9726243205368518829345703125" lon="-2.38244533538818359375">
        <ele>860</ele>
        <time>2022-04-17T15:58:20.000Z</time>
      </trkpt>
      <trkpt lat="42.9726243205368518829345703125" lon="-2.38244533538818359375">
        <ele>860</ele>
        <time>2022-04-17T15:58:21.000Z</time>
      </trkpt>
      <trkpt lat="42.9726243205368518829345703125" lon="-2.38244533538818359375">
        <ele>860</ele>
        <time>2022-04-17T15:58:22.000Z</time>
      </trkpt>
      <trkpt lat="42.9726243205368518829345703125" lon="-2.38244533538818359375">
        <ele>860.20001220703125</ele>
        <time>2022-04-17T15:58:23.000Z</time>
      </trkpt>
      <trkpt lat="42.9726243205368518829345703125" lon="-2.3824458383023738861083984375">
        <ele>860.20001220703125</ele>
        <time>2022-04-17T15:58:24.000Z</time>
      </trkpt>
      <trkpt lat="42.9726243205368518829345703125" lon="-2.38244600594043731689453125">
        <ele>860.20001220703125</ele>
        <time>2022-04-17T15:58:25.000Z</time>
      </trkpt>
      <trkpt lat="42.9726243205368518829345703125" lon="-2.3824471794068813323974609375">
        <ele>860.20001220703125</ele>
        <time>2022-04-17T15:58:26.000Z</time>
      </trkpt>
      <trkpt lat="42.9726243205368518829345703125" lon="-2.3824525438249111175537109375">
        <ele>860.4000244140625</ele>
        <time>2022-04-17T15:58:27.000Z</time>
      </trkpt>
      <trkpt lat="42.9726243205368518829345703125" lon="-2.3824528791010379791259765625">
        <ele>860.4000244140625</ele>
        <time>2022-04-17T15:58:28.000Z</time>
      </trkpt>
      <trkpt lat="42.9726243205368518829345703125" lon="-2.38245313055813312530517578125">
        <ele>860.4000244140625</ele>
        <time>2022-04-17T15:58:29.000Z</time>
      </trkpt>
      <trkpt lat="42.9726243205368518829345703125" lon="-2.38245313055813312530517578125">
        <ele>860.5999755859375</ele>
        <time>2022-04-17T15:58:30.000Z</time>
      </trkpt>
      <trkpt lat="42.9726300202310085296630859375" lon="-2.3824535496532917022705078125">
        <ele>860.5999755859375</ele>
        <time>2022-04-17T15:58:31.000Z</time>
      </trkpt>
      <trkpt lat="42.97263178043067455291748046875" lon="-2.3824535496532917022705078125">
        <ele>860.5999755859375</ele>
        <time>2022-04-17T15:58:32.000Z</time>
      </trkpt>
      <trkpt lat="42.9726410843431949615478515625" lon="-2.3824605904519557952880859375">
        <ele>860.79998779296875</ele>
        <time>2022-04-17T15:58:33.000Z</time>
      </trkpt>
      <trkpt lat="42.97264183871448040008544921875" lon="-2.3824662901461124420166015625">
        <ele>860.79998779296875</ele>
        <time>2022-04-17T15:58:34.000Z</time>
      </trkpt>
      <trkpt lat="42.972641922533512115478515625" lon="-2.38247341476380825042724609375">
        <ele>861</ele>
        <time>2022-04-17T15:58:35.000Z</time>
      </trkpt>
      <trkpt lat="42.972641922533512115478515625" lon="-2.3824743367731571197509765625">
        <ele>861.20001220703125</ele>
        <time>2022-04-17T15:58:36.000Z</time>
      </trkpt>
      <trkpt lat="42.972641922533512115478515625" lon="-2.38247551023960113525390625">
        <ele>861.4000244140625</ele>
        <time>2022-04-17T15:58:37.000Z</time>
      </trkpt>
      <trkpt lat="42.972641922533512115478515625" lon="-2.38247643224895000457763671875">
        <ele>861.4000244140625</ele>
        <time>2022-04-17T15:58:38.000Z</time>
      </trkpt>
      <trkpt lat="42.97264200635254383087158203125" lon="-2.3824775218963623046875">
        <ele>861.4000244140625</ele>
        <time>2022-04-17T15:58:39.000Z</time>
      </trkpt>
      <trkpt lat="42.9726429283618927001953125" lon="-2.38247794099152088165283203125">
        <ele>861.4000244140625</ele>
        <time>2022-04-17T15:58:40.000Z</time>
      </trkpt>
      <trkpt lat="42.97264535911381244659423828125" lon="-2.3824780248105525970458984375">
        <ele>861.5999755859375</ele>
        <time>2022-04-17T15:58:41.000Z</time>
      </trkpt>
      <trkpt lat="42.97264703549444675445556640625" lon="-2.382480539381504058837890625">
        <ele>861.5999755859375</ele>
        <time>2022-04-17T15:58:42.000Z</time>
      </trkpt>
      <trkpt lat="42.9726487956941127777099609375" lon="-2.3824827186763286590576171875">
        <ele>861.4000244140625</ele>
        <time>2022-04-17T15:58:43.000Z</time>
      </trkpt>
      <trkpt lat="42.97265189699828624725341796875" lon="-2.38248355686664581298828125">
        <ele>861.5999755859375</ele>
        <time>2022-04-17T15:58:44.000Z</time>
      </trkpt>
      <trkpt lat="42.97266178764402866363525390625" lon="-2.3824820481240749359130859375">
        <ele>861.5999755859375</ele>
        <time>2022-04-17T15:58:45.000Z</time>
      </trkpt>
      <trkpt lat="42.97267117537558078765869140625" lon="-2.38248129375278949737548828125">
        <ele>861.4000244140625</ele>
        <time>2022-04-17T15:58:46.000Z</time>
      </trkpt>
      <trkpt lat="42.97268525697290897369384765625" lon="-2.3824820481240749359130859375">
        <ele>861.4000244140625</ele>
        <time>2022-04-17T15:58:47.000Z</time>
      </trkpt>
      <trkpt lat="42.9726987518370151519775390625" lon="-2.38249135203659534454345703125">
        <ele>861.20001220703125</ele>
        <time>2022-04-17T15:58:48.000Z</time>
      </trkpt>
      <trkpt lat="42.97271023504436016082763671875" lon="-2.38250493071973323822021484375">
        <ele>861</ele>
        <time>2022-04-17T15:58:49.000Z</time>
      </trkpt>
      <trkpt lat="42.97271870076656341552734375" lon="-2.38251247443258762359619140625">
        <ele>860.79998779296875</ele>
        <time>2022-04-17T15:58:50.000Z</time>
      </trkpt>
      <trkpt lat="42.972728423774242401123046875" lon="-2.3825165815651416778564453125">
        <ele>860.79998779296875</ele>
        <time>2022-04-17T15:58:51.000Z</time>
      </trkpt>
      <trkpt lat="42.972737811505794525146484375" lon="-2.38252236507833003997802734375">
        <ele>860.5999755859375</ele>
        <time>2022-04-17T15:58:52.000Z</time>
      </trkpt>
      <trkpt lat="42.9727502167224884033203125" lon="-2.382524125277996063232421875">
        <ele>860.4000244140625</ele>
        <time>2022-04-17T15:58:53.000Z</time>
      </trkpt>
      <trkpt lat="42.9727597720921039581298828125" lon="-2.382525466382503509521484375">
        <ele>860.4000244140625</ele>
        <time>2022-04-17T15:58:54.000Z</time>
      </trkpt>
      <trkpt lat="42.972768656909465789794921875" lon="-2.38252915441989898681640625">
        <ele>860.4000244140625</ele>
        <time>2022-04-17T15:58:55.000Z</time>
      </trkpt>
      <trkpt lat="42.9727756977081298828125" lon="-2.3825343511998653411865234375">
        <ele>860.4000244140625</ele>
        <time>2022-04-17T15:58:56.000Z</time>
      </trkpt>
      <trkpt lat="42.97278106212615966796875" lon="-2.38253577612340450286865234375">
        <ele>860.20001220703125</ele>
        <time>2022-04-17T15:58:57.000Z</time>
      </trkpt>
      <trkpt lat="42.9727886058390140533447265625" lon="-2.3825336806476116180419921875">
        <ele>860</ele>
        <time>2022-04-17T15:58:58.000Z</time>
      </trkpt>
      <trkpt lat="42.97279371879994869232177734375" lon="-2.38253510557115077972412109375">
        <ele>859.79998779296875</ele>
        <time>2022-04-17T15:58:59.000Z</time>
      </trkpt>
      <trkpt lat="42.9728010110557079315185546875" lon="-2.3825397156178951263427734375">
        <ele>859.5999755859375</ele>
        <time>2022-04-17T15:59:00.000Z</time>
      </trkpt>
      <trkpt lat="42.9728103987872600555419921875" lon="-2.382546253502368927001953125">
        <ele>859.4000244140625</ele>
        <time>2022-04-17T15:59:01.000Z</time>
      </trkpt>
      <trkpt lat="42.97281987033784389495849609375" lon="-2.38254482857882976531982421875">
        <ele>859.4000244140625</ele>
        <time>2022-04-17T15:59:02.000Z</time>
      </trkpt>
      <trkpt lat="42.97282841987907886505126953125" lon="-2.38254499621689319610595703125">
        <ele>859</ele>
        <time>2022-04-17T15:59:03.000Z</time>
      </trkpt>
      <trkpt lat="42.9728352092206478118896484375" lon="-2.38254767842590808868408203125">
        <ele>858.79998779296875</ele>
        <time>2022-04-17T15:59:04.000Z</time>
      </trkpt>
      <trkpt lat="42.97284434549510478973388671875" lon="-2.38254566676914691925048828125">
        <ele>858.79998779296875</ele>
        <time>2022-04-17T15:59:05.000Z</time>
      </trkpt>
      <trkpt lat="42.97285490669310092926025390625" lon="-2.3825444094836711883544921875">
        <ele>858.5999755859375</ele>
        <time>2022-04-17T15:59:06.000Z</time>
      </trkpt>
      <trkpt lat="42.97285909764468669891357421875" lon="-2.3825405538082122802734375">
        <ele>858.5999755859375</ele>
        <time>2022-04-17T15:59:07.000Z</time>
      </trkpt>
      <trkpt lat="42.9728709161281585693359375" lon="-2.382536865770816802978515625">
        <ele>858.4000244140625</ele>
        <time>2022-04-17T15:59:08.000Z</time>
      </trkpt>
      <trkpt lat="42.97288742847740650177001953125" lon="-2.38252622075378894805908203125">
        <ele>858.4000244140625</ele>
        <time>2022-04-17T15:59:09.000Z</time>
      </trkpt>
      <trkpt lat="42.97289974987506866455078125" lon="-2.38252286799252033233642578125">
        <ele>858.4000244140625</ele>
        <time>2022-04-17T15:59:10.000Z</time>
      </trkpt>
      <trkpt lat="42.97290788032114505767822265625" lon="-2.3825204372406005859375">
        <ele>858.20001220703125</ele>
        <time>2022-04-17T15:59:11.000Z</time>
      </trkpt>
      <trkpt lat="42.97292179428040981292724609375" lon="-2.38251842558383941650390625">
        <ele>858</ele>
        <time>2022-04-17T15:59:12.000Z</time>
      </trkpt>
      <trkpt lat="42.97294207848608493804931640625" lon="-2.3825199343264102935791015625">
        <ele>858</ele>
        <time>2022-04-17T15:59:13.000Z</time>
      </trkpt>
      <trkpt lat="42.97295498661696910858154296875" lon="-2.38251901231706142425537109375">
        <ele>857.79998779296875</ele>
        <time>2022-04-17T15:59:14.000Z</time>
      </trkpt>
      <trkpt lat="42.97296412289142608642578125" lon="-2.3825179226696491241455078125">
        <ele>857.5999755859375</ele>
        <time>2022-04-17T15:59:15.000Z</time>
      </trkpt>
      <trkpt lat="42.97297510318458080291748046875" lon="-2.38251708447933197021484375">
        <ele>857.5999755859375</ele>
        <time>2022-04-17T15:59:16.000Z</time>
      </trkpt>
      <trkpt lat="42.97298281453549861907958984375" lon="-2.38251582719385623931884765625">
        <ele>857.5999755859375</ele>
        <time>2022-04-17T15:59:17.000Z</time>
      </trkpt>
      <trkpt lat="42.97299362719058990478515625" lon="-2.38251314498484134674072265625">
        <ele>857.4000244140625</ele>
        <time>2022-04-17T15:59:18.000Z</time>
      </trkpt>
      <trkpt lat="42.973006702959537506103515625" lon="-2.38250903785228729248046875">
        <ele>857.20001220703125</ele>
        <time>2022-04-17T15:59:19.000Z</time>
      </trkpt>
      <trkpt lat="42.9730202816426753997802734375" lon="-2.382503338158130645751953125">
        <ele>857.20001220703125</ele>
        <time>2022-04-17T15:59:20.000Z</time>
      </trkpt>
      <trkpt lat="42.97303654253482818603515625" lon="-2.38249965012073516845703125">
        <ele>857</ele>
        <time>2022-04-17T15:59:21.000Z</time>
      </trkpt>
      <trkpt lat="42.97304484061896800994873046875" lon="-2.38249621354043483734130859375">
        <ele>856.79998779296875</ele>
        <time>2022-04-17T15:59:22.000Z</time>
      </trkpt>
      <trkpt lat="42.973051965236663818359375" lon="-2.38249453715980052947998046875">
        <ele>856.79998779296875</ele>
        <time>2022-04-17T15:59:23.000Z</time>
      </trkpt>
      <trkpt lat="42.97305908985435962677001953125" lon="-2.38249252550303936004638671875">
        <ele>856.5999755859375</ele>
        <time>2022-04-17T15:59:24.000Z</time>
      </trkpt>
      <trkpt lat="42.9730692319571971893310546875" lon="-2.38249051384627819061279296875">
        <ele>856.5999755859375</ele>
        <time>2022-04-17T15:59:25.000Z</time>
      </trkpt>
      <trkpt lat="42.97307786531746387481689453125" lon="-2.38248330540955066680908203125">
        <ele>856.5999755859375</ele>
        <time>2022-04-17T15:59:26.000Z</time>
      </trkpt>
      <trkpt lat="42.97308322973549365997314453125" lon="-2.38247408531606197357177734375">
        <ele>856.5999755859375</ele>
        <time>2022-04-17T15:59:27.000Z</time>
      </trkpt>
      <trkpt lat="42.97308959998190402984619140625" lon="-2.382465116679668426513671875">
        <ele>856.5999755859375</ele>
        <time>2022-04-17T15:59:28.000Z</time>
      </trkpt>
      <trkpt lat="42.9731134884059429168701171875" lon="-2.38246503286063671112060546875">
        <ele>856.5999755859375</ele>
        <time>2022-04-17T15:59:29.000Z</time>
      </trkpt>
      <trkpt lat="42.97313653863966464996337890625" lon="-2.38245547749102115631103515625">
        <ele>856.4000244140625</ele>
        <time>2022-04-17T15:59:30.000Z</time>
      </trkpt>
      <trkpt lat="42.9731570743024349212646484375" lon="-2.38244332373142242431640625">
        <ele>856.4000244140625</ele>
        <time>2022-04-17T15:59:31.000Z</time>
      </trkpt>
      <trkpt lat="42.97317962162196636199951171875" lon="-2.38243636675179004669189453125">
        <ele>856.20001220703125</ele>
        <time>2022-04-17T15:59:32.000Z</time>
      </trkpt>
      <trkpt lat="42.97319881618022918701171875" lon="-2.38242857158184051513671875">
        <ele>856</ele>
        <time>2022-04-17T15:59:33.000Z</time>
      </trkpt>
      <trkpt lat="42.97321683727204799652099609375" lon="-2.3824227042496204376220703125">
        <ele>855.79998779296875</ele>
        <time>2022-04-17T15:59:34.000Z</time>
      </trkpt>
      <trkpt lat="42.9732355289161205291748046875" lon="-2.3824216984212398529052734375">
        <ele>855.5999755859375</ele>
        <time>2022-04-17T15:59:35.000Z</time>
      </trkpt>
      <trkpt lat="42.97324382700026035308837890625" lon="-2.38241977058351039886474609375">
        <ele>855.5999755859375</ele>
        <time>2022-04-17T15:59:36.000Z</time>
      </trkpt>
      <trkpt lat="42.97325237654149532318115234375" lon="-2.3824163340032100677490234375">
        <ele>855.4000244140625</ele>
        <time>2022-04-17T15:59:37.000Z</time>
      </trkpt>
      <trkpt lat="42.97326344065368175506591796875" lon="-2.382405437529087066650390625">
        <ele>855.20001220703125</ele>
        <time>2022-04-17T15:59:38.000Z</time>
      </trkpt>
      <trkpt lat="42.9732791148126125335693359375" lon="-2.38239345140755176544189453125">
        <ele>854.79998779296875</ele>
        <time>2022-04-17T15:59:39.000Z</time>
      </trkpt>
      <trkpt lat="42.9732915200293064117431640625" lon="-2.382383309304714202880859375">
        <ele>854.5999755859375</ele>
        <time>2022-04-17T15:59:40.000Z</time>
      </trkpt>
      <trkpt lat="42.97329830937087535858154296875" lon="-2.3823715746402740478515625">
        <ele>854.4000244140625</ele>
        <time>2022-04-17T15:59:41.000Z</time>
      </trkpt>
      <trkpt lat="42.9733045957982540130615234375" lon="-2.382359839975833892822265625">
        <ele>854.20001220703125</ele>
        <time>2022-04-17T15:59:42.000Z</time>
      </trkpt>
      <trkpt lat="42.97331054694950580596923828125" lon="-2.3823501169681549072265625">
        <ele>854</ele>
        <time>2022-04-17T15:59:43.000Z</time>
      </trkpt>
      <trkpt lat="42.97331951558589935302734375" lon="-2.38233913667500019073486328125">
        <ele>853.79998779296875</ele>
        <time>2022-04-17T15:59:44.000Z</time>
      </trkpt>
      <trkpt lat="42.97333166934549808502197265625" lon="-2.38232857547700405120849609375">
        <ele>853.5999755859375</ele>
        <time>2022-04-17T15:59:45.000Z</time>
      </trkpt>
      <trkpt lat="42.97334508039057254791259765625" lon="-2.38232220523059368133544921875">
        <ele>853.5999755859375</ele>
        <time>2022-04-17T15:59:46.000Z</time>
      </trkpt>
      <trkpt lat="42.973352037370204925537109375" lon="-2.38230963237583637237548828125">
        <ele>853.4000244140625</ele>
        <time>2022-04-17T15:59:47.000Z</time>
      </trkpt>
      <trkpt lat="42.97336050309240818023681640625" lon="-2.3822963051497936248779296875">
        <ele>853</ele>
        <time>2022-04-17T15:59:48.000Z</time>
      </trkpt>
      <trkpt lat="42.97337156720459461212158203125" lon="-2.38228800706565380096435546875">
        <ele>852.79998779296875</ele>
        <time>2022-04-17T15:59:49.000Z</time>
      </trkpt>
      <trkpt lat="42.973378188908100128173828125" lon="-2.3822691477835178375244140625">
        <ele>852.5999755859375</ele>
        <time>2022-04-17T15:59:50.000Z</time>
      </trkpt>
      <trkpt lat="42.97338363714516162872314453125" lon="-2.3822577483952045440673828125">
        <ele>852.5999755859375</ele>
        <time>2022-04-17T15:59:51.000Z</time>
      </trkpt>
      <trkpt lat="42.97339017502963542938232421875" lon="-2.38225045613944530487060546875">
        <ele>852.5999755859375</ele>
        <time>2022-04-17T15:59:52.000Z</time>
      </trkpt>
      <trkpt lat="42.973398305475711822509765625" lon="-2.382244504988193511962890625">
        <ele>852.4000244140625</ele>
        <time>2022-04-17T15:59:53.000Z</time>
      </trkpt>
      <trkpt lat="42.97340358607470989227294921875" lon="-2.38223989494144916534423828125">
        <ele>852.4000244140625</ele>
        <time>2022-04-17T15:59:54.000Z</time>
      </trkpt>
      <trkpt lat="42.97340936958789825439453125" lon="-2.38223251886665821075439453125">
        <ele>852.20001220703125</ele>
        <time>2022-04-17T15:59:55.000Z</time>
      </trkpt>
      <trkpt lat="42.9734155721962451934814453125" lon="-2.3822198621928691864013671875">
        <ele>852.20001220703125</ele>
        <time>2022-04-17T15:59:56.000Z</time>
      </trkpt>
      <trkpt lat="42.97342537902295589447021484375" lon="-2.382206618785858154296875">
        <ele>852.20001220703125</ele>
        <time>2022-04-17T15:59:57.000Z</time>
      </trkpt>
      <trkpt lat="42.97343459911644458770751953125" lon="-2.382196895778179168701171875">
        <ele>852.20001220703125</ele>
        <time>2022-04-17T15:59:58.000Z</time>
      </trkpt>
      <trkpt lat="42.973441891372203826904296875" lon="-2.38218541257083415985107421875">
        <ele>852</ele>
        <time>2022-04-17T15:59:59.000Z</time>
      </trkpt>
      <trkpt lat="42.97344583086669445037841796875" lon="-2.3821685649454593658447265625">
        <ele>852</ele>
        <time>2022-04-17T16:00:00.000Z</time>
      </trkpt>
      <trkpt lat="42.97344482503831386566162109375" lon="-2.38214702345430850982666015625">
        <ele>851.79998779296875</ele>
        <time>2022-04-17T16:00:01.000Z</time>
      </trkpt>
      <trkpt lat="42.97345094382762908935546875" lon="-2.38212506286799907684326171875">
        <ele>851.79998779296875</ele>
        <time>2022-04-17T16:00:02.000Z</time>
      </trkpt>
      <trkpt lat="42.97344935126602649688720703125" lon="-2.38209807313978672027587890625">
        <ele>851.5999755859375</ele>
        <time>2022-04-17T16:00:03.000Z</time>
      </trkpt>
      <trkpt lat="42.97344700433313846588134765625" lon="-2.38207720220088958740234375">
        <ele>851.5999755859375</ele>
        <time>2022-04-17T16:00:04.000Z</time>
      </trkpt>
      <trkpt lat="42.97344331629574298858642578125" lon="-2.382056079804897308349609375">
        <ele>851.4000244140625</ele>
        <time>2022-04-17T16:00:05.000Z</time>
      </trkpt>
      <trkpt lat="42.973445244133472442626953125" lon="-2.38204493187367916107177734375">
        <ele>851.20001220703125</ele>
        <time>2022-04-17T16:00:06.000Z</time>
      </trkpt>
      <trkpt lat="42.9734529554843902587890625" lon="-2.3820408247411251068115234375">
        <ele>851.20001220703125</ele>
        <time>2022-04-17T16:00:07.000Z</time>
      </trkpt>
      <trkpt lat="42.97346108593046665191650390625" lon="-2.382041998207569122314453125">
        <ele>851</ele>
        <time>2022-04-17T16:00:08.000Z</time>
      </trkpt>
      <trkpt lat="42.9734665341675281524658203125" lon="-2.38204090856015682220458984375">
        <ele>850.79998779296875</ele>
        <time>2022-04-17T16:00:09.000Z</time>
      </trkpt>
      <trkpt lat="42.97346125356853008270263671875" lon="-2.38203504122793674468994140625">
        <ele>850.4000244140625</ele>
        <time>2022-04-17T16:00:10.000Z</time>
      </trkpt>
      <trkpt lat="42.973459325730800628662109375" lon="-2.3820300959050655364990234375">
        <ele>850.4000244140625</ele>
        <time>2022-04-17T16:00:11.000Z</time>
      </trkpt>
      <trkpt lat="42.9734645225107669830322265625" lon="-2.382023893296718597412109375">
        <ele>850.20001220703125</ele>
        <time>2022-04-17T16:00:12.000Z</time>
      </trkpt>
      <trkpt lat="42.973472066223621368408203125" lon="-2.38202297128736972808837890625">
        <ele>850</ele>
        <time>2022-04-17T16:00:13.000Z</time>
      </trkpt>
      <trkpt lat="42.9734809510409832000732421875" lon="-2.3820233903825283050537109375">
        <ele>850</ele>
        <time>2022-04-17T16:00:14.000Z</time>
      </trkpt>
      <trkpt lat="42.97348656691610813140869140625" lon="-2.38202481530606746673583984375">
        <ele>849.79998779296875</ele>
        <time>2022-04-17T16:00:15.000Z</time>
      </trkpt>
      <trkpt lat="42.973495535552501678466796875" lon="-2.38202758133411407470703125">
        <ele>849.79998779296875</ele>
        <time>2022-04-17T16:00:16.000Z</time>
      </trkpt>
      <trkpt lat="42.9735077731311321258544921875" lon="-2.3820250667631626129150390625">
        <ele>849.5999755859375</ele>
        <time>2022-04-17T16:00:17.000Z</time>
      </trkpt>
      <trkpt lat="42.973520345985889434814453125" lon="-2.38202330656349658966064453125">
        <ele>849.4000244140625</ele>
        <time>2022-04-17T16:00:18.000Z</time>
      </trkpt>
      <trkpt lat="42.973523698747158050537109375" lon="-2.38202280364930629730224609375">
        <ele>849.20001220703125</ele>
        <time>2022-04-17T16:00:19.000Z</time>
      </trkpt>
      <trkpt lat="42.97352470457553863525390625" lon="-2.38201794214546680450439453125">
        <ele>849</ele>
        <time>2022-04-17T16:00:20.000Z</time>
      </trkpt>
      <trkpt lat="42.9735292308032512664794921875" lon="-2.38201551139354705810546875">
        <ele>848.79998779296875</ele>
        <time>2022-04-17T16:00:21.000Z</time>
      </trkpt>
      <trkpt lat="42.9735305719077587127685546875" lon="-2.38201308064162731170654296875">
        <ele>848.79998779296875</ele>
        <time>2022-04-17T16:00:22.000Z</time>
      </trkpt>
      <trkpt lat="42.97352361492812633514404296875" lon="-2.38201618194580078125">
        <ele>848.5999755859375</ele>
        <time>2022-04-17T16:00:23.000Z</time>
      </trkpt>
      <trkpt lat="42.97352344729006290435791015625" lon="-2.38201551139354705810546875">
        <ele>848.4000244140625</ele>
        <time>2022-04-17T16:00:24.000Z</time>
      </trkpt>
      <trkpt lat="42.9735221900045871734619140625" lon="-2.3820083029568195343017578125">
        <ele>848.20001220703125</ele>
        <time>2022-04-17T16:00:25.000Z</time>
      </trkpt>
      <trkpt lat="42.97352797351777553558349609375" lon="-2.38200402818620204925537109375">
        <ele>848.20001220703125</ele>
        <time>2022-04-17T16:00:26.000Z</time>
      </trkpt>
      <trkpt lat="42.97353409230709075927734375" lon="-2.38200235180556774139404296875">
        <ele>848.20001220703125</ele>
        <time>2022-04-17T16:00:27.000Z</time>
      </trkpt>
      <trkpt lat="42.97354155220091342926025390625" lon="-2.38200821913778781890869140625">
        <ele>848</ele>
        <time>2022-04-17T16:00:28.000Z</time>
      </trkpt>
      <trkpt lat="42.973551191389560699462890625" lon="-2.38201810978353023529052734375">
        <ele>847.79998779296875</ele>
        <time>2022-04-17T16:00:29.000Z</time>
      </trkpt>
      <trkpt lat="42.973559238016605377197265625" lon="-2.3820260725915431976318359375">
        <ele>847.79998779296875</ele>
        <time>2022-04-17T16:00:30.000Z</time>
      </trkpt>
      <trkpt lat="42.97356619499623775482177734375" lon="-2.38203017972409725189208984375">
        <ele>847.5999755859375</ele>
        <time>2022-04-17T16:00:31.000Z</time>
      </trkpt>
      <trkpt lat="42.9735775105655193328857421875" lon="-2.38203034736216068267822265625">
        <ele>847.4000244140625</ele>
        <time>2022-04-17T16:00:32.000Z</time>
      </trkpt>
      <trkpt lat="42.97358396463096141815185546875" lon="-2.38202414475381374359130859375">
        <ele>847.4000244140625</ele>
        <time>2022-04-17T16:00:33.000Z</time>
      </trkpt>
      <trkpt lat="42.9735870659351348876953125" lon="-2.38201953470706939697265625">
        <ele>847.20001220703125</ele>
        <time>2022-04-17T16:00:34.000Z</time>
      </trkpt>
      <trkpt lat="42.97358907759189605712890625" lon="-2.38202112726867198944091796875">
        <ele>847.20001220703125</ele>
        <time>2022-04-17T16:00:35.000Z</time>
      </trkpt>
      <trkpt lat="42.973596118390560150146484375" lon="-2.382019199430942535400390625">
        <ele>847.20001220703125</ele>
        <time>2022-04-17T16:00:36.000Z</time>
      </trkpt>
      <trkpt lat="42.973601482808589935302734375" lon="-2.38201961852610111236572265625">
        <ele>847.20001220703125</ele>
        <time>2022-04-17T16:00:37.000Z</time>
      </trkpt>
      <trkpt lat="42.9736053384840488433837890625" lon="-2.38202095963060855865478515625">
        <ele>847</ele>
        <time>2022-04-17T16:00:38.000Z</time>
      </trkpt>
      <trkpt lat="42.973612882196903228759765625" lon="-2.38202489912509918212890625">
        <ele>847</ele>
        <time>2022-04-17T16:00:39.000Z</time>
      </trkpt>
      <trkpt lat="42.97361916862428188323974609375" lon="-2.38202816806733608245849609375">
        <ele>847</ele>
        <time>2022-04-17T16:00:40.000Z</time>
      </trkpt>
      <trkpt lat="42.9736210964620113372802734375" lon="-2.38202515058219432830810546875">
        <ele>846.79998779296875</ele>
        <time>2022-04-17T16:00:41.000Z</time>
      </trkpt>
      <trkpt lat="42.973624281585216522216796875" lon="-2.382019869983196258544921875">
        <ele>846.79998779296875</ele>
        <time>2022-04-17T16:00:42.000Z</time>
      </trkpt>
      <trkpt lat="42.9736326634883880615234375" lon="-2.38201224245131015777587890625">
        <ele>846.5999755859375</ele>
        <time>2022-04-17T16:00:43.000Z</time>
      </trkpt>
      <trkpt lat="42.9736445657908916473388671875" lon="-2.38201081752777099609375">
        <ele>846.4000244140625</ele>
        <time>2022-04-17T16:00:44.000Z</time>
      </trkpt>
      <trkpt lat="42.9736576415598392486572265625" lon="-2.38201291300356388092041015625">
        <ele>846.4000244140625</ele>
        <time>2022-04-17T16:00:45.000Z</time>
      </trkpt>
      <trkpt lat="42.9736663587391376495361328125" lon="-2.3820148408412933349609375">
        <ele>846.20001220703125</ele>
        <time>2022-04-17T16:00:46.000Z</time>
      </trkpt>
      <trkpt lat="42.97367398627102375030517578125" lon="-2.382024563848972320556640625">
        <ele>846</ele>
        <time>2022-04-17T16:00:47.000Z</time>
      </trkpt>
      <trkpt lat="42.97367583028972148895263671875" lon="-2.38203068263828754425048828125">
        <ele>846</ele>
        <time>2022-04-17T16:00:48.000Z</time>
      </trkpt>
      <trkpt lat="42.97368840314447879791259765625" lon="-2.382027916610240936279296875">
        <ele>845.79998779296875</ele>
        <time>2022-04-17T16:00:49.000Z</time>
      </trkpt>
      <trkpt lat="42.973703406751155853271484375" lon="-2.38202498294413089752197265625">
        <ele>845.79998779296875</ele>
        <time>2022-04-17T16:00:50.000Z</time>
      </trkpt>
      <trkpt lat="42.9737149737775325775146484375" lon="-2.38201777450740337371826171875">
        <ele>845.79998779296875</ele>
        <time>2022-04-17T16:00:51.000Z</time>
      </trkpt>
      <trkpt lat="42.97372008673846721649169921875" lon="-2.38201643340289592742919921875">
        <ele>845.5999755859375</ele>
        <time>2022-04-17T16:00:52.000Z</time>
      </trkpt>
      <trkpt lat="42.97372377477586269378662109375" lon="-2.3820183612406253814697265625">
        <ele>845.5999755859375</ele>
        <time>2022-04-17T16:00:53.000Z</time>
      </trkpt>
      <trkpt lat="42.97372813336551189422607421875" lon="-2.38202515058219432830810546875">
        <ele>845.4000244140625</ele>
        <time>2022-04-17T16:00:54.000Z</time>
      </trkpt>
      <trkpt lat="42.97373735345900058746337890625" lon="-2.3820378072559833526611328125">
        <ele>845.4000244140625</ele>
        <time>2022-04-17T16:00:55.000Z</time>
      </trkpt>
      <trkpt lat="42.9737444780766963958740234375" lon="-2.38205079920589923858642578125">
        <ele>845.20001220703125</ele>
        <time>2022-04-17T16:00:56.000Z</time>
      </trkpt>
      <trkpt lat="42.97374942339956760406494140625" lon="-2.38205180503427982330322265625">
        <ele>845</ele>
        <time>2022-04-17T16:00:57.000Z</time>
      </trkpt>
      <trkpt lat="42.97375260852277278900146484375" lon="-2.38206035457551479339599609375">
        <ele>845</ele>
        <time>2022-04-17T16:00:58.000Z</time>
      </trkpt>
      <trkpt lat="42.9737625829875469207763671875" lon="-2.3820669762790203094482421875">
        <ele>844.79998779296875</ele>
        <time>2022-04-17T16:00:59.000Z</time>
      </trkpt>
      <trkpt lat="42.97377222217619419097900390625" lon="-2.3820679821074008941650390625">
        <ele>844.79998779296875</ele>
        <time>2022-04-17T16:01:00.000Z</time>
      </trkpt>
      <trkpt lat="42.97377951443195343017578125" lon="-2.38207477144896984100341796875">
        <ele>844.79998779296875</ele>
        <time>2022-04-17T16:01:01.000Z</time>
      </trkpt>
      <trkpt lat="42.97378764487802982330322265625" lon="-2.38207644782960414886474609375">
        <ele>844.5999755859375</ele>
        <time>2022-04-17T16:01:02.000Z</time>
      </trkpt>
      <trkpt lat="42.97379569150507450103759765625" lon="-2.38208047114312648773193359375">
        <ele>844.4000244140625</ele>
        <time>2022-04-17T16:01:03.000Z</time>
      </trkpt>
      <trkpt lat="42.9738008044660091400146484375" lon="-2.38207695074379444122314453125">
        <ele>844.20001220703125</ele>
        <time>2022-04-17T16:01:04.000Z</time>
      </trkpt>
      <trkpt lat="42.9738044925034046173095703125" lon="-2.38208097405731678009033203125">
        <ele>844</ele>
        <time>2022-04-17T16:01:05.000Z</time>
      </trkpt>
      <trkpt lat="42.97380776144564151763916015625" lon="-2.38208600319921970367431640625">
        <ele>843.79998779296875</ele>
        <time>2022-04-17T16:01:06.000Z</time>
      </trkpt>
      <trkpt lat="42.9738257825374603271484375" lon="-2.38209488801658153533935546875">
        <ele>843.79998779296875</ele>
        <time>2022-04-17T16:01:07.000Z</time>
      </trkpt>
      <trkpt lat="42.97384263016283512115478515625" lon="-2.38210746087133884429931640625">
        <ele>843.79998779296875</ele>
        <time>2022-04-17T16:01:08.000Z</time>
      </trkpt>
      <trkpt lat="42.97385101206600666046142578125" lon="-2.38211433403193950653076171875">
        <ele>843.5999755859375</ele>
        <time>2022-04-17T16:01:09.000Z</time>
      </trkpt>
      <trkpt lat="42.97384832985699176788330078125" lon="-2.38211047835648059844970703125">
        <ele>843.5999755859375</ele>
        <time>2022-04-17T16:01:10.000Z</time>
      </trkpt>
      <trkpt lat="42.97384380362927913665771484375" lon="-2.38210209645330905914306640625">
        <ele>843.5999755859375</ele>
        <time>2022-04-17T16:01:11.000Z</time>
      </trkpt>
      <trkpt lat="42.973844893276691436767578125" lon="-2.382098995149135589599609375">
        <ele>843.79998779296875</ele>
        <time>2022-04-17T16:01:12.000Z</time>
      </trkpt>
      <trkpt lat="42.9738485813140869140625" lon="-2.38209706731140613555908203125">
        <ele>843.79998779296875</ele>
        <time>2022-04-17T16:01:13.000Z</time>
      </trkpt>
      <trkpt lat="42.97385252080857753753662109375" lon="-2.38209807313978672027587890625">
        <ele>843.79998779296875</ele>
        <time>2022-04-17T16:01:14.000Z</time>
      </trkpt>
      <trkpt lat="42.97386308200657367706298828125" lon="-2.38209907896816730499267578125">
        <ele>843.79998779296875</ele>
        <time>2022-04-17T16:01:15.000Z</time>
      </trkpt>
      <trkpt lat="42.97387263737618923187255859375" lon="-2.382093966007232666015625">
        <ele>843.79998779296875</ele>
        <time>2022-04-17T16:01:16.000Z</time>
      </trkpt>
      <trkpt lat="42.9738772474229335784912109375" lon="-2.38208985887467861175537109375">
        <ele>843.5999755859375</ele>
        <time>2022-04-17T16:01:17.000Z</time>
      </trkpt>
      <trkpt lat="42.97387900762259960174560546875" lon="-2.38208432681858539581298828125">
        <ele>843.5999755859375</ele>
        <time>2022-04-17T16:01:18.000Z</time>
      </trkpt>
      <trkpt lat="42.97388336621224880218505859375" lon="-2.3820830695331096649169921875">
        <ele>843.5999755859375</ele>
        <time>2022-04-17T16:01:19.000Z</time>
      </trkpt>
      <trkpt lat="42.97388487495481967926025390625" lon="-2.382080554962158203125">
        <ele>843.4000244140625</ele>
        <time>2022-04-17T16:01:20.000Z</time>
      </trkpt>
      <trkpt lat="42.97388889826834201812744140625" lon="-2.38208466209471225738525390625">
        <ele>843.4000244140625</ele>
        <time>2022-04-17T16:01:21.000Z</time>
      </trkpt>
      <trkpt lat="42.973890490829944610595703125" lon="-2.38208801485598087310791015625">
        <ele>843.5999755859375</ele>
        <time>2022-04-17T16:01:22.000Z</time>
      </trkpt>
      <trkpt lat="42.973888479173183441162109375" lon="-2.3820880986750125885009765625">
        <ele>843.5999755859375</ele>
        <time>2022-04-17T16:01:23.000Z</time>
      </trkpt>
      <trkpt lat="42.973884455859661102294921875" lon="-2.38209203816950321197509765625">
        <ele>843.5999755859375</ele>
        <time>2022-04-17T16:01:24.000Z</time>
      </trkpt>
      <trkpt lat="42.973892502486705780029296875" lon="-2.3821001686155796051025390625">
        <ele>843.5999755859375</ele>
        <time>2022-04-17T16:01:25.000Z</time>
      </trkpt>
      <trkpt lat="42.9738982021808624267578125" lon="-2.38210964016616344451904296875">
        <ele>843.5999755859375</ele>
        <time>2022-04-17T16:01:26.000Z</time>
      </trkpt>
      <trkpt lat="42.9738982021808624267578125" lon="-2.38211969844996929168701171875">
        <ele>843.4000244140625</ele>
        <time>2022-04-17T16:01:27.000Z</time>
      </trkpt>
      <trkpt lat="42.97389476560056209564208984375" lon="-2.38212707452476024627685546875">
        <ele>843.4000244140625</ele>
        <time>2022-04-17T16:01:28.000Z</time>
      </trkpt>
      <trkpt lat="42.97389426268637180328369140625" lon="-2.38214015029370784759521484375">
        <ele>843.20001220703125</ele>
        <time>2022-04-17T16:01:29.000Z</time>
      </trkpt>
      <trkpt lat="42.97388671897351741790771484375" lon="-2.3821487836539745330810546875">
        <ele>843.20001220703125</ele>
        <time>2022-04-17T16:01:30.000Z</time>
      </trkpt>
      <trkpt lat="42.97388822771608829498291015625" lon="-2.382156662642955780029296875">
        <ele>843.20001220703125</ele>
        <time>2022-04-17T16:01:31.000Z</time>
      </trkpt>
      <trkpt lat="42.9738901555538177490234375" lon="-2.3821635358035564422607421875">
        <ele>843</ele>
        <time>2022-04-17T16:01:32.000Z</time>
      </trkpt>
      <trkpt lat="42.973890490829944610595703125" lon="-2.3821756057441234588623046875">
        <ele>843</ele>
        <time>2022-04-17T16:01:33.000Z</time>
      </trkpt>
      <trkpt lat="42.9738976992666721343994140625" lon="-2.3821873404085636138916015625">
        <ele>843</ele>
        <time>2022-04-17T16:01:34.000Z</time>
      </trkpt>
      <trkpt lat="42.97390968538820743560791015625" lon="-2.3821973986923694610595703125">
        <ele>842.79998779296875</ele>
        <time>2022-04-17T16:01:35.000Z</time>
      </trkpt>
      <trkpt lat="42.973915636539459228515625" lon="-2.38220326602458953857421875">
        <ele>842.79998779296875</ele>
        <time>2022-04-17T16:01:36.000Z</time>
      </trkpt>
      <trkpt lat="42.97392904758453369140625" lon="-2.38222329877316951751708984375">
        <ele>842.5999755859375</ele>
        <time>2022-04-17T16:01:37.000Z</time>
      </trkpt>
      <trkpt lat="42.97393667511641979217529296875" lon="-2.38224559463560581207275390625">
        <ele>842.5999755859375</ele>
        <time>2022-04-17T16:01:38.000Z</time>
      </trkpt>
      <trkpt lat="42.9739439673721790313720703125" lon="-2.3822674714028835296630859375">
        <ele>842.4000244140625</ele>
        <time>2022-04-17T16:01:39.000Z</time>
      </trkpt>
      <trkpt lat="42.97395712696015834808349609375" lon="-2.38229387439787387847900390625">
        <ele>842.20001220703125</ele>
        <time>2022-04-17T16:01:40.000Z</time>
      </trkpt>
      <trkpt lat="42.9739665985107421875" lon="-2.38231080584228038787841796875">
        <ele>842.20001220703125</ele>
        <time>2022-04-17T16:01:41.000Z</time>
      </trkpt>
      <trkpt lat="42.97396835871040821075439453125" lon="-2.38231633789837360382080078125">
        <ele>842</ele>
        <time>2022-04-17T16:01:42.000Z</time>
      </trkpt>
      <trkpt lat="42.9739704541862010955810546875" lon="-2.38232128322124481201171875">
        <ele>842</ele>
        <time>2022-04-17T16:01:43.000Z</time>
      </trkpt>
      <trkpt lat="42.97397070564329624176025390625" lon="-2.38232270814478397369384765625">
        <ele>842</ele>
        <time>2022-04-17T16:01:44.000Z</time>
      </trkpt>
      <trkpt lat="42.97397456131875514984130859375" lon="-2.3823291622102260589599609375">
        <ele>841.79998779296875</ele>
        <time>2022-04-17T16:01:45.000Z</time>
      </trkpt>
      <trkpt lat="42.97397841699421405792236328125" lon="-2.3823388852179050445556640625">
        <ele>841.79998779296875</ele>
        <time>2022-04-17T16:01:46.000Z</time>
      </trkpt>
      <trkpt lat="42.9739831946790218353271484375" lon="-2.3823474347591400146484375">
        <ele>841.79998779296875</ele>
        <time>2022-04-17T16:01:47.000Z</time>
      </trkpt>
      <trkpt lat="42.973987050354480743408203125" lon="-2.3823606781661510467529296875">
        <ele>841.79998779296875</ele>
        <time>2022-04-17T16:01:48.000Z</time>
      </trkpt>
      <trkpt lat="42.97399300150573253631591796875" lon="-2.3823724128305912017822265625">
        <ele>841.79998779296875</ele>
        <time>2022-04-17T16:01:49.000Z</time>
      </trkpt>
      <trkpt lat="42.9740073345601558685302734375" lon="-2.382384650409221649169921875">
        <ele>841.5999755859375</ele>
        <time>2022-04-17T16:01:50.000Z</time>
      </trkpt>
      <trkpt lat="42.974018566310405731201171875" lon="-2.3823982290923595428466796875">
        <ele>841.4000244140625</ele>
        <time>2022-04-17T16:01:51.000Z</time>
      </trkpt>
      <trkpt lat="42.97402367927134037017822265625" lon="-2.3824129812419414520263671875">
        <ele>841.4000244140625</ele>
        <time>2022-04-17T16:01:52.000Z</time>
      </trkpt>
      <trkpt lat="42.97402803786098957061767578125" lon="-2.38243318162858486175537109375">
        <ele>841.20001220703125</ele>
        <time>2022-04-17T16:01:53.000Z</time>
      </trkpt>
      <trkpt lat="42.9740324802696704864501953125" lon="-2.38244826905429363250732421875">
        <ele>840.79998779296875</ele>
        <time>2022-04-17T16:01:54.000Z</time>
      </trkpt>
      <trkpt lat="42.9740376770496368408203125" lon="-2.38246000371873378753662109375">
        <ele>840.79998779296875</ele>
        <time>2022-04-17T16:01:55.000Z</time>
      </trkpt>
      <trkpt lat="42.9740391857922077178955078125" lon="-2.38246704451739788055419921875">
        <ele>840.79998779296875</ele>
        <time>2022-04-17T16:01:56.000Z</time>
      </trkpt>
      <trkpt lat="42.974037341773509979248046875" lon="-2.3824746720492839813232421875">
        <ele>840.5999755859375</ele>
        <time>2022-04-17T16:01:57.000Z</time>
      </trkpt>
      <trkpt lat="42.97403306700289249420166015625" lon="-2.3824803717434406280517578125">
        <ele>840.5999755859375</ele>
        <time>2022-04-17T16:01:58.000Z</time>
      </trkpt>
      <trkpt lat="42.9740324802696704864501953125" lon="-2.38248917274177074432373046875">
        <ele>840.5999755859375</ele>
        <time>2022-04-17T16:01:59.000Z</time>
      </trkpt>
      <trkpt lat="42.97402585856616497039794921875" lon="-2.3824949562549591064453125">
        <ele>840.5999755859375</ele>
        <time>2022-04-17T16:02:00.000Z</time>
      </trkpt>
      <trkpt lat="42.97401077114045619964599609375" lon="-2.3825051821768283843994140625">
        <ele>840.5999755859375</ele>
        <time>2022-04-17T16:02:01.000Z</time>
      </trkpt>
      <trkpt lat="42.9739996232092380523681640625" lon="-2.382513396441936492919921875">
        <ele>840.5999755859375</ele>
        <time>2022-04-17T16:02:02.000Z</time>
      </trkpt>
      <trkpt lat="42.97400104813277721405029296875" lon="-2.38252580165863037109375">
        <ele>840.4000244140625</ele>
        <time>2022-04-17T16:02:03.000Z</time>
      </trkpt>
      <trkpt lat="42.97401093877851963043212890625" lon="-2.38254231400787830352783203125">
        <ele>840.4000244140625</ele>
        <time>2022-04-17T16:02:04.000Z</time>
      </trkpt>
      <trkpt lat="42.97402300871908664703369140625" lon="-2.3825551383197307586669921875">
        <ele>840.4000244140625</ele>
        <time>2022-04-17T16:02:05.000Z</time>
      </trkpt>
      <trkpt lat="42.9740311391651630401611328125" lon="-2.38256595097482204437255859375">
        <ele>840.4000244140625</ele>
        <time>2022-04-17T16:02:06.000Z</time>
      </trkpt>
      <trkpt lat="42.9740328155457973480224609375" lon="-2.382579110562801361083984375">
        <ele>840.4000244140625</ele>
        <time>2022-04-17T16:02:07.000Z</time>
      </trkpt>
      <trkpt lat="42.9740311391651630401611328125" lon="-2.38259042613208293914794921875">
        <ele>840.20001220703125</ele>
        <time>2022-04-17T16:02:08.000Z</time>
      </trkpt>
      <trkpt lat="42.97403021715581417083740234375" lon="-2.38260425627231597900390625">
        <ele>840.20001220703125</ele>
        <time>2022-04-17T16:02:09.000Z</time>
      </trkpt>
      <trkpt lat="42.974030971527099609375" lon="-2.38261791877448558807373046875">
        <ele>840.20001220703125</ele>
        <time>2022-04-17T16:02:10.000Z</time>
      </trkpt>
      <trkpt lat="42.97403206117451190948486328125" lon="-2.3826295696198940277099609375">
        <ele>840.20001220703125</ele>
        <time>2022-04-17T16:02:11.000Z</time>
      </trkpt>
      <trkpt lat="42.97403206117451190948486328125" lon="-2.38264323212206363677978515625">
        <ele>840.20001220703125</ele>
        <time>2022-04-17T16:02:12.000Z</time>
      </trkpt>
      <trkpt lat="42.97403390519320964813232421875" lon="-2.38265815190970897674560546875">
        <ele>840.20001220703125</ele>
        <time>2022-04-17T16:02:13.000Z</time>
      </trkpt>
      <trkpt lat="42.97403834760189056396484375" lon="-2.38266997039318084716796875">
        <ele>840</ele>
        <time>2022-04-17T16:02:14.000Z</time>
      </trkpt>
      <trkpt lat="42.97404513694345951080322265625" lon="-2.3826825432479381561279296875">
        <ele>839.79998779296875</ele>
        <time>2022-04-17T16:02:15.000Z</time>
      </trkpt>
      <trkpt lat="42.97404949553310871124267578125" lon="-2.38269905559718608856201171875">
        <ele>839.79998779296875</ele>
        <time>2022-04-17T16:02:16.000Z</time>
      </trkpt>
      <trkpt lat="42.97405653633177280426025390625" lon="-2.3827170766890048980712890625">
        <ele>839.5999755859375</ele>
        <time>2022-04-17T16:02:17.000Z</time>
      </trkpt>
      <trkpt lat="42.97406240366399288177490234375" lon="-2.3827336728572845458984375">
        <ele>839.5999755859375</ele>
        <time>2022-04-17T16:02:18.000Z</time>
      </trkpt>
      <trkpt lat="42.97406374476850032806396484375" lon="-2.38274775445461273193359375">
        <ele>839.4000244140625</ele>
        <time>2022-04-17T16:02:19.000Z</time>
      </trkpt>
      <trkpt lat="42.9740666784346103668212890625" lon="-2.3827613331377506256103515625">
        <ele>839.4000244140625</ele>
        <time>2022-04-17T16:02:20.000Z</time>
      </trkpt>
      <trkpt lat="42.9740703664720058441162109375" lon="-2.3827727325260639190673828125">
        <ele>839.20001220703125</ele>
        <time>2022-04-17T16:02:21.000Z</time>
      </trkpt>
      <trkpt lat="42.97407413832843303680419921875" lon="-2.38278471864759922027587890625">
        <ele>839.20001220703125</ele>
        <time>2022-04-17T16:02:22.000Z</time>
      </trkpt>
      <trkpt lat="42.97407665289938449859619140625" lon="-2.3827908374369144439697265625">
        <ele>839.20001220703125</ele>
        <time>2022-04-17T16:02:23.000Z</time>
      </trkpt>
      <trkpt lat="42.974080927670001983642578125" lon="-2.3828060925006866455078125">
        <ele>839</ele>
        <time>2022-04-17T16:02:24.000Z</time>
      </trkpt>
      <trkpt lat="42.9740871302783489227294921875" lon="-2.38280835561454296112060546875">
        <ele>839</ele>
        <time>2022-04-17T16:02:25.000Z</time>
      </trkpt>
      <trkpt lat="42.9740904830396175384521484375" lon="-2.3828045837581157684326171875">
        <ele>838.79998779296875</ele>
        <time>2022-04-17T16:02:26.000Z</time>
      </trkpt>
      <trkpt lat="42.97409257851541042327880859375" lon="-2.38280584104359149932861328125">
        <ele>838.5999755859375</ele>
        <time>2022-04-17T16:02:27.000Z</time>
      </trkpt>
      <trkpt lat="42.97409073449671268463134765625" lon="-2.38280634395778179168701171875">
        <ele>838.5999755859375</ele>
        <time>2022-04-17T16:02:28.000Z</time>
      </trkpt>
      <trkpt lat="42.9740904830396175384521484375" lon="-2.38280701451003551483154296875">
        <ele>838.4000244140625</ele>
        <time>2022-04-17T16:02:29.000Z</time>
      </trkpt>
      <trkpt lat="42.97409006394445896148681640625" lon="-2.3828062601387500762939453125">
        <ele>838.4000244140625</ele>
        <time>2022-04-17T16:02:30.000Z</time>
      </trkpt>
      <trkpt lat="42.97408956103026866912841796875" lon="-2.3828065954148769378662109375">
        <ele>838.4000244140625</ele>
        <time>2022-04-17T16:02:31.000Z</time>
      </trkpt>
      <trkpt lat="42.97409274615347385406494140625" lon="-2.38281137309968471527099609375">
        <ele>838.4000244140625</ele>
        <time>2022-04-17T16:02:32.000Z</time>
      </trkpt>
      <trkpt lat="42.97409006394445896148681640625" lon="-2.38281321711838245391845703125">
        <ele>838.4000244140625</ele>
        <time>2022-04-17T16:02:33.000Z</time>
      </trkpt>
      <trkpt lat="42.97409023158252239227294921875" lon="-2.3828119598329067230224609375">
        <ele>838.4000244140625</ele>
        <time>2022-04-17T16:02:34.000Z</time>
      </trkpt>
      <trkpt lat="42.9740918241441249847412109375" lon="-2.3828116245567798614501953125">
        <ele>838.4000244140625</ele>
        <time>2022-04-17T16:02:35.000Z</time>
      </trkpt>
      <trkpt lat="42.9740961827337741851806640625" lon="-2.3828200064599514007568359375">
        <ele>838.4000244140625</ele>
        <time>2022-04-17T16:02:36.000Z</time>
      </trkpt>
      <trkpt lat="42.97410179860889911651611328125" lon="-2.3828270472586154937744140625">
        <ele>838.5999755859375</ele>
        <time>2022-04-17T16:02:37.000Z</time>
      </trkpt>
      <trkpt lat="42.9741048999130725860595703125" lon="-2.3828320764005184173583984375">
        <ele>838.5999755859375</ele>
        <time>2022-04-17T16:02:38.000Z</time>
      </trkpt>
      <trkpt lat="42.9741035588085651397705078125" lon="-2.38283551298081874847412109375">
        <ele>838.5999755859375</ele>
        <time>2022-04-17T16:02:39.000Z</time>
      </trkpt>
      <trkpt lat="42.974103391170501708984375" lon="-2.38284456543624401092529296875">
        <ele>838.4000244140625</ele>
        <time>2022-04-17T16:02:40.000Z</time>
      </trkpt>
      <trkpt lat="42.97410137951374053955078125" lon="-2.38285495899617671966552734375">
        <ele>838.4000244140625</ele>
        <time>2022-04-17T16:02:41.000Z</time>
      </trkpt>
      <trkpt lat="42.97410045750439167022705078125" lon="-2.38286568783223628997802734375">
        <ele>838.4000244140625</ele>
        <time>2022-04-17T16:02:42.000Z</time>
      </trkpt>
      <trkpt lat="42.9740993678569793701171875" lon="-2.38287004642188549041748046875">
        <ele>838.4000244140625</ele>
        <time>2022-04-17T16:02:43.000Z</time>
      </trkpt>
      <trkpt lat="42.974100373685359954833984375" lon="-2.3828766681253910064697265625">
        <ele>838.4000244140625</ele>
        <time>2022-04-17T16:02:44.000Z</time>
      </trkpt>
      <trkpt lat="42.97410129569470882415771484375" lon="-2.38288043998181819915771484375">
        <ele>838.4000244140625</ele>
        <time>2022-04-17T16:02:45.000Z</time>
      </trkpt>
      <trkpt lat="42.974104396998882293701171875" lon="-2.3828850500285625457763671875">
        <ele>838.4000244140625</ele>
        <time>2022-04-17T16:02:46.000Z</time>
      </trkpt>
      <trkpt lat="42.974103055894374847412109375" lon="-2.3828934319317340850830078125">
        <ele>838.4000244140625</ele>
        <time>2022-04-17T16:02:47.000Z</time>
      </trkpt>
      <trkpt lat="42.97410272061824798583984375" lon="-2.38290960900485515594482421875">
        <ele>838.4000244140625</ele>
        <time>2022-04-17T16:02:48.000Z</time>
      </trkpt>
      <trkpt lat="42.97410230152308940887451171875" lon="-2.38292469643056392669677734375">
        <ele>838.4000244140625</ele>
        <time>2022-04-17T16:02:49.000Z</time>
      </trkpt>
      <trkpt lat="42.9740981943905353546142578125" lon="-2.382930479943752288818359375">
        <ele>838.20001220703125</ele>
        <time>2022-04-17T16:02:50.000Z</time>
      </trkpt>
      <trkpt lat="42.97409777529537677764892578125" lon="-2.3829390294849872589111328125">
        <ele>838.20001220703125</ele>
        <time>2022-04-17T16:02:51.000Z</time>
      </trkpt>
      <trkpt lat="42.97409391961991786956787109375" lon="-2.3829455673694610595703125">
        <ele>838.20001220703125</ele>
        <time>2022-04-17T16:02:52.000Z</time>
      </trkpt>
      <trkpt lat="42.9740908183157444000244140625" lon="-2.38295202143490314483642578125">
        <ele>838.20001220703125</ele>
        <time>2022-04-17T16:02:53.000Z</time>
      </trkpt>
      <trkpt lat="42.9740911535918712615966796875" lon="-2.38296794705092906951904296875">
        <ele>838</ele>
        <time>2022-04-17T16:02:54.000Z</time>
      </trkpt>
      <trkpt lat="42.9740851186215877532958984375" lon="-2.382987476885318756103515625">
        <ele>838</ele>
        <time>2022-04-17T16:02:55.000Z</time>
      </trkpt>
      <trkpt lat="42.97408352605998516082763671875" lon="-2.38300918601453304290771484375">
        <ele>838</ele>
        <time>2022-04-17T16:02:56.000Z</time>
      </trkpt>
      <trkpt lat="42.9740834422409534454345703125" lon="-2.38302402198314666748046875">
        <ele>837.79998779296875</ele>
        <time>2022-04-17T16:02:57.000Z</time>
      </trkpt>
      <trkpt lat="42.97408587299287319183349609375" lon="-2.38303818739950656890869140625">
        <ele>837.79998779296875</ele>
        <time>2022-04-17T16:02:58.000Z</time>
      </trkpt>
      <trkpt lat="42.97408587299287319183349609375" lon="-2.3830526880919933319091796875">
        <ele>837.79998779296875</ele>
        <time>2022-04-17T16:02:59.000Z</time>
      </trkpt>
      <trkpt lat="42.97408503480255603790283203125" lon="-2.38305981270968914031982421875">
        <ele>837.79998779296875</ele>
        <time>2022-04-17T16:03:00.000Z</time>
      </trkpt>
      <trkpt lat="42.9740857891738414764404296875" lon="-2.383071966469287872314453125">
        <ele>837.79998779296875</ele>
        <time>2022-04-17T16:03:01.000Z</time>
      </trkpt>
      <trkpt lat="42.9740797542035579681396484375" lon="-2.38308437168598175048828125">
        <ele>837.5999755859375</ele>
        <time>2022-04-17T16:03:02.000Z</time>
      </trkpt>
      <trkpt lat="42.9740794189274311065673828125" lon="-2.38309375941753387451171875">
        <ele>837.5999755859375</ele>
        <time>2022-04-17T16:03:03.000Z</time>
      </trkpt>
      <trkpt lat="42.9740831069648265838623046875" lon="-2.3831076733767986297607421875">
        <ele>837.5999755859375</ele>
        <time>2022-04-17T16:03:04.000Z</time>
      </trkpt>
      <trkpt lat="42.97408838756382465362548828125" lon="-2.38312167115509510040283203125">
        <ele>837.4000244140625</ele>
        <time>2022-04-17T16:03:05.000Z</time>
      </trkpt>
      <trkpt lat="42.9740888066589832305908203125" lon="-2.38312971778213977813720703125">
        <ele>837.4000244140625</ele>
        <time>2022-04-17T16:03:06.000Z</time>
      </trkpt>
      <trkpt lat="42.9740901477634906768798828125" lon="-2.38314564339816570281982421875">
        <ele>837.4000244140625</ele>
        <time>2022-04-17T16:03:07.000Z</time>
      </trkpt>
      <trkpt lat="42.9740965180099010467529296875" lon="-2.38315938971936702728271484375">
        <ele>837.4000244140625</ele>
        <time>2022-04-17T16:03:08.000Z</time>
      </trkpt>
      <trkpt lat="42.97410112805664539337158203125" lon="-2.383166849613189697265625">
        <ele>837.4000244140625</ele>
        <time>2022-04-17T16:03:09.000Z</time>
      </trkpt>
      <trkpt lat="42.97410917468369007110595703125" lon="-2.38317498005926609039306640625">
        <ele>837.5999755859375</ele>
        <time>2022-04-17T16:03:10.000Z</time>
      </trkpt>
      <trkpt lat="42.97411638312041759490966796875" lon="-2.38318503834307193756103515625">
        <ele>837.5999755859375</ele>
        <time>2022-04-17T16:03:11.000Z</time>
      </trkpt>
      <trkpt lat="42.97412149608135223388671875" lon="-2.383193671703338623046875">
        <ele>837.5999755859375</ele>
        <time>2022-04-17T16:03:12.000Z</time>
      </trkpt>
      <trkpt lat="42.97412392683327198028564453125" lon="-2.38320012576878070831298828125">
        <ele>837.5999755859375</ele>
        <time>2022-04-17T16:03:13.000Z</time>
      </trkpt>
      <trkpt lat="42.97412845306098461151123046875" lon="-2.38320641219615936279296875">
        <ele>837.5999755859375</ele>
        <time>2022-04-17T16:03:14.000Z</time>
      </trkpt>
      <trkpt lat="42.974132560193538665771484375" lon="-2.3832146264612674713134765625">
        <ele>837.5999755859375</ele>
        <time>2022-04-17T16:03:15.000Z</time>
      </trkpt>
      <trkpt lat="42.97413281165063381195068359375" lon="-2.383223511278629302978515625">
        <ele>837.4000244140625</ele>
        <time>2022-04-17T16:03:16.000Z</time>
      </trkpt>
      <trkpt lat="42.97413800843060016632080078125" lon="-2.383225522935390472412109375">
        <ele>837.20001220703125</ele>
        <time>2022-04-17T16:03:17.000Z</time>
      </trkpt>
      <trkpt lat="42.9741377569735050201416015625" lon="-2.3832313902676105499267578125">
        <ele>837.20001220703125</ele>
        <time>2022-04-17T16:03:18.000Z</time>
      </trkpt>
      <trkpt lat="42.9741364158689975738525390625" lon="-2.3832411132752895355224609375">
        <ele>837</ele>
        <time>2022-04-17T16:03:19.000Z</time>
      </trkpt>
      <trkpt lat="42.97413968481123447418212890625" lon="-2.383253015577793121337890625">
        <ele>837</ele>
        <time>2022-04-17T16:03:20.000Z</time>
      </trkpt>
      <trkpt lat="42.97414429485797882080078125" lon="-2.3832665942609310150146484375">
        <ele>837</ele>
        <time>2022-04-17T16:03:21.000Z</time>
      </trkpt>
      <trkpt lat="42.974145971238613128662109375" lon="-2.383279837667942047119140625">
        <ele>837</ele>
        <time>2022-04-17T16:03:22.000Z</time>
      </trkpt>
      <trkpt lat="42.9741471447050571441650390625" lon="-2.38329299725592136383056640625">
        <ele>837</ele>
        <time>2022-04-17T16:03:23.000Z</time>
      </trkpt>
      <trkpt lat="42.974147982895374298095703125" lon="-2.38330087624490261077880859375">
        <ele>836.79998779296875</ele>
        <time>2022-04-17T16:03:24.000Z</time>
      </trkpt>
      <trkpt lat="42.97415141947567462921142578125" lon="-2.383306659758090972900390625">
        <ele>837</ele>
        <time>2022-04-17T16:03:25.000Z</time>
      </trkpt>
      <trkpt lat="42.9741515032947063446044921875" lon="-2.38331160508096218109130859375">
        <ele>837</ele>
        <time>2022-04-17T16:03:26.000Z</time>
      </trkpt>
      <trkpt lat="42.9741468094289302825927734375" lon="-2.383310012519359588623046875">
        <ele>837</ele>
        <time>2022-04-17T16:03:27.000Z</time>
      </trkpt>
      <trkpt lat="42.97414722852408885955810546875" lon="-2.3833145387470722198486328125">
        <ele>836.79998779296875</ele>
        <time>2022-04-17T16:03:28.000Z</time>
      </trkpt>
      <trkpt lat="42.97414924018085002899169921875" lon="-2.38332216627895832061767578125">
        <ele>836.79998779296875</ele>
        <time>2022-04-17T16:03:29.000Z</time>
      </trkpt>
      <trkpt lat="42.9741504974663257598876953125" lon="-2.38333021290600299835205078125">
        <ele>836.79998779296875</ele>
        <time>2022-04-17T16:03:30.000Z</time>
      </trkpt>
      <trkpt lat="42.974149994552135467529296875" lon="-2.3833366669714450836181640625">
        <ele>836.5999755859375</ele>
        <time>2022-04-17T16:03:31.000Z</time>
      </trkpt>
      <trkpt lat="42.97415125183761119842529296875" lon="-2.38335066474974155426025390625">
        <ele>836.5999755859375</ele>
        <time>2022-04-17T16:03:32.000Z</time>
      </trkpt>
      <trkpt lat="42.97415527515113353729248046875" lon="-2.38336457870900630950927734375">
        <ele>836.5999755859375</ele>
        <time>2022-04-17T16:03:33.000Z</time>
      </trkpt>
      <trkpt lat="42.97415745444595813751220703125" lon="-2.383378408849239349365234375">
        <ele>836.4000244140625</ele>
        <time>2022-04-17T16:03:34.000Z</time>
      </trkpt>
      <trkpt lat="42.97416013665497303009033203125" lon="-2.38339324481785297393798828125">
        <ele>836.4000244140625</ele>
        <time>2022-04-17T16:03:35.000Z</time>
      </trkpt>
      <trkpt lat="42.974161393940448760986328125" lon="-2.3834070749580860137939453125">
        <ele>836.20001220703125</ele>
        <time>2022-04-17T16:03:36.000Z</time>
      </trkpt>
      <trkpt lat="42.97416365705430507659912109375" lon="-2.383421994745731353759765625">
        <ele>836.20001220703125</ele>
        <time>2022-04-17T16:03:37.000Z</time>
      </trkpt>
      <trkpt lat="42.97415980137884616851806640625" lon="-2.38343113102018833160400390625">
        <ele>836.20001220703125</ele>
        <time>2022-04-17T16:03:38.000Z</time>
      </trkpt>
      <trkpt lat="42.97415259294211864471435546875" lon="-2.38344303332269191741943359375">
        <ele>836</ele>
        <time>2022-04-17T16:03:39.000Z</time>
      </trkpt>
      <trkpt lat="42.9741645790636539459228515625" lon="-2.38346449099481105804443359375">
        <ele>836</ele>
        <time>2022-04-17T16:03:40.000Z</time>
      </trkpt>
      <trkpt lat="42.97417907975614070892333984375" lon="-2.38348561339080333709716796875">
        <ele>836</ele>
        <time>2022-04-17T16:03:41.000Z</time>
      </trkpt>
      <trkpt lat="42.97418863512575626373291015625" lon="-2.38350640051066875457763671875">
        <ele>836</ele>
        <time>2022-04-17T16:03:42.000Z</time>
      </trkpt>
      <trkpt lat="42.974198944866657257080078125" lon="-2.38352601416409015655517578125">
        <ele>836</ele>
        <time>2022-04-17T16:03:43.000Z</time>
      </trkpt>
      <trkpt lat="42.97420254908502101898193359375" lon="-2.383541353046894073486328125">
        <ele>835.79998779296875</ele>
        <time>2022-04-17T16:03:44.000Z</time>
      </trkpt>
      <trkpt lat="42.97420674003660678863525390625" lon="-2.3835529200732707977294921875">
        <ele>835.79998779296875</ele>
        <time>2022-04-17T16:03:45.000Z</time>
      </trkpt>
      <trkpt lat="42.97420774586498737335205078125" lon="-2.383559457957744598388671875">
        <ele>835.79998779296875</ele>
        <time>2022-04-17T16:03:46.000Z</time>
      </trkpt>
      <trkpt lat="42.97421176917850971221923828125" lon="-2.38357932306826114654541015625">
        <ele>836</ele>
        <time>2022-04-17T16:03:47.000Z</time>
      </trkpt>
      <trkpt lat="42.97421981580555438995361328125" lon="-2.38359927199780941009521484375">
        <ele>836</ele>
        <time>2022-04-17T16:03:48.000Z</time>
      </trkpt>
      <trkpt lat="42.97422945499420166015625" lon="-2.383615113794803619384765625">
        <ele>836</ele>
        <time>2022-04-17T16:03:49.000Z</time>
      </trkpt>
      <trkpt lat="42.97423607669770717620849609375" lon="-2.38362659700214862823486328125">
        <ele>836</ele>
        <time>2022-04-17T16:03:50.000Z</time>
      </trkpt>
      <trkpt lat="42.97424177639186382293701171875" lon="-2.38364436663687229156494140625">
        <ele>836</ele>
        <time>2022-04-17T16:03:51.000Z</time>
      </trkpt>
      <trkpt lat="42.974244542419910430908203125" lon="-2.3836535029113292694091796875">
        <ele>836</ele>
        <time>2022-04-17T16:03:52.000Z</time>
      </trkpt>
      <trkpt lat="42.9742473922669887542724609375" lon="-2.383665405213832855224609375">
        <ele>835.79998779296875</ele>
        <time>2022-04-17T16:03:53.000Z</time>
      </trkpt>
      <trkpt lat="42.974242866039276123046875" lon="-2.3836803250014781951904296875">
        <ele>835.79998779296875</ele>
        <time>2022-04-17T16:03:54.000Z</time>
      </trkpt>
      <trkpt lat="42.974241189658641815185546875" lon="-2.38370588980615139007568359375">
        <ele>835.5999755859375</ele>
        <time>2022-04-17T16:03:55.000Z</time>
      </trkpt>
      <trkpt lat="42.97423758544027805328369140625" lon="-2.383730448782444000244140625">
        <ele>835.5999755859375</ele>
        <time>2022-04-17T16:03:56.000Z</time>
      </trkpt>
      <trkpt lat="42.974242866039276123046875" lon="-2.38375199027359485626220703125">
        <ele>835.5999755859375</ele>
        <time>2022-04-17T16:03:57.000Z</time>
      </trkpt>
      <trkpt lat="42.97424546442925930023193359375" lon="-2.38377260975539684295654296875">
        <ele>835.5999755859375</ele>
        <time>2022-04-17T16:03:58.000Z</time>
      </trkpt>
      <trkpt lat="42.97424714080989360809326171875" lon="-2.3837829194962978363037109375">
        <ele>835.5999755859375</ele>
        <time>2022-04-17T16:03:59.000Z</time>
      </trkpt>
      <trkpt lat="42.97424848191440105438232421875" lon="-2.38378870300948619842529296875">
        <ele>835.5999755859375</ele>
        <time>2022-04-17T16:04:00.000Z</time>
      </trkpt>
      <trkpt lat="42.97425024211406707763671875" lon="-2.383795492351055145263671875">
        <ele>835.5999755859375</ele>
        <time>2022-04-17T16:04:01.000Z</time>
      </trkpt>
      <trkpt lat="42.97425485216081142425537109375" lon="-2.3838084004819393157958984375">
        <ele>835.5999755859375</ele>
        <time>2022-04-17T16:04:02.000Z</time>
      </trkpt>
      <trkpt lat="42.97425921075046062469482421875" lon="-2.38382340408861637115478515625">
        <ele>835.5999755859375</ele>
        <time>2022-04-17T16:04:03.000Z</time>
      </trkpt>
      <trkpt lat="42.97426608391106128692626953125" lon="-2.38383547402918338775634765625">
        <ele>835.5999755859375</ele>
        <time>2022-04-17T16:04:04.000Z</time>
      </trkpt>
      <trkpt lat="42.97426977194845676422119140625" lon="-2.3838459514081478118896484375">
        <ele>835.4000244140625</ele>
        <time>2022-04-17T16:04:05.000Z</time>
      </trkpt>
      <trkpt lat="42.9742675088346004486083984375" lon="-2.3838563449680805206298828125">
        <ele>835.4000244140625</ele>
        <time>2022-04-17T16:04:06.000Z</time>
      </trkpt>
      <trkpt lat="42.9742654971778392791748046875" lon="-2.383865229785442352294921875">
        <ele>835.4000244140625</ele>
        <time>2022-04-17T16:04:07.000Z</time>
      </trkpt>
      <trkpt lat="42.97426725737750530242919921875" lon="-2.3838707618415355682373046875">
        <ele>835.4000244140625</ele>
        <time>2022-04-17T16:04:08.000Z</time>
      </trkpt>
      <trkpt lat="42.974269688129425048828125" lon="-2.38387989811599254608154296875">
        <ele>835.4000244140625</ele>
        <time>2022-04-17T16:04:09.000Z</time>
      </trkpt>
      <trkpt lat="42.97427706420421600341796875" lon="-2.383894063532352447509765625">
        <ele>835.20001220703125</ele>
        <time>2022-04-17T16:04:10.000Z</time>
      </trkpt>
      <trkpt lat="42.97428284771740436553955078125" lon="-2.38390739075839519500732421875">
        <ele>835.20001220703125</ele>
        <time>2022-04-17T16:04:11.000Z</time>
      </trkpt>
      <trkpt lat="42.97428804449737071990966796875" lon="-2.38392029888927936553955078125">
        <ele>835.20001220703125</ele>
        <time>2022-04-17T16:04:12.000Z</time>
      </trkpt>
      <trkpt lat="42.97429240308701992034912109375" lon="-2.3839337937533855438232421875">
        <ele>835.20001220703125</ele>
        <time>2022-04-17T16:04:13.000Z</time>
      </trkpt>
      <trkpt lat="42.974299527704715728759765625" lon="-2.383963130414485931396484375">
        <ele>835</ele>
        <time>2022-04-17T16:04:14.000Z</time>
      </trkpt>
      <trkpt lat="42.9743037186563014984130859375" lon="-2.38398031331598758697509765625">
        <ele>835</ele>
        <time>2022-04-17T16:04:15.000Z</time>
      </trkpt>
      <trkpt lat="42.974298857152462005615234375" lon="-2.3840008489787578582763671875">
        <ele>835</ele>
        <time>2022-04-17T16:04:16.000Z</time>
      </trkpt>
      <trkpt lat="42.9742973484098911285400390625" lon="-2.38402071408927440643310546875">
        <ele>834.79998779296875</ele>
        <time>2022-04-17T16:04:17.000Z</time>
      </trkpt>
      <trkpt lat="42.97429391182959079742431640625" lon="-2.38403261639177799224853515625">
        <ele>834.5999755859375</ele>
        <time>2022-04-17T16:04:18.000Z</time>
      </trkpt>
      <trkpt lat="42.97429542057216167449951171875" lon="-2.3840407468378543853759765625">
        <ele>834.5999755859375</ele>
        <time>2022-04-17T16:04:19.000Z</time>
      </trkpt>
      <trkpt lat="42.97429793514311313629150390625" lon="-2.3840487934648990631103515625">
        <ele>834.4000244140625</ele>
        <time>2022-04-17T16:04:20.000Z</time>
      </trkpt>
      <trkpt lat="42.97430112026631832122802734375" lon="-2.3840534873306751251220703125">
        <ele>834.20001220703125</ele>
        <time>2022-04-17T16:04:21.000Z</time>
      </trkpt>
      <trkpt lat="42.9743064008653163909912109375" lon="-2.38405860029160976409912109375">
        <ele>834</ele>
        <time>2022-04-17T16:04:22.000Z</time>
      </trkpt>
      <trkpt lat="42.9743110947310924530029296875" lon="-2.38405256532132625579833984375">
        <ele>833.79998779296875</ele>
        <time>2022-04-17T16:04:23.000Z</time>
      </trkpt>
      <trkpt lat="42.974314950406551361083984375" lon="-2.38404854200780391693115234375">
        <ele>833.79998779296875</ele>
        <time>2022-04-17T16:04:24.000Z</time>
      </trkpt>
      <trkpt lat="42.974306903779506683349609375" lon="-2.38404317758977413177490234375">
        <ele>833.79998779296875</ele>
        <time>2022-04-17T16:04:25.000Z</time>
      </trkpt>
      <trkpt lat="42.974308915436267852783203125" lon="-2.384043596684932708740234375">
        <ele>833.5999755859375</ele>
        <time>2022-04-17T16:04:26.000Z</time>
      </trkpt>
      <trkpt lat="42.97431168146431446075439453125" lon="-2.38404929637908935546875">
        <ele>833.5999755859375</ele>
        <time>2022-04-17T16:04:27.000Z</time>
      </trkpt>
      <trkpt lat="42.97431595623493194580078125" lon="-2.38406279124319553375244140625">
        <ele>833.5999755859375</ele>
        <time>2022-04-17T16:04:28.000Z</time>
      </trkpt>
      <trkpt lat="42.9743193089962005615234375" lon="-2.3840762861073017120361328125">
        <ele>833.5999755859375</ele>
        <time>2022-04-17T16:04:29.000Z</time>
      </trkpt>
      <trkpt lat="42.9743245057761669158935546875" lon="-2.384087182581424713134765625">
        <ele>833.5999755859375</ele>
        <time>2022-04-17T16:04:30.000Z</time>
      </trkpt>
      <trkpt lat="42.97432827763259410858154296875" lon="-2.384097240865230560302734375">
        <ele>833.5999755859375</ele>
        <time>2022-04-17T16:04:31.000Z</time>
      </trkpt>
      <trkpt lat="42.97433339059352874755859375" lon="-2.38410989753901958465576171875">
        <ele>833.5999755859375</ele>
        <time>2022-04-17T16:04:32.000Z</time>
      </trkpt>
      <trkpt lat="42.97434546053409576416015625" lon="-2.38412280566990375518798828125">
        <ele>833.5999755859375</ele>
        <time>2022-04-17T16:04:33.000Z</time>
      </trkpt>
      <trkpt lat="42.97434738837182521820068359375" lon="-2.38413286395370960235595703125">
        <ele>833.20001220703125</ele>
        <time>2022-04-17T16:04:34.000Z</time>
      </trkpt>
      <trkpt lat="42.97434948384761810302734375" lon="-2.3841527290642261505126953125">
        <ele>833</ele>
        <time>2022-04-17T16:04:35.000Z</time>
      </trkpt>
      <trkpt lat="42.9743499867618083953857421875" lon="-2.38416798412799835205078125">
        <ele>832.79998779296875</ele>
        <time>2022-04-17T16:04:36.000Z</time>
      </trkpt>
      <trkpt lat="42.9743489809334278106689453125" lon="-2.38417527638375759124755859375">
        <ele>832.5999755859375</ele>
        <time>2022-04-17T16:04:37.000Z</time>
      </trkpt>
      <trkpt lat="42.97435593791306018829345703125" lon="-2.3841874301433563232421875">
        <ele>832.4000244140625</ele>
        <time>2022-04-17T16:04:38.000Z</time>
      </trkpt>
      <trkpt lat="42.9743603803217411041259765625" lon="-2.3841953091323375701904296875">
        <ele>832.20001220703125</ele>
        <time>2022-04-17T16:04:39.000Z</time>
      </trkpt>
      <trkpt lat="42.97436825931072235107421875" lon="-2.3842097260057926177978515625">
        <ele>832.20001220703125</ele>
        <time>2022-04-17T16:04:40.000Z</time>
      </trkpt>
      <trkpt lat="42.97436834312975406646728515625" lon="-2.38422028720378875732421875">
        <ele>832.20001220703125</ele>
        <time>2022-04-17T16:04:41.000Z</time>
      </trkpt>
      <trkpt lat="42.97437094151973724365234375" lon="-2.3842358775436878204345703125">
        <ele>832</ele>
        <time>2022-04-17T16:04:42.000Z</time>
      </trkpt>
      <trkpt lat="42.97436968423426151275634765625" lon="-2.38425758667290210723876953125">
        <ele>831.79998779296875</ele>
        <time>2022-04-17T16:04:43.000Z</time>
      </trkpt>
      <trkpt lat="42.97437018714845180511474609375" lon="-2.38427518866956233978271484375">
        <ele>831.79998779296875</ele>
        <time>2022-04-17T16:04:44.000Z</time>
      </trkpt>
      <trkpt lat="42.974371947348117828369140625" lon="-2.38428306765854358673095703125">
        <ele>831.5999755859375</ele>
        <time>2022-04-17T16:04:45.000Z</time>
      </trkpt>
      <trkpt lat="42.974371276795864105224609375" lon="-2.384299077093601226806640625">
        <ele>831.4000244140625</ele>
        <time>2022-04-17T16:04:46.000Z</time>
      </trkpt>
      <trkpt lat="42.974370606243610382080078125" lon="-2.38431324250996112823486328125">
        <ele>831.20001220703125</ele>
        <time>2022-04-17T16:04:47.000Z</time>
      </trkpt>
      <trkpt lat="42.9743724502623081207275390625" lon="-2.3843237198889255523681640625">
        <ele>831</ele>
        <time>2022-04-17T16:04:48.000Z</time>
      </trkpt>
      <trkpt lat="42.97437488101422786712646484375" lon="-2.3843334428966045379638671875">
        <ele>830.79998779296875</ele>
        <time>2022-04-17T16:04:49.000Z</time>
      </trkpt>
      <trkpt lat="42.97437739558517932891845703125" lon="-2.38434366881847381591796875">
        <ele>830.79998779296875</ele>
        <time>2022-04-17T16:04:50.000Z</time>
      </trkpt>
      <trkpt lat="42.97438058070838451385498046875" lon="-2.38435364328324794769287109375">
        <ele>830.5999755859375</ele>
        <time>2022-04-17T16:04:51.000Z</time>
      </trkpt>
      <trkpt lat="42.97438167035579681396484375" lon="-2.38436537794768810272216796875">
        <ele>830.5999755859375</ele>
        <time>2022-04-17T16:04:52.000Z</time>
      </trkpt>
      <trkpt lat="42.9743764735758304595947265625" lon="-2.38436906598508358001708984375">
        <ele>830.5999755859375</ele>
        <time>2022-04-17T16:04:53.000Z</time>
      </trkpt>
      <trkpt lat="42.97437555156648159027099609375" lon="-2.3843813873827457427978515625">
        <ele>830.4000244140625</ele>
        <time>2022-04-17T16:04:54.000Z</time>
      </trkpt>
      <trkpt lat="42.97437940724194049835205078125" lon="-2.38439504988491535186767578125">
        <ele>830.4000244140625</ele>
        <time>2022-04-17T16:04:55.000Z</time>
      </trkpt>
      <trkpt lat="42.97438242472708225250244140625" lon="-2.3844035156071186065673828125">
        <ele>830.20001220703125</ele>
        <time>2022-04-17T16:04:56.000Z</time>
      </trkpt>
      <trkpt lat="42.97438971698284149169921875" lon="-2.3844102211296558380126953125">
        <ele>830</ele>
        <time>2022-04-17T16:04:57.000Z</time>
      </trkpt>
      <trkpt lat="42.97439248301088809967041015625" lon="-2.3844202794134616851806640625">
        <ele>829.79998779296875</ele>
        <time>2022-04-17T16:04:58.000Z</time>
      </trkpt>
      <trkpt lat="42.97439382411539554595947265625" lon="-2.3844301700592041015625">
        <ele>829.79998779296875</ele>
        <time>2022-04-17T16:04:59.000Z</time>
      </trkpt>
      <trkpt lat="42.97439734451472759246826171875" lon="-2.38444265909492969512939453125">
        <ele>829.5999755859375</ele>
        <time>2022-04-17T16:05:00.000Z</time>
      </trkpt>
      <trkpt lat="42.974399439990520477294921875" lon="-2.3844588361680507659912109375">
        <ele>829.4000244140625</ele>
        <time>2022-04-17T16:05:01.000Z</time>
      </trkpt>
      <trkpt lat="42.97440891154110431671142578125" lon="-2.38448607735335826873779296875">
        <ele>829.4000244140625</ele>
        <time>2022-04-17T16:05:02.000Z</time>
      </trkpt>
      <trkpt lat="42.9744153656065464019775390625" lon="-2.3845034278929233551025390625">
        <ele>829.20001220703125</ele>
        <time>2022-04-17T16:05:03.000Z</time>
      </trkpt>
      <trkpt lat="42.9744170419871807098388671875" lon="-2.3845030926167964935302734375">
        <ele>829.20001220703125</ele>
        <time>2022-04-17T16:05:04.000Z</time>
      </trkpt>
      <trkpt lat="42.9744158685207366943359375" lon="-2.3845051042735576629638671875">
        <ele>829</ele>
        <time>2022-04-17T16:05:05.000Z</time>
      </trkpt>
      <trkpt lat="42.97442064620554447174072265625" lon="-2.38451063632965087890625">
        <ele>828.79998779296875</ele>
        <time>2022-04-17T16:05:06.000Z</time>
      </trkpt>
      <trkpt lat="42.9744224064052104949951171875" lon="-2.38451130688190460205078125">
        <ele>828.5999755859375</ele>
        <time>2022-04-17T16:05:07.000Z</time>
      </trkpt>
      <trkpt lat="42.9744291119277477264404296875" lon="-2.38452061079442501068115234375">
        <ele>828.4000244140625</ele>
        <time>2022-04-17T16:05:08.000Z</time>
      </trkpt>
      <trkpt lat="42.974428273737430572509765625" lon="-2.38452832214534282684326171875">
        <ele>828.4000244140625</ele>
        <time>2022-04-17T16:05:09.000Z</time>
      </trkpt>
      <trkpt lat="42.97442458570003509521484375" lon="-2.384531088173389434814453125">
        <ele>828.20001220703125</ele>
        <time>2022-04-17T16:05:10.000Z</time>
      </trkpt>
      <trkpt lat="42.9744237475097179412841796875" lon="-2.38454475067555904388427734375">
        <ele>828</ele>
        <time>2022-04-17T16:05:11.000Z</time>
      </trkpt>
      <trkpt lat="42.97442232258617877960205078125" lon="-2.3845587484538555145263671875">
        <ele>827.79998779296875</ele>
        <time>2022-04-17T16:05:12.000Z</time>
      </trkpt>
      <trkpt lat="42.9744230769574642181396484375" lon="-2.38457702100276947021484375">
        <ele>827.79998779296875</ele>
        <time>2022-04-17T16:05:13.000Z</time>
      </trkpt>
      <trkpt lat="42.97442458570003509521484375" lon="-2.3845951259136199951171875">
        <ele>827.5999755859375</ele>
        <time>2022-04-17T16:05:14.000Z</time>
      </trkpt>
      <trkpt lat="42.97442995011806488037109375" lon="-2.38460727967321872711181640625">
        <ele>827.5999755859375</ele>
        <time>2022-04-17T16:05:15.000Z</time>
      </trkpt>
      <trkpt lat="42.97443422488868236541748046875" lon="-2.38461398519575595855712890625">
        <ele>827.5999755859375</ele>
        <time>2022-04-17T16:05:16.000Z</time>
      </trkpt>
      <trkpt lat="42.97443305142223834991455078125" lon="-2.384627647697925567626953125">
        <ele>827.4000244140625</ele>
        <time>2022-04-17T16:05:17.000Z</time>
      </trkpt>
      <trkpt lat="42.974430955946445465087890625" lon="-2.384638376533985137939453125">
        <ele>827.20001220703125</ele>
        <time>2022-04-17T16:05:18.000Z</time>
      </trkpt>
      <trkpt lat="42.97443238086998462677001953125" lon="-2.38463862799108028411865234375">
        <ele>827.20001220703125</ele>
        <time>2022-04-17T16:05:19.000Z</time>
      </trkpt>
      <trkpt lat="42.9744344763457775115966796875" lon="-2.38464139401912689208984375">
        <ele>827.20001220703125</ele>
        <time>2022-04-17T16:05:20.000Z</time>
      </trkpt>
      <trkpt lat="42.9744230769574642181396484375" lon="-2.38463762216269969940185546875">
        <ele>827</ele>
        <time>2022-04-17T16:05:21.000Z</time>
      </trkpt>
      <trkpt lat="42.9744146950542926788330078125" lon="-2.38463711924850940704345703125">
        <ele>827</ele>
        <time>2022-04-17T16:05:22.000Z</time>
      </trkpt>
      <trkpt lat="42.9744220711290836334228515625" lon="-2.384645082056522369384765625">
        <ele>826.79998779296875</ele>
        <time>2022-04-17T16:05:23.000Z</time>
      </trkpt>
      <trkpt lat="42.97443103976547718048095703125" lon="-2.3846549727022647857666015625">
        <ele>826.79998779296875</ele>
        <time>2022-04-17T16:05:24.000Z</time>
      </trkpt>
      <trkpt lat="42.9744317941367626190185546875" lon="-2.3846559785306453704833984375">
        <ele>826.79998779296875</ele>
        <time>2022-04-17T16:05:25.000Z</time>
      </trkpt>
      <trkpt lat="42.97443129122257232666015625" lon="-2.3846657015383243560791015625">
        <ele>826.79998779296875</ele>
        <time>2022-04-17T16:05:26.000Z</time>
      </trkpt>
      <trkpt lat="42.9744327999651432037353515625" lon="-2.3846824653446674346923828125">
        <ele>826.5999755859375</ele>
        <time>2022-04-17T16:05:27.000Z</time>
      </trkpt>
      <trkpt lat="42.97442852519452571868896484375" lon="-2.3846928589046001434326171875">
        <ele>826.5999755859375</ele>
        <time>2022-04-17T16:05:28.000Z</time>
      </trkpt>
      <trkpt lat="42.97442751936614513397216796875" lon="-2.3847035877406597137451171875">
        <ele>826.5999755859375</ele>
        <time>2022-04-17T16:05:29.000Z</time>
      </trkpt>
      <trkpt lat="42.97442668117582798004150390625" lon="-2.38471725024282932281494140625">
        <ele>826.5999755859375</ele>
        <time>2022-04-17T16:05:30.000Z</time>
      </trkpt>
      <trkpt lat="42.9744274355471134185791015625" lon="-2.3847361095249652862548828125">
        <ele>826.4000244140625</ele>
        <time>2022-04-17T16:05:31.000Z</time>
      </trkpt>
      <trkpt lat="42.9744317941367626190185546875" lon="-2.3847542144358158111572265625">
        <ele>826.4000244140625</ele>
        <time>2022-04-17T16:05:32.000Z</time>
      </trkpt>
      <trkpt lat="42.974438332021236419677734375" lon="-2.3847666196525096893310546875">
        <ele>826.4000244140625</ele>
        <time>2022-04-17T16:05:33.000Z</time>
      </trkpt>
      <trkpt lat="42.9744455404579639434814453125" lon="-2.3847801983356475830078125">
        <ele>826.20001220703125</ele>
        <time>2022-04-17T16:05:34.000Z</time>
      </trkpt>
      <trkpt lat="42.974452078342437744140625" lon="-2.38479134626686573028564453125">
        <ele>826.20001220703125</ele>
        <time>2022-04-17T16:05:35.000Z</time>
      </trkpt>
      <trkpt lat="42.97445333562791347503662109375" lon="-2.38480039872229099273681640625">
        <ele>826</ele>
        <time>2022-04-17T16:05:36.000Z</time>
      </trkpt>
      <trkpt lat="42.97445065341889858245849609375" lon="-2.38480492495000362396240234375">
        <ele>826</ele>
        <time>2022-04-17T16:05:37.000Z</time>
      </trkpt>
      <trkpt lat="42.97445031814277172088623046875" lon="-2.3848118819296360015869140625">
        <ele>825.79998779296875</ele>
        <time>2022-04-17T16:05:38.000Z</time>
      </trkpt>
      <trkpt lat="42.9744509048759937286376953125" lon="-2.3848232813179492950439453125">
        <ele>825.79998779296875</ele>
        <time>2022-04-17T16:05:39.000Z</time>
      </trkpt>
      <trkpt lat="42.974451072514057159423828125" lon="-2.38483853638172149658203125">
        <ele>825.5999755859375</ele>
        <time>2022-04-17T16:05:40.000Z</time>
      </trkpt>
      <trkpt lat="42.97444914467632770538330078125" lon="-2.38484951667487621307373046875">
        <ele>825.4000244140625</ele>
        <time>2022-04-17T16:05:41.000Z</time>
      </trkpt>
      <trkpt lat="42.9744468815624713897705078125" lon="-2.3848621733486652374267578125">
        <ele>825.20001220703125</ele>
        <time>2022-04-17T16:05:42.000Z</time>
      </trkpt>
      <trkpt lat="42.97444780357182025909423828125" lon="-2.3848742432892322540283203125">
        <ele>825.20001220703125</ele>
        <time>2022-04-17T16:05:43.000Z</time>
      </trkpt>
      <trkpt lat="42.97444947995245456695556640625" lon="-2.3848853074014186859130859375">
        <ele>825</ele>
        <time>2022-04-17T16:05:44.000Z</time>
      </trkpt>
      <trkpt lat="42.9744492284953594207763671875" lon="-2.38489964045584201812744140625">
        <ele>824.79998779296875</ele>
        <time>2022-04-17T16:05:45.000Z</time>
      </trkpt>
      <trkpt lat="42.9744482226669788360595703125" lon="-2.38491489551961421966552734375">
        <ele>824.79998779296875</ele>
        <time>2022-04-17T16:05:46.000Z</time>
      </trkpt>
      <trkpt lat="42.97444864176213741302490234375" lon="-2.38492445088922977447509765625">
        <ele>824.4000244140625</ele>
        <time>2022-04-17T16:05:47.000Z</time>
      </trkpt>
      <trkpt lat="42.97445031814277172088623046875" lon="-2.38492847420275211334228515625">
        <ele>824.4000244140625</ele>
        <time>2022-04-17T16:05:48.000Z</time>
      </trkpt>
      <trkpt lat="42.9744498990476131439208984375" lon="-2.384928055107593536376953125">
        <ele>824.20001220703125</ele>
        <time>2022-04-17T16:05:49.000Z</time>
      </trkpt>
      <trkpt lat="42.97444931231439113616943359375" lon="-2.38492570817470550537109375">
        <ele>824.20001220703125</ele>
        <time>2022-04-17T16:05:50.000Z</time>
      </trkpt>
      <trkpt lat="42.97444604337215423583984375" lon="-2.38492839038372039794921875">
        <ele>824.20001220703125</ele>
        <time>2022-04-17T16:05:51.000Z</time>
      </trkpt>
      <trkpt lat="42.9744415171444416046142578125" lon="-2.3849332518875598907470703125">
        <ele>824</ele>
        <time>2022-04-17T16:05:52.000Z</time>
      </trkpt>
      <trkpt lat="42.97444176860153675079345703125" lon="-2.38494255580008029937744140625">
        <ele>824</ele>
        <time>2022-04-17T16:05:53.000Z</time>
      </trkpt>
      <trkpt lat="42.97444428317248821258544921875" lon="-2.38495714031159877777099609375">
        <ele>824</ele>
        <time>2022-04-17T16:05:54.000Z</time>
      </trkpt>
      <trkpt lat="42.9744458757340908050537109375" lon="-2.38497708924114704132080078125">
        <ele>823.79998779296875</ele>
        <time>2022-04-17T16:05:55.000Z</time>
      </trkpt>
      <trkpt lat="42.97444696538150310516357421875" lon="-2.3850013129413127899169921875">
        <ele>823.79998779296875</ele>
        <time>2022-04-17T16:05:56.000Z</time>
      </trkpt>
      <trkpt lat="42.9744509048759937286376953125" lon="-2.3850334994494915008544921875">
        <ele>823.5999755859375</ele>
        <time>2022-04-17T16:05:57.000Z</time>
      </trkpt>
      <trkpt lat="42.9744512401521205902099609375" lon="-2.3850599862635135650634765625">
        <ele>823.4000244140625</ele>
        <time>2022-04-17T16:05:58.000Z</time>
      </trkpt>
      <trkpt lat="42.9744498990476131439208984375" lon="-2.38508169539272785186767578125">
        <ele>823.20001220703125</ele>
        <time>2022-04-17T16:05:59.000Z</time>
      </trkpt>
      <trkpt lat="42.9744519107043743133544921875" lon="-2.3851032368838787078857421875">
        <ele>823</ele>
        <time>2022-04-17T16:06:00.000Z</time>
      </trkpt>
      <trkpt lat="42.97445501200854778289794921875" lon="-2.38512796349823474884033203125">
        <ele>823</ele>
        <time>2022-04-17T16:06:01.000Z</time>
      </trkpt>
      <trkpt lat="42.9744596220552921295166015625" lon="-2.3851417936384677886962890625">
        <ele>822.79998779296875</ele>
        <time>2022-04-17T16:06:02.000Z</time>
      </trkpt>
      <trkpt lat="42.97446322627365589141845703125" lon="-2.38514556549489498138427734375">
        <ele>822.4000244140625</ele>
        <time>2022-04-17T16:06:03.000Z</time>
      </trkpt>
      <trkpt lat="42.97446481883525848388671875" lon="-2.38515009172260761260986328125">
        <ele>822.4000244140625</ele>
        <time>2022-04-17T16:06:04.000Z</time>
      </trkpt>
      <trkpt lat="42.97446724958717823028564453125" lon="-2.38515998236835002899169921875">
        <ele>822.20001220703125</ele>
        <time>2022-04-17T16:06:05.000Z</time>
      </trkpt>
      <trkpt lat="42.974469847977161407470703125" lon="-2.38517657853662967681884765625">
        <ele>822.20001220703125</ele>
        <time>2022-04-17T16:06:06.000Z</time>
      </trkpt>
      <trkpt lat="42.97447211109101772308349609375" lon="-2.3851907439529895782470703125">
        <ele>822.20001220703125</ele>
        <time>2022-04-17T16:06:07.000Z</time>
      </trkpt>
      <trkpt lat="42.9744753800332546234130859375" lon="-2.3852058313786983489990234375">
        <ele>822</ele>
        <time>2022-04-17T16:06:08.000Z</time>
      </trkpt>
      <trkpt lat="42.97447714023292064666748046875" lon="-2.3852192424237728118896484375">
        <ele>821.79998779296875</ele>
        <time>2022-04-17T16:06:09.000Z</time>
      </trkpt>
      <trkpt lat="42.9744740389287471771240234375" lon="-2.38523676060140132904052734375">
        <ele>821.79998779296875</ele>
        <time>2022-04-17T16:06:10.000Z</time>
      </trkpt>
      <trkpt lat="42.974474541842937469482421875" lon="-2.3852477408945560455322265625">
        <ele>821.5999755859375</ele>
        <time>2022-04-17T16:06:11.000Z</time>
      </trkpt>
      <trkpt lat="42.9744777269661426544189453125" lon="-2.38526375032961368560791015625">
        <ele>821.5999755859375</ele>
        <time>2022-04-17T16:06:12.000Z</time>
      </trkpt>
      <trkpt lat="42.97447965480387210845947265625" lon="-2.38527783192694187164306640625">
        <ele>821.4000244140625</ele>
        <time>2022-04-17T16:06:13.000Z</time>
      </trkpt>
      <trkpt lat="42.97447646968066692352294921875" lon="-2.3852898180484771728515625">
        <ele>821.20001220703125</ele>
        <time>2022-04-17T16:06:14.000Z</time>
      </trkpt>
      <trkpt lat="42.97448066063225269317626953125" lon="-2.38530213944613933563232421875">
        <ele>821</ele>
        <time>2022-04-17T16:06:15.000Z</time>
      </trkpt>
      <trkpt lat="42.9744820855557918548583984375" lon="-2.38531538285315036773681640625">
        <ele>820.79998779296875</ele>
        <time>2022-04-17T16:06:16.000Z</time>
      </trkpt>
      <trkpt lat="42.9744760505855083465576171875" lon="-2.38532812334597110748291015625">
        <ele>820.5999755859375</ele>
        <time>2022-04-17T16:06:17.000Z</time>
      </trkpt>
      <trkpt lat="42.97447697259485721588134765625" lon="-2.38533340394496917724609375">
        <ele>820.5999755859375</ele>
        <time>2022-04-17T16:06:18.000Z</time>
      </trkpt>
      <trkpt lat="42.974478565156459808349609375" lon="-2.38534279167652130126953125">
        <ele>820.4000244140625</ele>
        <time>2022-04-17T16:06:19.000Z</time>
      </trkpt>
      <trkpt lat="42.974485270678997039794921875" lon="-2.3853523470461368560791015625">
        <ele>820.4000244140625</ele>
        <time>2022-04-17T16:06:20.000Z</time>
      </trkpt>
      <trkpt lat="42.97447982244193553924560546875" lon="-2.38535393960773944854736328125">
        <ele>820.20001220703125</ele>
        <time>2022-04-17T16:06:21.000Z</time>
      </trkpt>
      <trkpt lat="42.97448501922190189361572265625" lon="-2.3853620700538158416748046875">
        <ele>820</ele>
        <time>2022-04-17T16:06:22.000Z</time>
      </trkpt>
      <trkpt lat="42.97448988072574138641357421875" lon="-2.38536232151091098785400390625">
        <ele>819.79998779296875</ele>
        <time>2022-04-17T16:06:23.000Z</time>
      </trkpt>
      <trkpt lat="42.97449440695345401763916015625" lon="-2.3853595554828643798828125">
        <ele>819.79998779296875</ele>
        <time>2022-04-17T16:06:24.000Z</time>
      </trkpt>
      <trkpt lat="42.97449893318116664886474609375" lon="-2.38535863347351551055908203125">
        <ele>819.5999755859375</ele>
        <time>2022-04-17T16:06:25.000Z</time>
      </trkpt>
      <trkpt lat="42.9745045490562915802001953125" lon="-2.38535829819738864898681640625">
        <ele>819.4000244140625</ele>
        <time>2022-04-17T16:06:26.000Z</time>
      </trkpt>
      <trkpt lat="42.97451167367398738861083984375" lon="-2.38535947166383266448974609375">
        <ele>819.4000244140625</ele>
        <time>2022-04-17T16:06:27.000Z</time>
      </trkpt>
      <trkpt lat="42.97451687045395374298095703125" lon="-2.38536768592894077301025390625">
        <ele>819.20001220703125</ele>
        <time>2022-04-17T16:06:28.000Z</time>
      </trkpt>
      <trkpt lat="42.9745186306536197662353515625" lon="-2.3853795044124126434326171875">
        <ele>819</ele>
        <time>2022-04-17T16:06:29.000Z</time>
      </trkpt>
      <trkpt lat="42.9745250009000301361083984375" lon="-2.38538838922977447509765625">
        <ele>819</ele>
        <time>2022-04-17T16:06:30.000Z</time>
      </trkpt>
      <trkpt lat="42.97453363426029682159423828125" lon="-2.38539769314229488372802734375">
        <ele>818.5999755859375</ele>
        <time>2022-04-17T16:06:31.000Z</time>
      </trkpt>
      <trkpt lat="42.97454570420086383819580078125" lon="-2.38541546277701854705810546875">
        <ele>818.20001220703125</ele>
        <time>2022-04-17T16:06:32.000Z</time>
      </trkpt>
      <trkpt lat="42.9745588637888431549072265625" lon="-2.38542937673628330230712890625">
        <ele>818</ele>
        <time>2022-04-17T16:06:33.000Z</time>
      </trkpt>
      <trkpt lat="42.97456934116780757904052734375" lon="-2.38544396124780178070068359375">
        <ele>817.79998779296875</ele>
        <time>2022-04-17T16:06:34.000Z</time>
      </trkpt>
      <trkpt lat="42.97457956708967685699462890625" lon="-2.38545544445514678955078125">
        <ele>817.79998779296875</ele>
        <time>2022-04-17T16:06:35.000Z</time>
      </trkpt>
      <trkpt lat="42.9745856858789920806884765625" lon="-2.385466508567333221435546875">
        <ele>817.5999755859375</ele>
        <time>2022-04-17T16:06:36.000Z</time>
      </trkpt>
      <trkpt lat="42.9745900444686412811279296875" lon="-2.3854824341833591461181640625">
        <ele>817.5999755859375</ele>
        <time>2022-04-17T16:06:37.000Z</time>
      </trkpt>
      <trkpt lat="42.97459029592573642730712890625" lon="-2.3854961805045604705810546875">
        <ele>817.5999755859375</ele>
        <time>2022-04-17T16:06:38.000Z</time>
      </trkpt>
      <trkpt lat="42.9745917208492755889892578125" lon="-2.38550414331257343292236328125">
        <ele>817.4000244140625</ele>
        <time>2022-04-17T16:06:39.000Z</time>
      </trkpt>
      <trkpt lat="42.97459515742957592010498046875" lon="-2.3855097591876983642578125">
        <ele>817.20001220703125</ele>
        <time>2022-04-17T16:06:40.000Z</time>
      </trkpt>
      <trkpt lat="42.97459549270570278167724609375" lon="-2.38551436923444271087646484375">
        <ele>817.20001220703125</ele>
        <time>2022-04-17T16:06:41.000Z</time>
      </trkpt>
      <trkpt lat="42.9745990969240665435791015625" lon="-2.3855245113372802734375">
        <ele>817</ele>
        <time>2022-04-17T16:06:42.000Z</time>
      </trkpt>
      <trkpt lat="42.97460303641855716705322265625" lon="-2.3855357430875301361083984375">
        <ele>816.79998779296875</ele>
        <time>2022-04-17T16:06:43.000Z</time>
      </trkpt>
      <trkpt lat="42.974606640636920928955078125" lon="-2.38554395735263824462890625">
        <ele>816.79998779296875</ele>
        <time>2022-04-17T16:06:44.000Z</time>
      </trkpt>
      <trkpt lat="42.97461175359785556793212890625" lon="-2.3855458013713359832763671875">
        <ele>816.5999755859375</ele>
        <time>2022-04-17T16:06:45.000Z</time>
      </trkpt>
      <trkpt lat="42.97461695037782192230224609375" lon="-2.38555426709353923797607421875">
        <ele>816.5999755859375</ele>
        <time>2022-04-17T16:06:46.000Z</time>
      </trkpt>
      <trkpt lat="42.97462063841521739959716796875" lon="-2.38556046970188617706298828125">
        <ele>816.5999755859375</ele>
        <time>2022-04-17T16:06:47.000Z</time>
      </trkpt>
      <trkpt lat="42.97462985850870609283447265625" lon="-2.38557354547083377838134765625">
        <ele>816.20001220703125</ele>
        <time>2022-04-17T16:06:48.000Z</time>
      </trkpt>
      <trkpt lat="42.974642850458621978759765625" lon="-2.38558812998235225677490234375">
        <ele>816</ele>
        <time>2022-04-17T16:06:49.000Z</time>
      </trkpt>
      <trkpt lat="42.974650226533412933349609375" lon="-2.3856063187122344970703125">
        <ele>815.79998779296875</ele>
        <time>2022-04-17T16:06:50.000Z</time>
      </trkpt>
      <trkpt lat="42.97465232200920581817626953125" lon="-2.385615371167659759521484375">
        <ele>815.5999755859375</ele>
        <time>2022-04-17T16:06:51.000Z</time>
      </trkpt>
      <trkpt lat="42.97465466894209384918212890625" lon="-2.38562853075563907623291015625">
        <ele>815.5999755859375</ele>
        <time>2022-04-17T16:06:52.000Z</time>
      </trkpt>
      <trkpt lat="42.974658943712711334228515625" lon="-2.38564026542007923126220703125">
        <ele>815.4000244140625</ele>
        <time>2022-04-17T16:06:53.000Z</time>
      </trkpt>
      <trkpt lat="42.97466590069234371185302734375" lon="-2.3856497369706630706787109375">
        <ele>815.4000244140625</ele>
        <time>2022-04-17T16:06:54.000Z</time>
      </trkpt>
      <trkpt lat="42.974672019481658935546875" lon="-2.3856577835977077484130859375">
        <ele>815.20001220703125</ele>
        <time>2022-04-17T16:06:55.000Z</time>
      </trkpt>
      <trkpt lat="42.97467931173741817474365234375" lon="-2.385669015347957611083984375">
        <ele>815</ele>
        <time>2022-04-17T16:06:56.000Z</time>
      </trkpt>
      <trkpt lat="42.9746839217841625213623046875" lon="-2.3856822587549686431884765625">
        <ele>814.79998779296875</ele>
        <time>2022-04-17T16:06:57.000Z</time>
      </trkpt>
      <trkpt lat="42.97468610107898712158203125" lon="-2.385697849094867706298828125">
        <ele>814.5999755859375</ele>
        <time>2022-04-17T16:06:58.000Z</time>
      </trkpt>
      <trkpt lat="42.97468434087932109832763671875" lon="-2.38570698536932468414306640625">
        <ele>814.4000244140625</ele>
        <time>2022-04-17T16:06:59.000Z</time>
      </trkpt>
      <trkpt lat="42.97468534670770168304443359375" lon="-2.3857177980244159698486328125">
        <ele>814.20001220703125</ele>
        <time>2022-04-17T16:07:00.000Z</time>
      </trkpt>
      <trkpt lat="42.97469071112573146820068359375" lon="-2.38572760485112667083740234375">
        <ele>814.20001220703125</ele>
        <time>2022-04-17T16:07:01.000Z</time>
      </trkpt>
      <trkpt lat="42.9746939800679683685302734375" lon="-2.38573783077299594879150390625">
        <ele>813.79998779296875</ele>
        <time>2022-04-17T16:07:02.000Z</time>
      </trkpt>
      <trkpt lat="42.9746963270008563995361328125" lon="-2.3857416026294231414794921875">
        <ele>813.5999755859375</ele>
        <time>2022-04-17T16:07:03.000Z</time>
      </trkpt>
      <trkpt lat="42.97469808720052242279052734375" lon="-2.38574369810521602630615234375">
        <ele>813.5999755859375</ele>
        <time>2022-04-17T16:07:04.000Z</time>
      </trkpt>
      <trkpt lat="42.97470244579017162322998046875" lon="-2.3857540078461170196533203125">
        <ele>813.4000244140625</ele>
        <time>2022-04-17T16:07:05.000Z</time>
      </trkpt>
      <trkpt lat="42.97470965422689914703369140625" lon="-2.38576389849185943603515625">
        <ele>813.4000244140625</ele>
        <time>2022-04-17T16:07:06.000Z</time>
      </trkpt>
      <trkpt lat="42.97471694648265838623046875" lon="-2.38577303476631641387939453125">
        <ele>813.4000244140625</ele>
        <time>2022-04-17T16:07:07.000Z</time>
      </trkpt>
      <trkpt lat="42.974724657833576202392578125" lon="-2.38578426651656627655029296875">
        <ele>813.20001220703125</ele>
        <time>2022-04-17T16:07:08.000Z</time>
      </trkpt>
      <trkpt lat="42.97472792677581310272216796875" lon="-2.385797761380672454833984375">
        <ele>813</ele>
        <time>2022-04-17T16:07:09.000Z</time>
      </trkpt>
      <trkpt lat="42.974730022251605987548828125" lon="-2.3858076520264148712158203125">
        <ele>813</ele>
        <time>2022-04-17T16:07:10.000Z</time>
      </trkpt>
      <trkpt lat="42.97473446466028690338134765625" lon="-2.3858120106160640716552734375">
        <ele>812.79998779296875</ele>
        <time>2022-04-17T16:07:11.000Z</time>
      </trkpt>
      <trkpt lat="42.97473907470703125" lon="-2.38581611774861812591552734375">
        <ele>812.5999755859375</ele>
        <time>2022-04-17T16:07:12.000Z</time>
      </trkpt>
      <trkpt lat="42.9747429303824901580810546875" lon="-2.38582768477499485015869140625">
        <ele>812.5999755859375</ele>
        <time>2022-04-17T16:07:13.000Z</time>
      </trkpt>
      <trkpt lat="42.97474913299083709716796875" lon="-2.385842017829418182373046875">
        <ele>812.4000244140625</ele>
        <time>2022-04-17T16:07:14.000Z</time>
      </trkpt>
      <trkpt lat="42.97475491650402545928955078125" lon="-2.3858530819416046142578125">
        <ele>812.20001220703125</ele>
        <time>2022-04-17T16:07:15.000Z</time>
      </trkpt>
      <trkpt lat="42.97476145438849925994873046875" lon="-2.3858663253486156463623046875">
        <ele>812</ele>
        <time>2022-04-17T16:07:16.000Z</time>
      </trkpt>
      <trkpt lat="42.9747694171965122222900390625" lon="-2.38588736392557621002197265625">
        <ele>811.79998779296875</ele>
        <time>2022-04-17T16:07:17.000Z</time>
      </trkpt>
      <trkpt lat="42.9747811518609523773193359375" lon="-2.38589826039969921112060546875">
        <ele>811.5999755859375</ele>
        <time>2022-04-17T16:07:18.000Z</time>
      </trkpt>
      <trkpt lat="42.97479179687798023223876953125" lon="-2.3859089054167270660400390625">
        <ele>811.5999755859375</ele>
        <time>2022-04-17T16:07:19.000Z</time>
      </trkpt>
      <trkpt lat="42.9748019389808177947998046875" lon="-2.38593027926981449127197265625">
        <ele>811.4000244140625</ele>
        <time>2022-04-17T16:07:20.000Z</time>
      </trkpt>
      <trkpt lat="42.97480219043791294097900390625" lon="-2.38595576025545597076416015625">
        <ele>811</ele>
        <time>2022-04-17T16:07:21.000Z</time>
      </trkpt>
      <trkpt lat="42.9748096503317356109619140625" lon="-2.38596632145345211029052734375">
        <ele>811</ele>
        <time>2022-04-17T16:07:22.000Z</time>
      </trkpt>
      <trkpt lat="42.97481275163590908050537109375" lon="-2.38597839139401912689208984375">
        <ele>810.79998779296875</ele>
        <time>2022-04-17T16:07:23.000Z</time>
      </trkpt>
      <trkpt lat="42.97482230700552463531494140625" lon="-2.3859856836497783660888671875">
        <ele>810.79998779296875</ele>
        <time>2022-04-17T16:07:24.000Z</time>
      </trkpt>
      <trkpt lat="42.97482850961387157440185546875" lon="-2.385993897914886474609375">
        <ele>810.5999755859375</ele>
        <time>2022-04-17T16:07:25.000Z</time>
      </trkpt>
      <trkpt lat="42.974832952022552490234375" lon="-2.38599750213325023651123046875">
        <ele>810.4000244140625</ele>
        <time>2022-04-17T16:07:26.000Z</time>
      </trkpt>
      <trkpt lat="42.97484024427831172943115234375" lon="-2.38601493649184703826904296875">
        <ele>810.20001220703125</ele>
        <time>2022-04-17T16:07:27.000Z</time>
      </trkpt>
      <trkpt lat="42.9748415015637874603271484375" lon="-2.3860228992998600006103515625">
        <ele>810.20001220703125</ele>
        <time>2022-04-17T16:07:28.000Z</time>
      </trkpt>
      <trkpt lat="42.9748435132205486297607421875" lon="-2.3860326223075389862060546875">
        <ele>810</ele>
        <time>2022-04-17T16:07:29.000Z</time>
      </trkpt>
      <trkpt lat="42.9748492129147052764892578125" lon="-2.3860396631062030792236328125">
        <ele>809.79998779296875</ele>
        <time>2022-04-17T16:07:30.000Z</time>
      </trkpt>
      <trkpt lat="42.97485516406595706939697265625" lon="-2.3860443569719791412353515625">
        <ele>809.5999755859375</ele>
        <time>2022-04-17T16:07:31.000Z</time>
      </trkpt>
      <trkpt lat="42.97486312687397003173828125" lon="-2.3860483802855014801025390625">
        <ele>809.4000244140625</ele>
        <time>2022-04-17T16:07:32.000Z</time>
      </trkpt>
      <trkpt lat="42.974870167672634124755859375" lon="-2.38604930229485034942626953125">
        <ele>809.4000244140625</ele>
        <time>2022-04-17T16:07:33.000Z</time>
      </trkpt>
      <trkpt lat="42.9748746939003467559814453125" lon="-2.38605181686580181121826171875">
        <ele>809.20001220703125</ele>
        <time>2022-04-17T16:07:34.000Z</time>
      </trkpt>
      <trkpt lat="42.97488265670835971832275390625" lon="-2.38605885766446590423583984375">
        <ele>809.20001220703125</ele>
        <time>2022-04-17T16:07:35.000Z</time>
      </trkpt>
      <trkpt lat="42.974889278411865234375" lon="-2.38607075996696949005126953125">
        <ele>809</ele>
        <time>2022-04-17T16:07:36.000Z</time>
      </trkpt>
      <trkpt lat="42.9748924635350704193115234375" lon="-2.3860809020698070526123046875">
        <ele>809</ele>
        <time>2022-04-17T16:07:37.000Z</time>
      </trkpt>
      <trkpt lat="42.97489472664892673492431640625" lon="-2.38609381020069122314453125">
        <ele>808.79998779296875</ele>
        <time>2022-04-17T16:07:38.000Z</time>
      </trkpt>
      <trkpt lat="42.97489673830568790435791015625" lon="-2.38610411994159221649169921875">
        <ele>808.5999755859375</ele>
        <time>2022-04-17T16:07:39.000Z</time>
      </trkpt>
      <trkpt lat="42.9748986661434173583984375" lon="-2.3861130885779857635498046875">
        <ele>808.5999755859375</ele>
        <time>2022-04-17T16:07:40.000Z</time>
      </trkpt>
      <trkpt lat="42.974902354180812835693359375" lon="-2.38612465560436248779296875">
        <ele>808.4000244140625</ele>
        <time>2022-04-17T16:07:41.000Z</time>
      </trkpt>
      <trkpt lat="42.97490545548498630523681640625" lon="-2.386134378612041473388671875">
        <ele>808.4000244140625</ele>
        <time>2022-04-17T16:07:42.000Z</time>
      </trkpt>
      <trkpt lat="42.97490537166595458984375" lon="-2.38613747991621494293212890625">
        <ele>808.20001220703125</ele>
        <time>2022-04-17T16:07:43.000Z</time>
      </trkpt>
      <trkpt lat="42.97490629367530345916748046875" lon="-2.386135719716548919677734375">
        <ele>808</ele>
        <time>2022-04-17T16:07:44.000Z</time>
      </trkpt>
      <trkpt lat="42.974913418292999267578125" lon="-2.3861399106681346893310546875">
        <ele>808</ele>
        <time>2022-04-17T16:07:45.000Z</time>
      </trkpt>
      <trkpt lat="42.9749233089387416839599609375" lon="-2.38615089096128940582275390625">
        <ele>808</ele>
        <time>2022-04-17T16:07:46.000Z</time>
      </trkpt>
      <trkpt lat="42.97492389567196369171142578125" lon="-2.38616145215928554534912109375">
        <ele>807.79998779296875</ele>
        <time>2022-04-17T16:07:47.000Z</time>
      </trkpt>
      <trkpt lat="42.97492708079516887664794921875" lon="-2.3861707560718059539794921875">
        <ele>807.5999755859375</ele>
        <time>2022-04-17T16:07:48.000Z</time>
      </trkpt>
      <trkpt lat="42.97493529506027698516845703125" lon="-2.38618056289851665496826171875">
        <ele>807.4000244140625</ele>
        <time>2022-04-17T16:07:49.000Z</time>
      </trkpt>
      <trkpt lat="42.97494200058281421661376953125" lon="-2.38619179464876651763916015625">
        <ele>807.20001220703125</ele>
        <time>2022-04-17T16:07:50.000Z</time>
      </trkpt>
      <trkpt lat="42.974945269525051116943359375" lon="-2.3862036131322383880615234375">
        <ele>807.20001220703125</ele>
        <time>2022-04-17T16:07:51.000Z</time>
      </trkpt>
      <trkpt lat="42.97494920901954174041748046875" lon="-2.38621677272021770477294921875">
        <ele>807</ele>
        <time>2022-04-17T16:07:52.000Z</time>
      </trkpt>
      <trkpt lat="42.97495432198047637939453125" lon="-2.38622532226145267486572265625">
        <ele>807</ele>
        <time>2022-04-17T16:07:53.000Z</time>
      </trkpt>
      <trkpt lat="42.97495557926595211029052734375" lon="-2.3862393200397491455078125">
        <ele>806.79998779296875</ele>
        <time>2022-04-17T16:07:54.000Z</time>
      </trkpt>
      <trkpt lat="42.97495457343757152557373046875" lon="-2.38624962978065013885498046875">
        <ele>806.79998779296875</ele>
        <time>2022-04-17T16:07:55.000Z</time>
      </trkpt>
      <trkpt lat="42.97495507635176181793212890625" lon="-2.3862634599208831787109375">
        <ele>806.79998779296875</ele>
        <time>2022-04-17T16:07:56.000Z</time>
      </trkpt>
      <trkpt lat="42.97496060840785503387451171875" lon="-2.38627846352756023406982421875">
        <ele>806.5999755859375</ele>
        <time>2022-04-17T16:07:57.000Z</time>
      </trkpt>
      <trkpt lat="42.97497184015810489654541015625" lon="-2.38628852181136608123779296875">
        <ele>806.4000244140625</ele>
        <time>2022-04-17T16:07:58.000Z</time>
      </trkpt>
      <trkpt lat="42.974982820451259613037109375" lon="-2.3862941376864910125732421875">
        <ele>806.20001220703125</ele>
        <time>2022-04-17T16:07:59.000Z</time>
      </trkpt>
      <trkpt lat="42.97499195672571659088134765625" lon="-2.386297322809696197509765625">
        <ele>806</ele>
        <time>2022-04-17T16:08:00.000Z</time>
      </trkpt>
      <trkpt lat="42.97500033862888813018798828125" lon="-2.38630545325577259063720703125">
        <ele>806</ele>
        <time>2022-04-17T16:08:01.000Z</time>
      </trkpt>
      <trkpt lat="42.97500872053205966949462890625" lon="-2.386310063302516937255859375">
        <ele>805.5999755859375</ele>
        <time>2022-04-17T16:08:02.000Z</time>
      </trkpt>
      <trkpt lat="42.9750218801200389862060546875" lon="-2.38631634972989559173583984375">
        <ele>805.4000244140625</ele>
        <time>2022-04-17T16:08:03.000Z</time>
      </trkpt>
      <trkpt lat="42.97503218986093997955322265625" lon="-2.38632942549884319305419921875">
        <ele>805.4000244140625</ele>
        <time>2022-04-17T16:08:04.000Z</time>
      </trkpt>
      <trkpt lat="42.975039146840572357177734375" lon="-2.386342585086822509765625">
        <ele>805.20001220703125</ele>
        <time>2022-04-17T16:08:05.000Z</time>
      </trkpt>
      <trkpt lat="42.97504660673439502716064453125" lon="-2.38635490648448467254638671875">
        <ele>805.20001220703125</ele>
        <time>2022-04-17T16:08:06.000Z</time>
      </trkpt>
      <trkpt lat="42.97505230642855167388916015625" lon="-2.38636697642505168914794921875">
        <ele>805</ele>
        <time>2022-04-17T16:08:07.000Z</time>
      </trkpt>
      <trkpt lat="42.9750574193894863128662109375" lon="-2.3863789625465869903564453125">
        <ele>804.79998779296875</ele>
        <time>2022-04-17T16:08:08.000Z</time>
      </trkpt>
      <trkpt lat="42.97506303526461124420166015625" lon="-2.3863913677632808685302734375">
        <ele>804.5999755859375</ele>
        <time>2022-04-17T16:08:09.000Z</time>
      </trkpt>
      <trkpt lat="42.97506890259683132171630859375" lon="-2.38640251569449901580810546875">
        <ele>804.4000244140625</ele>
        <time>2022-04-17T16:08:10.000Z</time>
      </trkpt>
      <trkpt lat="42.9750756919384002685546875" lon="-2.3864151723682880401611328125">
        <ele>804.20001220703125</ele>
        <time>2022-04-17T16:08:11.000Z</time>
      </trkpt>
      <trkpt lat="42.97508248127996921539306640625" lon="-2.38642967306077480316162109375">
        <ele>804</ele>
        <time>2022-04-17T16:08:12.000Z</time>
      </trkpt>
      <trkpt lat="42.975088767707347869873046875" lon="-2.38644073717296123504638671875">
        <ele>804</ele>
        <time>2022-04-17T16:08:13.000Z</time>
      </trkpt>
      <trkpt lat="42.97509421594440937042236328125" lon="-2.38645255565643310546875">
        <ele>803.79998779296875</ele>
        <time>2022-04-17T16:08:14.000Z</time>
      </trkpt>
      <trkpt lat="42.9750999994575977325439453125" lon="-2.38646102137863636016845703125">
        <ele>803.79998779296875</ele>
        <time>2022-04-17T16:08:15.000Z</time>
      </trkpt>
      <trkpt lat="42.9751083813607692718505859375" lon="-2.38647024147212505340576171875">
        <ele>803.5999755859375</ele>
        <time>2022-04-17T16:08:16.000Z</time>
      </trkpt>
      <trkpt lat="42.975117266178131103515625" lon="-2.38648214377462863922119140625">
        <ele>803.5999755859375</ele>
        <time>2022-04-17T16:08:17.000Z</time>
      </trkpt>
      <trkpt lat="42.97512531280517578125" lon="-2.386493794620037078857421875">
        <ele>803.4000244140625</ele>
        <time>2022-04-17T16:08:18.000Z</time>
      </trkpt>
      <trkpt lat="42.975129000842571258544921875" lon="-2.38650762476027011871337890625">
        <ele>803.4000244140625</ele>
        <time>2022-04-17T16:08:19.000Z</time>
      </trkpt>
      <trkpt lat="42.97513327561318874359130859375" lon="-2.38652338273823261260986328125">
        <ele>803.20001220703125</ele>
        <time>2022-04-17T16:08:20.000Z</time>
      </trkpt>
      <trkpt lat="42.97513780184090137481689453125" lon="-2.38653847016394138336181640625">
        <ele>803.20001220703125</ele>
        <time>2022-04-17T16:08:21.000Z</time>
      </trkpt>
      <trkpt lat="42.9751402325928211212158203125" lon="-2.38655523397028446197509765625">
        <ele>803</ele>
        <time>2022-04-17T16:08:22.000Z</time>
      </trkpt>
      <trkpt lat="42.975137047469615936279296875" lon="-2.3865730874240398406982421875">
        <ele>802.79998779296875</ele>
        <time>2022-04-17T16:08:23.000Z</time>
      </trkpt>
      <trkpt lat="42.975133694708347320556640625" lon="-2.3865885101258754730224609375">
        <ele>802.79998779296875</ele>
        <time>2022-04-17T16:08:24.000Z</time>
      </trkpt>
      <trkpt lat="42.9751338623464107513427734375" lon="-2.38659546710550785064697265625">
        <ele>802.5999755859375</ele>
        <time>2022-04-17T16:08:25.000Z</time>
      </trkpt>
      <trkpt lat="42.9751338623464107513427734375" lon="-2.386597730219364166259765625">
        <ele>802.4000244140625</ele>
        <time>2022-04-17T16:08:26.000Z</time>
      </trkpt>
      <trkpt lat="42.9751373827457427978515625" lon="-2.386600077152252197265625">
        <ele>802.20001220703125</ele>
        <time>2022-04-17T16:08:27.000Z</time>
      </trkpt>
      <trkpt lat="42.97513847239315509796142578125" lon="-2.3866148293018341064453125">
        <ele>802.20001220703125</ele>
        <time>2022-04-17T16:08:28.000Z</time>
      </trkpt>
      <trkpt lat="42.9751392267644405364990234375" lon="-2.38662966527044773101806640625">
        <ele>802</ele>
        <time>2022-04-17T16:08:29.000Z</time>
      </trkpt>
      <trkpt lat="42.97514601610600948333740234375" lon="-2.3866388015449047088623046875">
        <ele>802</ele>
        <time>2022-04-17T16:08:30.000Z</time>
      </trkpt>
      <trkpt lat="42.97514735721051692962646484375" lon="-2.3866559006273746490478515625">
        <ele>801.79998779296875</ele>
        <time>2022-04-17T16:08:31.000Z</time>
      </trkpt>
      <trkpt lat="42.97515288926661014556884765625" lon="-2.386678196489810943603515625">
        <ele>801.5999755859375</ele>
        <time>2022-04-17T16:08:32.000Z</time>
      </trkpt>
      <trkpt lat="42.9751620255410671234130859375" lon="-2.3866968043148517608642578125">
        <ele>801.4000244140625</ele>
        <time>2022-04-17T16:08:33.000Z</time>
      </trkpt>
      <trkpt lat="42.9751754365861415863037109375" lon="-2.386712729930877685546875">
        <ele>801.20001220703125</ele>
        <time>2022-04-17T16:08:34.000Z</time>
      </trkpt>
      <trkpt lat="42.975180633366107940673828125" lon="-2.38672681152820587158203125">
        <ele>801</ele>
        <time>2022-04-17T16:08:35.000Z</time>
      </trkpt>
      <trkpt lat="42.97518356703221797943115234375" lon="-2.386744581162929534912109375">
        <ele>800.79998779296875</ele>
        <time>2022-04-17T16:08:36.000Z</time>
      </trkpt>
      <trkpt lat="42.975187338888645172119140625" lon="-2.38675606437027454376220703125">
        <ele>800.5999755859375</ele>
        <time>2022-04-17T16:08:37.000Z</time>
      </trkpt>
      <trkpt lat="42.9751908592879772186279296875" lon="-2.38676411099731922149658203125">
        <ele>800.5999755859375</ele>
        <time>2022-04-17T16:08:38.000Z</time>
      </trkpt>
      <trkpt lat="42.9751968942582607269287109375" lon="-2.38677936606109142303466796875">
        <ele>800.4000244140625</ele>
        <time>2022-04-17T16:08:39.000Z</time>
      </trkpt>
      <trkpt lat="42.9751990735530853271484375" lon="-2.38679076544940471649169921875">
        <ele>800.20001220703125</ele>
        <time>2022-04-17T16:08:40.000Z</time>
      </trkpt>
      <trkpt lat="42.97519999556243419647216796875" lon="-2.3867990635335445404052734375">
        <ele>800.20001220703125</ele>
        <time>2022-04-17T16:08:41.000Z</time>
      </trkpt>
      <trkpt lat="42.975200079381465911865234375" lon="-2.3868094570934772491455078125">
        <ele>800</ele>
        <time>2022-04-17T16:08:42.000Z</time>
      </trkpt>
      <trkpt lat="42.9752022586762905120849609375" lon="-2.38682379014790058135986328125">
        <ele>799.79998779296875</ele>
        <time>2022-04-17T16:08:43.000Z</time>
      </trkpt>
      <trkpt lat="42.97520603053271770477294921875" lon="-2.3868376202881336212158203125">
        <ele>799.5999755859375</ele>
        <time>2022-04-17T16:08:44.000Z</time>
      </trkpt>
      <trkpt lat="42.9752086289227008819580078125" lon="-2.3868543840944766998291015625">
        <ele>799.4000244140625</ele>
        <time>2022-04-17T16:08:45.000Z</time>
      </trkpt>
      <trkpt lat="42.9752092994749546051025390625" lon="-2.38686989061534404754638671875">
        <ele>799.4000244140625</ele>
        <time>2022-04-17T16:08:46.000Z</time>
      </trkpt>
      <trkpt lat="42.9752109758555889129638671875" lon="-2.38688372075557708740234375">
        <ele>799.20001220703125</ele>
        <time>2022-04-17T16:08:47.000Z</time>
      </trkpt>
      <trkpt lat="42.975213490426540374755859375" lon="-2.38690107129514217376708984375">
        <ele>799</ele>
        <time>2022-04-17T16:08:48.000Z</time>
      </trkpt>
      <trkpt lat="42.9752210341393947601318359375" lon="-2.38692269660532474517822265625">
        <ele>798.79998779296875</ele>
        <time>2022-04-17T16:08:49.000Z</time>
      </trkpt>
      <trkpt lat="42.97521977685391902923583984375" lon="-2.38692990504205226898193359375">
        <ele>798.5999755859375</ele>
        <time>2022-04-17T16:08:50.000Z</time>
      </trkpt>
      <trkpt lat="42.97521650791168212890625" lon="-2.386937700212001800537109375">
        <ele>798.4000244140625</ele>
        <time>2022-04-17T16:08:51.000Z</time>
      </trkpt>
      <trkpt lat="42.97521759755909442901611328125" lon="-2.38694650121033191680908203125">
        <ele>798.4000244140625</ele>
        <time>2022-04-17T16:08:52.000Z</time>
      </trkpt>
      <trkpt lat="42.97522497363388538360595703125" lon="-2.38695823587477207183837890625">
        <ele>798.4000244140625</ele>
        <time>2022-04-17T16:08:53.000Z</time>
      </trkpt>
      <trkpt lat="42.9752270691096782684326171875" lon="-2.38697223365306854248046875">
        <ele>798.20001220703125</ele>
        <time>2022-04-17T16:08:54.000Z</time>
      </trkpt>
      <trkpt lat="42.97523461282253265380859375" lon="-2.38698296248912811279296875">
        <ele>798.20001220703125</ele>
        <time>2022-04-17T16:08:55.000Z</time>
      </trkpt>
      <trkpt lat="42.97524643130600452423095703125" lon="-2.38699763081967830657958984375">
        <ele>798.20001220703125</ele>
        <time>2022-04-17T16:08:56.000Z</time>
      </trkpt>
      <trkpt lat="42.97525213100016117095947265625" lon="-2.3870153166353702545166015625">
        <ele>798</ele>
        <time>2022-04-17T16:08:57.000Z</time>
      </trkpt>
      <trkpt lat="42.97525850124657154083251953125" lon="-2.38704591058194637298583984375">
        <ele>798</ele>
        <time>2022-04-17T16:08:58.000Z</time>
      </trkpt>
      <trkpt lat="42.9752580821514129638671875" lon="-2.38705328665673732757568359375">
        <ele>797.79998779296875</ele>
        <time>2022-04-17T16:08:59.000Z</time>
      </trkpt>
      <trkpt lat="42.97526218928396701812744140625" lon="-2.38706334494054317474365234375">
        <ele>797.79998779296875</ele>
        <time>2022-04-17T16:09:00.000Z</time>
      </trkpt>
      <trkpt lat="42.97526638023555278778076171875" lon="-2.38707457669079303741455078125">
        <ele>797.5999755859375</ele>
        <time>2022-04-17T16:09:01.000Z</time>
      </trkpt>
      <trkpt lat="42.97526755370199680328369140625" lon="-2.38708714954555034637451171875">
        <ele>797.4000244140625</ele>
        <time>2022-04-17T16:09:02.000Z</time>
      </trkpt>
      <trkpt lat="42.97526705078780651092529296875" lon="-2.38709704019129276275634765625">
        <ele>797.4000244140625</ele>
        <time>2022-04-17T16:09:03.000Z</time>
      </trkpt>
      <trkpt lat="42.9752602614462375640869140625" lon="-2.387103997170925140380859375">
        <ele>797.4000244140625</ele>
        <time>2022-04-17T16:09:04.000Z</time>
      </trkpt>
      <trkpt lat="42.975262105464935302734375" lon="-2.3871162347495555877685546875">
        <ele>797.20001220703125</ele>
        <time>2022-04-17T16:09:05.000Z</time>
      </trkpt>
      <trkpt lat="42.9752659611403942108154296875" lon="-2.38713182508945465087890625">
        <ele>797</ele>
        <time>2022-04-17T16:09:06.000Z</time>
      </trkpt>
      <trkpt lat="42.97527710907161235809326171875" lon="-2.38714314065873622894287109375">
        <ele>797</ele>
        <time>2022-04-17T16:09:07.000Z</time>
      </trkpt>
      <trkpt lat="42.9752807132899761199951171875" lon="-2.38715537823736667633056640625">
        <ele>796.79998779296875</ele>
        <time>2022-04-17T16:09:08.000Z</time>
      </trkpt>
      <trkpt lat="42.97528482042253017425537109375" lon="-2.3871655203402042388916015625">
        <ele>796.79998779296875</ele>
        <time>2022-04-17T16:09:09.000Z</time>
      </trkpt>
      <trkpt lat="42.9752875864505767822265625" lon="-2.38718454726040363311767578125">
        <ele>796.79998779296875</ele>
        <time>2022-04-17T16:09:10.000Z</time>
      </trkpt>
      <trkpt lat="42.97529336996376514434814453125" lon="-2.3872049152851104736328125">
        <ele>796.5999755859375</ele>
        <time>2022-04-17T16:09:11.000Z</time>
      </trkpt>
      <trkpt lat="42.97530024312436580657958984375" lon="-2.38721656613051891326904296875">
        <ele>796.4000244140625</ele>
        <time>2022-04-17T16:09:12.000Z</time>
      </trkpt>
      <trkpt lat="42.97530728392302989959716796875" lon="-2.38722779788076877593994140625">
        <ele>796.4000244140625</ele>
        <time>2022-04-17T16:09:13.000Z</time>
      </trkpt>
      <trkpt lat="42.97530761919915676116943359375" lon="-2.38724523223936557769775390625">
        <ele>796.20001220703125</ele>
        <time>2022-04-17T16:09:14.000Z</time>
      </trkpt>
      <trkpt lat="42.9753058589994907379150390625" lon="-2.3872593976557254791259765625">
        <ele>796.20001220703125</ele>
        <time>2022-04-17T16:09:15.000Z</time>
      </trkpt>
      <trkpt lat="42.9753068648278713226318359375" lon="-2.387268953025341033935546875">
        <ele>796.20001220703125</ele>
        <time>2022-04-17T16:09:16.000Z</time>
      </trkpt>
      <trkpt lat="42.9753102175891399383544921875" lon="-2.38727641291916370391845703125">
        <ele>795.79998779296875</ele>
        <time>2022-04-17T16:09:17.000Z</time>
      </trkpt>
      <trkpt lat="42.97531549818813800811767578125" lon="-2.387285046279430389404296875">
        <ele>795.5999755859375</ele>
        <time>2022-04-17T16:09:18.000Z</time>
      </trkpt>
      <trkpt lat="42.97531801275908946990966796875" lon="-2.38729904405772686004638671875">
        <ele>795.4000244140625</ele>
        <time>2022-04-17T16:09:19.000Z</time>
      </trkpt>
      <trkpt lat="42.975315749645233154296875" lon="-2.387311868369579315185546875">
        <ele>795.4000244140625</ele>
        <time>2022-04-17T16:09:20.000Z</time>
      </trkpt>
      <trkpt lat="42.97531516291201114654541015625" lon="-2.38732536323368549346923828125">
        <ele>795.20001220703125</ele>
        <time>2022-04-17T16:09:21.000Z</time>
      </trkpt>
      <trkpt lat="42.9753192700445652008056640625" lon="-2.3873375169932842254638671875">
        <ele>795.20001220703125</ele>
        <time>2022-04-17T16:09:22.000Z</time>
      </trkpt>
      <trkpt lat="42.97532823868095874786376953125" lon="-2.38735067658126354217529296875">
        <ele>795.20001220703125</ele>
        <time>2022-04-17T16:09:23.000Z</time>
      </trkpt>
      <trkpt lat="42.97533343546092510223388671875" lon="-2.3873631656169891357421875">
        <ele>795</ele>
        <time>2022-04-17T16:09:24.000Z</time>
      </trkpt>
      <trkpt lat="42.97533653676509857177734375" lon="-2.38737381063401699066162109375">
        <ele>795</ele>
        <time>2022-04-17T16:09:25.000Z</time>
      </trkpt>
      <trkpt lat="42.9753358662128448486328125" lon="-2.38738068379461765289306640625">
        <ele>795</ele>
        <time>2022-04-17T16:09:26.000Z</time>
      </trkpt>
      <trkpt lat="42.97533745877444744110107421875" lon="-2.38738655112683773040771484375">
        <ele>794.79998779296875</ele>
        <time>2022-04-17T16:09:27.000Z</time>
      </trkpt>
      <trkpt lat="42.9753397218883037567138671875" lon="-2.387392334640026092529296875">
        <ele>794.5999755859375</ele>
        <time>2022-04-17T16:09:28.000Z</time>
      </trkpt>
      <trkpt lat="42.9753417335450649261474609375" lon="-2.38740180619060993194580078125">
        <ele>794.4000244140625</ele>
        <time>2022-04-17T16:09:29.000Z</time>
      </trkpt>
      <trkpt lat="42.97534701414406299591064453125" lon="-2.38741538487374782562255859375">
        <ele>794.4000244140625</ele>
        <time>2022-04-17T16:09:30.000Z</time>
      </trkpt>
      <trkpt lat="42.9753571562469005584716796875" lon="-2.387429885566234588623046875">
        <ele>794.20001220703125</ele>
        <time>2022-04-17T16:09:31.000Z</time>
      </trkpt>
      <trkpt lat="42.9753680527210235595703125" lon="-2.3874463140964508056640625">
        <ele>794.20001220703125</ele>
        <time>2022-04-17T16:09:32.000Z</time>
      </trkpt>
      <trkpt lat="42.9753745906054973602294921875" lon="-2.38745762966573238372802734375">
        <ele>794</ele>
        <time>2022-04-17T16:09:33.000Z</time>
      </trkpt>
      <trkpt lat="42.97537744045257568359375" lon="-2.38746433518826961517333984375">
        <ele>794</ele>
        <time>2022-04-17T16:09:34.000Z</time>
      </trkpt>
      <trkpt lat="42.97537811100482940673828125" lon="-2.38747037015855312347412109375">
        <ele>794</ele>
        <time>2022-04-17T16:09:35.000Z</time>
      </trkpt>
      <trkpt lat="42.9753792844712734222412109375" lon="-2.38747724331915378570556640625">
        <ele>793.79998779296875</ele>
        <time>2022-04-17T16:09:36.000Z</time>
      </trkpt>
      <trkpt lat="42.97537811100482940673828125" lon="-2.38748813979327678680419921875">
        <ele>793.5999755859375</ele>
        <time>2022-04-17T16:09:37.000Z</time>
      </trkpt>
      <trkpt lat="42.975377105176448822021484375" lon="-2.38750121556222438812255859375">
        <ele>793.4000244140625</ele>
        <time>2022-04-17T16:09:38.000Z</time>
      </trkpt>
      <trkpt lat="42.97537819482386112213134765625" lon="-2.3875152133405208587646484375">
        <ele>793.4000244140625</ele>
        <time>2022-04-17T16:09:39.000Z</time>
      </trkpt>
      <trkpt lat="42.97538439743220806121826171875" lon="-2.3875259421765804290771484375">
        <ele>793</ele>
        <time>2022-04-17T16:09:40.000Z</time>
      </trkpt>
      <trkpt lat="42.975387834012508392333984375" lon="-2.38753524608910083770751953125">
        <ele>792.79998779296875</ele>
        <time>2022-04-17T16:09:41.000Z</time>
      </trkpt>
      <trkpt lat="42.9753903485834598541259765625" lon="-2.3875383473932743072509765625">
        <ele>792.79998779296875</ele>
        <time>2022-04-17T16:09:42.000Z</time>
      </trkpt>
      <trkpt lat="42.97539210878312587738037109375" lon="-2.38753926940262317657470703125">
        <ele>792.79998779296875</ele>
        <time>2022-04-17T16:09:43.000Z</time>
      </trkpt>
      <trkpt lat="42.97539261169731616973876953125" lon="-2.38753507845103740692138671875">
        <ele>792.5999755859375</ele>
        <time>2022-04-17T16:09:44.000Z</time>
      </trkpt>
      <trkpt lat="42.97539663501083850860595703125" lon="-2.387528456747531890869140625">
        <ele>792.5999755859375</ele>
        <time>2022-04-17T16:09:45.000Z</time>
      </trkpt>
      <trkpt lat="42.97540132887661457061767578125" lon="-2.3875292949378490447998046875">
        <ele>792.5999755859375</ele>
        <time>2022-04-17T16:09:46.000Z</time>
      </trkpt>
      <trkpt lat="42.97540551982820034027099609375" lon="-2.3875249363481998443603515625">
        <ele>792.5999755859375</ele>
        <time>2022-04-17T16:09:47.000Z</time>
      </trkpt>
      <trkpt lat="42.97540820203721523284912109375" lon="-2.3875266127288341522216796875">
        <ele>792.5999755859375</ele>
        <time>2022-04-17T16:09:48.000Z</time>
      </trkpt>
      <trkpt lat="42.975415326654911041259765625" lon="-2.3875443823635578155517578125">
        <ele>792.5999755859375</ele>
        <time>2022-04-17T16:09:49.000Z</time>
      </trkpt>
      <trkpt lat="42.97542060725390911102294921875" lon="-2.38755318336188793182373046875">
        <ele>792.5999755859375</ele>
        <time>2022-04-17T16:09:50.000Z</time>
      </trkpt>
      <trkpt lat="42.9754297435283660888671875" lon="-2.38756709732115268707275390625">
        <ele>792.4000244140625</ele>
        <time>2022-04-17T16:09:51.000Z</time>
      </trkpt>
      <trkpt lat="42.97543577849864959716796875" lon="-2.38757765851914882659912109375">
        <ele>792.4000244140625</ele>
        <time>2022-04-17T16:09:52.000Z</time>
      </trkpt>
      <trkpt lat="42.975439466536045074462890625" lon="-2.38758721388876438140869140625">
        <ele>792</ele>
        <time>2022-04-17T16:09:53.000Z</time>
      </trkpt>
      <trkpt lat="42.97544424422085285186767578125" lon="-2.38759660162031650543212890625">
        <ele>791.79998779296875</ele>
        <time>2022-04-17T16:09:54.000Z</time>
      </trkpt>
      <trkpt lat="42.97544994391500949859619140625" lon="-2.38760163076221942901611328125">
        <ele>791.5999755859375</ele>
        <time>2022-04-17T16:09:55.000Z</time>
      </trkpt>
      <trkpt lat="42.97545765526592731475830078125" lon="-2.38760582171380519866943359375">
        <ele>791.4000244140625</ele>
        <time>2022-04-17T16:09:56.000Z</time>
      </trkpt>
      <trkpt lat="42.975463606417179107666015625" lon="-2.3876077495515346527099609375">
        <ele>791.4000244140625</ele>
        <time>2022-04-17T16:09:57.000Z</time>
      </trkpt>
      <trkpt lat="42.97546888701617717742919921875" lon="-2.38761194050312042236328125">
        <ele>791.20001220703125</ele>
        <time>2022-04-17T16:09:58.000Z</time>
      </trkpt>
      <trkpt lat="42.975473664700984954833984375" lon="-2.3876157961785793304443359375">
        <ele>791.20001220703125</ele>
        <time>2022-04-17T16:09:59.000Z</time>
      </trkpt>
      <trkpt lat="42.97547710128128528594970703125" lon="-2.38762132823467254638671875">
        <ele>791</ele>
        <time>2022-04-17T16:10:00.000Z</time>
      </trkpt>
      <trkpt lat="42.9754835553467273712158203125" lon="-2.3876288719475269317626953125">
        <ele>791</ele>
        <time>2022-04-17T16:10:01.000Z</time>
      </trkpt>
      <trkpt lat="42.97548950649797916412353515625" lon="-2.38763473927974700927734375">
        <ele>790.79998779296875</ele>
        <time>2022-04-17T16:10:02.000Z</time>
      </trkpt>
      <trkpt lat="42.97549487091600894927978515625" lon="-2.38763197325170040130615234375">
        <ele>790.5999755859375</ele>
        <time>2022-04-17T16:10:03.000Z</time>
      </trkpt>
      <trkpt lat="42.9754959605634212493896484375" lon="-2.38762862049043178558349609375">
        <ele>790.5999755859375</ele>
        <time>2022-04-17T16:10:04.000Z</time>
      </trkpt>
      <trkpt lat="42.97549738548696041107177734375" lon="-2.38762794993817806243896484375">
        <ele>790.4000244140625</ele>
        <time>2022-04-17T16:10:05.000Z</time>
      </trkpt>
      <trkpt lat="42.97550006769597530364990234375" lon="-2.38763398490846157073974609375">
        <ele>790.4000244140625</ele>
        <time>2022-04-17T16:10:06.000Z</time>
      </trkpt>
      <trkpt lat="42.9755023308098316192626953125" lon="-2.38764387555420398712158203125">
        <ele>790.4000244140625</ele>
        <time>2022-04-17T16:10:07.000Z</time>
      </trkpt>
      <trkpt lat="42.9755066893994808197021484375" lon="-2.3876546882092952728271484375">
        <ele>790.4000244140625</ele>
        <time>2022-04-17T16:10:08.000Z</time>
      </trkpt>
      <trkpt lat="42.97551046125590801239013671875" lon="-2.3876607231795787811279296875">
        <ele>790.20001220703125</ele>
        <time>2022-04-17T16:10:09.000Z</time>
      </trkpt>
      <trkpt lat="42.97551331110298633575439453125" lon="-2.387671954929828643798828125">
        <ele>790.20001220703125</ele>
        <time>2022-04-17T16:10:10.000Z</time>
      </trkpt>
      <trkpt lat="42.97551616095006465911865234375" lon="-2.38767807371914386749267578125">
        <ele>790</ele>
        <time>2022-04-17T16:10:11.000Z</time>
      </trkpt>
      <trkpt lat="42.97551683150231838226318359375" lon="-2.38768192939460277557373046875">
        <ele>790</ele>
        <time>2022-04-17T16:10:12.000Z</time>
      </trkpt>
      <trkpt lat="42.9755177535116672515869140625" lon="-2.38768695853650569915771484375">
        <ele>790</ele>
        <time>2022-04-17T16:10:13.000Z</time>
      </trkpt>
      <trkpt lat="42.9755214415490627288818359375" lon="-2.38769567571580410003662109375">
        <ele>789.79998779296875</ele>
        <time>2022-04-17T16:10:14.000Z</time>
      </trkpt>
      <trkpt lat="42.9755247943103313446044921875" lon="-2.3877053149044513702392578125">
        <ele>789.79998779296875</ele>
        <time>2022-04-17T16:10:15.000Z</time>
      </trkpt>
      <trkpt lat="42.97552739270031452178955078125" lon="-2.3877110145986080169677734375">
        <ele>789.79998779296875</ele>
        <time>2022-04-17T16:10:16.000Z</time>
      </trkpt>
      <trkpt lat="42.97553510405123233795166015625" lon="-2.38772233016788959503173828125">
        <ele>789.79998779296875</ele>
        <time>2022-04-17T16:10:17.000Z</time>
      </trkpt>
      <trkpt lat="42.9755412228405475616455078125" lon="-2.38772518001496791839599609375">
        <ele>789.5999755859375</ele>
        <time>2022-04-17T16:10:18.000Z</time>
      </trkpt>
      <trkpt lat="42.97554574906826019287109375" lon="-2.38773129880428314208984375">
        <ele>789.4000244140625</ele>
        <time>2022-04-17T16:10:19.000Z</time>
      </trkpt>
      <trkpt lat="42.9755506105720996856689453125" lon="-2.3877438716590404510498046875">
        <ele>789.4000244140625</ele>
        <time>2022-04-17T16:10:20.000Z</time>
      </trkpt>
      <trkpt lat="42.97555086202919483184814453125" lon="-2.38775409758090972900390625">
        <ele>789.4000244140625</ele>
        <time>2022-04-17T16:10:21.000Z</time>
      </trkpt>
      <trkpt lat="42.97555203549563884735107421875" lon="-2.3877606354653835296630859375">
        <ele>789.4000244140625</ele>
        <time>2022-04-17T16:10:22.000Z</time>
      </trkpt>
      <trkpt lat="42.97555907629430294036865234375" lon="-2.387769520282745361328125">
        <ele>789.20001220703125</ele>
        <time>2022-04-17T16:10:23.000Z</time>
      </trkpt>
      <trkpt lat="42.9755707271397113800048828125" lon="-2.38777999766170978546142578125">
        <ele>789.20001220703125</ele>
        <time>2022-04-17T16:10:24.000Z</time>
      </trkpt>
      <trkpt lat="42.975579611957073211669921875" lon="-2.3877971805632114410400390625">
        <ele>789.20001220703125</ele>
        <time>2022-04-17T16:10:25.000Z</time>
      </trkpt>
      <trkpt lat="42.9755895026028156280517578125" lon="-2.3878172971308231353759765625">
        <ele>789</ele>
        <time>2022-04-17T16:10:26.000Z</time>
      </trkpt>
      <trkpt lat="42.9755933582782745361328125" lon="-2.3878340609371662139892578125">
        <ele>789</ele>
        <time>2022-04-17T16:10:27.000Z</time>
      </trkpt>
      <trkpt lat="42.97560148872435092926025390625" lon="-2.38784923218190670013427734375">
        <ele>788.79998779296875</ele>
        <time>2022-04-17T16:10:28.000Z</time>
      </trkpt>
      <trkpt lat="42.9756035842001438140869140625" lon="-2.38786272704601287841796875">
        <ele>788.79998779296875</ele>
        <time>2022-04-17T16:10:29.000Z</time>
      </trkpt>
      <trkpt lat="42.97560148872435092926025390625" lon="-2.38786784000694751739501953125">
        <ele>788.5999755859375</ele>
        <time>2022-04-17T16:10:30.000Z</time>
      </trkpt>
      <trkpt lat="42.97559394501149654388427734375" lon="-2.38786934874951839447021484375">
        <ele>788.5999755859375</ele>
        <time>2022-04-17T16:10:31.000Z</time>
      </trkpt>
      <trkpt lat="42.97559000551700592041015625" lon="-2.387874461710453033447265625">
        <ele>788.5999755859375</ele>
        <time>2022-04-17T16:10:32.000Z</time>
      </trkpt>
      <trkpt lat="42.9755911789834499359130859375" lon="-2.38788426853716373443603515625">
        <ele>788.4000244140625</ele>
        <time>2022-04-17T16:10:33.000Z</time>
      </trkpt>
      <trkpt lat="42.97559679485857486724853515625" lon="-2.3878920637071132659912109375">
        <ele>788.20001220703125</ele>
        <time>2022-04-17T16:10:34.000Z</time>
      </trkpt>
      <trkpt lat="42.97559863887727260589599609375" lon="-2.38789918832480907440185546875">
        <ele>788.20001220703125</ele>
        <time>2022-04-17T16:10:35.000Z</time>
      </trkpt>
      <trkpt lat="42.97560199163854122161865234375" lon="-2.387914694845676422119140625">
        <ele>788</ele>
        <time>2022-04-17T16:10:36.000Z</time>
      </trkpt>
      <trkpt lat="42.9756062664091587066650390625" lon="-2.38792844116687774658203125">
        <ele>788</ele>
        <time>2022-04-17T16:10:37.000Z</time>
      </trkpt>
      <trkpt lat="42.97561146318912506103515625" lon="-2.387938164174556732177734375">
        <ele>787.79998779296875</ele>
        <time>2022-04-17T16:10:38.000Z</time>
      </trkpt>
      <trkpt lat="42.9756200127303600311279296875" lon="-2.38794579170644283294677734375">
        <ele>787.5999755859375</ele>
        <time>2022-04-17T16:10:39.000Z</time>
      </trkpt>
      <trkpt lat="42.9756290651857852935791015625" lon="-2.38795283250510692596435546875">
        <ele>787.4000244140625</ele>
        <time>2022-04-17T16:10:40.000Z</time>
      </trkpt>
      <trkpt lat="42.97563694417476654052734375" lon="-2.387962639331817626953125">
        <ele>787.4000244140625</ele>
        <time>2022-04-17T16:10:41.000Z</time>
      </trkpt>
      <trkpt lat="42.97564566135406494140625" lon="-2.38797001540660858154296875">
        <ele>787.4000244140625</ele>
        <time>2022-04-17T16:10:42.000Z</time>
      </trkpt>
      <trkpt lat="42.9756532050669193267822265625" lon="-2.38797479309141635894775390625">
        <ele>787.20001220703125</ele>
        <time>2022-04-17T16:10:43.000Z</time>
      </trkpt>
      <trkpt lat="42.97565965913236141204833984375" lon="-2.38798032514750957489013671875">
        <ele>787.20001220703125</ele>
        <time>2022-04-17T16:10:44.000Z</time>
      </trkpt>
      <trkpt lat="42.97566904686391353607177734375" lon="-2.387989796698093414306640625">
        <ele>787.20001220703125</ele>
        <time>2022-04-17T16:10:45.000Z</time>
      </trkpt>
      <trkpt lat="42.975678853690624237060546875" lon="-2.38799876533448696136474609375">
        <ele>787.20001220703125</ele>
        <time>2022-04-17T16:10:46.000Z</time>
      </trkpt>
      <trkpt lat="42.975691594183444976806640625" lon="-2.38800379447638988494873046875">
        <ele>787</ele>
        <time>2022-04-17T16:10:47.000Z</time>
      </trkpt>
      <trkpt lat="42.97570995055139064788818359375" lon="-2.38801569677889347076416015625">
        <ele>787</ele>
        <time>2022-04-17T16:10:48.000Z</time>
      </trkpt>
      <trkpt lat="42.975718080997467041015625" lon="-2.38802139647305011749267578125">
        <ele>786.79998779296875</ele>
        <time>2022-04-17T16:10:49.000Z</time>
      </trkpt>
      <trkpt lat="42.975723110139369964599609375" lon="-2.388030029833316802978515625">
        <ele>786.5999755859375</ele>
        <time>2022-04-17T16:10:50.000Z</time>
      </trkpt>
      <trkpt lat="42.97573484480381011962890625" lon="-2.388043105602264404296875">
        <ele>786.5999755859375</ele>
        <time>2022-04-17T16:10:51.000Z</time>
      </trkpt>
      <trkpt lat="42.97574314288794994354248046875" lon="-2.3880580253899097442626953125">
        <ele>786.5999755859375</ele>
        <time>2022-04-17T16:10:52.000Z</time>
      </trkpt>
      <trkpt lat="42.97574733383953571319580078125" lon="-2.38807252608239650726318359375">
        <ele>786.4000244140625</ele>
        <time>2022-04-17T16:10:53.000Z</time>
      </trkpt>
      <trkpt lat="42.97575085423886775970458984375" lon="-2.38808392547070980072021484375">
        <ele>786.4000244140625</ele>
        <time>2022-04-17T16:10:54.000Z</time>
      </trkpt>
      <trkpt lat="42.9757568053901195526123046875" lon="-2.3880905471742153167724609375">
        <ele>786.20001220703125</ele>
        <time>2022-04-17T16:10:55.000Z</time>
      </trkpt>
      <trkpt lat="42.97576828859746456146240234375" lon="-2.3880868591368198394775390625">
        <ele>786</ele>
        <time>2022-04-17T16:10:56.000Z</time>
      </trkpt>
      <trkpt lat="42.97577373683452606201171875" lon="-2.388080991804599761962890625">
        <ele>785.79998779296875</ele>
        <time>2022-04-17T16:10:57.000Z</time>
      </trkpt>
      <trkpt lat="42.97577583231031894683837890625" lon="-2.38808878697454929351806640625">
        <ele>785.5999755859375</ele>
        <time>2022-04-17T16:10:58.000Z</time>
      </trkpt>
      <trkpt lat="42.975777424871921539306640625" lon="-2.3881022818386554718017578125">
        <ele>785.5999755859375</ele>
        <time>2022-04-17T16:10:59.000Z</time>
      </trkpt>
      <trkpt lat="42.97578421421349048614501953125" lon="-2.38811359740793704986572265625">
        <ele>785.4000244140625</ele>
        <time>2022-04-17T16:11:00.000Z</time>
      </trkpt>
      <trkpt lat="42.97579259611666202545166015625" lon="-2.38812650553882122039794921875">
        <ele>785.20001220703125</ele>
        <time>2022-04-17T16:11:01.000Z</time>
      </trkpt>
      <trkpt lat="42.97580030746757984161376953125" lon="-2.38813421688973903656005859375">
        <ele>785.20001220703125</ele>
        <time>2022-04-17T16:11:02.000Z</time>
      </trkpt>
      <trkpt lat="42.97580919228494167327880859375" lon="-2.388143353164196014404296875">
        <ele>785</ele>
        <time>2022-04-17T16:11:03.000Z</time>
      </trkpt>
      <trkpt lat="42.975812964141368865966796875" lon="-2.388154752552509307861328125">
        <ele>784.79998779296875</ele>
        <time>2022-04-17T16:11:04.000Z</time>
      </trkpt>
      <trkpt lat="42.97581732273101806640625" lon="-2.3881626315414905548095703125">
        <ele>784.79998779296875</ele>
        <time>2022-04-17T16:11:05.000Z</time>
      </trkpt>
      <trkpt lat="42.9758205078542232513427734375" lon="-2.388170175254344940185546875">
        <ele>784.5999755859375</ele>
        <time>2022-04-17T16:11:06.000Z</time>
      </trkpt>
      <trkpt lat="42.9758240282535552978515625" lon="-2.388174198567867279052734375">
        <ele>784.5999755859375</ele>
        <time>2022-04-17T16:11:07.000Z</time>
      </trkpt>
      <trkpt lat="42.975830398499965667724609375" lon="-2.3881763778626918792724609375">
        <ele>784.5999755859375</ele>
        <time>2022-04-17T16:11:08.000Z</time>
      </trkpt>
      <trkpt lat="42.975838445127010345458984375" lon="-2.38817654550075531005859375">
        <ele>784.4000244140625</ele>
        <time>2022-04-17T16:11:09.000Z</time>
      </trkpt>
      <trkpt lat="42.9758449830114841461181640625" lon="-2.3881914652884006500244140625">
        <ele>784.4000244140625</ele>
        <time>2022-04-17T16:11:10.000Z</time>
      </trkpt>
      <trkpt lat="42.9758540354669094085693359375" lon="-2.38821283914148807525634765625">
        <ele>784.4000244140625</ele>
        <time>2022-04-17T16:11:11.000Z</time>
      </trkpt>
      <trkpt lat="42.97586183063685894012451171875" lon="-2.388230860233306884765625">
        <ele>784.4000244140625</ele>
        <time>2022-04-17T16:11:12.000Z</time>
      </trkpt>
      <trkpt lat="42.975862920284271240234375" lon="-2.38824519328773021697998046875">
        <ele>784.4000244140625</ele>
        <time>2022-04-17T16:11:13.000Z</time>
      </trkpt>
      <trkpt lat="42.97586132772266864776611328125" lon="-2.38825743086636066436767578125">
        <ele>784.4000244140625</ele>
        <time>2022-04-17T16:11:14.000Z</time>
      </trkpt>
      <trkpt lat="42.97586987726390361785888671875" lon="-2.38826547749340534210205078125">
        <ele>784.4000244140625</ele>
        <time>2022-04-17T16:11:15.000Z</time>
      </trkpt>
      <trkpt lat="42.9758791811764240264892578125" lon="-2.38827503286302089691162109375">
        <ele>784.4000244140625</ele>
        <time>2022-04-17T16:11:16.000Z</time>
      </trkpt>
      <trkpt lat="42.97589099965989589691162109375" lon="-2.38828659988939762115478515625">
        <ele>784.20001220703125</ele>
        <time>2022-04-17T16:11:17.000Z</time>
      </trkpt>
      <trkpt lat="42.97589837573468685150146484375" lon="-2.38829297013580799102783203125">
        <ele>784.20001220703125</ele>
        <time>2022-04-17T16:11:18.000Z</time>
      </trkpt>
      <trkpt lat="42.9759016446769237518310546875" lon="-2.38829799927771091461181640625">
        <ele>784.20001220703125</ele>
        <time>2022-04-17T16:11:19.000Z</time>
      </trkpt>
      <trkpt lat="42.97590843401849269866943359375" lon="-2.3883064649999141693115234375">
        <ele>784.20001220703125</ele>
        <time>2022-04-17T16:11:20.000Z</time>
      </trkpt>
      <trkpt lat="42.9759180732071399688720703125" lon="-2.388320378959178924560546875">
        <ele>784</ele>
        <time>2022-04-17T16:11:21.000Z</time>
      </trkpt>
      <trkpt lat="42.9759331606328487396240234375" lon="-2.3883322812616825103759765625">
        <ele>783.79998779296875</ele>
        <time>2022-04-17T16:11:22.000Z</time>
      </trkpt>
      <trkpt lat="42.97594665549695491790771484375" lon="-2.3883386515080928802490234375">
        <ele>783.79998779296875</ele>
        <time>2022-04-17T16:11:23.000Z</time>
      </trkpt>
      <trkpt lat="42.9759579710662364959716796875" lon="-2.388351894915103912353515625">
        <ele>783.5999755859375</ele>
        <time>2022-04-17T16:11:24.000Z</time>
      </trkpt>
      <trkpt lat="42.9759650118649005889892578125" lon="-2.38835885189473628997802734375">
        <ele>783.5999755859375</ele>
        <time>2022-04-17T16:11:25.000Z</time>
      </trkpt>
      <trkpt lat="42.9759760759770870208740234375" lon="-2.38837142474949359893798828125">
        <ele>783.4000244140625</ele>
        <time>2022-04-17T16:11:26.000Z</time>
      </trkpt>
      <trkpt lat="42.97598219476640224456787109375" lon="-2.38837578333914279937744140625">
        <ele>783.4000244140625</ele>
        <time>2022-04-17T16:11:27.000Z</time>
      </trkpt>
      <trkpt lat="42.9759878106415271759033203125" lon="-2.38838232122361660003662109375">
        <ele>783.20001220703125</ele>
        <time>2022-04-17T16:11:28.000Z</time>
      </trkpt>
      <trkpt lat="42.97599359415471553802490234375" lon="-2.38838936202228069305419921875">
        <ele>783</ele>
        <time>2022-04-17T16:11:29.000Z</time>
      </trkpt>
      <trkpt lat="42.97599946148693561553955078125" lon="-2.38838902674615383148193359375">
        <ele>782.79998779296875</ele>
        <time>2022-04-17T16:11:30.000Z</time>
      </trkpt>
      <trkpt lat="42.97600314952433109283447265625" lon="-2.38839221186935901641845703125">
        <ele>782.5999755859375</ele>
        <time>2022-04-17T16:11:31.000Z</time>
      </trkpt>
      <trkpt lat="42.976006083190441131591796875" lon="-2.38839539699256420135498046875">
        <ele>782.4000244140625</ele>
        <time>2022-04-17T16:11:32.000Z</time>
      </trkpt>
      <trkpt lat="42.976013459265232086181640625" lon="-2.388402186334133148193359375">
        <ele>782.4000244140625</ele>
        <time>2022-04-17T16:11:33.000Z</time>
      </trkpt>
      <trkpt lat="42.97601823695003986358642578125" lon="-2.3884120769798755645751953125">
        <ele>782.4000244140625</ele>
        <time>2022-04-17T16:11:34.000Z</time>
      </trkpt>
      <trkpt lat="42.9760263673961162567138671875" lon="-2.3884187825024127960205078125">
        <ele>782.20001220703125</ele>
        <time>2022-04-17T16:11:35.000Z</time>
      </trkpt>
      <trkpt lat="42.97603315673768520355224609375" lon="-2.3884224705398082733154296875">
        <ele>782.20001220703125</ele>
        <time>2022-04-17T16:11:36.000Z</time>
      </trkpt>
      <trkpt lat="42.97604505904018878936767578125" lon="-2.38843261264264583587646484375">
        <ele>782</ele>
        <time>2022-04-17T16:11:37.000Z</time>
      </trkpt>
      <trkpt lat="42.97605243511497974395751953125" lon="-2.38843931816518306732177734375">
        <ele>781.79998779296875</ele>
        <time>2022-04-17T16:11:38.000Z</time>
      </trkpt>
      <trkpt lat="42.9760598950088024139404296875" lon="-2.38844535313546657562255859375">
        <ele>781.79998779296875</ele>
        <time>2022-04-17T16:11:39.000Z</time>
      </trkpt>
      <trkpt lat="42.976066768169403076171875" lon="-2.3884539864957332611083984375">
        <ele>781.5999755859375</ele>
        <time>2022-04-17T16:11:40.000Z</time>
      </trkpt>
      <trkpt lat="42.97607221640646457672119140625" lon="-2.38847485743463039398193359375">
        <ele>781.4000244140625</ele>
        <time>2022-04-17T16:11:41.000Z</time>
      </trkpt>
      <trkpt lat="42.97608512453734874725341796875" lon="-2.3884865082800388336181640625">
        <ele>781.4000244140625</ele>
        <time>2022-04-17T16:11:42.000Z</time>
      </trkpt>
      <trkpt lat="42.976095937192440032958984375" lon="-2.388493381440639495849609375">
        <ele>781.20001220703125</ele>
        <time>2022-04-17T16:11:43.000Z</time>
      </trkpt>
      <trkpt lat="42.9760957695543766021728515625" lon="-2.3884977400302886962890625">
        <ele>781.20001220703125</ele>
        <time>2022-04-17T16:11:44.000Z</time>
      </trkpt>
      <trkpt lat="42.97610172070562839508056640625" lon="-2.3885052837431430816650390625">
        <ele>781</ele>
        <time>2022-04-17T16:11:45.000Z</time>
      </trkpt>
      <trkpt lat="42.9761031456291675567626953125" lon="-2.38851240836083889007568359375">
        <ele>781</ele>
        <time>2022-04-17T16:11:46.000Z</time>
      </trkpt>
      <trkpt lat="42.97610959969460964202880859375" lon="-2.3885150067508220672607421875">
        <ele>780.79998779296875</ele>
        <time>2022-04-17T16:11:47.000Z</time>
      </trkpt>
      <trkpt lat="42.976116053760051727294921875" lon="-2.38852263428270816802978515625">
        <ele>780.79998779296875</ele>
        <time>2022-04-17T16:11:48.000Z</time>
      </trkpt>
      <trkpt lat="42.976122759282588958740234375" lon="-2.3885304294526576995849609375">
        <ele>780.5999755859375</ele>
        <time>2022-04-17T16:11:49.000Z</time>
      </trkpt>
      <trkpt lat="42.97613021917641162872314453125" lon="-2.3885379731655120849609375">
        <ele>780.5999755859375</ele>
        <time>2022-04-17T16:11:50.000Z</time>
      </trkpt>
      <trkpt lat="42.9761376790702342987060546875" lon="-2.38854677416384220123291015625">
        <ele>780.5999755859375</ele>
        <time>2022-04-17T16:11:51.000Z</time>
      </trkpt>
      <trkpt lat="42.9761460609734058380126953125" lon="-2.3885515518486499786376953125">
        <ele>780.5999755859375</ele>
        <time>2022-04-17T16:11:52.000Z</time>
      </trkpt>
      <trkpt lat="42.976153604686260223388671875" lon="-2.3885528929531574249267578125">
        <ele>780.4000244140625</ele>
        <time>2022-04-17T16:11:53.000Z</time>
      </trkpt>
      <trkpt lat="42.976156286895275115966796875" lon="-2.3885515518486499786376953125">
        <ele>780.20001220703125</ele>
        <time>2022-04-17T16:11:54.000Z</time>
      </trkpt>
      <trkpt lat="42.976160310208797454833984375" lon="-2.38855381496250629425048828125">
        <ele>780</ele>
        <time>2022-04-17T16:11:55.000Z</time>
      </trkpt>
      <trkpt lat="42.97616802155971527099609375" lon="-2.3885575868189334869384765625">
        <ele>780</ele>
        <time>2022-04-17T16:11:56.000Z</time>
      </trkpt>
      <trkpt lat="42.976176403462886810302734375" lon="-2.38855381496250629425048828125">
        <ele>779.79998779296875</ele>
        <time>2022-04-17T16:11:57.000Z</time>
      </trkpt>
      <trkpt lat="42.97618973068892955780029296875" lon="-2.38855884410440921783447265625">
        <ele>779.79998779296875</ele>
        <time>2022-04-17T16:11:58.000Z</time>
      </trkpt>
      <trkpt lat="42.9762017168104648590087890625" lon="-2.38856253214180469512939453125">
        <ele>779.79998779296875</ele>
        <time>2022-04-17T16:11:59.000Z</time>
      </trkpt>
      <trkpt lat="42.97621185891330242156982421875" lon="-2.38856705836951732635498046875">
        <ele>779.5999755859375</ele>
        <time>2022-04-17T16:12:00.000Z</time>
      </trkpt>
      <trkpt lat="42.97621906735002994537353515625" lon="-2.38856974057853221893310546875">
        <ele>779.5999755859375</ele>
        <time>2022-04-17T16:12:01.000Z</time>
      </trkpt>
      <trkpt lat="42.9762255214154720306396484375" lon="-2.38857091404497623443603515625">
        <ele>779.20001220703125</ele>
        <time>2022-04-17T16:12:02.000Z</time>
      </trkpt>
      <trkpt lat="42.97623365186154842376708984375" lon="-2.38857476972043514251708984375">
        <ele>779</ele>
        <time>2022-04-17T16:12:03.000Z</time>
      </trkpt>
      <trkpt lat="42.97623566351830959320068359375" lon="-2.388577871024608612060546875">
        <ele>778.79998779296875</ele>
        <time>2022-04-17T16:12:04.000Z</time>
      </trkpt>
      <trkpt lat="42.97623750753700733184814453125" lon="-2.3885790444910526275634765625">
        <ele>778.79998779296875</ele>
        <time>2022-04-17T16:12:05.000Z</time>
      </trkpt>
      <trkpt lat="42.97624421305954456329345703125" lon="-2.38858164288103580474853515625">
        <ele>778.79998779296875</ele>
        <time>2022-04-17T16:12:06.000Z</time>
      </trkpt>
      <trkpt lat="42.9762546904385089874267578125" lon="-2.38858499564230442047119140625">
        <ele>778.5999755859375</ele>
        <time>2022-04-17T16:12:07.000Z</time>
      </trkpt>
      <trkpt lat="42.9762667603790760040283203125" lon="-2.38858751021325588226318359375">
        <ele>778.5999755859375</ele>
        <time>2022-04-17T16:12:08.000Z</time>
      </trkpt>
      <trkpt lat="42.97627589665353298187255859375" lon="-2.38859019242227077484130859375">
        <ele>778.5999755859375</ele>
        <time>2022-04-17T16:12:09.000Z</time>
      </trkpt>
      <trkpt lat="42.9762845300137996673583984375" lon="-2.38859907723963260650634765625">
        <ele>778.20001220703125</ele>
        <time>2022-04-17T16:12:10.000Z</time>
      </trkpt>
      <trkpt lat="42.9762955941259860992431640625" lon="-2.3886038549244403839111328125">
        <ele>778</ele>
        <time>2022-04-17T16:12:11.000Z</time>
      </trkpt>
      <trkpt lat="42.97630674205720424652099609375" lon="-2.38861366175115108489990234375">
        <ele>777.79998779296875</ele>
        <time>2022-04-17T16:12:12.000Z</time>
      </trkpt>
      <trkpt lat="42.97631612978875637054443359375" lon="-2.3886291682720184326171875">
        <ele>777.79998779296875</ele>
        <time>2022-04-17T16:12:13.000Z</time>
      </trkpt>
      <trkpt lat="42.976324260234832763671875" lon="-2.38863662816584110260009765625">
        <ele>777.5999755859375</ele>
        <time>2022-04-17T16:12:14.000Z</time>
      </trkpt>
      <trkpt lat="42.97633473761379718780517578125" lon="-2.388649284839630126953125">
        <ele>777.5999755859375</ele>
        <time>2022-04-17T16:12:15.000Z</time>
      </trkpt>
      <trkpt lat="42.9763435386121273040771484375" lon="-2.38866328261792659759521484375">
        <ele>777.4000244140625</ele>
        <time>2022-04-17T16:12:16.000Z</time>
      </trkpt>
      <trkpt lat="42.976348064839839935302734375" lon="-2.38866847939789295196533203125">
        <ele>777.20001220703125</ele>
        <time>2022-04-17T16:12:17.000Z</time>
      </trkpt>
      <trkpt lat="42.976357452571392059326171875" lon="-2.38866948522627353668212890625">
        <ele>777.20001220703125</ele>
        <time>2022-04-17T16:12:18.000Z</time>
      </trkpt>
      <trkpt lat="42.97637195326387882232666015625" lon="-2.38867401145398616790771484375">
        <ele>777</ele>
        <time>2022-04-17T16:12:19.000Z</time>
      </trkpt>
      <trkpt lat="42.97638393938541412353515625" lon="-2.3886802978813648223876953125">
        <ele>776.79998779296875</ele>
        <time>2022-04-17T16:12:20.000Z</time>
      </trkpt>
      <trkpt lat="42.97639609314501285552978515625" lon="-2.38868859596550464630126953125">
        <ele>776.79998779296875</ele>
        <time>2022-04-17T16:12:21.000Z</time>
      </trkpt>
      <trkpt lat="42.97640740871429443359375" lon="-2.38870133645832538604736328125">
        <ele>776.5999755859375</ele>
        <time>2022-04-17T16:12:22.000Z</time>
      </trkpt>
      <trkpt lat="42.9764221608638763427734375" lon="-2.38871457986533641815185546875">
        <ele>776.5999755859375</ele>
        <time>2022-04-17T16:12:23.000Z</time>
      </trkpt>
      <trkpt lat="42.97642744146287441253662109375" lon="-2.388728745281696319580078125">
        <ele>776.5999755859375</ele>
        <time>2022-04-17T16:12:24.000Z</time>
      </trkpt>
      <trkpt lat="42.97642760910093784332275390625" lon="-2.3887419886887073516845703125">
        <ele>776.4000244140625</ele>
        <time>2022-04-17T16:12:25.000Z</time>
      </trkpt>
      <trkpt lat="42.97642257995903491973876953125" lon="-2.38874995149672031402587890625">
        <ele>776.4000244140625</ele>
        <time>2022-04-17T16:12:26.000Z</time>
      </trkpt>
      <trkpt lat="42.9764248430728912353515625" lon="-2.3887607641518115997314453125">
        <ele>776.4000244140625</ele>
        <time>2022-04-17T16:12:27.000Z</time>
      </trkpt>
      <trkpt lat="42.9764357395470142364501953125" lon="-2.38877744413912296295166015625">
        <ele>776.20001220703125</ele>
        <time>2022-04-17T16:12:28.000Z</time>
      </trkpt>
      <trkpt lat="42.97644839622080326080322265625" lon="-2.3887882567942142486572265625">
        <ele>776.20001220703125</ele>
        <time>2022-04-17T16:12:29.000Z</time>
      </trkpt>
      <trkpt lat="42.9764592088758945465087890625" lon="-2.38879655487835407257080078125">
        <ele>776</ele>
        <time>2022-04-17T16:12:30.000Z</time>
      </trkpt>
      <trkpt lat="42.9764692671597003936767578125" lon="-2.388803847134113311767578125">
        <ele>776</ele>
        <time>2022-04-17T16:12:31.000Z</time>
      </trkpt>
      <trkpt lat="42.97647857107222080230712890625" lon="-2.38881113938987255096435546875">
        <ele>775.79998779296875</ele>
        <time>2022-04-17T16:12:32.000Z</time>
      </trkpt>
      <trkpt lat="42.976486869156360626220703125" lon="-2.38881667144596576690673828125">
        <ele>775.5999755859375</ele>
        <time>2022-04-17T16:12:33.000Z</time>
      </trkpt>
      <trkpt lat="42.9764927364885807037353515625" lon="-2.3888204433023929595947265625">
        <ele>775.5999755859375</ele>
        <time>2022-04-17T16:12:34.000Z</time>
      </trkpt>
      <trkpt lat="42.97649659216403961181640625" lon="-2.3888241313397884368896484375">
        <ele>775.5999755859375</ele>
        <time>2022-04-17T16:12:35.000Z</time>
      </trkpt>
      <trkpt lat="42.9764984361827373504638671875" lon="-2.3888305015861988067626953125">
        <ele>775.4000244140625</ele>
        <time>2022-04-17T16:12:36.000Z</time>
      </trkpt>
      <trkpt lat="42.97650195658206939697265625" lon="-2.38883695565164089202880859375">
        <ele>775.4000244140625</ele>
        <time>2022-04-17T16:12:37.000Z</time>
      </trkpt>
      <trkpt lat="42.97650908119976520538330078125" lon="-2.38884684629738330841064453125">
        <ele>775.4000244140625</ele>
        <time>2022-04-17T16:12:38.000Z</time>
      </trkpt>
      <trkpt lat="42.976520396769046783447265625" lon="-2.38886361010372638702392578125">
        <ele>775.4000244140625</ele>
        <time>2022-04-17T16:12:39.000Z</time>
      </trkpt>
      <trkpt lat="42.9765336401760578155517578125" lon="-2.38888054154813289642333984375">
        <ele>775.20001220703125</ele>
        <time>2022-04-17T16:12:40.000Z</time>
      </trkpt>
      <trkpt lat="42.97654210589826107025146484375" lon="-2.38889227621257305145263671875">
        <ele>775.20001220703125</ele>
        <time>2022-04-17T16:12:41.000Z</time>
      </trkpt>
      <trkpt lat="42.976546548306941986083984375" lon="-2.388898395001888275146484375">
        <ele>775</ele>
        <time>2022-04-17T16:12:42.000Z</time>
      </trkpt>
      <trkpt lat="42.9765581153333187103271484375" lon="-2.3888995684683322906494140625">
        <ele>774.79998779296875</ele>
        <time>2022-04-17T16:12:43.000Z</time>
      </trkpt>
      <trkpt lat="42.9765668325126171112060546875" lon="-2.388898395001888275146484375">
        <ele>774.5999755859375</ele>
        <time>2022-04-17T16:12:44.000Z</time>
      </trkpt>
      <trkpt lat="42.97656876035034656524658203125" lon="-2.38890099339187145233154296875">
        <ele>774.5999755859375</ele>
        <time>2022-04-17T16:12:45.000Z</time>
      </trkpt>
      <trkpt lat="42.9765737056732177734375" lon="-2.38890476524829864501953125">
        <ele>774.5999755859375</ele>
        <time>2022-04-17T16:12:46.000Z</time>
      </trkpt>
      <trkpt lat="42.97658015973865985870361328125" lon="-2.38890518434345722198486328125">
        <ele>774.4000244140625</ele>
        <time>2022-04-17T16:12:47.000Z</time>
      </trkpt>
      <trkpt lat="42.97659256495535373687744140625" lon="-2.38890736363828182220458984375">
        <ele>774.20001220703125</ele>
        <time>2022-04-17T16:12:48.000Z</time>
      </trkpt>
      <trkpt lat="42.97660429961979389190673828125" lon="-2.38891658373177051544189453125">
        <ele>774.20001220703125</ele>
        <time>2022-04-17T16:12:49.000Z</time>
      </trkpt>
      <trkpt lat="42.97661737538874149322509765625" lon="-2.3889307491481304168701171875">
        <ele>774</ele>
        <time>2022-04-17T16:12:50.000Z</time>
      </trkpt>
      <trkpt lat="42.97662659548223018646240234375" lon="-2.388945333659648895263671875">
        <ele>773.79998779296875</ele>
        <time>2022-04-17T16:12:51.000Z</time>
      </trkpt>
      <trkpt lat="42.97663195990025997161865234375" lon="-2.38894893787801265716552734375">
        <ele>773.5999755859375</ele>
        <time>2022-04-17T16:12:52.000Z</time>
      </trkpt>
      <trkpt lat="42.9766375757753849029541015625" lon="-2.38895782269537448883056640625">
        <ele>773.5999755859375</ele>
        <time>2022-04-17T16:12:53.000Z</time>
      </trkpt>
      <trkpt lat="42.97664738260209560394287109375" lon="-2.3889612592756748199462890625">
        <ele>773.4000244140625</ele>
        <time>2022-04-17T16:12:54.000Z</time>
      </trkpt>
      <trkpt lat="42.97665224410593509674072265625" lon="-2.38896553404629230499267578125">
        <ele>773.4000244140625</ele>
        <time>2022-04-17T16:12:55.000Z</time>
      </trkpt>
      <trkpt lat="42.976657189428806304931640625" lon="-2.3889770172536373138427734375">
        <ele>773.4000244140625</ele>
        <time>2022-04-17T16:12:56.000Z</time>
      </trkpt>
      <trkpt lat="42.97666213475167751312255859375" lon="-2.3889957927167415618896484375">
        <ele>773.20001220703125</ele>
        <time>2022-04-17T16:12:57.000Z</time>
      </trkpt>
      <trkpt lat="42.97667135484516620635986328125" lon="-2.3890108801424503326416015625">
        <ele>773.20001220703125</ele>
        <time>2022-04-17T16:12:58.000Z</time>
      </trkpt>
      <trkpt lat="42.9766861908137798309326171875" lon="-2.38901834003627300262451171875">
        <ele>773.20001220703125</ele>
        <time>2022-04-17T16:12:59.000Z</time>
      </trkpt>
      <trkpt lat="42.976702116429805755615234375" lon="-2.389029152691364288330078125">
        <ele>773</ele>
        <time>2022-04-17T16:13:00.000Z</time>
      </trkpt>
      <trkpt lat="42.9767133481800556182861328125" lon="-2.389040887355804443359375">
        <ele>772.79998779296875</ele>
        <time>2022-04-17T16:13:01.000Z</time>
      </trkpt>
      <trkpt lat="42.9767197184264659881591796875" lon="-2.38904817961156368255615234375">
        <ele>772.79998779296875</ele>
        <time>2022-04-17T16:13:02.000Z</time>
      </trkpt>
      <trkpt lat="42.97672131098806858062744140625" lon="-2.38905136473476886749267578125">
        <ele>772.5999755859375</ele>
        <time>2022-04-17T16:13:03.000Z</time>
      </trkpt>
      <trkpt lat="42.9767224006354808807373046875" lon="-2.38905756734311580657958984375">
        <ele>772.4000244140625</ele>
        <time>2022-04-17T16:13:04.000Z</time>
      </trkpt>
      <trkpt lat="42.97672885470092296600341796875" lon="-2.389068044722080230712890625">
        <ele>772.20001220703125</ele>
        <time>2022-04-17T16:13:05.000Z</time>
      </trkpt>
      <trkpt lat="42.97673203982412815093994140625" lon="-2.38907952792942523956298828125">
        <ele>772.20001220703125</ele>
        <time>2022-04-17T16:13:06.000Z</time>
      </trkpt>
      <trkpt lat="42.97673757188022136688232421875" lon="-2.38909226842224597930908203125">
        <ele>772.20001220703125</ele>
        <time>2022-04-17T16:13:07.000Z</time>
      </trkpt>
      <trkpt lat="42.97673991881310939788818359375" lon="-2.38910802640020847320556640625">
        <ele>772.20001220703125</ele>
        <time>2022-04-17T16:13:08.000Z</time>
      </trkpt>
      <trkpt lat="42.97674075700342655181884765625" lon="-2.38912395201623439788818359375">
        <ele>772.20001220703125</ele>
        <time>2022-04-17T16:13:09.000Z</time>
      </trkpt>
      <trkpt lat="42.97673530876636505126953125" lon="-2.38913484849035739898681640625">
        <ele>772.20001220703125</ele>
        <time>2022-04-17T16:13:10.000Z</time>
      </trkpt>
      <trkpt lat="42.97673086635768413543701171875" lon="-2.38914356566965579986572265625">
        <ele>772.20001220703125</ele>
        <time>2022-04-17T16:13:11.000Z</time>
      </trkpt>
      <trkpt lat="42.97672248445451259613037109375" lon="-2.38915395922958850860595703125">
        <ele>772.20001220703125</ele>
        <time>2022-04-17T16:13:12.000Z</time>
      </trkpt>
      <trkpt lat="42.9767200537025928497314453125" lon="-2.389160580933094024658203125">
        <ele>772.20001220703125</ele>
        <time>2022-04-17T16:13:13.000Z</time>
      </trkpt>
      <trkpt lat="42.97672399319708347320556640625" lon="-2.38917558453977108001708984375">
        <ele>772.20001220703125</ele>
        <time>2022-04-17T16:13:14.000Z</time>
      </trkpt>
      <trkpt lat="42.976728267967700958251953125" lon="-2.389186061918735504150390625">
        <ele>772</ele>
        <time>2022-04-17T16:13:15.000Z</time>
      </trkpt>
      <trkpt lat="42.97672533430159091949462890625" lon="-2.3891889117658138275146484375">
        <ele>772</ele>
        <time>2022-04-17T16:13:16.000Z</time>
      </trkpt>
      <trkpt lat="42.97672047279775142669677734375" lon="-2.38919352181255817413330078125">
        <ele>771.79998779296875</ele>
        <time>2022-04-17T16:13:17.000Z</time>
      </trkpt>
      <trkpt lat="42.97671921551227569580078125" lon="-2.389203496277332305908203125">
        <ele>771.79998779296875</ele>
        <time>2022-04-17T16:13:18.000Z</time>
      </trkpt>
      <trkpt lat="42.97671745531260967254638671875" lon="-2.38920785486698150634765625">
        <ele>771.5999755859375</ele>
        <time>2022-04-17T16:13:19.000Z</time>
      </trkpt>
      <trkpt lat="42.976713515818119049072265625" lon="-2.3892143927514553070068359375">
        <ele>771.5999755859375</ele>
        <time>2022-04-17T16:13:20.000Z</time>
      </trkpt>
      <trkpt lat="42.976711504161357879638671875" lon="-2.38922704942524433135986328125">
        <ele>771.4000244140625</ele>
        <time>2022-04-17T16:13:21.000Z</time>
      </trkpt>
      <trkpt lat="42.9767123423516750335693359375" lon="-2.389232330024242401123046875">
        <ele>771.20001220703125</ele>
        <time>2022-04-17T16:13:22.000Z</time>
      </trkpt>
      <trkpt lat="42.97671359963715076446533203125" lon="-2.3892318271100521087646484375">
        <ele>771.20001220703125</ele>
        <time>2022-04-17T16:13:23.000Z</time>
      </trkpt>
      <trkpt lat="42.9767118394374847412109375" lon="-2.38923978991806507110595703125">
        <ele>771</ele>
        <time>2022-04-17T16:13:24.000Z</time>
      </trkpt>
      <trkpt lat="42.97670387662947177886962890625" lon="-2.38924582488834857940673828125">
        <ele>771</ele>
        <time>2022-04-17T16:13:25.000Z</time>
      </trkpt>
      <trkpt lat="42.97670890577137470245361328125" lon="-2.3892583139240741729736328125">
        <ele>770.79998779296875</ele>
        <time>2022-04-17T16:13:26.000Z</time>
      </trkpt>
      <trkpt lat="42.9767069779336452484130859375" lon="-2.3892663605511188507080078125">
        <ele>770.79998779296875</ele>
        <time>2022-04-17T16:13:27.000Z</time>
      </trkpt>
      <trkpt lat="42.9766985960304737091064453125" lon="-2.38926820456981658935546875">
        <ele>770.5999755859375</ele>
        <time>2022-04-17T16:13:28.000Z</time>
      </trkpt>
      <trkpt lat="42.97669013030827045440673828125" lon="-2.3892688751220703125">
        <ele>770.4000244140625</ele>
        <time>2022-04-17T16:13:29.000Z</time>
      </trkpt>
      <trkpt lat="42.976684011518955230712890625" lon="-2.38927449099719524383544921875">
        <ele>770.20001220703125</ele>
        <time>2022-04-17T16:13:30.000Z</time>
      </trkpt>
      <trkpt lat="42.97668292187154293060302734375" lon="-2.38928706385195255279541015625">
        <ele>770</ele>
        <time>2022-04-17T16:13:31.000Z</time>
      </trkpt>
      <trkpt lat="42.9766841791570186614990234375" lon="-2.38929770886898040771484375">
        <ele>770</ele>
        <time>2022-04-17T16:13:32.000Z</time>
      </trkpt>
      <trkpt lat="42.97668744809925556182861328125" lon="-2.38931220956146717071533203125">
        <ele>770</ele>
        <time>2022-04-17T16:13:33.000Z</time>
      </trkpt>
      <trkpt lat="42.9766882024705410003662109375" lon="-2.38932461477816104888916015625">
        <ele>769.79998779296875</ele>
        <time>2022-04-17T16:13:34.000Z</time>
      </trkpt>
      <trkpt lat="42.97668929211795330047607421875" lon="-2.3893310688436031341552734375">
        <ele>769.5999755859375</ele>
        <time>2022-04-17T16:13:35.000Z</time>
      </trkpt>
      <trkpt lat="42.97669046558439731597900390625" lon="-2.3893345892429351806640625">
        <ele>769.5999755859375</ele>
        <time>2022-04-17T16:13:36.000Z</time>
      </trkpt>
      <trkpt lat="42.976690717041492462158203125" lon="-2.3893354274332523345947265625">
        <ele>769.5999755859375</ele>
        <time>2022-04-17T16:13:37.000Z</time>
      </trkpt>
      <trkpt lat="42.97668962739408016204833984375" lon="-2.3893372714519500732421875">
        <ele>769.5999755859375</ele>
        <time>2022-04-17T16:13:38.000Z</time>
      </trkpt>
      <trkpt lat="42.97669113613665103912353515625" lon="-2.38934070803225040435791015625">
        <ele>769.4000244140625</ele>
        <time>2022-04-17T16:13:39.000Z</time>
      </trkpt>
      <trkpt lat="42.97669499181210994720458984375" lon="-2.38934724591672420501708984375">
        <ele>769.4000244140625</ele>
        <time>2022-04-17T16:13:40.000Z</time>
      </trkpt>
      <trkpt lat="42.9766952432692050933837890625" lon="-2.38934892229735851287841796875">
        <ele>769.20001220703125</ele>
        <time>2022-04-17T16:13:41.000Z</time>
      </trkpt>
      <trkpt lat="42.9766912199556827545166015625" lon="-2.3893451504409313201904296875">
        <ele>769.20001220703125</ele>
        <time>2022-04-17T16:13:42.000Z</time>
      </trkpt>
      <trkpt lat="42.97668543644249439239501953125" lon="-2.389342971146106719970703125">
        <ele>769</ele>
        <time>2022-04-17T16:13:43.000Z</time>
      </trkpt>
      <trkpt lat="42.97668107785284519195556640625" lon="-2.38934506662189960479736328125">
        <ele>769</ele>
        <time>2022-04-17T16:13:44.000Z</time>
      </trkpt>
      <trkpt lat="42.97667604871094226837158203125" lon="-2.3893488384783267974853515625">
        <ele>768.79998779296875</ele>
        <time>2022-04-17T16:13:45.000Z</time>
      </trkpt>
      <trkpt lat="42.97666431404650211334228515625" lon="-2.38935294561088085174560546875">
        <ele>768.5999755859375</ele>
        <time>2022-04-17T16:13:46.000Z</time>
      </trkpt>
      <trkpt lat="42.9766553454101085662841796875" lon="-2.389353699982166290283203125">
        <ele>768.4000244140625</ele>
        <time>2022-04-17T16:13:47.000Z</time>
      </trkpt>
      <trkpt lat="42.97664771787822246551513671875" lon="-2.38935512490570545196533203125">
        <ele>768.4000244140625</ele>
        <time>2022-04-17T16:13:48.000Z</time>
      </trkpt>
      <trkpt lat="42.97663866542279720306396484375" lon="-2.38935730420053005218505859375">
        <ele>768.20001220703125</ele>
        <time>2022-04-17T16:13:49.000Z</time>
      </trkpt>
      <trkpt lat="42.97663112170994281768798828125" lon="-2.3893645964562892913818359375">
        <ele>768</ele>
        <time>2022-04-17T16:13:50.000Z</time>
      </trkpt>
      <trkpt lat="42.97662542201578617095947265625" lon="-2.389373816549777984619140625">
        <ele>767.79998779296875</ele>
        <time>2022-04-17T16:13:51.000Z</time>
      </trkpt>
      <trkpt lat="42.97661871649324893951416015625" lon="-2.38938211463391780853271484375">
        <ele>767.79998779296875</ele>
        <time>2022-04-17T16:13:52.000Z</time>
      </trkpt>
      <trkpt lat="42.97660932876169681549072265625" lon="-2.38938890397548675537109375">
        <ele>767.5999755859375</ele>
        <time>2022-04-17T16:13:53.000Z</time>
      </trkpt>
      <trkpt lat="42.97660228796303272247314453125" lon="-2.3893962800502777099609375">
        <ele>767.4000244140625</ele>
        <time>2022-04-17T16:13:54.000Z</time>
      </trkpt>
      <trkpt lat="42.9765906371176242828369140625" lon="-2.38939829170703887939453125">
        <ele>767.20001220703125</ele>
        <time>2022-04-17T16:13:55.000Z</time>
      </trkpt>
      <trkpt lat="42.97657730989158153533935546875" lon="-2.38940206356346607208251953125">
        <ele>767</ele>
        <time>2022-04-17T16:13:56.000Z</time>
      </trkpt>
      <trkpt lat="42.97656188718974590301513671875" lon="-2.38940809853374958038330078125">
        <ele>766.79998779296875</ele>
        <time>2022-04-17T16:13:57.000Z</time>
      </trkpt>
      <trkpt lat="42.97653825022280216217041015625" lon="-2.389422766864299774169921875">
        <ele>766.79998779296875</ele>
        <time>2022-04-17T16:13:58.000Z</time>
      </trkpt>
      <trkpt lat="42.97653171233832836151123046875" lon="-2.38943726755678653717041015625">
        <ele>766.4000244140625</ele>
        <time>2022-04-17T16:13:59.000Z</time>
      </trkpt>
      <trkpt lat="42.97652534209191799163818359375" lon="-2.38944984041154384613037109375">
        <ele>766.20001220703125</ele>
        <time>2022-04-17T16:14:00.000Z</time>
      </trkpt>
      <trkpt lat="42.97651846893131732940673828125" lon="-2.38946174271404743194580078125">
        <ele>766</ele>
        <time>2022-04-17T16:14:01.000Z</time>
      </trkpt>
      <trkpt lat="42.97651134431362152099609375" lon="-2.38948269747197628021240234375">
        <ele>765.79998779296875</ele>
        <time>2022-04-17T16:14:02.000Z</time>
      </trkpt>
      <trkpt lat="42.976506985723972320556640625" lon="-2.3894973658025264739990234375">
        <ele>765.5999755859375</ele>
        <time>2022-04-17T16:14:03.000Z</time>
      </trkpt>
      <trkpt lat="42.9764994420111179351806640625" lon="-2.38950750790536403656005859375">
        <ele>765.5999755859375</ele>
        <time>2022-04-17T16:14:04.000Z</time>
      </trkpt>
      <trkpt lat="42.9764927364885807037353515625" lon="-2.38951672799885272979736328125">
        <ele>765.4000244140625</ele>
        <time>2022-04-17T16:14:05.000Z</time>
      </trkpt>
      <trkpt lat="42.97648745588958263397216796875" lon="-2.389530055224895477294921875">
        <ele>765.4000244140625</ele>
        <time>2022-04-17T16:14:06.000Z</time>
      </trkpt>
      <trkpt lat="42.97648427076637744903564453125" lon="-2.38954455591738224029541015625">
        <ele>765.20001220703125</ele>
        <time>2022-04-17T16:14:07.000Z</time>
      </trkpt>
      <trkpt lat="42.97648427076637744903564453125" lon="-2.38956031389534473419189453125">
        <ele>765</ele>
        <time>2022-04-17T16:14:08.000Z</time>
      </trkpt>
      <trkpt lat="42.97648360021412372589111328125" lon="-2.3895754851400852203369140625">
        <ele>765</ele>
        <time>2022-04-17T16:14:09.000Z</time>
      </trkpt>
      <trkpt lat="42.97648544423282146453857421875" lon="-2.389595098793506622314453125">
        <ele>764.79998779296875</ele>
        <time>2022-04-17T16:14:10.000Z</time>
      </trkpt>
      <trkpt lat="42.976482845842838287353515625" lon="-2.38961395807564258575439453125">
        <ele>764.79998779296875</ele>
        <time>2022-04-17T16:14:11.000Z</time>
      </trkpt>
      <trkpt lat="42.9764820076525211334228515625" lon="-2.38963524810969829559326171875">
        <ele>764.5999755859375</ele>
        <time>2022-04-17T16:14:12.000Z</time>
      </trkpt>
      <trkpt lat="42.976482175290584564208984375" lon="-2.38965712487697601318359375">
        <ele>764.4000244140625</ele>
        <time>2022-04-17T16:14:13.000Z</time>
      </trkpt>
      <trkpt lat="42.976469434797763824462890625" lon="-2.389672882854938507080078125">
        <ele>764.20001220703125</ele>
        <time>2022-04-17T16:14:14.000Z</time>
      </trkpt>
      <trkpt lat="42.97646163962781429290771484375" lon="-2.38968520425260066986083984375">
        <ele>764</ele>
        <time>2022-04-17T16:14:15.000Z</time>
      </trkpt>
      <trkpt lat="42.97645367681980133056640625" lon="-2.3896951787173748016357421875">
        <ele>764</ele>
        <time>2022-04-17T16:14:16.000Z</time>
      </trkpt>
      <trkpt lat="42.97645057551562786102294921875" lon="-2.389717809855937957763671875">
        <ele>763.79998779296875</ele>
        <time>2022-04-17T16:14:17.000Z</time>
      </trkpt>
      <trkpt lat="42.97644906677305698394775390625" lon="-2.38972174935042858123779296875">
        <ele>763.79998779296875</ele>
        <time>2022-04-17T16:14:18.000Z</time>
      </trkpt>
      <trkpt lat="42.97644688747823238372802734375" lon="-2.38972610794007778167724609375">
        <ele>763.79998779296875</ele>
        <time>2022-04-17T16:14:19.000Z</time>
      </trkpt>
      <trkpt lat="42.97644521109759807586669921875" lon="-2.389729209244251251220703125">
        <ele>763.5999755859375</ele>
        <time>2022-04-17T16:14:20.000Z</time>
      </trkpt>
      <trkpt lat="42.9764457978308200836181640625" lon="-2.38973163999617099761962890625">
        <ele>763.5999755859375</ele>
        <time>2022-04-17T16:14:21.000Z</time>
      </trkpt>
      <trkpt lat="42.9764434508979320526123046875" lon="-2.389733903110027313232421875">
        <ele>763.5999755859375</ele>
        <time>2022-04-17T16:14:22.000Z</time>
      </trkpt>
      <trkpt lat="42.97643917612731456756591796875" lon="-2.3897481523454189300537109375">
        <ele>763.4000244140625</ele>
        <time>2022-04-17T16:14:23.000Z</time>
      </trkpt>
      <trkpt lat="42.9764343984425067901611328125" lon="-2.38976449705660343170166015625">
        <ele>763.4000244140625</ele>
        <time>2022-04-17T16:14:24.000Z</time>
      </trkpt>
      <trkpt lat="42.9764330573379993438720703125" lon="-2.38978243432939052581787109375">
        <ele>763.20001220703125</ele>
        <time>2022-04-17T16:14:25.000Z</time>
      </trkpt>
      <trkpt lat="42.97642677091062068939208984375" lon="-2.3897947557270526885986328125">
        <ele>763.20001220703125</ele>
        <time>2022-04-17T16:14:26.000Z</time>
      </trkpt>
      <trkpt lat="42.97642157413065433502197265625" lon="-2.389802634716033935546875">
        <ele>763</ele>
        <time>2022-04-17T16:14:27.000Z</time>
      </trkpt>
      <trkpt lat="42.97641344368457794189453125" lon="-2.389809675514698028564453125">
        <ele>763</ele>
        <time>2022-04-17T16:14:28.000Z</time>
      </trkpt>
      <trkpt lat="42.97640740871429443359375" lon="-2.3898279480636119842529296875">
        <ele>762.79998779296875</ele>
        <time>2022-04-17T16:14:29.000Z</time>
      </trkpt>
      <trkpt lat="42.97640942037105560302734375" lon="-2.3898594640195369720458984375">
        <ele>762.5999755859375</ele>
        <time>2022-04-17T16:14:30.000Z</time>
      </trkpt>
      <trkpt lat="42.97640665434300899505615234375" lon="-2.38987631164491176605224609375">
        <ele>762.4000244140625</ele>
        <time>2022-04-17T16:14:31.000Z</time>
      </trkpt>
      <trkpt lat="42.97640782780945301055908203125" lon="-2.38989089615643024444580078125">
        <ele>762.4000244140625</ele>
        <time>2022-04-17T16:14:32.000Z</time>
      </trkpt>
      <trkpt lat="42.97641235403716564178466796875" lon="-2.3899032175540924072265625">
        <ele>762.4000244140625</ele>
        <time>2022-04-17T16:14:33.000Z</time>
      </trkpt>
      <trkpt lat="42.97641201876103878021240234375" lon="-2.3899110965430736541748046875">
        <ele>762.20001220703125</ele>
        <time>2022-04-17T16:14:34.000Z</time>
      </trkpt>
      <trkpt lat="42.97640698961913585662841796875" lon="-2.3899193108081817626953125">
        <ele>762</ele>
        <time>2022-04-17T16:14:35.000Z</time>
      </trkpt>
      <trkpt lat="42.97640279866755008697509765625" lon="-2.3899288661777973175048828125">
        <ele>761.79998779296875</ele>
        <time>2022-04-17T16:14:36.000Z</time>
      </trkpt>
      <trkpt lat="42.9764025472104549407958984375" lon="-2.3899406008422374725341796875">
        <ele>761.5999755859375</ele>
        <time>2022-04-17T16:14:37.000Z</time>
      </trkpt>
      <trkpt lat="42.97640313394367694854736328125" lon="-2.3899550177156925201416015625">
        <ele>761.4000244140625</ele>
        <time>2022-04-17T16:14:38.000Z</time>
      </trkpt>
      <trkpt lat="42.9764020442962646484375" lon="-2.3899831809103488922119140625">
        <ele>761.4000244140625</ele>
        <time>2022-04-17T16:14:39.000Z</time>
      </trkpt>
      <trkpt lat="42.97639793716371059417724609375" lon="-2.3899955861270427703857421875">
        <ele>761.4000244140625</ele>
        <time>2022-04-17T16:14:40.000Z</time>
      </trkpt>
      <trkpt lat="42.9763898067176342010498046875" lon="-2.39001209847629070281982421875">
        <ele>761.20001220703125</ele>
        <time>2022-04-17T16:14:41.000Z</time>
      </trkpt>
      <trkpt lat="42.976384945213794708251953125" lon="-2.3900287784636020660400390625">
        <ele>761</ele>
        <time>2022-04-17T16:14:42.000Z</time>
      </trkpt>
      <trkpt lat="42.9763827659189701080322265625" lon="-2.39004512317478656768798828125">
        <ele>761</ele>
        <time>2022-04-17T16:14:43.000Z</time>
      </trkpt>
      <trkpt lat="42.97638620249927043914794921875" lon="-2.3900653235614299774169921875">
        <ele>760.79998779296875</ele>
        <time>2022-04-17T16:14:44.000Z</time>
      </trkpt>
      <trkpt lat="42.976388633251190185546875" lon="-2.3900810815393924713134765625">
        <ele>760.5999755859375</ele>
        <time>2022-04-17T16:14:45.000Z</time>
      </trkpt>
      <trkpt lat="42.9763846099376678466796875" lon="-2.39009222947061061859130859375">
        <ele>760.5999755859375</ele>
        <time>2022-04-17T16:14:46.000Z</time>
      </trkpt>
      <trkpt lat="42.97637698240578174591064453125" lon="-2.390102706849575042724609375">
        <ele>760.5999755859375</ele>
        <time>2022-04-17T16:14:47.000Z</time>
      </trkpt>
      <trkpt lat="42.97637597657740116119384765625" lon="-2.39011175930500030517578125">
        <ele>760.4000244140625</ele>
        <time>2022-04-17T16:14:48.000Z</time>
      </trkpt>
      <trkpt lat="42.976376898586750030517578125" lon="-2.3901258409023284912109375">
        <ele>760.4000244140625</ele>
        <time>2022-04-17T16:14:49.000Z</time>
      </trkpt>
      <trkpt lat="42.976374216377735137939453125" lon="-2.39013950340449810028076171875">
        <ele>760.20001220703125</ele>
        <time>2022-04-17T16:14:50.000Z</time>
      </trkpt>
      <trkpt lat="42.9763683490455150604248046875" lon="-2.390150986611843109130859375">
        <ele>760</ele>
        <time>2022-04-17T16:14:51.000Z</time>
      </trkpt>
      <trkpt lat="42.9763623140752315521240234375" lon="-2.39016666077077388763427734375">
        <ele>760</ele>
        <time>2022-04-17T16:14:52.000Z</time>
      </trkpt>
      <trkpt lat="42.9763542674481868743896484375" lon="-2.39018619060516357421875">
        <ele>759.79998779296875</ele>
        <time>2022-04-17T16:14:53.000Z</time>
      </trkpt>
      <trkpt lat="42.97634714283049106597900390625" lon="-2.390201948583126068115234375">
        <ele>759.5999755859375</ele>
        <time>2022-04-17T16:14:54.000Z</time>
      </trkpt>
      <trkpt lat="42.97632786445319652557373046875" lon="-2.39021661691367626190185546875">
        <ele>759.4000244140625</ele>
        <time>2022-04-17T16:14:55.000Z</time>
      </trkpt>
      <trkpt lat="42.97632635571062564849853515625" lon="-2.39023572765290737152099609375">
        <ele>759.20001220703125</ele>
        <time>2022-04-17T16:14:56.000Z</time>
      </trkpt>
      <trkpt lat="42.97632694244384765625" lon="-2.39024880342185497283935546875">
        <ele>759</ele>
        <time>2022-04-17T16:14:57.000Z</time>
      </trkpt>
      <trkpt lat="42.97632685862481594085693359375" lon="-2.39025651477277278900146484375">
        <ele>758.79998779296875</ele>
        <time>2022-04-17T16:14:58.000Z</time>
      </trkpt>
      <trkpt lat="42.97632937319576740264892578125" lon="-2.3902651481330394744873046875">
        <ele>758.79998779296875</ele>
        <time>2022-04-17T16:14:59.000Z</time>
      </trkpt>
      <trkpt lat="42.97632887028157711029052734375" lon="-2.3902742005884647369384765625">
        <ele>758.5999755859375</ele>
        <time>2022-04-17T16:15:00.000Z</time>
      </trkpt>
      <trkpt lat="42.97631981782615184783935546875" lon="-2.39028400741517543792724609375">
        <ele>758.5999755859375</ele>
        <time>2022-04-17T16:15:01.000Z</time>
      </trkpt>
      <trkpt lat="42.976310513913631439208984375" lon="-2.39029674790799617767333984375">
        <ele>758.4000244140625</ele>
        <time>2022-04-17T16:15:02.000Z</time>
      </trkpt>
      <trkpt lat="42.9763029702007770538330078125" lon="-2.3903110809624195098876953125">
        <ele>758.20001220703125</ele>
        <time>2022-04-17T16:15:03.000Z</time>
      </trkpt>
      <trkpt lat="42.97629735432565212249755859375" lon="-2.39032256416976451873779296875">
        <ele>758.20001220703125</ele>
        <time>2022-04-17T16:15:04.000Z</time>
      </trkpt>
      <trkpt lat="42.97629500739276409149169921875" lon="-2.3903318680822849273681640625">
        <ele>758</ele>
        <time>2022-04-17T16:15:05.000Z</time>
      </trkpt>
      <trkpt lat="42.97629416920244693756103515625" lon="-2.39034653641283512115478515625">
        <ele>758</ele>
        <time>2022-04-17T16:15:06.000Z</time>
      </trkpt>
      <trkpt lat="42.9762912355363368988037109375" lon="-2.39036028273403644561767578125">
        <ele>758</ele>
        <time>2022-04-17T16:15:07.000Z</time>
      </trkpt>
      <trkpt lat="42.97628729604184627532958984375" lon="-2.3903677426278591156005859375">
        <ele>757.79998779296875</ele>
        <time>2022-04-17T16:15:08.000Z</time>
      </trkpt>
      <trkpt lat="42.97627866268157958984375" lon="-2.39038341678678989410400390625">
        <ele>757.5999755859375</ele>
        <time>2022-04-17T16:15:09.000Z</time>
      </trkpt>
      <trkpt lat="42.9762719571590423583984375" lon="-2.39039632491767406463623046875">
        <ele>757.5999755859375</ele>
        <time>2022-04-17T16:15:10.000Z</time>
      </trkpt>
      <trkpt lat="42.97626466490328311920166015625" lon="-2.3904029466211795806884765625">
        <ele>757.5999755859375</ele>
        <time>2022-04-17T16:15:11.000Z</time>
      </trkpt>
      <trkpt lat="42.97625963576138019561767578125" lon="-2.3904183693230152130126953125">
        <ele>757.5999755859375</ele>
        <time>2022-04-17T16:15:12.000Z</time>
      </trkpt>
      <trkpt lat="42.976256199181079864501953125" lon="-2.39042800851166248321533203125">
        <ele>757.5999755859375</ele>
        <time>2022-04-17T16:15:13.000Z</time>
      </trkpt>
      <trkpt lat="42.97625192441046237945556640625" lon="-2.390435971319675445556640625">
        <ele>757.5999755859375</ele>
        <time>2022-04-17T16:15:14.000Z</time>
      </trkpt>
      <trkpt lat="42.97624647617340087890625" lon="-2.39044946618378162384033203125">
        <ele>757.5999755859375</ele>
        <time>2022-04-17T16:15:15.000Z</time>
      </trkpt>
      <trkpt lat="42.97624018974602222442626953125" lon="-2.39046371541917324066162109375">
        <ele>757.4000244140625</ele>
        <time>2022-04-17T16:15:16.000Z</time>
      </trkpt>
      <trkpt lat="42.97623666934669017791748046875" lon="-2.3904773779213428497314453125">
        <ele>757.4000244140625</ele>
        <time>2022-04-17T16:15:17.000Z</time>
      </trkpt>
      <trkpt lat="42.976234741508960723876953125" lon="-2.3904944770038127899169921875">
        <ele>757.20001220703125</ele>
        <time>2022-04-17T16:15:18.000Z</time>
      </trkpt>
      <trkpt lat="42.97623482532799243927001953125" lon="-2.3905093967914581298828125">
        <ele>756.79998779296875</ele>
        <time>2022-04-17T16:15:19.000Z</time>
      </trkpt>
      <trkpt lat="42.97623096965253353118896484375" lon="-2.39052339456975460052490234375">
        <ele>756.5999755859375</ele>
        <time>2022-04-17T16:15:20.000Z</time>
      </trkpt>
      <trkpt lat="42.976227700710296630859375" lon="-2.390543259680271148681640625">
        <ele>756.5999755859375</ele>
        <time>2022-04-17T16:15:21.000Z</time>
      </trkpt>
      <trkpt lat="42.97623641788959503173828125" lon="-2.39056144841015338897705078125">
        <ele>756.4000244140625</ele>
        <time>2022-04-17T16:15:22.000Z</time>
      </trkpt>
      <trkpt lat="42.97624303959310054779052734375" lon="-2.39057100377976894378662109375">
        <ele>756.20001220703125</ele>
        <time>2022-04-17T16:15:23.000Z</time>
      </trkpt>
      <trkpt lat="42.97624714672565460205078125" lon="-2.3905818164348602294921875">
        <ele>756.20001220703125</ele>
        <time>2022-04-17T16:15:24.000Z</time>
      </trkpt>
      <trkpt lat="42.9762489907443523406982421875" lon="-2.39059078507125377655029296875">
        <ele>756</ele>
        <time>2022-04-17T16:15:25.000Z</time>
      </trkpt>
      <trkpt lat="42.9762531816959381103515625" lon="-2.39060201682150363922119140625">
        <ele>756</ele>
        <time>2022-04-17T16:15:26.000Z</time>
      </trkpt>
      <trkpt lat="42.9762590490281581878662109375" lon="-2.3906071297824382781982421875">
        <ele>755.79998779296875</ele>
        <time>2022-04-17T16:15:27.000Z</time>
      </trkpt>
      <trkpt lat="42.9762691073119640350341796875" lon="-2.39060939289629459381103515625">
        <ele>755.79998779296875</ele>
        <time>2022-04-17T16:15:28.000Z</time>
      </trkpt>
      <trkpt lat="42.97627824358642101287841796875" lon="-2.39062246866524219512939453125">
        <ele>755.5999755859375</ele>
        <time>2022-04-17T16:15:29.000Z</time>
      </trkpt>
      <trkpt lat="42.9762835241854190826416015625" lon="-2.390637807548046112060546875">
        <ele>755.5999755859375</ele>
        <time>2022-04-17T16:15:30.000Z</time>
      </trkpt>
      <trkpt lat="42.97627539373934268951416015625" lon="-2.39065222442150115966796875">
        <ele>755.4000244140625</ele>
        <time>2022-04-17T16:15:31.000Z</time>
      </trkpt>
      <trkpt lat="42.9762719571590423583984375" lon="-2.3906644620001316070556640625">
        <ele>755.20001220703125</ele>
        <time>2022-04-17T16:15:32.000Z</time>
      </trkpt>
      <trkpt lat="42.9762758128345012664794921875" lon="-2.39067410118877887725830078125">
        <ele>755</ele>
        <time>2022-04-17T16:15:33.000Z</time>
      </trkpt>
      <trkpt lat="42.97627723775804042816162109375" lon="-2.3906818963587284088134765625">
        <ele>755</ele>
        <time>2022-04-17T16:15:34.000Z</time>
      </trkpt>
      <trkpt lat="42.9762778244912624359130859375" lon="-2.3906837403774261474609375">
        <ele>755</ele>
        <time>2022-04-17T16:15:35.000Z</time>
      </trkpt>
      <trkpt lat="42.9762818478047847747802734375" lon="-2.390683405101299285888671875">
        <ele>754.79998779296875</ele>
        <time>2022-04-17T16:15:36.000Z</time>
      </trkpt>
      <trkpt lat="42.97628561966121196746826171875" lon="-2.390685416758060455322265625">
        <ele>754.5999755859375</ele>
        <time>2022-04-17T16:15:37.000Z</time>
      </trkpt>
      <trkpt lat="42.9762925766408443450927734375" lon="-2.39068600349128246307373046875">
        <ele>754.4000244140625</ele>
        <time>2022-04-17T16:15:38.000Z</time>
      </trkpt>
      <trkpt lat="42.97630037181079387664794921875" lon="-2.39069371484220027923583984375">
        <ele>754.4000244140625</ele>
        <time>2022-04-17T16:15:39.000Z</time>
      </trkpt>
      <trkpt lat="42.9763029702007770538330078125" lon="-2.39069522358477115631103515625">
        <ele>754.4000244140625</ele>
        <time>2022-04-17T16:15:40.000Z</time>
      </trkpt>
      <trkpt lat="42.97631110064685344696044921875" lon="-2.39070310257375240325927734375">
        <ele>754.20001220703125</ele>
        <time>2022-04-17T16:15:41.000Z</time>
      </trkpt>
      <trkpt lat="42.9763200692832469940185546875" lon="-2.390718273818492889404296875">
        <ele>754.20001220703125</ele>
        <time>2022-04-17T16:15:42.000Z</time>
      </trkpt>
      <trkpt lat="42.97632082365453243255615234375" lon="-2.39074031822383403778076171875">
        <ele>753.79998779296875</ele>
        <time>2022-04-17T16:15:43.000Z</time>
      </trkpt>
      <trkpt lat="42.97631554305553436279296875" lon="-2.39075909368693828582763671875">
        <ele>753.79998779296875</ele>
        <time>2022-04-17T16:15:44.000Z</time>
      </trkpt>
      <trkpt lat="42.97631462104618549346923828125" lon="-2.39077568985521793365478515625">
        <ele>753.5999755859375</ele>
        <time>2022-04-17T16:15:45.000Z</time>
      </trkpt>
      <trkpt lat="42.97631428577005863189697265625" lon="-2.39078633487224578857421875">
        <ele>753.5999755859375</ele>
        <time>2022-04-17T16:15:46.000Z</time>
      </trkpt>
      <trkpt lat="42.9763090051710605621337890625" lon="-2.390800751745700836181640625">
        <ele>753.4000244140625</ele>
        <time>2022-04-17T16:15:47.000Z</time>
      </trkpt>
      <trkpt lat="42.97630422748625278472900390625" lon="-2.3908106423914432525634765625">
        <ele>753.20001220703125</ele>
        <time>2022-04-17T16:15:48.000Z</time>
      </trkpt>
      <trkpt lat="42.97629752196371555328369140625" lon="-2.39081583917140960693359375">
        <ele>753</ele>
        <time>2022-04-17T16:15:49.000Z</time>
      </trkpt>
      <trkpt lat="42.976291738450527191162109375" lon="-2.39081718027591705322265625">
        <ele>753</ele>
        <time>2022-04-17T16:15:50.000Z</time>
      </trkpt>
      <trkpt lat="42.97629006206989288330078125" lon="-2.390823550522327423095703125">
        <ele>752.79998779296875</ele>
        <time>2022-04-17T16:15:51.000Z</time>
      </trkpt>
      <trkpt lat="42.97628830187022686004638671875" lon="-2.3908287473022937774658203125">
        <ele>752.79998779296875</ele>
        <time>2022-04-17T16:15:52.000Z</time>
      </trkpt>
      <trkpt lat="42.9762935824692249298095703125" lon="-2.39083369262516498565673828125">
        <ele>752.5999755859375</ele>
        <time>2022-04-17T16:15:53.000Z</time>
      </trkpt>
      <trkpt lat="42.9762986116111278533935546875" lon="-2.39084140397608280181884765625">
        <ele>752.5999755859375</ele>
        <time>2022-04-17T16:15:54.000Z</time>
      </trkpt>
      <trkpt lat="42.9763026349246501922607421875" lon="-2.39084810949862003326416015625">
        <ele>752.5999755859375</ele>
        <time>2022-04-17T16:15:55.000Z</time>
      </trkpt>
      <trkpt lat="42.9763012938201427459716796875" lon="-2.390854395925998687744140625">
        <ele>752.5999755859375</ele>
        <time>2022-04-17T16:15:56.000Z</time>
      </trkpt>
      <trkpt lat="42.97629718668758869171142578125" lon="-2.390860430896282196044921875">
        <ele>752.5999755859375</ele>
        <time>2022-04-17T16:15:57.000Z</time>
      </trkpt>
      <trkpt lat="42.97629752196371555328369140625" lon="-2.390854395925998687744140625">
        <ele>752.5999755859375</ele>
        <time>2022-04-17T16:15:58.000Z</time>
      </trkpt>
      <trkpt lat="42.97629266045987606048583984375" lon="-2.3908500373363494873046875">
        <ele>752.5999755859375</ele>
        <time>2022-04-17T16:15:59.000Z</time>
      </trkpt>
      <trkpt lat="42.97628939151763916015625" lon="-2.39084542728960514068603515625">
        <ele>752.79998779296875</ele>
        <time>2022-04-17T16:16:00.000Z</time>
      </trkpt>
      <trkpt lat="42.97628897242248058319091796875" lon="-2.39084668457508087158203125">
        <ele>752.79998779296875</ele>
        <time>2022-04-17T16:16:01.000Z</time>
      </trkpt>
      <trkpt lat="42.97628863714635372161865234375" lon="-2.39085045643150806427001953125">
        <ele>752.79998779296875</ele>
        <time>2022-04-17T16:16:02.000Z</time>
      </trkpt>
      <trkpt lat="42.9762865416705608367919921875" lon="-2.39085230045020580291748046875">
        <ele>752.5999755859375</ele>
        <time>2022-04-17T16:16:03.000Z</time>
      </trkpt>
      <trkpt lat="42.9762865416705608367919921875" lon="-2.39085230045020580291748046875">
        <ele>752.5999755859375</ele>
        <time>2022-04-17T16:16:04.000Z</time>
      </trkpt>
      <trkpt lat="42.9762865416705608367919921875" lon="-2.39085230045020580291748046875">
        <ele>752.5999755859375</ele>
        <time>2022-04-17T16:16:05.000Z</time>
      </trkpt>
      <trkpt lat="42.9762865416705608367919921875" lon="-2.39085230045020580291748046875">
        <ele>752.5999755859375</ele>
        <time>2022-04-17T16:16:06.000Z</time>
      </trkpt>
      <trkpt lat="42.9762865416705608367919921875" lon="-2.39085230045020580291748046875">
        <ele>752.5999755859375</ele>
        <time>2022-04-17T16:16:07.000Z</time>
      </trkpt>
      <trkpt lat="42.9762865416705608367919921875" lon="-2.39085230045020580291748046875">
        <ele>752.4000244140625</ele>
        <time>2022-04-17T16:16:08.000Z</time>
      </trkpt>
      <trkpt lat="42.9762865416705608367919921875" lon="-2.39085230045020580291748046875">
        <ele>752.4000244140625</ele>
        <time>2022-04-17T16:16:09.000Z</time>
      </trkpt>
      <trkpt lat="42.9762865416705608367919921875" lon="-2.39085230045020580291748046875">
        <ele>752.4000244140625</ele>
        <time>2022-04-17T16:16:10.000Z</time>
      </trkpt>
      <trkpt lat="42.9762865416705608367919921875" lon="-2.39085230045020580291748046875">
        <ele>752.4000244140625</ele>
        <time>2022-04-17T16:16:11.000Z</time>
      </trkpt>
      <trkpt lat="42.97628662548959255218505859375" lon="-2.39085230045020580291748046875">
        <ele>752.4000244140625</ele>
        <time>2022-04-17T16:16:12.000Z</time>
      </trkpt>
      <trkpt lat="42.97628830187022686004638671875" lon="-2.39085230045020580291748046875">
        <ele>752.4000244140625</ele>
        <time>2022-04-17T16:16:13.000Z</time>
      </trkpt>
      <trkpt lat="42.97628863714635372161865234375" lon="-2.39085230045020580291748046875">
        <ele>752.4000244140625</ele>
        <time>2022-04-17T16:16:14.000Z</time>
      </trkpt>
      <trkpt lat="42.97628997825086116790771484375" lon="-2.3908569104969501495361328125">
        <ele>752.20001220703125</ele>
        <time>2022-04-17T16:16:15.000Z</time>
      </trkpt>
      <trkpt lat="42.97630221582949161529541015625" lon="-2.39087509922683238983154296875">
        <ele>752.20001220703125</ele>
        <time>2022-04-17T16:16:16.000Z</time>
      </trkpt>
      <trkpt lat="42.976315207779407501220703125" lon="-2.39089219830930233001708984375">
        <ele>752.20001220703125</ele>
        <time>2022-04-17T16:16:17.000Z</time>
      </trkpt>
      <trkpt lat="42.97631730325520038604736328125" lon="-2.39091684110462665557861328125">
        <ele>752</ele>
        <time>2022-04-17T16:16:18.000Z</time>
      </trkpt>
      <trkpt lat="42.97632065601646900177001953125" lon="-2.39094198681414127349853515625">
        <ele>752</ele>
        <time>2022-04-17T16:16:19.000Z</time>
      </trkpt>
      <trkpt lat="42.97632467932999134063720703125" lon="-2.39096964709460735321044921875">
        <ele>751.5999755859375</ele>
        <time>2022-04-17T16:16:20.000Z</time>
      </trkpt>
      <trkpt lat="42.9763274453580379486083984375" lon="-2.3909933678805828094482421875">
        <ele>751.4000244140625</ele>
        <time>2022-04-17T16:16:21.000Z</time>
      </trkpt>
      <trkpt lat="42.97632954083383083343505859375" lon="-2.3910205252468585968017578125">
        <ele>751.20001220703125</ele>
        <time>2022-04-17T16:16:22.000Z</time>
      </trkpt>
      <trkpt lat="42.97633188776671886444091796875" lon="-2.39104173146188259124755859375">
        <ele>751</ele>
        <time>2022-04-17T16:16:23.000Z</time>
      </trkpt>
      <trkpt lat="42.97633892856538295745849609375" lon="-2.3910647816956043243408203125">
        <ele>751</ele>
        <time>2022-04-17T16:16:24.000Z</time>
      </trkpt>
      <trkpt lat="42.97634102404117584228515625" lon="-2.39107576198875904083251953125">
        <ele>750.5999755859375</ele>
        <time>2022-04-17T16:16:25.000Z</time>
      </trkpt>
      <trkpt lat="42.97634630464017391204833984375" lon="-2.391079030930995941162109375">
        <ele>750.4000244140625</ele>
        <time>2022-04-17T16:16:26.000Z</time>
      </trkpt>
      <trkpt lat="42.976348735392093658447265625" lon="-2.39108137786388397216796875">
        <ele>750.20001220703125</ele>
        <time>2022-04-17T16:16:27.000Z</time>
      </trkpt>
      <trkpt lat="42.976348400115966796875" lon="-2.391086407005786895751953125">
        <ele>750</ele>
        <time>2022-04-17T16:16:28.000Z</time>
      </trkpt>
      <trkpt lat="42.976351082324981689453125" lon="-2.39110141061246395111083984375">
        <ele>749.79998779296875</ele>
        <time>2022-04-17T16:16:29.000Z</time>
      </trkpt>
      <trkpt lat="42.9763546027243137359619140625" lon="-2.3911160789430141448974609375">
        <ele>749.5999755859375</ele>
        <time>2022-04-17T16:16:30.000Z</time>
      </trkpt>
      <trkpt lat="42.9763524234294891357421875" lon="-2.391128651797771453857421875">
        <ele>749.4000244140625</ele>
        <time>2022-04-17T16:16:31.000Z</time>
      </trkpt>
      <trkpt lat="42.9763509146869182586669921875" lon="-2.39114164374768733978271484375">
        <ele>749.20001220703125</ele>
        <time>2022-04-17T16:16:32.000Z</time>
      </trkpt>
      <trkpt lat="42.976348064839839935302734375" lon="-2.39115807227790355682373046875">
        <ele>749.20001220703125</ele>
        <time>2022-04-17T16:16:33.000Z</time>
      </trkpt>
      <trkpt lat="42.976351417601108551025390625" lon="-2.39117919467389583587646484375">
        <ele>749</ele>
        <time>2022-04-17T16:16:34.000Z</time>
      </trkpt>
      <trkpt lat="42.97635485418140888214111328125" lon="-2.39119880832731723785400390625">
        <ele>749</ele>
        <time>2022-04-17T16:16:35.000Z</time>
      </trkpt>
      <trkpt lat="42.9763576202094554901123046875" lon="-2.39121414721012115478515625">
        <ele>748.79998779296875</ele>
        <time>2022-04-17T16:16:36.000Z</time>
      </trkpt>
      <trkpt lat="42.97636474482715129852294921875" lon="-2.39122462458908557891845703125">
        <ele>748.79998779296875</ele>
        <time>2022-04-17T16:16:37.000Z</time>
      </trkpt>
      <trkpt lat="42.97637966461479663848876953125" lon="-2.39123719744384288787841796875">
        <ele>748.79998779296875</ele>
        <time>2022-04-17T16:16:38.000Z</time>
      </trkpt>
      <trkpt lat="42.9763827659189701080322265625" lon="-2.3912577331066131591796875">
        <ele>748.5999755859375</ele>
        <time>2022-04-17T16:16:39.000Z</time>
      </trkpt>
      <trkpt lat="42.976374886929988861083984375" lon="-2.39127810113131999969482421875">
        <ele>748.4000244140625</ele>
        <time>2022-04-17T16:16:40.000Z</time>
      </trkpt>
      <trkpt lat="42.97637899406254291534423828125" lon="-2.391300313174724578857421875">
        <ele>748.20001220703125</ele>
        <time>2022-04-17T16:16:41.000Z</time>
      </trkpt>
      <trkpt lat="42.9763831011950969696044921875" lon="-2.391307689249515533447265625">
        <ele>748</ele>
        <time>2022-04-17T16:16:42.000Z</time>
      </trkpt>
      <trkpt lat="42.97638553194701671600341796875" lon="-2.39131229929625988006591796875">
        <ele>748</ele>
        <time>2022-04-17T16:16:43.000Z</time>
      </trkpt>
      <trkpt lat="42.97639089636504650115966796875" lon="-2.39131934009492397308349609375">
        <ele>748</ele>
        <time>2022-04-17T16:16:44.000Z</time>
      </trkpt>
      <trkpt lat="42.97639374621212482452392578125" lon="-2.3913259617984294891357421875">
        <ele>748</ele>
        <time>2022-04-17T16:16:45.000Z</time>
      </trkpt>
      <trkpt lat="42.9764018766582012176513671875" lon="-2.39133962430059909820556640625">
        <ele>747.79998779296875</ele>
        <time>2022-04-17T16:16:46.000Z</time>
      </trkpt>
      <trkpt lat="42.976408414542675018310546875" lon="-2.3913516104221343994140625">
        <ele>747.5999755859375</ele>
        <time>2022-04-17T16:16:47.000Z</time>
      </trkpt>
      <trkpt lat="42.97641067765653133392333984375" lon="-2.3913625068962574005126953125">
        <ele>747.4000244140625</ele>
        <time>2022-04-17T16:16:48.000Z</time>
      </trkpt>
      <trkpt lat="42.97640514560043811798095703125" lon="-2.39137063734233379364013671875">
        <ele>747.4000244140625</ele>
        <time>2022-04-17T16:16:49.000Z</time>
      </trkpt>
      <trkpt lat="42.976405732333660125732421875" lon="-2.39139393903315067291259765625">
        <ele>747.4000244140625</ele>
        <time>2022-04-17T16:16:50.000Z</time>
      </trkpt>
      <trkpt lat="42.97641034238040447235107421875" lon="-2.39141221158206462860107421875">
        <ele>747.20001220703125</ele>
        <time>2022-04-17T16:16:51.000Z</time>
      </trkpt>
      <trkpt lat="42.97641503624618053436279296875" lon="-2.3914268799126148223876953125">
        <ele>747</ele>
        <time>2022-04-17T16:16:52.000Z</time>
      </trkpt>
      <trkpt lat="42.976420819759368896484375" lon="-2.39143886603415012359619140625">
        <ele>747</ele>
        <time>2022-04-17T16:16:53.000Z</time>
      </trkpt>
      <trkpt lat="42.97642375342547893524169921875" lon="-2.39146317355334758758544921875">
        <ele>747</ele>
        <time>2022-04-17T16:16:54.000Z</time>
      </trkpt>
      <trkpt lat="42.976427860558032989501953125" lon="-2.39147541113197803497314453125">
        <ele>746.79998779296875</ele>
        <time>2022-04-17T16:16:55.000Z</time>
      </trkpt>
      <trkpt lat="42.97643079422414302825927734375" lon="-2.39148505032062530517578125">
        <ele>746.79998779296875</ele>
        <time>2022-04-17T16:16:56.000Z</time>
      </trkpt>
      <trkpt lat="42.9764374159276485443115234375" lon="-2.39149603061378002166748046875">
        <ele>746.5999755859375</ele>
        <time>2022-04-17T16:16:57.000Z</time>
      </trkpt>
      <trkpt lat="42.97644428908824920654296875" lon="-2.3915073461830615997314453125">
        <ele>746.4000244140625</ele>
        <time>2022-04-17T16:16:58.000Z</time>
      </trkpt>
      <trkpt lat="42.976448647677898406982421875" lon="-2.3915160633623600006103515625">
        <ele>746.20001220703125</ele>
        <time>2022-04-17T16:16:59.000Z</time>
      </trkpt>
      <trkpt lat="42.976452000439167022705078125" lon="-2.3915231041610240936279296875">
        <ele>746.20001220703125</ele>
        <time>2022-04-17T16:17:00.000Z</time>
      </trkpt>
      <trkpt lat="42.976458370685577392578125" lon="-2.3915351741015911102294921875">
        <ele>746.20001220703125</ele>
        <time>2022-04-17T16:17:01.000Z</time>
      </trkpt>
      <trkpt lat="42.976463399827480316162109375" lon="-2.39155017770826816558837890625">
        <ele>746</ele>
        <time>2022-04-17T16:17:02.000Z</time>
      </trkpt>
      <trkpt lat="42.9764655791223049163818359375" lon="-2.3915656842291355133056640625">
        <ele>746</ele>
        <time>2022-04-17T16:17:03.000Z</time>
      </trkpt>
      <trkpt lat="42.9764682613313198089599609375" lon="-2.39160038530826568603515625">
        <ele>745.79998779296875</ele>
        <time>2022-04-17T16:17:04.000Z</time>
      </trkpt>
      <trkpt lat="42.97646842896938323974609375" lon="-2.391621507704257965087890625">
        <ele>745.79998779296875</ele>
        <time>2022-04-17T16:17:05.000Z</time>
      </trkpt>
      <trkpt lat="42.97646817751228809356689453125" lon="-2.391626872122287750244140625">
        <ele>745.5999755859375</ele>
        <time>2022-04-17T16:17:06.000Z</time>
      </trkpt>
      <trkpt lat="42.97646884806454181671142578125" lon="-2.39163097925484180450439453125">
        <ele>745.5999755859375</ele>
        <time>2022-04-17T16:17:07.000Z</time>
      </trkpt>
      <trkpt lat="42.97646935097873210906982421875" lon="-2.391631901264190673828125">
        <ele>745.5999755859375</ele>
        <time>2022-04-17T16:17:08.000Z</time>
      </trkpt>
      <trkpt lat="42.97647337429225444793701171875" lon="-2.39163047634065151214599609375">
        <ele>745.5999755859375</ele>
        <time>2022-04-17T16:17:09.000Z</time>
      </trkpt>
      <trkpt lat="42.97647857107222080230712890625" lon="-2.39163659512996673583984375">
        <ele>745.4000244140625</ele>
        <time>2022-04-17T16:17:10.000Z</time>
      </trkpt>
      <trkpt lat="42.97648041509091854095458984375" lon="-2.39164866507053375244140625">
        <ele>745.4000244140625</ele>
        <time>2022-04-17T16:17:11.000Z</time>
      </trkpt>
      <trkpt lat="42.97648142091929912567138671875" lon="-2.3916565440595149993896484375">
        <ele>745.20001220703125</ele>
        <time>2022-04-17T16:17:12.000Z</time>
      </trkpt>
      <trkpt lat="42.97648276202380657196044921875" lon="-2.391673810780048370361328125">
        <ele>745.20001220703125</ele>
        <time>2022-04-17T16:17:13.000Z</time>
      </trkpt>
      <trkpt lat="42.9764863662421703338623046875" lon="-2.39168613217771053314208984375">
        <ele>745</ele>
        <time>2022-04-17T16:17:14.000Z</time>
      </trkpt>
      <trkpt lat="42.97649114392697811126708984375" lon="-2.3916917480528354644775390625">
        <ele>745</ele>
        <time>2022-04-17T16:17:15.000Z</time>
      </trkpt>
      <trkpt lat="42.9764981009066104888916015625" lon="-2.39170272834599018096923828125">
        <ele>744.79998779296875</ele>
        <time>2022-04-17T16:17:16.000Z</time>
      </trkpt>
      <trkpt lat="42.97650388441979885101318359375" lon="-2.39171261899173259735107421875">
        <ele>744.79998779296875</ele>
        <time>2022-04-17T16:17:17.000Z</time>
      </trkpt>
      <trkpt lat="42.976509667932987213134765625" lon="-2.39172100089490413665771484375">
        <ele>744.79998779296875</ele>
        <time>2022-04-17T16:17:18.000Z</time>
      </trkpt>
      <trkpt lat="42.976515032351016998291015625" lon="-2.391733489930629730224609375">
        <ele>744.5999755859375</ele>
        <time>2022-04-17T16:17:19.000Z</time>
      </trkpt>
      <trkpt lat="42.9765202291309833526611328125" lon="-2.3917474038898944854736328125">
        <ele>744.4000244140625</ele>
        <time>2022-04-17T16:17:20.000Z</time>
      </trkpt>
      <trkpt lat="42.97652534209191799163818359375" lon="-2.39176006056368350982666015625">
        <ele>744.4000244140625</ele>
        <time>2022-04-17T16:17:21.000Z</time>
      </trkpt>
      <trkpt lat="42.976529784500598907470703125" lon="-2.39177648909389972686767578125">
        <ele>744.20001220703125</ele>
        <time>2022-04-17T16:17:22.000Z</time>
      </trkpt>
      <trkpt lat="42.97653037123382091522216796875" lon="-2.3917933367192745208740234375">
        <ele>744.20001220703125</ele>
        <time>2022-04-17T16:17:23.000Z</time>
      </trkpt>
      <trkpt lat="42.9765326343476772308349609375" lon="-2.3918097652494907379150390625">
        <ele>744.20001220703125</ele>
        <time>2022-04-17T16:17:24.000Z</time>
      </trkpt>
      <trkpt lat="42.976531125605106353759765625" lon="-2.39181085489690303802490234375">
        <ele>744</ele>
        <time>2022-04-17T16:17:25.000Z</time>
      </trkpt>
      <trkpt lat="42.9765294492244720458984375" lon="-2.3918156325817108154296875">
        <ele>743.79998779296875</ele>
        <time>2022-04-17T16:17:26.000Z</time>
      </trkpt>
      <trkpt lat="42.97653104178607463836669921875" lon="-2.3918231762945652008056640625">
        <ele>743.79998779296875</ele>
        <time>2022-04-17T16:17:27.000Z</time>
      </trkpt>
      <trkpt lat="42.97653372399508953094482421875" lon="-2.39183683879673480987548828125">
        <ele>743.5999755859375</ele>
        <time>2022-04-17T16:17:28.000Z</time>
      </trkpt>
      <trkpt lat="42.976533472537994384765625" lon="-2.39184907637536525726318359375">
        <ele>743.5999755859375</ele>
        <time>2022-04-17T16:17:29.000Z</time>
      </trkpt>
      <trkpt lat="42.97653070650994777679443359375" lon="-2.39186190068721771240234375">
        <ele>743.4000244140625</ele>
        <time>2022-04-17T16:17:30.000Z</time>
      </trkpt>
      <trkpt lat="42.9765321314334869384765625" lon="-2.3918717913329601287841796875">
        <ele>743.4000244140625</ele>
        <time>2022-04-17T16:17:31.000Z</time>
      </trkpt>
      <trkpt lat="42.9765450395643711090087890625" lon="-2.39188679493963718414306640625">
        <ele>743.4000244140625</ele>
        <time>2022-04-17T16:17:32.000Z</time>
      </trkpt>
      <trkpt lat="42.97655719332396984100341796875" lon="-2.39190615713596343994140625">
        <ele>743.20001220703125</ele>
        <time>2022-04-17T16:17:33.000Z</time>
      </trkpt>
      <trkpt lat="42.9765668325126171112060546875" lon="-2.39193054847419261932373046875">
        <ele>743.20001220703125</ele>
        <time>2022-04-17T16:17:34.000Z</time>
      </trkpt>
      <trkpt lat="42.97657043673098087310791015625" lon="-2.3919495753943920135498046875">
        <ele>743</ele>
        <time>2022-04-17T16:17:35.000Z</time>
      </trkpt>
      <trkpt lat="42.9765715263783931732177734375" lon="-2.39197187125682830810546875">
        <ele>742.79998779296875</ele>
        <time>2022-04-17T16:17:36.000Z</time>
      </trkpt>
      <trkpt lat="42.9765708558261394500732421875" lon="-2.39199290983378887176513671875">
        <ele>742.5999755859375</ele>
        <time>2022-04-17T16:17:37.000Z</time>
      </trkpt>
      <trkpt lat="42.97657571732997894287109375" lon="-2.3920079134404659271240234375">
        <ele>742.4000244140625</ele>
        <time>2022-04-17T16:17:38.000Z</time>
      </trkpt>
      <trkpt lat="42.97657907009124755859375" lon="-2.3920266889035701751708984375">
        <ele>742</ele>
        <time>2022-04-17T16:17:39.000Z</time>
      </trkpt>
      <trkpt lat="42.97657848335802555084228515625" lon="-2.39204169251024723052978515625">
        <ele>741.79998779296875</ele>
        <time>2022-04-17T16:17:40.000Z</time>
      </trkpt>
      <trkpt lat="42.976582087576389312744140625" lon="-2.392050661146640777587890625">
        <ele>741.5999755859375</ele>
        <time>2022-04-17T16:17:41.000Z</time>
      </trkpt>
      <trkpt lat="42.97658150084316730499267578125" lon="-2.3920478112995624542236328125">
        <ele>741.4000244140625</ele>
        <time>2022-04-17T16:17:42.000Z</time>
      </trkpt>
      <trkpt lat="42.97657982446253299713134765625" lon="-2.3920538462698459625244140625">
        <ele>741.20001220703125</ele>
        <time>2022-04-17T16:17:43.000Z</time>
      </trkpt>
      <trkpt lat="42.97657865099608898162841796875" lon="-2.392066419124603271484375">
        <ele>741</ele>
        <time>2022-04-17T16:17:44.000Z</time>
      </trkpt>
      <trkpt lat="42.97658250667154788970947265625" lon="-2.39207639358937740325927734375">
        <ele>740.79998779296875</ele>
        <time>2022-04-17T16:17:45.000Z</time>
      </trkpt>
      <trkpt lat="42.97658376395702362060546875" lon="-2.392082847654819488525390625">
        <ele>740.79998779296875</ele>
        <time>2022-04-17T16:17:46.000Z</time>
      </trkpt>
      <trkpt lat="42.97658720053732395172119140625" lon="-2.39209047518670558929443359375">
        <ele>740.5999755859375</ele>
        <time>2022-04-17T16:17:47.000Z</time>
      </trkpt>
      <trkpt lat="42.9765933193266391754150390625" lon="-2.39209768362343311309814453125">
        <ele>740.4000244140625</ele>
        <time>2022-04-17T16:17:48.000Z</time>
      </trkpt>
      <trkpt lat="42.97659876756370067596435546875" lon="-2.3921001143753528594970703125">
        <ele>740.4000244140625</ele>
        <time>2022-04-17T16:17:49.000Z</time>
      </trkpt>
      <trkpt lat="42.9765983484685420989990234375" lon="-2.39209516905248165130615234375">
        <ele>740</ele>
        <time>2022-04-17T16:17:50.000Z</time>
      </trkpt>
      <trkpt lat="42.976601533591747283935546875" lon="-2.392098270356655120849609375">
        <ele>740</ele>
        <time>2022-04-17T16:17:51.000Z</time>
      </trkpt>
      <trkpt lat="42.97660044394433498382568359375" lon="-2.3921148665249347686767578125">
        <ele>739.79998779296875</ele>
        <time>2022-04-17T16:17:52.000Z</time>
      </trkpt>
      <trkpt lat="42.9766030423343181610107421875" lon="-2.3921343125402927398681640625">
        <ele>739.79998779296875</ele>
        <time>2022-04-17T16:17:53.000Z</time>
      </trkpt>
      <trkpt lat="42.9766057245433330535888671875" lon="-2.3921416886150836944580078125">
        <ele>739.5999755859375</ele>
        <time>2022-04-17T16:17:54.000Z</time>
      </trkpt>
      <trkpt lat="42.97661603428423404693603515625" lon="-2.39214680157601833343505859375">
        <ele>739.5999755859375</ele>
        <time>2022-04-17T16:17:55.000Z</time>
      </trkpt>
      <trkpt lat="42.97661997377872467041015625" lon="-2.3921540938317775726318359375">
        <ele>739.4000244140625</ele>
        <time>2022-04-17T16:17:56.000Z</time>
      </trkpt>
      <trkpt lat="42.97661988995969295501708984375" lon="-2.39216172136366367340087890625">
        <ele>739.20001220703125</ele>
        <time>2022-04-17T16:17:57.000Z</time>
      </trkpt>
      <trkpt lat="42.97661460936069488525390625" lon="-2.39216255955398082733154296875">
        <ele>739.20001220703125</ele>
        <time>2022-04-17T16:17:58.000Z</time>
      </trkpt>
      <trkpt lat="42.97660614363849163055419921875" lon="-2.39215820096433162689208984375">
        <ele>739.20001220703125</ele>
        <time>2022-04-17T16:17:59.000Z</time>
      </trkpt>
      <trkpt lat="42.9765872843563556671142578125" lon="-2.3921359889209270477294921875">
        <ele>739.20001220703125</ele>
        <time>2022-04-17T16:18:00.000Z</time>
      </trkpt>
      <trkpt lat="42.97658133320510387420654296875" lon="-2.39212651737034320831298828125">
        <ele>739.4000244140625</ele>
        <time>2022-04-17T16:18:01.000Z</time>
      </trkpt>
      <trkpt lat="42.97657999210059642791748046875" lon="-2.39212366752326488494873046875">
        <ele>739.4000244140625</ele>
        <time>2022-04-17T16:18:02.000Z</time>
      </trkpt>
      <trkpt lat="42.976578734815120697021484375" lon="-2.39211939275264739990234375">
        <ele>739.4000244140625</ele>
        <time>2022-04-17T16:18:03.000Z</time>
      </trkpt>
      <trkpt lat="42.97657865099608898162841796875" lon="-2.39211629144847393035888671875">
        <ele>739.4000244140625</ele>
        <time>2022-04-17T16:18:04.000Z</time>
      </trkpt>
      <trkpt lat="42.97657697461545467376708984375" lon="-2.3921133577823638916015625">
        <ele>739.4000244140625</ele>
        <time>2022-04-17T16:18:05.000Z</time>
      </trkpt>
      <trkpt lat="42.97657697461545467376708984375" lon="-2.3921098373830318450927734375">
        <ele>739.4000244140625</ele>
        <time>2022-04-17T16:18:06.000Z</time>
      </trkpt>
      <trkpt lat="42.97657697461545467376708984375" lon="-2.3921098373830318450927734375">
        <ele>739.4000244140625</ele>
        <time>2022-04-17T16:18:07.000Z</time>
      </trkpt>
      <trkpt lat="42.97657697461545467376708984375" lon="-2.3921098373830318450927734375">
        <ele>739.4000244140625</ele>
        <time>2022-04-17T16:18:08.000Z</time>
      </trkpt>
      <trkpt lat="42.97657697461545467376708984375" lon="-2.3921098373830318450927734375">
        <ele>739.4000244140625</ele>
        <time>2022-04-17T16:18:09.000Z</time>
      </trkpt>
      <trkpt lat="42.97657697461545467376708984375" lon="-2.3921098373830318450927734375">
        <ele>739.20001220703125</ele>
        <time>2022-04-17T16:18:10.000Z</time>
      </trkpt>
      <trkpt lat="42.97657697461545467376708984375" lon="-2.3921098373830318450927734375">
        <ele>739.20001220703125</ele>
        <time>2022-04-17T16:18:11.000Z</time>
      </trkpt>
      <trkpt lat="42.97657697461545467376708984375" lon="-2.3921098373830318450927734375">
        <ele>739.20001220703125</ele>
        <time>2022-04-17T16:18:12.000Z</time>
      </trkpt>
      <trkpt lat="42.97657697461545467376708984375" lon="-2.3921098373830318450927734375">
        <ele>739</ele>
        <time>2022-04-17T16:18:13.000Z</time>
      </trkpt>
      <trkpt lat="42.97657697461545467376708984375" lon="-2.3921098373830318450927734375">
        <ele>738.5999755859375</ele>
        <time>2022-04-17T16:18:14.000Z</time>
      </trkpt>
      <trkpt lat="42.97657697461545467376708984375" lon="-2.3921098373830318450927734375">
        <ele>738.4000244140625</ele>
        <time>2022-04-17T16:18:15.000Z</time>
      </trkpt>
      <trkpt lat="42.97657697461545467376708984375" lon="-2.3921098373830318450927734375">
        <ele>738.20001220703125</ele>
        <time>2022-04-17T16:18:16.000Z</time>
      </trkpt>
      <trkpt lat="42.97657697461545467376708984375" lon="-2.3921098373830318450927734375">
        <ele>738.20001220703125</ele>
        <time>2022-04-17T16:18:17.000Z</time>
      </trkpt>
      <trkpt lat="42.97657697461545467376708984375" lon="-2.39211243577301502227783203125">
        <ele>738</ele>
        <time>2022-04-17T16:18:18.000Z</time>
      </trkpt>
      <trkpt lat="42.97657697461545467376708984375" lon="-2.39211327396333217620849609375">
        <ele>738</ele>
        <time>2022-04-17T16:18:19.000Z</time>
      </trkpt>
      <trkpt lat="42.97657630406320095062255859375" lon="-2.39212182350456714630126953125">
        <ele>737.79998779296875</ele>
        <time>2022-04-17T16:18:20.000Z</time>
      </trkpt>
      <trkpt lat="42.97658099792897701263427734375" lon="-2.39214328117668628692626953125">
        <ele>737.79998779296875</ele>
        <time>2022-04-17T16:18:21.000Z</time>
      </trkpt>
      <trkpt lat="42.97658703289926052093505859375" lon="-2.3921658284962177276611328125">
        <ele>737.79998779296875</ele>
        <time>2022-04-17T16:18:22.000Z</time>
      </trkpt>
      <trkpt lat="42.97659323550760746002197265625" lon="-2.3921846039593219757080078125">
        <ele>737.5999755859375</ele>
        <time>2022-04-17T16:18:23.000Z</time>
      </trkpt>
      <trkpt lat="42.97659155912697315216064453125" lon="-2.39220648072659969329833984375">
        <ele>737.5999755859375</ele>
        <time>2022-04-17T16:18:24.000Z</time>
      </trkpt>
      <trkpt lat="42.97658870927989482879638671875" lon="-2.39222760312259197235107421875">
        <ele>737.5999755859375</ele>
        <time>2022-04-17T16:18:25.000Z</time>
      </trkpt>
      <trkpt lat="42.97658988274633884429931640625" lon="-2.39224813878536224365234375">
        <ele>737.4000244140625</ele>
        <time>2022-04-17T16:18:26.000Z</time>
      </trkpt>
      <trkpt lat="42.97659005038440227508544921875" lon="-2.39227303303778171539306640625">
        <ele>737.4000244140625</ele>
        <time>2022-04-17T16:18:27.000Z</time>
      </trkpt>
      <trkpt lat="42.9765919782221317291259765625" lon="-2.3922955803573131561279296875">
        <ele>737.4000244140625</ele>
        <time>2022-04-17T16:18:28.000Z</time>
      </trkpt>
      <trkpt lat="42.97659306786954402923583984375" lon="-2.39231695421040058135986328125">
        <ele>737.20001220703125</ele>
        <time>2022-04-17T16:18:29.000Z</time>
      </trkpt>
      <trkpt lat="42.97659692354500293731689453125" lon="-2.3923297785222530364990234375">
        <ele>737</ele>
        <time>2022-04-17T16:18:30.000Z</time>
      </trkpt>
      <trkpt lat="42.97659893520176410675048828125" lon="-2.39234469830989837646484375">
        <ele>736.79998779296875</ele>
        <time>2022-04-17T16:18:31.000Z</time>
      </trkpt>
      <trkpt lat="42.9766013659536838531494140625" lon="-2.3923559300601482391357421875">
        <ele>736.5999755859375</ele>
        <time>2022-04-17T16:18:32.000Z</time>
      </trkpt>
      <trkpt lat="42.976603545248508453369140625" lon="-2.39236079156398773193359375">
        <ele>736.5999755859375</ele>
        <time>2022-04-17T16:18:33.000Z</time>
      </trkpt>
      <trkpt lat="42.97660564072430133819580078125" lon="-2.392363809049129486083984375">
        <ele>736.5999755859375</ele>
        <time>2022-04-17T16:18:34.000Z</time>
      </trkpt>
      <trkpt lat="42.97660656273365020751953125" lon="-2.39237076602876186370849609375">
        <ele>736.20001220703125</ele>
        <time>2022-04-17T16:18:35.000Z</time>
      </trkpt>
      <trkpt lat="42.97660597600042819976806640625" lon="-2.39238149486482143402099609375">
        <ele>736.20001220703125</ele>
        <time>2022-04-17T16:18:36.000Z</time>
      </trkpt>
      <trkpt lat="42.9766099154949188232421875" lon="-2.3923921398818492889404296875">
        <ele>736</ele>
        <time>2022-04-17T16:18:37.000Z</time>
      </trkpt>
      <trkpt lat="42.97662022523581981658935546875" lon="-2.3924219794571399688720703125">
        <ele>735.79998779296875</ele>
        <time>2022-04-17T16:18:38.000Z</time>
      </trkpt>
      <trkpt lat="42.9766288585960865020751953125" lon="-2.392440922558307647705078125">
        <ele>735.5999755859375</ele>
        <time>2022-04-17T16:18:39.000Z</time>
      </trkpt>
      <trkpt lat="42.97663464210927486419677734375" lon="-2.3924508132040500640869140625">
        <ele>735.5999755859375</ele>
        <time>2022-04-17T16:18:40.000Z</time>
      </trkpt>
      <trkpt lat="42.97663883306086063385009765625" lon="-2.39245064556598663330078125">
        <ele>735.5999755859375</ele>
        <time>2022-04-17T16:18:41.000Z</time>
      </trkpt>
      <trkpt lat="42.97664704732596874237060546875" lon="-2.39245492033660411834716796875">
        <ele>735.5999755859375</ele>
        <time>2022-04-17T16:18:42.000Z</time>
      </trkpt>
      <trkpt lat="42.9766533337533473968505859375" lon="-2.392459027469158172607421875">
        <ele>735.79998779296875</ele>
        <time>2022-04-17T16:18:43.000Z</time>
      </trkpt>
      <trkpt lat="42.9766580276191234588623046875" lon="-2.3924591951072216033935546875">
        <ele>735.79998779296875</ele>
        <time>2022-04-17T16:18:44.000Z</time>
      </trkpt>
      <trkpt lat="42.9766623862087726593017578125" lon="-2.39246405661106109619140625">
        <ele>735.79998779296875</ele>
        <time>2022-04-17T16:18:45.000Z</time>
      </trkpt>
      <trkpt lat="42.9766647331416606903076171875" lon="-2.3924685828387737274169921875">
        <ele>735.79998779296875</ele>
        <time>2022-04-17T16:18:46.000Z</time>
      </trkpt>
      <trkpt lat="42.97666448168456554412841796875" lon="-2.3924742825329303741455078125">
        <ele>735.79998779296875</ele>
        <time>2022-04-17T16:18:47.000Z</time>
      </trkpt>
      <trkpt lat="42.97666900791227817535400390625" lon="-2.39247989840805530548095703125">
        <ele>735.79998779296875</ele>
        <time>2022-04-17T16:18:48.000Z</time>
      </trkpt>
      <trkpt lat="42.9766721092164516448974609375" lon="-2.39248425699770450592041015625">
        <ele>735.79998779296875</ele>
        <time>2022-04-17T16:18:49.000Z</time>
      </trkpt>
      <trkpt lat="42.97667319886386394500732421875" lon="-2.392487190663814544677734375">
        <ele>735.79998779296875</ele>
        <time>2022-04-17T16:18:50.000Z</time>
      </trkpt>
      <trkpt lat="42.97667437233030796051025390625" lon="-2.3924893699586391448974609375">
        <ele>735.79998779296875</ele>
        <time>2022-04-17T16:18:51.000Z</time>
      </trkpt>
      <trkpt lat="42.9766794852912425994873046875" lon="-2.39249314181506633758544921875">
        <ele>735.5999755859375</ele>
        <time>2022-04-17T16:18:52.000Z</time>
      </trkpt>
      <trkpt lat="42.976682670414447784423828125" lon="-2.3924954049289226531982421875">
        <ele>735.20001220703125</ele>
        <time>2022-04-17T16:18:53.000Z</time>
      </trkpt>
      <trkpt lat="42.97668040730059146881103515625" lon="-2.3924943991005420684814453125">
        <ele>735</ele>
        <time>2022-04-17T16:18:54.000Z</time>
      </trkpt>
      <trkpt lat="42.97667495906352996826171875" lon="-2.39249498583376407623291015625">
        <ele>734.79998779296875</ele>
        <time>2022-04-17T16:18:55.000Z</time>
      </trkpt>
      <trkpt lat="42.97667286358773708343505859375" lon="-2.39249649457633495330810546875">
        <ele>734.5999755859375</ele>
        <time>2022-04-17T16:18:56.000Z</time>
      </trkpt>
      <trkpt lat="42.97667521052062511444091796875" lon="-2.3924977518618106842041015625">
        <ele>734.5999755859375</ele>
        <time>2022-04-17T16:18:57.000Z</time>
      </trkpt>
      <trkpt lat="42.97667495906352996826171875" lon="-2.39250135608017444610595703125">
        <ele>734.5999755859375</ele>
        <time>2022-04-17T16:18:58.000Z</time>
      </trkpt>
      <trkpt lat="42.97667286358773708343505859375" lon="-2.39250169135630130767822265625">
        <ele>734.5999755859375</ele>
        <time>2022-04-17T16:18:59.000Z</time>
      </trkpt>
      <trkpt lat="42.97667101956903934478759765625" lon="-2.39250772632658481597900390625">
        <ele>734.79998779296875</ele>
        <time>2022-04-17T16:19:00.000Z</time>
      </trkpt>
      <trkpt lat="42.9766741208732128143310546875" lon="-2.39251392893493175506591796875">
        <ele>734.79998779296875</ele>
        <time>2022-04-17T16:19:01.000Z</time>
      </trkpt>
      <trkpt lat="42.97667571343481540679931640625" lon="-2.39251409657299518585205078125">
        <ele>734.79998779296875</ele>
        <time>2022-04-17T16:19:02.000Z</time>
      </trkpt>
      <trkpt lat="42.97667898237705230712890625" lon="-2.3925111629068851470947265625">
        <ele>734.79998779296875</ele>
        <time>2022-04-17T16:19:03.000Z</time>
      </trkpt>
      <trkpt lat="42.97667898237705230712890625" lon="-2.3925104923546314239501953125">
        <ele>735.20001220703125</ele>
        <time>2022-04-17T16:19:04.000Z</time>
      </trkpt>
      <trkpt lat="42.976677305996417999267578125" lon="-2.3925104923546314239501953125">
        <ele>735.5999755859375</ele>
        <time>2022-04-17T16:19:05.000Z</time>
      </trkpt>
      <trkpt lat="42.97667403705418109893798828125" lon="-2.39251099526882171630859375">
        <ele>735.79998779296875</ele>
        <time>2022-04-17T16:19:06.000Z</time>
      </trkpt>
      <trkpt lat="42.97667286358773708343505859375" lon="-2.3925076425075531005859375">
        <ele>736</ele>
        <time>2022-04-17T16:19:07.000Z</time>
      </trkpt>
      <trkpt lat="42.9766717739403247833251953125" lon="-2.3925027810037136077880859375">
        <ele>736</ele>
        <time>2022-04-17T16:19:08.000Z</time>
      </trkpt>
      <trkpt lat="42.9766717739403247833251953125" lon="-2.3925027810037136077880859375">
        <ele>736</ele>
        <time>2022-04-17T16:19:09.000Z</time>
      </trkpt>
      <trkpt lat="42.9766717739403247833251953125" lon="-2.3925027810037136077880859375">
        <ele>736.20001220703125</ele>
        <time>2022-04-17T16:19:10.000Z</time>
      </trkpt>
      <trkpt lat="42.9766717739403247833251953125" lon="-2.3925027810037136077880859375">
        <ele>736.20001220703125</ele>
        <time>2022-04-17T16:19:11.000Z</time>
      </trkpt>
      <trkpt lat="42.9766717739403247833251953125" lon="-2.3925027810037136077880859375">
        <ele>736.20001220703125</ele>
        <time>2022-04-17T16:19:12.000Z</time>
      </trkpt>
      <trkpt lat="42.9766717739403247833251953125" lon="-2.3925027810037136077880859375">
        <ele>736</ele>
        <time>2022-04-17T16:19:13.000Z</time>
      </trkpt>
      <trkpt lat="42.9766717739403247833251953125" lon="-2.3925027810037136077880859375">
        <ele>736</ele>
        <time>2022-04-17T16:19:14.000Z</time>
      </trkpt>
      <trkpt lat="42.9766717739403247833251953125" lon="-2.3925027810037136077880859375">
        <ele>736</ele>
        <time>2022-04-17T16:19:15.000Z</time>
      </trkpt>
      <trkpt lat="42.9766717739403247833251953125" lon="-2.3925027810037136077880859375">
        <ele>736</ele>
        <time>2022-04-17T16:19:16.000Z</time>
      </trkpt>
      <trkpt lat="42.9766717739403247833251953125" lon="-2.3925027810037136077880859375">
        <ele>736</ele>
        <time>2022-04-17T16:19:17.000Z</time>
      </trkpt>
      <trkpt lat="42.9766717739403247833251953125" lon="-2.392505966126918792724609375">
        <ele>736</ele>
        <time>2022-04-17T16:19:18.000Z</time>
      </trkpt>
      <trkpt lat="42.9766717739403247833251953125" lon="-2.3925071395933628082275390625">
        <ele>735.79998779296875</ele>
        <time>2022-04-17T16:19:19.000Z</time>
      </trkpt>
      <trkpt lat="42.9766717739403247833251953125" lon="-2.3925076425075531005859375">
        <ele>735.79998779296875</ele>
        <time>2022-04-17T16:19:20.000Z</time>
      </trkpt>
      <trkpt lat="42.9766717739403247833251953125" lon="-2.39250772632658481597900390625">
        <ele>735.79998779296875</ele>
        <time>2022-04-17T16:19:21.000Z</time>
      </trkpt>
      <trkpt lat="42.9766717739403247833251953125" lon="-2.3925088159739971160888671875">
        <ele>735.79998779296875</ele>
        <time>2022-04-17T16:19:22.000Z</time>
      </trkpt>
      <trkpt lat="42.9766717739403247833251953125" lon="-2.39250906743109226226806640625">
        <ele>735.5999755859375</ele>
        <time>2022-04-17T16:19:23.000Z</time>
      </trkpt>
      <trkpt lat="42.9766717739403247833251953125" lon="-2.39250906743109226226806640625">
        <ele>735.79998779296875</ele>
        <time>2022-04-17T16:19:24.000Z</time>
      </trkpt>
      <trkpt lat="42.9766721092164516448974609375" lon="-2.392509318888187408447265625">
        <ele>735.79998779296875</ele>
        <time>2022-04-17T16:19:25.000Z</time>
      </trkpt>
      <trkpt lat="42.9766721092164516448974609375" lon="-2.392509318888187408447265625">
        <ele>736</ele>
        <time>2022-04-17T16:19:26.000Z</time>
      </trkpt>
      <trkpt lat="42.9766721092164516448974609375" lon="-2.392509318888187408447265625">
        <ele>736</ele>
        <time>2022-04-17T16:19:27.000Z</time>
      </trkpt>
      <trkpt lat="42.9766721092164516448974609375" lon="-2.392509318888187408447265625">
        <ele>736</ele>
        <time>2022-04-17T16:19:28.000Z</time>
      </trkpt>
      <trkpt lat="42.9766721092164516448974609375" lon="-2.392509318888187408447265625">
        <ele>736.20001220703125</ele>
        <time>2022-04-17T16:19:29.000Z</time>
      </trkpt>
      <trkpt lat="42.9766721092164516448974609375" lon="-2.392509318888187408447265625">
        <ele>736.20001220703125</ele>
        <time>2022-04-17T16:19:30.000Z</time>
      </trkpt>
      <trkpt lat="42.9766717739403247833251953125" lon="-2.39250906743109226226806640625">
        <ele>736.20001220703125</ele>
        <time>2022-04-17T16:19:31.000Z</time>
      </trkpt>
      <trkpt lat="42.9766717739403247833251953125" lon="-2.39250889979302883148193359375">
        <ele>736.20001220703125</ele>
        <time>2022-04-17T16:19:32.000Z</time>
      </trkpt>
      <trkpt lat="42.9766717739403247833251953125" lon="-2.39250822924077510833740234375">
        <ele>736</ele>
        <time>2022-04-17T16:19:33.000Z</time>
      </trkpt>
      <trkpt lat="42.9766716063022613525390625" lon="-2.39250772632658481597900390625">
        <ele>736</ele>
        <time>2022-04-17T16:19:34.000Z</time>
      </trkpt>
      <trkpt lat="42.9766714386641979217529296875" lon="-2.3925074748694896697998046875">
        <ele>735.79998779296875</ele>
        <time>2022-04-17T16:19:35.000Z</time>
      </trkpt>
      <trkpt lat="42.97667118720710277557373046875" lon="-2.39250722341239452362060546875">
        <ele>735.79998779296875</ele>
        <time>2022-04-17T16:19:36.000Z</time>
      </trkpt>
      <trkpt lat="42.97667093575000762939453125" lon="-2.392506301403045654296875">
        <ele>735.5999755859375</ele>
        <time>2022-04-17T16:19:37.000Z</time>
      </trkpt>
      <trkpt lat="42.97667034901678562164306640625" lon="-2.3925061337649822235107421875">
        <ele>735.5999755859375</ele>
        <time>2022-04-17T16:19:38.000Z</time>
      </trkpt>
      <trkpt lat="42.97667227685451507568359375" lon="-2.39250252954661846160888671875">
        <ele>735.5999755859375</ele>
        <time>2022-04-17T16:19:39.000Z</time>
      </trkpt>
      <trkpt lat="42.9766761325299739837646484375" lon="-2.392497919499874114990234375">
        <ele>735.5999755859375</ele>
        <time>2022-04-17T16:19:40.000Z</time>
      </trkpt>
      <trkpt lat="42.9766761325299739837646484375" lon="-2.392497919499874114990234375">
        <ele>735.5999755859375</ele>
        <time>2022-04-17T16:19:41.000Z</time>
      </trkpt>
      <trkpt lat="42.9766761325299739837646484375" lon="-2.392497919499874114990234375">
        <ele>735.4000244140625</ele>
        <time>2022-04-17T16:19:42.000Z</time>
      </trkpt>
      <trkpt lat="42.9766761325299739837646484375" lon="-2.392497919499874114990234375">
        <ele>735.4000244140625</ele>
        <time>2022-04-17T16:19:43.000Z</time>
      </trkpt>
      <trkpt lat="42.9766761325299739837646484375" lon="-2.392497919499874114990234375">
        <ele>735.4000244140625</ele>
        <time>2022-04-17T16:19:44.000Z</time>
      </trkpt>
      <trkpt lat="42.9766761325299739837646484375" lon="-2.392497919499874114990234375">
        <ele>735.20001220703125</ele>
        <time>2022-04-17T16:19:45.000Z</time>
      </trkpt>
      <trkpt lat="42.9766761325299739837646484375" lon="-2.392497919499874114990234375">
        <ele>735.20001220703125</ele>
        <time>2022-04-17T16:19:46.000Z</time>
      </trkpt>
      <trkpt lat="42.9766761325299739837646484375" lon="-2.3924964107573032379150390625">
        <ele>735.20001220703125</ele>
        <time>2022-04-17T16:19:47.000Z</time>
      </trkpt>
      <trkpt lat="42.9766761325299739837646484375" lon="-2.392495237290859222412109375">
        <ele>735.20001220703125</ele>
        <time>2022-04-17T16:19:48.000Z</time>
      </trkpt>
      <trkpt lat="42.9766761325299739837646484375" lon="-2.3924950696527957916259765625">
        <ele>735.20001220703125</ele>
        <time>2022-04-17T16:19:49.000Z</time>
      </trkpt>
      <trkpt lat="42.9766761325299739837646484375" lon="-2.3924950696527957916259765625">
        <ele>735.4000244140625</ele>
        <time>2022-04-17T16:19:50.000Z</time>
      </trkpt>
      <trkpt lat="42.9766761325299739837646484375" lon="-2.3924950696527957916259765625">
        <ele>735.20001220703125</ele>
        <time>2022-04-17T16:19:51.000Z</time>
      </trkpt>
      <trkpt lat="42.9766761325299739837646484375" lon="-2.39249490201473236083984375">
        <ele>735.20001220703125</ele>
        <time>2022-04-17T16:19:52.000Z</time>
      </trkpt>
      <trkpt lat="42.9766801558434963226318359375" lon="-2.392494566738605499267578125">
        <ele>735.20001220703125</ele>
        <time>2022-04-17T16:19:53.000Z</time>
      </trkpt>
      <trkpt lat="42.97668359242379665374755859375" lon="-2.39249498583376407623291015625">
        <ele>735.20001220703125</ele>
        <time>2022-04-17T16:19:54.000Z</time>
      </trkpt>
      <trkpt lat="42.97669063322246074676513671875" lon="-2.392499931156635284423828125">
        <ele>735.20001220703125</ele>
        <time>2022-04-17T16:19:55.000Z</time>
      </trkpt>
      <trkpt lat="42.97668778337538242340087890625" lon="-2.3925041221082210540771484375">
        <ele>735.20001220703125</ele>
        <time>2022-04-17T16:19:56.000Z</time>
      </trkpt>
      <trkpt lat="42.97669013030827045440673828125" lon="-2.39250688813626766204833984375">
        <ele>735.4000244140625</ele>
        <time>2022-04-17T16:19:57.000Z</time>
      </trkpt>
      <trkpt lat="42.97668644227087497711181640625" lon="-2.3925076425075531005859375">
        <ele>735.4000244140625</ele>
        <time>2022-04-17T16:19:58.000Z</time>
      </trkpt>
      <trkpt lat="42.9766851849853992462158203125" lon="-2.392512671649456024169921875">
        <ele>735.4000244140625</ele>
        <time>2022-04-17T16:19:59.000Z</time>
      </trkpt>
      <trkpt lat="42.9766932316124439239501953125" lon="-2.3925141803920269012451171875">
        <ele>735.4000244140625</ele>
        <time>2022-04-17T16:20:00.000Z</time>
      </trkpt>
      <trkpt lat="42.9767039604485034942626953125" lon="-2.39251376129686832427978515625">
        <ele>735.4000244140625</ele>
        <time>2022-04-17T16:20:01.000Z</time>
      </trkpt>
      <trkpt lat="42.9767039604485034942626953125" lon="-2.39251376129686832427978515625">
        <ele>735.4000244140625</ele>
        <time>2022-04-17T16:20:02.000Z</time>
      </trkpt>
      <trkpt lat="42.9767039604485034942626953125" lon="-2.39251376129686832427978515625">
        <ele>735.4000244140625</ele>
        <time>2022-04-17T16:20:03.000Z</time>
      </trkpt>
      <trkpt lat="42.9767039604485034942626953125" lon="-2.39251376129686832427978515625">
        <ele>735.4000244140625</ele>
        <time>2022-04-17T16:20:04.000Z</time>
      </trkpt>
      <trkpt lat="42.9767039604485034942626953125" lon="-2.39251376129686832427978515625">
        <ele>735.5999755859375</ele>
        <time>2022-04-17T16:20:05.000Z</time>
      </trkpt>
      <trkpt lat="42.9767039604485034942626953125" lon="-2.39251376129686832427978515625">
        <ele>735.5999755859375</ele>
        <time>2022-04-17T16:20:06.000Z</time>
      </trkpt>
      <trkpt lat="42.9767039604485034942626953125" lon="-2.39251376129686832427978515625">
        <ele>735.5999755859375</ele>
        <time>2022-04-17T16:20:07.000Z</time>
      </trkpt>
      <trkpt lat="42.9767039604485034942626953125" lon="-2.39251376129686832427978515625">
        <ele>735.5999755859375</ele>
        <time>2022-04-17T16:20:08.000Z</time>
      </trkpt>
      <trkpt lat="42.9767039604485034942626953125" lon="-2.39251376129686832427978515625">
        <ele>735.79998779296875</ele>
        <time>2022-04-17T16:20:09.000Z</time>
      </trkpt>
      <trkpt lat="42.9767039604485034942626953125" lon="-2.39251376129686832427978515625">
        <ele>735.79998779296875</ele>
        <time>2022-04-17T16:20:10.000Z</time>
      </trkpt>
      <trkpt lat="42.9767066426575183868408203125" lon="-2.39251376129686832427978515625">
        <ele>736</ele>
        <time>2022-04-17T16:20:11.000Z</time>
      </trkpt>
      <trkpt lat="42.97671041451394557952880859375" lon="-2.3925098218023777008056640625">
        <ele>736</ele>
        <time>2022-04-17T16:20:12.000Z</time>
      </trkpt>
      <trkpt lat="42.97671058215200901031494140625" lon="-2.39250965416431427001953125">
        <ele>736</ele>
        <time>2022-04-17T16:20:13.000Z</time>
      </trkpt>
      <trkpt lat="42.97671074979007244110107421875" lon="-2.392509318888187408447265625">
        <ele>736</ele>
        <time>2022-04-17T16:20:14.000Z</time>
      </trkpt>
      <trkpt lat="42.976711504161357879638671875" lon="-2.39250755868852138519287109375">
        <ele>736</ele>
        <time>2022-04-17T16:20:15.000Z</time>
      </trkpt>
      <trkpt lat="42.9767116717994213104248046875" lon="-2.39250697195529937744140625">
        <ele>736</ele>
        <time>2022-04-17T16:20:16.000Z</time>
      </trkpt>
      <trkpt lat="42.9767116717994213104248046875" lon="-2.39250638522207736968994140625">
        <ele>736</ele>
        <time>2022-04-17T16:20:17.000Z</time>
      </trkpt>
      <trkpt lat="42.9767116717994213104248046875" lon="-2.3925061337649822235107421875">
        <ele>736</ele>
        <time>2022-04-17T16:20:18.000Z</time>
      </trkpt>
      <trkpt lat="42.9767116717994213104248046875" lon="-2.392505295574665069580078125">
        <ele>736</ele>
        <time>2022-04-17T16:20:19.000Z</time>
      </trkpt>
      <trkpt lat="42.9767116717994213104248046875" lon="-2.3925047926604747772216796875">
        <ele>736</ele>
        <time>2022-04-17T16:20:20.000Z</time>
      </trkpt>
      <trkpt lat="42.9767116717994213104248046875" lon="-2.39250454120337963104248046875">
        <ele>736</ele>
        <time>2022-04-17T16:20:21.000Z</time>
      </trkpt>
      <trkpt lat="42.9767116717994213104248046875" lon="-2.39250403828918933868408203125">
        <ele>736</ele>
        <time>2022-04-17T16:20:22.000Z</time>
      </trkpt>
      <trkpt lat="42.9767116717994213104248046875" lon="-2.39250403828918933868408203125">
        <ele>736</ele>
        <time>2022-04-17T16:20:23.000Z</time>
      </trkpt>
      <trkpt lat="42.9767116717994213104248046875" lon="-2.39250403828918933868408203125">
        <ele>735.79998779296875</ele>
        <time>2022-04-17T16:20:24.000Z</time>
      </trkpt>
      <trkpt lat="42.9767116717994213104248046875" lon="-2.39250403828918933868408203125">
        <ele>735.5999755859375</ele>
        <time>2022-04-17T16:20:25.000Z</time>
      </trkpt>
      <trkpt lat="42.97671192325651645660400390625" lon="-2.3925031162798404693603515625">
        <ele>735.5999755859375</ele>
        <time>2022-04-17T16:20:26.000Z</time>
      </trkpt>
      <trkpt lat="42.9767123423516750335693359375" lon="-2.39250294864177703857421875">
        <ele>735.4000244140625</ele>
        <time>2022-04-17T16:20:27.000Z</time>
      </trkpt>
      <trkpt lat="42.97671259380877017974853515625" lon="-2.39250219427049160003662109375">
        <ele>735.4000244140625</ele>
        <time>2022-04-17T16:20:28.000Z</time>
      </trkpt>
      <trkpt lat="42.97671309672296047210693359375" lon="-2.3924977518618106842041015625">
        <ele>735.4000244140625</ele>
        <time>2022-04-17T16:20:29.000Z</time>
      </trkpt>
      <trkpt lat="42.97671326436102390289306640625" lon="-2.3924942314624786376953125">
        <ele>735.4000244140625</ele>
        <time>2022-04-17T16:20:30.000Z</time>
      </trkpt>
      <trkpt lat="42.97671326436102390289306640625" lon="-2.392493225634098052978515625">
        <ele>735.4000244140625</ele>
        <time>2022-04-17T16:20:31.000Z</time>
      </trkpt>
      <trkpt lat="42.97671326436102390289306640625" lon="-2.3924897052347660064697265625">
        <ele>735.20001220703125</ele>
        <time>2022-04-17T16:20:32.000Z</time>
      </trkpt>
      <trkpt lat="42.97671326436102390289306640625" lon="-2.39248760975897312164306640625">
        <ele>735.20001220703125</ele>
        <time>2022-04-17T16:20:33.000Z</time>
      </trkpt>
      <trkpt lat="42.97671326436102390289306640625" lon="-2.3924870230257511138916015625">
        <ele>735.20001220703125</ele>
        <time>2022-04-17T16:20:34.000Z</time>
      </trkpt>
      <trkpt lat="42.97671326436102390289306640625" lon="-2.39248593337833881378173828125">
        <ele>735.20001220703125</ele>
        <time>2022-04-17T16:20:35.000Z</time>
      </trkpt>
      <trkpt lat="42.97671326436102390289306640625" lon="-2.3924846760928630828857421875">
        <ele>735.20001220703125</ele>
        <time>2022-04-17T16:20:36.000Z</time>
      </trkpt>
      <trkpt lat="42.9767126776278018951416015625" lon="-2.39248442463576793670654296875">
        <ele>735.20001220703125</ele>
        <time>2022-04-17T16:20:37.000Z</time>
      </trkpt>
      <trkpt lat="42.97671175561845302581787109375" lon="-2.39248325116932392120361328125">
        <ele>735</ele>
        <time>2022-04-17T16:20:38.000Z</time>
      </trkpt>
      <trkpt lat="42.97671091742813587188720703125" lon="-2.392482496798038482666015625">
        <ele>735</ele>
        <time>2022-04-17T16:20:39.000Z</time>
      </trkpt>
      <trkpt lat="42.9767106659710407257080078125" lon="-2.39248241297900676727294921875">
        <ele>735</ele>
        <time>2022-04-17T16:20:40.000Z</time>
      </trkpt>
      <trkpt lat="42.9767103306949138641357421875" lon="-2.3924823291599750518798828125">
        <ele>735</ele>
        <time>2022-04-17T16:20:41.000Z</time>
      </trkpt>
      <trkpt lat="42.97670982778072357177734375" lon="-2.3924823291599750518798828125">
        <ele>735</ele>
        <time>2022-04-17T16:20:42.000Z</time>
      </trkpt>
      <trkpt lat="42.97670823521912097930908203125" lon="-2.3924823291599750518798828125">
        <ele>735</ele>
        <time>2022-04-17T16:20:43.000Z</time>
      </trkpt>
      <trkpt lat="42.9767076484858989715576171875" lon="-2.3924823291599750518798828125">
        <ele>735</ele>
        <time>2022-04-17T16:20:44.000Z</time>
      </trkpt>
      <trkpt lat="42.976706810295581817626953125" lon="-2.39248216152191162109375">
        <ele>735.20001220703125</ele>
        <time>2022-04-17T16:20:45.000Z</time>
      </trkpt>
      <trkpt lat="42.97670287080109119415283203125" lon="-2.39248207770287990570068359375">
        <ele>735.20001220703125</ele>
        <time>2022-04-17T16:20:46.000Z</time>
      </trkpt>
      <trkpt lat="42.9767019487917423248291015625" lon="-2.39248174242675304412841796875">
        <ele>735.20001220703125</ele>
        <time>2022-04-17T16:20:47.000Z</time>
      </trkpt>
      <trkpt lat="42.97670178115367889404296875" lon="-2.39248157478868961334228515625">
        <ele>735.20001220703125</ele>
        <time>2022-04-17T16:20:48.000Z</time>
      </trkpt>
      <trkpt lat="42.976701445877552032470703125" lon="-2.39248123951256275177001953125">
        <ele>735.4000244140625</ele>
        <time>2022-04-17T16:20:49.000Z</time>
      </trkpt>
      <trkpt lat="42.97670085914433002471923828125" lon="-2.39248123951256275177001953125">
        <ele>735.5999755859375</ele>
        <time>2022-04-17T16:20:50.000Z</time>
      </trkpt>
      <trkpt lat="42.9767006076872348785400390625" lon="-2.39248107187449932098388671875">
        <ele>735.5999755859375</ele>
        <time>2022-04-17T16:20:51.000Z</time>
      </trkpt>
      <trkpt lat="42.976700104773044586181640625" lon="-2.39248090423643589019775390625">
        <ele>735.4000244140625</ele>
        <time>2022-04-17T16:20:52.000Z</time>
      </trkpt>
      <trkpt lat="42.97669650055468082427978515625" lon="-2.3924808204174041748046875">
        <ele>735.4000244140625</ele>
        <time>2022-04-17T16:20:53.000Z</time>
      </trkpt>
      <trkpt lat="42.9766935668885707855224609375" lon="-2.3924808204174041748046875">
        <ele>735.4000244140625</ele>
        <time>2022-04-17T16:20:54.000Z</time>
      </trkpt>
      <trkpt lat="42.9766925610601902008056640625" lon="-2.3924808204174041748046875">
        <ele>735.4000244140625</ele>
        <time>2022-04-17T16:20:55.000Z</time>
      </trkpt>
      <trkpt lat="42.97669113613665103912353515625" lon="-2.39248056896030902862548828125">
        <ele>735.4000244140625</ele>
        <time>2022-04-17T16:20:56.000Z</time>
      </trkpt>
      <trkpt lat="42.9766903817653656005859375" lon="-2.3924803175032138824462890625">
        <ele>735.4000244140625</ele>
        <time>2022-04-17T16:20:57.000Z</time>
      </trkpt>
    </trkseg>
  </trk>
</gpx>
